
Distance (Route):
Temperature : 20.3°C
Humidity : 56.7%
Pressure : 980.7hPa| Receiver | Frames | First received | Last received |
|---|---|---|---|
| BIOWL1-15 | 622 | 2026-08-31 10:57:28 | 2026-08-31 13:04:54 |
| DM0DOS-11 | 581 | 2026-08-31 10:57:28 | 2026-08-31 13:04:26 |
| DL1XH-west | 370 | 2026-08-31 11:35:12 | 2026-08-31 12:51:27 |
| DL1NUX | 368 | 2026-08-31 11:21:36 | 2026-08-31 13:02:19 |
| HSKMA3-T | 322 | 2026-08-31 11:49:06 | 2026-08-31 12:59:20 |
| DL1XH1-15 | 275 | 2026-08-31 11:37:18 | 2026-08-31 12:51:20 |
| AA1-15 | 225 | 2026-08-31 11:57:50 | 2026-08-31 12:44:56 |
| DK7TD | 180 | 2026-08-31 11:35:59 | 2026-08-31 12:49:07 |
| DF8AY | 170 | 2026-08-31 12:03:00 | 2026-08-31 12:43:15 |
| DL1XH-15 | 110 | 2026-08-31 11:55:11 | 2026-08-31 12:42:54 |
| DJ8HS-15 | 107 | 2026-08-31 10:51:39 | 2026-08-31 13:05:24 |
| DB0ND-19 | 91 | 2026-08-31 10:47:22 | 2026-08-31 13:08:06 |
| DL3AQ-11 | 91 | 2026-08-31 11:33:34 | 2026-08-31 12:52:54 |
| DF7PN | 86 | 2026-08-31 10:50:07 | 2026-08-31 13:07:19 |
| DB0UT-7 | 85 | 2026-08-31 10:45:59 | 2026-08-31 13:06:16 |
| DB0NH | 85 | 2026-08-31 10:55:19 | 2026-08-31 13:06:38 |
| HEMX73-11 | 82 | 2026-08-31 10:48:41 | 2026-08-31 12:50:12 |
| CB1BUN | 77 | 2026-08-31 10:47:33 | 2026-08-31 12:47:26 |
| DL1ZP-14 | 76 | 2026-08-31 10:50:50 | 2026-08-31 13:07:38 |
| DL9PN | 68 | 2026-08-31 10:47:10 | 2026-08-31 12:47:53 |
| DO3MHA-11 | 61 | 2026-08-31 11:14:28 | 2026-08-31 12:02:31 |
| DK5PH-5 | 59 | 2026-08-31 10:53:50 | 2026-08-31 13:03:03 |
| DF2AP-13 | 57 | 2026-08-31 11:15:58 | 2026-08-31 13:01:16 |
| BIOWL9-15 | 56 | 2026-08-31 11:01:04 | 2026-08-31 13:04:47 |
| NBG1-10 | 54 | 2026-08-31 11:05:14 | 2026-08-31 13:05:32 |
| GOEST3-10 | 53 | 2026-08-31 12:12:56 | 2026-08-31 12:41:17 |
| DL9SK-14 | 43 | 2026-08-31 11:26:38 | 2026-08-31 13:04:28 |
| DD8BA-10 | 42 | 2026-08-31 11:58:41 | 2026-08-31 12:43:44 |
| SO1NDE-10 | 41 | 2026-08-31 11:22:36 | 2026-08-31 13:01:28 |
| DO9LL-15 | 35 | 2026-08-31 11:18:33 | 2026-08-31 12:57:33 |
| DL4BBY-15 | 35 | 2026-08-31 11:36:10 | 2026-08-31 12:56:29 |
| DL8DAS-14 | 34 | 2026-08-31 11:07:17 | 2026-08-31 12:58:05 |
| DD1CC8 | 33 | 2026-08-31 11:25:05 | 2026-08-31 13:00:55 |
| DO1YAY-16 | 32 | 2026-08-31 11:14:31 | 2026-08-31 12:52:19 |
| DL8DAS-15 | 31 | 2026-08-31 11:18:05 | 2026-08-31 12:56:51 |
| DO3DL | 30 | 2026-08-31 12:24:15 | 2026-08-31 12:50:35 |
| SONCRA | 28 | 2026-08-31 11:39:32 | 2026-08-31 12:52:01 |
| DM3KS-11 | 22 | 2026-08-31 10:51:20 | 2026-08-31 11:20:55 |
| HEMX73-6 | 22 | 2026-08-31 10:55:11 | 2026-08-31 12:38:22 |
| DC4HF-4 | 21 | 2026-08-31 11:32:23 | 2026-08-31 12:22:15 |
| DJ2DS-15 | 18 | 2026-08-31 11:20:54 | 2026-08-31 12:50:29 |
| BUE01 | 15 | 2026-08-31 11:57:48 | 2026-08-31 12:47:30 |
| DH7VM-15 | 11 | 2026-08-31 11:07:30 | 2026-08-31 12:29:26 |
| DF3TZ-5 | 11 | 2026-08-31 11:22:11 | 2026-08-31 12:53:47 |
| SONDE2-11 | 10 | 2026-08-31 12:24:16 | 2026-08-31 12:48:05 |
| BIOWL7-15 | 8 | 2026-08-31 11:17:06 | 2026-08-31 13:01:13 |
| BEGRI65-1 | 8 | 2026-08-31 11:25:10 | 2026-08-31 11:37:47 |
| DF8AY-15 | 8 | 2026-08-31 12:24:39 | 2026-08-31 12:39:55 |
| EDDB2-11 | 7 | 2026-08-31 12:23:00 | 2026-08-31 12:43:11 |
| KANTATE | 6 | 2026-08-31 11:34:27 | 2026-08-31 12:35:55 |
| DJTTGO | 6 | 2026-08-31 11:40:01 | 2026-08-31 12:55:13 |
| WPPR-10 | 5 | 2026-08-31 11:54:33 | 2026-08-31 12:55:07 |
| HTAHTA | 3 | 2026-08-31 12:23:56 | 2026-08-31 12:33:46 |
| SP3BTT-10 | 2 | 2026-08-31 12:22:27 | 2026-08-31 12:23:57 |
| DJ3KS | 1 | 2026-08-31 11:16:08 | 2026-08-31 11:16:08 |
| S3001 | 1 | 2026-08-31 11:59:55 | 2026-08-31 11:59:55 |
| DL1CLM-18 | 1 | 2026-08-31 12:14:36 | 2026-08-31 12:14:36 |
| DG1MJG | 1 | 2026-08-31 12:24:26 | 2026-08-31 12:24:26 |
| OE5DXL-15 | 1 | 2026-08-31 12:28:12 | 2026-08-31 12:28:12 |
| Receiver | Date | Latitude | Longitude | Direction | Speed | Altitude | Climb | Temperature | Humidity | Pressure | Voltage | Killtimer | Uptime | BKT | XDATA |
|---|---|---|---|---|---|---|---|---|---|---|---|---|---|---|---|
| DB0ND-19 | 2026-08-31 13:08:06 | 50.31401 | 9.11161 | 43° | 27km/h | 336m | -13.3m/s | 20.3°C | 56.7% | 980.7hPa | 2.7V | 00:00:00 | 00:00:00 | 00:00:00 | |
| DL1ZP-14 | 2026-08-31 13:07:38 | 50.31359 | 9.11070 | 60° | 46km/h | 430m | -14.2m/s | 19.2°C | 59.8% | 970.2hPa | 2.7V | 00:00:00 | 00:00:00 | 00:00:00 | |
| DB0ND-19 | 2026-08-31 13:07:35 | 50.31342 | 9.11025 | 60° | 40km/h | 472m | -14.5m/s | 18.7°C | 60.3% | 965.3hPa | 2.6V | 00:00:00 | 00:00:00 | 00:00:00 | |
| DF7PN | 2026-08-31 13:07:19 | 50.31208 | 9.10678 | 58° | 46km/h | 786m | -12.2m/s | 15.8°C | 70.9% | 930.7hPa | 2.6V | 00:00:00 | 00:00:00 | 00:00:00 | |
| DL1ZP-14 | 2026-08-31 13:07:07 | 50.31181 | 9.10616 | 49° | 46km/h | 836m | -13.4m/s | 15.4°C | 70.6% | 925.0hPa | 2.6V | 00:00:00 | 00:00:00 | 00:00:00 | |
| DB0ND-19 | 2026-08-31 13:07:04 | 50.31149 | 9.10560 | 43° | 49km/h | 885m | -11.8m/s | 14.9°C | 71.3% | 919.7hPa | 2.6V | 00:00:00 | 00:00:00 | 00:00:00 | |
| DF7PN | 2026-08-31 13:06:48 | 50.31010 | 9.10361 | 41° | 53km/h | 1041m | -10.2m/s | 13.6°C | 74.7% | 902.8hPa | 2.6V | 00:00:00 | 00:00:00 | 00:00:00 | |
| DB0NH | 2026-08-31 13:06:38 | 50.30907 | 9.10226 | 44° | 53km/h | 1143m | -10.6m/s | 12.5°C | 80.6% | 891.8hPa | 2.6V | 02:41:00 | 02:34:09 | 00:00:00 | |
| DL1ZP-14 | 2026-08-31 13:06:36 | 50.30887 | 9.10194 | 47° | 53km/h | 1166m | -11.7m/s | 12.5°C | 77.9% | 889.5hPa | 2.7V | 00:00:00 | 00:00:00 | 00:00:00 | |
| DB0ND-19 | 2026-08-31 13:06:33 | 50.30851 | 9.10131 | 53° | 51km/h | 1218m | -13.7m/s | 11.8°C | 83.2% | 884.0hPa | 2.6V | 00:00:00 | 00:00:00 | 00:00:00 | |
| DB0NH | 2026-08-31 13:06:28 | 50.30822 | 9.10062 | 57° | 51km/h | 1272m | -13.7m/s | 11.2°C | 85.8% | 878.2hPa | 2.6V | 00:00:00 | 02:33:59 | 00:00:00 | |
| DB0NH | 2026-08-31 13:06:18 | 50.30749 | 9.09896 | 57° | 49km/h | 1412m | -14.0m/s | 9.9°C | 91.7% | 863.5hPa | 2.6V | 00:00:00 | 02:33:49 | 00:00:00 | |
| DF7PN | 2026-08-31 13:06:17 | 50.30742 | 9.09880 | 54° | 47km/h | 1426m | -13.9m/s | 9.8°C | 91.8% | 862.2hPa | 2.6V | 00:00:00 | 00:00:00 | 00:00:00 | |
| DB0UT-7 | 2026-08-31 13:06:16 | 50.30734 | 9.09864 | 56° | 51km/h | 1440m | -13.6m/s | 9.6°C | 93.1% | 860.8hPa | 2.6V | 00:00:00 | 00:00:00 | 00:00:00 | |
| DB0NH | 2026-08-31 13:06:08 | 50.30679 | 9.09734 | 55° | 55km/h | 1543m | -13.1m/s | 8.8°C | 92.8% | 849.9hPa | 2.6V | 02:41:00 | 02:33:39 | 00:00:00 | |
| DL1ZP-14 | 2026-08-31 13:06:05 | 50.30656 | 9.09682 | 56° | 55km/h | 1581m | -12.7m/s | 8.5°C | 94.5% | 846.3hPa | 2.7V | 00:00:00 | 00:00:00 | 00:00:00 | |
| DB0UT-7 | 2026-08-31 13:06:04 | 50.30648 | 9.09664 | 56° | 62km/h | 1593m | -12.1m/s | 8.3°C | 96.2% | 844.9hPa | 2.7V | 02:41:00 | 02:33:35 | 00:00:00 | |
| DB0ND-19 | 2026-08-31 13:06:02 | 50.30633 | 9.09628 | 58° | 53km/h | 1616m | -10.8m/s | 8.2°C | 93.4% | 842.3hPa | 2.6V | 00:00:00 | 00:00:00 | 00:00:00 | |
| DF7PN | 2026-08-31 13:05:46 | 50.30519 | 9.09283 | 69° | 60km/h | 1811m | -10.9m/s | 7.2°C | 88.8% | 822.7hPa | 2.6V | 00:00:00 | 00:00:00 | 00:00:00 | |
| DB0UT-7 | 2026-08-31 13:05:40 | 50.30489 | 9.09165 | 70° | 69km/h | 1866m | -11.3m/s | 6.9°C | 84.4% | 817.2hPa | 2.6V | 00:00:00 | 00:00:00 | 00:00:00 | |
| DB0NH | 2026-08-31 13:05:38 | 50.30477 | 9.09115 | 70° | 69km/h | 1889m | -11.7m/s | 6.9°C | 80.3% | 815.0hPa | 2.6V | 02:42:00 | 02:33:09 | 00:00:00 | |
| DL1ZP-14 | 2026-08-31 13:05:34 | 50.30445 | 9.08987 | 68° | 69km/h | 1945m | -11.4m/s | 6.5°C | 81.2% | 809.6hPa | 2.7V | 00:00:00 | 00:00:00 | 00:00:00 | |
| NBG1-10 | 2026-08-31 13:05:32 | 50.30438 | 9.08961 | 69° | 68km/h | 1956m | -10.7m/s | 6.4°C | 82.0% | 808.4hPa | 2.7V | 00:00:00 | 02:33:03 | 00:00:00 | |
| DB0ND-19 | 2026-08-31 13:05:31 | 50.30426 | 9.08910 | 69° | 71km/h | 1976m | -11.1m/s | 6.4°C | 77.9% | 806.3hPa | 2.7V | 00:00:00 | 00:00:00 | 00:00:00 | |
| DB0UT-7 | 2026-08-31 13:05:30 | 50.30426 | 9.08910 | 70° | 75km/h | 1976m | -11.0m/s | 6.4°C | 78.6% | 806.2hPa | 2.7V | 00:00:00 | 02:33:01 | 00:00:00 | |
| DB0NH | 2026-08-31 13:05:28 | 50.30414 | 9.08858 | 69° | 69km/h | 1998m | -11.3m/s | 6.2°C | 79.1% | 804.2hPa | 2.7V | 00:00:00 | 02:32:59 | 00:00:00 | |
| DJ8HS-15 | 2026-08-31 13:05:24 | 50.30389 | 9.08753 | 70° | 68km/h | 2041m | -10.6m/s | 5.8°C | 79.6% | 799.9hPa | 2.7V | 00:00:00 | 02:32:55 | 00:00:00 | |
| DF7PN | 2026-08-31 13:05:15 | 50.30337 | 9.08521 | 70° | 66km/h | 2136m | -10.9m/s | 5.3°C | 79.3% | 790.6hPa | 2.7V | 00:00:00 | 00:00:00 | 00:00:00 | |
| BIOWL1-15 | 2026-08-31 13:04:54 | 50.30237 | 9.07985 | 72° | 69km/h | 2369m | -11.9m/s | 3.7°C | 86.9% | 768.7hPa | 2.7V | 02:43:22 | 02:32:25 | 00:00:00 | |
| BIOWL9-15 | 2026-08-31 13:04:47 | 50.30199 | 9.07777 | 78° | 71km/h | 2461m | -11.6m/s | 3.0°C | 81.4% | 760.1hPa | 2.6V | 00:00:00 | 00:00:00 | 00:00:00 | |
| BIOWL1-15 | 2026-08-31 13:04:42 | 50.30175 | 9.07606 | 78° | 75km/h | 2529m | -12m/s | 2.6°C | 88% | 753.8hPa | 2.6V | 02:43:22 | 02:32:11 | 00:00:00 | |
| BIOWL1-15 | 2026-08-31 13:04:31 | 50.30103 | 9.07157 | 75° | 80km/h | 2702m | -10.8m/s | 1.8°C | 87.5% | 737.9hPa | 2.6V | 02:44:13 | 02:31:56 | 00:00:00 | |
| DL9SK-14 | 2026-08-31 13:04:28 | 50.30113 | 9.07219 | 74° | 82km/h | 2680m | -11.4m/s | 1.8°C | 79.0% | 739.9hPa | 2.7V | 00:00:00 | 00:00:00 | 00:00:00 | |
| DM0DOS-11 | 2026-08-31 13:04:26 | 50.30084 | 9.07064 | 71° | 84km/h | 2736m | -11.2m/s | 1.5°C | 85.2% | 734.8hPa | 2.7V | 02:43:38 | 02:31:53 | 00:00:00 | |
| DJ8HS-15 | 2026-08-31 13:04:24 | 50.30097 | 9.07125 | 73° | 86km/h | 2713m | -11.1m/s | 1.6°C | 82.0% | 736.9hPa | 2.7V | 00:00:00 | 02:31:55 | 00:00:00 | |
| NBG1-10 | 2026-08-31 13:04:23 | 50.30090 | 9.07095 | 73° | 84km/h | 2724m | -11.1m/s | 1.6°C | 83.4% | 735.9hPa | 2.7V | 02:43:00 | 02:31:54 | 00:00:00 | |
| DM0DOS-11 | 2026-08-31 13:04:21 | 50.30050 | 9.06907 | 69° | 84km/h | 2791m | -11.5m/s | 1.1°C | 93.8% | 729.8hPa | 2.6V | 02:43:43 | 02:31:48 | 00:00:00 | |
| BIOWL1-15 | 2026-08-31 13:04:20 | 50.30071 | 9.07001 | 72° | 84km/h | 2758m | -11.2m/s | 1.3°C | 94.4% | 732.8hPa | 2.6V | 02:44:13 | 02:31:51 | 00:00:00 | |
| DM0DOS-11 | 2026-08-31 13:04:16 | 50.30012 | 9.06752 | 68° | 86km/h | 2848m | -11.4m/s | 0.8°C | 94.9% | 724.7hPa | 2.7V | 02:43:48 | 02:31:43 | 00:00:00 | |
| BIOWL9-15 | 2026-08-31 13:04:16 | 50.30035 | 9.06845 | 69° | 84km/h | 2814m | -10.9m/s | 1.0°C | 94.3% | 727.7hPa | 2.6V | 00:00:00 | 00:00:00 | 00:00:00 | |
| DB0NH | 2026-08-31 13:04:15 | 50.30035 | 9.06845 | 70° | 84km/h | 2814m | -10.9m/s | 1.0°C | 95.6% | 727.7hPa | 2.6V | 00:00:00 | 02:31:46 | 00:00:00 | |
| DF7PN | 2026-08-31 13:04:13 | 50.30012 | 9.06752 | 68° | 84km/h | 2848m | -11.4m/s | 0.8°C | 93.7% | 724.7hPa | 2.6V | 00:00:00 | 00:00:00 | 00:00:00 | |
| DM0DOS-11 | 2026-08-31 13:04:10 | 50.29971 | 9.06595 | 68° | 84km/h | 2905m | -10.7m/s | 0.3°C | 96.8% | 719.5hPa | 2.6V | 02:43:53 | 02:31:38 | 00:00:00 | |
| BIOWL1-15 | 2026-08-31 13:04:09 | 50.29988 | 9.06658 | 69° | 86km/h | 2882m | -11.5m/s | 0.6°C | 98.3% | 721.6hPa | 2.6V | 02:44:13 | 02:31:40 | 00:00:00 | |
| DM0DOS-11 | 2026-08-31 13:04:04 | 50.29932 | 9.06436 | 68° | 88km/h | 2957m | -10.1m/s | -0.1°C | 93.5% | 714.7hPa | 2.6V | 02:43:58 | 02:31:33 | 00:00:00 | |
| NBG1-10 | 2026-08-31 13:04:01 | 50.29924 | 9.06404 | 69° | 77km/h | 2967m | -10.2m/s | -0.1°C | 92.9% | 713.9hPa | 2.6V | 00:00:00 | 02:31:32 | 00:00:00 | |
| DJ8HS-15 | 2026-08-31 13:04:00 | 50.29916 | 9.06373 | 70° | 78km/h | 2977m | -10.0m/s | -0.2°C | 93.5% | 713.0hPa | 2.6V | 00:00:00 | 02:31:31 | 00:00:00 | |
| DM0DOS-11 | 2026-08-31 13:03:59 | 50.29895 | 9.06280 | 70° | 82km/h | 3007m | -10.2m/s | -0.3°C | 89.9% | 710.1hPa | 2.6V | 02:44:03 | 02:31:28 | 00:00:00 | |
| BIOWL1-15 | 2026-08-31 13:03:58 | 50.29902 | 9.06310 | 71° | 82km/h | 2997m | -10m/s | -0.3°C | 94.6% | 711.2hPa | 2.6V | 02:44:13 | 02:31:29 | 00:00:00 | |
| DB0ND-19 | 2026-08-31 13:03:58 | 50.29895 | 9.06280 | 70° | 82km/h | 3007m | -10.2m/s | -0.3°C | 88.6% | 710.2hPa | 2.6V | 00:00:00 | 00:00:00 | 00:00:00 | |
| DL9SK-14 | 2026-08-31 13:03:56 | 50.29888 | 9.06249 | 71° | 78km/h | 3018m | -10.4m/s | -0.4°C | 86.6% | 709.4hPa | 2.6V | 00:00:00 | 00:00:00 | 00:00:00 | |
| DB0NH | 2026-08-31 13:03:55 | 50.29882 | 9.06219 | 72° | 75km/h | 3028m | -10.5m/s | -0.3°C | 85.8% | 708.3hPa | 2.6V | 02:44:00 | 02:31:26 | 00:00:00 | |
| DB0UT-7 | 2026-08-31 13:03:54 | 50.29875 | 9.06190 | 72° | 77km/h | 3039m | -10.0m/s | -0.3°C | 82.0% | 707.4hPa | 2.6V | 00:00:00 | 02:31:25 | 00:00:00 | |
| DM0DOS-11 | 2026-08-31 13:03:48 | 50.29829 | 9.05990 | 70° | 78km/h | 3111m | -10.5m/s | -0.3°C | 49.4% | 701.3hPa | 2.6V | 02:44:13 | 02:31:18 | 00:00:00 | |
| BIOWL1-15 | 2026-08-31 13:03:47 | 50.29823 | 9.05961 | 71° | 77km/h | 3122m | -10.1m/s | -0.4°C | 55.6% | 700.3hPa | 2.6V | 02:45:04 | 02:31:17 | 00:00:00 | |
| DM0DOS-11 | 2026-08-31 13:03:43 | 50.29795 | 9.05846 | 69° | 78km/h | 3164m | -10.7m/s | -0.7°C | 49.4% | 696.6hPa | 2.6V | 02:44:18 | 02:31:13 | 00:00:00 | |
| DF7PN | 2026-08-31 13:03:42 | 50.29788 | 9.05818 | 70° | 75km/h | 3175m | -10.3m/s | -0.7°C | 46.8% | 695.8hPa | 2.6V | 00:00:00 | 00:00:00 | 00:00:00 | |
| DJ8HS-15 | 2026-08-31 13:03:40 | 50.29781 | 9.05790 | 69° | 73km/h | 3186m | -10.6m/s | -0.5°C | 47.2% | 694.6hPa | 2.6V | 02:44:00 | 02:31:11 | 00:00:00 | |
| DM0DOS-11 | 2026-08-31 13:03:37 | 50.29760 | 9.05707 | 67° | 75km/h | 3219m | -11.1m/s | -0.6°C | 42.2% | 691.9hPa | 2.6V | 02:44:23 | 02:31:08 | 00:00:00 | |
| DM0DOS-11 | 2026-08-31 13:03:37 | 50.29717 | 9.05545 | 66° | 77km/h | 3283m | -11.2m/s | -0.9°C | 46.5% | 686.2hPa | 2.6V | 02:44:29 | 02:31:02 | 00:00:00 | |
| BIOWL1-15 | 2026-08-31 13:03:37 | 50.29760 | 9.05707 | 68° | 75km/h | 3219m | -11.1m/s | -0.6°C | 48.5% | 691.9hPa | 2.6V | 02:45:04 | 02:31:08 | 00:00:00 | |
| DM0DOS-11 | 2026-08-31 13:03:32 | 50.29676 | 9.05388 | 68° | 69km/h | 3354m | -11.5m/s | -1.4°C | 48.3% | 680.2hPa | 2.6V | 02:44:35 | 02:30:56 | 00:00:00 | |
| BIOWL1-15 | 2026-08-31 13:03:26 | 50.29683 | 9.05414 | 66° | 69km/h | 3342m | -11.9m/s | -1.4°C | 54.3% | 681.2hPa | 2.6V | 02:45:04 | 02:30:57 | 00:00:00 | |
| DB0NH | 2026-08-31 13:03:25 | 50.29676 | 9.05388 | 69° | 73km/h | 3354m | -11.5m/s | -1.4°C | 48.3% | 680.2hPa | 2.6V | 00:00:00 | 02:30:56 | 00:00:00 | |
| DJ8HS-15 | 2026-08-31 13:03:19 | 50.29635 | 9.05235 | 67° | 73km/h | 3425m | -12.7m/s | -1.9°C | 49.6% | 674.1hPa | 2.6V | 00:00:00 | 02:30:50 | 00:00:00 | |
| DM0DOS-11 | 2026-08-31 13:03:18 | 50.29595 | 9.05081 | 66° | 73km/h | 3499m | -12.8m/s | -2.6°C | 49.9% | 668hPa | 2.6V | 02:44:47 | 02:30:44 | 00:00:00 | |
| BIOWL1-15 | 2026-08-31 13:03:16 | 50.29602 | 9.05107 | 68° | 71km/h | 3487m | -12.8m/s | -2.5°C | 56.4% | 669hPa | 2.6V | 02:45:04 | 02:30:45 | 00:00:00 | |
| BIOWL9-15 | 2026-08-31 13:03:14 | 50.29595 | 9.05080 | 66° | 71km/h | 3499m | -12.8m/s | -2.6°C | 49.0% | 668.0hPa | 2.6V | 00:00:00 | 00:00:00 | 00:00:00 | |
| DM0DOS-11 | 2026-08-31 13:03:13 | 50.29560 | 9.04949 | 66° | 75km/h | 3563m | -12.9m/s | -3.1°C | 51.6% | 662.7hPa | 2.6V | 02:44:52 | 02:30:39 | 00:00:00 | |
| BIOWL1-15 | 2026-08-31 13:03:05 | 50.29539 | 9.04869 | 68° | 73km/h | 3600m | -12.8m/s | -3.5°C | 60.6% | 659.6hPa | 2.6V | 02:45:04 | 02:30:36 | 00:00:00 | |
| DM0DOS-11 | 2026-08-31 13:03:03 | 50.29526 | 9.04815 | 67° | 73km/h | 3625m | -12.3m/s | -3.6°C | 55.1% | 657.5hPa | 2.6V | 02:44:57 | 02:30:34 | 00:00:00 | |
| DM0DOS-11 | 2026-08-31 13:03:03 | 50.29492 | 9.04675 | 69° | 75km/h | 3688m | -12.8m/s | -4°C | 53.5% | 652.2hPa | 2.6V | 02:45:02 | 02:30:29 | 00:00:00 | |
| DK5PH-5 | 2026-08-31 13:03:03 | 50.29526 | 9.04815 | 68° | 80km/h | 3625m | -12.3m/s | -3.6°C | 55.1% | 657.4hPa | 2.6V | 02:44:00 | 02:30:34 | 00:00:00 | |
| DJ8HS-15 | 2026-08-31 13:02:59 | 50.29499 | 9.04704 | 71° | 80km/h | 3676m | -13.2m/s | -3.8°C | 54.3% | 653.4hPa | 2.6V | 00:00:00 | 02:30:30 | 00:00:00 | |
| DM0DOS-11 | 2026-08-31 13:02:58 | 50.29459 | 9.04529 | 70° | 80km/h | 3753m | -13.6m/s | -4.2°C | 47.2% | 646.8hPa | 2.6V | 02:45:07 | 02:30:24 | 00:00:00 | |
| BIOWL1-15 | 2026-08-31 13:02:57 | 50.29472 | 9.04588 | 72° | 78km/h | 3727m | -13m/s | -4.1°C | 56.7% | 649.1hPa | 2.6V | 02:45:55 | 02:30:26 | 00:00:00 | |
| DB0NH | 2026-08-31 13:02:54 | 50.29466 | 9.04558 | 72° | 80km/h | 3740m | -13.1m/s | -4.1°C | 47.9% | 647.8hPa | 2.5V | 00:00:00 | 02:30:25 | 00:00:00 | |
| DM0DOS-11 | 2026-08-31 13:02:53 | 50.29424 | 9.04376 | 70° | 80km/h | 3819m | -12.6m/s | -4.6°C | 46.1% | 641.6hPa | 2.5V | 02:45:12 | 02:30:19 | 00:00:00 | |
| BIOWL1-15 | 2026-08-31 13:02:45 | 50.29403 | 9.04287 | 69° | 80km/h | 3857m | -13.5m/s | -4.9°C | 51.3% | 638.3hPa | 2.6V | 02:45:55 | 02:30:16 | 00:00:00 | |
| DM0DOS-11 | 2026-08-31 13:02:43 | 50.29389 | 9.04226 | 70° | 82km/h | 3884m | -13.5m/s | -5.1°C | 45.9% | 636.2hPa | 2.6V | 02:45:17 | 02:30:14 | 00:00:00 | |
| BIOWL1-15 | 2026-08-31 13:02:34 | 50.29331 | 9.03954 | 73° | 82km/h | 4000m | -13.9m/s | -5.8°C | 48.9% | 626.6hPa | 2.5V | 02:45:55 | 02:30:05 | 00:00:00 | |
| BIOWL1-15 | 2026-08-31 13:02:23 | 50.29267 | 9.03624 | 73° | 80km/h | 4141m | -13.1m/s | -6.6°C | 43.3% | 615.4hPa | 2.5V | 02:45:55 | 02:29:54 | 00:00:00 | |
| DM0DOS-11 | 2026-08-31 13:02:21 | 50.29242 | 9.03504 | 69° | 80km/h | 4192m | -13.5m/s | -6.8°C | 31.7% | 611.1hPa | 2.6V | 02:45:41 | 02:29:50 | 00:00:00 | |
| DL1NUX | 2026-08-31 13:02:19 | 50.29213 | 9.03356 | 73° | 80km/h | 4259m | -13.5m/s | -7.1°C | 30.5% | 606hPa | 2.6V | 02:45:46 | 02:29:45 | 00:00:00 | |
| BIOWL1-15 | 2026-08-31 13:02:13 | 50.29207 | 9.03325 | 75° | 80km/h | 4272m | -12.9m/s | -7.2°C | 33.6% | 605hPa | 2.5V | 02:45:55 | 02:29:44 | 00:00:00 | |
| BIOWL9-15 | 2026-08-31 13:02:11 | 50.29197 | 9.03264 | 74° | 80km/h | 4298m | -13.3m/s | -7.3°C | 23.7% | 603.1hPa | 2.5V | 00:00:00 | 00:00:00 | 00:00:00 | |
| DF7PN | 2026-08-31 13:02:08 | 50.29172 | 9.03139 | 71° | 78km/h | 4352m | -13.8m/s | -7.6°C | 23.6% | 599.1hPa | 2.5V | 00:00:00 | 00:00:00 | 00:00:00 | |
| DL1NUX | 2026-08-31 13:02:06 | 50.29137 | 9.02991 | 67° | 80km/h | 4418m | -12.8m/s | -7.9°C | 19.7% | 594.1hPa | 2.5V | 02:45:58 | 02:29:33 | 00:00:00 | |
| BIOWL1-15 | 2026-08-31 13:02:02 | 50.29129 | 9.02962 | 68° | 80km/h | 4431m | -12.7m/s | -7.8°C | 18.9% | 593hPa | 2.6V | 02:46:46 | 02:29:32 | 00:00:00 | |
| DL1ZP-14 | 2026-08-31 13:01:56 | 50.29087 | 9.02817 | 65° | 78km/h | 4496m | -13.0m/s | -7.9°C | 12.5% | 588.1hPa | 2.6V | 00:00:00 | 00:00:00 | 00:00:00 | |
| DL1NUX | 2026-08-31 13:01:55 | 50.29038 | 9.02642 | 66° | 82km/h | 4574m | -12.9m/s | -8.4°C | 14.7% | 582.1hPa | 2.6V | 02:46:10 | 02:29:21 | 00:00:00 | |
| BIOWL1-15 | 2026-08-31 13:01:52 | 50.29054 | 9.02700 | 67° | 80km/h | 4549m | -13.4m/s | -8.2°C | 17.3% | 584.1hPa | 2.5V | 02:46:46 | 02:29:23 | 00:00:00 | |
| DL1NUX | 2026-08-31 13:01:45 | 50.28962 | 9.02344 | 69° | 80km/h | 4700m | -12.6m/s | -9.6°C | 15.8% | 572.5hPa | 2.5V | 02:46:20 | 02:29:11 | 00:00:00 | |
| BIOWL1-15 | 2026-08-31 13:01:42 | 50.28975 | 9.02403 | 68° | 78km/h | 4676m | -12.1m/s | -9.4°C | 18.7% | 574.4hPa | 2.6V | 02:46:46 | 02:29:13 | 00:00:00 | |
| DL1NUX | 2026-08-31 13:01:40 | 50.28927 | 9.02199 | 70° | 77km/h | 4762m | -12m/s | -9.8°C | 12.3% | 568hPa | 2.5V | 02:46:25 | 02:29:06 | 00:00:00 | |
| DJ8HS-15 | 2026-08-31 13:01:39 | 50.28955 | 9.02314 | 71° | 80km/h | 4713m | -13.0m/s | -9.6°C | 15.5% | 571.7hPa | 2.6V | 02:46:00 | 02:29:10 | 00:00:00 | |
| DF7PN | 2026-08-31 13:01:37 | 50.28941 | 9.02256 | 69° | 78km/h | 4738m | -12.2m/s | -9.8°C | 13.5% | 569.9hPa | 2.6V | 00:00:00 | 00:00:00 | 00:00:00 | |
| DL1NUX | 2026-08-31 13:01:35 | 50.28892 | 9.02054 | 68° | 78km/h | 4821m | -11.8m/s | -10.1°C | 14% | 563.6hPa | 2.6V | 02:46:30 | 02:29:01 | 00:00:00 | |
| BIOWL1-15 | 2026-08-31 13:01:32 | 50.28892 | 9.02054 | 69° | 78km/h | 4821m | -11.8m/s | -10.1°C | 16.5% | 563.6hPa | 2.6V | 02:46:46 | 02:29:01 | 00:00:00 | |
| DM0DOS-11 | 2026-08-31 13:01:28 | 50.28878 | 9.01995 | 69° | 80km/h | 4844m | -12m/s | -10.2°C | 16.1% | 561.9hPa | 2.5V | 02:46:32 | 02:28:59 | 00:00:00 | |
| SO1NDE-10 | 2026-08-31 13:01:28 | 50.28878 | 9.01995 | 70° | 78km/h | 4844m | -12.0m/s | -10.1°C | 16.1% | 561.9hPa | 2.5V | 00:00:00 | 02:28:59 | 00:00:00 | |
| NBG1-10 | 2026-08-31 13:01:27 | 50.28871 | 9.01965 | 70° | 78km/h | 4856m | -11.6m/s | -10.2°C | 16.5% | 561.1hPa | 2.5V | 02:46:00 | 02:28:58 | 00:00:00 | |
| DM0DOS-11 | 2026-08-31 13:01:23 | 50.28842 | 9.01846 | 68° | 80km/h | 4902m | -11.8m/s | -10.6°C | 17.5% | 557.7hPa | 2.6V | 02:46:37 | 02:28:54 | 00:00:00 | |
| BIOWL1-15 | 2026-08-31 13:01:20 | 50.28803 | 9.01698 | 66° | 80km/h | 4962m | -12m/s | -11°C | 22.1% | 553.3hPa | 2.6V | 02:46:46 | 02:28:49 | 00:00:00 | |
| DL1NUX | 2026-08-31 13:01:20 | 50.28819 | 9.01757 | 67° | 82km/h | 4937m | -12.7m/s | -10.8°C | 18% | 555.2hPa | 2.5V | 02:46:40 | 02:28:51 | 00:00:00 | |
| DJ8HS-15 | 2026-08-31 13:01:19 | 50.28811 | 9.01727 | 67° | 78km/h | 4950m | -12.8m/s | -10.9°C | 18.2% | 554.2hPa | 2.6V | 00:00:00 | 02:28:50 | 00:00:00 | |
| DM0DOS-11 | 2026-08-31 13:01:18 | 50.28778 | 9.01610 | 65° | 82km/h | 4996m | -11.4m/s | -11.2°C | 19.8% | 551hPa | 2.6V | 02:46:45 | 02:28:46 | 00:00:00 | |
| DF2AP-13 | 2026-08-31 13:01:16 | 50.28786 | 9.01640 | 67° | 78km/h | 4985m | -10.8m/s | -11.0°C | 19.6% | 551.6hPa | 2.6V | 02:46:00 | 02:28:47 | 00:00:00 | |
| BIOWL7-15 | 2026-08-31 13:01:13 | 50.28770 | 9.01581 | 66° | 82km/h | 5007m | -11.5m/s | -11.3°C | 19.4% | 550.1hPa | 2.6V | 02:46:00 | 00:00:00 | 00:00:00 | |
| DM0DOS-11 | 2026-08-31 13:01:12 | 50.28728 | 9.01436 | 63° | 78km/h | 5066m | -13m/s | -11.7°C | 24% | 546hPa | 2.6V | 02:46:51 | 02:28:40 | 00:00:00 | |
| BIOWL1-15 | 2026-08-31 13:01:12 | 50.28737 | 9.01465 | 66° | 80km/h | 5054m | -12.6m/s | -11.6°C | 27.4% | 546.9hPa | 2.6V | 02:47:37 | 02:28:41 | 00:00:00 | |
| BIOWL9-15 | 2026-08-31 13:01:09 | 50.28728 | 9.01436 | 63° | 78km/h | 5066m | -13.0m/s | -11.7°C | 23.1% | 546.0hPa | 2.5V | 00:00:00 | 00:00:00 | 00:00:00 | |
| DF7PN | 2026-08-31 13:01:06 | 50.28702 | 9.01354 | 62° | 77km/h | 5104m | -12.6m/s | -12.0°C | 26.2% | 543.3hPa | 2.5V | 00:00:00 | 00:00:00 | 00:00:00 | |
| DK5PH-5 | 2026-08-31 13:01:03 | 50.28675 | 9.01273 | 63° | 78km/h | 5141m | -11.8m/s | -12.2°C | 33.3% | 540.6hPa | 2.5V | 00:00:00 | 02:28:34 | 00:00:00 | |
| DM0DOS-11 | 2026-08-31 13:01:02 | 50.28641 | 9.01164 | 65° | 77km/h | 5191m | -13.1m/s | -12.7°C | 34.1% | 537.1hPa | 2.5V | 02:47:01 | 02:28:30 | 00:00:00 | |
| BIOWL1-15 | 2026-08-31 13:00:59 | 50.28641 | 9.01164 | 65° | 77km/h | 5191m | -13.1m/s | -12.7°C | 39.7% | 537.1hPa | 2.5V | 02:47:37 | 02:28:30 | 00:00:00 | |
| DD1CC8 | 2026-08-31 13:00:55 | 50.28602 | 9.01024 | 68° | 75km/h | 5255m | -12.6m/s | -13.2°C | 39.7% | 532.6hPa | 2.6V | 00:00:00 | 00:00:00 | 00:00:00 | |
| DL1NUX | 2026-08-31 13:00:54 | 50.28568 | 9.00886 | 69° | 77km/h | 5319m | -13m/s | -13.8°C | 46% | 528.1hPa | 2.6V | 02:47:11 | 02:28:20 | 00:00:00 | |
| DB0NH | 2026-08-31 13:00:54 | 50.28602 | 9.01024 | 69° | 80km/h | 5255m | -12.6m/s | -13.2°C | 41.1% | 532.6hPa | 2.6V | 02:47:00 | 02:28:25 | 00:00:00 | |
| DM0DOS-11 | 2026-08-31 13:00:52 | 50.28560 | 9.00858 | 68° | 78km/h | 5332m | -13.3m/s | -14°C | 46.8% | 527.2hPa | 2.6V | 02:47:12 | 02:28:19 | 00:00:00 | |
| BIOWL1-15 | 2026-08-31 13:00:49 | 50.28567 | 9.00886 | 69° | 77km/h | 5319m | -13m/s | -13.8°C | 51.7% | 528.2hPa | 2.6V | 02:47:37 | 02:28:20 | 00:00:00 | |
| DF2AP-13 | 2026-08-31 13:00:47 | 50.28545 | 9.00800 | 69° | 82km/h | 5358m | -12.9m/s | -14.2°C | 48.3% | 525.5hPa | 2.5V | 00:00:00 | 02:28:17 | 00:00:00 | |
| DL1NUX | 2026-08-31 13:00:44 | 50.28492 | 9.00592 | 68° | 80km/h | 5443m | -11.8m/s | -15°C | 54% | 519.6hPa | 2.5V | 02:47:21 | 02:28:10 | 00:00:00 | |
| DM0DOS-11 | 2026-08-31 13:00:42 | 50.28485 | 9.00562 | 68° | 80km/h | 5454m | -11.2m/s | -15.1°C | 55.2% | 518.9hPa | 2.6V | 02:47:22 | 02:28:09 | 00:00:00 | |
| BIOWL1-15 | 2026-08-31 13:00:38 | 50.28469 | 9.00502 | 68° | 84km/h | 5477m | -11.9m/s | -15.2°C | 58.1% | 517.3hPa | 2.6V | 02:47:37 | 02:28:07 | 00:00:00 | |
| DF7PN | 2026-08-31 13:00:35 | 50.28462 | 9.00472 | 67° | 82km/h | 5489m | -11.9m/s | -15.3°C | 51.7% | 516.5hPa | 2.6V | 00:00:00 | 00:00:00 | 00:00:00 | |
| DL1NUX | 2026-08-31 13:00:34 | 50.28411 | 9.00295 | 65° | 82km/h | 5556m | -11.3m/s | -15.9°C | 55.6% | 511.8hPa | 2.6V | 02:47:31 | 02:28:00 | 00:00:00 | |
| BIOWL1-15 | 2026-08-31 13:00:25 | 50.28328 | 9.00029 | 64° | 84km/h | 5652m | -10.9m/s | -16.6°C | 57.4% | 505.3hPa | 2.6V | 02:48:28 | 02:27:51 | 00:00:00 | |
| DD1CC8 | 2026-08-31 13:00:24 | 50.28356 | 9.00117 | 62° | 82km/h | 5620m | -11.1m/s | -16.3°C | 49.9% | 507.4hPa | 2.6V | 00:00:00 | 00:00:00 | 00:00:00 | |
| DL1NUX | 2026-08-31 13:00:24 | 50.28318 | 9.00000 | 63° | 82km/h | 5663m | -10.9m/s | -16.7°C | 54.8% | 504.6hPa | 2.6V | 02:47:41 | 02:27:50 | 00:00:00 | |
| DL1ZP-14 | 2026-08-31 13:00:23 | 50.28356 | 9.00117 | 62° | 82km/h | 5620m | -11.1m/s | -16.3°C | 49.9% | 507.4hPa | 2.6V | 00:00:00 | 00:00:00 | 00:00:00 | |
| NBG1-10 | 2026-08-31 13:00:21 | 50.28337 | 9.00059 | 64° | 86km/h | 5642m | -10.7m/s | -16.5°C | 52.3% | 505.9hPa | 2.6V | 00:00:00 | 02:27:52 | 00:00:00 | |
| DB0ND-19 | 2026-08-31 13:00:20 | 50.28328 | 9.00029 | 63° | 84km/h | 5652m | -10.9m/s | -16.6°C | 50.9% | 505.3hPa | 2.6V | 00:00:00 | 00:00:00 | 00:00:00 | |
| DJ8HS-15 | 2026-08-31 13:00:19 | 50.28318 | 8.99999 | 64° | 86km/h | 5663m | -10.9m/s | -16.6°C | 54.8% | 504.6hPa | 2.6V | 00:00:00 | 02:27:50 | 00:00:00 | |
| DF2AP-13 | 2026-08-31 13:00:17 | 50.28289 | 8.99911 | 64° | 88km/h | 5697m | -11.0m/s | -16.9°C | 54.4% | 502.2hPa | 2.6V | 00:00:00 | 02:27:47 | 00:00:00 | |
| DL1NUX | 2026-08-31 13:00:13 | 50.28221 | 8.99702 | 62° | 84km/h | 5773m | -10.6m/s | -17.6°C | 59.5% | 497.1hPa | 2.6V | 02:47:51 | 02:27:40 | 00:00:00 | |
| BIOWL1-15 | 2026-08-31 13:00:11 | 50.28221 | 8.99702 | 63° | 84km/h | 5773m | -10.6m/s | -17.6°C | 63.1% | 497.1hPa | 2.6V | 02:48:28 | 02:27:40 | 00:00:00 | |
| BIOWL9-15 | 2026-08-31 13:00:08 | 50.28201 | 8.99642 | 62° | 86km/h | 5795m | -10.7m/s | -17.8°C | 54.7% | 495.8hPa | 2.6V | 00:00:00 | 00:00:00 | 00:00:00 | |
| DM0DOS-11 | 2026-08-31 13:00:05 | 50.28139 | 8.99462 | 61° | 88km/h | 5861m | -10.6m/s | -18.4°C | 56.6% | 491.5hPa | 2.6V | 02:47:59 | 02:27:32 | 00:00:00 | |
| DL1NUX | 2026-08-31 13:00:04 | 50.28118 | 8.99401 | 60° | 89km/h | 5882m | -10.6m/s | -18.6°C | 56.1% | 490hPa | 2.5V | 02:48:01 | 02:27:30 | 00:00:00 | |
| BIOWL1-15 | 2026-08-31 12:59:58 | 50.28107 | 8.99370 | 61° | 88km/h | 5892m | -10.3m/s | -18.7°C | 58.7% | 489.4hPa | 2.6V | 02:48:28 | 02:27:29 | 00:00:00 | |
| SO1NDE-10 | 2026-08-31 12:59:58 | 50.28107 | 8.99370 | 61° | 88km/h | 5892m | -10.2m/s | -18.6°C | 55.1% | 489.3hPa | 2.5V | 00:00:00 | 02:27:29 | 00:00:00 | |
| DL1NUX | 2026-08-31 12:59:54 | 50.28009 | 8.99098 | 60° | 89km/h | 5982m | -9.7m/s | -19.4°C | 54.6% | 483.4hPa | 2.5V | 02:48:11 | 02:27:20 | 00:00:00 | |
| BIOWL1-15 | 2026-08-31 12:59:47 | 50.27986 | 8.99037 | 61° | 88km/h | 6002m | -9.6m/s | -19.6°C | 59.5% | 482.1hPa | 2.6V | 02:48:28 | 02:27:18 | 00:00:00 | |
| DF2AP-13 | 2026-08-31 12:59:46 | 50.27975 | 8.99006 | 61° | 89km/h | 6012m | -10.0m/s | -19.6°C | 57.1% | 481.6hPa | 2.6V | 02:48:00 | 02:27:17 | 00:00:00 | |
| DM0DOS-11 | 2026-08-31 12:59:43 | 50.27910 | 8.98825 | 60° | 88km/h | 6074m | -10.2m/s | -20.3°C | 64.4% | 477.5hPa | 2.6V | 02:48:20 | 02:27:11 | 00:00:00 | |
| DL1NUX | 2026-08-31 12:59:41 | 50.27900 | 8.98795 | 60° | 88km/h | 6084m | -10.1m/s | -20.4°C | 65.2% | 476.9hPa | 2.6V | 02:48:21 | 02:27:10 | 00:00:00 | |
| BIOWL1-15 | 2026-08-31 12:59:36 | 50.27868 | 8.98703 | 61° | 89km/h | 6113m | -9.7m/s | -20.7°C | 69.7% | 474.9hPa | 2.5V | 02:48:28 | 02:27:07 | 00:00:00 | |
| DL1NUX | 2026-08-31 12:59:34 | 50.27791 | 8.98486 | 61° | 89km/h | 6183m | -9.3m/s | -21.2°C | 70.8% | 470.5hPa | 2.5V | 02:48:31 | 02:27:00 | 00:00:00 | |
| DM0DOS-11 | 2026-08-31 12:59:33 | 50.27780 | 8.98455 | 60° | 91km/h | 6193m | -10.2m/s | -21.3°C | 71.4% | 469.9hPa | 2.6V | 02:48:32 | 02:26:59 | 00:00:00 | |
| BIOWL1-15 | 2026-08-31 12:59:28 | 50.27758 | 8.98392 | 61° | 93km/h | 6213m | -10.3m/s | -21.4°C | 74.8% | 468.7hPa | 2.6V | 02:49:19 | 02:26:57 | 00:00:00 | |
| HSKMA3-T | 2026-08-31 12:59:20 | 50.27690 | 8.98201 | 61° | 93km/h | 6275m | -10.5m/s | -22°C | 71.4% | 464.7hPa | 2.6V | 02:52:43 | 02:26:51 | 00:00:00 | |
| BIOWL1-15 | 2026-08-31 12:59:17 | 50.27590 | 8.97911 | 62° | 91km/h | 6362m | -9.6m/s | -22.8°C | 71.8% | 459.1hPa | 2.6V | 02:49:19 | 02:26:42 | 00:00:00 | |
| BIOWL1-15 | 2026-08-31 12:59:04 | 50.27510 | 8.97688 | 61° | 91km/h | 6432m | -9.5m/s | -23.5°C | 77.1% | 454.9hPa | 2.5V | 02:49:19 | 02:26:35 | 00:00:00 | |
| DK5PH-5 | 2026-08-31 12:59:03 | 50.27499 | 8.97656 | 61° | 93km/h | 6441m | -10.3m/s | -23.6°C | 74.7% | 454.2hPa | 2.6V | 00:00:00 | 02:26:34 | 00:00:00 | |
| DF7PN | 2026-08-31 12:59:02 | 50.27487 | 8.97625 | 60° | 93km/h | 6451m | -10.4m/s | -23.7°C | 71.1% | 453.6hPa | 2.6V | 00:00:00 | 00:00:00 | 00:00:00 | |
| DL1NUX | 2026-08-31 12:59:00 | 50.27452 | 8.97528 | 60° | 93km/h | 6482m | -10.2m/s | -24°C | 75.3% | 451.7hPa | 2.6V | 02:49:01 | 02:26:30 | 00:00:00 | |
| BIOWL1-15 | 2026-08-31 12:58:54 | 50.27395 | 8.97367 | 62° | 93km/h | 6534m | -10.1m/s | -24.6°C | 78.9% | 448.5hPa | 2.6V | 02:49:19 | 02:26:25 | 00:00:00 | |
| DB0NH | 2026-08-31 12:58:54 | 50.27395 | 8.97367 | 62° | 95km/h | 6534m | -10.1m/s | -24.6°C | 77.4% | 448.4hPa | 2.5V | 00:00:00 | 02:26:25 | 00:00:00 | |
| DB0UT-7 | 2026-08-31 12:58:52 | 50.27373 | 8.97302 | 62° | 102km/h | 6555m | -10.5m/s | -24.8°C | 0% | 447.2hPa | 2.5V | 02:49:00 | 00:00:00 | 00:00:00 | |
| DL1NUX | 2026-08-31 12:58:50 | 50.27338 | 8.97204 | 60° | 93km/h | 6587m | -10.7m/s | -25.2°C | 82.5% | 445.2hPa | 2.6V | 02:49:11 | 02:26:20 | 00:00:00 | |
| DL1ZP-14 | 2026-08-31 12:58:50 | 50.27338 | 8.97204 | 60° | 93km/h | 6587m | -10.7m/s | -25.2°C | 78.7% | 445.2hPa | 2.6V | 00:00:00 | 00:00:00 | 00:00:00 | |
| DB0ND-19 | 2026-08-31 12:58:47 | 50.27316 | 8.97139 | 61° | 91km/h | 6609m | -11.0m/s | -25.3°C | 86.3% | 444.0hPa | 2.5V | 00:00:00 | 00:00:00 | 00:00:00 | |
| DL9SK-14 | 2026-08-31 12:58:46 | 50.27293 | 8.97074 | 62° | 91km/h | 6631m | -10.5m/s | -25.4°C | 93.9% | 442.6hPa | 2.5V | 00:00:00 | 00:00:00 | 00:00:00 | |
| BIOWL1-15 | 2026-08-31 12:58:43 | 50.27271 | 8.97009 | 60° | 93km/h | 6653m | -11.2m/s | -25.6°C | 100% | 441.3hPa | 2.5V | 02:49:19 | 02:26:14 | 00:00:00 | |
| NBG1-10 | 2026-08-31 12:58:42 | 50.27259 | 8.96977 | 62° | 99km/h | 6664m | -10.5m/s | -25.6°C | 0% | 440.6hPa | 2.5V | 00:00:00 | 02:26:13 | 00:00:00 | |
| DL1NUX | 2026-08-31 12:58:39 | 50.27225 | 8.96882 | 59° | 93km/h | 6697m | -11.1m/s | -25.9°C | 0% | 438.7hPa | 2.5V | 02:49:21 | 02:26:10 | 00:00:00 | |
| DJ8HS-15 | 2026-08-31 12:58:39 | 50.27225 | 8.96882 | 60° | 97km/h | 6697m | -11.0m/s | -25.9°C | 0% | 438.6hPa | 2.5V | 02:49:00 | 02:26:10 | 00:00:00 | |
| DM0DOS-11 | 2026-08-31 12:58:38 | 50.27177 | 8.96754 | 59° | 95km/h | 6740m | -10.5m/s | -26.2°C | 0% | 436.1hPa | 2.6V | 02:49:25 | 02:26:06 | 00:00:00 | |
| BIOWL1-15 | 2026-08-31 12:58:33 | 50.27154 | 8.96688 | 61° | 95km/h | 6761m | -10.3m/s | -26.3°C | 100% | 434.8hPa | 2.5V | 02:50:10 | 02:26:04 | 00:00:00 | |
| DL1NUX | 2026-08-31 12:58:29 | 50.27106 | 8.96555 | 61° | 97km/h | 6803m | -10.6m/s | -26.4°C | 0% | 432.2hPa | 2.6V | 02:49:31 | 02:26:00 | 00:00:00 | |
| BIOWL1-15 | 2026-08-31 12:58:22 | 50.27021 | 8.96317 | 61° | 100km/h | 6880m | -10.6m/s | -27.2°C | 100% | 427.5hPa | 2.6V | 02:50:10 | 02:25:53 | 00:00:00 | |
| DB0NH | 2026-08-31 12:58:22 | 50.27021 | 8.96317 | 62° | 106km/h | 6880m | -10.6m/s | -27.1°C | 0% | 427.5hPa | 2.5V | 00:00:00 | 02:25:53 | 00:00:00 | |
| DL1NUX | 2026-08-31 12:58:19 | 50.26982 | 8.96213 | 59° | 102km/h | 6912m | -10.8m/s | -27.1°C | 90.5% | 425.7hPa | 2.5V | 02:49:41 | 02:25:50 | 00:00:00 | |
| DL1ZP-14 | 2026-08-31 12:58:19 | 50.26969 | 8.96178 | 59° | 102km/h | 6923m | -10.7m/s | -27.2°C | 85.0% | 425.1hPa | 2.6V | 00:00:00 | 00:00:00 | 00:00:00 | |
| DF2AP-13 | 2026-08-31 12:58:16 | 50.26944 | 8.96108 | 62° | 108km/h | 6944m | -10.3m/s | -27.2°C | 87.8% | 423.7hPa | 2.6V | 02:49:00 | 02:25:47 | 00:00:00 | |
| DL9SK-14 | 2026-08-31 12:58:15 | 50.26919 | 8.96035 | 61° | 104km/h | 6965m | -10.7m/s | -27.5°C | 83.5% | 422.5hPa | 2.5V | 00:00:00 | 00:00:00 | 00:00:00 | |
| DL1NUX | 2026-08-31 12:58:14 | 50.26856 | 8.95855 | 62° | 106km/h | 7020m | -11.4m/s | -28°C | 91.4% | 419.3hPa | 2.5V | 02:49:51 | 02:25:40 | 00:00:00 | |
| BIOWL1-15 | 2026-08-31 12:58:11 | 50.26881 | 8.95927 | 61° | 104km/h | 6998m | -11.1m/s | -27.8°C | 90.8% | 420.6hPa | 2.6V | 02:50:10 | 02:25:42 | 00:00:00 | |
| HSKMA3-T | 2026-08-31 12:58:09 | 50.26856 | 8.95855 | 62° | 106km/h | 7020m | -11.4m/s | -28°C | 92% | 419.3hPa | 2.5V | 02:52:43 | 02:25:40 | 00:00:00 | |
| DL8DAS-14 | 2026-08-31 12:58:05 | 50.26653 | 8.95208 | 65° | 111km/h | 7214m | -11.5m/s | -29.5°C | 77.3% | 408.2hPa | 2.6V | 00:00:00 | 00:00:00 | 00:00:00 | |
| DL1NUX | 2026-08-31 12:58:04 | 50.26735 | 8.95484 | 64° | 108km/h | 7134m | -11.8m/s | -29.1°C | 93.6% | 412.8hPa | 2.6V | 02:50:01 | 02:25:30 | 00:00:00 | |
| BIOWL1-15 | 2026-08-31 12:58:00 | 50.26747 | 8.95522 | 65° | 108km/h | 7122m | -11.7m/s | -29°C | 94.7% | 413.5hPa | 2.6V | 02:50:10 | 02:25:31 | 00:00:00 | |
| DF7PN | 2026-08-31 12:58:00 | 50.26735 | 8.95484 | 64° | 108km/h | 7134m | -11.8m/s | -29.1°C | 88.8% | 412.8hPa | 2.6V | 00:00:00 | 00:00:00 | 00:00:00 | |
| DJ8HS-15 | 2026-08-31 12:57:59 | 50.26735 | 8.95484 | 65° | 111km/h | 7134m | -11.7m/s | -29.0°C | 93.6% | 412.8hPa | 2.6V | 00:00:00 | 02:25:30 | 00:00:00 | |
| SO1NDE-10 | 2026-08-31 12:57:58 | 50.26724 | 8.95445 | 65° | 113km/h | 7146m | -12.1m/s | -29.1°C | 93.0% | 412.1hPa | 2.6V | 02:50:00 | 02:25:29 | 00:00:00 | |
| DM0DOS-11 | 2026-08-31 12:57:53 | 50.26606 | 8.95049 | 63° | 113km/h | 7258m | -11.3m/s | -29.6°C | 70.2% | 405.6hPa | 2.6V | 02:50:12 | 02:25:19 | 00:00:00 | |
| DB0NH | 2026-08-31 12:57:52 | 50.26653 | 8.95208 | 66° | 113km/h | 7214m | -11.4m/s | -29.4°C | 81.7% | 408.1hPa | 2.6V | 02:50:00 | 02:25:23 | 00:00:00 | |
| DL1NUX | 2026-08-31 12:57:50 | 50.26618 | 8.95089 | 64° | 110km/h | 7247m | -11m/s | -29.5°C | 72.5% | 406.2hPa | 2.5V | 02:50:11 | 02:25:20 | 00:00:00 | |
| BIOWL1-15 | 2026-08-31 12:57:49 | 50.26581 | 8.94969 | 64° | 113km/h | 7280m | -11.7m/s | -29.8°C | 73.3% | 404.3hPa | 2.6V | 02:51:01 | 02:25:17 | 00:00:00 | |
| DD1CC8 | 2026-08-31 12:57:48 | 50.26606 | 8.95049 | 63° | 111km/h | 7258m | -11.3m/s | -29.6°C | 66.2% | 405.6hPa | 2.6V | 00:00:00 | 00:00:00 | 00:00:00 | |
| DL1ZP-14 | 2026-08-31 12:57:47 | 50.26593 | 8.95009 | 64° | 113km/h | 7269m | -11.2m/s | -29.7°C | 66.5% | 405.0hPa | 2.6V | 00:00:00 | 00:00:00 | 00:00:00 | |
| DB0ND-19 | 2026-08-31 12:57:45 | 50.26568 | 8.94928 | 63° | 113km/h | 7292m | -11.7m/s | -29.8°C | 66.5% | 403.7hPa | 2.6V | 00:00:00 | 00:00:00 | 00:00:00 | |
| BIOWL1-15 | 2026-08-31 12:57:38 | 50.26455 | 8.94570 | 64° | 113km/h | 7394m | -11.6m/s | -30.8°C | 76.8% | 398hPa | 2.6V | 02:51:01 | 02:25:07 | 00:00:00 | |
| DM0DOS-11 | 2026-08-31 12:57:38 | 50.26442 | 8.94530 | 62° | 113km/h | 7406m | -11.3m/s | -30.9°C | 74.8% | 397.4hPa | 2.6V | 02:50:25 | 02:25:06 | 00:00:00 | |
| NBG1-10 | 2026-08-31 12:57:36 | 50.26455 | 8.94570 | 64° | 119km/h | 7394m | -11.6m/s | -30.7°C | 74.4% | 398.0hPa | 2.6V | 00:00:00 | 02:25:07 | 00:00:00 | |
| DO9LL-15 | 2026-08-31 12:57:33 | 50.26416 | 8.94451 | 63° | 119km/h | 7429m | -11.2m/s | -31.0°C | 75.4% | 396.1hPa | 2.6V | 00:00:00 | 02:25:04 | 00:00:00 | |
| BIOWL9-15 | 2026-08-31 12:57:32 | 50.26403 | 8.94410 | 62° | 115km/h | 7440m | -11.1m/s | -31.2°C | 71.4% | 395.4hPa | 2.6V | 00:00:00 | 00:00:00 | 00:00:00 | |
| DL1NUX | 2026-08-31 12:57:30 | 50.26362 | 8.94290 | 62° | 117km/h | 7471m | -10.4m/s | -31.4°C | 76.7% | 393.7hPa | 2.6V | 02:50:31 | 02:25:00 | 00:00:00 | |
| BIOWL1-15 | 2026-08-31 12:57:29 | 50.26292 | 8.94087 | 61° | 119km/h | 7523m | -10.4m/s | -31.6°C | 78.3% | 390.8hPa | 2.6V | 02:51:01 | 02:24:55 | 00:00:00 | |
| DF7PN | 2026-08-31 12:57:29 | 50.26349 | 8.94249 | 62° | 113km/h | 7482m | -9.9m/s | -31.5°C | 71.9% | 393.1hPa | 2.6V | 00:00:00 | 00:00:00 | 00:00:00 | |
| SO1NDE-10 | 2026-08-31 12:57:28 | 50.26349 | 8.94249 | 63° | 120km/h | 7482m | -9.9m/s | -31.5°C | 76.4% | 393.0hPa | 2.6V | 00:00:00 | 02:24:59 | 00:00:00 | |
| DM0DOS-11 | 2026-08-31 12:57:27 | 50.26278 | 8.94046 | 61° | 120km/h | 7534m | -10.5m/s | -31.6°C | 76.5% | 390.2hPa | 2.6V | 02:50:37 | 02:24:54 | 00:00:00 | |
| HSKMA3-T | 2026-08-31 12:57:27 | 50.26335 | 8.94209 | 62° | 117km/h | 7492m | -10.7m/s | -31.6°C | 77.4% | 392.6hPa | 2.5V | 02:52:43 | 02:24:58 | 00:00:00 | |
| BIOWL1-15 | 2026-08-31 12:57:17 | 50.26189 | 8.93797 | 61° | 120km/h | 7596m | -10.7m/s | -31.9°C | 79.7% | 386.8hPa | 2.6V | 02:51:01 | 02:24:48 | 00:00:00 | |
| DL1ZP-14 | 2026-08-31 12:57:17 | 50.26174 | 8.93756 | 60° | 117km/h | 7607m | -10.2m/s | -32.0°C | 72.9% | 386.2hPa | 2.6V | 00:00:00 | 00:00:00 | 00:00:00 | |
| DM0DOS-11 | 2026-08-31 12:57:16 | 50.26129 | 8.93633 | 60° | 120km/h | 7639m | -11m/s | -32.2°C | 78.7% | 384.4hPa | 2.5V | 02:50:47 | 02:24:44 | 00:00:00 | |
| DF2AP-13 | 2026-08-31 12:57:16 | 50.26174 | 8.93756 | 61° | 122km/h | 7607m | -10.1m/s | -31.9°C | 77.5% | 386.2hPa | 2.5V | 00:00:00 | 02:24:47 | 00:00:00 | |
| DB0ND-19 | 2026-08-31 12:57:14 | 50.26144 | 8.93674 | 60° | 120km/h | 7628m | -11.0m/s | -32.2°C | 73.7% | 385.1hPa | 2.5V | 00:00:00 | 00:00:00 | 00:00:00 | |
| DL9SK-14 | 2026-08-31 12:57:12 | 50.26114 | 8.93591 | 60° | 119km/h | 7650m | -10.4m/s | -32.3°C | 74.2% | 383.9hPa | 2.5V | 00:00:00 | 00:00:00 | 00:00:00 | |
| DL1NUX | 2026-08-31 12:57:10 | 50.26068 | 8.93467 | 59° | 122km/h | 7682m | -10.9m/s | -32.5°C | 80.1% | 382.1hPa | 2.5V | 02:50:51 | 02:24:40 | 00:00:00 | |
| BIOWL1-15 | 2026-08-31 12:57:07 | 50.26022 | 8.93344 | 59° | 120km/h | 7714m | -11.3m/s | -32.8°C | 84.2% | 380.4hPa | 2.6V | 02:51:01 | 02:24:37 | 00:00:00 | |
| DM0DOS-11 | 2026-08-31 12:57:05 | 50.25974 | 8.93221 | 59° | 122km/h | 7748m | -11.6m/s | -33.1°C | 82.2% | 378.5hPa | 2.5V | 02:50:57 | 02:24:34 | 00:00:00 | |
| HSKMA3-T | 2026-08-31 12:57:05 | 50.25989 | 8.93262 | 58° | 122km/h | 7737m | -11.2m/s | -33°C | 84.6% | 379.1hPa | 2.5V | 02:52:43 | 02:24:35 | 00:00:00 | |
| DL1NUX | 2026-08-31 12:57:05 | 50.25910 | 8.93055 | 59° | 120km/h | 7794m | -11m/s | -33.5°C | 83.4% | 376.1hPa | 2.5V | 02:51:01 | 02:24:30 | 00:00:00 | |
| BIOWL1-15 | 2026-08-31 12:56:56 | 50.25862 | 8.92932 | 59° | 122km/h | 7828m | -11.7m/s | -33.8°C | 87.8% | 374.3hPa | 2.5V | 02:51:52 | 02:24:27 | 00:00:00 | |
| DM0DOS-11 | 2026-08-31 12:56:54 | 50.25813 | 8.92809 | 57° | 124km/h | 7862m | -11.8m/s | -34.1°C | 86.3% | 372.5hPa | 2.6V | 02:51:07 | 02:24:24 | 00:00:00 | |
| DB0NH | 2026-08-31 12:56:52 | 50.25797 | 8.92768 | 59° | 126km/h | 7874m | -11.7m/s | -34.2°C | 87.0% | 371.8hPa | 2.5V | 00:00:00 | 02:24:23 | 00:00:00 | |
| DL8DAS-15 | 2026-08-31 12:56:51 | 50.25797 | 8.92768 | 59° | 122km/h | 7874m | -11.8m/s | -34.2°C | 81.7% | 371.9hPa | 2.5V | 00:00:00 | 00:00:00 | 00:00:00 | |
| DL1NUX | 2026-08-31 12:56:50 | 50.25749 | 8.92644 | 59° | 122km/h | 7908m | -11.1m/s | -34.5°C | 88.2% | 370hPa | 2.5V | 02:51:11 | 02:24:20 | 00:00:00 | |
| DD1CC8 | 2026-08-31 12:56:46 | 50.25701 | 8.92520 | 58° | 122km/h | 7939m | -10.8m/s | -34.8°C | 83.2% | 368.3hPa | 2.5V | 00:00:00 | 00:00:00 | 00:00:00 | |
| BIOWL1-15 | 2026-08-31 12:56:45 | 50.25651 | 8.92393 | 59° | 126km/h | 7971m | -9.9m/s | -35.1°C | 86.7% | 366.7hPa | 2.5V | 02:51:52 | 02:24:14 | 00:00:00 | |
| DL1NUX | 2026-08-31 12:56:44 | 50.25585 | 8.92222 | 59° | 128km/h | 8008m | -9.5m/s | -35.3°C | 85.2% | 364.7hPa | 2.6V | 02:51:21 | 02:24:10 | 00:00:00 | |
| DB0ND-19 | 2026-08-31 12:56:43 | 50.25651 | 8.92393 | 58° | 126km/h | 7971m | -9.9m/s | -35.1°C | 81.5% | 366.7hPa | 2.5V | 00:00:00 | 00:00:00 | 00:00:00 | |
| DL9SK-14 | 2026-08-31 12:56:42 | 50.25618 | 8.92308 | 58° | 126km/h | 7989m | -9.1m/s | -35.2°C | 81.0% | 365.6hPa | 2.5V | 00:00:00 | 00:00:00 | 00:00:00 | |
| DM0DOS-11 | 2026-08-31 12:56:39 | 50.25535 | 8.92094 | 58° | 128km/h | 8040m | -11m/s | -35.4°C | 86% | 363.1hPa | 2.5V | 02:51:24 | 02:24:07 | 00:00:00 | |
| BIOWL1-15 | 2026-08-31 12:56:34 | 50.25468 | 8.91921 | 60° | 128km/h | 8084m | -11.4m/s | -35.7°C | 80.3% | 360.9hPa | 2.5V | 02:51:52 | 02:24:03 | 00:00:00 | |
| DO9LL-15 | 2026-08-31 12:56:33 | 50.25484 | 8.91965 | 59° | 131km/h | 8073m | -11.4m/s | -35.6°C | 81.0% | 361.4hPa | 2.5V | 00:00:00 | 02:24:04 | 00:00:00 | |
| DL1NUX | 2026-08-31 12:56:30 | 50.25419 | 8.91790 | 60° | 130km/h | 8118m | -11.6m/s | -35.9°C | 67.5% | 359.2hPa | 2.5V | 02:51:31 | 02:24:00 | 00:00:00 | |
| DL4BBY-15 | 2026-08-31 12:56:29 | 50.25419 | 8.91790 | 61° | 135km/h | 8118m | -11.6m/s | -35.2°C | 0% | 0hPa | 2.6V | 00:00:00 | 00:00:00 | 00:00:00 | |
| DM0DOS-11 | 2026-08-31 12:56:27 | 50.25370 | 8.91657 | 60° | 130km/h | 8153m | -11.5m/s | -36.2°C | 61.3% | 357.4hPa | 2.6V | 02:51:34 | 02:23:57 | 00:00:00 | |
| DF7PN | 2026-08-31 12:56:27 | 50.25370 | 8.91657 | 60° | 128km/h | 8153m | -11.5m/s | -36.2°C | 56.8% | 357.4hPa | 2.5V | 00:00:00 | 00:00:00 | 00:00:00 | |
| DL1NUX | 2026-08-31 12:56:24 | 50.25256 | 8.91348 | 58° | 130km/h | 8234m | -11.5m/s | -36.8°C | 53.9% | 353.2hPa | 2.5V | 02:51:41 | 02:23:50 | 00:00:00 | |
| BIOWL1-15 | 2026-08-31 12:56:23 | 50.25273 | 8.91392 | 60° | 131km/h | 8223m | -11.6m/s | -36.7°C | 56.4% | 353.9hPa | 2.6V | 02:51:52 | 02:23:51 | 00:00:00 | |
| DB0NH | 2026-08-31 12:56:22 | 50.25306 | 8.91481 | 60° | 133km/h | 8199m | -12.1m/s | -36.5°C | 53.1% | 355.0hPa | 2.6V | 02:51:00 | 02:23:53 | 00:00:00 | |
| DJ8HS-15 | 2026-08-31 12:56:19 | 50.25256 | 8.91348 | 59° | 133km/h | 8234m | -11.4m/s | -36.7°C | 53.9% | 353.2hPa | 2.6V | 00:00:00 | 02:23:50 | 00:00:00 | |
| DM0DOS-11 | 2026-08-31 12:56:17 | 50.25206 | 8.91215 | 60° | 130km/h | 8269m | -11.6m/s | -37.1°C | 53.6% | 351.4hPa | 2.6V | 02:51:44 | 02:23:47 | 00:00:00 | |
| DF2AP-13 | 2026-08-31 12:56:16 | 50.25206 | 8.91215 | 61° | 135km/h | 8269m | -11.6m/s | -37.0°C | 53.6% | 351.4hPa | 2.6V | 00:00:00 | 02:23:47 | 00:00:00 | |
| DD1CC8 | 2026-08-31 12:56:15 | 50.25189 | 8.91171 | 59° | 131km/h | 8281m | -11.7m/s | -37.2°C | 49.2% | 350.8hPa | 2.6V | 00:00:00 | 00:00:00 | 00:00:00 | |
| DL1NUX | 2026-08-31 12:56:14 | 50.25087 | 8.90901 | 59° | 133km/h | 8352m | -12.1m/s | -37.6°C | 52% | 347.3hPa | 2.6V | 02:51:51 | 02:23:40 | 00:00:00 | |
| HSKMA3-T | 2026-08-31 12:56:07 | 50.25052 | 8.90810 | 59° | 133km/h | 8375m | -11.3m/s | -37.8°C | 55% | 346.1hPa | 2.5V | 02:52:43 | 02:23:38 | 00:00:00 | |
| DL1NUX | 2026-08-31 12:56:04 | 50.24908 | 8.90449 | 57° | 137km/h | 8464m | -10.7m/s | -38.4°C | 49.6% | 341.6hPa | 2.6V | 02:52:01 | 02:23:30 | 00:00:00 | |
| BIOWL1-15 | 2026-08-31 12:55:58 | 50.24870 | 8.90358 | 57° | 137km/h | 8485m | -10.8m/s | -38.5°C | 48.6% | 340.5hPa | 2.5V | 02:52:43 | 02:23:28 | 00:00:00 | |
| DF7PN | 2026-08-31 12:55:55 | 50.24832 | 8.90268 | 55° | 137km/h | 8507m | -11.2m/s | -38.7°C | 42.9% | 339.5hPa | 2.6V | 00:00:00 | 00:00:00 | 00:00:00 | |
| DL1NUX | 2026-08-31 12:55:54 | 50.24715 | 8.89997 | 56° | 139km/h | 8574m | -11.4m/s | -39.1°C | 42.3% | 336.2hPa | 2.6V | 02:52:11 | 02:23:20 | 00:00:00 | |
| DB0UT-7 | 2026-08-31 12:55:52 | 50.24773 | 8.90133 | 56° | 130km/h | 8541m | -11.3m/s | -38.8°C | 48.7% | 337.8hPa | 2.5V | 02:52:00 | 02:23:23 | 00:00:00 | |
| DM0DOS-11 | 2026-08-31 12:55:51 | 50.24658 | 8.89862 | 56° | 135km/h | 8607m | -10.3m/s | -39.4°C | 32.5% | 334.5hPa | 2.5V | 02:52:14 | 02:23:17 | 00:00:00 | |
| HSKMA3-T | 2026-08-31 12:55:51 | 50.24753 | 8.90088 | 56° | 137km/h | 8552m | -11.2m/s | -38.9°C | 50.6% | 337.3hPa | 2.5V | 02:52:43 | 02:23:22 | 00:00:00 | |
| DL8DAS-15 | 2026-08-31 12:55:50 | 50.24753 | 8.90088 | 57° | 137km/h | 8552m | -11.2m/s | -38.9°C | 43.8% | 337.3hPa | 2.6V | 00:00:00 | 00:00:00 | 00:00:00 | |
| DF2AP-13 | 2026-08-31 12:55:46 | 50.24658 | 8.89862 | 57° | 128km/h | 8608m | -10.3m/s | -39.4°C | 32.5% | 334.5hPa | 2.6V | 00:00:00 | 02:23:17 | 00:00:00 | |
| BIOWL7-15 | 2026-08-31 12:55:44 | 50.24621 | 8.89772 | 58° | 135km/h | 8629m | -11.0m/s | -39.6°C | 23.7% | 333.5hPa | 2.6V | 00:00:00 | 00:00:00 | 00:00:00 | |
| DL1ZP-14 | 2026-08-31 12:55:43 | 50.24603 | 8.89727 | 57° | 133km/h | 8640m | -11.0m/s | -39.6°C | 21.1% | 332.9hPa | 2.6V | 00:00:00 | 00:00:00 | 00:00:00 | |
| DM0DOS-11 | 2026-08-31 12:55:41 | 50.24479 | 8.89420 | 58° | 128km/h | 8716m | -11m/s | -40.1°C | 16.1% | 329.2hPa | 2.6V | 02:52:24 | 02:23:07 | 00:00:00 | |
| HSKMA3-T | 2026-08-31 12:55:41 | 50.24567 | 8.89638 | 58° | 133km/h | 8662m | -11.2m/s | -39.8°C | 25.1% | 331.9hPa | 2.5V | 02:52:43 | 02:23:12 | 00:00:00 | |
| DL9SK-14 | 2026-08-31 12:55:40 | 50.24531 | 8.89550 | 57° | 130km/h | 8684m | -10.9m/s | -39.9°C | 16.9% | 330.8hPa | 2.5V | 00:00:00 | 00:00:00 | 00:00:00 | |
| DJ8HS-15 | 2026-08-31 12:55:39 | 50.24531 | 8.89550 | 58° | 126km/h | 8684m | -10.9m/s | -39.9°C | 19.5% | 330.7hPa | 2.5V | 02:52:00 | 02:23:10 | 00:00:00 | |
| DL1NUX | 2026-08-31 12:55:34 | 50.24365 | 8.89116 | 60° | 126km/h | 8791m | -10.9m/s | -40.6°C | 14% | 325.7hPa | 2.5V | 02:52:31 | 02:23:00 | 00:00:00 | |
| BIOWL1-15 | 2026-08-31 12:55:33 | 50.24350 | 8.89073 | 60° | 126km/h | 8802m | -11.6m/s | -40.7°C | 15.9% | 325.1hPa | 2.6V | 02:52:43 | 02:22:59 | 00:00:00 | |
| DM0DOS-11 | 2026-08-31 12:55:31 | 50.24319 | 8.88987 | 60° | 124km/h | 8825m | -11.6m/s | -40.8°C | 14.4% | 324.1hPa | 2.5V | 02:52:34 | 02:22:57 | 00:00:00 | |
| HSKMA3-T | 2026-08-31 12:55:24 | 50.24289 | 8.88902 | 62° | 122km/h | 8848m | -11.1m/s | -40.9°C | 16.7% | 322.9hPa | 2.5V | 02:52:43 | 02:22:55 | 00:00:00 | |
| BIOWL1-15 | 2026-08-31 12:55:20 | 50.24188 | 8.88610 | 61° | 119km/h | 8921m | -11m/s | -41.5°C | 18.6% | 319.5hPa | 2.6V | 02:52:43 | 02:22:48 | 00:00:00 | |
| HSKMA3-T | 2026-08-31 12:55:13 | 50.24131 | 8.88444 | 63° | 120km/h | 8970m | -13m/s | -41.8°C | 19.6% | 317.2hPa | 2.5V | 02:54:25 | 02:22:44 | 00:00:00 | |
| DJTTGO | 2026-08-31 12:55:13 | 50.24131 | 8.88444 | 64° | 120km/h | 8970m | -13.0m/s | -41.8°C | 14.7% | 317.2hPa | 2.5V | 00:00:00 | 00:00:00 | 00:00:00 | |
| DL1ZP-14 | 2026-08-31 12:55:12 | 50.24118 | 8.88401 | 63° | 119km/h | 8983m | -12.2m/s | -42.0°C | 14.9% | 316.6hPa | 2.5V | 00:00:00 | 00:00:00 | 00:00:00 | |
| DM0DOS-11 | 2026-08-31 12:55:11 | 50.24035 | 8.88145 | 63° | 122km/h | 9058m | -11.9m/s | -42.6°C | 17.8% | 313.2hPa | 2.6V | 02:52:54 | 02:22:37 | 00:00:00 | |
| DL1NUX | 2026-08-31 12:55:10 | 50.24076 | 8.88274 | 62° | 122km/h | 9021m | -12.4m/s | -42.3°C | 17.8% | 315hPa | 2.5V | 02:52:51 | 02:22:40 | 00:00:00 | |
| BIOWL1-15 | 2026-08-31 12:55:07 | 50.24007 | 8.88060 | 64° | 122km/h | 9082m | -12.9m/s | -42.7°C | 20.1% | 312hPa | 2.6V | 02:53:34 | 02:22:35 | 00:00:00 | |
| WPPR-10 | 2026-08-31 12:55:07 | 50.24007 | 8.88060 | 63° | 120km/h | 9082m | -12.9m/s | -42.7°C | 15.0% | 312.0hPa | 2.6V | 00:00:00 | 00:00:00 | 00:00:00 | |
| DL1NUX | 2026-08-31 12:55:04 | 50.23938 | 8.87844 | 62° | 122km/h | 9146m | -12.3m/s | -43.2°C | 17.7% | 309.1hPa | 2.6V | 02:53:01 | 02:22:30 | 00:00:00 | |
| HSKMA3-T | 2026-08-31 12:55:01 | 50.23966 | 8.87931 | 64° | 122km/h | 9121m | -12.6m/s | -43°C | 20.2% | 310.3hPa | 2.5V | 02:54:25 | 02:22:32 | 00:00:00 | |
| DM0DOS-11 | 2026-08-31 12:55:01 | 50.23895 | 8.87713 | 63° | 124km/h | 9182m | -11.7m/s | -43.5°C | 17.6% | 307.5hPa | 2.5V | 02:53:04 | 02:22:27 | 00:00:00 | |
| DL8DAS-14 | 2026-08-31 12:54:59 | 50.23923 | 8.87801 | 62° | 122km/h | 9158m | -12.0m/s | -43.3°C | 14.9% | 308.6hPa | 2.6V | 00:00:00 | 00:00:00 | 00:00:00 | |
| BIOWL9-15 | 2026-08-31 12:54:57 | 50.23895 | 8.87713 | 63° | 124km/h | 9182m | -11.7m/s | -43.5°C | 14.8% | 307.5hPa | 2.6V | 00:00:00 | 00:00:00 | 00:00:00 | |
| DL8DAS-15 | 2026-08-31 12:54:56 | 50.23909 | 8.87757 | 64° | 124km/h | 9170m | -11.8m/s | -43.4°C | 14.9% | 308.0hPa | 2.6V | 00:00:00 | 00:00:00 | 00:00:00 | |
| DL1NUX | 2026-08-31 12:54:54 | 50.23798 | 8.87408 | 63° | 122km/h | 9253m | -9.2m/s | -44.1°C | 18.9% | 304.1hPa | 2.6V | 02:53:11 | 02:22:20 | 00:00:00 | |
| BIOWL1-15 | 2026-08-31 12:54:54 | 50.23853 | 8.87582 | 64° | 122km/h | 9216m | -9.4m/s | -43.8°C | 20.6% | 305.8hPa | 2.6V | 02:53:34 | 02:22:24 | 00:00:00 | |
| HSKMA3-T | 2026-08-31 12:54:51 | 50.23811 | 8.87451 | 64° | 124km/h | 9243m | -9.1m/s | -44°C | 20.9% | 304.6hPa | 2.5V | 02:54:25 | 02:22:21 | 00:00:00 | |
| DM0DOS-11 | 2026-08-31 12:54:51 | 50.23756 | 8.87279 | 62° | 122km/h | 9280m | -9.1m/s | -44.3°C | 19.4% | 302.9hPa | 2.5V | 02:53:14 | 02:22:17 | 00:00:00 | |
| DF2AP-13 | 2026-08-31 12:54:46 | 50.23756 | 8.87279 | 63° | 124km/h | 9280m | -9.0m/s | -44.3°C | 19.4% | 302.9hPa | 2.5V | 00:00:00 | 02:22:17 | 00:00:00 | |
| DL1NUX | 2026-08-31 12:54:44 | 50.23658 | 8.86973 | 63° | 124km/h | 9342m | -8.9m/s | -44.7°C | 20.5% | 300.1hPa | 2.5V | 02:53:21 | 02:22:10 | 00:00:00 | |
| BIOWL1-15 | 2026-08-31 12:54:42 | 50.23616 | 8.86842 | 63° | 124km/h | 9370m | -10.2m/s | -44.9°C | 22.6% | 298.8hPa | 2.6V | 02:53:34 | 02:22:07 | 00:00:00 | |
| DD1CC8 | 2026-08-31 12:54:42 | 50.23701 | 8.87104 | 63° | 124km/h | 9316m | -8.9m/s | -44.5°C | 16.9% | 301.2hPa | 2.6V | 00:00:00 | 00:00:00 | 00:00:00 | |
| DM0DOS-11 | 2026-08-31 12:54:41 | 50.23616 | 8.86842 | 62° | 124km/h | 9370m | -10.2m/s | -44.9°C | 20.3% | 298.8hPa | 2.6V | 02:53:24 | 02:22:07 | 00:00:00 | |
| HSKMA3-T | 2026-08-31 12:54:40 | 50.23672 | 8.87017 | 64° | 122km/h | 9333m | -8.5m/s | -44.6°C | 22.4% | 300.4hPa | 2.5V | 02:54:25 | 02:22:11 | 00:00:00 | |
| DJ8HS-15 | 2026-08-31 12:54:39 | 50.23658 | 8.86973 | 64° | 124km/h | 9342m | -8.9m/s | -44.6°C | 20.5% | 300.0hPa | 2.5V | 02:53:00 | 02:22:10 | 00:00:00 | |
| DL9SK-14 | 2026-08-31 12:54:37 | 50.23630 | 8.86886 | 62° | 124km/h | 9360m | -9.3m/s | -44.8°C | 17.3% | 299.3hPa | 2.6V | 00:00:00 | 00:00:00 | 00:00:00 | |
| DO9LL-15 | 2026-08-31 12:54:33 | 50.23573 | 8.86709 | 64° | 124km/h | 9404m | -11.8m/s | -44.9°C | 20.4% | 297.4hPa | 2.6V | 00:00:00 | 02:22:04 | 00:00:00 | |
| DM0DOS-11 | 2026-08-31 12:54:31 | 50.23477 | 8.86401 | 64° | 124km/h | 9487m | -12.2m/s | -45.5°C | 21.6% | 293.8hPa | 2.6V | 02:53:34 | 02:21:57 | 00:00:00 | |
| DL1NUX | 2026-08-31 12:54:30 | 50.23518 | 8.86533 | 64° | 124km/h | 9452m | -12m/s | -45.2°C | 21.4% | 295.3hPa | 2.5V | 02:53:31 | 02:22:00 | 00:00:00 | |
| HSKMA3-T | 2026-08-31 12:54:30 | 50.23532 | 8.86577 | 64° | 124km/h | 9440m | -12m/s | -45.1°C | 23.6% | 295.8hPa | 2.5V | 02:54:25 | 02:22:01 | 00:00:00 | |
| BIOWL1-15 | 2026-08-31 12:54:29 | 50.23518 | 8.86533 | 64° | 124km/h | 9452m | -12m/s | -45.2°C | 23.9% | 295.3hPa | 2.5V | 02:53:34 | 02:22:00 | 00:00:00 | |
| DL8DAS-14 | 2026-08-31 12:54:28 | 50.23491 | 8.86445 | 63° | 122km/h | 9475m | -11.7m/s | -45.5°C | 18.3% | 294.2hPa | 2.5V | 00:00:00 | 00:00:00 | 00:00:00 | |
| BIOWL9-15 | 2026-08-31 12:54:26 | 50.23463 | 8.86357 | 64° | 122km/h | 9499m | -12.0m/s | -45.7°C | 18.3% | 293.2hPa | 2.5V | 00:00:00 | 00:00:00 | 00:00:00 | |
| DL1NUX | 2026-08-31 12:54:24 | 50.23383 | 8.86096 | 63° | 122km/h | 9573m | -12.6m/s | -46°C | 20.9% | 290hPa | 2.5V | 02:53:41 | 02:21:50 | 00:00:00 | |
| DF7PN | 2026-08-31 12:54:22 | 50.23423 | 8.86226 | 64° | 122km/h | 9536m | -12.4m/s | -45.9°C | 18.0% | 291.6hPa | 2.5V | 00:00:00 | 00:00:00 | 00:00:00 | |
| DM0DOS-11 | 2026-08-31 12:54:21 | 50.23342 | 8.85966 | 63° | 122km/h | 9611m | -12.2m/s | -46.3°C | 20.9% | 288.4hPa | 2.5V | 02:53:44 | 02:21:47 | 00:00:00 | |
| HSKMA3-T | 2026-08-31 12:54:19 | 50.23383 | 8.86096 | 64° | 122km/h | 9573m | -12.6m/s | -46.1°C | 23.3% | 290hPa | 2.5V | 02:54:25 | 02:21:50 | 00:00:00 | |
| BIOWL1-15 | 2026-08-31 12:54:18 | 50.23369 | 8.86052 | 64° | 122km/h | 9586m | -12.3m/s | -46.1°C | 23.2% | 289.4hPa | 2.5V | 02:54:25 | 02:21:49 | 00:00:00 | |
| NBG1-10 | 2026-08-31 12:54:18 | 50.23369 | 8.86052 | 64° | 128km/h | 9586m | -12.3m/s | -46.1°C | 20.8% | 289.4hPa | 2.6V | 00:00:00 | 02:21:49 | 00:00:00 | |
| DF2AP-13 | 2026-08-31 12:54:16 | 50.23342 | 8.85966 | 64° | 128km/h | 9611m | -12.2m/s | -46.3°C | 20.9% | 288.3hPa | 2.6V | 00:00:00 | 02:21:47 | 00:00:00 | |
| DL1NUX | 2026-08-31 12:54:10 | 50.23244 | 8.85657 | 63° | 126km/h | 9697m | -12.1m/s | -46.9°C | 21.1% | 284.6hPa | 2.6V | 02:53:51 | 02:21:40 | 00:00:00 | |
| BIOWL1-15 | 2026-08-31 12:54:07 | 50.23215 | 8.85568 | 63° | 126km/h | 9722m | -12.4m/s | -47°C | 23.3% | 283.6hPa | 2.6V | 02:54:25 | 02:21:38 | 00:00:00 | |
| DL9SK-14 | 2026-08-31 12:54:06 | 50.23201 | 8.85523 | 62° | 126km/h | 9734m | -12.3m/s | -47.1°C | 17.7% | 283.0hPa | 2.6V | 00:00:00 | 00:00:00 | 00:00:00 | |
| DO9LL-15 | 2026-08-31 12:54:03 | 50.23156 | 8.85390 | 62° | 131km/h | 9772m | -12.6m/s | -47.1°C | 21.3% | 281.4hPa | 2.6V | 02:53:00 | 02:21:34 | 00:00:00 | |
| DB0NH | 2026-08-31 12:54:02 | 50.23140 | 8.85345 | 62° | 131km/h | 9784m | -12.5m/s | -47.3°C | 21.5% | 280.9hPa | 2.6V | 02:53:00 | 02:21:33 | 00:00:00 | |
| DM0DOS-11 | 2026-08-31 12:54:01 | 50.23015 | 8.84989 | 61° | 130km/h | 9885m | -12.5m/s | -48°C | 22.9% | 276.6hPa | 2.6V | 02:54:06 | 02:21:25 | 00:00:00 | |
| HSKMA3-T | 2026-08-31 12:53:58 | 50.23046 | 8.85079 | 61° | 128km/h | 9861m | -12.3m/s | -47.8°C | 24.9% | 277.7hPa | 2.5V | 02:54:25 | 02:21:27 | 00:00:00 | |
| BIOWL1-15 | 2026-08-31 12:53:57 | 50.22969 | 8.84852 | 63° | 131km/h | 9922m | -12.4m/s | -48.3°C | 24.9% | 275.1hPa | 2.5V | 02:54:25 | 02:21:22 | 00:00:00 | |
| DL8DAS-14 | 2026-08-31 12:53:56 | 50.23046 | 8.85079 | 61° | 128km/h | 9861m | -12.3m/s | -47.8°C | 19.0% | 277.7hPa | 2.5V | 00:00:00 | 00:00:00 | 00:00:00 | |
| BIOWL9-15 | 2026-08-31 12:53:55 | 50.23015 | 8.84989 | 61° | 128km/h | 9885m | -12.5m/s | -48.0°C | 19.1% | 276.7hPa | 2.5V | 00:00:00 | 00:00:00 | 00:00:00 | |
| DF7PN | 2026-08-31 12:53:51 | 50.22969 | 8.84852 | 62° | 131km/h | 9922m | -12.4m/s | -48.3°C | 19.1% | 275.1hPa | 2.5V | 00:00:00 | 00:00:00 | 00:00:00 | |
| DM0DOS-11 | 2026-08-31 12:53:48 | 50.22877 | 8.84569 | 63° | 133km/h | 9997m | -12.7m/s | -48.5°C | 23.1% | 271.9hPa | 2.5V | 02:54:15 | 02:21:16 | 00:00:00 | |
| DF3TZ-5 | 2026-08-31 12:53:47 | 50.22892 | 8.84617 | 63° | 133km/h | 9985m | -12.5m/s | -48.6°C | 18.9% | 272.4hPa | 2.5V | 00:00:00 | 00:00:00 | 00:00:00 | |
| BIOWL1-15 | 2026-08-31 12:53:46 | 50.22862 | 8.84522 | 64° | 131km/h | 10010m | -12.4m/s | -48.5°C | 25.1% | 271.4hPa | 2.5V | 02:54:25 | 02:21:15 | 00:00:00 | |
| HSKMA3-T | 2026-08-31 12:53:46 | 50.22877 | 8.84569 | 64° | 133km/h | 9997m | -12.7m/s | -48.5°C | 25% | 272hPa | 2.5V | 02:54:25 | 02:21:16 | 00:00:00 | |
| NBG1-10 | 2026-08-31 12:53:45 | 50.22877 | 8.84569 | 64° | 131km/h | 9997m | -12.7m/s | -48.5°C | 23.1% | 271.9hPa | 2.5V | 00:00:00 | 02:21:16 | 00:00:00 | |
| DJTTGO | 2026-08-31 12:53:41 | 50.22833 | 8.84429 | 64° | 131km/h | 10035m | -12.6m/s | -48.6°C | 19.6% | 270.4hPa | 2.5V | 00:00:00 | 00:00:00 | 00:00:00 | |
| DL1NUX | 2026-08-31 12:53:40 | 50.22787 | 8.84290 | 62° | 131km/h | 10072m | -11.5m/s | -48.8°C | 24.4% | 268.9hPa | 2.5V | 02:54:21 | 02:21:10 | 00:00:00 | |
| HSKMA3-T | 2026-08-31 12:53:34 | 50.22710 | 8.84059 | 64° | 133km/h | 10126m | -11.3m/s | -49°C | 25.7% | 266.6hPa | 2.5V | 02:56:07 | 02:21:05 | 00:00:00 | |
| DL1NUX | 2026-08-31 12:53:34 | 50.22635 | 8.83824 | 63° | 133km/h | 10186m | -12.1m/s | -48.9°C | 22.8% | 264.2hPa | 2.5V | 02:54:31 | 02:21:00 | 00:00:00 | |
| DK5PH-5 | 2026-08-31 12:53:33 | 50.22695 | 8.84012 | 64° | 131km/h | 10138m | -11.7m/s | -49.0°C | 23.9% | 266.2hPa | 2.5V | 00:00:00 | 02:21:04 | 00:00:00 | |
| DB0NH | 2026-08-31 12:53:32 | 50.22680 | 8.83964 | 64° | 131km/h | 10150m | -11.6m/s | -49.0°C | 23.8% | 265.7hPa | 2.5V | 00:00:00 | 02:21:03 | 00:00:00 | |
| DM0DOS-11 | 2026-08-31 12:53:31 | 50.22560 | 8.83590 | 63° | 133km/h | 10247m | -12.3m/s | -49.1°C | 22.4% | 261.8hPa | 2.5V | 02:54:36 | 02:20:55 | 00:00:00 | |
| BIOWL1-15 | 2026-08-31 12:53:25 | 50.22501 | 8.83399 | 65° | 133km/h | 10297m | -13.2m/s | -49.4°C | 24% | 259.9hPa | 2.6V | 02:55:16 | 02:20:51 | 00:00:00 | |
| HSKMA3-T | 2026-08-31 12:53:23 | 50.22545 | 8.83543 | 64° | 135km/h | 10259m | -12.6m/s | -49.1°C | 24.2% | 261.4hPa | 2.5V | 02:56:07 | 02:20:54 | 00:00:00 | |
| DL1NUX | 2026-08-31 12:53:23 | 50.22487 | 8.83352 | 65° | 133km/h | 10311m | -13.6m/s | -49.5°C | 22.2% | 259.4hPa | 2.5V | 02:54:41 | 02:20:50 | 00:00:00 | |
| DF7PN | 2026-08-31 12:53:20 | 50.22501 | 8.83399 | 65° | 133km/h | 10297m | -13.2m/s | -49.4°C | 18.2% | 259.9hPa | 2.5V | 00:00:00 | 00:00:00 | 00:00:00 | |
| DM0DOS-11 | 2026-08-31 12:53:19 | 50.22433 | 8.83163 | 65° | 130km/h | 10364m | -12.9m/s | -49.8°C | 21.9% | 257.3hPa | 2.5V | 02:54:45 | 02:20:46 | 00:00:00 | |
| DJ8HS-15 | 2026-08-31 12:53:19 | 50.22487 | 8.83351 | 66° | 130km/h | 10311m | -13.5m/s | -49.5°C | 22.2% | 259.3hPa | 2.5V | 00:00:00 | 02:20:50 | 00:00:00 | |
| DF2AP-13 | 2026-08-31 12:53:16 | 50.22446 | 8.83210 | 67° | 126km/h | 10351m | -12.9m/s | -49.7°C | 22.2% | 257.7hPa | 2.5V | 00:00:00 | 02:20:47 | 00:00:00 | |
| DL1NUX | 2026-08-31 12:53:14 | 50.22354 | 8.82881 | 67° | 131km/h | 10441m | -13.5m/s | -50.1°C | 20.6% | 254.2hPa | 2.5V | 02:54:51 | 02:20:40 | 00:00:00 | |
| HSKMA3-T | 2026-08-31 12:53:12 | 50.22393 | 8.83023 | 66° | 130km/h | 10402m | -12.8m/s | -49.9°C | 22.7% | 255.7hPa | 2.6V | 02:56:07 | 02:20:43 | 00:00:00 | |
| BIOWL1-15 | 2026-08-31 12:53:09 | 50.22354 | 8.82881 | 67° | 131km/h | 10442m | -13.5m/s | -50.1°C | 22.1% | 254.2hPa | 2.5V | 02:55:16 | 02:20:40 | 00:00:00 | |
| DD1CC8 | 2026-08-31 12:53:09 | 50.22341 | 8.82833 | 67° | 130km/h | 10455m | -13.9m/s | -50.2°C | 16.5% | 253.7hPa | 2.6V | 00:00:00 | 00:00:00 | 00:00:00 | |
| DM0DOS-11 | 2026-08-31 12:53:08 | 50.22303 | 8.82691 | 67° | 130km/h | 10495m | -13.1m/s | -50.5°C | 20.4% | 252.1hPa | 2.6V | 02:54:55 | 02:20:36 | 00:00:00 | |
| DL1ZP-14 | 2026-08-31 12:53:08 | 50.22341 | 8.82833 | 67° | 130km/h | 10455m | -13.9m/s | -50.2°C | 16.5% | 253.7hPa | 2.5V | 00:00:00 | 00:00:00 | 00:00:00 | |
| DL9SK-14 | 2026-08-31 12:53:04 | 50.22290 | 8.82643 | 67° | 128km/h | 10509m | -13.4m/s | -50.5°C | 16.4% | 251.7hPa | 2.6V | 00:00:00 | 00:00:00 | 00:00:00 | |
| DL1NUX | 2026-08-31 12:53:03 | 50.22230 | 8.82411 | 68° | 126km/h | 10573m | -12.6m/s | -50.2°C | 19.3% | 249.1hPa | 2.6V | 02:55:01 | 02:20:30 | 00:00:00 | |
| HSKMA3-T | 2026-08-31 12:52:58 | 50.22219 | 8.82365 | 68° | 124km/h | 10586m | -13m/s | -50.2°C | 19.8% | 248.7hPa | 2.5V | 02:56:07 | 02:20:29 | 00:00:00 | |
| SO1NDE-10 | 2026-08-31 12:52:58 | 50.22219 | 8.82365 | 69° | 120km/h | 10586m | -12.9m/s | -50.2°C | 19.1% | 248.6hPa | 2.6V | 00:00:00 | 02:20:29 | 00:00:00 | |
| DM0DOS-11 | 2026-08-31 12:52:57 | 50.22183 | 8.82230 | 67° | 122km/h | 10626m | -13.4m/s | -50.3°C | 18.6% | 247.2hPa | 2.6V | 02:55:05 | 02:20:26 | 00:00:00 | |
| DL8DAS-14 | 2026-08-31 12:52:55 | 50.22172 | 8.82185 | 67° | 122km/h | 10639m | -13.1m/s | -50.3°C | 14.5% | 246.7hPa | 2.6V | 00:00:00 | 00:00:00 | 00:00:00 | |
| DL3AQ-11 | 2026-08-31 12:52:54 | 50.22160 | 8.82140 | 67° | 122km/h | 10652m | -12.5m/s | -50.3°C | 14.3% | 246.2hPa | 2.6V | 00:00:00 | 00:00:00 | 00:00:00 | |
| BIOWL9-15 | 2026-08-31 12:52:53 | 50.22148 | 8.82095 | 67° | 122km/h | 10665m | -13.2m/s | -50.4°C | 14.2% | 245.7hPa | 2.6V | 00:00:00 | 00:00:00 | 00:00:00 | |
| DM0DOS-11 | 2026-08-31 12:52:51 | 50.22071 | 8.81784 | 68° | 119km/h | 10759m | -13.5m/s | -50.5°C | 15.9% | 242.2hPa | 2.6V | 02:55:15 | 02:20:16 | 00:00:00 | |
| DF7PN | 2026-08-31 12:52:51 | 50.22114 | 8.81960 | 68° | 120km/h | 10705m | -13.3m/s | -50.5°C | 13.7% | 244.2hPa | 2.6V | 00:00:00 | 00:00:00 | 00:00:00 | |
| DL1NUX | 2026-08-31 12:52:50 | 50.22114 | 8.81960 | 68° | 122km/h | 10705m | -13.3m/s | -50.5°C | 17.4% | 244.2hPa | 2.6V | 02:55:11 | 02:20:20 | 00:00:00 | |
| HSKMA3-T | 2026-08-31 12:52:48 | 50.22103 | 8.81916 | 69° | 120km/h | 10718m | -13.5m/s | -50.5°C | 17.2% | 243.8hPa | 2.5V | 02:56:07 | 02:20:19 | 00:00:00 | |
| BIOWL1-15 | 2026-08-31 12:52:47 | 50.22092 | 8.81871 | 69° | 119km/h | 10732m | -13.7m/s | -50.5°C | 16.9% | 243.2hPa | 2.5V | 02:55:16 | 02:20:18 | 00:00:00 | |
| DF2AP-13 | 2026-08-31 12:52:46 | 50.22082 | 8.81828 | 70° | 122km/h | 10745m | -13.1m/s | -50.4°C | 16.3% | 242.7hPa | 2.6V | 00:00:00 | 02:20:17 | 00:00:00 | |
| DL1NUX | 2026-08-31 12:52:44 | 50.22002 | 8.81530 | 65° | 117km/h | 10837m | -13m/s | -50.3°C | 12.7% | 239.3hPa | 2.6V | 02:55:21 | 02:20:10 | 00:00:00 | |
| HSKMA3-T | 2026-08-31 12:52:33 | 50.21924 | 8.81271 | 64° | 124km/h | 10917m | -13.3m/s | -50.2°C | 8.3% | 236.4hPa | 2.5V | 02:56:07 | 02:20:04 | 00:00:00 | |
| DB0UT-7 | 2026-08-31 12:52:32 | 50.21910 | 8.81227 | 64° | 117km/h | 10930m | -13.3m/s | -50.2°C | 9.3% | 235.9hPa | 2.6V | 00:00:00 | 02:20:03 | 00:00:00 | |
| DL1NUX | 2026-08-31 12:52:31 | 50.21867 | 8.81094 | 62° | 126km/h | 10971m | -13.7m/s | -50.5°C | 9.1% | 234.5hPa | 2.6V | 02:55:31 | 02:20:00 | 00:00:00 | |
| SO1NDE-10 | 2026-08-31 12:52:28 | 50.21852 | 8.81051 | 62° | 126km/h | 10984m | -13.4m/s | -50.3°C | 8.9% | 234.0hPa | 2.5V | 00:00:00 | 02:19:59 | 00:00:00 | |
| DM0DOS-11 | 2026-08-31 12:52:27 | 50.21806 | 8.80922 | 60° | 124km/h | 11025m | -13.6m/s | -49.6°C | 8.4% | 232.6hPa | 2.5V | 02:55:35 | 02:19:56 | 00:00:00 | |
| DL3AQ-11 | 2026-08-31 12:52:25 | 50.21791 | 8.80879 | 61° | 124km/h | 11039m | -14.0m/s | -49.6°C | 5.6% | 232.1hPa | 2.5V | 00:00:00 | 00:00:00 | 00:00:00 | |
| DL1NUX | 2026-08-31 12:52:24 | 50.21717 | 8.80656 | 64° | 130km/h | 11108m | -14.1m/s | -49.6°C | 7.7% | 229.6hPa | 2.5V | 02:55:41 | 02:19:50 | 00:00:00 | |
| BIOWL1-15 | 2026-08-31 12:52:23 | 50.21776 | 8.80835 | 62° | 126km/h | 11052m | -13.4m/s | -49.7°C | 6.4% | 231.6hPa | 2.6V | 02:56:07 | 02:19:54 | 00:00:00 | |
| BIOWL9-15 | 2026-08-31 12:52:22 | 50.21746 | 8.80747 | 62° | 126km/h | 11080m | -13.7m/s | -49.6°C | 5.3% | 230.6hPa | 2.5V | 00:00:00 | 00:00:00 | 00:00:00 | |
| DM0DOS-11 | 2026-08-31 12:52:21 | 50.21663 | 8.80469 | 65° | 130km/h | 11164m | -13.9m/s | -49.6°C | 6.8% | 227.6hPa | 2.5V | 02:55:45 | 02:19:46 | 00:00:00 | |
| HSKMA3-T | 2026-08-31 12:52:20 | 50.21732 | 8.80702 | 64° | 130km/h | 11094m | -14m/s | -49.7°C | 5.7% | 230.1hPa | 2.5V | 02:56:07 | 02:19:51 | 00:00:00 | |
| DO1YAY-16 | 2026-08-31 12:52:19 | 50.21704 | 8.80610 | 65° | 130km/h | 11122m | -14.5m/s | -49.5°C | 4.7% | 229.2hPa | 2.5V | 00:00:00 | 00:00:00 | 00:00:00 | |
| DF7PN | 2026-08-31 12:52:18 | 50.21704 | 8.80610 | 65° | 130km/h | 11122m | -14.5m/s | -49.5°C | 4.7% | 229.2hPa | 2.5V | 00:00:00 | 00:00:00 | 00:00:00 | |
| DF2AP-13 | 2026-08-31 12:52:16 | 50.21677 | 8.80516 | 66° | 124km/h | 11150m | -14.0m/s | -49.4°C | 7.0% | 228.0hPa | 2.5V | 02:55:00 | 02:19:47 | 00:00:00 | |
| DL1NUX | 2026-08-31 12:52:14 | 50.21583 | 8.80194 | 64° | 124km/h | 11247m | -13.6m/s | -48.1°C | 4.8% | 224.7hPa | 2.6V | 02:55:51 | 02:19:40 | 00:00:00 | |
| BIOWL1-15 | 2026-08-31 12:52:13 | 50.21636 | 8.80376 | 66° | 130km/h | 11192m | -13.9m/s | -49.6°C | 3.7% | 226.7hPa | 2.6V | 02:56:07 | 02:19:44 | 00:00:00 | |
| DM0DOS-11 | 2026-08-31 12:52:10 | 50.21532 | 8.80019 | 66° | 122km/h | 11303m | -14.4m/s | -47.1°C | 3.9% | 222.9hPa | 2.5V | 02:55:55 | 02:19:36 | 00:00:00 | |
| HSKMA3-T | 2026-08-31 12:52:10 | 50.21583 | 8.80195 | 65° | 124km/h | 11247m | -13.6m/s | -48.1°C | 2.1% | 224.7hPa | 2.6V | 02:56:07 | 02:19:40 | 00:00:00 | |
| BIOWL1-15 | 2026-08-31 12:52:05 | 50.21439 | 8.79653 | 70° | 126km/h | 11419m | -14m/s | -45.7°C | 0.4% | 219hPa | 2.6V | 02:56:07 | 02:19:28 | 00:00:00 | |
| DB0ND-19 | 2026-08-31 12:52:04 | 50.21520 | 8.79975 | 67° | 120km/h | 11317m | -14.6m/s | -46.9°C | 1.8% | 222.4hPa | 2.5V | 00:00:00 | 00:00:00 | 00:00:00 | |
| DO9LL-15 | 2026-08-31 12:52:03 | 50.21508 | 8.79930 | 68° | 115km/h | 11332m | -14.6m/s | -46.5°C | 3.6% | 221.9hPa | 2.5V | 00:00:00 | 02:19:34 | 00:00:00 | |
| DL9SK-14 | 2026-08-31 12:52:02 | 50.21484 | 8.79840 | 68° | 124km/h | 11361m | -14.7m/s | -46.2°C | 1.6% | 220.9hPa | 2.5V | 00:00:00 | 00:00:00 | 00:00:00 | |
| SONCRA | 2026-08-31 12:52:01 | 50.21484 | 8.79840 | 68° | 124km/h | 11361m | -14.7m/s | -46.2°C | 1.6% | 220.9hPa | 2.5V | 00:00:00 | 00:00:00 | 00:00:00 | |
| DL1NUX | 2026-08-31 12:51:59 | 50.21461 | 8.79747 | 69° | 128km/h | 11390m | -14.3m/s | -45.8°C | 3.3% | 220hPa | 2.5V | 02:56:01 | 02:19:30 | 00:00:00 | |
| HSKMA3-T | 2026-08-31 12:51:59 | 50.21461 | 8.79747 | 69° | 128km/h | 11390m | -14.3m/s | -45.8°C | 0.5% | 220hPa | 2.5V | 02:56:07 | 02:19:30 | 00:00:00 | |
| DM0DOS-11 | 2026-08-31 12:51:59 | 50.21418 | 8.79560 | 70° | 124km/h | 11448m | -15.2m/s | -45.8°C | 3.2% | 218hPa | 2.5V | 02:56:05 | 02:19:26 | 00:00:00 | |
| DL3AQ-11 | 2026-08-31 12:51:58 | 50.21439 | 8.79653 | 69° | 126km/h | 11419m | -14.0m/s | -45.7°C | 1.5% | 219.0hPa | 2.6V | 00:00:00 | 00:00:00 | 00:00:00 | |
| DL4BBY-15 | 2026-08-31 12:51:55 | 50.21418 | 8.79560 | 71° | 106km/h | 11448m | -15.1m/s | -45.1°C | 0% | 0hPa | 2.6V | 00:00:00 | 00:00:00 | 00:00:00 | |
| DL1NUX | 2026-08-31 12:51:54 | 50.21362 | 8.79291 | 72° | 115km/h | 11539m | -14.9m/s | -45.1°C | 3% | 215.1hPa | 2.6V | 02:56:11 | 02:19:20 | 00:00:00 | |
| BIOWL1-15 | 2026-08-31 12:51:52 | 50.21389 | 8.79423 | 72° | 120km/h | 11494m | -15.2m/s | -45.7°C | 0.4% | 216.6hPa | 2.6V | 02:56:58 | 02:19:23 | 00:00:00 | |
| BIOWL9-15 | 2026-08-31 12:51:51 | 50.21370 | 8.79334 | 72° | 115km/h | 11524m | -14.9m/s | -45.2°C | 0% | 215.6hPa | 2.5V | 00:00:00 | 00:00:00 | 00:00:00 | |
| DM0DOS-11 | 2026-08-31 12:51:47 | 50.21327 | 8.79121 | 73° | 111km/h | 11598m | -14.8m/s | -45.3°C | 3.1% | 213.2hPa | 2.5V | 02:56:15 | 02:19:16 | 00:00:00 | |
| HSKMA3-T | 2026-08-31 12:51:47 | 50.21335 | 8.79163 | 73° | 111km/h | 11583m | -15.1m/s | -45.3°C | 0.3% | 213.6hPa | 2.6V | 02:57:49 | 02:19:17 | 00:00:00 | |
| DL1NUX | 2026-08-31 12:51:46 | 50.21280 | 8.78877 | 72° | 104km/h | 11689m | -14.7m/s | -45.6°C | 3.1% | 210.3hPa | 2.5V | 02:56:21 | 02:19:10 | 00:00:00 | |
| BIOWL1-15 | 2026-08-31 12:51:42 | 50.21303 | 8.78996 | 73° | 108km/h | 11644m | -15.4m/s | -45.3°C | 0.3% | 211.7hPa | 2.6V | 02:56:58 | 02:19:13 | 00:00:00 | |
| DM0DOS-11 | 2026-08-31 12:51:41 | 50.21249 | 8.78725 | 72° | 99km/h | 11748m | -15.3m/s | -45.8°C | 3.1% | 208.4hPa | 2.6V | 02:56:25 | 02:19:06 | 00:00:00 | |
| HSKMA3-T | 2026-08-31 12:51:36 | 50.21256 | 8.78763 | 73° | 100km/h | 11733m | -15.1m/s | -45.8°C | 0.3% | 208.9hPa | 2.6V | 02:57:49 | 02:19:07 | 00:00:00 | |
| DD1CC8 | 2026-08-31 12:51:36 | 50.21249 | 8.78725 | 72° | 99km/h | 11748m | -15.3m/s | -45.8°C | 1.4% | 208.4hPa | 2.6V | 00:00:00 | 00:00:00 | 00:00:00 | |
| DL1NUX | 2026-08-31 12:51:35 | 50.21204 | 8.78505 | 71° | 97km/h | 11839m | -15.2m/s | -45.8°C | 3.1% | 205.6hPa | 2.6V | 02:56:31 | 02:19:00 | 00:00:00 | |
| BIOWL1-15 | 2026-08-31 12:51:31 | 50.21219 | 8.78578 | 73° | 97km/h | 11809m | -14.6m/s | -45.6°C | 0.3% | 206.5hPa | 2.6V | 02:56:58 | 02:19:02 | 00:00:00 | |
| DL1XH-west | 2026-08-31 12:51:27 | 50.21188 | 8.78433 | 72° | 95km/h | 11870m | -15m/s | -45.8°C | 0.4% | 204.7hPa | 2.5V | 02:56:58 | 02:18:58 | 00:00:00 | |
| DM0DOS-11 | 2026-08-31 12:51:27 | 50.21171 | 8.78362 | 69° | 97km/h | 11900m | -15.6m/s | -45.9°C | 3.2% | 203.7hPa | 2.6V | 02:56:35 | 02:18:56 | 00:00:00 | |
| HSKMA3-T | 2026-08-31 12:51:26 | 50.21180 | 8.78398 | 70° | 97km/h | 11885m | -15.6m/s | -45.8°C | 0.4% | 204.2hPa | 2.5V | 02:57:49 | 02:18:57 | 00:00:00 | |
| DL4BBY-15 | 2026-08-31 12:51:25 | 50.21171 | 8.78362 | 70° | 97km/h | 11901m | -15.6m/s | -45.2°C | 0% | 0hPa | 2.6V | 00:00:00 | 00:00:00 | 00:00:00 | |
| DL1NUX | 2026-08-31 12:51:24 | 50.21115 | 8.78146 | 67° | 100km/h | 11993m | -15.2m/s | -46.3°C | 3.3% | 200.8hPa | 2.6V | 02:56:41 | 02:18:50 | 00:00:00 | |
| BIOWL1-15 | 2026-08-31 12:51:23 | 50.21135 | 8.78219 | 68° | 100km/h | 11962m | -15.3m/s | -46.2°C | 0.6% | 201.8hPa | 2.5V | 02:56:58 | 02:18:52 | 00:00:00 | |
| DL8DAS-14 | 2026-08-31 12:51:21 | 50.21135 | 8.78219 | 67° | 99km/h | 11962m | -15.3m/s | -46.2°C | 1.5% | 201.8hPa | 2.6V | 00:00:00 | 00:00:00 | 00:00:00 | |
| DL1XH1-15 | 2026-08-31 12:51:20 | 50.21077 | 8.77999 | 68° | 99km/h | 12054m | -15.3m/s | -46.7°C | 3.4% | 199.1hPa | 2.6V | 02:56:45 | 02:18:46 | 00:00:00 | |
| DL1XH-west | 2026-08-31 12:51:17 | 50.21096 | 8.78073 | 67° | 100km/h | 12023m | -15.3m/s | -46.5°C | 0.5% | 200hPa | 2.5V | 02:56:58 | 02:18:48 | 00:00:00 | |
| HSKMA3-T | 2026-08-31 12:51:15 | 50.21077 | 8.77999 | 69° | 99km/h | 12054m | -15.3m/s | -46.7°C | 0.6% | 199.1hPa | 2.6V | 02:57:49 | 02:18:46 | 00:00:00 | |
| DL1NUX | 2026-08-31 12:51:15 | 50.21025 | 8.77779 | 70° | 99km/h | 12147m | -15.5m/s | -46.9°C | 3.4% | 196.3hPa | 2.6V | 02:56:51 | 02:18:40 | 00:00:00 | |
| BIOWL1-15 | 2026-08-31 12:51:13 | 50.21000 | 8.77671 | 69° | 95km/h | 12194m | -15.6m/s | -46.6°C | 0.5% | 194.9hPa | 2.5V | 02:56:58 | 02:18:37 | 00:00:00 | |
| DB0UT-7 | 2026-08-31 12:51:12 | 50.21050 | 8.77890 | 70° | 95km/h | 12100m | -15.2m/s | -46.9°C | 3.4% | 197.6hPa | 2.5V | 02:56:00 | 00:00:00 | 00:00:00 | |
| DL1XH1-15 | 2026-08-31 12:51:08 | 50.20975 | 8.77566 | 69° | 95km/h | 12241m | -15.2m/s | -46.8°C | 3.3% | 193.5hPa | 2.6V | 02:56:57 | 02:18:34 | 00:00:00 | |
| DL1XH-west | 2026-08-31 12:51:05 | 50.20992 | 8.77636 | 70° | 95km/h | 12210m | -15.9m/s | -46.7°C | 0.5% | 194.5hPa | 2.5V | 02:56:58 | 02:18:36 | 00:00:00 | |
| HSKMA3-T | 2026-08-31 12:51:01 | 50.20958 | 8.77496 | 70° | 95km/h | 12272m | -15.9m/s | -46.8°C | 0.5% | 192.7hPa | 2.5V | 02:57:49 | 02:18:32 | 00:00:00 | |
| BIOWL1-15 | 2026-08-31 12:50:59 | 50.20940 | 8.77426 | 68° | 95km/h | 12303m | -15.6m/s | -46.8°C | 0.4% | 191.7hPa | 2.5V | 02:57:49 | 02:18:30 | 00:00:00 | |
| DL1XH-west | 2026-08-31 12:50:55 | 50.20903 | 8.77291 | 65° | 93km/h | 12365m | -15.6m/s | -46.7°C | 0.4% | 189.9hPa | 2.6V | 02:57:49 | 02:18:26 | 00:00:00 | |
| DL4BBY-15 | 2026-08-31 12:50:55 | 50.20903 | 8.77290 | 65° | 95km/h | 12366m | -15.5m/s | -46.0°C | 0% | 0hPa | 2.6V | 00:00:00 | 00:00:00 | 00:00:00 | |
| DL1NUX | 2026-08-31 12:50:54 | 50.20838 | 8.77095 | 61° | 93km/h | 12457m | -15m/s | -46.6°C | 3.1% | 187.3hPa | 2.6V | 02:57:11 | 02:18:20 | 00:00:00 | |
| HSKMA3-T | 2026-08-31 12:50:50 | 50.20850 | 8.77127 | 62° | 93km/h | 12442m | -15.1m/s | -46.6°C | 0.3% | 187.7hPa | 2.6V | 02:57:49 | 02:18:21 | 00:00:00 | |
| DM0DOS-11 | 2026-08-31 12:50:49 | 50.20795 | 8.76968 | 62° | 89km/h | 12519m | -15.5m/s | -46.9°C | 3.2% | 185.5hPa | 2.6V | 02:57:15 | 02:18:16 | 00:00:00 | |
| BIOWL9-15 | 2026-08-31 12:50:48 | 50.20827 | 8.77063 | 62° | 91km/h | 12472m | -16.1m/s | -46.8°C | 1.3% | 186.9hPa | 2.5V | 00:00:00 | 00:00:00 | 00:00:00 | |
| BIOWL1-15 | 2026-08-31 12:50:44 | 50.20721 | 8.76742 | 63° | 95km/h | 12626m | -15.5m/s | -47.3°C | 0.4% | 182.6hPa | 2.5V | 02:57:49 | 02:18:09 | 00:00:00 | |
| DL1XH-west | 2026-08-31 12:50:44 | 50.20785 | 8.76936 | 63° | 91km/h | 12535m | -15.6m/s | -47°C | 0.4% | 185.1hPa | 2.6V | 02:57:49 | 02:18:15 | 00:00:00 | |
| DL1NUX | 2026-08-31 12:50:43 | 50.20732 | 8.76775 | 62° | 95km/h | 12610m | -15.5m/s | -47.3°C | 3.3% | 183hPa | 2.5V | 02:57:21 | 02:18:10 | 00:00:00 | |
| HSKMA3-T | 2026-08-31 12:50:40 | 50.20743 | 8.76808 | 63° | 93km/h | 12595m | -15.2m/s | -47.4°C | 0.4% | 183.4hPa | 2.6V | 02:57:49 | 02:18:11 | 00:00:00 | |
| DJ8HS-15 | 2026-08-31 12:50:39 | 50.20732 | 8.76775 | 63° | 99km/h | 12611m | -15.5m/s | -47.2°C | 3.3% | 183.0hPa | 2.5V | 02:57:00 | 02:18:10 | 00:00:00 | |
| DM0DOS-11 | 2026-08-31 12:50:38 | 50.20685 | 8.76641 | 60° | 99km/h | 12674m | -16.4m/s | -47.6°C | 3.3% | 181.3hPa | 2.6V | 02:57:25 | 02:18:06 | 00:00:00 | |
| DL3AQ-11 | 2026-08-31 12:50:38 | 50.20709 | 8.76708 | 61° | 97km/h | 12642m | -16.0m/s | -47.4°C | 1.4% | 182.1hPa | 2.5V | 00:00:00 | 00:00:00 | 00:00:00 | |
| DO3DL | 2026-08-31 12:50:35 | 50.20697 | 8.76675 | 62° | 99km/h | 12658m | -16.3m/s | -47.5°C | 1.4% | 181.7hPa | 2.5V | 02:57:00 | 00:00:00 | 00:00:00 | |
| DL1XH1-15 | 2026-08-31 12:50:34 | 50.20648 | 8.76540 | 60° | 99km/h | 12723m | -16m/s | -47.6°C | 3.3% | 179.9hPa | 2.5V | 02:57:28 | 02:18:03 | 00:00:00 | |
| DL1NUX | 2026-08-31 12:50:33 | 50.20613 | 8.76437 | 61° | 99km/h | 12771m | -15.5m/s | -47.5°C | 3.4% | 178.6hPa | 2.6V | 02:57:31 | 02:18:00 | 00:00:00 | |
| DL1XH-west | 2026-08-31 12:50:33 | 50.20660 | 8.76574 | 61° | 99km/h | 12707m | -16.5m/s | -47.8°C | 0.5% | 180.4hPa | 2.5V | 02:57:49 | 02:18:04 | 00:00:00 | |
| HSKMA3-T | 2026-08-31 12:50:29 | 50.20613 | 8.76437 | 62° | 99km/h | 12771m | -15.5m/s | -47.5°C | 0.5% | 178.6hPa | 2.6V | 02:57:49 | 02:18:00 | 00:00:00 | |
| DJ2DS-15 | 2026-08-31 12:50:29 | 50.20601 | 8.76402 | 63° | 99km/h | 12787m | -15.3m/s | -47.6°C | 1.4% | 178.2hPa | 2.5V | 00:00:00 | 00:00:00 | 00:00:00 | |
| DM0DOS-11 | 2026-08-31 12:50:28 | 50.20567 | 8.76295 | 63° | 102km/h | 12834m | -16.5m/s | -47.7°C | 3.4% | 176.9hPa | 2.5V | 02:57:35 | 02:17:56 | 00:00:00 | |
| DL1XH1-15 | 2026-08-31 12:50:28 | 50.20533 | 8.76186 | 65° | 102km/h | 12885m | -17.3m/s | -47.7°C | 3.4% | 175.6hPa | 2.5V | 02:57:38 | 02:17:53 | 00:00:00 | |
| NBG1-10 | 2026-08-31 12:50:27 | 50.20590 | 8.76367 | 64° | 93km/h | 12802m | -15.6m/s | -47.6°C | 3.3% | 177.8hPa | 2.6V | 00:00:00 | 02:17:58 | 00:00:00 | |
| BIOWL1-15 | 2026-08-31 12:50:27 | 50.20590 | 8.76367 | 64° | 102km/h | 12802m | -15.7m/s | -47.7°C | 0.5% | 177.8hPa | 2.5V | 02:57:49 | 02:17:58 | 00:00:00 | |
| DL3AQ-11 | 2026-08-31 12:50:25 | 50.20555 | 8.76259 | 63° | 102km/h | 12851m | -16.8m/s | -47.8°C | 1.4% | 176.5hPa | 2.6V | 00:00:00 | 00:00:00 | 00:00:00 | |
| DL1NUX | 2026-08-31 12:50:23 | 50.20502 | 8.76079 | 65° | 99km/h | 12935m | -16.6m/s | -47.8°C | 3.4% | 174.3hPa | 2.6V | 02:57:41 | 02:17:50 | 00:00:00 | |
| DL1XH-west | 2026-08-31 12:50:23 | 50.20543 | 8.76223 | 65° | 102km/h | 12868m | -16.9m/s | -47.7°C | 0.6% | 176.1hPa | 2.6V | 02:57:49 | 02:17:54 | 00:00:00 | |
| HSKMA3-T | 2026-08-31 12:50:18 | 50.20492 | 8.76044 | 67° | 97km/h | 12952m | -16.5m/s | -47.8°C | 0.6% | 173.8hPa | 2.6V | 02:57:49 | 02:17:49 | 00:00:00 | |
| DM0DOS-11 | 2026-08-31 12:50:16 | 50.20464 | 8.75938 | 68° | 95km/h | 13002m | -16.8m/s | -47.8°C | 3.4% | 172.5hPa | 2.5V | 02:57:45 | 02:17:46 | 00:00:00 | |
| BIOWL1-15 | 2026-08-31 12:50:16 | 50.20473 | 8.75973 | 69° | 97km/h | 12985m | -16.9m/s | -47.7°C | 0.6% | 172.9hPa | 2.5V | 02:57:49 | 02:17:47 | 00:00:00 | |
| DF2AP-13 | 2026-08-31 12:50:16 | 50.20473 | 8.75973 | 69° | 91km/h | 12985m | -16.9m/s | -47.7°C | 3.4% | 172.9hPa | 2.5V | 00:00:00 | 02:17:47 | 00:00:00 | |
| DL3AQ-11 | 2026-08-31 12:50:14 | 50.20446 | 8.75869 | 67° | 93km/h | 13036m | -17.5m/s | -47.9°C | 1.4% | 171.6hPa | 2.5V | 00:00:00 | 00:00:00 | 00:00:00 | |
| DL1NUX | 2026-08-31 12:50:13 | 50.20410 | 8.75736 | 66° | 88km/h | 13104m | -16.9m/s | -48°C | 3.5% | 169.9hPa | 2.5V | 02:57:51 | 02:17:40 | 00:00:00 | |
| DL1XH-west | 2026-08-31 12:50:13 | 50.20446 | 8.75869 | 67° | 93km/h | 13036m | -17.5m/s | -47.9°C | 0.6% | 171.6hPa | 2.6V | 02:57:49 | 02:17:44 | 00:00:00 | |
| HEMX73-11 | 2026-08-31 12:50:12 | 50.20437 | 8.75835 | 69° | 93km/h | 13054m | -16.8m/s | -47.9°C | 1.5% | 171.2hPa | 2.5V | 02:57:00 | 00:00:00 | 00:00:00 | |
| DM0DOS-11 | 2026-08-31 12:50:11 | 50.20374 | 8.75613 | 64° | 84km/h | 13172m | -17.5m/s | -48.1°C | 3.5% | 168.2hPa | 2.5V | 02:57:55 | 02:17:36 | 00:00:00 | |
| HSKMA3-T | 2026-08-31 12:50:08 | 50.20401 | 8.75705 | 66° | 88km/h | 13121m | -16.6m/s | -48°C | 0.7% | 169.4hPa | 2.5V | 02:58:40 | 02:17:39 | 00:00:00 | |
| DL1XH-west | 2026-08-31 12:50:03 | 50.20345 | 8.75522 | 64° | 88km/h | 13225m | -17.3m/s | -48.5°C | 0.8% | 166.8hPa | 2.6V | 02:58:40 | 02:17:33 | 00:00:00 | |
| HSKMA3-T | 2026-08-31 12:49:57 | 50.20296 | 8.75366 | 66° | 89km/h | 13313m | -17.4m/s | -48.6°C | 0.9% | 164.6hPa | 2.6V | 02:58:40 | 02:17:28 | 00:00:00 | |
| DM0DOS-11 | 2026-08-31 12:49:57 | 50.20278 | 8.75300 | 66° | 95km/h | 13348m | -18.1m/s | -48.7°C | 3.7% | 163.7hPa | 2.5V | 02:58:05 | 02:17:26 | 00:00:00 | |
| BIOWL1-15 | 2026-08-31 12:49:55 | 50.20259 | 8.75231 | 69° | 97km/h | 13383m | -17.1m/s | -48.9°C | 0.9% | 162.8hPa | 2.6V | 02:58:40 | 02:17:24 | 00:00:00 | |
| DL4BBY-15 | 2026-08-31 12:49:55 | 50.20278 | 8.75300 | 67° | 88km/h | 13348m | -18.0m/s | -48.0°C | 0% | 0hPa | 2.6V | 00:00:00 | 00:00:00 | 00:00:00 | |
| DL1XH1-15 | 2026-08-31 12:49:54 | 50.20250 | 8.75195 | 69° | 97km/h | 13400m | -17.7m/s | -49°C | 3.7% | 162.4hPa | 2.6V | 02:58:08 | 02:17:23 | 00:00:00 | |
| NBG1-10 | 2026-08-31 12:49:54 | 50.20268 | 8.75266 | 68° | 86km/h | 13366m | -17.2m/s | -48.7°C | 3.7% | 163.2hPa | 2.5V | 02:58:00 | 02:17:25 | 00:00:00 | |
| DL1NUX | 2026-08-31 12:49:53 | 50.20224 | 8.75088 | 69° | 95km/h | 13454m | -18.1m/s | -49.2°C | 3.8% | 161.1hPa | 2.5V | 02:58:11 | 02:17:20 | 00:00:00 | |
| DL1XH-west | 2026-08-31 12:49:52 | 50.20250 | 8.75195 | 70° | 97km/h | 13400m | -17.7m/s | -49°C | 0.9% | 162.4hPa | 2.6V | 02:58:40 | 02:17:23 | 00:00:00 | |
| HEMX73-11 | 2026-08-31 12:49:51 | 50.20250 | 8.75195 | 70° | 97km/h | 13401m | -17.7m/s | -49.0°C | 1.6% | 162.4hPa | 2.6V | 02:58:00 | 00:00:00 | 00:00:00 | |
| DM0DOS-11 | 2026-08-31 12:49:50 | 50.20193 | 8.74952 | 70° | 88km/h | 13525m | -16.6m/s | -49.4°C | 3.9% | 159.3hPa | 2.6V | 02:58:15 | 02:17:16 | 00:00:00 | |
| DL8DAS-14 | 2026-08-31 12:49:48 | 50.20216 | 8.75054 | 71° | 93km/h | 13472m | -17.9m/s | -49.3°C | 1.6% | 160.7hPa | 2.6V | 00:00:00 | 00:00:00 | 00:00:00 | |
| DL1XH1-15 | 2026-08-31 12:49:47 | 50.20171 | 8.74855 | 70° | 88km/h | 13576m | -17.4m/s | -49.4°C | 3.8% | 158.1hPa | 2.6V | 02:58:18 | 02:17:13 | 00:00:00 | |
| HSKMA3-T | 2026-08-31 12:49:47 | 50.20208 | 8.75019 | 71° | 93km/h | 13490m | -17.9m/s | -49.4°C | 1% | 160.2hPa | 2.5V | 02:58:40 | 02:17:18 | 00:00:00 | |
| BIOWL9-15 | 2026-08-31 12:49:46 | 50.20201 | 8.74985 | 71° | 89km/h | 13508m | -17.2m/s | -49.4°C | 1.6% | 159.8hPa | 2.5V | 00:00:00 | 00:00:00 | 00:00:00 | |
| BIOWL1-15 | 2026-08-31 12:49:44 | 50.20186 | 8.74919 | 70° | 88km/h | 13542m | -17.6m/s | -49.4°C | 1.1% | 158.9hPa | 2.5V | 02:58:40 | 02:17:15 | 00:00:00 | |
| DF7PN | 2026-08-31 12:49:43 | 50.20171 | 8.74855 | 70° | 86km/h | 13576m | -17.4m/s | -49.4°C | 1.7% | 158.1hPa | 2.6V | 00:00:00 | 00:00:00 | 00:00:00 | |
| DL1NUX | 2026-08-31 12:49:42 | 50.20149 | 8.74757 | 70° | 88km/h | 13629m | -17.4m/s | -49.6°C | 3.9% | 156.8hPa | 2.6V | 02:58:21 | 02:17:10 | 00:00:00 | |
| DL1XH-west | 2026-08-31 12:49:42 | 50.20171 | 8.74855 | 70° | 88km/h | 13576m | -17.4m/s | -49.4°C | 1% | 158.1hPa | 2.6V | 02:58:40 | 02:17:13 | 00:00:00 | |
| HSKMA3-T | 2026-08-31 12:49:36 | 50.20125 | 8.74659 | 68° | 88km/h | 13680m | -17.1m/s | -49.4°C | 1% | 155.6hPa | 2.6V | 02:58:40 | 02:17:07 | 00:00:00 | |
| DL1XH1-15 | 2026-08-31 12:49:35 | 50.20090 | 8.74539 | 65° | 80km/h | 13746m | -16.6m/s | -49.4°C | 3.8% | 154hPa | 2.6V | 02:58:28 | 02:17:03 | 00:00:00 | |
| BIOWL1-15 | 2026-08-31 12:49:33 | 50.20099 | 8.74568 | 64° | 82km/h | 13729m | -16.3m/s | -49.3°C | 1% | 154.4hPa | 2.5V | 02:58:40 | 02:17:04 | 00:00:00 | |
| DL1XH-west | 2026-08-31 12:49:31 | 50.20082 | 8.74511 | 65° | 78km/h | 13762m | -16.5m/s | -49.3°C | 1% | 153.6hPa | 2.6V | 02:58:40 | 02:17:02 | 00:00:00 | |
| HSKMA3-T | 2026-08-31 12:49:25 | 50.20033 | 8.74345 | 64° | 78km/h | 13860m | -17.6m/s | -49.4°C | 1% | 151.4hPa | 2.6V | 02:58:40 | 02:16:56 | 00:00:00 | |
| BIOWL1-15 | 2026-08-31 12:49:22 | 50.20007 | 8.74262 | 63° | 77km/h | 13913m | -17.3m/s | -49.7°C | 1% | 150.2hPa | 2.5V | 02:58:40 | 02:16:53 | 00:00:00 | |
| DL1XH-west | 2026-08-31 12:49:21 | 50.19989 | 8.74208 | 62° | 77km/h | 13947m | -17.4m/s | -49.9°C | 1% | 149.4hPa | 2.6V | 02:58:40 | 02:16:51 | 00:00:00 | |
| DJ8HS-15 | 2026-08-31 12:49:19 | 50.19980 | 8.74182 | 61° | 69km/h | 13965m | -17.1m/s | -50.0°C | 3.8% | 149.0hPa | 2.6V | 00:00:00 | 02:16:50 | 00:00:00 | |
| DM0DOS-11 | 2026-08-31 12:49:16 | 50.19943 | 8.74079 | 61° | 71km/h | 14032m | -16.8m/s | -50.4°C | 3.9% | 147.5hPa | 2.6V | 02:58:45 | 02:16:46 | 00:00:00 | |
| HSKMA3-T | 2026-08-31 12:49:14 | 50.19935 | 8.74054 | 62° | 69km/h | 14049m | -16.8m/s | -50.6°C | 1.1% | 147.2hPa | 2.6V | 02:59:31 | 02:16:45 | 00:00:00 | |
| BIOWL1-15 | 2026-08-31 12:49:14 | 50.19886 | 8.73913 | 65° | 66km/h | 14150m | -17.2m/s | -50.9°C | 1.1% | 144.9hPa | 2.6V | 02:59:31 | 02:16:39 | 00:00:00 | |
| DL1XH-west | 2026-08-31 12:49:11 | 50.19901 | 8.73960 | 62° | 68km/h | 14116m | -16.2m/s | -50.8°C | 1.1% | 145.6hPa | 2.6V | 02:59:31 | 02:16:41 | 00:00:00 | |
| DM0DOS-11 | 2026-08-31 12:49:11 | 50.19865 | 8.73842 | 63° | 68km/h | 14201m | -17m/s | -50.7°C | 3.9% | 143.7hPa | 2.6V | 02:58:55 | 02:16:36 | 00:00:00 | |
| DL1NUX | 2026-08-31 12:49:10 | 50.19894 | 8.73936 | 63° | 68km/h | 14133m | -17m/s | -50.9°C | 4% | 145.2hPa | 2.6V | 02:58:51 | 02:16:40 | 00:00:00 | |
| HEMX73-11 | 2026-08-31 12:49:09 | 50.19901 | 8.73960 | 63° | 68km/h | 14116m | -16.2m/s | -50.8°C | 1.7% | 145.6hPa | 2.5V | 02:59:00 | 00:00:00 | 00:00:00 | |
| DL1XH1-15 | 2026-08-31 12:49:08 | 50.19841 | 8.73770 | 61° | 68km/h | 14250m | -16.5m/s | -51°C | 4.1% | 142.6hPa | 2.5V | 02:58:58 | 02:16:33 | 00:00:00 | |
| DK7TD | 2026-08-31 12:49:07 | 50.19879 | 8.73889 | 65° | 66km/h | 14167m | -16.6m/s | -50.9°C | 1.1% | 144.5hPa | 2.5V | 02:59:31 | 02:16:38 | 00:00:00 | |
| DL3AQ-11 | 2026-08-31 12:49:05 | 50.19865 | 8.73842 | 63° | 68km/h | 14201m | -17.0m/s | -50.7°C | 1.6% | 143.7hPa | 2.6V | 00:00:00 | 00:00:00 | 00:00:00 | |
| DL1NUX | 2026-08-31 12:49:04 | 50.19815 | 8.73700 | 57° | 69km/h | 14301m | -16.6m/s | -51.2°C | 4.1% | 141.6hPa | 2.6V | 02:59:01 | 02:16:30 | 00:00:00 | |
| HSKMA3-T | 2026-08-31 12:49:04 | 50.19857 | 8.73818 | 64° | 69km/h | 14217m | -16.8m/s | -50.7°C | 1.1% | 143.3hPa | 2.6V | 02:59:31 | 02:16:35 | 00:00:00 | |
| DL1XH-west | 2026-08-31 12:48:59 | 50.19815 | 8.73700 | 57° | 69km/h | 14301m | -16.6m/s | -51.2°C | 1.1% | 141.6hPa | 2.6V | 02:59:31 | 02:16:30 | 00:00:00 | |
| BIOWL1-15 | 2026-08-31 12:48:57 | 50.19796 | 8.73654 | 58° | 69km/h | 14334m | -17.6m/s | -51.4°C | 1.1% | 140.9hPa | 2.5V | 02:59:31 | 02:16:28 | 00:00:00 | |
| DK7TD | 2026-08-31 12:48:57 | 50.19786 | 8.73631 | 58° | 71km/h | 14352m | -17.2m/s | -51.5°C | 1.1% | 140.5hPa | 2.6V | 02:59:31 | 02:16:27 | 00:00:00 | |
| DM0DOS-11 | 2026-08-31 12:48:56 | 50.19777 | 8.73606 | 59° | 73km/h | 14369m | -17m/s | -51.6°C | 4.1% | 140.1hPa | 2.6V | 02:59:05 | 02:16:26 | 00:00:00 | |
| DL9SK-14 | 2026-08-31 12:48:56 | 50.19777 | 8.73606 | 59° | 73km/h | 14369m | -17.0m/s | -51.6°C | 1.6% | 140.1hPa | 2.5V | 00:00:00 | 00:00:00 | 00:00:00 | |
| SONCRA | 2026-08-31 12:48:55 | 50.19768 | 8.73581 | 61° | 75km/h | 14386m | -17.0m/s | -51.7°C | 1.7% | 139.7hPa | 2.5V | 00:00:00 | 00:00:00 | 00:00:00 | |
| DL1XH1-15 | 2026-08-31 12:48:54 | 50.19748 | 8.73529 | 58° | 77km/h | 14421m | -17.9m/s | -51.9°C | 4.2% | 139hPa | 2.5V | 02:59:08 | 02:16:23 | 00:00:00 | |
| HSKMA3-T | 2026-08-31 12:48:53 | 50.19758 | 8.73555 | 61° | 77km/h | 14403m | -17.1m/s | -51.8°C | 1.1% | 139.4hPa | 2.6V | 02:59:31 | 02:16:24 | 00:00:00 | |
| DM0DOS-11 | 2026-08-31 12:48:50 | 50.19670 | 8.73356 | 51° | 78km/h | 14543m | -17.4m/s | -51°C | 3.9% | 136.4hPa | 2.5V | 02:59:15 | 02:16:16 | 00:00:00 | |
| DL1XH-west | 2026-08-31 12:48:48 | 50.19705 | 8.73429 | 54° | 78km/h | 14490m | -17.8m/s | -51.1°C | 0.9% | 137.5hPa | 2.6V | 02:59:31 | 02:16:19 | 00:00:00 | |
| BIOWL1-15 | 2026-08-31 12:48:46 | 50.19555 | 8.73093 | 59° | 80km/h | 14707m | -15.8m/s | -51.6°C | 0.9% | 133hPa | 2.6V | 02:59:31 | 02:16:06 | 00:00:00 | |
| DK7TD | 2026-08-31 12:48:45 | 50.19670 | 8.73356 | 52° | 78km/h | 14543m | -17.4m/s | -51°C | 0.9% | 136.4hPa | 2.5V | 02:59:31 | 02:16:16 | 00:00:00 | |
| DO3DL | 2026-08-31 12:48:45 | 50.19670 | 8.73356 | 53° | 78km/h | 14543m | -17.4m/s | -51.0°C | 1.6% | 136.4hPa | 2.5V | 00:00:00 | 00:00:00 | 00:00:00 | |
| DL1NUX | 2026-08-31 12:48:44 | 50.19599 | 8.73202 | 56° | 82km/h | 14644m | -16.4m/s | -51.3°C | 3.9% | 134.3hPa | 2.5V | 02:59:21 | 02:16:10 | 00:00:00 | |
| HSKMA3-T | 2026-08-31 12:48:41 | 50.19622 | 8.73256 | 55° | 80km/h | 14611m | -16.1m/s | -51.2°C | 0.9% | 134.9hPa | 2.6V | 02:59:31 | 02:16:12 | 00:00:00 | |
| DL1XH-west | 2026-08-31 12:48:38 | 50.19566 | 8.73120 | 59° | 82km/h | 14691m | -15.9m/s | -51.6°C | 1% | 133.3hPa | 2.6V | 02:59:31 | 02:16:07 | 00:00:00 | |
| DK7TD | 2026-08-31 12:48:34 | 50.19545 | 8.73066 | 60° | 78km/h | 14723m | -15.4m/s | -51.6°C | 1% | 132.6hPa | 2.6V | 02:59:31 | 02:16:05 | 00:00:00 | |
| DL1NUX | 2026-08-31 12:48:34 | 50.19500 | 8.72936 | 63° | 73km/h | 14802m | -15.8m/s | -51.5°C | 4% | 131.1hPa | 2.6V | 02:59:31 | 02:16:00 | 00:00:00 | |
| BIOWL1-15 | 2026-08-31 12:48:32 | 50.19526 | 8.73013 | 62° | 75km/h | 14754m | -15.7m/s | -51.5°C | 1% | 132hPa | 2.6V | 02:59:31 | 02:16:03 | 00:00:00 | |
| HSKMA3-T | 2026-08-31 12:48:31 | 50.19517 | 8.72988 | 62° | 73km/h | 14770m | -15.8m/s | -51.5°C | 0.9% | 131.7hPa | 2.5V | 02:59:31 | 02:16:02 | 00:00:00 | |
| DM0DOS-11 | 2026-08-31 12:48:31 | 50.19467 | 8.72831 | 64° | 77km/h | 14864m | -15.4m/s | -51.5°C | 4% | 129.7hPa | 2.5V | 02:59:35 | 02:15:56 | 00:00:00 | |
| DL1XH-west | 2026-08-31 12:48:27 | 50.19484 | 8.72885 | 64° | 75km/h | 14833m | -15.7m/s | -51.7°C | 0.9% | 130.4hPa | 2.6V | 03:00:22 | 02:15:58 | 00:00:00 | |
| DB0ND-19 | 2026-08-31 12:48:27 | 50.19475 | 8.72858 | 64° | 75km/h | 14849m | -15.6m/s | -51.7°C | 1.6% | 130.1hPa | 2.5V | 00:00:00 | 00:00:00 | 00:00:00 | |
| DL9SK-14 | 2026-08-31 12:48:25 | 50.19459 | 8.72803 | 64° | 77km/h | 14880m | -15.3m/s | -51.5°C | 1.5% | 129.4hPa | 2.5V | 00:00:00 | 00:00:00 | 00:00:00 | |
| DL1NUX | 2026-08-31 12:48:24 | 50.19413 | 8.72659 | 63° | 84km/h | 14958m | -15.6m/s | -51.6°C | 4% | 127.9hPa | 2.5V | 02:59:41 | 02:15:50 | 00:00:00 | |
| DK7TD | 2026-08-31 12:48:23 | 50.19450 | 8.72775 | 64° | 78km/h | 14896m | -15.7m/s | -51.5°C | 0.9% | 129.1hPa | 2.6V | 03:00:22 | 02:15:54 | 00:00:00 | |
| HSKMA3-T | 2026-08-31 12:48:20 | 50.19423 | 8.72689 | 63° | 84km/h | 14943m | -15.7m/s | -51.6°C | 1% | 128.2hPa | 2.6V | 03:01:13 | 02:15:51 | 00:00:00 | |
| DL1XH-west | 2026-08-31 12:48:17 | 50.19394 | 8.72598 | 64° | 89km/h | 14989m | -15.6m/s | -51.6°C | 0.9% | 127.3hPa | 2.6V | 03:00:22 | 02:15:48 | 00:00:00 | |
| DM0DOS-11 | 2026-08-31 12:48:16 | 50.19374 | 8.72534 | 65° | 91km/h | 15021m | -16m/s | -51.5°C | 4% | 126.7hPa | 2.6V | 02:59:45 | 02:15:46 | 00:00:00 | |
| DK7TD | 2026-08-31 12:48:12 | 50.19347 | 8.72437 | 67° | 88km/h | 15069m | -15.6m/s | -51.6°C | 0.9% | 0hPa | 2.6V | 03:00:22 | 02:15:43 | 00:00:00 | |
| BIOWL1-15 | 2026-08-31 12:48:11 | 50.19280 | 8.72139 | 72° | 69km/h | 15231m | -14.1m/s | -51.4°C | 0.8% | 122.7hPa | 2.6V | 03:00:22 | 02:15:33 | 00:00:00 | |
| DM0DOS-11 | 2026-08-31 12:48:11 | 50.19299 | 8.72222 | 72° | 78km/h | 15183m | -17m/s | -51.4°C | 3.9% | 123.6hPa | 2.6V | 02:59:55 | 02:15:36 | 00:00:00 | |
| HSKMA3-T | 2026-08-31 12:48:08 | 50.19318 | 8.72312 | 72° | 82km/h | 15132m | -16.7m/s | -51.4°C | 0.8% | 124.5hPa | 2.5V | 03:01:13 | 02:15:39 | 00:00:00 | |
| DL1XH-west | 2026-08-31 12:48:07 | 50.19305 | 8.72251 | 72° | 78km/h | 15166m | -16.8m/s | -51.4°C | 0.8% | 123.8hPa | 2.6V | 03:00:22 | 02:15:37 | 00:00:00 | |
| DO3DL | 2026-08-31 12:48:06 | 50.19311 | 8.72281 | 73° | 80km/h | 15149m | -17.0m/s | -51.4°C | 1.4% | 124.3hPa | 2.6V | 03:00:00 | 00:00:00 | 00:00:00 | |
| SONDE2-11 | 2026-08-31 12:48:05 | 50.19280 | 8.72139 | 71° | 69km/h | 15231m | -14.1m/s | -51.4°C | 1.4% | 122.7hPa | 2.6V | 00:00:00 | 00:00:00 | 00:00:00 | |
| DL1NUX | 2026-08-31 12:48:04 | 50.19263 | 8.72063 | 68° | 66km/h | 15272m | -13m/s | -51.4°C | 4% | 121.8hPa | 2.6V | 03:00:01 | 02:15:30 | 00:00:00 | |
| DK7TD | 2026-08-31 12:48:01 | 50.19274 | 8.72113 | 70° | 68km/h | 15245m | -14.2m/s | -51.4°C | 0.8% | 0hPa | 2.6V | 03:00:22 | 02:15:32 | 00:00:00 | |
| DM0DOS-11 | 2026-08-31 12:47:59 | 50.19234 | 8.71945 | 68° | 66km/h | 15335m | -12.8m/s | -50.8°C | 3.9% | 120.6hPa | 2.7V | 03:00:06 | 02:15:25 | 00:00:00 | |
| HSKMA3-T | 2026-08-31 12:47:57 | 50.19251 | 8.72016 | 69° | 64km/h | 15298m | -12.2m/s | -51.3°C | 0.8% | 121.3hPa | 2.6V | 03:01:13 | 02:15:28 | 00:00:00 | |
| DL1XH-west | 2026-08-31 12:47:56 | 50.19245 | 8.71993 | 68° | 64km/h | 15310m | -12.1m/s | -51.3°C | 0.8% | 121.1hPa | 2.6V | 03:00:22 | 02:15:27 | 00:00:00 | |
| BIOWL1-15 | 2026-08-31 12:47:55 | 50.19234 | 8.71945 | 69° | 66km/h | 15335m | -12.9m/s | -50.8°C | 0.8% | 120.6hPa | 2.7V | 03:00:22 | 02:15:25 | 00:00:00 | |
| DL9SK-14 | 2026-08-31 12:47:54 | 50.19228 | 8.71920 | 68° | 68km/h | 15348m | -13.2m/s | -50.7°C | 1.4% | 120.4hPa | 2.6V | 00:00:00 | 00:00:00 | 00:00:00 | |
| DL9PN | 2026-08-31 12:47:53 | 50.19221 | 8.71895 | 69° | 69km/h | 15361m | -13.4m/s | -50.8°C | 1.4% | 120.1hPa | 2.6V | 00:00:00 | 00:00:00 | 00:00:00 | |
| WPPR-10 | 2026-08-31 12:47:52 | 50.19221 | 8.71895 | 69° | 69km/h | 15361m | -13.4m/s | -50.8°C | 1.4% | 120.1hPa | 2.6V | 00:00:00 | 00:00:00 | 00:00:00 | |
| DO3DL | 2026-08-31 12:47:50 | 50.19214 | 8.71868 | 70° | 75km/h | 15375m | -13.8m/s | -50.9°C | 1.4% | 119.9hPa | 2.6V | 03:00:00 | 00:00:00 | 00:00:00 | |
| DM0DOS-11 | 2026-08-31 12:47:49 | 50.19171 | 8.71665 | 72° | 71km/h | 15475m | -14.2m/s | -51.4°C | 4.2% | 118.1hPa | 2.6V | 03:00:16 | 02:15:15 | 00:00:00 | |
| HSKMA3-T | 2026-08-31 12:47:47 | 50.19188 | 8.71751 | 72° | 80km/h | 15432m | -14.4m/s | -51.2°C | 0.9% | 118.9hPa | 2.6V | 03:01:13 | 02:15:18 | 00:00:00 | |
| DK7TD | 2026-08-31 12:47:46 | 50.19182 | 8.71721 | 73° | 78km/h | 15446m | -14.4m/s | -51.3°C | 0.9% | 0hPa | 2.6V | 03:00:22 | 02:15:17 | 00:00:00 | |
| DL1XH-west | 2026-08-31 12:47:45 | 50.19176 | 8.71692 | 73° | 75km/h | 15460m | -14.6m/s | -51.4°C | 1% | 118.3hPa | 2.6V | 03:00:22 | 02:15:16 | 00:00:00 | |
| BIOWL1-15 | 2026-08-31 12:47:45 | 50.19165 | 8.71639 | 72° | 68km/h | 15489m | -14.4m/s | -51.3°C | 0.9% | 117.8hPa | 2.6V | 03:00:22 | 02:15:14 | 00:00:00 | |
| DL3AQ-11 | 2026-08-31 12:47:45 | 50.19171 | 8.71665 | 72° | 71km/h | 15475m | -14.2m/s | -51.4°C | 1.5% | 118.1hPa | 2.6V | 00:00:00 | 00:00:00 | 00:00:00 | |
| DL8DAS-14 | 2026-08-31 12:47:44 | 50.19171 | 8.71665 | 72° | 71km/h | 15475m | -14.2m/s | -51.4°C | 1.5% | 118.1hPa | 2.6V | 00:00:00 | 00:00:00 | 00:00:00 | |
| DO3DL | 2026-08-31 12:47:43 | 50.19171 | 8.71665 | 73° | 71km/h | 15475m | -14.2m/s | -51.4°C | 1.5% | 118.1hPa | 2.6V | 03:00:00 | 00:00:00 | 00:00:00 | |
| DL1XH1-15 | 2026-08-31 12:47:42 | 50.19155 | 8.71589 | 70° | 64km/h | 15518m | -14.7m/s | -51.1°C | 4.1% | 117.3hPa | 2.6V | 03:00:19 | 02:15:12 | 00:00:00 | |
| NBG1-10 | 2026-08-31 12:47:42 | 50.19160 | 8.71614 | 72° | 53km/h | 15504m | -14.0m/s | -51.0°C | 4.1% | 117.5hPa | 2.6V | 00:00:00 | 02:15:13 | 00:00:00 | |
| DM0DOS-11 | 2026-08-31 12:47:39 | 50.19121 | 8.71386 | 80° | 68km/h | 15645m | -16.3m/s | -50.7°C | 3.9% | 115.2hPa | 2.6V | 03:00:27 | 02:15:04 | 00:00:00 | |
| HSKMA3-T | 2026-08-31 12:47:37 | 50.19135 | 8.71491 | 75° | 68km/h | 15580m | -16.2m/s | -51.2°C | 0.8% | 116.2hPa | 2.6V | 03:01:13 | 02:15:08 | 00:00:00 | |
| DK7TD | 2026-08-31 12:47:36 | 50.19131 | 8.71465 | 77° | 68km/h | 15596m | -16.2m/s | -51°C | 0.8% | 0hPa | 2.6V | 18:12:15 | 02:15:07 | 00:00:00 | |
| DL1XH-west | 2026-08-31 12:47:34 | 50.19124 | 8.71412 | 80° | 68km/h | 15629m | -16.5m/s | -50.9°C | 0.8% | 115.4hPa | 2.6V | 03:01:13 | 02:15:05 | 00:00:00 | |
| BIOWL1-15 | 2026-08-31 12:47:33 | 50.19119 | 8.71361 | 82° | 64km/h | 15662m | -17.3m/s | -50.1°C | 0.7% | 114.8hPa | 2.6V | 03:01:13 | 02:15:03 | 00:00:00 | |
| BUE01 | 2026-08-31 12:47:30 | 50.19113 | 8.71290 | 81° | 57km/h | 15715m | -17.3m/s | -49.0°C | 1.2% | 113.9hPa | 2.7V | 00:00:00 | 00:00:00 | 00:00:00 | |
| DM0DOS-11 | 2026-08-31 12:47:28 | 50.19098 | 8.71145 | 80° | 51km/h | 15843m | -18.9m/s | -49.4°C | 3.3% | 111.8hPa | 2.7V | 03:00:38 | 02:14:53 | 00:00:00 | |
| HSKMA3-T | 2026-08-31 12:47:27 | 50.19109 | 8.71247 | 83° | 51km/h | 15751m | -17.1m/s | -48.9°C | 0.4% | 113.4hPa | 2.6V | 03:01:13 | 02:14:58 | 00:00:00 | |
| CB1BUN | 2026-08-31 12:47:26 | 50.19108 | 8.71247 | 84° | 51km/h | 15751m | -17.1m/s | -48.9°C | 1.2% | 113.4hPa | 2.6V | 03:01:00 | 00:00:00 | 00:00:00 | |
| DL1XH1-15 | 2026-08-31 12:47:25 | 50.19096 | 8.71125 | 80° | 51km/h | 15861m | -17.9m/s | -49.5°C | 3.4% | 111.5hPa | 2.6V | 03:00:39 | 02:14:52 | 00:00:00 | |
| DK7TD | 2026-08-31 12:47:25 | 50.19104 | 8.71207 | 80° | 53km/h | 15787m | -18.7m/s | -49.1°C | 0.4% | 0hPa | 2.6V | 18:12:15 | 02:14:56 | 00:00:00 | |
| DL1XH-west | 2026-08-31 12:47:24 | 50.19102 | 8.71186 | 81° | 53km/h | 15805m | -18.6m/s | -49.2°C | 0.4% | 112.4hPa | 2.7V | 03:01:13 | 02:14:55 | 00:00:00 | |
| DO3DL | 2026-08-31 12:47:23 | 50.19102 | 8.71186 | 82° | 53km/h | 15805m | -18.6m/s | -49.2°C | 1.2% | 112.4hPa | 2.6V | 03:01:00 | 00:00:00 | 00:00:00 | |
| DL9SK-14 | 2026-08-31 12:47:22 | 50.19098 | 8.71145 | 80° | 51km/h | 15843m | -18.9m/s | -49.4°C | 1.2% | 111.8hPa | 2.6V | 00:00:00 | 00:00:00 | 00:00:00 | |
| WPPR-10 | 2026-08-31 12:47:21 | 50.19095 | 8.71125 | 80° | 51km/h | 15862m | -17.9m/s | 0°C | -1.0% | -1.0hPa | 2.6V | 00:00:00 | 00:00:00 | 00:00:00 | |
| DJ8HS-15 | 2026-08-31 12:47:19 | 50.19091 | 8.71087 | 80° | 46km/h | 15899m | -18.3m/s | -49.6°C | 3.4% | 110.8hPa | 2.6V | 00:00:00 | 02:14:50 | 00:00:00 | |
| DL3AQ-11 | 2026-08-31 12:47:18 | 50.19085 | 8.71053 | 73° | 42km/h | 15935m | -17.6m/s | -49.9°C | 1.2% | 110.2hPa | 2.6V | 00:00:00 | 00:00:00 | 00:00:00 | |
| DM0DOS-11 | 2026-08-31 12:47:17 | 50.19067 | 8.70969 | 69° | 44km/h | 16032m | -20.2m/s | -50.7°C | 3.7% | 108.7hPa | 2.6V | 03:00:48 | 02:14:43 | 00:00:00 | |
| HSKMA3-T | 2026-08-31 12:47:16 | 50.19082 | 8.71036 | 75° | 44km/h | 15953m | -18.8m/s | -50.1°C | 0.5% | 110hPa | 2.6V | 03:01:13 | 02:14:47 | 00:00:00 | |
| DL1XH1-15 | 2026-08-31 12:47:15 | 50.19064 | 8.70952 | 68° | 44km/h | 16052m | -19.5m/s | -50.9°C | 3.8% | 108.3hPa | 2.6V | 03:00:49 | 02:14:42 | 00:00:00 | |
| DK7TD | 2026-08-31 12:47:14 | 50.19075 | 8.71003 | 72° | 46km/h | 15991m | -19.8m/s | -50.4°C | 0.6% | 0hPa | 2.5V | 18:12:15 | 02:14:45 | 00:00:00 | |
| DL1XH-west | 2026-08-31 12:47:13 | 50.19071 | 8.70985 | 71° | 46km/h | 16011m | -20.6m/s | -50.6°C | 0.7% | 109hPa | 2.6V | 03:01:13 | 02:14:44 | 00:00:00 | |
| BIOWL1-15 | 2026-08-31 12:47:09 | 50.19055 | 8.70921 | 69° | 42km/h | 16091m | -19.9m/s | -51.1°C | 0.8% | 107.7hPa | 2.5V | 03:01:13 | 02:14:40 | 00:00:00 | |
| DK7TD | 2026-08-31 12:47:05 | 50.19031 | 8.70842 | 63° | 46km/h | 16195m | -21.1m/s | -51.7°C | 0.8% | 0hPa | 2.6V | 18:12:15 | 02:14:35 | 00:00:00 | |
| DL1XH1-15 | 2026-08-31 12:47:04 | 50.19013 | 8.70794 | 57° | 49km/h | 16257m | -20.8m/s | -51.7°C | 3.9% | 105hPa | 2.7V | 03:00:59 | 02:14:32 | 00:00:00 | |
| HSKMA3-T | 2026-08-31 12:47:02 | 50.19019 | 8.70810 | 60° | 47km/h | 16236m | -20.3m/s | -51.6°C | 0.9% | 105.3hPa | 2.7V | 03:01:13 | 02:14:33 | 00:00:00 | |
| DL1NUX | 2026-08-31 12:47:01 | 50.18998 | 8.70762 | 52° | 51km/h | 16298m | -20.8m/s | -51.9°C | 3.9% | 104.3hPa | 2.6V | 03:01:01 | 02:14:30 | 00:00:00 | |
| DM0DOS-11 | 2026-08-31 12:46:59 | 50.18954 | 8.70690 | 42° | 51km/h | 16401m | -20.8m/s | -50.9°C | 3.6% | 102.6hPa | 2.7V | 03:01:06 | 02:14:25 | 00:00:00 | |
| BIOWL1-15 | 2026-08-31 12:46:58 | 50.18990 | 8.70747 | 49° | 51km/h | 16318m | -20.9m/s | -52°C | 0.8% | 103.9hPa | 2.7V | 03:01:13 | 02:14:29 | 00:00:00 | |
| DK7TD | 2026-08-31 12:46:55 | 50.18954 | 8.70690 | 43° | 51km/h | 16401m | -20.8m/s | -50.9°C | 0.6% | 0hPa | 2.7V | 18:12:15 | 02:14:25 | 00:00:00 | |
| DL1NUX | 2026-08-31 12:46:54 | 50.18900 | 8.70625 | 32° | 55km/h | 16508m | -21.9m/s | -51.3°C | 3.6% | 101hPa | 2.7V | 03:01:11 | 02:14:20 | 00:00:00 | |
| DL3AQ-11 | 2026-08-31 12:46:54 | 50.18944 | 8.70677 | 40° | 51km/h | 16422m | -20.9m/s | -50.7°C | 1.2% | 102.3hPa | 2.6V | 00:00:00 | 00:00:00 | 00:00:00 | |
| DB0ND-19 | 2026-08-31 12:46:53 | 50.18944 | 8.70677 | 40° | 51km/h | 16422m | -20.9m/s | -50.7°C | 1.2% | 102.3hPa | 2.6V | 00:00:00 | 00:00:00 | 00:00:00 | |
| DL1XH1-15 | 2026-08-31 12:46:52 | 50.18923 | 8.70650 | 37° | 57km/h | 16464m | -21.8m/s | -50.9°C | 3.5% | 101.7hPa | 2.6V | 03:01:09 | 02:14:22 | 00:00:00 | |
| DL1XH-west | 2026-08-31 12:46:52 | 50.18912 | 8.70638 | 34° | 57km/h | 16486m | -21.9m/s | -51.1°C | 0.5% | 101.4hPa | 2.6V | 03:01:13 | 02:14:21 | 00:00:00 | |
| HSKMA3-T | 2026-08-31 12:46:51 | 50.18923 | 8.70650 | 38° | 57km/h | 16464m | -21.8m/s | -50.9°C | 0.5% | 101.7hPa | 2.6V | 03:01:13 | 02:14:22 | 00:00:00 | |
| BIOWL1-15 | 2026-08-31 12:46:50 | 50.18877 | 8.70603 | 32° | 53km/h | 16551m | -21m/s | -51.7°C | 0.6% | 100.3hPa | 2.7V | 03:01:13 | 02:14:18 | 00:00:00 | |
| DO3DL | 2026-08-31 12:46:48 | 50.18900 | 8.70625 | 34° | 55km/h | 16509m | -21.9m/s | -51.3°C | 1.3% | 101.0hPa | 2.6V | 03:01:00 | 00:00:00 | 00:00:00 | |
| DM0DOS-11 | 2026-08-31 12:46:46 | 50.18844 | 8.70569 | 35° | 53km/h | 16615m | -22.7m/s | -52.2°C | 3.9% | 99.3hPa | 2.6V | 03:01:16 | 02:14:15 | 00:00:00 | |
| DL1XH1-15 | 2026-08-31 12:46:46 | 50.18810 | 8.70533 | 33° | 53km/h | 16683m | -22.1m/s | -52.5°C | 4.1% | 98.3hPa | 2.6V | 03:01:19 | 02:14:12 | 00:00:00 | |
| DF2AP-13 | 2026-08-31 12:46:45 | 50.18855 | 8.70580 | 33° | 58km/h | 16594m | -21.4m/s | -52.0°C | 3.8% | 99.6hPa | 2.6V | 03:01:00 | 02:14:16 | 00:00:00 | |
| DL1NUX | 2026-08-31 12:46:44 | 50.18788 | 8.70510 | 34° | 53km/h | 16726m | -21.5m/s | -52.7°C | 4.1% | 97.7hPa | 2.6V | 03:01:21 | 02:14:10 | 00:00:00 | |
| DK7TD | 2026-08-31 12:46:42 | 50.18822 | 8.70545 | 35° | 53km/h | 16661m | -21.9m/s | -52.4°C | 0.8% | 0hPa | 2.7V | 18:12:15 | 02:14:13 | 00:00:00 | |
| HSKMA3-T | 2026-08-31 12:46:41 | 50.18810 | 8.70533 | 34° | 53km/h | 16683m | -22.1m/s | -52.5°C | 0.9% | 98.3hPa | 2.6V | 03:02:04 | 02:14:12 | 00:00:00 | |
| DL1XH-west | 2026-08-31 12:46:40 | 50.18799 | 8.70521 | 33° | 53km/h | 16705m | -21.4m/s | -52.6°C | 0.9% | 98hPa | 2.6V | 03:02:04 | 02:14:11 | 00:00:00 | |
| BIOWL1-15 | 2026-08-31 12:46:36 | 50.18714 | 8.70405 | 49° | 60km/h | 16877m | -20.9m/s | -53.7°C | 1.1% | 95.4hPa | 2.6V | 03:02:04 | 02:14:03 | 00:00:00 | |
| DL1XH1-15 | 2026-08-31 12:46:36 | 50.18704 | 8.70387 | 49° | 62km/h | 16898m | -21.2m/s | -53.7°C | 4.5% | 95.1hPa | 2.7V | 03:01:29 | 02:14:02 | 00:00:00 | |
| HSKMA3-T | 2026-08-31 12:46:30 | 50.18694 | 8.70368 | 48° | 62km/h | 16920m | -21.1m/s | -53.7°C | 1.1% | 94.8hPa | 2.7V | 03:02:04 | 02:14:01 | 00:00:00 | |
| BIOWL1-15 | 2026-08-31 12:46:25 | 50.18628 | 8.70237 | 61° | 60km/h | 17066m | -21m/s | -52.5°C | 0.9% | 92.7hPa | 2.6V | 03:02:04 | 02:13:54 | 00:00:00 | |
| DL3AQ-11 | 2026-08-31 12:46:25 | 50.18636 | 8.70258 | 58° | 60km/h | 17045m | -21.4m/s | -52.5°C | 1.4% | 92.9hPa | 2.6V | 00:00:00 | 00:00:00 | 00:00:00 | |
| DL1XH1-15 | 2026-08-31 12:46:24 | 50.18614 | 8.70195 | 62° | 60km/h | 17108m | -20.7m/s | -52.1°C | 4% | 92hPa | 2.6V | 03:01:39 | 02:13:52 | 00:00:00 | |
| DL1NUX | 2026-08-31 12:46:24 | 50.18592 | 8.70131 | 63° | 58km/h | 17168m | -19.7m/s | -52.2°C | 4.1% | 91.1hPa | 2.7V | 03:01:42 | 02:13:49 | 00:00:00 | |
| DL1XH-west | 2026-08-31 12:46:20 | 50.18606 | 8.70174 | 62° | 62km/h | 17128m | -19.8m/s | -52.1°C | 0.9% | 91.7hPa | 2.6V | 03:02:04 | 02:13:51 | 00:00:00 | |
| DM0DOS-11 | 2026-08-31 12:46:19 | 50.18573 | 8.70049 | 75° | 53km/h | 17250m | -22.3m/s | -51.6°C | 3.9% | 90hPa | 2.6V | 03:01:46 | 02:13:45 | 00:00:00 | |
| DK7TD | 2026-08-31 12:46:19 | 50.18599 | 8.70152 | 64° | 60km/h | 17148m | -19.8m/s | -52.1°C | 0.8% | 0hPa | 2.7V | 18:12:15 | 02:13:50 | 00:00:00 | |
| BIOWL1-15 | 2026-08-31 12:46:16 | 50.18573 | 8.70049 | 76° | 53km/h | 17250m | -22.3m/s | -51.6°C | 0.7% | 90hPa | 2.6V | 03:02:04 | 02:13:45 | 00:00:00 | |
| DF2AP-13 | 2026-08-31 12:46:15 | 50.18576 | 8.70069 | 74° | 33km/h | 17229m | -21.5m/s | -51.7°C | 4.0% | 90.2hPa | 2.6V | 00:00:00 | 02:13:46 | 00:00:00 | |
| DL3AQ-11 | 2026-08-31 12:46:14 | 50.18569 | 8.70029 | 76° | 49km/h | 17272m | -21.6m/s | -51.6°C | 1.3% | 89.7hPa | 2.6V | 00:00:00 | 00:00:00 | 00:00:00 | |
| DL1NUX | 2026-08-31 12:46:13 | 50.18557 | 8.69948 | 79° | 37km/h | 17378m | -21.7m/s | -51.9°C | 3.8% | 88.2hPa | 2.6V | 03:01:52 | 02:13:39 | 00:00:00 | |
| DL8DAS-14 | 2026-08-31 12:46:11 | 50.18563 | 8.69993 | 76° | 42km/h | 17315m | -21.2m/s | -51.7°C | 1.3% | 89.1hPa | 2.6V | 00:00:00 | 00:00:00 | 00:00:00 | |
| DM0DOS-11 | 2026-08-31 12:46:09 | 50.18549 | 8.69895 | 71° | 29km/h | 17468m | -21.9m/s | -52°C | 3.9% | 87hPa | 2.6V | 03:01:56 | 02:13:35 | 00:00:00 | |
| HSKMA3-T | 2026-08-31 12:46:09 | 50.18559 | 8.69963 | 80° | 38km/h | 17357m | -21.2m/s | -51.8°C | 0.8% | 88.5hPa | 2.6V | 03:02:04 | 02:13:40 | 00:00:00 | |
| DK7TD | 2026-08-31 12:46:08 | 50.18557 | 8.69948 | 80° | 37km/h | 17378m | -21.7m/s | -51.9°C | 0.7% | 0hPa | 2.6V | 18:12:15 | 02:13:39 | 00:00:00 | |
| DO3DL | 2026-08-31 12:46:07 | 50.18555 | 8.69934 | 79° | 38km/h | 17400m | -23.2m/s | -51.9°C | 1.3% | 88.0hPa | 2.7V | 03:02:00 | 00:00:00 | 00:00:00 | |
| DO1YAY-16 | 2026-08-31 12:46:06 | 50.18553 | 8.69920 | 76° | 35km/h | 17423m | -22.9m/s | -51.9°C | 1.3% | 87.7hPa | 2.7V | 00:00:00 | 00:00:00 | 00:00:00 | |
| DO9LL-15 | 2026-08-31 12:46:05 | 50.18551 | 8.69907 | 74° | 29km/h | 17446m | -22.1m/s | -51.9°C | 3.9% | 87.3hPa | 2.7V | 00:00:00 | 02:13:36 | 00:00:00 | |
| DL1XH1-15 | 2026-08-31 12:46:04 | 50.18542 | 8.69869 | 67° | 20km/h | 17534m | -22.1m/s | -51.8°C | 3.8% | 86.2hPa | 2.7V | 03:01:59 | 02:13:32 | 00:00:00 | |
| BIOWL1-15 | 2026-08-31 12:46:03 | 50.18546 | 8.69886 | 68° | 24km/h | 17491m | -21.6m/s | -51.9°C | 0.7% | 86.8hPa | 2.6V | 03:02:04 | 02:13:34 | 00:00:00 | |
| DF3TZ-5 | 2026-08-31 12:46:01 | 50.18542 | 8.69869 | 67° | 20km/h | 17535m | -22.1m/s | -51.8°C | 1.3% | 86.2hPa | 2.6V | 00:00:00 | 00:00:00 | 00:00:00 | |
| SONDE2-11 | 2026-08-31 12:46:00 | 50.18517 | 8.69833 | 33° | 22km/h | 17667m | -22.7m/s | -52.0°C | 1.3% | 84.4hPa | 2.6V | 00:00:00 | 00:00:00 | 00:00:00 | |
| DL1NUX | 2026-08-31 12:45:59 | 50.18533 | 8.69849 | 42° | 22km/h | 17601m | -22.7m/s | -52°C | 3.9% | 85.3hPa | 2.6V | 03:02:02 | 02:13:29 | 00:00:00 | |
| DL1XH-west | 2026-08-31 12:45:59 | 50.18533 | 8.69849 | 42° | 22km/h | 17601m | -22.7m/s | -52°C | 0.7% | 85.3hPa | 2.6V | 03:02:04 | 02:13:29 | 00:00:00 | |
| DK7TD | 2026-08-31 12:45:58 | 50.18528 | 8.69843 | 34° | 24km/h | 17623m | -21.6m/s | -51.8°C | 0.7% | 0hPa | 2.6V | 18:12:15 | 02:13:28 | 00:00:00 | |
| DM0DOS-11 | 2026-08-31 12:45:58 | 50.18512 | 8.69828 | 37° | 26km/h | 17690m | -23.6m/s | -52.1°C | 3.9% | 84.1hPa | 2.7V | 03:02:06 | 02:13:25 | 00:00:00 | |
| HSKMA3-T | 2026-08-31 12:45:56 | 50.18523 | 8.69838 | 29° | 24km/h | 17645m | -22m/s | -51.9°C | 0.7% | 84.7hPa | 2.6V | 03:02:04 | 02:13:27 | 00:00:00 | |
| BIOWL1-15 | 2026-08-31 12:45:52 | 50.18488 | 8.69797 | 41° | 33km/h | 17788m | -24.4m/s | -52.6°C | 0.8% | 82.8hPa | 2.6V | 03:02:55 | 02:13:21 | 00:00:00 | |
| DL1XH-west | 2026-08-31 12:45:48 | 50.18475 | 8.69781 | 39° | 31km/h | 17836m | -24.2m/s | -52.9°C | 0.9% | 82.3hPa | 2.7V | 03:02:55 | 02:13:19 | 00:00:00 | |
| DL1NUX | 2026-08-31 12:45:48 | 50.18475 | 8.69781 | 39° | 31km/h | 17836m | -24.2m/s | -52.9°C | 4.2% | 82.3hPa | 2.7V | 03:02:12 | 02:13:19 | 00:00:00 | |
| DL1XH1-15 | 2026-08-31 12:45:46 | 50.18431 | 8.69720 | 41° | 37km/h | 18004m | -25.4m/s | -53°C | 4.3% | 80.1hPa | 2.7V | 03:02:19 | 02:13:12 | 00:00:00 | |
| HSKMA3-T | 2026-08-31 12:45:45 | 50.18457 | 8.69757 | 40° | 33km/h | 17908m | -23.1m/s | -53°C | 1% | 81.3hPa | 2.6V | 03:02:55 | 02:13:16 | 00:00:00 | |
| BIOWL1-15 | 2026-08-31 12:45:44 | 50.18438 | 8.69730 | 44° | 38km/h | 17980m | -24.2m/s | -53°C | 0.9% | 80.5hPa | 2.7V | 03:02:55 | 02:13:13 | 00:00:00 | |
| DL1NUX | 2026-08-31 12:45:43 | 50.18410 | 8.69690 | 41° | 35km/h | 18080m | -25.4m/s | -52.5°C | 4.1% | 79.2hPa | 2.6V | 03:02:22 | 02:13:09 | 00:00:00 | |
| DL1XH-west | 2026-08-31 12:45:37 | 50.18404 | 8.69682 | 38° | 35km/h | 18105m | -24.2m/s | -52.2°C | 0.8% | 78.9hPa | 2.7V | 03:02:55 | 02:13:08 | 00:00:00 | |
| DM0DOS-11 | 2026-08-31 12:45:37 | 50.18380 | 8.69661 | 22° | 37km/h | 18177m | -24.2m/s | -52.1°C | 4% | 78hPa | 2.6V | 03:02:26 | 02:13:05 | 00:00:00 | |
| DK7TD | 2026-08-31 12:45:36 | 50.18396 | 8.69674 | 32° | 35km/h | 18129m | -24m/s | -52.2°C | 0.8% | 0hPa | 2.7V | 18:12:15 | 02:13:07 | 00:00:00 | |
| DK5PH-5 | 2026-08-31 12:45:36 | 50.18396 | 8.69673 | 32° | 42km/h | 18130m | -24.0m/s | -52.2°C | 4.1% | 78.6hPa | 2.7V | 00:00:00 | 02:13:07 | 00:00:00 | |
| DL1XH1-15 | 2026-08-31 12:45:35 | 50.18353 | 8.69642 | 28° | 40km/h | 18249m | -24.3m/s | -52.5°C | 4.1% | 77.2hPa | 2.7V | 03:02:29 | 02:13:02 | 00:00:00 | |
| HSKMA3-T | 2026-08-31 12:45:34 | 50.18380 | 8.69661 | 23° | 38km/h | 18178m | -24.2m/s | -52.1°C | 0.8% | 78hPa | 2.6V | 03:02:55 | 02:13:05 | 00:00:00 | |
| BIOWL1-15 | 2026-08-31 12:45:31 | 50.18335 | 8.69625 | 34° | 42km/h | 18299m | -24.6m/s | -52.7°C | 1% | 76.6hPa | 2.7V | 03:02:55 | 02:13:00 | 00:00:00 | |
| DF3TZ-5 | 2026-08-31 12:45:30 | 50.18344 | 8.69634 | 30° | 40km/h | 18274m | -25.0m/s | -52.6°C | 1.4% | 76.9hPa | 2.6V | 00:00:00 | 00:00:00 | 00:00:00 | |
| DM0DOS-11 | 2026-08-31 12:45:29 | 50.18292 | 8.69563 | 48° | 37km/h | 18448m | -25.5m/s | -52.1°C | 4.2% | 74.8hPa | 2.6V | 03:02:37 | 02:12:54 | 00:00:00 | |
| DL1XH-west | 2026-08-31 12:45:27 | 50.18305 | 8.69585 | 48° | 37km/h | 18397m | -24.6m/s | -52.4°C | 1% | 75.4hPa | 2.7V | 03:02:55 | 02:12:56 | 00:00:00 | |
| HSKMA3-T | 2026-08-31 12:45:24 | 50.18298 | 8.69574 | 49° | 38km/h | 18422m | -25.5m/s | -52.3°C | 1% | 75.1hPa | 2.7V | 03:02:55 | 02:12:55 | 00:00:00 | |
| DK7TD | 2026-08-31 12:45:22 | 50.18285 | 8.69552 | 48° | 38km/h | 18474m | -26.3m/s | -51.7°C | 0.8% | 0hPa | 2.5V | 18:12:15 | 02:12:53 | 00:00:00 | |
| DL1XH1-15 | 2026-08-31 12:45:22 | 50.18279 | 8.69540 | 47° | 40km/h | 18500m | -26.1m/s | -51.6°C | 4% | 74.2hPa | 2.6V | 03:02:39 | 02:12:52 | 00:00:00 | |
| BIOWL1-15 | 2026-08-31 12:45:19 | 50.18231 | 8.69419 | 65° | 44km/h | 18715m | -25.7m/s | -51.4°C | 0.7% | 71.9hPa | 2.7V | 03:02:55 | 02:12:44 | 00:00:00 | |
| DO3DL | 2026-08-31 12:45:19 | 50.18259 | 8.69501 | 57° | 47km/h | 18579m | -26.7m/s | -51.9°C | 1.3% | 73.4hPa | 2.6V | 03:02:00 | 00:00:00 | 00:00:00 | |
| DM0DOS-11 | 2026-08-31 12:45:18 | 50.18236 | 8.69436 | 62° | 46km/h | 18688m | -26.2m/s | -51.7°C | 4% | 72.2hPa | 2.6V | 03:02:46 | 02:12:45 | 00:00:00 | |
| SONCRA | 2026-08-31 12:45:18 | 50.18252 | 8.69485 | 58° | 47km/h | 18606m | -27.3m/s | -51.8°C | 1.3% | 73.1hPa | 2.7V | 00:00:00 | 00:00:00 | 00:00:00 | |
| DL1XH1-15 | 2026-08-31 12:45:17 | 50.18223 | 8.69389 | 68° | 40km/h | 18767m | -26.2m/s | -50.9°C | 3.7% | 71.3hPa | 2.7V | 03:02:49 | 02:12:42 | 00:00:00 | |
| DL1XH-west | 2026-08-31 12:45:14 | 50.18236 | 8.69436 | 63° | 46km/h | 18688m | -26.2m/s | -51.8°C | 0.8% | 72.2hPa | 2.6V | 03:02:55 | 02:12:45 | 00:00:00 | |
| DK7TD | 2026-08-31 12:45:12 | 50.18223 | 8.69389 | 69° | 40km/h | 18767m | -26.2m/s | -50.9°C | 0.6% | 0hPa | 2.7V | 18:12:15 | 02:12:42 | 00:00:00 | |
| DL1NUX | 2026-08-31 12:45:11 | 50.18211 | 8.69343 | 63° | 44km/h | 18842m | -23.8m/s | -51°C | 3.7% | 70.4hPa | 2.6V | 03:02:52 | 02:12:39 | 00:00:00 | |
| BIOWL1-15 | 2026-08-31 12:45:06 | 50.18194 | 8.69279 | 72° | 46km/h | 18931m | -21.2m/s | -51.3°C | 0.7% | 69.4hPa | 2.6V | 03:03:46 | 02:12:35 | 00:00:00 | |
| DL1XH-west | 2026-08-31 12:45:04 | 50.18191 | 8.69262 | 78° | 46km/h | 18952m | -21m/s | -51.2°C | 0.7% | 69.2hPa | 2.6V | 03:03:46 | 02:12:34 | 00:00:00 | |
| HSKMA3-T | 2026-08-31 12:45:01 | 50.18189 | 8.69209 | 93° | 40km/h | 19020m | -25.1m/s | -51°C | 0.6% | 68.5hPa | 2.7V | 03:03:46 | 02:12:31 | 00:00:00 | |
| DL1NUX | 2026-08-31 12:45:00 | 50.18191 | 8.69180 | 100° | 37km/h | 19070m | -24.4m/s | -51.1°C | 3.7% | 68hPa | 2.6V | 03:03:02 | 02:12:29 | 00:00:00 | |
| AA1-15 | 2026-08-31 12:44:56 | 50.18199 | 8.69137 | 108° | 37km/h | 19140m | -22.3m/s | -51°C | 0.6% | 67.2hPa | 2.7V | 03:03:46 | 02:12:26 | 00:00:00 | |
| DM0DOS-11 | 2026-08-31 12:44:56 | 50.18201 | 8.69124 | 109° | 33km/h | 19162m | -22.1m/s | -51°C | 3.6% | 67hPa | 2.6V | 03:03:06 | 02:12:25 | 00:00:00 | |
| DL1XH1-15 | 2026-08-31 12:44:55 | 50.18213 | 8.69087 | 119° | 35km/h | 19227m | -21.6m/s | -51.2°C | 3.7% | 66.3hPa | 2.7V | 03:03:09 | 02:12:22 | 00:00:00 | |
| BIOWL1-15 | 2026-08-31 12:44:53 | 50.18213 | 8.69087 | 119° | 35km/h | 19227m | -21.6m/s | -51.2°C | 0.6% | 66.3hPa | 2.7V | 03:03:46 | 02:12:22 | 00:00:00 | |
| DL1XH-west | 2026-08-31 12:44:53 | 50.18209 | 8.69099 | 116° | 33km/h | 19205m | -21.7m/s | -51.1°C | 0.6% | 66.5hPa | 2.7V | 03:03:46 | 02:12:23 | 00:00:00 | |
| DL1NUX | 2026-08-31 12:44:52 | 50.18225 | 8.69056 | 131° | 29km/h | 19293m | -20.9m/s | -51.4°C | 3.7% | 65.7hPa | 2.7V | 03:03:12 | 02:12:19 | 00:00:00 | |
| HSKMA3-T | 2026-08-31 12:44:50 | 50.18217 | 8.69075 | 118° | 33km/h | 19249m | -21.6m/s | -51.3°C | 0.6% | 66.1hPa | 2.6V | 03:03:46 | 02:12:21 | 00:00:00 | |
| DK7TD | 2026-08-31 12:44:49 | 50.18221 | 8.69065 | 121° | 26km/h | 19270m | -21.7m/s | 0°C | 0% | 0hPa | 2.6V | 18:12:15 | 02:12:20 | 00:00:00 | |
| AA1-15 | 2026-08-31 12:44:46 | 50.18235 | 8.69040 | 135° | 27km/h | 19335m | -21.2m/s | -51.8°C | 0.7% | 65.2hPa | 2.6V | 03:03:46 | 02:12:17 | 00:00:00 | |
| DL1XH-west | 2026-08-31 12:44:42 | 50.18251 | 8.69014 | 124° | 18km/h | 19421m | -22.5m/s | -52.1°C | 0.8% | 64.4hPa | 2.7V | 03:03:46 | 02:12:13 | 00:00:00 | |
| DL1XH1-15 | 2026-08-31 12:44:41 | 50.18253 | 8.69007 | 117° | 16km/h | 19443m | -22.3m/s | -52.2°C | 3.9% | 64.2hPa | 2.6V | 03:03:19 | 02:12:12 | 00:00:00 | |
| BIOWL1-15 | 2026-08-31 12:44:41 | 50.18253 | 8.69007 | 117° | 16km/h | 19443m | -22.3m/s | -52.3°C | 0.8% | 64.2hPa | 2.6V | 03:03:46 | 02:12:12 | 00:00:00 | |
| DL1NUX | 2026-08-31 12:44:41 | 50.18256 | 8.68993 | 100° | 11km/h | 19508m | -21.2m/s | -52.6°C | 4% | 63.5hPa | 2.7V | 03:03:22 | 02:12:09 | 00:00:00 | |
| HSKMA3-T | 2026-08-31 12:44:40 | 50.18254 | 8.69002 | 109° | 13km/h | 19466m | -21.8m/s | -52.3°C | 0.8% | 64hPa | 2.6V | 03:03:46 | 02:12:11 | 00:00:00 | |
| DK7TD | 2026-08-31 12:44:38 | 50.18256 | 8.68993 | 100° | 11km/h | 19508m | -21.2m/s | 0°C | 0% | 0hPa | 2.7V | 18:12:15 | 02:12:09 | 00:00:00 | |
| AA1-15 | 2026-08-31 12:44:35 | 50.18258 | 8.68977 | 98° | 16km/h | 19571m | -20.9m/s | -52.8°C | 0.9% | 62.9hPa | 2.6V | 03:03:46 | 02:12:06 | 00:00:00 | |
| BIOWL1-15 | 2026-08-31 12:44:33 | 50.18263 | 8.68926 | 98° | 18km/h | 19723m | -23.7m/s | -53.1°C | 0.9% | 61.5hPa | 2.6V | 03:03:46 | 02:11:59 | 00:00:00 | |
| DL1XH-west | 2026-08-31 12:44:31 | 50.18262 | 8.68941 | 98° | 20km/h | 19677m | -22.8m/s | -52.9°C | 0.9% | 61.9hPa | 2.7V | 03:03:46 | 02:12:01 | 00:00:00 | |
| DL1NUX | 2026-08-31 12:44:29 | 50.18263 | 8.68926 | 98° | 18km/h | 19723m | -23.7m/s | -53.1°C | 4.2% | 61.5hPa | 2.6V | 03:03:32 | 02:11:59 | 00:00:00 | |
| HSKMA3-T | 2026-08-31 12:44:29 | 50.18262 | 8.68933 | 95° | 16km/h | 19700m | -22.6m/s | -53°C | 0.9% | 61.7hPa | 2.6V | 03:03:46 | 02:12:00 | 00:00:00 | |
| SO1NDE-10 | 2026-08-31 12:44:28 | 50.18263 | 8.68926 | 99° | 18km/h | 19724m | -23.6m/s | -53.0°C | 4.2% | 61.4hPa | 2.6V | 03:03:00 | 02:11:59 | 00:00:00 | |
| SONDE2-11 | 2026-08-31 12:44:27 | 50.18263 | 8.68919 | 85° | 18km/h | 19747m | -24.4m/s | -53.1°C | 1.3% | 61.2hPa | 2.6V | 00:00:00 | 00:00:00 | 00:00:00 | |
| DL3AQ-11 | 2026-08-31 12:44:25 | 50.18259 | 8.68903 | 62° | 11km/h | 19817m | -23.1m/s | -53.1°C | 1.3% | 60.5hPa | 2.6V | 00:00:00 | 00:00:00 | 00:00:00 | |
| DL4BBY-15 | 2026-08-31 12:44:24 | 50.18259 | 8.68903 | 63° | 16km/h | 19818m | -23.1m/s | -52.4°C | 0% | 0hPa | 2.6V | 00:00:00 | 00:00:00 | 00:00:00 | |
| BUE01 | 2026-08-31 12:44:23 | 50.18258 | 8.68899 | 56° | 11km/h | 19841m | -23.5m/s | -53.1°C | 1.3% | 60.4hPa | 2.6V | 00:00:00 | 00:00:00 | 00:00:00 | |
| DB0UT-7 | 2026-08-31 12:44:22 | 50.18255 | 8.68895 | 35° | 11km/h | 19864m | -24.4m/s | -53.0°C | 4.2% | 60.1hPa | 2.6V | 00:00:00 | 00:00:00 | 00:00:00 | |
| DL1NUX | 2026-08-31 12:44:21 | 50.18232 | 8.68880 | 24° | 18km/h | 20023m | -26.2m/s | -53.2°C | 4.3% | 58.7hPa | 2.6V | 03:03:44 | 02:11:47 | 00:00:00 | |
| DK7TD | 2026-08-31 12:44:21 | 50.18252 | 8.68892 | 25° | 13km/h | 19889m | -25.9m/s | 0°C | 0% | 0hPa | 2.6V | 18:12:15 | 02:11:52 | 00:00:00 | |
| DL1XH-west | 2026-08-31 12:44:20 | 50.18249 | 8.68890 | 21° | 18km/h | 19915m | -27.4m/s | -53.1°C | 1% | 59.8hPa | 2.7V | 03:03:46 | 02:11:51 | 00:00:00 | |
| HSKMA3-T | 2026-08-31 12:44:19 | 50.18245 | 8.68888 | 19° | 18km/h | 19943m | -27.7m/s | -53.3°C | 1% | 59.5hPa | 2.7V | 03:03:46 | 02:11:50 | 00:00:00 | |
| AA1-15 | 2026-08-31 12:44:16 | 50.18232 | 8.68880 | 25° | 18km/h | 20023m | -26.2m/s | -53.2°C | 1% | 58.7hPa | 2.6V | 03:03:46 | 02:11:47 | 00:00:00 | |
| DL1XH-west | 2026-08-31 12:44:10 | 50.18206 | 8.68863 | 23° | 20km/h | 20188m | -28.3m/s | -53.8°C | 1.1% | 57.3hPa | 2.6V | 03:04:37 | 02:11:41 | 00:00:00 | |
| DK7TD | 2026-08-31 12:44:09 | 50.18202 | 8.68860 | 27° | 20km/h | 20216m | -27.2m/s | 0°C | 0% | 0hPa | 2.7V | 18:12:15 | 02:11:40 | 00:00:00 | |
| HSKMA3-T | 2026-08-31 12:44:08 | 50.18197 | 8.68856 | 35° | 18km/h | 20244m | -27.7m/s | -53.4°C | 1% | 56.7hPa | 2.7V | 03:04:37 | 02:11:39 | 00:00:00 | |
| DM0DOS-11 | 2026-08-31 12:44:06 | 50.18188 | 8.68829 | 75° | 22km/h | 20361m | -30m/s | -53.2°C | 4.2% | 55.7hPa | 2.7V | 03:03:56 | 02:11:35 | 00:00:00 | |
| AA1-15 | 2026-08-31 12:44:06 | 50.18192 | 8.68844 | 63° | 20km/h | 20301m | -29.6m/s | -53.2°C | 1% | 56.3hPa | 2.6V | 03:04:37 | 02:11:37 | 00:00:00 | |
| DO3DL | 2026-08-31 12:44:05 | 50.18190 | 8.68836 | 67° | 20km/h | 20331m | -30.2m/s | -53.2°C | 1.3% | 56.1hPa | 2.7V | 03:04:00 | 00:00:00 | 00:00:00 | |
| DO9LL-15 | 2026-08-31 12:44:04 | 50.18188 | 8.68829 | 76° | 9km/h | 20361m | -29.9m/s | -53.2°C | 4.2% | 55.7hPa | 2.7V | 00:00:00 | 02:11:35 | 00:00:00 | |
| DK5PH-5 | 2026-08-31 12:44:03 | 50.18187 | 8.68820 | 84° | 9km/h | 20391m | -29.9m/s | -53.3°C | 4.3% | 55.4hPa | 2.7V | 00:00:00 | 02:11:34 | 00:00:00 | |
| DO1YAY-16 | 2026-08-31 12:44:02 | 50.18187 | 8.68812 | 85° | 22km/h | 20420m | -28.3m/s | -53.3°C | 1.3% | 55.2hPa | 2.7V | 00:00:00 | 00:00:00 | 00:00:00 | |
| HEMX73-11 | 2026-08-31 12:44:00 | 50.18186 | 8.68803 | 88° | 18km/h | 20448m | -28.2m/s | -53.3°C | 1.4% | 54.9hPa | 2.7V | 03:04:00 | 00:00:00 | 00:00:00 | |
| DM0DOS-11 | 2026-08-31 12:43:59 | 50.18185 | 8.68776 | 77° | 5km/h | 20675m | -30.4m/s | -52.8°C | 4.2% | 53.1hPa | 2.7V | 03:04:07 | 02:11:24 | 00:00:00 | |
| DL1XH-west | 2026-08-31 12:43:59 | 50.18186 | 8.68792 | 87° | 9km/h | 20505m | -28m/s | -53°C | 1% | 54.5hPa | 2.7V | 03:04:37 | 02:11:30 | 00:00:00 | |
| BIOWL1-15 | 2026-08-31 12:43:58 | 50.18185 | 8.68772 | 68° | 5km/h | 20736m | -28.5m/s | -52.8°C | 1% | 52.6hPa | 2.6V | 03:04:37 | 02:11:22 | 00:00:00 | |
| HSKMA3-T | 2026-08-31 12:43:57 | 50.18186 | 8.68786 | 84° | 5km/h | 20560m | -27.2m/s | -52.8°C | 1% | 54hPa | 2.6V | 03:04:37 | 02:11:28 | 00:00:00 | |
| DK7TD | 2026-08-31 12:43:56 | 50.18186 | 8.68783 | 102° | 7km/h | 20588m | -27.9m/s | 0°C | 0% | 0hPa | 2.6V | 18:12:15 | 02:11:27 | 00:00:00 | |
| AA1-15 | 2026-08-31 12:43:55 | 50.18185 | 8.68774 | 59° | 5km/h | 20706m | -29.2m/s | -52.7°C | 1% | 52.8hPa | 2.6V | 03:04:37 | 02:11:23 | 00:00:00 | |
| DJ2DS-15 | 2026-08-31 12:43:53 | 50.18185 | 8.68774 | 58° | 5km/h | 20706m | -29.2m/s | -52.7°C | 1.3% | 52.8hPa | 2.7V | 00:00:00 | 00:00:00 | 00:00:00 | |
| DO3DL | 2026-08-31 12:43:50 | 50.18184 | 8.68772 | 69° | 5km/h | 20736m | -28.5m/s | -52.8°C | 1.3% | 52.6hPa | 2.7V | 03:04:00 | 00:00:00 | 00:00:00 | |
| DM0DOS-11 | 2026-08-31 12:43:48 | 50.18176 | 8.68755 | 28° | 11km/h | 20969m | -28.8m/s | -53°C | 4.3% | 50.7hPa | 2.7V | 03:04:17 | 02:11:14 | 00:00:00 | |
| HSKMA3-T | 2026-08-31 12:43:47 | 50.18184 | 8.68763 | 61° | 9km/h | 20850m | -27.9m/s | -53.3°C | 1.1% | 51.6hPa | 2.7V | 03:04:37 | 02:11:18 | 00:00:00 | |
| DK7TD | 2026-08-31 12:43:46 | 50.18182 | 8.68760 | 43° | 11km/h | 20879m | -29.3m/s | 0°C | 0% | 0hPa | 2.6V | 18:12:15 | 02:11:17 | 00:00:00 | |
| AA1-15 | 2026-08-31 12:43:45 | 50.18180 | 8.68757 | 22° | 11km/h | 20910m | -30.3m/s | -53.4°C | 1.1% | 51.2hPa | 2.6V | 03:04:37 | 02:11:16 | 00:00:00 | |
| DL3AQ-11 | 2026-08-31 12:43:45 | 50.18178 | 8.68756 | 16° | 9km/h | 20940m | -30.5m/s | -53.2°C | 1.4% | 51.0hPa | 2.6V | 00:00:00 | 00:00:00 | 00:00:00 | |
| DD8BA-10 | 2026-08-31 12:43:44 | 50.18178 | 8.68756 | 17° | 7km/h | 20940m | -30.5m/s | -53.2°C | 4.4% | 50.9hPa | 2.6V | 03:04:00 | 00:00:00 | 00:00:00 | |
| DO3DL | 2026-08-31 12:43:43 | 50.18178 | 8.68756 | 18° | 9km/h | 20940m | -30.5m/s | -53.2°C | 1.4% | 51.0hPa | 2.6V | 03:04:00 | 00:00:00 | 00:00:00 | |
| DL1NUX | 2026-08-31 12:43:40 | 50.18171 | 8.68753 | 14° | 2km/h | 21055m | -28.8m/s | -52.6°C | 4.2% | 50hPa | 2.6V | 03:04:20 | 02:11:11 | 00:00:00 | |
| DL1XH-west | 2026-08-31 12:43:39 | 50.18169 | 8.68753 | 343° | 5km/h | 21114m | -30m/s | -52°C | 0.8% | 49.6hPa | 2.7V | 03:04:37 | 02:11:09 | 00:00:00 | |
| DM0DOS-11 | 2026-08-31 12:43:38 | 50.18156 | 8.68752 | 18° | 18km/h | 21256m | -25.9m/s | -52.2°C | 3.9% | 48.5hPa | 2.7V | 03:04:27 | 02:11:04 | 00:00:00 | |
| BIOWL1-15 | 2026-08-31 12:43:37 | 50.18168 | 8.68754 | 335° | 5km/h | 21144m | -30.1m/s | -51.8°C | 0.8% | 49.4hPa | 2.7V | 03:04:37 | 02:11:08 | 00:00:00 | |
| DK7TD | 2026-08-31 12:43:36 | 50.18166 | 8.68754 | 354° | 9km/h | 21174m | -29.1m/s | 0°C | 0% | 0hPa | 2.6V | 18:12:15 | 02:11:07 | 00:00:00 | |
| AA1-15 | 2026-08-31 12:43:34 | 50.18161 | 8.68754 | 9° | 15km/h | 21230m | -26.6m/s | -52.1°C | 0.8% | 48.7hPa | 2.7V | 03:04:37 | 02:11:05 | 00:00:00 | |
| DL1XH-west | 2026-08-31 12:43:28 | 50.18135 | 8.68726 | 57° | 13km/h | 21407m | -24.7m/s | -52.7°C | 0.9% | 47.3hPa | 2.7V | 03:04:37 | 02:10:58 | 00:00:00 | |
| DM0DOS-11 | 2026-08-31 12:43:27 | 50.18135 | 8.68713 | 85° | 5km/h | 21507m | -26.6m/s | -52.4°C | 4% | 46.6hPa | 2.6V | 03:04:37 | 02:10:54 | 00:00:00 | |
| HSKMA3-T | 2026-08-31 12:43:26 | 50.18134 | 8.68723 | 77° | 9km/h | 21431m | -24.5m/s | -52.5°C | 0.9% | 47.2hPa | 2.7V | 03:04:37 | 02:10:57 | 00:00:00 | |
| AA1-15 | 2026-08-31 12:43:24 | 50.18134 | 8.68716 | 102° | 7km/h | 21481m | -25.2m/s | -52.3°C | 0.8% | 46.8hPa | 2.6V | 03:04:37 | 02:10:55 | 00:00:00 | |
| DL4BBY-15 | 2026-08-31 12:43:24 | 50.18134 | 8.68716 | 103° | 9km/h | 21480m | -25.1m/s | -51.6°C | 0% | 0hPa | 2.7V | 00:00:00 | 00:00:00 | 00:00:00 | |
| BIOWL7-15 | 2026-08-31 12:43:22 | 50.18135 | 8.68713 | 87° | 5km/h | 21507m | -26.6m/s | -52.4°C | 1.2% | 46.6hPa | 2.7V | 03:04:00 | 00:00:00 | 00:00:00 | |
| BUE01 | 2026-08-31 12:43:21 | 50.18135 | 8.68712 | 163° | 2km/h | 21560m | -26.3m/s | -52.6°C | 1.2% | 46.2hPa | 2.7V | 00:00:00 | 00:00:00 | 00:00:00 | |
| DJ8HS-15 | 2026-08-31 12:43:19 | 50.18136 | 8.68710 | 80° | 7km/h | 21613m | -26.9m/s | -52.8°C | 4.1% | 45.8hPa | 2.7V | 00:00:00 | 02:10:50 | 00:00:00 | |
| DB0UT-7 | 2026-08-31 12:43:18 | 50.18136 | 8.68709 | 98° | 11km/h | 21640m | -26.8m/s | -52.9°C | 4.1% | 45.6hPa | 2.7V | 00:00:00 | 00:00:00 | 00:00:00 | |
| DL3AQ-11 | 2026-08-31 12:43:17 | 50.18136 | 8.68707 | 116° | 5km/h | 21667m | -27.4m/s | -52.9°C | 1.3% | 45.5hPa | 2.7V | 00:00:00 | 00:00:00 | 00:00:00 | |
| DL1XH-west | 2026-08-31 12:43:17 | 50.18137 | 8.68703 | 116° | 4km/h | 21723m | -27.9m/s | -52.9°C | 1% | 45.1hPa | 2.6V | 03:05:28 | 02:10:46 | 00:00:00 | |
| DM0DOS-11 | 2026-08-31 12:43:16 | 50.18139 | 8.68700 | 133° | 7km/h | 21779m | -28.4m/s | -52.7°C | 4.1% | 44.7hPa | 2.7V | 03:04:47 | 02:10:44 | 00:00:00 | |
| HSKMA3-T | 2026-08-31 12:43:16 | 50.18137 | 8.68705 | 107° | 7km/h | 21695m | -27.8m/s | -52.9°C | 1% | 45.3hPa | 2.7V | 03:05:28 | 02:10:47 | 00:00:00 | |
| DF8AY | 2026-08-31 12:43:15 | 50.18140 | 8.68699 | 245° | 4km/h | 21837m | -28.4m/s | -52.4°C | 0.9% | 44.3hPa | 2.7V | 03:05:28 | 02:10:42 | 00:00:00 | |
| DL1XH1-15 | 2026-08-31 12:43:14 | 50.18140 | 8.68699 | 244° | 4km/h | 21837m | -28.4m/s | -52.4°C | 4% | 44.3hPa | 2.7V | 03:04:49 | 02:10:42 | 00:00:00 | |
| AA1-15 | 2026-08-31 12:43:13 | 50.18139 | 8.68700 | 134° | 7km/h | 21779m | -28.4m/s | -52.7°C | 0.9% | 44.7hPa | 2.7V | 03:05:28 | 02:10:44 | 00:00:00 | |
| SONCRA | 2026-08-31 12:43:13 | 50.18139 | 8.68700 | 133° | 5km/h | 21779m | -28.4m/s | -52.7°C | 1.3% | 44.7hPa | 2.6V | 00:00:00 | 00:00:00 | 00:00:00 | |
| EDDB2-11 | 2026-08-31 12:43:11 | 50.18141 | 8.68700 | 252° | 4km/h | 21866m | -28.1m/s | -52.5°C | 1.2% | 44.1hPa | 2.6V | 00:00:00 | 00:00:00 | 00:00:00 | |
| DM0DOS-11 | 2026-08-31 12:43:06 | 50.18133 | 8.68714 | 333° | 13km/h | 22073m | -30m/s | -53.3°C | 4.3% | 42.7hPa | 2.6V | 03:04:57 | 02:10:34 | 00:00:00 | |
| DL1XH-west | 2026-08-31 12:43:06 | 50.18139 | 8.68708 | 304° | 7km/h | 21981m | -30.2m/s | -52.9°C | 1% | 43.4hPa | 2.7V | 03:05:28 | 02:10:37 | 00:00:00 | |
| BIOWL1-15 | 2026-08-31 12:43:05 | 50.18137 | 8.68710 | 335° | 9km/h | 22011m | -30.8m/s | -53°C | 0.9% | 43.2hPa | 2.7V | 03:05:28 | 02:10:36 | 00:00:00 | |
| DF8AY | 2026-08-31 12:43:04 | 50.18135 | 8.68712 | 333° | 11km/h | 22042m | -31m/s | -53.1°C | 1% | 43hPa | 2.6V | 03:05:28 | 02:10:35 | 00:00:00 | |
| AA1-15 | 2026-08-31 12:43:03 | 50.18133 | 8.68714 | 333° | 13km/h | 22073m | -30m/s | -53.3°C | 1% | 42.7hPa | 2.6V | 03:05:28 | 02:10:34 | 00:00:00 | |
| DL1XH1-15 | 2026-08-31 12:43:02 | 50.18126 | 8.68719 | 331° | 16km/h | 22131m | -27.7m/s | -53.6°C | 4.5% | 42.3hPa | 2.7V | 03:04:59 | 02:10:32 | 00:00:00 | |
| DK7TD | 2026-08-31 12:43:01 | 50.18126 | 8.68719 | 331° | 16km/h | 22131m | -27.7m/s | 0°C | 0% | 0hPa | 2.7V | 18:12:15 | 02:10:32 | 00:00:00 | |
| DO1YAY-16 | 2026-08-31 12:43:00 | 50.18122 | 8.68723 | 329° | 20km/h | 22158m | -27.3m/s | -53.5°C | 1.4% | 42.1hPa | 2.6V | 00:00:00 | 00:00:00 | 00:00:00 | |
| DJ8HS-15 | 2026-08-31 12:42:59 | 50.18118 | 8.68727 | 325° | 18km/h | 22186m | -27.1m/s | -53.2°C | 4.4% | 41.9hPa | 2.6V | 00:00:00 | 02:10:30 | 00:00:00 | |
| HEMX73-11 | 2026-08-31 12:42:58 | 50.18118 | 8.68727 | 326° | 22km/h | 22186m | -27.1m/s | -53.3°C | 1.3% | 42.0hPa | 2.6V | 03:05:00 | 00:00:00 | 00:00:00 | |
| DO3DL | 2026-08-31 12:42:57 | 50.18113 | 8.68731 | 334° | 20km/h | 22213m | -27.6m/s | -53.1°C | 1.3% | 41.8hPa | 2.6V | 03:05:00 | 00:00:00 | 00:00:00 | |
| DM0DOS-11 | 2026-08-31 12:42:56 | 50.18087 | 8.68737 | 16° | 20km/h | 22351m | -28.7m/s | -53°C | 4.3% | 40.9hPa | 2.6V | 03:05:07 | 02:10:24 | 00:00:00 | |
| DL1XH1-15 | 2026-08-31 12:42:54 | 50.18077 | 8.68732 | 24° | 18km/h | 22409m | -28.5m/s | -52.8°C | 4.2% | 40.6hPa | 2.6V | 03:05:09 | 02:10:22 | 00:00:00 | |
| DL1XH-15 | 2026-08-31 12:42:54 | 50.18069 | 8.68724 | 40° | 18km/h | 22466m | -28.5m/s | -52.8°C | 4.2% | 40.2hPa | 2.7V | 03:05:11 | 02:10:20 | 00:00:00 | |
| BIOWL1-15 | 2026-08-31 12:42:54 | 50.18091 | 8.68738 | 1° | 18km/h | 22324m | -27.4m/s | -53°C | 1% | 41.1hPa | 2.7V | 03:05:28 | 02:10:25 | 00:00:00 | |
| AA1-15 | 2026-08-31 12:42:53 | 50.18087 | 8.68737 | 16° | 20km/h | 22351m | -28.7m/s | -53°C | 1.1% | 40.9hPa | 2.6V | 03:05:28 | 02:10:24 | 00:00:00 | |
| DF8AY | 2026-08-31 12:42:51 | 50.18077 | 8.68732 | 25° | 18km/h | 22409m | -28.5m/s | -52.8°C | 1% | 40.6hPa | 2.6V | 03:05:28 | 02:10:22 | 00:00:00 | |
| BUE01 | 2026-08-31 12:42:50 | 50.18073 | 8.68729 | 35° | 16km/h | 22438m | -28.5m/s | -52.8°C | 1.3% | 40.4hPa | 2.7V | 00:00:00 | 00:00:00 | 00:00:00 | |
| DM0DOS-11 | 2026-08-31 12:42:49 | 50.18048 | 8.68692 | 45° | 15km/h | 22676m | -31.6m/s | -52.7°C | 4.3% | 39hPa | 2.7V | 03:05:18 | 02:10:13 | 00:00:00 | |
| DL1XH-west | 2026-08-31 12:42:45 | 50.18053 | 8.68701 | 44° | 15km/h | 22614m | -29.9m/s | -52.7°C | 1% | 39.3hPa | 2.7V | 03:05:28 | 02:10:15 | 00:00:00 | |
| DF2AP-13 | 2026-08-31 12:42:45 | 50.18056 | 8.68705 | 42° | 15km/h | 22584m | -30.0m/s | -52.7°C | 4.2% | 39.5hPa | 2.6V | 03:05:00 | 02:10:16 | 00:00:00 | |
| DL1XH1-15 | 2026-08-31 12:42:44 | 50.18046 | 8.68688 | 26° | 11km/h | 22707m | -30.7m/s | -52.8°C | 4.3% | 38.7hPa | 2.6V | 03:05:19 | 02:10:12 | 00:00:00 | |
| BIOWL1-15 | 2026-08-31 12:42:43 | 50.18051 | 8.68696 | 52° | 15km/h | 22645m | -30.8m/s | -52.7°C | 1% | 39.1hPa | 2.7V | 03:05:28 | 02:10:14 | 00:00:00 | |
| DD1CC8 | 2026-08-31 12:42:43 | 50.18048 | 8.68692 | 45° | 13km/h | 22676m | -31.6m/s | -52.7°C | 1.3% | 39.0hPa | 2.7V | 00:00:00 | 00:00:00 | 00:00:00 | |
| AA1-15 | 2026-08-31 12:42:43 | 50.18048 | 8.68692 | 45° | 15km/h | 22676m | -31.6m/s | -52.7°C | 1% | 39hPa | 2.7V | 03:05:28 | 02:10:13 | 00:00:00 | |
| DL9PN | 2026-08-31 12:42:42 | 50.18043 | 8.68687 | 16° | 9km/h | 22738m | -31.1m/s | -52.6°C | 1.3% | 38.6hPa | 2.7V | 00:00:00 | 00:00:00 | 00:00:00 | |
| DJ2DS-15 | 2026-08-31 12:42:40 | 50.18041 | 8.68686 | 0° | 9km/h | 22770m | -30.5m/s | -52.6°C | 1.3% | 38.4hPa | 2.7V | 00:00:00 | 00:00:00 | 00:00:00 | |
| DJ8HS-15 | 2026-08-31 12:42:39 | 50.18041 | 8.68686 | 1° | 15km/h | 22770m | -30.4m/s | -52.6°C | 4.3% | 38.4hPa | 2.7V | 00:00:00 | 02:10:10 | 00:00:00 | |
| DM0DOS-11 | 2026-08-31 12:42:37 | 50.18017 | 8.68703 | 332° | 20km/h | 22983m | -31.8m/s | -53°C | 4.5% | 37.1hPa | 2.6V | 03:05:28 | 02:10:03 | 00:00:00 | |
| DL1XH-west | 2026-08-31 12:42:34 | 50.18021 | 8.68699 | 326° | 18km/h | 22952m | -31.2m/s | -53°C | 1.1% | 37.3hPa | 2.7V | 03:05:28 | 02:10:04 | 00:00:00 | |
| HSKMA3-T | 2026-08-31 12:42:32 | 50.18017 | 8.68703 | 333° | 20km/h | 22983m | -31.8m/s | -53°C | 1.1% | 37.1hPa | 2.6V | 03:05:28 | 02:10:03 | 00:00:00 | |
| AA1-15 | 2026-08-31 12:42:31 | 50.18012 | 8.68706 | 333° | 18km/h | 23015m | -32.2m/s | -52.8°C | 1.1% | 37hPa | 2.6V | 03:06:19 | 02:10:02 | 00:00:00 | |
| DL8DAS-15 | 2026-08-31 12:42:30 | 50.18012 | 8.68706 | 334° | 18km/h | 23016m | -32.2m/s | -52.8°C | 1.4% | 37.0hPa | 2.6V | 00:00:00 | 00:00:00 | 00:00:00 | |
| DO1YAY-16 | 2026-08-31 12:42:29 | 50.18005 | 8.68712 | 343° | 11km/h | 23079m | -31.7m/s | -52.5°C | 1.3% | 36.6hPa | 2.6V | 00:00:00 | 00:00:00 | 00:00:00 | |
| DM0DOS-11 | 2026-08-31 12:42:27 | 50.17982 | 8.68720 | 350° | 16km/h | 23301m | -31.7m/s | -52°C | 4.3% | 35.3hPa | 2.6V | 03:05:38 | 02:09:53 | 00:00:00 | |
| DL1XH1-15 | 2026-08-31 12:42:27 | 50.17978 | 8.68721 | 346° | 16km/h | 23333m | -32.7m/s | -51.9°C | 4.3% | 35.2hPa | 2.6V | 03:05:39 | 02:09:52 | 00:00:00 | |
| DF8AY | 2026-08-31 12:42:24 | 50.17958 | 8.68727 | 340° | 18km/h | 23497m | -31.7m/s | -51.5°C | 0.9% | 34.2hPa | 2.6V | 03:06:19 | 02:09:47 | 00:00:00 | |
| HSKMA3-T | 2026-08-31 12:42:22 | 50.17983 | 8.68720 | 350° | 16km/h | 23301m | -31.7m/s | -52°C | 1% | 35.4hPa | 2.6V | 03:06:19 | 02:09:53 | 00:00:00 | |
| BIOWL1-15 | 2026-08-31 12:42:21 | 50.17974 | 8.68722 | 351° | 15km/h | 23366m | -32.8m/s | -51.9°C | 1% | 35hPa | 2.7V | 03:06:19 | 02:09:51 | 00:00:00 | |
| AA1-15 | 2026-08-31 12:42:21 | 50.17978 | 8.68721 | 346° | 16km/h | 23333m | -32.7m/s | -51.9°C | 1% | 35.2hPa | 2.6V | 03:06:19 | 02:09:52 | 00:00:00 | |
| DJ8HS-15 | 2026-08-31 12:42:19 | 50.17971 | 8.68723 | 358° | 11km/h | 23399m | -33.3m/s | -51.9°C | 4.3% | 34.8hPa | 2.7V | 03:05:00 | 02:09:50 | 00:00:00 | |
| DM0DOS-11 | 2026-08-31 12:42:17 | 50.17939 | 8.68734 | 347° | 18km/h | 23627m | -33.1m/s | -50.5°C | 3.7% | 33.6hPa | 2.7V | 03:05:48 | 02:09:43 | 00:00:00 | |
| DL1ZP-14 | 2026-08-31 12:42:16 | 50.17954 | 8.68729 | 343° | 16km/h | 23529m | -32.3m/s | -51.3°C | -1.0% | -1.0hPa | 2.6V | 00:00:00 | 00:00:00 | 00:00:00 | |
| DF2AP-13 | 2026-08-31 12:42:15 | 50.17954 | 8.68729 | 344° | 11km/h | 23530m | -32.3m/s | -51.2°C | 4.1% | 34.0hPa | 2.6V | 00:00:00 | 02:09:46 | 00:00:00 | |
| DD8BA-10 | 2026-08-31 12:42:14 | 50.17949 | 8.68731 | 351° | 13km/h | 23562m | -32.3m/s | -51.0°C | 3.9% | 33.9hPa | 2.6V | 00:00:00 | 00:00:00 | 00:00:00 | |
| DL1XH1-15 | 2026-08-31 12:42:13 | 50.17935 | 8.68735 | 355° | 18km/h | 23660m | -33.8m/s | -50.4°C | 3.7% | 33.4hPa | 2.6V | 03:05:49 | 02:09:42 | 00:00:00 | |
| BIOWL1-15 | 2026-08-31 12:42:11 | 50.17935 | 8.68735 | 356° | 18km/h | 23661m | -33.8m/s | -50.4°C | 0.7% | 33.5hPa | 2.6V | 03:06:19 | 02:09:42 | 00:00:00 | |
| DF8AY | 2026-08-31 12:42:11 | 50.17922 | 8.68733 | 90° | 4km/h | 23865m | -34.2m/s | -50.1°C | 0.6% | 32.4hPa | 2.7V | 03:06:19 | 02:09:36 | 00:00:00 | |
| AA1-15 | 2026-08-31 12:42:10 | 50.17931 | 8.68736 | 354° | 18km/h | 23695m | -34.4m/s | -50.3°C | 0.6% | 33.2hPa | 2.6V | 03:06:19 | 02:09:41 | 00:00:00 | |
| EDDB2-11 | 2026-08-31 12:42:08 | 50.17924 | 8.68736 | 6° | 7km/h | 23763m | -34.0m/s | -50.3°C | 1.1% | 32.9hPa | 2.6V | 00:00:00 | 00:00:00 | 00:00:00 | |
| DJTTGO | 2026-08-31 12:42:07 | 50.17923 | 8.68736 | 29° | 5km/h | 23797m | -34.0m/s | -50.2°C | 1.1% | 32.8hPa | 2.6V | 00:00:00 | 00:00:00 | 00:00:00 | |
| DM0DOS-11 | 2026-08-31 12:42:06 | 50.17923 | 8.68731 | 232° | 2km/h | 23966m | -33.8m/s | -50.1°C | 3.7% | 31.9hPa | 2.6V | 03:05:58 | 02:09:33 | 00:00:00 | |
| DF8AY | 2026-08-31 12:42:04 | 50.17922 | 8.68736 | 322° | 9km/h | 24067m | -33.8m/s | -50.5°C | 0.6% | 31.4hPa | 2.7V | 03:06:19 | 02:09:30 | 00:00:00 | |
| DL1XH1-15 | 2026-08-31 12:42:04 | 50.17923 | 8.68732 | 257° | 5km/h | 24000m | -33.6m/s | -50.2°C | 3.7% | 31.8hPa | 2.6V | 03:05:59 | 02:09:32 | 00:00:00 | |
| HSKMA3-T | 2026-08-31 12:42:01 | 50.17923 | 8.68732 | 258° | 5km/h | 24000m | -33.6m/s | -50.2°C | 0.6% | 31.8hPa | 2.6V | 03:06:19 | 02:09:32 | 00:00:00 | |
| BIOWL1-15 | 2026-08-31 12:42:00 | 50.17923 | 8.68734 | 291° | 5km/h | 24033m | -34.1m/s | -50.3°C | 0.7% | 31.6hPa | 2.6V | 03:06:19 | 02:09:31 | 00:00:00 | |
| DJ8HS-15 | 2026-08-31 12:41:59 | 50.17922 | 8.68736 | 323° | 13km/h | 24068m | -33.7m/s | -50.4°C | 3.7% | 31.3hPa | 2.6V | 00:00:00 | 02:09:30 | 00:00:00 | |
| SO1NDE-10 | 2026-08-31 12:41:57 | 50.17916 | 8.68740 | 341° | 15km/h | 24135m | -33.2m/s | -50.7°C | 3.9% | 31.0hPa | 2.6V | 00:00:00 | 02:09:28 | 00:00:00 | |
| DM0DOS-11 | 2026-08-31 12:41:56 | 50.17896 | 8.68745 | 359° | 15km/h | 24307m | -35.2m/s | -50.9°C | 3.9% | 30.3hPa | 2.6V | 03:06:08 | 02:09:23 | 00:00:00 | |
| DD8BA-10 | 2026-08-31 12:41:54 | 50.17904 | 8.68745 | 2° | 13km/h | 24237m | -35.4m/s | -50.7°C | 3.8% | 30.6hPa | 2.6V | 00:00:00 | 00:00:00 | 00:00:00 | |
| DL1XH1-15 | 2026-08-31 12:41:53 | 50.17893 | 8.68745 | 3° | 13km/h | 24341m | -34.3m/s | -51°C | 4% | 30.1hPa | 2.6V | 03:06:09 | 02:09:22 | 00:00:00 | |
| DL1XH-15 | 2026-08-31 12:41:53 | 50.17883 | 8.68744 | 346° | 15km/h | 24447m | -34.8m/s | -50.6°C | 3.9% | 29.6hPa | 2.7V | 03:06:12 | 02:09:19 | 00:00:00 | |
| DL1XH-west | 2026-08-31 12:41:51 | 50.17893 | 8.68745 | 3° | 13km/h | 24342m | -34.3m/s | -51°C | 0.8% | 30.1hPa | 2.6V | 03:06:19 | 02:09:22 | 00:00:00 | |
| HSKMA3-T | 2026-08-31 12:41:50 | 50.17890 | 8.68744 | 14° | 13km/h | 24376m | -35.4m/s | -50.9°C | 0.8% | 29.9hPa | 2.7V | 03:06:19 | 02:09:21 | 00:00:00 | |
| BIOWL1-15 | 2026-08-31 12:41:50 | 50.17871 | 8.68753 | 311° | 13km/h | 24588m | -35.1m/s | -50.7°C | 0.9% | 28.9hPa | 2.7V | 03:06:19 | 02:09:15 | 00:00:00 | |
| AA1-15 | 2026-08-31 12:41:49 | 50.17887 | 8.68743 | 1° | 13km/h | 24412m | -35.2m/s | -50.8°C | 0.9% | 29.8hPa | 2.7V | 03:06:19 | 02:09:20 | 00:00:00 | |
| DF8AY | 2026-08-31 12:41:48 | 50.17883 | 8.68744 | 346° | 15km/h | 24447m | -34.8m/s | -50.6°C | 0.8% | 29.6hPa | 2.7V | 03:06:19 | 02:09:19 | 00:00:00 | |
| BUE01 | 2026-08-31 12:41:48 | 50.17883 | 8.68744 | 346° | 13km/h | 24447m | -34.8m/s | -50.6°C | 1.1% | 29.6hPa | 2.6V | 00:00:00 | 00:00:00 | 00:00:00 | |
| DL1XH-west | 2026-08-31 12:41:41 | 50.17868 | 8.68764 | 296° | 11km/h | 24692m | -35.3m/s | -50.8°C | 0.9% | 28.5hPa | 2.6V | 03:06:19 | 02:09:12 | 00:00:00 | |
| HSKMA3-T | 2026-08-31 12:41:40 | 50.17866 | 8.68769 | 293° | 13km/h | 24727m | -36m/s | -50.8°C | 0.9% | 28.4hPa | 2.6V | 03:07:10 | 02:09:11 | 00:00:00 | |
| AA1-15 | 2026-08-31 12:41:39 | 50.17865 | 8.68774 | 282° | 15km/h | 24762m | -35.4m/s | -50.6°C | 0.9% | 28.2hPa | 2.7V | 03:07:10 | 02:09:10 | 00:00:00 | |
| DL1XH-15 | 2026-08-31 12:41:38 | 50.17862 | 8.68784 | 310° | 16km/h | 24834m | -36.1m/s | -50.4°C | 3.9% | 27.9hPa | 2.7V | 03:06:23 | 02:09:08 | 00:00:00 | |
| DF8AY | 2026-08-31 12:41:38 | 50.17864 | 8.68779 | 292° | 13km/h | 24798m | -36.6m/s | -50.5°C | 0.8% | 28.1hPa | 2.7V | 03:07:10 | 02:09:09 | 00:00:00 | |
| BIOWL1-15 | 2026-08-31 12:41:37 | 50.17855 | 8.68794 | 316° | 18km/h | 24906m | -36.7m/s | -50.2°C | 0.8% | 27.6hPa | 2.6V | 03:07:10 | 02:09:06 | 00:00:00 | |
| DL1XH1-15 | 2026-08-31 12:41:37 | 50.17836 | 8.68811 | 334° | 22km/h | 25053m | -37m/s | -49.3°C | 3.6% | 27hPa | 2.7V | 03:06:29 | 02:09:02 | 00:00:00 | |
| DL1XH-west | 2026-08-31 12:41:31 | 50.17832 | 8.68815 | 330° | 15km/h | 25090m | -36.9m/s | -49.3°C | 0.6% | 26.9hPa | 2.6V | 03:08:01 | 02:09:01 | 00:00:00 | |
| DL1XH-15 | 2026-08-31 12:41:30 | 50.17825 | 8.68817 | 28° | 9km/h | 25199m | -36.6m/s | -49.5°C | 3.7% | 26.3hPa | 2.7V | 03:06:33 | 02:08:58 | 00:00:00 | |
| DL1NUX | 2026-08-31 12:41:29 | 50.17821 | 8.68809 | 66° | 13km/h | 25310m | -37.7m/s | -49.5°C | 3.7% | 25.9hPa | 2.7V | 03:06:36 | 02:08:55 | 00:00:00 | |
| HSKMA3-T | 2026-08-31 12:41:29 | 50.17829 | 8.68817 | 337° | 13km/h | 25126m | -36.7m/s | -49.5°C | 0.6% | 26.7hPa | 2.6V | 03:07:10 | 02:09:00 | 00:00:00 | |
| AA1-15 | 2026-08-31 12:41:28 | 50.17826 | 8.68818 | 3° | 7km/h | 25162m | -36.1m/s | -49.5°C | 0.6% | 26.5hPa | 2.7V | 03:07:10 | 02:08:59 | 00:00:00 | |
| DF8AY | 2026-08-31 12:41:27 | 50.17824 | 8.68817 | 29° | 9km/h | 25199m | -36.6m/s | -49.5°C | 0.6% | 26.3hPa | 2.7V | 03:07:10 | 02:08:58 | 00:00:00 | |
| SO1NDE-10 | 2026-08-31 12:41:27 | 50.17824 | 8.68817 | 29° | 7km/h | 25199m | -36.6m/s | -49.5°C | 3.7% | 26.3hPa | 2.7V | 00:00:00 | 02:08:58 | 00:00:00 | |
| DM0DOS-11 | 2026-08-31 12:41:26 | 50.17818 | 8.68801 | 58° | 11km/h | 25385m | -37m/s | -49.5°C | 3.7% | 25.6hPa | 2.7V | 03:06:38 | 02:08:53 | 00:00:00 | |
| BIOWL1-15 | 2026-08-31 12:41:26 | 50.17823 | 8.68816 | 39° | 7km/h | 25235m | -37m/s | -49.5°C | 0.6% | 26.2hPa | 2.6V | 03:07:10 | 02:08:57 | 00:00:00 | |
| HSKMA3-T | 2026-08-31 12:41:19 | 50.17814 | 8.68794 | 65° | 5km/h | 25492m | -35.4m/s | -49°C | 0.5% | 25.2hPa | 2.6V | 03:07:10 | 02:08:50 | 00:00:00 | |
| DL1XH-15 | 2026-08-31 12:41:18 | 50.17812 | 8.68791 | 48° | 5km/h | 25564m | -36.3m/s | -49°C | 3.5% | 24.9hPa | 2.7V | 03:06:43 | 02:08:48 | 00:00:00 | |
| BIOWL1-15 | 2026-08-31 12:41:18 | 50.17810 | 8.68788 | 62° | 5km/h | 25636m | -35.2m/s | -49.1°C | 0.6% | 24.6hPa | 2.6V | 03:07:10 | 02:08:46 | 00:00:00 | |
| DF8AY | 2026-08-31 12:41:17 | 50.17812 | 8.68775 | 112° | 11km/h | 25776m | -37.3m/s | -48.9°C | 0.5% | 24.1hPa | 2.7V | 03:07:10 | 02:08:42 | 00:00:00 | |
| AA1-15 | 2026-08-31 12:41:17 | 50.17812 | 8.68791 | 49° | 5km/h | 25564m | -36.3m/s | -49°C | 0.5% | 24.9hPa | 2.7V | 03:07:10 | 02:08:48 | 00:00:00 | |
| GOEST3-10 | 2026-08-31 12:41:17 | 50.17812 | 8.68791 | 49° | 5km/h | 25564m | -36.2m/s | -49.0°C | 3.5% | 24.9hPa | 2.7V | 00:00:00 | 02:08:48 | 00:00:00 | |
| DM0DOS-11 | 2026-08-31 12:41:16 | 50.17811 | 8.68779 | 114° | 9km/h | 25741m | -35.5m/s | -49°C | 3.5% | 24.2hPa | 2.7V | 03:06:48 | 02:08:43 | 00:00:00 | |
| DL1NUX | 2026-08-31 12:41:16 | 50.17810 | 8.68785 | 104° | 7km/h | 25670m | -34.8m/s | -49.1°C | 3.5% | 24.5hPa | 2.6V | 03:06:46 | 02:08:45 | 00:00:00 | |
| HSKMA3-T | 2026-08-31 12:41:08 | 50.17814 | 8.68772 | 200° | 5km/h | 25885m | -35.5m/s | -48.6°C | 0.5% | 23.8hPa | 2.6V | 03:07:10 | 02:08:39 | 00:00:00 | |
| AA1-15 | 2026-08-31 12:41:06 | 50.17817 | 8.68773 | 203° | 7km/h | 25956m | -35.5m/s | -48.5°C | 0.5% | 23.5hPa | 2.7V | 03:07:10 | 02:08:37 | 00:00:00 | |
| BIOWL1-15 | 2026-08-31 12:41:06 | 50.17819 | 8.68775 | 208° | 5km/h | 26027m | -35.4m/s | -48.4°C | 0.5% | 23.2hPa | 2.6V | 03:07:10 | 02:08:35 | 00:00:00 | |
| DL1NUX | 2026-08-31 12:41:05 | 50.17819 | 8.68775 | 208° | 5km/h | 26027m | -35.4m/s | -48.4°C | 3.3% | 23.2hPa | 2.6V | 03:06:56 | 02:08:35 | 00:00:00 | |
| DL3AQ-11 | 2026-08-31 12:41:05 | 50.17819 | 8.68775 | 208° | 5km/h | 26028m | -35.4m/s | -48.4°C | 1.0% | 23.2hPa | 2.7V | 00:00:00 | 00:00:00 | 00:00:00 | |
| DL1XH1-15 | 2026-08-31 12:41:04 | 50.17823 | 8.68777 | 200° | 4km/h | 26135m | -36.9m/s | -48.6°C | 3.4% | 22.8hPa | 2.7V | 03:06:59 | 02:08:32 | 00:00:00 | |
| DF8AY | 2026-08-31 12:41:01 | 50.17824 | 8.68779 | 227° | 7km/h | 26172m | -36.2m/s | -48.8°C | 0.5% | 22.7hPa | 2.7V | 03:07:10 | 02:08:31 | 00:00:00 | |
| HSKMA3-T | 2026-08-31 12:40:58 | 50.17826 | 8.68783 | 252° | 5km/h | 26245m | -37.6m/s | -49.1°C | 0.5% | 22.5hPa | 2.6V | 03:07:10 | 02:08:29 | 00:00:00 | |
| DL1XH-west | 2026-08-31 12:40:57 | 50.17826 | 8.68789 | 267° | 9km/h | 26319m | -36.9m/s | -49.1°C | 0.5% | 22.2hPa | 2.7V | 03:08:01 | 02:08:27 | 00:00:00 | |
| DM0DOS-11 | 2026-08-31 12:40:57 | 50.17822 | 8.68799 | 340° | 5km/h | 26467m | -37.6m/s | -49.1°C | 3.5% | 21.7hPa | 2.6V | 03:07:08 | 02:08:23 | 00:00:00 | |
| DO1YAY-16 | 2026-08-31 12:40:56 | 50.17826 | 8.68789 | 266° | 9km/h | 26319m | -36.9m/s | -49.1°C | 1.0% | 22.2hPa | 2.7V | 00:00:00 | 00:00:00 | 00:00:00 | |
| DL1NUX | 2026-08-31 12:40:55 | 50.17825 | 8.68796 | 307° | 7km/h | 26392m | -36.7m/s | -49°C | 3.5% | 22hPa | 2.7V | 03:07:06 | 02:08:25 | 00:00:00 | |
| AA1-15 | 2026-08-31 12:40:55 | 50.17826 | 8.68793 | 277° | 9km/h | 26356m | -36.4m/s | -49°C | 0.5% | 22.1hPa | 2.7V | 03:07:10 | 02:08:26 | 00:00:00 | |
| DL3AQ-11 | 2026-08-31 12:40:54 | 50.17823 | 8.68798 | 330° | 7km/h | 26430m | -37.5m/s | -49.0°C | 1.0% | 21.8hPa | 2.6V | 00:00:00 | 00:00:00 | 00:00:00 | |
| DL1XH-15 | 2026-08-31 12:40:51 | 50.17830 | 8.68789 | 169° | 15km/h | 26700m | -39.3m/s | -49.6°C | 3.7% | 20.9hPa | 2.6V | 03:07:14 | 02:08:17 | 00:00:00 | |
| DF8AY | 2026-08-31 12:40:50 | 50.17837 | 8.68791 | 210° | 15km/h | 26777m | -38.7m/s | -49.8°C | 0.7% | 20.7hPa | 2.7V | 03:08:01 | 02:08:15 | 00:00:00 | |
| HSKMA3-T | 2026-08-31 12:40:47 | 50.17826 | 8.68791 | 154° | 15km/h | 26661m | -39.3m/s | -49.5°C | 0.6% | 21.1hPa | 2.6V | 03:08:01 | 02:08:18 | 00:00:00 | |
| AA1-15 | 2026-08-31 12:40:45 | 50.17833 | 8.68789 | 197° | 15km/h | 26739m | -38.5m/s | -49.7°C | 0.7% | 20.9hPa | 2.7V | 03:08:01 | 02:08:16 | 00:00:00 | |
| DL1NUX | 2026-08-31 12:40:45 | 50.17837 | 8.68791 | 210° | 15km/h | 26777m | -38.7m/s | -49.8°C | 3.7% | 20.7hPa | 2.7V | 03:07:16 | 02:08:15 | 00:00:00 | |
| BIOWL1-15 | 2026-08-31 12:40:45 | 50.17839 | 8.68794 | 219° | 11km/h | 26816m | -39.6m/s | -49.8°C | 0.8% | 20.6hPa | 2.7V | 03:08:01 | 02:08:14 | 00:00:00 | |
| DM0DOS-11 | 2026-08-31 12:40:44 | 50.17841 | 8.68797 | 245° | 7km/h | 26855m | -39.2m/s | -49.7°C | 3.8% | 20.5hPa | 2.6V | 03:07:18 | 02:08:13 | 00:00:00 | |
| DF8AY | 2026-08-31 12:40:40 | 50.17841 | 8.68802 | 280° | 7km/h | 26935m | -39.7m/s | -49.5°C | 0.7% | 20.2hPa | 2.7V | 03:08:01 | 02:08:11 | 00:00:00 | |
| HSKMA3-T | 2026-08-31 12:40:36 | 50.17836 | 8.68806 | 322° | 7km/h | 27095m | -39.7m/s | -49.6°C | 0.7% | 19.8hPa | 2.6V | 03:08:01 | 02:08:07 | 00:00:00 | |
| DL1NUX | 2026-08-31 12:40:35 | 50.17833 | 8.68810 | 307° | 9km/h | 27173m | -38.7m/s | -49.6°C | 3.8% | 19.5hPa | 2.7V | 03:07:26 | 02:08:05 | 00:00:00 | |
| AA1-15 | 2026-08-31 12:40:35 | 50.17832 | 8.68812 | 317° | 7km/h | 27211m | -39m/s | -49.5°C | 0.7% | 19.4hPa | 2.7V | 03:08:01 | 02:08:04 | 00:00:00 | |
| BIOWL1-15 | 2026-08-31 12:40:34 | 50.17833 | 8.68810 | 308° | 9km/h | 27173m | -38.7m/s | -49.6°C | 0.7% | 19.5hPa | 2.7V | 03:08:01 | 02:08:05 | 00:00:00 | |
| HEMX73-11 | 2026-08-31 12:40:34 | 50.17833 | 8.68810 | 309° | 9km/h | 27173m | -38.7m/s | -49.6°C | 1.1% | 19.5hPa | 2.6V | 03:08:00 | 00:00:00 | 00:00:00 | |
| DL1XH1-15 | 2026-08-31 12:40:33 | 50.17823 | 8.68820 | 341° | 16km/h | 27330m | -39.5m/s | -49.4°C | 3.8% | 19hPa | 2.6V | 03:07:30 | 02:08:01 | 00:00:00 | |
| DF8AY | 2026-08-31 12:40:27 | 50.17801 | 8.68818 | 23° | 24km/h | 27490m | -40.1m/s | -49.1°C | 0.7% | 18.6hPa | 2.6V | 03:08:01 | 02:07:57 | 00:00:00 | |
| DM0DOS-11 | 2026-08-31 12:40:27 | 50.17782 | 8.68801 | 47° | 18km/h | 27650m | -40.6m/s | -48.8°C | 3.7% | 18.1hPa | 2.7V | 03:07:38 | 02:07:53 | 00:00:00 | |
| DL1NUX | 2026-08-31 12:40:25 | 50.17790 | 8.68810 | 28° | 20km/h | 27570m | -40.5m/s | -48.9°C | 3.7% | 18.4hPa | 2.6V | 03:07:36 | 02:07:55 | 00:00:00 | |
| HSKMA3-T | 2026-08-31 12:40:25 | 50.17795 | 8.68814 | 28° | 24km/h | 27530m | -40m/s | -49°C | 0.7% | 18.5hPa | 2.6V | 03:08:01 | 02:07:56 | 00:00:00 | |
| DO1YAY-16 | 2026-08-31 12:40:25 | 50.17795 | 8.68814 | 27° | 24km/h | 27530m | -40.0m/s | -49.0°C | 1.1% | 18.5hPa | 2.7V | 00:00:00 | 00:00:00 | 00:00:00 | |
| DL1XH-15 | 2026-08-31 12:40:24 | 50.17779 | 8.68797 | 34° | 15km/h | 27692m | -41.5m/s | -48.7°C | 3.7% | 18hPa | 2.7V | 03:07:39 | 02:07:52 | 00:00:00 | |
| DL1XH-west | 2026-08-31 12:40:24 | 50.17790 | 8.68810 | 28° | 20km/h | 27570m | -40.5m/s | -48.9°C | 0.7% | 18.4hPa | 2.6V | 03:08:01 | 02:07:55 | 00:00:00 | |
| BIOWL1-15 | 2026-08-31 12:40:24 | 50.17768 | 8.68783 | 35° | 13km/h | 27860m | -41.9m/s | -48.6°C | 0.6% | 17.6hPa | 2.7V | 03:08:01 | 02:07:48 | 00:00:00 | |
| AA1-15 | 2026-08-31 12:40:23 | 50.17786 | 8.68806 | 32° | 18km/h | 27611m | -40.3m/s | -48.8°C | 0.6% | 18.2hPa | 2.7V | 03:08:01 | 02:07:54 | 00:00:00 | |
| DO3DL | 2026-08-31 12:40:22 | 50.17786 | 8.68806 | 33° | 18km/h | 27611m | -40.3m/s | -48.8°C | 1.0% | 18.2hPa | 2.7V | 03:08:00 | 00:00:00 | 00:00:00 | |
| DB0UT-7 | 2026-08-31 12:40:20 | 50.17776 | 8.68793 | 36° | 13km/h | 27734m | -41.4m/s | -48.5°C | 3.6% | 17.8hPa | 2.7V | 00:00:00 | 02:07:51 | 00:00:00 | |
| SONDE2-11 | 2026-08-31 12:40:19 | 50.17770 | 8.68786 | 26° | 15km/h | 27818m | -42.4m/s | -48.5°C | 1.1% | 17.7hPa | 2.7V | 00:00:00 | 00:00:00 | 00:00:00 | |
| GOEST3-10 | 2026-08-31 12:40:18 | 50.17770 | 8.68786 | 27° | 13km/h | 27818m | -42.3m/s | -48.5°C | 3.7% | 17.6hPa | 2.7V | 00:00:00 | 02:07:49 | 00:00:00 | |
| DM0DOS-11 | 2026-08-31 12:40:16 | 50.17756 | 8.68774 | 16° | 5km/h | 28071m | -42.2m/s | -48.1°C | 3.6% | 17hPa | 2.7V | 03:07:48 | 02:07:43 | 00:00:00 | |
| DF8AY | 2026-08-31 12:40:16 | 50.17765 | 8.68780 | 45° | 15km/h | 27902m | -42.7m/s | -48.5°C | 0.7% | 17.5hPa | 2.7V | 03:08:01 | 02:07:47 | 00:00:00 | |
| DL1NUX | 2026-08-31 12:40:15 | 50.17760 | 8.68776 | 16° | 9km/h | 27987m | -42.4m/s | -48.4°C | 3.7% | 17.2hPa | 2.6V | 03:07:46 | 02:07:45 | 00:00:00 | |
| HSKMA3-T | 2026-08-31 12:40:14 | 50.17760 | 8.68776 | 17° | 9km/h | 27987m | -42.4m/s | -48.4°C | 0.7% | 17.2hPa | 2.6V | 03:08:01 | 02:07:45 | 00:00:00 | |
| DL1XH-west | 2026-08-31 12:40:13 | 50.17758 | 8.68775 | 22° | 7km/h | 28029m | -41.6m/s | -48.3°C | 0.6% | 17.1hPa | 2.6V | 03:08:01 | 02:07:44 | 00:00:00 | |
| AA1-15 | 2026-08-31 12:40:12 | 50.17756 | 8.68774 | 17° | 7km/h | 28071m | -42.2m/s | -48.1°C | 0.6% | 17hPa | 2.7V | 03:08:01 | 02:07:43 | 00:00:00 | |
| DL1XH-15 | 2026-08-31 12:40:12 | 50.17754 | 8.68774 | 340° | 9km/h | 28113m | -42.4m/s | -48.1°C | 3.6% | 16.9hPa | 2.7V | 03:07:49 | 02:07:42 | 00:00:00 | |
| DL1XH1-15 | 2026-08-31 12:40:12 | 50.17752 | 8.68775 | 333° | 7km/h | 28155m | -42m/s | -48°C | 3.6% | 16.8hPa | 2.7V | 03:07:50 | 02:07:41 | 00:00:00 | |
| BIOWL1-15 | 2026-08-31 12:40:08 | 50.17746 | 8.68776 | 3° | 13km/h | 28241m | -44.5m/s | -48°C | 0.6% | 16.6hPa | 2.6V | 03:08:01 | 02:07:39 | 00:00:00 | |
| DF8AY | 2026-08-31 12:40:06 | 50.17735 | 8.68768 | 34° | 18km/h | 28374m | -44.7m/s | -47.7°C | 0.5% | 16.2hPa | 2.7V | 03:08:01 | 02:07:36 | 00:00:00 | |
| DM0DOS-11 | 2026-08-31 12:40:05 | 50.17727 | 8.68751 | 66° | 18km/h | 28507m | -45.1m/s | -47.2°C | 3.4% | 15.9hPa | 2.6V | 03:07:58 | 02:07:33 | 00:00:00 | |
| HSKMA3-T | 2026-08-31 12:40:04 | 50.17731 | 8.68764 | 52° | 18km/h | 28419m | -44.3m/s | -47.4°C | 0.5% | 16.2hPa | 2.6V | 03:08:01 | 02:07:35 | 00:00:00 | |
| DL1XH-west | 2026-08-31 12:40:03 | 50.17729 | 8.68758 | 63° | 20km/h | 28463m | -44.8m/s | -47.1°C | 0.4% | 16hPa | 2.6V | 03:08:01 | 02:07:34 | 00:00:00 | |
| DL1XH-15 | 2026-08-31 12:40:01 | 50.17725 | 8.68745 | 70° | 16km/h | 28552m | -44.9m/s | -47.2°C | 3.4% | 15.8hPa | 2.7V | 03:07:59 | 02:07:32 | 00:00:00 | |
| AA1-15 | 2026-08-31 12:40:01 | 50.17725 | 8.68745 | 70° | 16km/h | 28552m | -44.9m/s | -47.2°C | 0.5% | 15.8hPa | 2.7V | 03:08:01 | 02:07:32 | 00:00:00 | |
| DL1XH1-15 | 2026-08-31 12:40:01 | 50.17724 | 8.68739 | 68° | 11km/h | 28597m | -44.4m/s | -47.1°C | 3.4% | 15.7hPa | 2.7V | 03:08:00 | 02:07:31 | 00:00:00 | |
| BIOWL1-15 | 2026-08-31 12:40:00 | 50.17721 | 8.68732 | 20° | 11km/h | 28687m | -45.1m/s | -47.3°C | 0.6% | 15.5hPa | 2.6V | 03:08:52 | 02:07:29 | 00:00:00 | |
| DL8DAS-14 | 2026-08-31 12:39:58 | 50.17721 | 8.68732 | 19° | 9km/h | 28687m | -45.1m/s | -47.3°C | 1.0% | 15.5hPa | 2.6V | 00:00:00 | 00:00:00 | 00:00:00 | |
| DL3AQ-11 | 2026-08-31 12:39:57 | 50.17718 | 8.68731 | 5° | 9km/h | 28732m | -45.3m/s | -47.5°C | 1.0% | 15.4hPa | 2.6V | 00:00:00 | 00:00:00 | 00:00:00 | |
| BIOWL9-15 | 2026-08-31 12:39:56 | 50.17716 | 8.68731 | 9° | 13km/h | 28777m | -46.3m/s | -47.4°C | 1.0% | 15.3hPa | 2.6V | 00:00:00 | 00:00:00 | 00:00:00 | |
| DM0DOS-11 | 2026-08-31 12:39:55 | 50.17702 | 8.68732 | 9° | 13km/h | 28963m | -47.5m/s | -47.2°C | 3.6% | 14.8hPa | 2.6V | 03:08:08 | 02:07:23 | 00:00:00 | |
| DL1NUX | 2026-08-31 12:39:55 | 50.17709 | 8.68732 | 351° | 11km/h | 28870m | -46.5m/s | -47.1°C | 3.5% | 15.1hPa | 2.7V | 03:08:06 | 02:07:25 | 00:00:00 | |
| DF8AY-15 | 2026-08-31 12:39:55 | 50.17712 | 8.68731 | 351° | 16km/h | 28824m | -46.6m/s | -47.1°C | 3.5% | 15.1hPa | 2.7V | 00:00:00 | 02:07:26 | 00:00:00 | |
| DL1XH-15 | 2026-08-31 12:39:54 | 50.17700 | 8.68731 | 8° | 9km/h | 29010m | -47.2m/s | -47.1°C | 3.6% | 14.8hPa | 2.6V | 03:08:09 | 02:07:22 | 00:00:00 | |
| HSKMA3-T | 2026-08-31 12:39:53 | 50.17706 | 8.68732 | 1° | 11km/h | 28916m | -46.9m/s | -47.1°C | 0.6% | 14.9hPa | 2.6V | 03:08:52 | 02:07:24 | 00:00:00 | |
| AA1-15 | 2026-08-31 12:39:51 | 50.17694 | 8.68726 | 28° | 15km/h | 29107m | -48.6m/s | -46.9°C | 0.5% | 14.6hPa | 2.7V | 03:08:52 | 02:07:20 | 00:00:00 | |
| SONDE2-11 | 2026-08-31 12:39:48 | 50.17688 | 8.68721 | 28° | 13km/h | 29203m | -48.4m/s | -46.6°C | 1.0% | 14.3hPa | 2.7V | 00:00:00 | 00:00:00 | 00:00:00 | |
| BIOWL1-15 | 2026-08-31 12:39:47 | 50.17678 | 8.68712 | 24° | 20km/h | 29345m | -45.3m/s | -46.4°C | 0.5% | 14hPa | 2.7V | 03:08:52 | 02:07:15 | 00:00:00 | |
| DL1XH1-15 | 2026-08-31 12:39:45 | 50.17657 | 8.68697 | 28° | 24km/h | 29520m | -41.7m/s | -45.7°C | 3.4% | 13.6hPa | 2.6V | 03:08:20 | 02:07:11 | 00:00:00 | |
| DL1NUX | 2026-08-31 12:39:45 | 50.17678 | 8.68712 | 23° | 20km/h | 29345m | -45.2m/s | -46.4°C | 3.5% | 14hPa | 2.7V | 03:08:16 | 02:07:15 | 00:00:00 | |
| DM0DOS-11 | 2026-08-31 12:39:44 | 50.17668 | 8.68704 | 24° | 22km/h | 29435m | -44.3m/s | -46.2°C | 3.5% | 13.8hPa | 2.6V | 03:08:18 | 02:07:13 | 00:00:00 | |
| DL1XH-west | 2026-08-31 12:39:42 | 50.17668 | 8.68704 | 24° | 22km/h | 29435m | -44.3m/s | -46.2°C | 0.5% | 13.8hPa | 2.6V | 03:08:52 | 02:07:13 | 00:00:00 | |
| DF8AY | 2026-08-31 12:39:40 | 50.17657 | 8.68697 | 28° | 24km/h | 29520m | -41.7m/s | -45.7°C | 0.5% | 13.6hPa | 2.6V | 03:08:52 | 02:07:11 | 00:00:00 | |
| AA1-15 | 2026-08-31 12:39:39 | 50.17647 | 8.68686 | 44° | 27km/h | 29601m | -40.9m/s | -45.3°C | 0.4% | 13.4hPa | 2.7V | 03:08:52 | 02:07:09 | 00:00:00 | |
| BIOWL1-15 | 2026-08-31 12:39:36 | 50.17635 | 8.68666 | 47° | 24km/h | 29728m | -43.9m/s | -44.8°C | 0.3% | 13.2hPa | 2.6V | 03:08:52 | 02:07:06 | 00:00:00 | |
| DO3DL | 2026-08-31 12:39:36 | 50.17642 | 8.68680 | 45° | 26km/h | 29643m | -42.3m/s | -45.1°C | 0.9% | 13.3hPa | 2.7V | 03:08:00 | 00:00:00 | 00:00:00 | |
| DL1NUX | 2026-08-31 12:39:35 | 50.17631 | 8.68659 | 49° | 22km/h | 29771m | -43.6m/s | -44.6°C | 3.2% | 13.1hPa | 2.7V | 03:08:26 | 02:07:05 | 00:00:00 | |
| DL1XH-15 | 2026-08-31 12:39:35 | 50.17611 | 8.68620 | 54° | 33km/h | 29990m | -43.5m/s | -44.2°C | 3.2% | 12.6hPa | 2.6V | 03:08:31 | 02:07:00 | 00:00:00 | |
| DL1XH1-15 | 2026-08-31 12:39:35 | 50.17616 | 8.68629 | 53° | 29km/h | 29947m | -44.4m/s | -44.3°C | 3.2% | 12.7hPa | 2.6V | 03:08:30 | 02:07:01 | 00:00:00 | |
| DM0DOS-11 | 2026-08-31 12:39:34 | 50.17623 | 8.68645 | 46° | 24km/h | 29858m | -43.9m/s | -44.3°C | 3.2% | 12.9hPa | 2.7V | 03:08:28 | 02:07:03 | 00:00:00 | |
| DL1XH-west | 2026-08-31 12:39:32 | 50.17623 | 8.68645 | 47° | 24km/h | 29859m | -43.9m/s | -44.3°C | 0.3% | 12.9hPa | 2.7V | 03:08:52 | 02:07:03 | 00:00:00 | |
| HSKMA3-T | 2026-08-31 12:39:31 | 50.17619 | 8.68638 | 57° | 24km/h | 29902m | -44.7m/s | -44.3°C | 0.3% | 12.8hPa | 2.6V | 03:08:52 | 02:07:02 | 00:00:00 | |
| DF8AY | 2026-08-31 12:39:30 | 50.17615 | 8.68629 | 53° | 29km/h | 29947m | -44.4m/s | -44.3°C | 0.3% | 12.7hPa | 2.6V | 03:08:52 | 02:07:01 | 00:00:00 | |
| AA1-15 | 2026-08-31 12:39:28 | 50.17606 | 8.68610 | 57° | 31km/h | 30034m | -43.7m/s | -44°C | 0.2% | 12.6hPa | 2.7V | 03:08:52 | 02:06:59 | 00:00:00 | |
| BIOWL1-15 | 2026-08-31 12:39:26 | 50.17598 | 8.68586 | 67° | 37km/h | 30122m | -45.7m/s | -43.2°C | 0.1% | 12.4hPa | 2.7V | 03:08:52 | 02:06:57 | 00:00:00 | |
| DL1NUX | 2026-08-31 12:39:25 | 50.17595 | 8.68560 | 87° | 31km/h | 30214m | -45.1m/s | -42.9°C | 2.9% | 12.2hPa | 2.6V | 03:08:36 | 02:06:55 | 00:00:00 | |
| DD8BA-10 | 2026-08-31 12:39:25 | 50.17595 | 8.68573 | 77° | 20km/h | 30168m | -45.8m/s | -42.9°C | 2.9% | 12.3hPa | 2.6V | 00:00:00 | 00:00:00 | 00:00:00 | |
| DL1XH1-15 | 2026-08-31 12:39:24 | 50.17599 | 8.68526 | 122° | 16km/h | 30398m | -46.7m/s | -42.4°C | 2.8% | 11.9hPa | 2.6V | 03:08:40 | 02:06:51 | 00:00:00 | |
| DL1XH-15 | 2026-08-31 12:39:23 | 50.17601 | 8.68521 | 107° | 15km/h | 30445m | -48.9m/s | -42.3°C | 2.8% | 11.8hPa | 2.6V | 03:08:41 | 02:06:50 | 00:00:00 | |
| HSKMA3-T | 2026-08-31 12:39:21 | 50.17597 | 8.68533 | 112° | 18km/h | 30351m | -46.7m/s | -42.4°C | 0% | 12hPa | 2.7V | 03:08:52 | 02:06:52 | 00:00:00 | |
| AA1-15 | 2026-08-31 12:39:18 | 50.17602 | 8.68515 | 100° | 15km/h | 30495m | -48.4m/s | -42.3°C | 0% | 11.8hPa | 2.6V | 03:08:52 | 02:06:49 | 00:00:00 | |
| BIOWL1-15 | 2026-08-31 12:39:16 | 50.17603 | 8.68504 | 114° | 18km/h | 30591m | -47.6m/s | -42.1°C | 0% | 11.6hPa | 2.7V | 03:08:52 | 02:06:47 | 00:00:00 | |
| DL1NUX | 2026-08-31 12:39:15 | 50.17607 | 8.68492 | 129° | 18km/h | 30685m | -47.4m/s | -42.1°C | 2.8% | 11.4hPa | 2.6V | 03:08:46 | 02:06:45 | 00:00:00 | |
| DF8AY-15 | 2026-08-31 12:39:15 | 50.17605 | 8.68497 | 117° | 13km/h | 30638m | -48.0m/s | -42.0°C | 2.7% | 11.4hPa | 2.6V | 00:00:00 | 02:06:46 | 00:00:00 | |
| DL1XH-15 | 2026-08-31 12:39:14 | 50.17623 | 8.68474 | 88° | 4km/h | 30965m | -42.2m/s | -41°C | 2.6% | 10.9hPa | 2.6V | 03:08:52 | 02:06:39 | 00:00:00 | |
| HSKMA3-T | 2026-08-31 12:39:11 | 50.17618 | 8.68479 | 155° | 15km/h | 30830m | -47.2m/s | -41.5°C | 0% | 11.2hPa | 2.7V | 03:08:52 | 02:06:42 | 00:00:00 | |
| DL1XH-west | 2026-08-31 12:39:11 | 50.17621 | 8.68477 | 163° | 11km/h | 30876m | -45.7m/s | -41.2°C | 0% | 11.1hPa | 2.7V | 03:08:52 | 02:06:41 | 00:00:00 | |
| DF8AY | 2026-08-31 12:39:09 | 50.17623 | 8.68474 | 89° | 4km/h | 30965m | -42.2m/s | -41°C | 0% | 10.9hPa | 2.6V | 03:08:52 | 02:06:39 | 00:00:00 | |
| AA1-15 | 2026-08-31 12:39:08 | 50.17623 | 8.68472 | 50° | 7km/h | 31006m | -40.3m/s | -40.9°C | 0% | 10.8hPa | 2.6V | 03:09:43 | 02:06:38 | 00:00:00 | |
| BIOWL1-15 | 2026-08-31 12:39:08 | 50.17608 | 8.68456 | 48° | 13km/h | 31197m | -39.2m/s | -41.3°C | 0% | 10.5hPa | 2.6V | 03:09:43 | 02:06:33 | 00:00:00 | |
| GOEST3-10 | 2026-08-31 12:39:08 | 50.17623 | 8.68474 | 89° | 13km/h | 30965m | -42.1m/s | -40.9°C | 2.6% | 10.8hPa | 2.6V | 00:00:00 | 02:06:39 | 00:00:00 | |
| DL9SK-14 | 2026-08-31 12:39:06 | 50.17618 | 8.68466 | 31° | 15km/h | 31083m | -37.2m/s | -41.0°C | 0.7% | 10.7hPa | 2.7V | 00:00:00 | 00:00:00 | 00:00:00 | |
| DD8BA-10 | 2026-08-31 12:39:05 | 50.17618 | 8.68466 | 32° | 9km/h | 31083m | -37.2m/s | -40.9°C | 2.5% | 10.7hPa | 2.7V | 00:00:00 | 00:00:00 | 00:00:00 | |
| DO3DL | 2026-08-31 12:39:04 | 50.17614 | 8.68463 | 33° | 18km/h | 31120m | -37.4m/s | -41.0°C | 0.7% | 10.6hPa | 2.7V | 03:09:00 | 00:00:00 | 00:00:00 | |
| GOEST3-10 | 2026-08-31 12:39:03 | 50.17611 | 8.68459 | 47° | 7km/h | 31158m | -38.9m/s | -41.1°C | 2.5% | 10.5hPa | 2.7V | 00:00:00 | 00:00:00 | 00:00:00 | |
| DL1XH1-15 | 2026-08-31 12:39:02 | 50.17607 | 8.68450 | 105° | 4km/h | 31280m | -44.5m/s | -41.3°C | 2.6% | 10.4hPa | 2.7V | 03:09:00 | 02:06:31 | 00:00:00 | |
| DL1XH-west | 2026-08-31 12:39:01 | 50.17607 | 8.68450 | 105° | 4km/h | 31280m | -44.6m/s | -41.3°C | 0% | 10.4hPa | 2.7V | 03:10:34 | 02:06:31 | 00:00:00 | |
| DF8AY | 2026-08-31 12:38:58 | 50.17606 | 8.68451 | 352° | 4km/h | 31370m | -45.2m/s | -41.3°C | 0% | 10.3hPa | 2.6V | 03:12:16 | 02:06:29 | 00:00:00 | |
| DL1XH-15 | 2026-08-31 12:38:58 | 50.17605 | 8.68451 | 331° | 7km/h | 31414m | -43.7m/s | -41.4°C | 2.7% | 10.2hPa | 2.6V | 03:09:03 | 02:06:28 | 00:00:00 | |
| AA1-15 | 2026-08-31 12:38:57 | 50.17605 | 8.68452 | 331° | 7km/h | 31414m | -43.7m/s | -41.4°C | 0% | 10.2hPa | 2.6V | 03:09:43 | 02:06:28 | 00:00:00 | |
| DO3DL | 2026-08-31 12:38:57 | 50.17605 | 8.68451 | 332° | 7km/h | 31415m | -43.7m/s | -41.4°C | 0.8% | 10.2hPa | 2.6V | 03:09:00 | 00:00:00 | 00:00:00 | |
| DM0DOS-11 | 2026-08-31 12:38:56 | 50.17587 | 8.68451 | 15° | 18km/h | 31600m | -36.6m/s | -41.2°C | 2.7% | 9.9hPa | 2.6V | 03:09:08 | 02:06:23 | 00:00:00 | |
| BIOWL1-15 | 2026-08-31 12:38:55 | 50.17600 | 8.68453 | 2° | 15km/h | 31496m | -37.9m/s | -41.4°C | 0% | 10.1hPa | 2.7V | 03:09:43 | 02:06:26 | 00:00:00 | |
| DD8BA-10 | 2026-08-31 12:38:55 | 50.17600 | 8.68453 | 2° | 11km/h | 31497m | -37.9m/s | -41.4°C | 2.7% | 10.0hPa | 2.6V | 03:09:00 | 00:00:00 | 00:00:00 | |
| DL4BBY-15 | 2026-08-31 12:38:54 | 50.17595 | 8.68453 | 4° | 20km/h | 31532m | -34.2m/s | -40.6°C | 0% | 0hPa | 2.6V | 00:00:00 | 00:00:00 | 00:00:00 | |
| DL1XH-15 | 2026-08-31 12:38:53 | 50.17579 | 8.68450 | 295° | 7km/h | 31787m | -39.3m/s | -40.4°C | 2.5% | 9.6hPa | 2.6V | 03:09:13 | 02:06:18 | 00:00:00 | |
| DL1XH1-15 | 2026-08-31 12:38:52 | 50.17581 | 8.68447 | 43° | 5km/h | 31672m | -37.7m/s | -40.7°C | 2.6% | 9.8hPa | 2.7V | 03:09:10 | 02:06:21 | 00:00:00 | |
| DL1XH-west | 2026-08-31 12:38:49 | 50.17580 | 8.68447 | 330° | 2km/h | 31710m | -38.4m/s | -40.6°C | 0% | 9.7hPa | 2.7V | 03:10:34 | 02:06:20 | 00:00:00 | |
| DF8AY | 2026-08-31 12:38:47 | 50.17578 | 8.68453 | 329° | 9km/h | 31827m | -40.6m/s | -40.4°C | 0% | 9.6hPa | 2.6V | 03:12:16 | 02:06:17 | 00:00:00 | |
| AA1-15 | 2026-08-31 12:38:47 | 50.17579 | 8.68450 | 296° | 7km/h | 31787m | -39.3m/s | -40.4°C | 0% | 9.6hPa | 2.6V | 03:09:43 | 02:06:18 | 00:00:00 | |
| SONDE2-11 | 2026-08-31 12:38:46 | 50.17575 | 8.68453 | 13° | 13km/h | 31868m | -42.2m/s | -40.3°C | 0.7% | 9.5hPa | 2.7V | 00:00:00 | 00:00:00 | 00:00:00 | |
| DM0DOS-11 | 2026-08-31 12:38:45 | 50.17562 | 8.68434 | 56° | 33km/h | 31998m | -43.4m/s | -40.2°C | 2.3% | 9.3hPa | 2.7V | 03:09:18 | 02:06:13 | 00:00:00 | |
| BIOWL1-15 | 2026-08-31 12:38:44 | 50.17571 | 8.68450 | 35° | 22km/h | 31912m | -44.6m/s | -40.2°C | 0% | 9.5hPa | 2.7V | 03:09:43 | 02:06:15 | 00:00:00 | |
| GOEST3-10 | 2026-08-31 12:38:43 | 50.17566 | 8.68444 | 48° | 29km/h | 31956m | -42.6m/s | -40.1°C | 2.3% | 9.3hPa | 2.6V | 00:00:00 | 00:00:00 | 00:00:00 | |
| DO3DL | 2026-08-31 12:38:42 | 50.17566 | 8.68444 | 48° | 27km/h | 31956m | -42.7m/s | -40.2°C | 0.6% | 9.4hPa | 2.6V | 03:09:00 | 00:00:00 | 00:00:00 | |
| DL1XH1-15 | 2026-08-31 12:38:41 | 50.17553 | 8.68413 | 65° | 29km/h | 32083m | -41.4m/s | -39.9°C | 2.3% | 9.2hPa | 2.6V | 03:09:20 | 02:06:11 | 00:00:00 | |
| HSKMA3-T | 2026-08-31 12:38:39 | 50.17551 | 8.68403 | 67° | 26km/h | 32125m | -41.7m/s | -40°C | 0% | 9.2hPa | 2.7V | 03:09:43 | 02:06:10 | 00:00:00 | |
| AA1-15 | 2026-08-31 12:38:37 | 50.17545 | 8.68381 | 71° | 16km/h | 32240m | -35.9m/s | -40.2°C | 0% | 9hPa | 2.6V | 03:09:43 | 02:06:07 | 00:00:00 | |
| DL1NUX | 2026-08-31 12:38:35 | 50.17541 | 8.68368 | 67° | 20km/h | 32321m | -40.5m/s | -40°C | 2.5% | 8.9hPa | 2.7V | 03:09:26 | 02:06:05 | 00:00:00 | |
| DD8BA-10 | 2026-08-31 12:38:35 | 50.17543 | 8.68375 | 64° | 22km/h | 32280m | -42.6m/s | -40.0°C | 2.4% | 8.9hPa | 2.7V | 00:00:00 | 00:00:00 | 00:00:00 | |
| DM0DOS-11 | 2026-08-31 12:38:34 | 50.17537 | 8.68354 | 69° | 20km/h | 32385m | -22.7m/s | -39.9°C | 2.5% | 8.7hPa | 2.6V | 03:09:28 | 02:06:03 | 00:00:00 | |
| BIOWL1-15 | 2026-08-31 12:38:34 | 50.17541 | 8.68368 | 67° | 20km/h | 32321m | -40.5m/s | -40°C | 0% | 8.9hPa | 2.7V | 03:09:43 | 02:06:05 | 00:00:00 | |
| DL1XH-west | 2026-08-31 12:38:29 | 50.17531 | 8.68333 | 68° | 18km/h | 32411m | 5.8m/s | -39.8°C | 0% | 8.7hPa | 2.7V | 03:10:34 | 02:06:00 | 00:00:00 | |
| HSKMA3-T | 2026-08-31 12:38:29 | 50.17530 | 8.68324 | 85° | 27km/h | 32401m | 16m/s | -39.8°C | 0% | 8.7hPa | 2.7V | 03:09:43 | 02:05:59 | 00:00:00 | |
| DF8AY | 2026-08-31 12:38:27 | 50.17517 | 8.68256 | 76° | 24km/h | 32357m | 5.1m/s | -40°C | 0% | 8.7hPa | 2.7V | 03:12:16 | 02:05:52 | 00:00:00 | |
| AA1-15 | 2026-08-31 12:38:26 | 50.17526 | 8.68303 | 71° | 29km/h | 32384m | 5.4m/s | -39.9°C | 0% | 8.7hPa | 2.7V | 03:09:43 | 02:05:57 | 00:00:00 | |
| DL1NUX | 2026-08-31 12:38:25 | 50.17522 | 8.68283 | 72° | 26km/h | 32373m | 6.2m/s | -39.9°C | 2.5% | 8.7hPa | 2.6V | 03:09:36 | 02:05:55 | 00:00:00 | |
| BIOWL1-15 | 2026-08-31 12:38:23 | 50.17515 | 8.68247 | 75° | 26km/h | 32351m | 6m/s | -40°C | 0% | 8.7hPa | 2.7V | 03:09:43 | 02:05:51 | 00:00:00 | |
| GOEST3-10 | 2026-08-31 12:38:23 | 50.17520 | 8.68273 | 75° | 26km/h | 32367m | 5.5m/s | -39.8°C | 2.5% | 8.7hPa | 2.6V | 00:00:00 | 00:00:00 | 00:00:00 | |
| DL1XH-15 | 2026-08-31 12:38:22 | 50.17509 | 8.68214 | 68° | 29km/h | 32333m | 5.2m/s | -40.1°C | 2.5% | 8.8hPa | 2.6V | 03:09:43 | 02:05:48 | 00:00:00 | |
| HEMX73-6 | 2026-08-31 12:38:22 | 50.17518 | 8.68265 | 76° | 20km/h | 32362m | 4.9m/s | -39.9°C | 2.5% | 8.7hPa | 2.7V | 00:00:00 | 02:05:53 | 00:00:00 | |
| DO1YAY-16 | 2026-08-31 12:38:21 | 50.17515 | 8.68247 | 74° | 26km/h | 32351m | 6.0m/s | -40.0°C | 0.7% | 8.7hPa | 2.7V | 00:00:00 | 00:00:00 | 00:00:00 | |
| DL1NUX | 2026-08-31 12:38:19 | 50.17500 | 8.68189 | 51° | 18km/h | 32316m | 6.1m/s | -40.1°C | 2.6% | 8.8hPa | 2.7V | 03:09:46 | 02:05:45 | 00:00:00 | |
| DL1XH-west | 2026-08-31 12:38:18 | 50.17511 | 8.68225 | 71° | 31km/h | 32339m | 5.8m/s | -40°C | 0% | 8.8hPa | 2.6V | 03:10:34 | 02:05:49 | 00:00:00 | |
| AA1-15 | 2026-08-31 12:38:15 | 50.17503 | 8.68196 | 58° | 22km/h | 32322m | 6.3m/s | -40°C | 0% | 8.8hPa | 2.7V | 03:10:34 | 02:05:46 | 00:00:00 | |
| BIOWL1-15 | 2026-08-31 12:38:14 | 50.17493 | 8.68178 | 46° | 20km/h | 32305m | 4.9m/s | -40.2°C | 0% | 8.8hPa | 2.6V | 03:10:34 | 02:05:43 | 00:00:00 | |
| GOEST3-10 | 2026-08-31 12:38:13 | 50.17497 | 8.68184 | 47° | 26km/h | 32311m | 5.3m/s | -40.1°C | 2.6% | 8.8hPa | 2.6V | 03:09:00 | 00:00:00 | 00:00:00 | |
| DL1XH1-15 | 2026-08-31 12:38:12 | 50.17486 | 8.68163 | 54° | 29km/h | 32294m | 6.5m/s | -40.3°C | 2.6% | 8.8hPa | 2.6V | 03:09:50 | 02:05:41 | 00:00:00 | |
| DF8AY | 2026-08-31 12:38:10 | 50.17467 | 8.68109 | 69° | 24km/h | 32266m | 6.3m/s | -40.3°C | 0% | 8.9hPa | 2.6V | 03:12:16 | 02:05:36 | 00:00:00 | |
| HSKMA3-T | 2026-08-31 12:38:08 | 50.17477 | 8.68141 | 62° | 35km/h | 32282m | 4.9m/s | -40.3°C | 0% | 8.9hPa | 2.7V | 03:10:34 | 02:05:39 | 00:00:00 | |
| DL1XH-15 | 2026-08-31 12:38:07 | 50.17467 | 8.68109 | 68° | 24km/h | 32266m | 6.3m/s | -40.3°C | 2.6% | 8.8hPa | 2.6V | 03:09:55 | 02:05:36 | 00:00:00 | |
| DL1XH-west | 2026-08-31 12:38:07 | 50.17473 | 8.68129 | 65° | 33km/h | 32277m | 4.9m/s | -40.4°C | 0% | 8.8hPa | 2.7V | 03:10:34 | 02:05:38 | 00:00:00 | |
| DB0UT-7 | 2026-08-31 12:38:07 | 50.17473 | 8.68129 | 65° | 15km/h | 32277m | 4.8m/s | -40.3°C | 2.6% | 8.8hPa | 2.6V | 00:00:00 | 00:00:00 | 00:00:00 | |
| DL1NUX | 2026-08-31 12:38:05 | 50.17466 | 8.68101 | 69° | 18km/h | 32259m | 5.5m/s | -40.3°C | 2.6% | 8.8hPa | 2.6V | 03:09:56 | 02:05:35 | 00:00:00 | |
| AA1-15 | 2026-08-31 12:38:04 | 50.17466 | 8.68101 | 69° | 18km/h | 32260m | 5.5m/s | -40.3°C | 0% | 8.9hPa | 2.6V | 03:10:34 | 02:05:35 | 00:00:00 | |
| BIOWL1-15 | 2026-08-31 12:38:01 | 50.17456 | 8.68078 | 48° | 24km/h | 32238m | 6.5m/s | -40.3°C | 0% | 8.9hPa | 2.7V | 03:10:34 | 02:05:31 | 00:00:00 | |
| EDDB2-11 | 2026-08-31 12:38:00 | 50.17456 | 8.68078 | 48° | 22km/h | 32238m | 6.5m/s | -40.3°C | 0.7% | 8.9hPa | 2.7V | 00:00:00 | 00:00:00 | 00:00:00 | |
| DJ8HS-15 | 2026-08-31 12:37:59 | 50.17451 | 8.68070 | 46° | 18km/h | 32232m | 6.1m/s | -40.3°C | 2.6% | 8.9hPa | 2.7V | 00:00:00 | 02:05:30 | 00:00:00 | |
| GOEST3-10 | 2026-08-31 12:37:58 | 50.17446 | 8.68062 | 45° | 27km/h | 32226m | 5.3m/s | -40.2°C | 2.6% | 8.9hPa | 2.7V | 00:00:00 | 02:05:29 | 00:00:00 | |
| DL1XH-15 | 2026-08-31 12:37:57 | 50.17429 | 8.68040 | 33° | 24km/h | 32210m | 6.2m/s | -40.1°C | 2.6% | 8.9hPa | 2.7V | 03:10:05 | 02:05:26 | 00:00:00 | |
| DM0DOS-11 | 2026-08-31 12:37:57 | 50.17419 | 8.68032 | 27° | 7km/h | 32192m | 5.3m/s | -40.1°C | 2.6% | 9hPa | 2.6V | 03:10:08 | 02:05:23 | 00:00:00 | |
| DL1XH-west | 2026-08-31 12:37:57 | 50.17440 | 8.68053 | 42° | 31km/h | 32221m | 4.8m/s | -40.2°C | 0% | 8.9hPa | 2.6V | 03:10:34 | 02:05:28 | 00:00:00 | |
| AA1-15 | 2026-08-31 12:37:53 | 50.17422 | 8.68033 | 22° | 11km/h | 32198m | 5.7m/s | -40.1°C | 0% | 8.9hPa | 2.6V | 03:10:34 | 02:05:24 | 00:00:00 | |
| DF8AY | 2026-08-31 12:37:50 | 50.17405 | 8.67990 | 54° | 20km/h | 32154m | 6.1m/s | -40°C | 0% | 9hPa | 2.6V | 03:12:16 | 02:05:16 | 00:00:00 | |
| BIOWL1-15 | 2026-08-31 12:37:49 | 50.17408 | 8.67997 | 61° | 24km/h | 32159m | 5m/s | -40°C | 0% | 9hPa | 2.6V | 03:10:34 | 02:05:17 | 00:00:00 | |
| DL1XH-west | 2026-08-31 12:37:47 | 50.17411 | 8.68005 | 66° | 24km/h | 32164m | 4.8m/s | -40°C | 0% | 9hPa | 2.7V | 03:10:34 | 02:05:18 | 00:00:00 | |
| DO9LL-15 | 2026-08-31 12:37:47 | 50.17411 | 8.68005 | 66° | 15km/h | 32165m | 4.8m/s | -40.0°C | 2.6% | 9.0hPa | 2.7V | 00:00:00 | 02:05:18 | 00:00:00 | |
| DM0DOS-11 | 2026-08-31 12:37:45 | 50.17396 | 8.67979 | 15° | 13km/h | 32136m | 4.9m/s | -39.9°C | 2.5% | 9hPa | 2.7V | 03:10:18 | 02:05:13 | 00:00:00 | |
| AA1-15 | 2026-08-31 12:37:42 | 50.17396 | 8.67979 | 16° | 13km/h | 32136m | 4.9m/s | -39.9°C | 0% | 9hPa | 2.7V | 03:10:34 | 02:05:13 | 00:00:00 | |
| DF8AY | 2026-08-31 12:37:39 | 50.17386 | 8.67971 | 43° | 18km/h | 32120m | 6.5m/s | -39.8°C | 0% | 9.1hPa | 2.6V | 03:12:16 | 02:05:10 | 00:00:00 | |
| BIOWL1-15 | 2026-08-31 12:37:38 | 50.17364 | 8.67924 | 56° | 11km/h | 32063m | 6.4m/s | -40.1°C | 0% | 9.1hPa | 2.7V | 03:10:34 | 02:05:00 | 00:00:00 | |
| DL1XH-west | 2026-08-31 12:37:36 | 50.17373 | 8.67942 | 61° | 20km/h | 32097m | 5.6m/s | -39.9°C | 0% | 9.1hPa | 2.7V | 03:10:34 | 02:05:06 | 00:00:00 | |
| DL1NUX | 2026-08-31 12:37:36 | 50.17370 | 8.67936 | 59° | 15km/h | 32091m | 6.5m/s | -40°C | 2.5% | 9.1hPa | 2.7V | 03:10:26 | 02:05:05 | 00:00:00 | |
| DK5PH-5 | 2026-08-31 12:37:35 | 50.17373 | 8.67942 | 61° | 13km/h | 32098m | 5.5m/s | -39.8°C | 2.5% | 9.1hPa | 2.7V | 00:00:00 | 02:05:06 | 00:00:00 | |
| DL1XH1-15 | 2026-08-31 12:37:34 | 50.17365 | 8.67927 | 47° | 7km/h | 32069m | 5.6m/s | -40.1°C | 2.5% | 9.1hPa | 2.7V | 03:10:30 | 02:05:01 | 00:00:00 | |
| AA1-15 | 2026-08-31 12:37:32 | 50.17367 | 8.67929 | 38° | 5km/h | 32074m | 5.1m/s | -40.1°C | 0% | 9.1hPa | 2.6V | 03:10:34 | 02:05:02 | 00:00:00 | |
| DF8AY | 2026-08-31 12:37:29 | 50.17362 | 8.67920 | 62° | 15km/h | 32057m | 6m/s | -40.1°C | 0% | 9.1hPa | 2.7V | 03:12:16 | 02:04:59 | 00:00:00 | |
| HSKMA3-T | 2026-08-31 12:37:26 | 50.17359 | 8.67908 | 65° | 16km/h | 32046m | 5m/s | -40.3°C | 0% | 9.2hPa | 2.6V | 03:10:34 | 02:04:57 | 00:00:00 | |
| DL1XH-west | 2026-08-31 12:37:25 | 50.17357 | 8.67903 | 65° | 13km/h | 32040m | 6.1m/s | -40.2°C | 0% | 9.2hPa | 2.6V | 03:11:25 | 02:04:56 | 00:00:00 | |
| DF8AY-15 | 2026-08-31 12:37:25 | 50.17357 | 8.67903 | 65° | 11km/h | 32041m | 6.1m/s | -40.2°C | 2.5% | 9.1hPa | 2.7V | 03:10:00 | 02:04:56 | 00:00:00 | |
| DL8DAS-15 | 2026-08-31 12:37:24 | 50.17357 | 8.67903 | 66° | 13km/h | 32041m | 6.1m/s | -40.2°C | 0.7% | 9.2hPa | 2.7V | 00:00:00 | 00:00:00 | 00:00:00 | |
| DM0DOS-11 | 2026-08-31 12:37:23 | 50.17355 | 8.67894 | 87° | 5km/h | 32023m | 5.2m/s | -40.3°C | 2.6% | 9.2hPa | 2.7V | 03:10:38 | 02:04:53 | 00:00:00 | |
| DD8BA-10 | 2026-08-31 12:37:23 | 50.17355 | 8.67896 | 77° | 11km/h | 32028m | 5.7m/s | -40.3°C | 2.6% | 9.1hPa | 2.7V | 00:00:00 | 00:00:00 | 00:00:00 | |
| GOEST3-10 | 2026-08-31 12:37:22 | 50.17355 | 8.67894 | 88° | 11km/h | 32023m | 5.1m/s | -40.3°C | 2.6% | 9.1hPa | 2.7V | 00:00:00 | 00:00:00 | 00:00:00 | |
| DL1XH-15 | 2026-08-31 12:37:21 | 50.17355 | 8.67884 | 76° | 15km/h | 32006m | 6.6m/s | -40.4°C | 2.6% | 9.2hPa | 2.6V | 03:10:41 | 02:04:50 | 00:00:00 | |
| AA1-15 | 2026-08-31 12:37:20 | 50.17355 | 8.67889 | 85° | 9km/h | 32012m | 5.7m/s | -40.4°C | 0% | 9.2hPa | 2.6V | 03:11:25 | 02:04:51 | 00:00:00 | |
| DF8AY | 2026-08-31 12:37:18 | 50.17351 | 8.67872 | 63° | 18km/h | 31994m | 5m/s | -40.2°C | 0% | 9.2hPa | 2.7V | 03:12:16 | 02:04:48 | 00:00:00 | |
| BIOWL1-15 | 2026-08-31 12:37:18 | 50.17338 | 8.67864 | 319° | 13km/h | 31966m | 5.1m/s | -40.2°C | 0% | 9.3hPa | 2.6V | 03:11:25 | 02:04:43 | 00:00:00 | |
| HSKMA3-T | 2026-08-31 12:37:16 | 50.17344 | 8.67860 | 5° | 11km/h | 31978m | 6.7m/s | -40.4°C | 0% | 9.3hPa | 2.6V | 03:11:25 | 02:04:45 | 00:00:00 | |
| DL1NUX | 2026-08-31 12:37:15 | 50.17344 | 8.67861 | 5° | 11km/h | 31978m | 6.7m/s | -40.4°C | 2.6% | 9.3hPa | 2.6V | 03:10:46 | 02:04:45 | 00:00:00 | |
| DL1XH-west | 2026-08-31 12:37:14 | 50.17341 | 8.67861 | 333° | 11km/h | 31972m | 6.2m/s | -40.3°C | 0% | 9.2hPa | 2.6V | 03:11:25 | 02:04:44 | 00:00:00 | |
| DL8DAS-15 | 2026-08-31 12:37:14 | 50.17347 | 8.67862 | 35° | 13km/h | 31984m | 5.6m/s | -40.3°C | 0.8% | 9.3hPa | 2.7V | 00:00:00 | 00:00:00 | 00:00:00 | |
| DD8BA-10 | 2026-08-31 12:37:13 | 50.17341 | 8.67861 | 334° | 13km/h | 31972m | 6.1m/s | -40.2°C | 2.6% | 9.2hPa | 2.7V | 00:00:00 | 00:00:00 | 00:00:00 | |
| GOEST3-10 | 2026-08-31 12:37:12 | 50.17338 | 8.67864 | 320° | 13km/h | 31966m | 5.1m/s | -40.2°C | 2.6% | 9.2hPa | 2.7V | 03:10:00 | 00:00:00 | 00:00:00 | |
| DL1XH-15 | 2026-08-31 12:37:11 | 50.17331 | 8.67869 | 13° | 11km/h | 31950m | 6.7m/s | -40.3°C | 2.5% | 9.3hPa | 2.7V | 03:10:51 | 02:04:40 | 00:00:00 | |
| DL1NUX | 2026-08-31 12:37:09 | 50.17320 | 8.67849 | 48° | 9km/h | 31922m | 6.1m/s | -40.3°C | 2.5% | 9.3hPa | 2.7V | 03:10:56 | 02:04:35 | 00:00:00 | |
| AA1-15 | 2026-08-31 12:37:09 | 50.17331 | 8.67870 | 13° | 11km/h | 31951m | 6.7m/s | -40.3°C | 0% | 9.3hPa | 2.7V | 03:11:25 | 02:04:40 | 00:00:00 | |
| BUE01 | 2026-08-31 12:37:08 | 50.17328 | 8.67867 | 41° | 13km/h | 31944m | 6.4m/s | -40.1°C | 0.7% | 9.3hPa | 2.7V | 00:00:00 | 00:00:00 | 00:00:00 | |
| DM0DOS-11 | 2026-08-31 12:37:07 | 50.17318 | 8.67849 | 297° | 7km/h | 31910m | 5.5m/s | -40.2°C | 2.6% | 9.3hPa | 2.7V | 03:10:58 | 02:04:33 | 00:00:00 | |
| BIOWL1-15 | 2026-08-31 12:37:07 | 50.17321 | 8.67852 | 58° | 13km/h | 31927m | 4.9m/s | -40.3°C | 0% | 9.3hPa | 2.6V | 03:11:25 | 02:04:36 | 00:00:00 | |
| HSKMA3-T | 2026-08-31 12:37:04 | 50.17318 | 8.67847 | 356° | 4km/h | 31916m | 6.1m/s | -40.3°C | 0% | 9.3hPa | 2.7V | 03:11:25 | 02:04:34 | 00:00:00 | |
| DF8AY | 2026-08-31 12:37:04 | 50.17309 | 8.67861 | 5° | 11km/h | 31882m | 5.9m/s | -40.4°C | 0% | 9.4hPa | 2.7V | 03:12:16 | 02:04:28 | 00:00:00 | |
| DL1XH-west | 2026-08-31 12:37:02 | 50.17318 | 8.67849 | 297° | 7km/h | 31910m | 5.5m/s | -40.2°C | 0% | 9.3hPa | 2.7V | 03:11:25 | 02:04:33 | 00:00:00 | |
| DL1XH1-15 | 2026-08-31 12:37:02 | 50.17316 | 8.67855 | 297° | 11km/h | 31900m | 5.2m/s | -40.2°C | 2.6% | 9.3hPa | 2.6V | 03:11:00 | 02:04:31 | 00:00:00 | |
| AA1-15 | 2026-08-31 12:36:58 | 50.17312 | 8.67861 | 343° | 9km/h | 31888m | 6.4m/s | -40.4°C | 0% | 9.4hPa | 2.7V | 03:11:25 | 02:04:29 | 00:00:00 | |
| BIOWL1-15 | 2026-08-31 12:36:57 | 50.17303 | 8.67860 | 6° | 13km/h | 31871m | 5.2m/s | -40.3°C | 0% | 9.4hPa | 2.6V | 03:11:25 | 02:04:26 | 00:00:00 | |
| SO1NDE-10 | 2026-08-31 12:36:57 | 50.17309 | 8.67861 | 5° | 13km/h | 31882m | 5.9m/s | -40.4°C | 2.6% | 9.3hPa | 2.7V | 03:11:00 | 02:04:28 | 00:00:00 | |
| HEMX73-6 | 2026-08-31 12:36:56 | 50.17306 | 8.67860 | 11° | 15km/h | 31877m | 5.3m/s | -40.3°C | 2.6% | 9.3hPa | 2.7V | 03:11:00 | 02:04:27 | 00:00:00 | |
| DL1XH1-15 | 2026-08-31 12:36:55 | 50.17292 | 8.67869 | 282° | 7km/h | 31843m | 5m/s | -40.3°C | 2.5% | 9.4hPa | 2.6V | 03:11:10 | 02:04:21 | 00:00:00 | |
| HSKMA3-T | 2026-08-31 12:36:54 | 50.17297 | 8.67861 | 336° | 11km/h | 31859m | 6.2m/s | -40.2°C | 0% | 9.4hPa | 2.7V | 03:11:25 | 02:04:24 | 00:00:00 | |
| DL1XH-west | 2026-08-31 12:36:52 | 50.17293 | 8.67866 | 296° | 9km/h | 31848m | 4.8m/s | -40.3°C | 0% | 9.4hPa | 2.7V | 03:11:25 | 02:04:22 | 00:00:00 | |
| DF8AY | 2026-08-31 12:36:50 | 50.17292 | 8.67870 | 283° | 7km/h | 31843m | 5m/s | -40.3°C | 0% | 9.4hPa | 2.6V | 03:12:16 | 02:04:21 | 00:00:00 | |
| AA1-15 | 2026-08-31 12:36:48 | 50.17292 | 8.67872 | 343° | 0km/h | 31832m | 6.2m/s | -40.4°C | 0% | 9.5hPa | 2.6V | 03:11:25 | 02:04:19 | 00:00:00 | |
| NBG1-10 | 2026-08-31 12:36:48 | 50.17292 | 8.67872 | 343° | 15km/h | 31832m | 6.1m/s | -40.4°C | 2.5% | 9.4hPa | 2.7V | 00:00:00 | 02:04:19 | 00:00:00 | |
| DM0DOS-11 | 2026-08-31 12:36:47 | 50.17281 | 8.67884 | 297° | 22km/h | 31799m | 6m/s | -40.4°C | 2.5% | 9.5hPa | 2.7V | 03:11:18 | 02:04:13 | 00:00:00 | |
| DO9LL-15 | 2026-08-31 12:36:47 | 50.17292 | 8.67872 | 41° | 13km/h | 31826m | 5.3m/s | -40.4°C | 2.5% | 9.4hPa | 2.7V | 00:00:00 | 02:04:18 | 00:00:00 | |
| DF7PN | 2026-08-31 12:36:46 | 50.17284 | 8.67877 | 309° | 16km/h | 31805m | 6.5m/s | 0°C | -1.0% | -1.0hPa | 2.6V | 00:00:00 | 00:00:00 | 00:00:00 | |
| BIOWL1-15 | 2026-08-31 12:36:46 | 50.17287 | 8.67873 | 324° | 13km/h | 31811m | 6m/s | -40.4°C | 0% | 9.5hPa | 2.6V | 03:11:25 | 02:04:15 | 00:00:00 | |
| DL1XH1-15 | 2026-08-31 12:36:45 | 50.17277 | 8.67899 | 286° | 20km/h | 31788m | 4.5m/s | -40.4°C | 2.5% | 9.5hPa | 2.6V | 03:11:20 | 02:04:11 | 00:00:00 | |
| HSKMA3-T | 2026-08-31 12:36:42 | 50.17281 | 8.67884 | 298° | 22km/h | 31799m | 6m/s | -40.4°C | 0% | 9.5hPa | 2.7V | 03:11:25 | 02:04:13 | 00:00:00 | |
| DL1XH-west | 2026-08-31 12:36:42 | 50.17277 | 8.67899 | 287° | 20km/h | 31788m | 4.5m/s | -40.4°C | 0% | 9.5hPa | 2.6V | 03:11:25 | 02:04:11 | 00:00:00 | |
| DF8AY | 2026-08-31 12:36:39 | 50.17276 | 8.67905 | 283° | 13km/h | 31784m | 4.6m/s | -40.5°C | 0% | 9.5hPa | 2.6V | 03:12:16 | 02:04:10 | 00:00:00 | |
| AA1-15 | 2026-08-31 12:36:37 | 50.17276 | 8.67909 | 97° | 4km/h | 31771m | 6.9m/s | -40.5°C | 0% | 9.6hPa | 2.7V | 03:11:25 | 02:04:08 | 00:00:00 | |
| GOEST3-10 | 2026-08-31 12:36:37 | 50.17275 | 8.67909 | 97° | 11km/h | 31772m | 6.9m/s | -40.5°C | 2.5% | 9.5hPa | 2.7V | 00:00:00 | 02:04:08 | 00:00:00 | |
| DL1XH1-15 | 2026-08-31 12:36:35 | 50.17261 | 8.67908 | 292° | 26km/h | 31727m | 5.1m/s | -40.7°C | 2.5% | 9.6hPa | 2.6V | 03:11:31 | 02:04:00 | 00:00:00 | |
| BIOWL1-15 | 2026-08-31 12:36:34 | 50.17274 | 8.67895 | 66° | 15km/h | 31756m | 4.1m/s | -40.5°C | 0% | 9.6hPa | 2.6V | 03:12:16 | 02:04:05 | 00:00:00 | |
| HSKMA3-T | 2026-08-31 12:36:32 | 50.17267 | 8.67893 | 315° | 18km/h | 31739m | 6.4m/s | -40.8°C | 0% | 9.6hPa | 2.7V | 03:12:16 | 02:04:02 | 00:00:00 | |
| DL1XH-west | 2026-08-31 12:36:31 | 50.17264 | 8.67900 | 300° | 24km/h | 31733m | 5.7m/s | -40.8°C | 0% | 9.6hPa | 2.7V | 03:12:16 | 02:04:01 | 00:00:00 | |
| DF8AY | 2026-08-31 12:36:30 | 50.17261 | 8.67909 | 292° | 26km/h | 31727m | 5.1m/s | -40.7°C | 0% | 9.6hPa | 2.6V | 03:12:16 | 02:04:00 | 00:00:00 | |
| AA1-15 | 2026-08-31 12:36:26 | 50.17256 | 8.67931 | 280° | 11km/h | 31710m | 5.9m/s | -40.5°C | 0% | 9.6hPa | 2.7V | 03:12:16 | 02:03:57 | 00:00:00 | |
| DL3AQ-11 | 2026-08-31 12:36:25 | 50.17256 | 8.67933 | 76° | 4km/h | 31699m | 5.7m/s | -40.6°C | 0.7% | 9.7hPa | 2.6V | 00:00:00 | 00:00:00 | 00:00:00 | |
| DL1XH1-15 | 2026-08-31 12:36:24 | 50.17249 | 8.67924 | 349° | 13km/h | 31678m | 5.6m/s | -40.6°C | 2.4% | 9.7hPa | 2.6V | 03:11:40 | 02:03:51 | 00:00:00 | |
| BIOWL1-15 | 2026-08-31 12:36:24 | 50.17242 | 8.67938 | 280° | 20km/h | 31661m | 5.5m/s | -40.7°C | 0% | 9.7hPa | 2.7V | 03:12:16 | 02:03:48 | 00:00:00 | |
| HSKMA3-T | 2026-08-31 12:36:22 | 50.17251 | 8.67924 | 22° | 13km/h | 31683m | 5.4m/s | -40.6°C | 0% | 9.7hPa | 2.7V | 03:12:16 | 02:03:52 | 00:00:00 | |
| DF8AY | 2026-08-31 12:36:19 | 50.17243 | 8.67931 | 296° | 18km/h | 31666m | 5.6m/s | -40.7°C | 0% | 9.7hPa | 2.6V | 03:12:16 | 02:03:49 | 00:00:00 | |
| DL1XH-west | 2026-08-31 12:36:19 | 50.17245 | 8.67926 | 318° | 15km/h | 31672m | 5.6m/s | -40.7°C | 0% | 9.7hPa | 2.6V | 03:12:16 | 02:03:50 | 00:00:00 | |
| DJ8HS-15 | 2026-08-31 12:36:19 | 50.17245 | 8.67926 | 319° | 11km/h | 31672m | 5.5m/s | -40.6°C | 2.5% | 9.7hPa | 2.6V | 00:00:00 | 02:03:50 | 00:00:00 | |
| BIOWL9-15 | 2026-08-31 12:36:18 | 50.17243 | 8.67931 | 296° | 16km/h | 31667m | 5.6m/s | -40.7°C | 0.7% | 9.7hPa | 2.6V | 00:00:00 | 00:00:00 | 00:00:00 | |
| GOEST3-10 | 2026-08-31 12:36:17 | 50.17242 | 8.67938 | 280° | 13km/h | 31661m | 5.5m/s | -40.6°C | 2.5% | 9.7hPa | 2.6V | 00:00:00 | 02:03:48 | 00:00:00 | |
| DL1XH-15 | 2026-08-31 12:36:16 | 50.17244 | 8.67956 | 234° | 9km/h | 31645m | 5.2m/s | -40.9°C | 2.5% | 9.8hPa | 2.6V | 03:11:46 | 02:03:45 | 00:00:00 | |
| AA1-15 | 2026-08-31 12:36:16 | 50.17241 | 8.67946 | 265° | 18km/h | 31655m | 5.4m/s | -40.7°C | 0% | 9.7hPa | 2.7V | 03:12:16 | 02:03:47 | 00:00:00 | |
| DO9LL-15 | 2026-08-31 12:36:16 | 50.17241 | 8.67945 | 266° | 13km/h | 31656m | 5.3m/s | -40.7°C | 2.5% | 9.7hPa | 2.7V | 03:11:00 | 02:03:47 | 00:00:00 | |
| NBG1-10 | 2026-08-31 12:36:15 | 50.17242 | 8.67952 | 251° | 11km/h | 31650m | 5.1m/s | -40.8°C | 2.5% | 9.7hPa | 2.7V | 00:00:00 | 02:03:46 | 00:00:00 | |
| DM0DOS-11 | 2026-08-31 12:36:13 | 50.17245 | 8.67957 | 64° | 5km/h | 31634m | 5.6m/s | -41.2°C | 2.5% | 9.8hPa | 2.7V | 03:11:48 | 02:03:43 | 00:00:00 | |
| BIOWL1-15 | 2026-08-31 12:36:13 | 50.17245 | 8.67958 | 194° | 4km/h | 31639m | 5.3m/s | -41.1°C | 0% | 9.8hPa | 2.6V | 03:12:16 | 02:03:44 | 00:00:00 | |
| HSKMA3-T | 2026-08-31 12:36:10 | 50.17241 | 8.67952 | 27° | 15km/h | 31622m | 5.9m/s | -41.3°C | 0% | 9.8hPa | 2.6V | 03:12:16 | 02:03:41 | 00:00:00 | |
| DL1XH-west | 2026-08-31 12:36:09 | 50.17237 | 8.67950 | 11° | 16km/h | 31617m | 5.6m/s | -41.3°C | 0% | 9.8hPa | 2.6V | 03:12:16 | 02:03:40 | 00:00:00 | |
| DF8AY | 2026-08-31 12:36:07 | 50.17229 | 8.67951 | 333° | 15km/h | 31606m | 5.4m/s | -41.2°C | 0% | 9.8hPa | 2.7V | 03:12:16 | 02:03:38 | 00:00:00 | |
| AA1-15 | 2026-08-31 12:36:06 | 50.17226 | 8.67955 | 314° | 13km/h | 31600m | 5.3m/s | -41.2°C | 0% | 9.8hPa | 2.7V | 03:12:16 | 02:03:37 | 00:00:00 | |
| DL1NUX | 2026-08-31 12:36:05 | 50.17223 | 8.67965 | 260° | 5km/h | 31583m | 6.1m/s | -41.2°C | 2.5% | 9.8hPa | 2.6V | 03:11:57 | 02:03:34 | 00:00:00 | |
| BIOWL1-15 | 2026-08-31 12:36:03 | 50.17224 | 8.67966 | 108° | 2km/h | 31572m | 5.2m/s | -41.2°C | 0% | 9.8hPa | 2.7V | 03:12:16 | 02:03:32 | 00:00:00 | |
| DL1XH1-15 | 2026-08-31 12:36:03 | 50.17224 | 8.67965 | 39° | 4km/h | 31567m | 4.8m/s | -41.3°C | 2.6% | 9.8hPa | 2.7V | 03:12:00 | 02:03:31 | 00:00:00 | |
| DL1XH-15 | 2026-08-31 12:36:01 | 50.17224 | 8.67966 | 107° | 2km/h | 31572m | 5.2m/s | -41.2°C | 2.6% | 9.8hPa | 2.7V | 03:11:59 | 02:03:32 | 00:00:00 | |
| HSKMA3-T | 2026-08-31 12:36:00 | 50.17224 | 8.67965 | 40° | 4km/h | 31567m | 4.8m/s | -41.3°C | 0% | 9.8hPa | 2.7V | 03:12:16 | 02:03:31 | 00:00:00 | |
| DL1XH-west | 2026-08-31 12:35:58 | 50.17221 | 8.67966 | 328° | 11km/h | 31557m | 5.9m/s | -41.3°C | 0% | 9.8hPa | 2.6V | 03:12:16 | 02:03:29 | 00:00:00 | |
| DF8AY | 2026-08-31 12:35:57 | 50.17215 | 8.67975 | 308° | 22km/h | 31544m | 5.9m/s | -41.2°C | 0% | 9.9hPa | 2.7V | 03:12:16 | 02:03:27 | 00:00:00 | |
| AA1-15 | 2026-08-31 12:35:56 | 50.17212 | 8.67983 | 302° | 24km/h | 31539m | 4.9m/s | -41.1°C | 0% | 9.9hPa | 2.6V | 03:12:16 | 02:03:26 | 00:00:00 | |
| DM0DOS-11 | 2026-08-31 12:35:55 | 50.17207 | 8.67999 | 258° | 5km/h | 31523m | 6.3m/s | -41°C | 2.6% | 9.9hPa | 2.7V | 03:12:08 | 02:03:23 | 00:00:00 | |
| KANTATE | 2026-08-31 12:35:55 | 50.17215 | 8.67975 | 309° | 22km/h | 31544m | 5.9m/s | -41.2°C | 0.7% | 9.9hPa | 2.6V | 00:00:00 | 00:00:00 | 00:00:00 | |
| DL4BBY-15 | 2026-08-31 12:35:54 | 50.17209 | 8.67990 | 296° | 11km/h | 31535m | 4.3m/s | -40.2°C | 0% | 0hPa | 2.6V | 00:00:00 | 00:00:00 | 00:00:00 | |
| DL8DAS-15 | 2026-08-31 12:35:52 | 50.17207 | 8.67996 | 288° | 13km/h | 31529m | 5.6m/s | -41.0°C | 0.8% | 9.9hPa | 2.6V | 00:00:00 | 00:00:00 | 00:00:00 | |
| DL1XH-15 | 2026-08-31 12:35:51 | 50.17210 | 8.67997 | 131° | 11km/h | 31511m | 5.3m/s | -41°C | 2.6% | 9.9hPa | 2.6V | 03:12:10 | 02:03:21 | 00:00:00 | |
| BIOWL1-15 | 2026-08-31 12:35:51 | 50.17208 | 8.68000 | 150° | 5km/h | 31517m | 6.1m/s | -41.1°C | 0% | 9.9hPa | 2.7V | 03:12:16 | 02:03:22 | 00:00:00 | |
| HSKMA3-T | 2026-08-31 12:35:49 | 50.17211 | 8.67993 | 125° | 13km/h | 31506m | 5.1m/s | -41°C | 0% | 9.9hPa | 2.6V | 03:12:16 | 02:03:20 | 00:00:00 | |
| DL1XH-west | 2026-08-31 12:35:48 | 50.17214 | 8.67986 | 107° | 5km/h | 31494m | 5.9m/s | -41.1°C | 0% | 10hPa | 2.7V | 03:12:16 | 02:03:18 | 00:00:00 | |
| BIOWL9-15 | 2026-08-31 12:35:47 | 50.17214 | 8.67986 | 106° | 5km/h | 31495m | 5.9m/s | -41.1°C | 0.7% | 10.0hPa | 2.6V | 00:00:00 | 00:00:00 | 00:00:00 | |
| DO1YAY-16 | 2026-08-31 12:35:46 | 50.17213 | 8.67985 | 335° | 4km/h | 31483m | 5.7m/s | -41.3°C | 0.7% | 10.0hPa | 2.6V | 00:00:00 | 00:00:00 | 00:00:00 | |
| DL1XH1-15 | 2026-08-31 12:35:46 | 50.17205 | 8.67995 | 320° | 9km/h | 31454m | 5m/s | -41.3°C | 2.6% | 10hPa | 2.6V | 03:12:20 | 02:03:11 | 00:00:00 | |
| AA1-15 | 2026-08-31 12:35:45 | 50.17212 | 8.67986 | 325° | 7km/h | 31477m | 5.9m/s | -41.3°C | 0% | 10hPa | 2.6V | 03:12:16 | 02:03:15 | 00:00:00 | |
| HEMX73-11 | 2026-08-31 12:35:45 | 50.17213 | 8.67985 | 337° | 5km/h | 31483m | 5.7m/s | -41.3°C | 0.7% | 10.0hPa | 2.7V | 03:12:00 | 00:00:00 | 00:00:00 | |
| DM0DOS-11 | 2026-08-31 12:35:44 | 50.17208 | 8.67991 | 316° | 9km/h | 31465m | 5.8m/s | -41.3°C | 2.6% | 10hPa | 2.7V | 03:12:18 | 02:03:13 | 00:00:00 | |
| BIOWL1-15 | 2026-08-31 12:35:41 | 50.17207 | 8.67993 | 317° | 9km/h | 31459m | 5.1m/s | -41.3°C | 0% | 10hPa | 2.7V | 03:13:07 | 02:03:12 | 00:00:00 | |
| HSKMA3-T | 2026-08-31 12:35:38 | 50.17201 | 8.68000 | 331° | 13km/h | 31443m | 6.2m/s | -41.5°C | 0% | 10.1hPa | 2.7V | 03:13:07 | 02:03:09 | 00:00:00 | |
| DL1XH-west | 2026-08-31 12:35:37 | 50.17194 | 8.68003 | 355° | 13km/h | 31432m | 5.2m/s | -41.5°C | 0% | 10.1hPa | 2.7V | 03:13:07 | 02:03:07 | 00:00:00 | |
| AA1-15 | 2026-08-31 12:35:35 | 50.17189 | 8.68000 | 53° | 13km/h | 31422m | 5.4m/s | -41.4°C | 0% | 10.1hPa | 2.6V | 03:13:07 | 02:03:05 | 00:00:00 | |
| DL1XH1-15 | 2026-08-31 12:35:34 | 50.17189 | 8.67970 | 105° | 20km/h | 31397m | 4.3m/s | -41.2°C | 2.6% | 10.1hPa | 2.7V | 03:12:30 | 02:03:01 | 00:00:00 | |
| DM0DOS-11 | 2026-08-31 12:35:33 | 50.17187 | 8.67987 | 93° | 22km/h | 31408m | 6.8m/s | -41.2°C | 2.6% | 10.1hPa | 2.7V | 03:12:28 | 02:03:03 | 00:00:00 | |
| BIOWL1-15 | 2026-08-31 12:35:33 | 50.17188 | 8.67978 | 102° | 24km/h | 31402m | 5.3m/s | -41.2°C | 0% | 10.1hPa | 2.7V | 03:13:07 | 02:03:02 | 00:00:00 | |
| GOEST3-10 | 2026-08-31 12:35:32 | 50.17187 | 8.67987 | 94° | 16km/h | 31409m | 6.7m/s | -41.2°C | 2.6% | 10.1hPa | 2.7V | 03:12:00 | 00:00:00 | 00:00:00 | |
| DD8BA-10 | 2026-08-31 12:35:31 | 50.17188 | 8.67978 | 103° | 13km/h | 31403m | 5.2m/s | -41.1°C | 2.6% | 10.0hPa | 2.7V | 03:12:00 | 00:00:00 | 00:00:00 | |
| HEMX73-6 | 2026-08-31 12:35:30 | 50.17189 | 8.67970 | 106° | 16km/h | 31398m | 4.2m/s | -41.1°C | 2.6% | 10.1hPa | 2.7V | 00:00:00 | 02:03:01 | 00:00:00 | |
| DO3DL | 2026-08-31 12:35:29 | 50.17189 | 8.67970 | 107° | 20km/h | 31398m | 4.3m/s | -41.2°C | 0.7% | 10.1hPa | 2.7V | 03:13:00 | 00:00:00 | 00:00:00 | |
| DL1NUX | 2026-08-31 12:35:28 | 50.17182 | 8.67972 | 335° | 5km/h | 31358m | 5.9m/s | -41.4°C | 2.6% | 10.2hPa | 2.7V | 03:12:37 | 02:02:54 | 00:00:00 | |
| HSKMA3-T | 2026-08-31 12:35:28 | 50.17191 | 8.67961 | 88° | 5km/h | 31387m | 6.6m/s | -41.3°C | 0% | 10.1hPa | 2.6V | 03:13:07 | 02:02:59 | 00:00:00 | |
| DL9PN | 2026-08-31 12:35:28 | 50.17190 | 8.67960 | 330° | 5km/h | 31381m | 6.7m/s | -41.3°C | 0.7% | 10.1hPa | 2.6V | 00:00:00 | 00:00:00 | 00:00:00 | |
| GOEST3-10 | 2026-08-31 12:35:27 | 50.17190 | 8.67960 | 331° | 9km/h | 31381m | 6.7m/s | -41.3°C | 2.6% | 10.1hPa | 2.6V | 00:00:00 | 02:02:58 | 00:00:00 | |
| EDDB2-11 | 2026-08-31 12:35:25 | 50.17186 | 8.67966 | 312° | 13km/h | 31369m | 4.9m/s | -41.5°C | 0.8% | 10.1hPa | 2.6V | 00:00:00 | 00:00:00 | 00:00:00 | |
| DL1XH1-15 | 2026-08-31 12:35:24 | 50.17180 | 8.67963 | 89° | 16km/h | 31341m | 5.8m/s | -41.3°C | 2.7% | 10.2hPa | 2.6V | 03:12:40 | 02:02:51 | 00:00:00 | |
| DL1XH-west | 2026-08-31 12:35:24 | 50.17184 | 8.67970 | 315° | 11km/h | 31364m | 5.7m/s | -41.4°C | 0% | 10.2hPa | 2.6V | 03:13:07 | 02:02:55 | 00:00:00 | |
| DL4BBY-15 | 2026-08-31 12:35:24 | 50.17184 | 8.67969 | 315° | 16km/h | 31364m | 5.7m/s | -40.7°C | 0% | 0hPa | 2.6V | 00:00:00 | 00:00:00 | 00:00:00 | |
| DO3DL | 2026-08-31 12:35:22 | 50.17182 | 8.67972 | 336° | 5km/h | 31359m | 5.9m/s | -41.4°C | 0.7% | 10.2hPa | 2.6V | 03:13:00 | 00:00:00 | 00:00:00 | |
| DL1XH-15 | 2026-08-31 12:35:20 | 50.17180 | 8.67956 | 89° | 18km/h | 31335m | 6.3m/s | -41.2°C | 2.7% | 10.2hPa | 2.6V | 03:12:41 | 02:02:50 | 00:00:00 | |
| BIOWL1-15 | 2026-08-31 12:35:20 | 50.17170 | 8.67878 | 128° | 27km/h | 31233m | 4.7m/s | -41.3°C | 0% | 10.4hPa | 2.6V | 03:13:07 | 02:02:32 | 00:00:00 | |
| HSKMA3-T | 2026-08-31 12:35:18 | 50.17180 | 8.67949 | 91° | 18km/h | 31329m | 6.1m/s | -41.2°C | 0% | 10.2hPa | 2.6V | 03:13:07 | 02:02:49 | 00:00:00 | |
| DL3AQ-11 | 2026-08-31 12:35:18 | 50.17181 | 8.67942 | 96° | 16km/h | 31323m | 5.1m/s | -41.2°C | 0.7% | 10.2hPa | 2.6V | 00:00:00 | 00:00:00 | 00:00:00 | |
| BIOWL9-15 | 2026-08-31 12:35:17 | 50.17181 | 8.67936 | 102° | 15km/h | 31318m | 4.9m/s | -41.2°C | 0.7% | 10.2hPa | 2.6V | 00:00:00 | 00:00:00 | 00:00:00 | |
| DL1NUX | 2026-08-31 12:35:16 | 50.17186 | 8.67922 | 129° | 13km/h | 31301m | 5.8m/s | -41.2°C | 2.7% | 10.2hPa | 2.6V | 03:12:47 | 02:02:44 | 00:00:00 | |
| DO3DL | 2026-08-31 12:35:16 | 50.17181 | 8.67936 | 104° | 15km/h | 31319m | 4.9m/s | -41.2°C | 0.7% | 10.2hPa | 2.7V | 03:13:00 | 00:00:00 | 00:00:00 | |
| DL1XH-15 | 2026-08-31 12:35:14 | 50.17186 | 8.67913 | 8° | 13km/h | 31279m | 6.7m/s | -41.4°C | 2.6% | 10.3hPa | 2.7V | 03:12:51 | 02:02:40 | 00:00:00 | |
| DL1XH1-15 | 2026-08-31 12:35:14 | 50.17188 | 8.67914 | 31° | 7km/h | 31285m | 5.3m/s | -41.3°C | 2.6% | 10.3hPa | 2.7V | 03:12:50 | 02:02:41 | 00:00:00 | |
| DL1XH-west | 2026-08-31 12:35:14 | 50.17184 | 8.67926 | 124° | 13km/h | 31307m | 6.3m/s | -41.2°C | 0% | 10.3hPa | 2.6V | 03:13:07 | 02:02:45 | 00:00:00 | |
| DF8AY | 2026-08-31 12:35:14 | 50.17186 | 8.67922 | 130° | 13km/h | 31301m | 5.8m/s | -41.2°C | 0% | 10.3hPa | 2.6V | 03:13:07 | 02:02:44 | 00:00:00 | |
| DM0DOS-11 | 2026-08-31 12:35:13 | 50.17188 | 8.67919 | 128° | 9km/h | 31295m | 5.1m/s | -41.2°C | 2.6% | 10.2hPa | 2.6V | 03:12:48 | 02:02:43 | 00:00:00 | |
| DB0UT-7 | 2026-08-31 12:35:12 | 50.17188 | 8.67919 | 129° | 18km/h | 31296m | 5.1m/s | -41.2°C | 2.6% | 10.2hPa | 2.7V | 03:12:00 | 02:02:43 | 00:00:00 | |
| DD8BA-10 | 2026-08-31 12:35:11 | 50.17188 | 8.67916 | 99° | 18km/h | 31291m | 4.7m/s | -41.2°C | 2.6% | 10.2hPa | 2.7V | 00:00:00 | 00:00:00 | 00:00:00 | |
| DL1NUX | 2026-08-31 12:35:08 | 50.17165 | 8.67895 | 101° | 20km/h | 31244m | 7.1m/s | -41.2°C | 2.6% | 10.3hPa | 2.7V | 03:12:57 | 02:02:34 | 00:00:00 | |
| HSKMA3-T | 2026-08-31 12:35:07 | 50.17177 | 8.67912 | 7° | 22km/h | 31266m | 5.4m/s | -41.4°C | 0% | 10.3hPa | 2.6V | 03:13:07 | 02:02:38 | 00:00:00 | |
| DL1XH-west | 2026-08-31 12:35:03 | 50.17165 | 8.67895 | 101° | 20km/h | 31244m | 7.1m/s | -41.2°C | 0% | 10.3hPa | 2.7V | 03:13:07 | 02:02:34 | 00:00:00 | |
| AA1-15 | 2026-08-31 12:35:03 | 50.17167 | 8.67887 | 120° | 26km/h | 31238m | 6.1m/s | -41.3°C | 0% | 10.3hPa | 2.7V | 03:13:07 | 02:02:33 | 00:00:00 | |
| DM0DOS-11 | 2026-08-31 12:35:02 | 50.17167 | 8.67887 | 119° | 26km/h | 31238m | 6.1m/s | -41.3°C | 2.6% | 10.3hPa | 2.7V | 03:12:58 | 02:02:33 | 00:00:00 | |
| DB0ND-19 | 2026-08-31 12:35:00 | 50.17177 | 8.67864 | 120° | 16km/h | 31223m | 5.4m/s | -41.3°C | 0.7% | 10.4hPa | 2.7V | 00:00:00 | 00:00:00 | 00:00:00 | |
| DJ8HS-15 | 2026-08-31 12:34:59 | 50.17177 | 8.67864 | 121° | 18km/h | 31224m | 5.4m/s | -41.3°C | 2.6% | 10.3hPa | 2.7V | 00:00:00 | 02:02:30 | 00:00:00 | |
| DM0DOS-11 | 2026-08-31 12:34:57 | 50.17151 | 8.67843 | 45° | 18km/h | 31183m | 5.7m/s | -41°C | 2.6% | 10.4hPa | 2.7V | 03:13:08 | 02:02:23 | 00:00:00 | |
| HSKMA3-T | 2026-08-31 12:34:56 | 50.17173 | 8.67853 | 11° | 20km/h | 31205m | 5.9m/s | -41.2°C | 0% | 10.4hPa | 2.7V | 03:13:07 | 02:02:27 | 00:00:00 | |
| DL1NUX | 2026-08-31 12:34:56 | 50.17155 | 8.67847 | 24° | 22km/h | 31189m | 5.6m/s | -41.2°C | 2.6% | 10.4hPa | 2.7V | 03:13:07 | 02:02:24 | 00:00:00 | |
| DL1XH-west | 2026-08-31 12:34:53 | 50.17155 | 8.67847 | 24° | 22km/h | 31189m | 5.6m/s | -41.2°C | 0% | 10.4hPa | 2.7V | 03:13:07 | 02:02:24 | 00:00:00 | |
| AA1-15 | 2026-08-31 12:34:52 | 50.17149 | 8.67837 | 74° | 18km/h | 31178m | 5.7m/s | -41°C | 0% | 10.4hPa | 2.6V | 03:13:58 | 02:02:22 | 00:00:00 | |
| BIOWL1-15 | 2026-08-31 12:34:46 | 50.17153 | 8.67799 | 93° | 18km/h | 31148m | 6.2m/s | -41°C | 0% | 10.5hPa | 2.6V | 03:13:58 | 02:02:17 | 00:00:00 | |
| HSKMA3-T | 2026-08-31 12:34:45 | 50.17152 | 8.67793 | 78° | 16km/h | 31142m | 5.9m/s | -41.1°C | 0% | 10.5hPa | 2.6V | 03:13:58 | 02:02:16 | 00:00:00 | |
| DM0DOS-11 | 2026-08-31 12:34:45 | 50.17146 | 8.67775 | 56° | 18km/h | 31125m | 5.4m/s | -41°C | 2.5% | 10.5hPa | 2.7V | 03:13:18 | 02:02:13 | 00:00:00 | |
| DL1XH-west | 2026-08-31 12:34:42 | 50.17146 | 8.67775 | 56° | 18km/h | 31125m | 5.4m/s | -41°C | 0% | 10.5hPa | 2.7V | 03:13:58 | 02:02:13 | 00:00:00 | |
| AA1-15 | 2026-08-31 12:34:42 | 50.17144 | 8.67769 | 61° | 20km/h | 31119m | 5.8m/s | -40.9°C | 0% | 10.5hPa | 2.7V | 03:13:58 | 02:02:12 | 00:00:00 | |
| DB0UT-7 | 2026-08-31 12:34:42 | 50.17146 | 8.67775 | 57° | 18km/h | 31125m | 5.4m/s | -40.9°C | 2.5% | 10.5hPa | 2.7V | 00:00:00 | 00:00:00 | 00:00:00 | |
| DJ8HS-15 | 2026-08-31 12:34:39 | 50.17140 | 8.67754 | 73° | 15km/h | 31108m | 5.4m/s | -40.7°C | 2.5% | 10.5hPa | 2.6V | 00:00:00 | 02:02:10 | 00:00:00 | |
| NBG1-10 | 2026-08-31 12:34:38 | 50.17138 | 8.67747 | 74° | 15km/h | 31103m | 4.9m/s | -40.8°C | 2.5% | 10.5hPa | 2.7V | 03:13:00 | 02:02:09 | 00:00:00 | |
| GOEST3-10 | 2026-08-31 12:34:37 | 50.17137 | 8.67740 | 72° | 7km/h | 31098m | 5.2m/s | -40.8°C | 2.6% | 10.5hPa | 2.7V | 00:00:00 | 02:02:08 | 00:00:00 | |
| DL1NUX | 2026-08-31 12:34:36 | 50.17135 | 8.67732 | 160° | 5km/h | 31074m | 5m/s | -40.6°C | 2.6% | 10.6hPa | 2.6V | 03:13:27 | 02:02:04 | 00:00:00 | |
| BIOWL1-15 | 2026-08-31 12:34:35 | 50.17135 | 8.67733 | 55° | 5km/h | 31085m | 6.2m/s | -40.7°C | 0% | 10.6hPa | 2.7V | 03:13:58 | 02:02:06 | 00:00:00 | |
| HSKMA3-T | 2026-08-31 12:34:34 | 50.17135 | 8.67732 | 97° | 2km/h | 31080m | 5.3m/s | -40.6°C | 0% | 10.6hPa | 2.7V | 03:13:58 | 02:02:05 | 00:00:00 | |
| DM0DOS-11 | 2026-08-31 12:34:33 | 50.17137 | 8.67731 | 151° | 9km/h | 31069m | 6m/s | -40.6°C | 2.6% | 10.6hPa | 2.6V | 03:13:28 | 02:02:03 | 00:00:00 | |
| DL1XH1-15 | 2026-08-31 12:34:33 | 50.17143 | 8.67723 | 133° | 20km/h | 31056m | 5.8m/s | -40.7°C | 2.6% | 10.6hPa | 2.7V | 03:13:30 | 02:02:01 | 00:00:00 | |
| DL1XH-west | 2026-08-31 12:34:32 | 50.17137 | 8.67731 | 152° | 9km/h | 31069m | 6.1m/s | -40.6°C | 0% | 10.6hPa | 2.6V | 03:13:58 | 02:02:03 | 00:00:00 | |
| AA1-15 | 2026-08-31 12:34:31 | 50.17147 | 8.67716 | 123° | 22km/h | 31051m | 5.1m/s | -40.7°C | 0% | 10.7hPa | 2.7V | 03:13:58 | 02:02:00 | 00:00:00 | |
| DF8AY | 2026-08-31 12:34:30 | 50.17149 | 8.67709 | 110° | 22km/h | 31046m | 5.4m/s | -40.8°C | 0% | 10.7hPa | 2.7V | 03:13:58 | 02:01:59 | 00:00:00 | |
| HEMX73-6 | 2026-08-31 12:34:30 | 50.17143 | 8.67723 | 134° | 16km/h | 31057m | 5.7m/s | -40.6°C | 2.6% | 10.6hPa | 2.7V | 00:00:00 | 02:02:01 | 00:00:00 | |
| DB0ND-19 | 2026-08-31 12:34:29 | 50.17149 | 8.67709 | 110° | 20km/h | 31046m | 5.4m/s | -40.8°C | 0.7% | 10.7hPa | 2.7V | 00:00:00 | 00:00:00 | 00:00:00 | |
| DL1NUX | 2026-08-31 12:34:28 | 50.17144 | 8.67673 | 72° | 15km/h | 31018m | 5.5m/s | -40.6°C | 2.4% | 10.7hPa | 2.7V | 03:13:37 | 02:01:54 | 00:00:00 | |
| BIOWL1-15 | 2026-08-31 12:34:25 | 50.17148 | 8.67686 | 65° | 20km/h | 31028m | 4.9m/s | -40.7°C | 0% | 10.7hPa | 2.6V | 03:13:58 | 02:01:56 | 00:00:00 | |
| HSKMA3-T | 2026-08-31 12:34:24 | 50.17146 | 8.67679 | 64° | 18km/h | 31023m | 4.6m/s | -40.7°C | 0% | 10.7hPa | 2.7V | 03:13:58 | 02:01:55 | 00:00:00 | |
| DL1XH-west | 2026-08-31 12:34:23 | 50.17144 | 8.67668 | 97° | 13km/h | 31012m | 6m/s | -40.5°C | 0% | 10.7hPa | 2.7V | 03:13:58 | 02:01:53 | 00:00:00 | |
| DL1XH-15 | 2026-08-31 12:34:20 | 50.17148 | 8.67660 | 154° | 15km/h | 31001m | 5.3m/s | -40.5°C | 2.5% | 10.7hPa | 2.6V | 03:13:40 | 02:01:51 | 00:00:00 | |
| AA1-15 | 2026-08-31 12:34:20 | 50.17152 | 8.67658 | 171° | 16km/h | 30995m | 5.7m/s | -40.6°C | 0% | 10.7hPa | 2.7V | 03:13:58 | 02:01:50 | 00:00:00 | |
| BIOWL1-15 | 2026-08-31 12:34:18 | 50.17172 | 8.67659 | 161° | 18km/h | 30968m | 5.6m/s | -40.7°C | 0% | 10.8hPa | 2.7V | 03:13:58 | 02:01:45 | 00:00:00 | |
| DM0DOS-11 | 2026-08-31 12:34:17 | 50.17181 | 8.67650 | 140° | 24km/h | 30956m | 5.5m/s | -40.6°C | 2.5% | 10.8hPa | 2.6V | 03:13:48 | 02:01:43 | 00:00:00 | |
| DF8AY | 2026-08-31 12:34:16 | 50.17164 | 8.67660 | 189° | 16km/h | 30978m | 4.9m/s | -40.7°C | 0% | 10.8hPa | 2.6V | 03:13:58 | 02:01:47 | 00:00:00 | |
| HSKMA3-T | 2026-08-31 12:34:13 | 50.17176 | 8.67655 | 148° | 20km/h | 30962m | 6.1m/s | -40.7°C | 0% | 10.8hPa | 2.7V | 03:13:58 | 02:01:44 | 00:00:00 | |
| DL1XH-west | 2026-08-31 12:34:11 | 50.17185 | 8.67644 | 138° | 24km/h | 30951m | 5m/s | -40.6°C | 0% | 10.8hPa | 2.6V | 03:13:58 | 02:01:42 | 00:00:00 | |
| AA1-15 | 2026-08-31 12:34:09 | 50.17197 | 8.67633 | 208° | 7km/h | 30928m | 6.1m/s | -40.9°C | 0% | 10.8hPa | 2.7V | 03:13:58 | 02:01:38 | 00:00:00 | |
| BIOWL1-15 | 2026-08-31 12:34:08 | 50.17201 | 8.67636 | 165° | 5km/h | 30911m | 6.2m/s | -41°C | 0% | 10.9hPa | 2.6V | 03:13:58 | 02:01:35 | 00:00:00 | |
| DF8AY | 2026-08-31 12:34:06 | 50.17217 | 8.67599 | 125° | 13km/h | 30860m | 6.3m/s | -40.8°C | 0% | 10.9hPa | 2.6V | 03:17:22 | 02:01:26 | 00:00:00 | |
| HSKMA3-T | 2026-08-31 12:34:02 | 50.17204 | 8.67631 | 121° | 15km/h | 30899m | 5.2m/s | -41°C | 0% | 10.9hPa | 2.7V | 03:13:58 | 02:01:33 | 00:00:00 | |
| DL1XH1-15 | 2026-08-31 12:34:02 | 50.17208 | 8.67620 | 117° | 16km/h | 30889m | 5.9m/s | -41°C | 2.5% | 10.9hPa | 2.6V | 03:14:00 | 02:01:31 | 00:00:00 | |
| DL1XH-west | 2026-08-31 12:34:00 | 50.17208 | 8.67620 | 118° | 16km/h | 30889m | 5.9m/s | -41°C | 0% | 10.9hPa | 2.6V | 03:14:49 | 02:01:31 | 00:00:00 | |
| AA1-15 | 2026-08-31 12:33:59 | 50.17211 | 8.67610 | 123° | 11km/h | 30877m | 5.9m/s | -40.9°C | 0% | 10.9hPa | 2.7V | 03:14:49 | 02:01:29 | 00:00:00 | |
| DB0ND-19 | 2026-08-31 12:33:58 | 50.17213 | 8.67607 | 125° | 11km/h | 30871m | 5.3m/s | -40.9°C | 0.7% | 10.9hPa | 2.6V | 00:00:00 | 00:00:00 | 00:00:00 | |
| GOEST3-10 | 2026-08-31 12:33:57 | 50.17213 | 8.67606 | 126° | 13km/h | 30871m | 5.2m/s | -40.8°C | 2.4% | 10.9hPa | 2.6V | 00:00:00 | 02:01:28 | 00:00:00 | |
| DL1NUX | 2026-08-31 12:33:55 | 50.17221 | 8.67589 | 127° | 16km/h | 30848m | 5.3m/s | -40.7°C | 2.4% | 11hPa | 2.6V | 03:14:07 | 02:01:24 | 00:00:00 | |
| BIOWL1-15 | 2026-08-31 12:33:55 | 50.17221 | 8.67589 | 128° | 16km/h | 30848m | 5.3m/s | -40.7°C | 0% | 11hPa | 2.6V | 03:14:49 | 02:01:24 | 00:00:00 | |
| HSKMA3-T | 2026-08-31 12:33:52 | 50.17226 | 8.67581 | 143° | 11km/h | 30838m | 5.6m/s | -40.9°C | 0% | 11hPa | 2.7V | 03:14:49 | 02:01:22 | 00:00:00 | |
| DL1XH1-15 | 2026-08-31 12:33:51 | 50.17228 | 8.67579 | 159° | 9km/h | 30831m | 6.7m/s | -41°C | 2.4% | 11hPa | 2.7V | 03:14:10 | 02:01:21 | 00:00:00 | |
| DL1XH-west | 2026-08-31 12:33:50 | 50.17228 | 8.67579 | 159° | 9km/h | 30831m | 6.7m/s | -41°C | 0% | 11hPa | 2.7V | 03:14:49 | 02:01:21 | 00:00:00 | |
| AA1-15 | 2026-08-31 12:33:48 | 50.17232 | 8.67578 | 163° | 5km/h | 30820m | 4.9m/s | -41.2°C | 0% | 11hPa | 2.6V | 03:14:49 | 02:01:19 | 00:00:00 | |
| DL1NUX | 2026-08-31 12:33:48 | 50.17237 | 8.67546 | 99° | 29km/h | 30792m | 4.4m/s | -41.6°C | 2.6% | 11.1hPa | 2.6V | 03:14:17 | 02:01:14 | 00:00:00 | |
| DF8AY | 2026-08-31 12:33:48 | 50.17233 | 8.67577 | 124° | 7km/h | 30815m | 4.7m/s | -41.2°C | 0% | 11hPa | 2.6V | 03:17:22 | 02:01:18 | 00:00:00 | |
| HTAHTA | 2026-08-31 12:33:46 | 50.17235 | 8.67566 | 101° | 20km/h | 30803m | 6.7m/s | -41.3°C | 0.7% | 11.1hPa | 2.7V | 00:00:00 | 00:00:00 | 00:00:00 | |
| DL1XH1-15 | 2026-08-31 12:33:45 | 50.17241 | 8.67520 | 117° | 16km/h | 30776m | 6.2m/s | -41.8°C | 2.6% | 11.1hPa | 2.7V | 03:14:20 | 02:01:11 | 00:00:00 | |
| BIOWL1-15 | 2026-08-31 12:33:42 | 50.17238 | 8.67536 | 102° | 27km/h | 30787m | 4.7m/s | -41.7°C | 0% | 11.1hPa | 2.6V | 03:14:49 | 02:01:13 | 00:00:00 | |
| HSKMA3-T | 2026-08-31 12:33:40 | 50.17241 | 8.67520 | 117° | 16km/h | 30776m | 6.2m/s | -41.8°C | 0% | 11.1hPa | 2.7V | 03:14:49 | 02:01:11 | 00:00:00 | |
| DL1XH-west | 2026-08-31 12:33:39 | 50.17243 | 8.67515 | 139° | 11km/h | 30770m | 5.7m/s | -41.8°C | 0% | 11.1hPa | 2.6V | 03:14:49 | 02:01:10 | 00:00:00 | |
| AA1-15 | 2026-08-31 12:33:38 | 50.17249 | 8.67511 | 158° | 13km/h | 30759m | 5.3m/s | -41.8°C | 0% | 11.1hPa | 2.7V | 03:14:49 | 02:01:08 | 00:00:00 | |
| GOEST3-10 | 2026-08-31 12:33:37 | 50.17249 | 8.67511 | 158° | 16km/h | 30760m | 5.2m/s | -41.7°C | 2.7% | 11.1hPa | 2.7V | 00:00:00 | 02:01:08 | 00:00:00 | |
| DL1XH-15 | 2026-08-31 12:33:35 | 50.17268 | 8.67474 | 108° | 15km/h | 30720m | 6.1m/s | -42.1°C | 2.8% | 11.2hPa | 2.7V | 03:14:30 | 02:01:01 | 00:00:00 | |
| DF8AY | 2026-08-31 12:33:33 | 50.17261 | 8.67493 | 123° | 20km/h | 30737m | 5.1m/s | -42.1°C | 0% | 11.2hPa | 2.6V | 03:17:22 | 02:01:04 | 00:00:00 | |
| BIOWL1-15 | 2026-08-31 12:33:32 | 50.17264 | 8.67486 | 118° | 20km/h | 30732m | 5.2m/s | -42.2°C | 0.1% | 11.2hPa | 2.6V | 03:14:49 | 02:01:03 | 00:00:00 | |
| HSKMA3-T | 2026-08-31 12:33:30 | 50.17267 | 8.67474 | 108° | 15km/h | 30720m | 6.1m/s | -42.2°C | 0% | 11.2hPa | 2.7V | 03:14:49 | 02:01:01 | 00:00:00 | |
| DL1XH-west | 2026-08-31 12:33:29 | 50.17268 | 8.67468 | 98° | 15km/h | 30714m | 5.4m/s | -42.1°C | 0% | 11.2hPa | 2.7V | 03:14:49 | 02:01:00 | 00:00:00 | |
| AA1-15 | 2026-08-31 12:33:28 | 50.17269 | 8.67455 | 93° | 20km/h | 30704m | 5.3m/s | -42.2°C | 0% | 11.2hPa | 2.6V | 03:14:49 | 02:00:58 | 00:00:00 | |
| DM0DOS-11 | 2026-08-31 12:33:27 | 50.17276 | 8.67406 | 117° | 22km/h | 30677m | 6.3m/s | -42.3°C | 2.8% | 11.3hPa | 2.6V | 03:14:38 | 02:00:53 | 00:00:00 | |
| DB0ND-19 | 2026-08-31 12:33:27 | 50.17269 | 8.67446 | 94° | 24km/h | 30698m | 6.4m/s | -42.3°C | 0.8% | 11.2hPa | 2.7V | 00:00:00 | 00:00:00 | 00:00:00 | |
| DL1XH1-15 | 2026-08-31 12:33:25 | 50.17285 | 8.67394 | 160° | 15km/h | 30658m | 5.2m/s | -42.2°C | 2.7% | 11.3hPa | 2.7V | 03:14:41 | 02:00:50 | 00:00:00 | |
| DF8AY | 2026-08-31 12:33:23 | 50.17274 | 8.67414 | 110° | 26km/h | 30682m | 4.6m/s | -42.4°C | 0% | 11.2hPa | 2.7V | 03:17:22 | 02:00:54 | 00:00:00 | |
| BIOWL1-15 | 2026-08-31 12:33:22 | 50.17276 | 8.67406 | 118° | 22km/h | 30677m | 6.3m/s | -42.3°C | 0% | 11.3hPa | 2.6V | 03:14:49 | 02:00:53 | 00:00:00 | |
| HSKMA3-T | 2026-08-31 12:33:19 | 50.17285 | 8.67394 | 160° | 15km/h | 30658m | 5.2m/s | -42.2°C | 0% | 11.3hPa | 2.7V | 03:14:49 | 02:00:50 | 00:00:00 | |
| DL1XH-west | 2026-08-31 12:33:18 | 50.17288 | 8.67392 | 156° | 16km/h | 30653m | 5.2m/s | -42.3°C | 0% | 11.3hPa | 2.6V | 03:14:49 | 02:00:49 | 00:00:00 | |
| AA1-15 | 2026-08-31 12:33:17 | 50.17292 | 8.67388 | 145° | 18km/h | 30648m | 6m/s | -42.3°C | 0% | 11.3hPa | 2.6V | 03:14:49 | 02:00:48 | 00:00:00 | |
| GOEST3-10 | 2026-08-31 12:33:17 | 50.17292 | 8.67388 | 146° | 22km/h | 30648m | 6.0m/s | -42.3°C | 2.7% | 11.3hPa | 2.7V | 00:00:00 | 02:00:48 | 00:00:00 | |
| HEMX73-6 | 2026-08-31 12:33:16 | 50.17296 | 8.67383 | 134° | 24km/h | 30642m | 5.6m/s | -42.3°C | 2.8% | 11.3hPa | 2.7V | 00:00:00 | 02:00:47 | 00:00:00 | |
| DO3DL | 2026-08-31 12:33:15 | 50.17296 | 8.67383 | 135° | 22km/h | 30642m | 5.7m/s | -42.3°C | 0.8% | 11.3hPa | 2.6V | 03:14:00 | 00:00:00 | 00:00:00 | |
| DL1NUX | 2026-08-31 12:33:14 | 50.17305 | 8.67361 | 114° | 22km/h | 30625m | 6.5m/s | -42.1°C | 2.8% | 11.4hPa | 2.6V | 03:14:47 | 02:00:44 | 00:00:00 | |
| DF8AY | 2026-08-31 12:33:12 | 50.17307 | 8.67353 | 112° | 20km/h | 30619m | 5.9m/s | -42.1°C | 0% | 11.4hPa | 2.6V | 03:17:22 | 02:00:43 | 00:00:00 | |
| DL1XH-west | 2026-08-31 12:33:08 | 50.17315 | 8.67326 | 123° | 24km/h | 30597m | 6.4m/s | -42.4°C | 0% | 11.4hPa | 2.7V | 03:15:40 | 02:00:39 | 00:00:00 | |
| AA1-15 | 2026-08-31 12:33:07 | 50.17323 | 8.67310 | 133° | 27km/h | 30585m | 5.3m/s | -42.4°C | 0% | 11.4hPa | 2.6V | 03:15:40 | 02:00:37 | 00:00:00 | |
| GOEST3-10 | 2026-08-31 12:33:07 | 50.17319 | 8.67318 | 127° | 24km/h | 30591m | 6.0m/s | -42.4°C | 2.7% | 11.3hPa | 2.6V | 00:00:00 | 02:00:38 | 00:00:00 | |
| DL1NUX | 2026-08-31 12:33:04 | 50.17337 | 8.67293 | 151° | 18km/h | 30568m | 6m/s | -42.5°C | 2.7% | 11.4hPa | 2.7V | 03:14:57 | 02:00:34 | 00:00:00 | |
| DF8AY | 2026-08-31 12:33:01 | 50.17348 | 8.67205 | 110° | 24km/h | 30514m | 5m/s | -42.7°C | 0% | 11.5hPa | 2.7V | 03:17:22 | 02:00:24 | 00:00:00 | |
| BUE01 | 2026-08-31 12:33:00 | 50.17344 | 8.67282 | 105° | 15km/h | 30553m | 5.6m/s | -42.6°C | -1.0% | -1.0hPa | 2.7V | 00:00:00 | 00:00:00 | 00:00:00 | |
| DL1XH1-15 | 2026-08-31 12:32:58 | 50.17345 | 8.67264 | 89° | 29km/h | 30541m | 5.8m/s | -42.6°C | 2.8% | 11.5hPa | 2.7V | 03:15:02 | 02:00:29 | 00:00:00 | |
| BIOWL1-15 | 2026-08-31 12:32:57 | 50.17346 | 8.67215 | 100° | 27km/h | 30519m | 5.7m/s | -42.7°C | 0% | 11.5hPa | 2.7V | 03:15:40 | 02:00:25 | 00:00:00 | |
| DL1XH-west | 2026-08-31 12:32:57 | 50.17345 | 8.67252 | 89° | 33km/h | 30535m | 5m/s | -42.6°C | 0% | 11.5hPa | 2.6V | 03:15:40 | 02:00:28 | 00:00:00 | |
| DL1ZP-14 | 2026-08-31 12:32:56 | 50.17366 | 8.67149 | 104° | 27km/h | 30482m | 4.5m/s | -42.7°C | 0.8% | 11.6hPa | 2.7V | 00:00:00 | 00:00:00 | 00:00:00 | |
| DM0DOS-11 | 2026-08-31 12:32:55 | 50.17350 | 8.67197 | 118° | 24km/h | 30509m | 5.1m/s | -42.7°C | 2.8% | 11.6hPa | 2.6V | 03:15:08 | 02:00:23 | 00:00:00 | |
| AA1-15 | 2026-08-31 12:32:55 | 50.17345 | 8.67226 | 93° | 31km/h | 30525m | 6.1m/s | -42.6°C | 0% | 11.5hPa | 2.7V | 03:15:40 | 02:00:26 | 00:00:00 | |
| DL1NUX | 2026-08-31 12:32:54 | 50.17348 | 8.67205 | 110° | 24km/h | 30514m | 5m/s | -42.7°C | 2.8% | 11.5hPa | 2.7V | 03:15:07 | 02:00:24 | 00:00:00 | |
| DL3AQ-11 | 2026-08-31 12:32:54 | 50.17348 | 8.67205 | 110° | 24km/h | 30514m | 5.0m/s | -42.7°C | 0.8% | 11.5hPa | 2.7V | 00:00:00 | 00:00:00 | 00:00:00 | |
| DL9SK-14 | 2026-08-31 12:32:53 | 50.17350 | 8.67197 | 118° | 22km/h | 30509m | 5.1m/s | -42.7°C | 0.8% | 11.6hPa | 2.7V | 00:00:00 | 00:00:00 | 00:00:00 | |
| SONCRA | 2026-08-31 12:32:52 | 50.17350 | 8.67197 | 118° | 22km/h | 30509m | 5.1m/s | -42.7°C | 0.8% | 11.6hPa | 2.7V | 00:00:00 | 00:00:00 | 00:00:00 | |
| EDDB2-11 | 2026-08-31 12:32:50 | 50.17360 | 8.67171 | 118° | 27km/h | 30492m | 5.7m/s | -42.7°C | 0.8% | 11.6hPa | 2.7V | 00:00:00 | 00:00:00 | 00:00:00 | |
| DL1NUX | 2026-08-31 12:32:49 | 50.17365 | 8.67115 | 66° | 18km/h | 30460m | 5m/s | -43°C | 2.8% | 11.6hPa | 2.7V | 03:15:17 | 02:00:14 | 00:00:00 | |
| BIOWL1-15 | 2026-08-31 12:32:48 | 50.17366 | 8.67149 | 104° | 27km/h | 30482m | 4.5m/s | -42.7°C | 0% | 11.6hPa | 2.7V | 03:15:40 | 02:00:18 | 00:00:00 | |
| DL1XH-west | 2026-08-31 12:32:48 | 50.17367 | 8.67139 | 95° | 26km/h | 30477m | 4.8m/s | -42.8°C | 0% | 11.6hPa | 2.6V | 03:15:40 | 02:00:17 | 00:00:00 | |
| DF8AY | 2026-08-31 12:32:44 | 50.17362 | 8.67107 | 68° | 22km/h | 30455m | 4.5m/s | -42.9°C | 0% | 11.6hPa | 2.7V | 03:17:22 | 02:00:13 | 00:00:00 | |
| DM0DOS-11 | 2026-08-31 12:32:44 | 50.17362 | 8.67107 | 68° | 22km/h | 30455m | 4.5m/s | -42.9°C | 2.7% | 11.6hPa | 2.7V | 03:15:18 | 02:00:13 | 00:00:00 | |
| AA1-15 | 2026-08-31 12:32:44 | 50.17366 | 8.67122 | 76° | 20km/h | 30465m | 6.1m/s | -43°C | 0% | 11.6hPa | 2.6V | 03:15:40 | 02:00:15 | 00:00:00 | |
| DL8DAS-14 | 2026-08-31 12:32:44 | 50.17364 | 8.67115 | 66° | 18km/h | 30460m | 5.0m/s | -43.0°C | 0.8% | 11.6hPa | 2.7V | 00:00:00 | 00:00:00 | 00:00:00 | |
| DO9LL-15 | 2026-08-31 12:32:43 | 50.17364 | 8.67115 | 67° | 29km/h | 30460m | 5.0m/s | -42.9°C | 2.8% | 11.6hPa | 2.7V | 00:00:00 | 02:00:14 | 00:00:00 | |
| GOEST3-10 | 2026-08-31 12:32:42 | 50.17362 | 8.67107 | 69° | 31km/h | 30455m | 4.5m/s | -42.8°C | 2.7% | 11.6hPa | 2.7V | 00:00:00 | 00:00:00 | 00:00:00 | |
| DL1XH1-15 | 2026-08-31 12:32:41 | 50.17357 | 8.67060 | 89° | 38km/h | 30433m | 4.7m/s | -43.1°C | 2.8% | 11.7hPa | 2.7V | 03:15:22 | 02:00:09 | 00:00:00 | |
| DD8BA-10 | 2026-08-31 12:32:40 | 50.17359 | 8.67088 | 79° | 27km/h | 30445m | 6.3m/s | -43.0°C | 2.8% | 11.6hPa | 2.6V | 03:15:00 | 00:00:00 | 00:00:00 | |
| DJ8HS-15 | 2026-08-31 12:32:39 | 50.17358 | 8.67074 | 85° | 29km/h | 30439m | 5.6m/s | -43.0°C | 2.8% | 11.6hPa | 2.6V | 00:00:00 | 02:00:10 | 00:00:00 | |
| HEMX73-11 | 2026-08-31 12:32:38 | 50.17358 | 8.67074 | 85° | 37km/h | 30439m | 5.7m/s | -43.1°C | 0.8% | 11.7hPa | 2.7V | 03:15:00 | 00:00:00 | 00:00:00 | |
| DM0DOS-11 | 2026-08-31 12:32:37 | 50.17362 | 8.67000 | 89° | 16km/h | 30403m | 4.3m/s | -43°C | 2.7% | 11.7hPa | 2.7V | 03:15:28 | 02:00:03 | 00:00:00 | |
| BIOWL1-15 | 2026-08-31 12:32:36 | 50.17362 | 8.66993 | 80° | 20km/h | 30398m | 5m/s | -42.9°C | 0% | 11.7hPa | 2.6V | 03:15:40 | 02:00:02 | 00:00:00 | |
| HSKMA3-T | 2026-08-31 12:32:36 | 50.17358 | 8.67032 | 98° | 31km/h | 30424m | 5.5m/s | -43°C | 0% | 11.7hPa | 2.6V | 03:15:40 | 02:00:07 | 00:00:00 | |
| DO3DL | 2026-08-31 12:32:35 | 50.17358 | 8.67032 | 99° | 31km/h | 30424m | 5.5m/s | -43.0°C | 0.8% | 11.7hPa | 2.7V | 03:15:00 | 00:00:00 | 00:00:00 | |
| DL1NUX | 2026-08-31 12:32:34 | 50.17362 | 8.67006 | 101° | 16km/h | 30407m | 4.6m/s | -43°C | 2.7% | 11.7hPa | 2.7V | 03:15:27 | 02:00:04 | 00:00:00 | |
| AA1-15 | 2026-08-31 12:32:33 | 50.17362 | 8.67006 | 101° | 16km/h | 30407m | 4.6m/s | -43°C | 0% | 11.7hPa | 2.7V | 03:15:40 | 02:00:04 | 00:00:00 | |
| SONDE2-11 | 2026-08-31 12:32:33 | 50.17362 | 8.67006 | 101° | 15km/h | 30408m | 4.6m/s | -43.0°C | 0.8% | 11.7hPa | 2.7V | 00:00:00 | 00:00:00 | 00:00:00 | |
| GOEST3-10 | 2026-08-31 12:32:32 | 50.17362 | 8.66999 | 90° | 26km/h | 30403m | 4.2m/s | -42.9°C | 2.7% | 11.7hPa | 2.7V | 03:15:00 | 00:00:00 | 00:00:00 | |
| DL1XH1-15 | 2026-08-31 12:32:30 | 50.17356 | 8.66960 | 72° | 37km/h | 30382m | 5.1m/s | -43°C | 2.7% | 11.8hPa | 2.7V | 03:15:32 | 01:59:59 | 00:00:00 | |
| DD8BA-10 | 2026-08-31 12:32:30 | 50.17360 | 8.66984 | 76° | 33km/h | 30393m | 5.8m/s | -42.8°C | 2.7% | 11.7hPa | 2.6V | 00:00:00 | 00:00:00 | 00:00:00 | |
| BUE01 | 2026-08-31 12:32:29 | 50.17359 | 8.66973 | 74° | 31km/h | 30387m | 5.8m/s | -42.9°C | -1.0% | -1.0hPa | 2.6V | 00:00:00 | 00:00:00 | 00:00:00 | |
| DL1NUX | 2026-08-31 12:32:28 | 50.17342 | 8.66898 | 70° | 27km/h | 30355m | 4.8m/s | -43.2°C | 2.8% | 11.8hPa | 2.6V | 03:15:37 | 01:59:54 | 00:00:00 | |
| BIOWL1-15 | 2026-08-31 12:32:26 | 50.17350 | 8.66932 | 70° | 37km/h | 30371m | 5.7m/s | -43°C | 0% | 11.8hPa | 2.7V | 03:15:40 | 01:59:57 | 00:00:00 | |
| DM0DOS-11 | 2026-08-31 12:32:26 | 50.17340 | 8.66888 | 71° | 27km/h | 30350m | 5.7m/s | -43.3°C | 2.8% | 11.8hPa | 2.7V | 03:15:38 | 01:59:53 | 00:00:00 | |
| DL1XH-west | 2026-08-31 12:32:25 | 50.17347 | 8.66920 | 69° | 33km/h | 30366m | 5.8m/s | -43°C | 0% | 11.8hPa | 2.6V | 03:15:40 | 01:59:56 | 00:00:00 | |
| DF8AY | 2026-08-31 12:32:23 | 50.17338 | 8.66878 | 73° | 29km/h | 30344m | 5.8m/s | -43.3°C | 0% | 11.8hPa | 2.7V | 03:17:22 | 01:59:52 | 00:00:00 | |
| AA1-15 | 2026-08-31 12:32:23 | 50.17340 | 8.66888 | 72° | 27km/h | 30350m | 5.7m/s | -43.3°C | 0% | 11.8hPa | 2.7V | 03:15:40 | 01:59:53 | 00:00:00 | |
| HSKMA3-T | 2026-08-31 12:32:16 | 50.17323 | 8.66828 | 51° | 27km/h | 30318m | 5.1m/s | -43.5°C | 0.1% | 11.9hPa | 2.7V | 03:16:31 | 01:59:47 | 00:00:00 | |
| BIOWL1-15 | 2026-08-31 12:32:16 | 50.17288 | 8.66736 | 61° | 40km/h | 30283m | 5.8m/s | -43.7°C | 0% | 11.9hPa | 2.7V | 03:16:31 | 01:59:40 | 00:00:00 | |
| DM0DOS-11 | 2026-08-31 12:32:15 | 50.17303 | 8.66782 | 61° | 44km/h | 30297m | 5.6m/s | -43.7°C | 2.8% | 11.9hPa | 2.7V | 03:15:48 | 01:59:43 | 00:00:00 | |
| DL1XH-west | 2026-08-31 12:32:14 | 50.17313 | 8.66809 | 55° | 35km/h | 30309m | 4.8m/s | -43.6°C | 0.1% | 11.9hPa | 2.6V | 03:16:31 | 01:59:45 | 00:00:00 | |
| DL3AQ-11 | 2026-08-31 12:32:14 | 50.17308 | 8.66797 | 58° | 38km/h | 30304m | 6.3m/s | -43.7°C | 0.8% | 11.9hPa | 2.7V | 00:00:00 | 00:00:00 | 00:00:00 | |
| HTAHTA | 2026-08-31 12:32:13 | 50.17303 | 8.66782 | 61° | 44km/h | 30298m | 5.6m/s | -43.7°C | 0.8% | 11.9hPa | 2.7V | 00:00:00 | 00:00:00 | 00:00:00 | |
| GOEST3-10 | 2026-08-31 12:32:12 | 50.17303 | 8.66782 | 62° | 40km/h | 30298m | 5.5m/s | -43.7°C | 2.8% | 11.9hPa | 2.7V | 03:15:00 | 00:00:00 | 00:00:00 | |
| DL1XH1-15 | 2026-08-31 12:32:11 | 50.17283 | 8.66723 | 57° | 35km/h | 30277m | 5.8m/s | -43.8°C | 2.8% | 11.9hPa | 2.7V | 03:15:52 | 01:59:39 | 00:00:00 | |
| DF8AY | 2026-08-31 12:32:11 | 50.17293 | 8.66751 | 63° | 44km/h | 30288m | 4.4m/s | -43.6°C | 0.1% | 11.9hPa | 2.6V | 03:17:22 | 01:59:41 | 00:00:00 | |
| AA1-15 | 2026-08-31 12:32:11 | 50.17298 | 8.66766 | 64° | 46km/h | 30293m | 4.5m/s | -43.6°C | 0.1% | 11.9hPa | 2.6V | 03:16:31 | 01:59:42 | 00:00:00 | |
| HSKMA3-T | 2026-08-31 12:32:05 | 50.17270 | 8.66695 | 59° | 27km/h | 30261m | 5.6m/s | -43.7°C | 0% | 12hPa | 2.6V | 03:16:31 | 01:59:36 | 00:00:00 | |
| DM0DOS-11 | 2026-08-31 12:32:04 | 50.17260 | 8.66664 | 65° | 29km/h | 30246m | 4.4m/s | -43.8°C | 2.8% | 12hPa | 2.7V | 03:15:58 | 01:59:33 | 00:00:00 | |
| DL1XH-west | 2026-08-31 12:32:03 | 50.17264 | 8.66675 | 66° | 29km/h | 30250m | 4.9m/s | -43.8°C | 0% | 12hPa | 2.7V | 03:16:31 | 01:59:34 | 00:00:00 | |
| AA1-15 | 2026-08-31 12:32:01 | 50.17251 | 8.66635 | 61° | 26km/h | 30230m | 5.3m/s | -43.9°C | 0% | 12hPa | 2.6V | 03:16:31 | 01:59:30 | 00:00:00 | |
| DF8AY | 2026-08-31 12:32:00 | 50.17248 | 8.66626 | 63° | 26km/h | 30225m | 4.3m/s | -44°C | 0% | 12.1hPa | 2.6V | 03:17:22 | 01:59:29 | 00:00:00 | |
| HSKMA3-T | 2026-08-31 12:31:54 | 50.17238 | 8.66578 | 77° | 37km/h | 30204m | 4.8m/s | -44.3°C | 0.1% | 12.1hPa | 2.6V | 03:16:31 | 01:59:25 | 00:00:00 | |
| DM0DOS-11 | 2026-08-31 12:31:54 | 50.17233 | 8.66552 | 69° | 31km/h | 30195m | 5.5m/s | -44.4°C | 2.9% | 12.1hPa | 2.7V | 03:16:08 | 01:59:23 | 00:00:00 | |
| DL1XH-west | 2026-08-31 12:31:52 | 50.17233 | 8.66552 | 69° | 31km/h | 30195m | 5.5m/s | -44.4°C | 0.1% | 12.1hPa | 2.7V | 03:16:31 | 01:59:23 | 00:00:00 | |
| AA1-15 | 2026-08-31 12:31:50 | 50.17227 | 8.66534 | 50° | 22km/h | 30184m | 4.8m/s | -44.4°C | 0.1% | 12.1hPa | 2.6V | 03:16:31 | 01:59:21 | 00:00:00 | |
| DF8AY | 2026-08-31 12:31:48 | 50.17219 | 8.66521 | 47° | 24km/h | 30175m | 4.6m/s | -44.5°C | 0.1% | 12.2hPa | 2.7V | 03:17:22 | 01:59:19 | 00:00:00 | |
| GOEST3-10 | 2026-08-31 12:31:47 | 50.17215 | 8.66514 | 53° | 35km/h | 30170m | 5.6m/s | -44.5°C | 2.9% | 12.1hPa | 2.7V | 00:00:00 | 01:59:18 | 00:00:00 | |
| DM0DOS-11 | 2026-08-31 12:31:44 | 50.17191 | 8.66453 | 55° | 38km/h | 30144m | 5.7m/s | -44.9°C | 3% | 12.2hPa | 2.7V | 03:16:18 | 01:59:13 | 00:00:00 | |
| HSKMA3-T | 2026-08-31 12:31:43 | 50.17196 | 8.66466 | 59° | 40km/h | 30149m | 5.5m/s | -44.8°C | 0.2% | 12.2hPa | 2.6V | 03:16:31 | 01:59:14 | 00:00:00 | |
| BIOWL1-15 | 2026-08-31 12:31:41 | 50.17185 | 8.66441 | 51° | 38km/h | 30138m | 5m/s | -45°C | 0.3% | 12.2hPa | 2.7V | 03:16:31 | 01:59:12 | 00:00:00 | |
| DL1XH1-15 | 2026-08-31 12:31:41 | 50.17165 | 8.66404 | 49° | 44km/h | 30124m | 5.7m/s | -45.2°C | 3% | 12.2hPa | 2.6V | 03:16:22 | 01:59:09 | 00:00:00 | |
| AA1-15 | 2026-08-31 12:31:39 | 50.17165 | 8.66404 | 50° | 44km/h | 30124m | 5.7m/s | -45.2°C | 0.2% | 12.3hPa | 2.6V | 03:16:31 | 01:59:09 | 00:00:00 | |
| DF8AY | 2026-08-31 12:31:36 | 50.17152 | 8.66378 | 53° | 42km/h | 30114m | 4.1m/s | -45.3°C | 0.2% | 12.2hPa | 2.7V | 03:17:22 | 01:59:07 | 00:00:00 | |
| DL1NUX | 2026-08-31 12:31:35 | 50.17138 | 8.66348 | 53° | 20km/h | 30100m | 6.5m/s | -45.2°C | 3% | 12.3hPa | 2.6V | 03:16:27 | 01:59:04 | 00:00:00 | |
| DL1XH1-15 | 2026-08-31 12:31:34 | 50.17130 | 8.66323 | 68° | 24km/h | 30075m | 5.8m/s | -45°C | 3% | 12.3hPa | 2.7V | 03:16:32 | 01:58:59 | 00:00:00 | |
| HSKMA3-T | 2026-08-31 12:31:33 | 50.17138 | 8.66348 | 54° | 20km/h | 30100m | 6.5m/s | -45.2°C | 0.2% | 12.3hPa | 2.6V | 03:16:31 | 01:59:04 | 00:00:00 | |
| BIOWL1-15 | 2026-08-31 12:31:33 | 50.17134 | 8.66340 | 65° | 9km/h | 30088m | 4.5m/s | -45.2°C | 0.2% | 12.3hPa | 2.6V | 03:16:31 | 01:59:02 | 00:00:00 | |
| DL1XH-west | 2026-08-31 12:31:30 | 50.17133 | 8.66336 | 72° | 11km/h | 30084m | 3.8m/s | -45.1°C | 0.2% | 12.3hPa | 2.7V | 03:16:31 | 01:59:01 | 00:00:00 | |
| DL1NUX | 2026-08-31 12:31:28 | 50.17104 | 8.66269 | 37° | 37km/h | 30048m | 5.1m/s | -45.4°C | 3% | 12.4hPa | 2.6V | 03:16:37 | 01:58:54 | 00:00:00 | |
| AA1-15 | 2026-08-31 12:31:28 | 50.17130 | 8.66323 | 69° | 24km/h | 30075m | 5.8m/s | -45°C | 0.2% | 12.3hPa | 2.7V | 03:17:22 | 01:58:59 | 00:00:00 | |
| DF8AY | 2026-08-31 12:31:26 | 50.17123 | 8.66302 | 58° | 37km/h | 30064m | 5m/s | -45.1°C | 0.2% | 12.3hPa | 2.6V | 03:17:22 | 01:58:57 | 00:00:00 | |
| HSKMA3-T | 2026-08-31 12:31:22 | 50.17097 | 8.66261 | 31° | 33km/h | 30043m | 4.5m/s | -45.4°C | 0.2% | 12.4hPa | 2.6V | 03:17:22 | 01:58:53 | 00:00:00 | |
| BIOWL1-15 | 2026-08-31 12:31:21 | 50.17078 | 8.66244 | 32° | 26km/h | 30029m | 5.2m/s | -45.3°C | 0.2% | 12.4hPa | 2.7V | 03:17:22 | 01:58:50 | 00:00:00 | |
| DL1XH1-15 | 2026-08-31 12:31:20 | 50.17073 | 8.66239 | 36° | 20km/h | 30024m | 4.7m/s | -45.3°C | 3% | 12.4hPa | 2.6V | 03:16:42 | 01:58:49 | 00:00:00 | |
| DL1XH-west | 2026-08-31 12:31:20 | 50.17084 | 8.66249 | 29° | 27km/h | 30034m | 5.2m/s | -45.4°C | 0.2% | 12.4hPa | 2.7V | 03:17:22 | 01:58:51 | 00:00:00 | |
| AA1-15 | 2026-08-31 12:31:18 | 50.17069 | 8.66235 | 38° | 16km/h | 30019m | 4.7m/s | -45.3°C | 0.2% | 12.4hPa | 2.6V | 03:17:22 | 01:58:48 | 00:00:00 | |
| DF8AY | 2026-08-31 12:31:15 | 50.17064 | 8.66229 | 25° | 9km/h | 30008m | 6.1m/s | -45.4°C | 0.2% | 12.4hPa | 2.7V | 03:17:22 | 01:58:46 | 00:00:00 | |
| DO3DL | 2026-08-31 12:31:14 | 50.17064 | 8.66229 | 26° | 9km/h | 30008m | 6.1m/s | -45.4°C | 0.9% | 12.4hPa | 2.6V | 03:17:00 | 00:00:00 | 00:00:00 | |
| DM0DOS-11 | 2026-08-31 12:31:13 | 50.17058 | 8.66222 | 52° | 15km/h | 29994m | 4.8m/s | -45.4°C | 3.1% | 12.5hPa | 2.6V | 03:16:48 | 01:58:43 | 00:00:00 | |
| DL1XH-15 | 2026-08-31 12:31:12 | 50.17043 | 8.66188 | 47° | 33km/h | 29973m | 4.1m/s | -45.6°C | 3% | 12.5hPa | 2.7V | 03:16:52 | 01:58:39 | 00:00:00 | |
| HSKMA3-T | 2026-08-31 12:31:12 | 50.17055 | 8.66216 | 60° | 22km/h | 29988m | 6.2m/s | -45.4°C | 0.2% | 12.5hPa | 2.6V | 03:17:22 | 01:58:42 | 00:00:00 | |
| DL1XH-west | 2026-08-31 12:31:09 | 50.17048 | 8.66198 | 55° | 33km/h | 29977m | 4.2m/s | -45.5°C | 0.2% | 12.5hPa | 2.7V | 03:17:22 | 01:58:40 | 00:00:00 | |
| AA1-15 | 2026-08-31 12:31:08 | 50.17037 | 8.66179 | 38° | 31km/h | 29969m | 5.8m/s | -45.6°C | 0.2% | 12.6hPa | 2.7V | 03:17:22 | 01:58:38 | 00:00:00 | |
| DF8AY | 2026-08-31 12:31:04 | 50.17019 | 8.66168 | 5° | 20km/h | 29953m | 4.2m/s | -45.8°C | 0.3% | 12.6hPa | 2.6V | 03:17:22 | 01:58:35 | 00:00:00 | |
| HSKMA3-T | 2026-08-31 12:31:00 | 50.17011 | 8.66161 | 95° | 11km/h | 29933m | 4.7m/s | -45.5°C | 0.3% | 12.6hPa | 2.6V | 03:17:22 | 01:58:31 | 00:00:00 | |
| BIOWL1-15 | 2026-08-31 12:30:59 | 50.17011 | 8.66156 | 99° | 13km/h | 29928m | 4.7m/s | -45.6°C | 0.2% | 12.6hPa | 2.6V | 03:17:22 | 01:58:30 | 00:00:00 | |
| DL1XH-west | 2026-08-31 12:30:58 | 50.17011 | 8.66151 | 95° | 13km/h | 29923m | 5.2m/s | -45.6°C | 0.2% | 12.6hPa | 2.7V | 03:17:22 | 01:58:29 | 00:00:00 | |
| DM0DOS-11 | 2026-08-31 12:30:58 | 50.17003 | 8.66127 | 67° | 15km/h | 29886m | 5.6m/s | -46°C | 3.1% | 12.7hPa | 2.6V | 03:17:09 | 01:58:22 | 00:00:00 | |
| AA1-15 | 2026-08-31 12:30:56 | 50.17011 | 8.66143 | 67° | 9km/h | 29912m | 5.4m/s | -45.7°C | 0.2% | 12.7hPa | 2.6V | 03:17:22 | 01:58:27 | 00:00:00 | |
| DF8AY | 2026-08-31 12:30:54 | 50.17008 | 8.66138 | 43° | 9km/h | 29902m | 4.9m/s | -45.8°C | 0.2% | 12.7hPa | 2.7V | 03:17:22 | 01:58:25 | 00:00:00 | |
| DL4BBY-15 | 2026-08-31 12:30:54 | 50.17008 | 8.66138 | 43° | 15km/h | 29902m | 4.8m/s | -45.1°C | 0% | 0hPa | 2.7V | 00:00:00 | 00:00:00 | 00:00:00 | |
| DL1XH1-15 | 2026-08-31 12:30:53 | 50.16999 | 8.66112 | 58° | 11km/h | 29872m | 5m/s | -45.9°C | 3.1% | 12.7hPa | 2.7V | 03:17:12 | 01:58:19 | 00:00:00 | |
| HSKMA3-T | 2026-08-31 12:30:49 | 50.17001 | 8.66116 | 69° | 15km/h | 29876m | 4.2m/s | -45.9°C | 0.3% | 12.7hPa | 2.6V | 03:17:22 | 01:58:20 | 00:00:00 | |
| BIOWL1-15 | 2026-08-31 12:30:49 | 50.16998 | 8.66109 | 32° | 7km/h | 29866m | 6.3m/s | -45.9°C | 0.3% | 12.8hPa | 2.7V | 03:17:22 | 01:58:18 | 00:00:00 | |
| DL1XH-west | 2026-08-31 12:30:48 | 50.16999 | 8.66112 | 59° | 11km/h | 29872m | 5m/s | -45.9°C | 0.3% | 12.8hPa | 2.7V | 03:17:22 | 01:58:19 | 00:00:00 | |
| SONCRA | 2026-08-31 12:30:48 | 50.16998 | 8.66109 | 31° | 7km/h | 29866m | 6.3m/s | -45.9°C | 0.9% | 12.8hPa | 2.7V | 00:00:00 | 00:00:00 | 00:00:00 | |
| GOEST3-10 | 2026-08-31 12:30:47 | 50.16998 | 8.66109 | 32° | 7km/h | 29867m | 6.3m/s | -45.9°C | 3.1% | 12.7hPa | 2.7V | 00:00:00 | 01:58:18 | 00:00:00 | |
| DM0DOS-11 | 2026-08-31 12:30:46 | 50.16986 | 8.66101 | 65° | 18km/h | 29834m | 5.2m/s | -46.1°C | 3.2% | 12.8hPa | 2.7V | 03:17:19 | 01:58:12 | 00:00:00 | |
| AA1-15 | 2026-08-31 12:30:46 | 50.16996 | 8.66108 | 356° | 7km/h | 29860m | 5.7m/s | -45.9°C | 0.3% | 12.8hPa | 2.7V | 03:17:22 | 01:58:17 | 00:00:00 | |
| EDDB2-11 | 2026-08-31 12:30:45 | 50.16994 | 8.66109 | 344° | 7km/h | 29855m | 4.8m/s | -45.9°C | 0.9% | 12.7hPa | 2.6V | 00:00:00 | 00:00:00 | 00:00:00 | |
| DF8AY | 2026-08-31 12:30:43 | 50.16990 | 8.66109 | 29° | 9km/h | 29845m | 5.9m/s | -46°C | 0.3% | 12.8hPa | 2.6V | 03:17:22 | 01:58:14 | 00:00:00 | |
| GOEST3-10 | 2026-08-31 12:30:42 | 50.16988 | 8.66106 | 58° | 18km/h | 29840m | 5.8m/s | -46.0°C | 3.2% | 12.7hPa | 2.6V | 00:00:00 | 00:00:00 | 00:00:00 | |
| DL1XH1-15 | 2026-08-31 12:30:40 | 50.16978 | 8.66080 | 48° | 22km/h | 29817m | 6.3m/s | -46.3°C | 3.2% | 12.8hPa | 2.6V | 03:17:22 | 01:58:09 | 00:00:00 | |
| BIOWL1-15 | 2026-08-31 12:30:39 | 50.16971 | 8.66070 | 37° | 18km/h | 29806m | 4.9m/s | -46.4°C | 0.3% | 12.9hPa | 2.7V | 03:18:13 | 01:58:07 | 00:00:00 | |
| DL1XH-west | 2026-08-31 12:30:38 | 50.16979 | 8.66080 | 49° | 22km/h | 29818m | 6.3m/s | -46.3°C | 0.4% | 12.8hPa | 2.6V | 03:17:22 | 01:58:09 | 00:00:00 | |
| AA1-15 | 2026-08-31 12:30:35 | 50.16965 | 8.66062 | 49° | 15km/h | 29796m | 6.3m/s | -46.3°C | 0.3% | 12.9hPa | 2.7V | 03:18:13 | 01:58:05 | 00:00:00 | |
| DO1YAY-16 | 2026-08-31 12:30:35 | 50.16968 | 8.66066 | 39° | 15km/h | 29802m | 5.2m/s | -46.4°C | 0.9% | 12.8hPa | 2.6V | 00:00:00 | 00:00:00 | 00:00:00 | |
| HEMX73-11 | 2026-08-31 12:30:34 | 50.16968 | 8.66066 | 41° | 16km/h | 29802m | 5.2m/s | -46.4°C | 0.9% | 12.8hPa | 2.6V | 03:18:00 | 00:00:00 | 00:00:00 | |
| DL1XH1-15 | 2026-08-31 12:30:33 | 50.16952 | 8.66045 | 5° | 18km/h | 29762m | 5.3m/s | -46.3°C | 3.1% | 12.9hPa | 2.6V | 03:17:32 | 01:57:59 | 00:00:00 | |
| DF8AY | 2026-08-31 12:30:33 | 50.16947 | 8.66043 | 10° | 22km/h | 29757m | 4.4m/s | -46.4°C | 0.3% | 13hPa | 2.7V | 03:18:13 | 01:57:58 | 00:00:00 | |
| GOEST3-10 | 2026-08-31 12:30:32 | 50.16962 | 8.66053 | 65° | 13km/h | 29785m | 4.9m/s | -46.2°C | 3.1% | 12.8hPa | 2.6V | 03:17:00 | 00:00:00 | 00:00:00 | |
| DF2AP-13 | 2026-08-31 12:30:31 | 50.16960 | 8.66049 | 55° | 16km/h | 29780m | 4.8m/s | -46.2°C | 3.0% | 12.8hPa | 2.6V | 00:00:00 | 01:58:02 | 00:00:00 | |
| DL1NUX | 2026-08-31 12:30:29 | 50.16925 | 8.66022 | 54° | 27km/h | 29736m | 5.5m/s | -46.3°C | 3.2% | 13hPa | 2.6V | 03:17:37 | 01:57:54 | 00:00:00 | |
| DL1XH-west | 2026-08-31 12:30:28 | 50.16952 | 8.66044 | 6° | 18km/h | 29762m | 5.3m/s | -46.3°C | 0.3% | 12.9hPa | 2.6V | 03:18:13 | 01:57:59 | 00:00:00 | |
| BIOWL1-15 | 2026-08-31 12:30:25 | 50.16935 | 8.66037 | 31° | 26km/h | 29748m | 5.6m/s | -46.4°C | 0.4% | 13hPa | 2.7V | 03:18:13 | 01:57:56 | 00:00:00 | |
| AA1-15 | 2026-08-31 12:30:25 | 50.16930 | 8.66030 | 44° | 27km/h | 29742m | 6.2m/s | -46.4°C | 0.4% | 13hPa | 2.6V | 03:18:13 | 01:57:55 | 00:00:00 | |
| DL4BBY-15 | 2026-08-31 12:30:24 | 50.16930 | 8.66030 | 45° | 20km/h | 29742m | 6.2m/s | -45.7°C | 0% | 0hPa | 2.7V | 00:00:00 | 00:00:00 | 00:00:00 | |
| DM0DOS-11 | 2026-08-31 12:30:22 | 50.16918 | 8.66005 | 54° | 24km/h | 29726m | 4.6m/s | -46.4°C | 3.2% | 13hPa | 2.7V | 03:17:39 | 01:57:52 | 00:00:00 | |
| DL1XH-west | 2026-08-31 12:30:18 | 50.16906 | 8.65992 | 1° | 16km/h | 29709m | 5.6m/s | -46.5°C | 0.3% | 13.1hPa | 2.6V | 03:18:13 | 01:57:49 | 00:00:00 | |
| HSKMA3-T | 2026-08-31 12:30:17 | 50.16898 | 8.65994 | 346° | 15km/h | 29698m | 5.5m/s | -46.6°C | 0.3% | 13hPa | 2.6V | 03:18:13 | 01:57:47 | 00:00:00 | |
| DM0DOS-11 | 2026-08-31 12:30:17 | 50.16875 | 8.65985 | 23° | 29km/h | 29672m | 7m/s | -46.7°C | 3.1% | 13.1hPa | 2.6V | 03:17:49 | 01:57:42 | 00:00:00 | |
| AA1-15 | 2026-08-31 12:30:14 | 50.16890 | 8.65995 | 12° | 15km/h | 29688m | 4.9m/s | -46.7°C | 0.3% | 13.1hPa | 2.7V | 03:18:13 | 01:57:45 | 00:00:00 | |
| DL1NUX | 2026-08-31 12:30:14 | 50.16886 | 8.65993 | 21° | 20km/h | 29683m | 4.6m/s | -46.7°C | 3.1% | 13.1hPa | 2.7V | 03:17:47 | 01:57:44 | 00:00:00 | |
| DL3AQ-11 | 2026-08-31 12:30:14 | 50.16886 | 8.65993 | 21° | 18km/h | 29683m | 4.6m/s | -46.7°C | 0.9% | 13.1hPa | 2.7V | 00:00:00 | 00:00:00 | 00:00:00 | |
| DL1XH1-15 | 2026-08-31 12:30:13 | 50.16848 | 8.65964 | 37° | 24km/h | 29650m | 6m/s | -46.6°C | 3.2% | 13.2hPa | 2.7V | 03:17:53 | 01:57:38 | 00:00:00 | |
| DF8AY | 2026-08-31 12:30:11 | 50.16875 | 8.65985 | 23° | 29km/h | 29672m | 7m/s | -46.7°C | 0.3% | 13.1hPa | 2.6V | 03:18:13 | 01:57:42 | 00:00:00 | |
| DL1NUX | 2026-08-31 12:30:09 | 50.16841 | 8.65952 | 302° | 2km/h | 29626m | 6.5m/s | -46.7°C | 3.3% | 13.2hPa | 2.7V | 03:17:57 | 01:57:34 | 00:00:00 | |
| DL1XH-west | 2026-08-31 12:30:08 | 50.16848 | 8.65964 | 38° | 24km/h | 29650m | 6m/s | -46.6°C | 0.4% | 13.2hPa | 2.7V | 03:18:13 | 01:57:38 | 00:00:00 | |
| HSKMA3-T | 2026-08-31 12:30:06 | 50.16842 | 8.65955 | 62° | 9km/h | 29638m | 5.8m/s | -46.6°C | 0.3% | 13.2hPa | 2.6V | 03:18:13 | 01:57:36 | 00:00:00 | |
| AA1-15 | 2026-08-31 12:30:03 | 50.16841 | 8.65952 | 302° | 2km/h | 29626m | 6.5m/s | -46.7°C | 0.4% | 13.2hPa | 2.7V | 03:18:13 | 01:57:34 | 00:00:00 | |
| DL1XH-15 | 2026-08-31 12:30:02 | 50.16822 | 8.65952 | 45° | 26km/h | 29588m | 5.6m/s | -47.2°C | 3.3% | 13.3hPa | 2.7V | 03:18:04 | 01:57:27 | 00:00:00 | |
| DF8AY | 2026-08-31 12:30:01 | 50.16780 | 8.65899 | 36° | 5km/h | 29537m | 5m/s | -47.4°C | 0.4% | 13.4hPa | 2.6V | 03:18:13 | 01:57:18 | 00:00:00 | |
| BIOWL1-15 | 2026-08-31 12:29:59 | 50.16833 | 8.65962 | 352° | 13km/h | 29605m | 4.9m/s | -46.8°C | 0.4% | 13.3hPa | 2.7V | 03:18:13 | 01:57:30 | 00:00:00 | |
| DL1XH-west | 2026-08-31 12:29:57 | 50.16826 | 8.65958 | 39° | 20km/h | 29593m | 6m/s | -47°C | 0.4% | 13.3hPa | 2.6V | 03:18:13 | 01:57:28 | 00:00:00 | |
| BIOWL1-15 | 2026-08-31 12:29:55 | 50.16783 | 8.65904 | 42° | 15km/h | 29548m | 6.3m/s | -47.4°C | 0.3% | 13.4hPa | 2.7V | 03:18:13 | 01:57:20 | 00:00:00 | |
| HSKMA3-T | 2026-08-31 12:29:54 | 50.16811 | 8.65935 | 42° | 35km/h | 29576m | 6.7m/s | -47.3°C | 0.4% | 13.3hPa | 2.7V | 03:18:13 | 01:57:25 | 00:00:00 | |
| DL1NUX | 2026-08-31 12:29:54 | 50.16804 | 8.65927 | 37° | 35km/h | 29570m | 5.7m/s | -47.3°C | 3.2% | 13.3hPa | 2.6V | 03:18:07 | 01:57:24 | 00:00:00 | |
| AA1-15 | 2026-08-31 12:29:52 | 50.16797 | 8.65919 | 33° | 31km/h | 29564m | 4.8m/s | -47.4°C | 0.4% | 13.3hPa | 2.6V | 03:18:13 | 01:57:23 | 00:00:00 | |
| DB0ND-19 | 2026-08-31 12:29:49 | 50.16783 | 8.65904 | 41° | 13km/h | 29549m | 6.3m/s | -47.4°C | 0.9% | 13.4hPa | 2.6V | 00:00:00 | 00:00:00 | 00:00:00 | |
| DL9SK-14 | 2026-08-31 12:29:47 | 50.16778 | 8.65898 | 358° | 5km/h | 29532m | 5.1m/s | -47.4°C | 0.9% | 13.4hPa | 2.6V | 00:00:00 | 00:00:00 | 00:00:00 | |
| DL1XH-15 | 2026-08-31 12:29:46 | 50.16777 | 8.65899 | 347° | 11km/h | 29526m | 6.6m/s | -47.4°C | 3.3% | 13.4hPa | 2.6V | 03:18:15 | 01:57:16 | 00:00:00 | |
| DL1XH-west | 2026-08-31 12:29:46 | 50.16778 | 8.65898 | 359° | 5km/h | 29532m | 5.1m/s | -47.4°C | 0.4% | 13.4hPa | 2.6V | 03:19:04 | 01:57:17 | 00:00:00 | |
| DF8AY | 2026-08-31 12:29:46 | 50.16776 | 8.65899 | 348° | 11km/h | 29526m | 6.6m/s | -47.4°C | 0.5% | 13.4hPa | 2.6V | 03:19:04 | 01:57:16 | 00:00:00 | |
| DL3AQ-11 | 2026-08-31 12:29:45 | 50.16776 | 8.65899 | 347° | 9km/h | 29526m | 6.6m/s | -47.4°C | 1.0% | 13.4hPa | 2.6V | 00:00:00 | 00:00:00 | 00:00:00 | |
| DM0DOS-11 | 2026-08-31 12:29:43 | 50.16757 | 8.65896 | 23° | 26km/h | 29503m | 5.8m/s | -47.5°C | 3.4% | 13.4hPa | 2.6V | 03:18:19 | 01:57:12 | 00:00:00 | |
| HSKMA3-T | 2026-08-31 12:29:43 | 50.16769 | 8.65900 | 360° | 22km/h | 29513m | 5.4m/s | -47.5°C | 0.5% | 13.4hPa | 2.7V | 03:19:04 | 01:57:14 | 00:00:00 | |
| AA1-15 | 2026-08-31 12:29:41 | 50.16757 | 8.65896 | 24° | 26km/h | 29503m | 5.8m/s | -47.5°C | 0.5% | 13.5hPa | 2.6V | 03:19:04 | 01:57:12 | 00:00:00 | |
| DL1XH1-15 | 2026-08-31 12:29:40 | 50.16741 | 8.65876 | 49° | 29km/h | 29485m | 4.9m/s | -47.4°C | 3.4% | 13.5hPa | 2.7V | 03:18:22 | 01:57:09 | 00:00:00 | |
| BIOWL1-15 | 2026-08-31 12:29:39 | 50.16736 | 8.65868 | 46° | 27km/h | 29480m | 4.8m/s | -47.4°C | 0.5% | 13.5hPa | 2.7V | 03:19:04 | 01:57:08 | 00:00:00 | |
| DL1XH-west | 2026-08-31 12:29:36 | 50.16731 | 8.65861 | 35° | 24km/h | 29474m | 6.3m/s | -47.4°C | 0.5% | 13.6hPa | 2.7V | 03:19:04 | 01:57:07 | 00:00:00 | |
| DF8AY | 2026-08-31 12:29:34 | 50.16703 | 8.65872 | 348° | 13km/h | 29428m | 5.2m/s | -47.4°C | 0.6% | 13.6hPa | 2.7V | 03:19:04 | 01:56:59 | 00:00:00 | |
| DL1NUX | 2026-08-31 12:29:34 | 50.16716 | 8.65858 | 339° | 18km/h | 29456m | 5.9m/s | -47.3°C | 3.4% | 13.6hPa | 2.7V | 03:18:27 | 01:57:04 | 00:00:00 | |
| DL1XH1-15 | 2026-08-31 12:29:34 | 50.16703 | 8.65872 | 347° | 13km/h | 29428m | 5.2m/s | -47.4°C | 3.6% | 13.6hPa | 2.7V | 03:18:32 | 01:56:59 | 00:00:00 | |
| HSKMA3-T | 2026-08-31 12:29:33 | 50.16716 | 8.65858 | 340° | 18km/h | 29456m | 5.9m/s | -47.3°C | 0.5% | 13.6hPa | 2.7V | 03:19:04 | 01:57:04 | 00:00:00 | |
| DM0DOS-11 | 2026-08-31 12:29:33 | 50.16709 | 8.65865 | 312° | 13km/h | 29443m | 6.5m/s | -47.3°C | 3.5% | 13.6hPa | 2.6V | 03:18:29 | 01:57:02 | 00:00:00 | |
| AA1-15 | 2026-08-31 12:29:31 | 50.16709 | 8.65865 | 313° | 13km/h | 29443m | 6.5m/s | -47.3°C | 0.5% | 13.6hPa | 2.6V | 03:19:04 | 01:57:02 | 00:00:00 | |
| DF7PN | 2026-08-31 12:29:31 | 50.16707 | 8.65868 | 308° | 9km/h | 29437m | 5.2m/s | -47.3°C | 1.0% | 13.6hPa | 2.7V | 00:00:00 | 00:00:00 | 00:00:00 | |
| DO9LL-15 | 2026-08-31 12:29:29 | 50.16705 | 8.65871 | 326° | 13km/h | 29433m | 4.4m/s | -47.4°C | 3.6% | 13.5hPa | 2.7V | 03:18:00 | 01:57:00 | 00:00:00 | |
| DL1NUX | 2026-08-31 12:29:28 | 50.16676 | 8.65863 | 31° | 26km/h | 29398m | 6.3m/s | -47.2°C | 3.5% | 13.7hPa | 2.7V | 03:18:37 | 01:56:54 | 00:00:00 | |
| DD8BA-10 | 2026-08-31 12:29:27 | 50.16699 | 8.65873 | 360° | 20km/h | 29422m | 6.6m/s | -47.3°C | 3.6% | 13.6hPa | 2.6V | 00:00:00 | 00:00:00 | 00:00:00 | |
| DH7VM-15 | 2026-08-31 12:29:26 | 50.16699 | 8.65873 | 360° | 16km/h | 29422m | 6.7m/s | -47.4°C | 1.0% | 13.6hPa | 2.6V | 00:00:00 | 00:00:00 | 00:00:00 | |
| DL1XH-15 | 2026-08-31 12:29:25 | 50.16665 | 8.65847 | 60° | 13km/h | 29380m | 5m/s | -47.2°C | 3.5% | 13.7hPa | 2.6V | 03:18:40 | 01:56:51 | 00:00:00 | |
| DL1XH-west | 2026-08-31 12:29:25 | 50.16688 | 8.65871 | 15° | 27km/h | 29409m | 5.5m/s | -47.2°C | 0.5% | 13.7hPa | 2.7V | 03:19:04 | 01:56:56 | 00:00:00 | |
| DL4BBY-15 | 2026-08-31 12:29:24 | 50.16682 | 8.65867 | 23° | 15km/h | 29404m | 5.2m/s | -46.5°C | 0% | 0hPa | 2.6V | 00:00:00 | 00:00:00 | 00:00:00 | |
| DM0DOS-11 | 2026-08-31 12:29:23 | 50.16668 | 8.65852 | 53° | 16km/h | 29385m | 5.3m/s | -47.2°C | 3.5% | 13.7hPa | 2.6V | 03:18:39 | 01:56:52 | 00:00:00 | |
| HSKMA3-T | 2026-08-31 12:29:22 | 50.16671 | 8.65857 | 41° | 22km/h | 29391m | 6.4m/s | -47.2°C | 0.5% | 13.7hPa | 2.6V | 03:19:04 | 01:56:53 | 00:00:00 | |
| DF8AY | 2026-08-31 12:29:21 | 50.16664 | 8.65843 | 54° | 9km/h | 29375m | 5.6m/s | -47.3°C | 0.5% | 13.7hPa | 2.7V | 03:19:04 | 01:56:50 | 00:00:00 | |
| AA1-15 | 2026-08-31 12:29:21 | 50.16667 | 8.65852 | 54° | 16km/h | 29385m | 5.4m/s | -47.2°C | 0.5% | 13.7hPa | 2.6V | 03:19:04 | 01:56:52 | 00:00:00 | |
| DL1XH1-15 | 2026-08-31 12:29:20 | 50.16662 | 8.65841 | 25° | 7km/h | 29369m | 6.7m/s | -47.3°C | 3.4% | 13.8hPa | 2.7V | 03:18:42 | 01:56:49 | 00:00:00 | |
| DL1ZP-14 | 2026-08-31 12:29:19 | 50.16662 | 8.65841 | 25° | 7km/h | 29369m | 6.7m/s | -47.3°C | 1.0% | 13.8hPa | 2.7V | 00:00:00 | 00:00:00 | 00:00:00 | |
| DL3AQ-11 | 2026-08-31 12:29:18 | 50.16660 | 8.65840 | 1° | 9km/h | 29363m | 6.4m/s | -47.3°C | 1.0% | 13.8hPa | 2.7V | 00:00:00 | 00:00:00 | 00:00:00 | |
| DD8BA-10 | 2026-08-31 12:29:17 | 50.16660 | 8.65840 | 2° | 13km/h | 29363m | 6.3m/s | -47.3°C | 3.4% | 13.7hPa | 2.7V | 03:18:00 | 00:00:00 | 00:00:00 | |
| DL9SK-14 | 2026-08-31 12:29:16 | 50.16654 | 8.65841 | 357° | 11km/h | 29351m | 5.0m/s | -47.3°C | 1.0% | 13.8hPa | 2.6V | 00:00:00 | 00:00:00 | 00:00:00 | |
| DL1XH-15 | 2026-08-31 12:29:15 | 50.16643 | 8.65826 | 57° | 18km/h | 29321m | 5.4m/s | -47.5°C | 3.4% | 13.8hPa | 2.6V | 03:18:50 | 01:56:41 | 00:00:00 | |
| DL1XH-west | 2026-08-31 12:29:15 | 50.16654 | 8.65841 | 357° | 13km/h | 29351m | 5m/s | -47.3°C | 0.5% | 13.8hPa | 2.6V | 03:19:04 | 01:56:46 | 00:00:00 | |
| DL1NUX | 2026-08-31 12:29:14 | 50.16648 | 8.65839 | 32° | 11km/h | 29340m | 6.8m/s | -47.4°C | 3.3% | 13.8hPa | 2.7V | 03:18:47 | 01:56:44 | 00:00:00 | |
| BIOWL1-15 | 2026-08-31 12:29:14 | 50.16651 | 8.65841 | 11° | 11km/h | 29346m | 5.3m/s | -47.4°C | 0.5% | 13.8hPa | 2.6V | 03:19:04 | 01:56:45 | 00:00:00 | |
| DM0DOS-11 | 2026-08-31 12:29:13 | 50.16645 | 8.65831 | 63° | 15km/h | 29327m | 5.7m/s | -47.5°C | 3.4% | 13.8hPa | 2.7V | 03:18:49 | 01:56:42 | 00:00:00 | |
| HSKMA3-T | 2026-08-31 12:29:12 | 50.16647 | 8.65836 | 57° | 11km/h | 29333m | 6.6m/s | -47.4°C | 0.5% | 13.8hPa | 2.7V | 03:19:04 | 01:56:43 | 00:00:00 | |
| DF8AY | 2026-08-31 12:29:11 | 50.16645 | 8.65831 | 64° | 15km/h | 29327m | 5.7m/s | -47.5°C | 0.5% | 13.8hPa | 2.7V | 03:19:04 | 01:56:42 | 00:00:00 | |
| AA1-15 | 2026-08-31 12:29:10 | 50.16643 | 8.65826 | 58° | 18km/h | 29321m | 5.4m/s | -47.6°C | 0.5% | 13.9hPa | 2.6V | 03:19:04 | 01:56:41 | 00:00:00 | |
| DL8DAS-14 | 2026-08-31 12:29:07 | 50.16627 | 8.65809 | 11° | 16km/h | 29298m | 4.9m/s | -47.5°C | 1.0% | 13.9hPa | 2.6V | 00:00:00 | 00:00:00 | 00:00:00 | |
| NBG1-10 | 2026-08-31 12:29:06 | 50.16627 | 8.65809 | 12° | 13km/h | 29299m | 4.8m/s | -47.5°C | 3.4% | 13.8hPa | 2.6V | 00:00:00 | 01:56:37 | 00:00:00 | |
| DL1XH-15 | 2026-08-31 12:29:05 | 50.16613 | 8.65810 | 0° | 11km/h | 29265m | 6.5m/s | -47.7°C | 3.4% | 14hPa | 2.6V | 03:19:00 | 01:56:31 | 00:00:00 | |
| DL1XH-west | 2026-08-31 12:29:04 | 50.16620 | 8.65808 | 357° | 9km/h | 29286m | 6.4m/s | -47.5°C | 0.4% | 13.9hPa | 2.6V | 03:19:04 | 01:56:35 | 00:00:00 | |
| BIOWL1-15 | 2026-08-31 12:29:04 | 50.16600 | 8.65807 | 10° | 22km/h | 29245m | 5.6m/s | -47.8°C | 0.5% | 14hPa | 2.7V | 03:19:04 | 01:56:28 | 00:00:00 | |
| DM0DOS-11 | 2026-08-31 12:29:02 | 50.16615 | 8.65810 | 351° | 5km/h | 29271m | 4.8m/s | -47.6°C | 3.4% | 14hPa | 2.7V | 03:18:59 | 01:56:32 | 00:00:00 | |
| HSKMA3-T | 2026-08-31 12:29:02 | 50.16615 | 8.65810 | 351° | 5km/h | 29271m | 4.8m/s | -47.6°C | 0.5% | 14hPa | 2.7V | 03:19:04 | 01:56:32 | 00:00:00 | |
| DF8AY | 2026-08-31 12:29:01 | 50.16613 | 8.65810 | 1° | 11km/h | 29265m | 6.5m/s | -47.7°C | 0.5% | 14hPa | 2.6V | 03:19:04 | 01:56:31 | 00:00:00 | |
| AA1-15 | 2026-08-31 12:28:59 | 50.16610 | 8.65809 | 6° | 15km/h | 29258m | 7.3m/s | -47.8°C | 0.5% | 14hPa | 2.6V | 03:19:04 | 01:56:30 | 00:00:00 | |
| DO9LL-15 | 2026-08-31 12:28:59 | 50.16610 | 8.65809 | 6° | 15km/h | 29258m | 7.2m/s | -47.7°C | 3.4% | 13.9hPa | 2.6V | 00:00:00 | 01:56:30 | 00:00:00 | |
| SO1NDE-10 | 2026-08-31 12:28:57 | 50.16600 | 8.65807 | 10° | 15km/h | 29246m | 5.5m/s | -47.8°C | 3.5% | 14.0hPa | 2.6V | 03:19:00 | 01:56:28 | 00:00:00 | |
| DM0DOS-11 | 2026-08-31 12:28:56 | 50.16579 | 8.65812 | 319° | 13km/h | 29204m | 6.7m/s | -47.7°C | 3.4% | 14.1hPa | 2.6V | 03:19:10 | 01:56:21 | 00:00:00 | |
| DL1XH-15 | 2026-08-31 12:28:55 | 50.16579 | 8.65812 | 319° | 13km/h | 29204m | 6.7m/s | -47.7°C | 3.4% | 14.1hPa | 2.6V | 03:19:10 | 01:56:21 | 00:00:00 | |
| DL1XH-west | 2026-08-31 12:28:53 | 50.16585 | 8.65805 | 341° | 7km/h | 29221m | 5.8m/s | -47.6°C | 0.5% | 14.1hPa | 2.7V | 03:19:55 | 01:56:24 | 00:00:00 | |
| BIOWL1-15 | 2026-08-31 12:28:52 | 50.16583 | 8.65806 | 314° | 7km/h | 29215m | 5m/s | -47.6°C | 0.5% | 14.1hPa | 2.7V | 03:19:55 | 01:56:23 | 00:00:00 | |
| HSKMA3-T | 2026-08-31 12:28:52 | 50.16582 | 8.65809 | 311° | 11km/h | 29210m | 5.1m/s | -47.7°C | 0.5% | 14.1hPa | 2.6V | 03:19:55 | 01:56:22 | 00:00:00 | |
| DF8AY | 2026-08-31 12:28:49 | 50.16576 | 8.65815 | 327° | 18km/h | 29197m | 6.9m/s | -47.8°C | 0.5% | 14.1hPa | 2.6V | 03:26:43 | 01:56:20 | 00:00:00 | |
| AA1-15 | 2026-08-31 12:28:48 | 50.16572 | 8.65819 | 332° | 22km/h | 29191m | 6m/s | -47.8°C | 0.5% | 14.1hPa | 2.7V | 03:19:55 | 01:56:19 | 00:00:00 | |
| DL1ZP-14 | 2026-08-31 12:28:48 | 50.16567 | 8.65823 | 334° | 20km/h | 29186m | 5.4m/s | -47.9°C | 1.0% | 14.1hPa | 2.7V | 00:00:00 | 00:00:00 | 00:00:00 | |
| GOEST3-10 | 2026-08-31 12:28:47 | 50.16567 | 8.65823 | 335° | 15km/h | 29186m | 5.4m/s | -47.8°C | 3.5% | 14.1hPa | 2.7V | 00:00:00 | 01:56:18 | 00:00:00 | |
| DM0DOS-11 | 2026-08-31 12:28:45 | 50.16549 | 8.65831 | 21° | 13km/h | 29143m | 6.7m/s | -47.7°C | 3.4% | 14.2hPa | 2.7V | 03:19:20 | 01:56:11 | 00:00:00 | |
| DL1XH-west | 2026-08-31 12:28:43 | 50.16555 | 8.65833 | 340° | 5km/h | 29161m | 5.4m/s | -47.7°C | 0.5% | 14.2hPa | 2.6V | 03:19:55 | 01:56:14 | 00:00:00 | |
| DL1XH1-15 | 2026-08-31 12:28:43 | 50.16541 | 8.65826 | 19° | 20km/h | 29131m | 5.4m/s | -47.5°C | 3.4% | 14.2hPa | 2.6V | 03:19:22 | 01:56:09 | 00:00:00 | |
| BIOWL1-15 | 2026-08-31 12:28:42 | 50.16553 | 8.65833 | 3° | 5km/h | 29156m | 5.4m/s | -47.7°C | 0.5% | 14.2hPa | 2.7V | 03:19:55 | 01:56:13 | 00:00:00 | |
| HSKMA3-T | 2026-08-31 12:28:41 | 50.16551 | 8.65832 | 17° | 9km/h | 29150m | 6.3m/s | -47.7°C | 0.5% | 14.2hPa | 2.7V | 03:19:55 | 01:56:12 | 00:00:00 | |
| AA1-15 | 2026-08-31 12:28:38 | 50.16540 | 8.65826 | 20° | 20km/h | 29131m | 5.4m/s | -47.5°C | 0.5% | 14.2hPa | 2.6V | 03:19:55 | 01:56:09 | 00:00:00 | |
| DL1XH-west | 2026-08-31 12:28:33 | 50.16524 | 8.65822 | 335° | 11km/h | 29101m | 5.4m/s | -47.7°C | 0.5% | 14.3hPa | 2.6V | 03:19:55 | 01:56:04 | 00:00:00 | |
| DM0DOS-11 | 2026-08-31 12:28:33 | 50.16513 | 8.65830 | 340° | 20km/h | 29082m | 6m/s | -47.7°C | 3.4% | 14.3hPa | 2.7V | 03:19:30 | 01:56:01 | 00:00:00 | |
| BIOWL1-15 | 2026-08-31 12:28:32 | 50.16504 | 8.65834 | 341° | 15km/h | 29071m | 6m/s | -47.8°C | 0.5% | 14.4hPa | 2.6V | 03:19:55 | 01:55:59 | 00:00:00 | |
| GOEST3-10 | 2026-08-31 12:28:32 | 50.16521 | 8.65825 | 334° | 16km/h | 29096m | 6.1m/s | -47.7°C | 3.4% | 14.3hPa | 2.6V | 03:19:00 | 00:00:00 | 00:00:00 | |
| DO1YAY-16 | 2026-08-31 12:28:31 | 50.16517 | 8.65827 | 337° | 16km/h | 29089m | 7.2m/s | -47.7°C | 1.0% | 14.4hPa | 2.6V | 00:00:00 | 00:00:00 | 00:00:00 | |
| HSKMA3-T | 2026-08-31 12:28:31 | 50.16517 | 8.65827 | 338° | 18km/h | 29089m | 7.2m/s | -47.7°C | 0.5% | 14.4hPa | 2.7V | 03:19:55 | 01:56:02 | 00:00:00 | |
| DL1XH1-15 | 2026-08-31 12:28:30 | 50.16504 | 8.65834 | 341° | 15km/h | 29071m | 6m/s | -47.8°C | 3.4% | 14.4hPa | 2.6V | 03:19:32 | 01:55:59 | 00:00:00 | |
| DF8AY-15 | 2026-08-31 12:28:30 | 50.16513 | 8.65830 | 341° | 13km/h | 29082m | 5.9m/s | 0°C | 0% | 0hPa | 2.6V | 00:00:00 | 01:56:01 | 00:00:00 | |
| DO9LL-15 | 2026-08-31 12:28:29 | 50.16508 | 8.65832 | 342° | 15km/h | 29077m | 5.5m/s | -47.7°C | 3.4% | 14.3hPa | 2.6V | 00:00:00 | 01:56:00 | 00:00:00 | |
| DL1NUX | 2026-08-31 12:28:28 | 50.16496 | 8.65835 | 36° | 9km/h | 29041m | 6.7m/s | -47.7°C | 3.5% | 14.4hPa | 2.7V | 03:19:37 | 01:55:54 | 00:00:00 | |
| AA1-15 | 2026-08-31 12:28:27 | 50.16501 | 8.65836 | 339° | 11km/h | 29064m | 6.8m/s | -47.8°C | 0.5% | 14.4hPa | 2.7V | 03:19:55 | 01:55:58 | 00:00:00 | |
| GOEST3-10 | 2026-08-31 12:28:27 | 50.16501 | 8.65836 | 340° | 7km/h | 29065m | 6.8m/s | -47.7°C | 3.4% | 14.4hPa | 2.6V | 00:00:00 | 01:55:58 | 00:00:00 | |
| DL3AQ-11 | 2026-08-31 12:28:25 | 50.16497 | 8.65837 | 36° | 4km/h | 29047m | 5.4m/s | -47.8°C | 1.0% | 14.5hPa | 2.6V | 00:00:00 | 00:00:00 | 00:00:00 | |
| DL4BBY-15 | 2026-08-31 12:28:24 | 50.16497 | 8.65837 | 37° | 13km/h | 29048m | 5.4m/s | -47.1°C | 0% | 0hPa | 2.6V | 00:00:00 | 00:00:00 | 00:00:00 | |
| DL1XH1-15 | 2026-08-31 12:28:23 | 50.16481 | 8.65831 | 320° | 11km/h | 29011m | 6.9m/s | -47.8°C | 3.5% | 14.5hPa | 2.6V | 03:19:42 | 01:55:49 | 00:00:00 | |
| DL1XH-west | 2026-08-31 12:28:22 | 50.16493 | 8.65833 | 29° | 13km/h | 29034m | 6.4m/s | -47.6°C | 0.5% | 14.5hPa | 2.7V | 03:19:55 | 01:55:53 | 00:00:00 | |
| HSKMA3-T | 2026-08-31 12:28:20 | 50.16487 | 8.65830 | 8° | 15km/h | 29023m | 5.3m/s | -47.7°C | 0.6% | 14.5hPa | 2.6V | 03:19:55 | 01:55:51 | 00:00:00 | |
| BIOWL1-15 | 2026-08-31 12:28:18 | 50.16481 | 8.65831 | 320° | 11km/h | 29011m | 6.9m/s | -47.8°C | 0.6% | 14.5hPa | 2.6V | 03:19:55 | 01:55:49 | 00:00:00 | |
| DF8AY | 2026-08-31 12:28:17 | 50.16480 | 8.65835 | 292° | 13km/h | 29004m | 6.1m/s | -47.9°C | 0.5% | 14.6hPa | 2.7V | 03:26:43 | 01:55:48 | 00:00:00 | |
| AA1-15 | 2026-08-31 12:28:16 | 50.16479 | 8.65841 | 285° | 16km/h | 28999m | 5.4m/s | -47.9°C | 0.6% | 14.6hPa | 2.7V | 03:19:55 | 01:55:47 | 00:00:00 | |
| DB0ND-19 | 2026-08-31 12:28:16 | 50.16479 | 8.65841 | 285° | 16km/h | 28999m | 5.4m/s | -47.9°C | 1.0% | 14.6hPa | 2.6V | 00:00:00 | 00:00:00 | 00:00:00 | |
| DL1NUX | 2026-08-31 12:28:14 | 50.16473 | 8.65863 | 299° | 20km/h | 28980m | 5.4m/s | -47.7°C | 3.5% | 14.6hPa | 2.6V | 03:19:47 | 01:55:44 | 00:00:00 | |
| DL1XH-west | 2026-08-31 12:28:12 | 50.16471 | 8.65869 | 303° | 16km/h | 28975m | 4.8m/s | -47.7°C | 0.5% | 14.6hPa | 2.6V | 03:19:55 | 01:55:43 | 00:00:00 | |
| OE5DXL-15 | 2026-08-31 12:28:12 | 50.16471 | 8.65869 | 304° | 16km/h | 28976m | 4.7m/s | -47.6°C | 3.5% | 14.5hPa | 2.6V | 00:00:00 | 00:00:00 | 00:00:00 | |
| DL1XH1-15 | 2026-08-31 12:28:11 | 50.16469 | 8.65870 | 102° | 13km/h | 28951m | 5.5m/s | -47.6°C | 3.4% | 14.7hPa | 2.6V | 03:19:52 | 01:55:39 | 00:00:00 | |
| HSKMA3-T | 2026-08-31 12:28:10 | 50.16468 | 8.65874 | 308° | 2km/h | 28964m | 7.1m/s | -47.6°C | 0.5% | 14.6hPa | 2.7V | 03:19:55 | 01:55:41 | 00:00:00 | |
| DL1NUX | 2026-08-31 12:28:08 | 50.16461 | 8.65845 | 7° | 13km/h | 28922m | 5.7m/s | -47.5°C | 3.4% | 14.7hPa | 2.7V | 03:19:57 | 01:55:34 | 00:00:00 | |
| AA1-15 | 2026-08-31 12:28:05 | 50.16467 | 8.65852 | 55° | 18km/h | 28933m | 6.1m/s | -47.6°C | 0.6% | 14.7hPa | 2.7V | 03:19:55 | 01:55:36 | 00:00:00 | |
| DF8AY | 2026-08-31 12:28:04 | 50.16452 | 8.65862 | 287° | 20km/h | 28897m | 5.2m/s | -47.5°C | 0.5% | 14.8hPa | 2.7V | 03:26:43 | 01:55:30 | 00:00:00 | |
| DD8BA-10 | 2026-08-31 12:28:04 | 50.16464 | 8.65847 | 33° | 15km/h | 28928m | 5.4m/s | -47.5°C | 3.4% | 14.6hPa | 2.6V | 00:00:00 | 00:00:00 | 00:00:00 | |
| DM0DOS-11 | 2026-08-31 12:28:02 | 50.16454 | 8.65855 | 288° | 18km/h | 28902m | 5.7m/s | -47.5°C | 3.4% | 14.8hPa | 2.6V | 03:20:00 | 01:55:31 | 00:00:00 | |
| DL1XH-west | 2026-08-31 12:28:02 | 50.16458 | 8.65846 | 336° | 11km/h | 28915m | 7.2m/s | -47.5°C | 0.5% | 14.7hPa | 2.6V | 03:20:46 | 01:55:33 | 00:00:00 | |
| HSKMA3-T | 2026-08-31 12:28:00 | 50.16454 | 8.65855 | 289° | 18km/h | 28902m | 5.7m/s | -47.5°C | 0.5% | 14.8hPa | 2.6V | 03:20:46 | 01:55:31 | 00:00:00 | |
| BIOWL1-15 | 2026-08-31 12:27:59 | 50.16448 | 8.65874 | 314° | 15km/h | 28885m | 5.9m/s | -47.4°C | 0.5% | 14.8hPa | 2.7V | 03:20:46 | 01:55:28 | 00:00:00 | |
| AA1-15 | 2026-08-31 12:27:55 | 50.16444 | 8.65875 | 41° | 11km/h | 28874m | 5.2m/s | -47.4°C | 0.5% | 14.8hPa | 2.6V | 03:20:46 | 01:55:26 | 00:00:00 | |
| DF8AY | 2026-08-31 12:27:54 | 50.16442 | 8.65871 | 68° | 15km/h | 28868m | 7m/s | -47.4°C | 0.5% | 14.8hPa | 2.7V | 03:26:43 | 01:55:25 | 00:00:00 | |
| DL1NUX | 2026-08-31 12:27:54 | 50.16441 | 8.65864 | 84° | 18km/h | 28861m | 7.1m/s | -47.5°C | 3.4% | 14.9hPa | 2.7V | 03:20:07 | 01:55:24 | 00:00:00 | |
| SONDE2-11 | 2026-08-31 12:27:53 | 50.16441 | 8.65864 | 84° | 18km/h | 28861m | 7.1m/s | -47.5°C | 1.0% | 14.9hPa | 2.7V | 00:00:00 | 00:00:00 | 00:00:00 | |
| DM0DOS-11 | 2026-08-31 12:27:52 | 50.16439 | 8.65838 | 75° | 24km/h | 28844m | 5.5m/s | -47.6°C | 3.4% | 14.9hPa | 2.7V | 03:20:10 | 01:55:21 | 00:00:00 | |
| DL1XH-west | 2026-08-31 12:27:52 | 50.16441 | 8.65856 | 90° | 24km/h | 28855m | 5.8m/s | -47.5°C | 0.5% | 14.9hPa | 2.6V | 03:20:46 | 01:55:23 | 00:00:00 | |
| HSKMA3-T | 2026-08-31 12:27:49 | 50.16437 | 8.65830 | 60° | 22km/h | 28838m | 6.7m/s | -47.5°C | 0.5% | 14.9hPa | 2.7V | 03:20:46 | 01:55:20 | 00:00:00 | |
| DK5PH-5 | 2026-08-31 12:27:49 | 50.16437 | 8.65830 | 60° | 16km/h | 28838m | 6.6m/s | -47.4°C | 3.4% | 14.9hPa | 2.6V | 00:00:00 | 01:55:20 | 00:00:00 | |
| DL1NUX | 2026-08-31 12:27:48 | 50.16420 | 8.65836 | 287° | 13km/h | 28802m | 4.3m/s | -47.6°C | 3.5% | 15hPa | 2.6V | 03:20:17 | 01:55:14 | 00:00:00 | |
| BIOWL1-15 | 2026-08-31 12:27:47 | 50.16430 | 8.65822 | 7° | 16km/h | 28826m | 5.5m/s | -47.5°C | 0.5% | 14.9hPa | 2.6V | 03:20:46 | 01:55:18 | 00:00:00 | |
| DL1ZP-14 | 2026-08-31 12:27:46 | 50.16423 | 8.65825 | 311° | 15km/h | 28813m | 7.1m/s | -47.6°C | 1.0% | 15.0hPa | 2.7V | 00:00:00 | 00:00:00 | 00:00:00 | |
| DB0ND-19 | 2026-08-31 12:27:45 | 50.16423 | 8.65825 | 311° | 15km/h | 28813m | 7.1m/s | -47.6°C | 1.0% | 15.0hPa | 2.7V | 00:00:00 | 00:00:00 | 00:00:00 | |
| AA1-15 | 2026-08-31 12:27:44 | 50.16421 | 8.65830 | 292° | 15km/h | 28807m | 5.4m/s | -47.6°C | 0.6% | 15hPa | 2.7V | 03:20:46 | 01:55:15 | 00:00:00 | |
| DF8AY | 2026-08-31 12:27:44 | 50.16420 | 8.65836 | 287° | 13km/h | 28802m | 4.3m/s | -47.6°C | 0.6% | 15hPa | 2.6V | 03:26:43 | 01:55:14 | 00:00:00 | |
| DL1XH-west | 2026-08-31 12:27:42 | 50.16418 | 8.65841 | 354° | 7km/h | 28792m | 6m/s | -47.6°C | 0.5% | 15hPa | 2.6V | 03:20:46 | 01:55:12 | 00:00:00 | |
| HSKMA3-T | 2026-08-31 12:27:39 | 50.16413 | 8.65835 | 59° | 20km/h | 28780m | 6.1m/s | -47.8°C | 0.5% | 15hPa | 2.7V | 03:20:46 | 01:55:10 | 00:00:00 | |
| BIOWL1-15 | 2026-08-31 12:27:38 | 50.16407 | 8.65805 | 81° | 27km/h | 28762m | 6.1m/s | -48°C | 0.5% | 15.1hPa | 2.6V | 03:20:46 | 01:55:07 | 00:00:00 | |
| GOEST3-10 | 2026-08-31 12:27:37 | 50.16408 | 8.65816 | 75° | 24km/h | 28768m | 6.3m/s | -48.0°C | 3.5% | 15.0hPa | 2.6V | 00:00:00 | 01:55:08 | 00:00:00 | |
| DL8DAS-15 | 2026-08-31 12:27:35 | 50.16407 | 8.65805 | 82° | 27km/h | 28762m | 6.1m/s | -48.0°C | 1.0% | 15.1hPa | 2.7V | 00:00:00 | 00:00:00 | 00:00:00 | |
| DL1NUX | 2026-08-31 12:27:34 | 50.16404 | 8.65780 | 64° | 15km/h | 28746m | 5.3m/s | -47.8°C | 3.5% | 15.1hPa | 2.7V | 03:20:27 | 01:55:04 | 00:00:00 | |
| DF8AY | 2026-08-31 12:27:33 | 50.16404 | 8.65780 | 64° | 15km/h | 28746m | 5.3m/s | -47.8°C | 0.6% | 15.1hPa | 2.7V | 03:26:43 | 01:55:04 | 00:00:00 | |
| DD8BA-10 | 2026-08-31 12:27:33 | 50.16404 | 8.65780 | 65° | 15km/h | 28746m | 5.2m/s | -47.7°C | 3.5% | 15.1hPa | 2.6V | 00:00:00 | 00:00:00 | 00:00:00 | |
| DM0DOS-11 | 2026-08-31 12:27:32 | 50.16394 | 8.65772 | 0° | 20km/h | 28726m | 5.5m/s | -47.5°C | 3.4% | 15.2hPa | 2.6V | 03:20:30 | 01:55:01 | 00:00:00 | |
| DL1XH1-15 | 2026-08-31 12:27:31 | 50.16384 | 8.65773 | 353° | 16km/h | 28716m | 5.6m/s | -47.5°C | 3.5% | 15.2hPa | 2.7V | 03:20:32 | 01:54:59 | 00:00:00 | |
| DL1XH-west | 2026-08-31 12:27:30 | 50.16393 | 8.65772 | 1° | 20km/h | 28726m | 5.5m/s | -47.5°C | 0.5% | 15.2hPa | 2.6V | 03:20:46 | 01:55:01 | 00:00:00 | |
| HSKMA3-T | 2026-08-31 12:27:29 | 50.16388 | 8.65772 | 355° | 20km/h | 28721m | 4.8m/s | -47.5°C | 0.5% | 15.2hPa | 2.6V | 03:20:46 | 01:55:00 | 00:00:00 | |
| BIOWL1-15 | 2026-08-31 12:27:27 | 50.16378 | 8.65770 | 83° | 11km/h | 28698m | 6m/s | -47.5°C | 0.5% | 15.2hPa | 2.6V | 03:20:46 | 01:54:56 | 00:00:00 | |
| AA1-15 | 2026-08-31 12:27:23 | 50.16376 | 8.65750 | 79° | 22km/h | 28679m | 5.4m/s | -47.2°C | 0.5% | 15.3hPa | 2.7V | 03:20:46 | 01:54:53 | 00:00:00 | |
| DF8AY | 2026-08-31 12:27:23 | 50.16377 | 8.65758 | 82° | 20km/h | 28685m | 6.6m/s | -47.3°C | 0.5% | 15.2hPa | 2.6V | 03:26:43 | 01:54:54 | 00:00:00 | |
| DL1XH1-15 | 2026-08-31 12:27:23 | 50.16373 | 8.65721 | 77° | 9km/h | 28657m | 5.9m/s | -47.1°C | 3.3% | 15.3hPa | 2.6V | 03:20:42 | 01:54:49 | 00:00:00 | |
| DD8BA-10 | 2026-08-31 12:27:23 | 50.16377 | 8.65758 | 82° | 16km/h | 28685m | 6.5m/s | -47.3°C | 3.5% | 15.2hPa | 2.7V | 00:00:00 | 00:00:00 | 00:00:00 | |
| DM0DOS-11 | 2026-08-31 12:27:21 | 50.16374 | 8.65733 | 77° | 20km/h | 28669m | 5.1m/s | -47.2°C | 3.4% | 15.3hPa | 2.7V | 03:20:40 | 01:54:51 | 00:00:00 | |
| DL1XH-west | 2026-08-31 12:27:19 | 50.16373 | 8.65726 | 79° | 15km/h | 28663m | 6.3m/s | -47.2°C | 0.5% | 15.3hPa | 2.6V | 03:20:46 | 01:54:50 | 00:00:00 | |
| BIOWL1-15 | 2026-08-31 12:27:15 | 50.16355 | 8.65707 | 31° | 20km/h | 28623m | 4.6m/s | -47.1°C | 0.4% | 15.4hPa | 2.6V | 03:21:37 | 01:54:43 | 00:00:00 | |
| DL1NUX | 2026-08-31 12:27:14 | 50.16360 | 8.65710 | 23° | 20km/h | 28628m | 5m/s | -47.2°C | 3.3% | 15.4hPa | 2.6V | 03:20:47 | 01:54:44 | 00:00:00 | |
| AA1-15 | 2026-08-31 12:27:13 | 50.16351 | 8.65703 | 40° | 18km/h | 28618m | 6.1m/s | -47°C | 0.4% | 15.4hPa | 2.7V | 03:21:37 | 01:54:42 | 00:00:00 | |
| DF8AY | 2026-08-31 12:27:12 | 50.16349 | 8.65698 | 56° | 15km/h | 28612m | 6.4m/s | -46.9°C | 0.5% | 15.4hPa | 2.7V | 03:26:43 | 01:54:41 | 00:00:00 | |
| DM0DOS-11 | 2026-08-31 12:27:11 | 50.16349 | 8.65698 | 55° | 15km/h | 28612m | 6.4m/s | -46.9°C | 3.3% | 15.4hPa | 2.7V | 03:20:50 | 01:54:41 | 00:00:00 | |
| DL9SK-14 | 2026-08-31 12:27:11 | 50.16351 | 8.65703 | 39° | 16km/h | 28618m | 6.1m/s | -47.0°C | 0.9% | 15.4hPa | 2.6V | 00:00:00 | 00:00:00 | 00:00:00 | |
| DL1XH1-15 | 2026-08-31 12:27:10 | 50.16346 | 8.65687 | 84° | 15km/h | 28601m | 4.5m/s | -46.9°C | 3.2% | 15.4hPa | 2.6V | 03:20:52 | 01:54:39 | 00:00:00 | |
| DL1XH-15 | 2026-08-31 12:27:08 | 50.16345 | 8.65674 | 72° | 20km/h | 28591m | 6.2m/s | -47°C | 3.3% | 15.5hPa | 2.7V | 03:20:54 | 01:54:37 | 00:00:00 | |
| DL1NUX | 2026-08-31 12:27:08 | 50.16335 | 8.65650 | 42° | 26km/h | 28574m | 5m/s | -46.9°C | 3.3% | 15.5hPa | 2.7V | 03:20:57 | 01:54:34 | 00:00:00 | |
| DL1XH-west | 2026-08-31 12:27:08 | 50.16346 | 8.65687 | 84° | 15km/h | 28601m | 4.5m/s | -46.9°C | 0.4% | 15.4hPa | 2.6V | 03:21:37 | 01:54:39 | 00:00:00 | |
| DF8AY-15 | 2026-08-31 12:27:07 | 50.16346 | 8.65681 | 81° | 20km/h | 28597m | 4.9m/s | 0°C | 0% | 0hPa | 2.6V | 03:20:00 | 01:54:38 | 00:00:00 | |
| DM0DOS-11 | 2026-08-31 12:27:06 | 50.16322 | 8.65636 | 33° | 15km/h | 28557m | 5.9m/s | -47°C | 3.4% | 15.6hPa | 2.6V | 03:21:00 | 01:54:31 | 00:00:00 | |
| BIOWL1-15 | 2026-08-31 12:27:04 | 50.16339 | 8.65658 | 51° | 26km/h | 28579m | 5.4m/s | -46.9°C | 0.5% | 15.5hPa | 2.6V | 03:21:37 | 01:54:35 | 00:00:00 | |
| DL1XH1-15 | 2026-08-31 12:27:03 | 50.16318 | 8.65629 | 68° | 13km/h | 28547m | 4.8m/s | -47.1°C | 3.4% | 15.6hPa | 2.6V | 03:21:02 | 01:54:29 | 00:00:00 | |
| DD8BA-10 | 2026-08-31 12:27:03 | 50.16334 | 8.65650 | 43° | 20km/h | 28574m | 5.0m/s | -46.9°C | 3.3% | 15.5hPa | 2.7V | 00:00:00 | 00:00:00 | 00:00:00 | |
| GOEST3-10 | 2026-08-31 12:27:02 | 50.16330 | 8.65644 | 36° | 16km/h | 28569m | 4.9m/s | -46.9°C | 3.4% | 15.5hPa | 2.7V | 00:00:00 | 00:00:00 | 00:00:00 | |
| DL1XH-15 | 2026-08-31 12:27:01 | 50.16315 | 8.65616 | 67° | 24km/h | 28537m | 5.5m/s | -47.2°C | 3.4% | 15.6hPa | 2.7V | 03:21:04 | 01:54:27 | 00:00:00 | |
| DF8AY | 2026-08-31 12:27:00 | 50.16322 | 8.65636 | 33° | 15km/h | 28557m | 5.9m/s | -47°C | 0.5% | 15.6hPa | 2.6V | 03:26:43 | 01:54:31 | 00:00:00 | |
| DL1XH-west | 2026-08-31 12:26:57 | 50.16317 | 8.65623 | 72° | 18km/h | 28542m | 5.5m/s | -47.2°C | 0.4% | 15.6hPa | 2.7V | 03:21:37 | 01:54:28 | 00:00:00 | |
| DO9LL-15 | 2026-08-31 12:26:57 | 50.16317 | 8.65623 | 72° | 16km/h | 28542m | 5.4m/s | -47.1°C | 3.4% | 15.6hPa | 2.7V | 00:00:00 | 01:54:28 | 00:00:00 | |
| DM0DOS-11 | 2026-08-31 12:26:55 | 50.16282 | 8.65568 | 26° | 26km/h | 28502m | 5.3m/s | -47.3°C | 3.3% | 15.7hPa | 2.7V | 03:21:10 | 01:54:21 | 00:00:00 | |
| DF8AY | 2026-08-31 12:26:50 | 50.16282 | 8.65568 | 26° | 26km/h | 28502m | 5.3m/s | -47.3°C | 0.4% | 15.7hPa | 2.7V | 03:26:43 | 01:54:21 | 00:00:00 | |
| DL1XH1-15 | 2026-08-31 12:26:50 | 50.16273 | 8.65559 | 39° | 18km/h | 28492m | 5.1m/s | -47.2°C | 3.4% | 15.8hPa | 2.6V | 03:21:12 | 01:54:19 | 00:00:00 | |
| AA1-15 | 2026-08-31 12:26:49 | 50.16277 | 8.65564 | 29° | 22km/h | 28498m | 5m/s | -47.2°C | 0.5% | 15.7hPa | 2.7V | 03:21:37 | 01:54:20 | 00:00:00 | |
| DK5PH-5 | 2026-08-31 12:26:49 | 50.16277 | 8.65564 | 29° | 16km/h | 28498m | 4.9m/s | -47.2°C | 3.4% | 15.7hPa | 2.7V | 00:00:00 | 01:54:20 | 00:00:00 | |
| DL1XH-15 | 2026-08-31 12:26:48 | 50.16267 | 8.65547 | 68° | 22km/h | 28481m | 5.8m/s | -47°C | 3.4% | 15.8hPa | 2.6V | 03:21:14 | 01:54:17 | 00:00:00 | |
| GOEST3-10 | 2026-08-31 12:26:47 | 50.16269 | 8.65554 | 56° | 22km/h | 28488m | 5.6m/s | -47.1°C | 3.4% | 15.7hPa | 2.6V | 00:00:00 | 01:54:18 | 00:00:00 | |
| DL1XH-west | 2026-08-31 12:26:47 | 50.16269 | 8.65554 | 56° | 18km/h | 28487m | 5.6m/s | -47.2°C | 0.5% | 15.7hPa | 2.6V | 03:21:37 | 01:54:18 | 00:00:00 | |
| DO3DL | 2026-08-31 12:26:46 | 50.16269 | 8.65553 | 57° | 18km/h | 28488m | 5.6m/s | -47.2°C | 1.0% | 15.7hPa | 2.6V | 03:21:00 | 00:00:00 | 00:00:00 | |
| DM0DOS-11 | 2026-08-31 12:26:45 | 50.16246 | 8.65505 | 0° | 20km/h | 28450m | 5.3m/s | -46.9°C | 3.1% | 15.8hPa | 2.6V | 03:21:20 | 01:54:11 | 00:00:00 | |
| DL1NUX | 2026-08-31 12:26:44 | 50.16261 | 8.65520 | 59° | 26km/h | 28466m | 4.6m/s | -46.9°C | 3.2% | 15.8hPa | 2.7V | 03:21:17 | 01:54:14 | 00:00:00 | |
| DF8AY-15 | 2026-08-31 12:26:44 | 50.16263 | 8.65529 | 70° | 15km/h | 28471m | 4.3m/s | 0°C | 0% | 0hPa | 2.7V | 00:00:00 | 01:54:15 | 00:00:00 | |
| DL1XH1-15 | 2026-08-31 12:26:43 | 50.16237 | 8.65509 | 334° | 15km/h | 28440m | 5.3m/s | -46.9°C | 3.2% | 15.9hPa | 2.7V | 03:21:22 | 01:54:09 | 00:00:00 | |
| DD8BA-10 | 2026-08-31 12:26:43 | 50.16260 | 8.65519 | 60° | 18km/h | 28467m | 4.6m/s | -46.8°C | 3.2% | 15.7hPa | 2.7V | 00:00:00 | 00:00:00 | 00:00:00 | |
| GOEST3-10 | 2026-08-31 12:26:42 | 50.16256 | 8.65512 | 43° | 18km/h | 28462m | 5.2m/s | -46.8°C | 3.2% | 15.8hPa | 2.6V | 00:00:00 | 00:00:00 | 00:00:00 | |
| DL1XH-15 | 2026-08-31 12:26:41 | 50.16233 | 8.65511 | 17° | 5km/h | 28429m | 5.3m/s | -46.7°C | 3.1% | 15.9hPa | 2.6V | 03:21:24 | 01:54:07 | 00:00:00 | |
| DF8AY | 2026-08-31 12:26:39 | 50.16241 | 8.65506 | 344° | 18km/h | 28445m | 5.1m/s | -46.9°C | 0.3% | 15.8hPa | 2.7V | 03:26:43 | 01:54:10 | 00:00:00 | |
| AA1-15 | 2026-08-31 12:26:39 | 50.16237 | 8.65509 | 335° | 15km/h | 28440m | 5.3m/s | -46.9°C | 0.4% | 15.9hPa | 2.7V | 03:21:37 | 01:54:09 | 00:00:00 | |
| DL1NUX | 2026-08-31 12:26:38 | 50.16228 | 8.65500 | 56° | 18km/h | 28413m | 6m/s | -46.9°C | 3.2% | 15.9hPa | 2.7V | 03:21:27 | 01:54:04 | 00:00:00 | |
| HSKMA3-T | 2026-08-31 12:26:37 | 50.16235 | 8.65511 | 337° | 9km/h | 28435m | 5.6m/s | -46.7°C | 0.3% | 15.9hPa | 2.7V | 03:21:37 | 01:54:08 | 00:00:00 | |
| DL1XH-west | 2026-08-31 12:26:36 | 50.16233 | 8.65511 | 18° | 5km/h | 28429m | 5.3m/s | -46.7°C | 0.3% | 15.9hPa | 2.6V | 03:21:37 | 01:54:07 | 00:00:00 | |
| GOEST3-10 | 2026-08-31 12:26:36 | 50.16232 | 8.65511 | 18° | 15km/h | 28430m | 5.3m/s | -46.6°C | 3.1% | 15.8hPa | 2.6V | 00:00:00 | 01:54:07 | 00:00:00 | |
| DD8BA-10 | 2026-08-31 12:26:33 | 50.16227 | 8.65500 | 57° | 13km/h | 28413m | 5.9m/s | -46.9°C | 3.2% | 15.9hPa | 2.7V | 03:21:00 | 00:00:00 | 00:00:00 | |
| DL8DAS-15 | 2026-08-31 12:26:32 | 50.16228 | 8.65500 | 57° | 18km/h | 28413m | 6.0m/s | -46.9°C | 1.0% | 15.9hPa | 2.7V | 03:21:00 | 00:00:00 | 00:00:00 | |
| GOEST3-10 | 2026-08-31 12:26:31 | 50.16221 | 8.65488 | 42° | 15km/h | 28402m | 5.1m/s | -46.8°C | 3.2% | 15.9hPa | 2.7V | 03:21:00 | 00:00:00 | 00:00:00 | |
| DL1XH1-15 | 2026-08-31 12:26:30 | 50.16210 | 8.65477 | 21° | 11km/h | 28387m | 5.8m/s | -47.2°C | 3.3% | 16hPa | 2.7V | 03:21:32 | 01:53:59 | 00:00:00 | |
| BIOWL1-15 | 2026-08-31 12:26:30 | 50.16217 | 8.65483 | 34° | 20km/h | 28397m | 4.8m/s | -46.9°C | 0.4% | 16hPa | 2.6V | 03:21:37 | 01:54:01 | 00:00:00 | |
| DL1XH-15 | 2026-08-31 12:26:28 | 50.16207 | 8.65476 | 349° | 4km/h | 28375m | 5.2m/s | -47.4°C | 3.3% | 16hPa | 2.6V | 03:21:34 | 01:53:57 | 00:00:00 | |
| HSKMA3-T | 2026-08-31 12:26:27 | 50.16205 | 8.65477 | 3° | 7km/h | 28365m | 5.6m/s | -47.6°C | 0.4% | 16hPa | 2.7V | 03:21:37 | 01:53:55 | 00:00:00 | |
| DL1XH-west | 2026-08-31 12:26:26 | 50.16207 | 8.65476 | 349° | 4km/h | 28375m | 5.3m/s | -47.4°C | 0.4% | 16hPa | 2.6V | 03:21:37 | 01:53:57 | 00:00:00 | |
| DL3AQ-11 | 2026-08-31 12:26:26 | 50.16205 | 8.65477 | 2° | 5km/h | 28365m | 5.6m/s | -47.6°C | 0.9% | 16.0hPa | 2.6V | 00:00:00 | 00:00:00 | 00:00:00 | |
| DL4BBY-15 | 2026-08-31 12:26:24 | 50.16205 | 8.65477 | 3° | 11km/h | 28365m | 5.6m/s | -46.9°C | 0% | 0hPa | 2.6V | 00:00:00 | 00:00:00 | 00:00:00 | |
| DL1XH1-15 | 2026-08-31 12:26:23 | 50.16187 | 8.65474 | 333° | 11km/h | 28332m | 5.4m/s | -47.9°C | 3.3% | 16.1hPa | 2.6V | 03:21:42 | 01:53:49 | 00:00:00 | |
| BIOWL1-15 | 2026-08-31 12:26:19 | 50.16189 | 8.65473 | 352° | 11km/h | 28338m | 6.2m/s | -47.9°C | 0.4% | 16.1hPa | 2.7V | 03:22:28 | 01:53:50 | 00:00:00 | |
| AA1-15 | 2026-08-31 12:26:18 | 50.16181 | 8.65479 | 329° | 13km/h | 28321m | 5.7m/s | -47.9°C | 0.5% | 16.1hPa | 2.7V | 03:22:28 | 01:53:47 | 00:00:00 | |
| DL1XH-west | 2026-08-31 12:26:15 | 50.16178 | 8.65481 | 335° | 15km/h | 28316m | 6m/s | -47.9°C | 0.6% | 16.2hPa | 2.7V | 03:22:28 | 01:53:46 | 00:00:00 | |
| DD8BA-10 | 2026-08-31 12:26:13 | 50.16171 | 8.65486 | 339° | 11km/h | 28306m | 4.5m/s | -47.7°C | 3.5% | 16.1hPa | 2.6V | 00:00:00 | 00:00:00 | 00:00:00 | |
| DM0DOS-11 | 2026-08-31 12:26:12 | 50.16164 | 8.65493 | 307° | 7km/h | 28289m | 5m/s | -47.8°C | 3.5% | 16.2hPa | 2.7V | 03:21:50 | 01:53:41 | 00:00:00 | |
| DB0UT-7 | 2026-08-31 12:26:11 | 50.16165 | 8.65490 | 320° | 11km/h | 28295m | 6.0m/s | -47.7°C | 3.5% | 16.2hPa | 2.7V | 00:00:00 | 00:00:00 | 00:00:00 | |
| DD1CC8 | 2026-08-31 12:26:09 | 50.16161 | 8.65496 | 348° | 5km/h | 28280m | 4.8m/s | -47.9°C | 1.0% | 16.2hPa | 2.7V | 00:00:00 | 00:00:00 | 00:00:00 | |
| DL1NUX | 2026-08-31 12:26:08 | 50.16146 | 8.65491 | 358° | 11km/h | 28253m | 6.2m/s | -48.1°C | 3.4% | 16.3hPa | 2.7V | 03:21:57 | 01:53:34 | 00:00:00 | |
| BIOWL1-15 | 2026-08-31 12:26:08 | 50.16161 | 8.65496 | 348° | 5km/h | 28280m | 4.8m/s | -47.9°C | 0.6% | 16.2hPa | 2.7V | 03:22:28 | 01:53:39 | 00:00:00 | |
| AA1-15 | 2026-08-31 12:26:08 | 50.16157 | 8.65495 | 18° | 15km/h | 28268m | 5.8m/s | -48.1°C | 0.5% | 16.3hPa | 2.6V | 03:22:28 | 01:53:37 | 00:00:00 | |
| DL1XH-west | 2026-08-31 12:26:05 | 50.16153 | 8.65493 | 17° | 15km/h | 28263m | 4.9m/s | -48.1°C | 0.5% | 16.3hPa | 2.6V | 03:22:28 | 01:53:36 | 00:00:00 | |
| DL1XH1-15 | 2026-08-31 12:26:03 | 50.16136 | 8.65500 | 346° | 11km/h | 28225m | 5.5m/s | -47.9°C | 3.5% | 16.4hPa | 2.7V | 03:22:02 | 01:53:29 | 00:00:00 | |
| DF8AY | 2026-08-31 12:26:01 | 50.16142 | 8.65494 | 317° | 9km/h | 28242m | 5m/s | -48.1°C | 0.5% | 16.3hPa | 2.6V | 03:26:43 | 01:53:32 | 00:00:00 | |
| BIOWL1-15 | 2026-08-31 12:25:58 | 50.16136 | 8.65500 | 346° | 11km/h | 28225m | 5.5m/s | -47.9°C | 0.6% | 16.4hPa | 2.7V | 03:22:28 | 01:53:29 | 00:00:00 | |
| AA1-15 | 2026-08-31 12:25:57 | 50.16126 | 8.65502 | 350° | 7km/h | 28204m | 5.3m/s | -47.9°C | 0.5% | 16.4hPa | 2.6V | 03:22:28 | 01:53:25 | 00:00:00 | |
| DO1YAY-16 | 2026-08-31 12:25:56 | 50.16128 | 8.65501 | 355° | 7km/h | 28210m | 6.2m/s | -47.9°C | 1.0% | 16.4hPa | 2.6V | 00:00:00 | 00:00:00 | 00:00:00 | |
| DL1XH-15 | 2026-08-31 12:25:55 | 50.16124 | 8.65502 | 349° | 9km/h | 28200m | 4.2m/s | -47.9°C | 3.3% | 16.4hPa | 2.6V | 03:22:07 | 01:53:24 | 00:00:00 | |
| DL1XH-west | 2026-08-31 12:25:55 | 50.16123 | 8.65502 | 350° | 9km/h | 28200m | 4.3m/s | -47.9°C | 0.5% | 16.5hPa | 2.6V | 03:22:28 | 01:53:24 | 00:00:00 | |
| DF7PN | 2026-08-31 12:25:55 | 50.16107 | 8.65502 | 0° | 22km/h | 28179m | 5.0m/s | -47.9°C | 1.0% | 16.5hPa | 2.7V | 00:00:00 | 00:00:00 | 00:00:00 | |
| DD8BA-10 | 2026-08-31 12:25:53 | 50.16123 | 8.65502 | 350° | 16km/h | 28200m | 4.2m/s | -47.8°C | 3.3% | 16.4hPa | 2.7V | 03:22:00 | 00:00:00 | 00:00:00 | |
| DM0DOS-11 | 2026-08-31 12:25:51 | 50.16113 | 8.65502 | 3° | 20km/h | 28185m | 6m/s | -48°C | 3.4% | 16.5hPa | 2.7V | 03:22:10 | 01:53:21 | 00:00:00 | |
| DO9LL-15 | 2026-08-31 12:25:51 | 50.16117 | 8.65503 | 3° | 13km/h | 28191m | 5.8m/s | -48.0°C | 3.4% | 16.4hPa | 2.6V | 00:00:00 | 01:53:22 | 00:00:00 | |
| DL1XH1-15 | 2026-08-31 12:25:50 | 50.16101 | 8.65503 | 353° | 24km/h | 28174m | 4.6m/s | -47.9°C | 3.4% | 16.5hPa | 2.6V | 03:22:12 | 01:53:19 | 00:00:00 | |
| DF8AY | 2026-08-31 12:25:49 | 50.16107 | 8.65502 | 0° | 24km/h | 28179m | 5m/s | -47.9°C | 0.4% | 16.5hPa | 2.6V | 03:26:43 | 01:53:20 | 00:00:00 | |
| BIOWL1-15 | 2026-08-31 12:25:49 | 50.16096 | 8.65504 | 345° | 22km/h | 28169m | 6m/s | -47.9°C | 0.5% | 16.5hPa | 2.6V | 03:22:28 | 01:53:18 | 00:00:00 | |
| AA1-15 | 2026-08-31 12:25:47 | 50.16088 | 8.65510 | 323° | 15km/h | 28158m | 4.8m/s | -47.9°C | 0.5% | 16.6hPa | 2.7V | 03:22:28 | 01:53:16 | 00:00:00 | |
| DO3DL | 2026-08-31 12:25:46 | 50.16096 | 8.65504 | 346° | 22km/h | 28169m | 6.0m/s | -47.9°C | 1.0% | 16.5hPa | 2.6V | 03:22:00 | 00:00:00 | 00:00:00 | |
| DM0DOS-11 | 2026-08-31 12:25:45 | 50.16073 | 8.65510 | 43° | 9km/h | 28127m | 6.2m/s | -48.2°C | 3.4% | 16.6hPa | 2.6V | 03:22:21 | 01:53:10 | 00:00:00 | |
| DL3AQ-11 | 2026-08-31 12:25:45 | 50.16088 | 8.65510 | 323° | 13km/h | 28158m | 4.8m/s | -47.9°C | 1.0% | 16.6hPa | 2.7V | 00:00:00 | 00:00:00 | 00:00:00 | |
| DL1XH-west | 2026-08-31 12:25:44 | 50.16085 | 8.65513 | 324° | 13km/h | 28153m | 4.5m/s | -48°C | 0.5% | 16.6hPa | 2.7V | 03:22:28 | 01:53:15 | 00:00:00 | |
| DF8AY | 2026-08-31 12:25:40 | 50.16073 | 8.65510 | 43° | 9km/h | 28127m | 6.2m/s | -48.2°C | 0.5% | 16.6hPa | 2.6V | 03:26:43 | 01:53:10 | 00:00:00 | |
| DJ8HS-15 | 2026-08-31 12:25:39 | 50.16073 | 8.65510 | 44° | 15km/h | 28127m | 6.1m/s | -48.2°C | 3.4% | 16.6hPa | 2.6V | 00:00:00 | 01:53:10 | 00:00:00 | |
| DL1NUX | 2026-08-31 12:25:38 | 50.16050 | 8.65504 | 353° | 27km/h | 28096m | 4.6m/s | -48.1°C | 3.3% | 16.7hPa | 2.7V | 03:22:27 | 01:53:04 | 00:00:00 | |
| BIOWL1-15 | 2026-08-31 12:25:36 | 50.16066 | 8.65505 | 10° | 15km/h | 28112m | 4.1m/s | -48.2°C | 0.5% | 16.7hPa | 2.7V | 03:22:28 | 01:53:07 | 00:00:00 | |
| DL1XH-west | 2026-08-31 12:25:34 | 50.16057 | 8.65503 | 360° | 24km/h | 28101m | 5.8m/s | -48.1°C | 0.5% | 16.7hPa | 2.6V | 03:22:28 | 01:53:05 | 00:00:00 | |
| DL3AQ-11 | 2026-08-31 12:25:34 | 50.16050 | 8.65504 | 353° | 27km/h | 28096m | 4.6m/s | -48.1°C | 1.0% | 16.7hPa | 2.6V | 00:00:00 | 00:00:00 | 00:00:00 | |
| DD8BA-10 | 2026-08-31 12:25:33 | 50.16050 | 8.65504 | 354° | 16km/h | 28096m | 4.5m/s | -48.1°C | 3.3% | 16.7hPa | 2.6V | 00:00:00 | 00:00:00 | 00:00:00 | |
| DM0DOS-11 | 2026-08-31 12:25:32 | 50.16032 | 8.65515 | 318° | 22km/h | 28081m | 6.2m/s | -48.3°C | 3.4% | 16.7hPa | 2.6V | 03:22:30 | 01:53:01 | 00:00:00 | |
| DF8AY | 2026-08-31 12:25:28 | 50.16027 | 8.65526 | 289° | 13km/h | 28070m | 4.3m/s | -48.3°C | 0.5% | 16.8hPa | 2.7V | 03:26:43 | 01:52:59 | 00:00:00 | |
| DL1XH-15 | 2026-08-31 12:25:27 | 50.16014 | 8.65521 | 20° | 13km/h | 28036m | 5.5m/s | -48.5°C | 3.5% | 16.9hPa | 2.7V | 03:22:39 | 01:52:52 | 00:00:00 | |
| SO1NDE-10 | 2026-08-31 12:25:27 | 50.16027 | 8.65530 | 288° | 11km/h | 28066m | 4.5m/s | -48.3°C | 3.5% | 16.7hPa | 2.7V | 00:00:00 | 01:52:58 | 00:00:00 | |
| DL1NUX | 2026-08-31 12:25:26 | 50.16020 | 8.65526 | 39° | 15km/h | 28046m | 4.1m/s | -48.5°C | 3.4% | 16.8hPa | 2.7V | 03:22:37 | 01:52:54 | 00:00:00 | |
| BIOWL9-15 | 2026-08-31 12:25:26 | 50.16026 | 8.65533 | 323° | 4km/h | 28061m | 5.9m/s | -48.3°C | 1.0% | 16.8hPa | 2.6V | 00:00:00 | 00:00:00 | 00:00:00 | |
| DM0DOS-11 | 2026-08-31 12:25:25 | 50.16011 | 8.65520 | 1° | 13km/h | 28030m | 4.9m/s | -48.6°C | 3.5% | 16.9hPa | 2.6V | 03:22:40 | 01:52:51 | 00:00:00 | |
| HSKMA3-T | 2026-08-31 12:25:24 | 50.16014 | 8.65521 | 21° | 13km/h | 28036m | 5.5m/s | -48.6°C | 0.6% | 16.9hPa | 2.7V | 03:23:19 | 01:52:52 | 00:00:00 | |
| DL1XH-west | 2026-08-31 12:25:23 | 50.16020 | 8.65527 | 40° | 15km/h | 28046m | 4.1m/s | -48.5°C | 0.5% | 16.9hPa | 2.7V | 03:23:19 | 01:52:54 | 00:00:00 | |
| DD8BA-10 | 2026-08-31 12:25:23 | 50.16019 | 8.65527 | 40° | 13km/h | 28046m | 4.0m/s | -48.5°C | 3.4% | 16.8hPa | 2.6V | 00:00:00 | 00:00:00 | 00:00:00 | |
| DO3DL | 2026-08-31 12:25:22 | 50.16017 | 8.65523 | 34° | 15km/h | 28041m | 5.3m/s | -48.6°C | 1.0% | 16.9hPa | 2.6V | 03:23:00 | 00:00:00 | 00:00:00 | |
| DO9LL-15 | 2026-08-31 12:25:20 | 50.16010 | 8.65519 | 2° | 11km/h | 28031m | 4.8m/s | -48.5°C | 3.5% | 16.8hPa | 2.6V | 03:22:00 | 01:52:51 | 00:00:00 | |
| DK5PH-5 | 2026-08-31 12:25:19 | 50.16007 | 8.65520 | 351° | 11km/h | 28026m | 4.4m/s | -48.6°C | 3.5% | 16.8hPa | 2.6V | 03:22:00 | 01:52:50 | 00:00:00 | |
| DL1NUX | 2026-08-31 12:25:18 | 50.15985 | 8.65525 | 331° | 9km/h | 27989m | 5m/s | -48.7°C | 3.6% | 17hPa | 2.6V | 03:22:48 | 01:52:43 | 00:00:00 | |
| DF8AY | 2026-08-31 12:25:17 | 50.16001 | 8.65522 | 353° | 15km/h | 28016m | 6m/s | -48.8°C | 0.6% | 16.9hPa | 2.7V | 03:26:43 | 01:52:48 | 00:00:00 | |
| BIOWL1-15 | 2026-08-31 12:25:15 | 50.15955 | 8.65507 | 325° | 11km/h | 27941m | 3.9m/s | -48.9°C | 0.6% | 17.1hPa | 2.6V | 03:23:19 | 01:52:33 | 00:00:00 | |
| DL1XH-15 | 2026-08-31 12:25:14 | 50.15985 | 8.65525 | 331° | 9km/h | 27989m | 5m/s | -48.7°C | 3.6% | 17hPa | 2.6V | 03:22:48 | 01:52:43 | 00:00:00 | |
| HSKMA3-T | 2026-08-31 12:25:14 | 50.15990 | 8.65523 | 353° | 13km/h | 28000m | 4.8m/s | -48.8°C | 0.7% | 17hPa | 2.6V | 03:23:19 | 01:52:45 | 00:00:00 | |
| AA1-15 | 2026-08-31 12:25:14 | 50.15985 | 8.65525 | 332° | 9km/h | 27989m | 5.1m/s | -48.7°C | 0.6% | 17hPa | 2.6V | 03:23:19 | 01:52:43 | 00:00:00 | |
| DL1XH-west | 2026-08-31 12:25:13 | 50.15987 | 8.65524 | 342° | 11km/h | 27995m | 6m/s | -48.8°C | 0.6% | 17hPa | 2.6V | 03:23:19 | 01:52:44 | 00:00:00 | |
| DL1XH1-15 | 2026-08-31 12:25:13 | 50.15977 | 8.65521 | 47° | 16km/h | 27970m | 5.6m/s | -48.8°C | 3.5% | 17.1hPa | 2.6V | 03:22:52 | 01:52:39 | 00:00:00 | |
| DD8BA-10 | 2026-08-31 12:25:13 | 50.15987 | 8.65524 | 343° | 15km/h | 27995m | 5.9m/s | -48.7°C | 3.6% | 16.9hPa | 2.6V | 03:22:00 | 00:00:00 | 00:00:00 | |
| DM0DOS-11 | 2026-08-31 12:25:12 | 50.15981 | 8.65527 | 14° | 7km/h | 27981m | 4.3m/s | -48.7°C | 3.5% | 17hPa | 2.7V | 03:22:50 | 01:52:41 | 00:00:00 | |
| DF8AY | 2026-08-31 12:25:06 | 50.15970 | 8.65511 | 37° | 20km/h | 27961m | 4.2m/s | -48.9°C | 0.7% | 17.1hPa | 2.6V | 03:26:43 | 01:52:37 | 00:00:00 | |
| DL1NUX | 2026-08-31 12:25:06 | 50.15958 | 8.65505 | 343° | 13km/h | 27945m | 4.5m/s | -48.8°C | 3.5% | 17.1hPa | 2.7V | 03:22:57 | 01:52:34 | 00:00:00 | |
| DM0DOS-11 | 2026-08-31 12:25:05 | 50.15952 | 8.65510 | 324° | 2km/h | 27932m | 5.8m/s | -49°C | 3.6% | 17.1hPa | 2.6V | 03:23:00 | 01:52:31 | 00:00:00 | |
| BIOWL1-15 | 2026-08-31 12:25:05 | 50.15953 | 8.65509 | 317° | 7km/h | 27937m | 4.9m/s | -48.9°C | 0.6% | 17.1hPa | 2.6V | 03:23:19 | 01:52:32 | 00:00:00 | |
| DL1XH-west | 2026-08-31 12:25:03 | 50.15958 | 8.65505 | 344° | 13km/h | 27946m | 4.6m/s | -48.8°C | 0.6% | 17.1hPa | 2.7V | 03:23:19 | 01:52:34 | 00:00:00 | |
| DD8BA-10 | 2026-08-31 12:25:03 | 50.15958 | 8.65505 | 344° | 9km/h | 27946m | 4.5m/s | -48.8°C | 3.5% | 17.1hPa | 2.7V | 00:00:00 | 00:00:00 | 00:00:00 | |
| DL8DAS-15 | 2026-08-31 12:25:02 | 50.15958 | 8.65505 | 345° | 13km/h | 27946m | 4.6m/s | -48.8°C | 1.1% | 17.1hPa | 2.7V | 00:00:00 | 00:00:00 | 00:00:00 | |
| DO3DL | 2026-08-31 12:25:01 | 50.15955 | 8.65507 | 326° | 11km/h | 27942m | 3.9m/s | -48.9°C | 1.0% | 17.1hPa | 2.7V | 03:23:00 | 00:00:00 | 00:00:00 | |
| DL1XH1-15 | 2026-08-31 12:25:00 | 50.15952 | 8.65507 | 97° | 9km/h | 27920m | 5.3m/s | -49°C | 3.7% | 17.2hPa | 2.7V | 03:23:02 | 01:52:29 | 00:00:00 | |
| DF8AY-15 | 2026-08-31 12:25:00 | 50.15952 | 8.65510 | 325° | 13km/h | 27932m | 5.8m/s | 0°C | 0% | 0hPa | 2.7V | 00:00:00 | 01:52:31 | 00:00:00 | |
| GOEST3-10 | 2026-08-31 12:24:59 | 50.15952 | 8.65510 | 91° | 9km/h | 27926m | 5.5m/s | -49.0°C | 3.6% | 17.1hPa | 2.7V | 00:00:00 | 00:00:00 | 00:00:00 | |
| DL1NUX | 2026-08-31 12:24:58 | 50.15950 | 8.65489 | 14° | 7km/h | 27896m | 4.9m/s | -48.9°C | 3.7% | 17.2hPa | 2.7V | 03:23:07 | 01:52:24 | 00:00:00 | |
| DF8AY | 2026-08-31 12:24:54 | 50.15952 | 8.65491 | 53° | 7km/h | 27901m | 5.2m/s | -48.9°C | 0.7% | 17.2hPa | 2.7V | 03:26:43 | 01:52:25 | 00:00:00 | |
| DL3AQ-11 | 2026-08-31 12:24:54 | 50.15950 | 8.65489 | 14° | 5km/h | 27897m | 4.9m/s | -48.9°C | 1.1% | 17.2hPa | 2.6V | 00:00:00 | 00:00:00 | 00:00:00 | |
| DL1XH1-15 | 2026-08-31 12:24:53 | 50.15937 | 8.65481 | 37° | 16km/h | 27872m | 4.4m/s | -48.9°C | 3.7% | 17.3hPa | 2.6V | 03:23:12 | 01:52:19 | 00:00:00 | |
| AA1-15 | 2026-08-31 12:24:53 | 50.15943 | 8.65487 | 24° | 11km/h | 27883m | 5.6m/s | -48.9°C | 0.7% | 17.3hPa | 2.7V | 03:23:19 | 01:52:21 | 00:00:00 | |
| DB0UT-7 | 2026-08-31 12:24:53 | 50.15950 | 8.65489 | 15° | 18km/h | 27897m | 4.8m/s | -48.8°C | 3.7% | 17.2hPa | 2.7V | 03:23:00 | 01:52:24 | 00:00:00 | |
| DM0DOS-11 | 2026-08-31 12:24:52 | 50.15943 | 8.65487 | 23° | 11km/h | 27883m | 5.6m/s | -48.9°C | 3.7% | 17.3hPa | 2.7V | 03:23:10 | 01:52:21 | 00:00:00 | |
| HSKMA3-T | 2026-08-31 12:24:52 | 50.15948 | 8.65489 | 2° | 9km/h | 27892m | 4.1m/s | -48.9°C | 0.7% | 17.2hPa | 2.6V | 03:23:19 | 01:52:23 | 00:00:00 | |
| BIOWL1-15 | 2026-08-31 12:24:51 | 50.15941 | 8.65485 | 36° | 15km/h | 27877m | 5.2m/s | -48.9°C | 0.7% | 17.3hPa | 2.7V | 03:23:19 | 01:52:20 | 00:00:00 | |
| SONDE2-11 | 2026-08-31 12:24:47 | 50.15934 | 8.65477 | 31° | 18km/h | 27868m | 5.0m/s | -48.9°C | 1.1% | 17.3hPa | 2.7V | 00:00:00 | 00:00:00 | 00:00:00 | |
| DM0DOS-11 | 2026-08-31 12:24:45 | 50.15907 | 8.65454 | 63° | 13km/h | 27830m | 4.3m/s | -48.9°C | 3.6% | 17.4hPa | 2.7V | 03:23:20 | 01:52:11 | 00:00:00 | |
| DF8AY | 2026-08-31 12:24:44 | 50.15919 | 8.65468 | 19° | 20km/h | 27851m | 4.5m/s | -48.9°C | 0.7% | 17.4hPa | 2.6V | 03:26:43 | 01:52:15 | 00:00:00 | |
| HSKMA3-T | 2026-08-31 12:24:42 | 50.15911 | 8.65462 | 37° | 15km/h | 27841m | 6.5m/s | -48.9°C | 0.7% | 17.4hPa | 2.7V | 03:23:19 | 01:52:13 | 00:00:00 | |
| BIOWL1-15 | 2026-08-31 12:24:42 | 50.15901 | 8.65446 | 4° | 13km/h | 27815m | 5.7m/s | -48.9°C | 0.6% | 17.5hPa | 2.6V | 03:24:10 | 01:52:08 | 00:00:00 | |
| DL1XH-west | 2026-08-31 12:24:41 | 50.15908 | 8.65458 | 54° | 13km/h | 27835m | 5.5m/s | -48.9°C | 0.7% | 17.4hPa | 2.7V | 03:23:19 | 01:52:12 | 00:00:00 | |
| DL1XH-15 | 2026-08-31 12:24:41 | 50.15905 | 8.65450 | 54° | 11km/h | 27825m | 4.5m/s | -48.9°C | 3.6% | 17.4hPa | 2.6V | 03:23:21 | 01:52:10 | 00:00:00 | |
| DL1XH1-15 | 2026-08-31 12:24:40 | 50.15903 | 8.65447 | 31° | 9km/h | 27820m | 5.8m/s | -48.9°C | 3.6% | 17.4hPa | 2.6V | 03:23:22 | 01:52:09 | 00:00:00 | |
| DF8AY-15 | 2026-08-31 12:24:39 | 50.15905 | 8.65450 | 55° | 20km/h | 27826m | 4.4m/s | 0°C | 0% | 0hPa | 2.6V | 00:00:00 | 01:52:10 | 00:00:00 | |
| DL1NUX | 2026-08-31 12:24:38 | 50.15880 | 8.65445 | 16° | 26km/h | 27794m | 6m/s | -49°C | 3.5% | 17.5hPa | 2.6V | 03:23:27 | 01:52:04 | 00:00:00 | |
| DL3AQ-11 | 2026-08-31 12:24:38 | 50.15901 | 8.65446 | 3° | 11km/h | 27815m | 5.7m/s | -48.9°C | 1.0% | 17.5hPa | 2.7V | 00:00:00 | 00:00:00 | 00:00:00 | |
| DD1CC8 | 2026-08-31 12:24:36 | 50.15892 | 8.65447 | 356° | 22km/h | 27804m | 4.8m/s | -48.9°C | 1.0% | 17.5hPa | 2.7V | 00:00:00 | 00:00:00 | 00:00:00 | |
| SONCRA | 2026-08-31 12:24:35 | 50.15886 | 8.65447 | 5° | 24km/h | 27799m | 5.0m/s | -49.0°C | 1.0% | 17.5hPa | 2.7V | 00:00:00 | 00:00:00 | 00:00:00 | |
| DL1XH-15 | 2026-08-31 12:24:34 | 50.15851 | 8.65421 | 22° | 24km/h | 27767m | 5.3m/s | -49°C | 3.6% | 17.6hPa | 2.7V | 03:23:32 | 01:51:59 | 00:00:00 | |
| GOEST3-10 | 2026-08-31 12:24:34 | 50.15886 | 8.65447 | 6° | 26km/h | 27800m | 5.0m/s | -48.9°C | 3.5% | 17.5hPa | 2.7V | 00:00:00 | 01:52:05 | 00:00:00 | |
| DL1XH1-15 | 2026-08-31 12:24:33 | 50.15851 | 8.65421 | 22° | 24km/h | 27767m | 5.3m/s | -49°C | 3.6% | 17.6hPa | 2.7V | 03:23:32 | 01:51:59 | 00:00:00 | |
| HSKMA3-T | 2026-08-31 12:24:32 | 50.15874 | 8.65441 | 28° | 27km/h | 27788m | 5.5m/s | -49°C | 0.5% | 17.5hPa | 2.6V | 03:24:10 | 01:52:03 | 00:00:00 | |
| DL1XH-west | 2026-08-31 12:24:31 | 50.15868 | 8.65435 | 33° | 27km/h | 27783m | 4.4m/s | -49.1°C | 0.6% | 17.5hPa | 2.6V | 03:24:10 | 01:52:02 | 00:00:00 | |
| AA1-15 | 2026-08-31 12:24:31 | 50.15862 | 8.65430 | 32° | 27km/h | 27779m | 4.7m/s | -49.2°C | 0.6% | 17.6hPa | 2.7V | 03:24:10 | 01:52:01 | 00:00:00 | |
| BIOWL1-15 | 2026-08-31 12:24:29 | 50.15851 | 8.65421 | 22° | 24km/h | 27767m | 5.3m/s | -49°C | 0.6% | 17.6hPa | 2.7V | 03:24:10 | 01:51:59 | 00:00:00 | |
| GOEST3-10 | 2026-08-31 12:24:29 | 50.15857 | 8.65425 | 28° | 22km/h | 27773m | 6.1m/s | -49.1°C | 3.6% | 17.5hPa | 2.6V | 03:23:00 | 00:00:00 | 00:00:00 | |
| DO3DL | 2026-08-31 12:24:28 | 50.15856 | 8.65425 | 28° | 26km/h | 27773m | 6.1m/s | -49.1°C | 1.0% | 17.6hPa | 2.6V | 03:24:00 | 00:00:00 | 00:00:00 | |
| DF2AP-13 | 2026-08-31 12:24:27 | 50.15846 | 8.65417 | 22° | 26km/h | 27763m | 4.6m/s | -49.0°C | 3.6% | 17.5hPa | 2.6V | 00:00:00 | 01:51:58 | 00:00:00 | |
| DG1MJG | 2026-08-31 12:24:26 | 50.15846 | 8.65417 | 23° | 20km/h | 27763m | 4.6m/s | 0°C | 0% | 0hPa | 2.6V | 00:00:00 | 00:00:00 | 00:00:00 | |
| DM0DOS-11 | 2026-08-31 12:24:25 | 50.15799 | 8.65404 | 357° | 35km/h | 27720m | 3.9m/s | -49°C | 3.6% | 17.7hPa | 2.6V | 03:23:41 | 01:51:50 | 00:00:00 | |
| DF8AY | 2026-08-31 12:24:23 | 50.15769 | 8.65391 | 41° | 29km/h | 27700m | 5m/s | -49.1°C | 0.6% | 17.8hPa | 2.6V | 03:26:43 | 01:51:46 | 00:00:00 | |
| HSKMA3-T | 2026-08-31 12:24:21 | 50.15815 | 8.65402 | 360° | 27km/h | 27730m | 6.5m/s | -49.1°C | 0.6% | 17.7hPa | 2.6V | 03:24:10 | 01:51:52 | 00:00:00 | |
| DL1XH-west | 2026-08-31 12:24:21 | 50.15808 | 8.65403 | 355° | 33km/h | 27725m | 5.2m/s | -49.1°C | 0.6% | 17.7hPa | 2.6V | 03:24:10 | 01:51:51 | 00:00:00 | |
| AA1-15 | 2026-08-31 12:24:21 | 50.15799 | 8.65404 | 358° | 35km/h | 27720m | 3.9m/s | -49.1°C | 0.7% | 17.7hPa | 2.6V | 03:24:10 | 01:51:50 | 00:00:00 | |
| DL1XH1-15 | 2026-08-31 12:24:21 | 50.15791 | 8.65404 | 4° | 33km/h | 27716m | 4m/s | -49°C | 3.6% | 17.7hPa | 2.7V | 03:23:42 | 01:51:49 | 00:00:00 | |
| BIOWL1-15 | 2026-08-31 12:24:17 | 50.15783 | 8.65402 | 14° | 31km/h | 27711m | 5.8m/s | -49.1°C | 0.6% | 17.7hPa | 2.7V | 03:24:10 | 01:51:48 | 00:00:00 | |
| SONDE2-11 | 2026-08-31 12:24:16 | 50.15775 | 8.65397 | 28° | 29km/h | 27705m | 5.9m/s | -49.1°C | 1.0% | 17.8hPa | 2.6V | 00:00:00 | 00:00:00 | 00:00:00 | |
| DO3DL | 2026-08-31 12:24:15 | 50.15775 | 8.65397 | 29° | 29km/h | 27706m | 5.9m/s | -49.1°C | 1.0% | 17.8hPa | 2.6V | 03:24:00 | 00:00:00 | 00:00:00 | |
| DL3AQ-11 | 2026-08-31 12:24:14 | 50.15760 | 8.65377 | 43° | 22km/h | 27691m | 3.9m/s | -49.2°C | 1.1% | 17.8hPa | 2.6V | 00:00:00 | 00:00:00 | 00:00:00 | |
| DL1XH1-15 | 2026-08-31 12:24:13 | 50.15730 | 8.65376 | 348° | 37km/h | 27666m | 5.3m/s | -49.3°C | 3.6% | 17.8hPa | 2.6V | 03:23:52 | 01:51:39 | 00:00:00 | |
| DM0DOS-11 | 2026-08-31 12:24:12 | 50.15746 | 8.65371 | 347° | 26km/h | 27676m | 5.2m/s | -49.3°C | 3.7% | 17.8hPa | 2.7V | 03:23:50 | 01:51:41 | 00:00:00 | |
| HSKMA3-T | 2026-08-31 12:24:10 | 50.15745 | 8.65371 | 348° | 26km/h | 27676m | 5.2m/s | -49.3°C | 0.7% | 17.8hPa | 2.7V | 03:24:10 | 01:51:41 | 00:00:00 | |
| BIOWL1-15 | 2026-08-31 12:24:09 | 50.15678 | 8.65370 | 9° | 27km/h | 27635m | 5.8m/s | -49.4°C | 0.6% | 17.9hPa | 2.6V | 03:24:10 | 01:51:33 | 00:00:00 | |
| AA1-15 | 2026-08-31 12:24:09 | 50.15730 | 8.65377 | 349° | 37km/h | 27666m | 5.3m/s | -49.3°C | 0.6% | 17.9hPa | 2.6V | 03:24:10 | 01:51:39 | 00:00:00 | |
| DL1XH-15 | 2026-08-31 12:24:08 | 50.15720 | 8.65379 | 355° | 38km/h | 27660m | 5.6m/s | -49.4°C | 3.6% | 17.9hPa | 2.6V | 03:23:53 | 01:51:38 | 00:00:00 | |
| DB0ND-19 | 2026-08-31 12:24:08 | 50.15720 | 8.65379 | 355° | 37km/h | 27661m | 5.6m/s | -49.4°C | 1.1% | 17.9hPa | 2.6V | 00:00:00 | 00:00:00 | 00:00:00 | |
| DL1NUX | 2026-08-31 12:24:06 | 50.15685 | 8.65372 | 12° | 31km/h | 27640m | 5.1m/s | -49.4°C | 3.6% | 17.9hPa | 2.6V | 03:23:57 | 01:51:34 | 00:00:00 | |
| DD1CC8 | 2026-08-31 12:24:05 | 50.15693 | 8.65375 | 12° | 33km/h | 27645m | 4.5m/s | -49.4°C | 1.0% | 17.9hPa | 2.6V | 00:00:00 | 00:00:00 | 00:00:00 | |
| HEMX73-6 | 2026-08-31 12:24:04 | 50.15693 | 8.65375 | 13° | 29km/h | 27645m | 4.5m/s | -49.4°C | 3.5% | 17.9hPa | 2.6V | 00:00:00 | 01:51:35 | 00:00:00 | |
| NBG1-10 | 2026-08-31 12:24:03 | 50.15685 | 8.65372 | 13° | 27km/h | 27641m | 5.0m/s | -49.4°C | 3.6% | 17.9hPa | 2.6V | 00:00:00 | 01:51:34 | 00:00:00 | |
| DJ2DS-15 | 2026-08-31 12:24:02 | 50.15671 | 8.65369 | 2° | 26km/h | 27630m | 5.4m/s | -49.4°C | 1.1% | 18.0hPa | 2.7V | 00:00:00 | 00:00:00 | 00:00:00 | |
| DL1XH-15 | 2026-08-31 12:24:01 | 50.15646 | 8.65369 | 8° | 26km/h | 27609m | 5.7m/s | -49.4°C | 3.7% | 18hPa | 2.7V | 03:24:03 | 01:51:28 | 00:00:00 | |
| DD8BA-10 | 2026-08-31 12:24:01 | 50.15671 | 8.65369 | 3° | 26km/h | 27630m | 5.3m/s | -49.4°C | 3.6% | 17.9hPa | 2.6V | 00:00:00 | 00:00:00 | 00:00:00 | |
| DL1XH1-15 | 2026-08-31 12:24:00 | 50.15652 | 8.65370 | 1° | 24km/h | 27615m | 4.9m/s | -49.4°C | 3.7% | 18hPa | 2.6V | 03:24:02 | 01:51:29 | 00:00:00 | |
| HSKMA3-T | 2026-08-31 12:24:00 | 50.15664 | 8.65369 | 357° | 24km/h | 27624m | 4.9m/s | -49.4°C | 0.7% | 18hPa | 2.7V | 03:24:10 | 01:51:31 | 00:00:00 | |
| DL1XH-west | 2026-08-31 12:24:00 | 50.15658 | 8.65370 | 357° | 24km/h | 27619m | 4.4m/s | -49.4°C | 0.7% | 18hPa | 2.6V | 03:24:10 | 01:51:30 | 00:00:00 | |
| AA1-15 | 2026-08-31 12:23:58 | 50.15652 | 8.65370 | 1° | 24km/h | 27615m | 4.9m/s | -49.4°C | 0.7% | 18hPa | 2.6V | 03:24:10 | 01:51:29 | 00:00:00 | |
| SP3BTT-10 | 2026-08-31 12:23:57 | 50.15646 | 8.65369 | 9° | 20km/h | 27610m | 5.7m/s | 0°C | 0% | 0hPa | 2.7V | 00:00:00 | 00:00:00 | 00:00:00 | |
| DL1NUX | 2026-08-31 12:23:56 | 50.15621 | 8.65362 | 356° | 24km/h | 27589m | 6.2m/s | -49.5°C | 3.6% | 18.1hPa | 2.7V | 03:24:07 | 01:51:24 | 00:00:00 | |
| HTAHTA | 2026-08-31 12:23:56 | 50.15633 | 8.65365 | 13° | 26km/h | 27599m | 4.6m/s | -49.4°C | -1.0% | 18.1hPa | 2.7V | 00:00:00 | 00:00:00 | 00:00:00 | |
| BIOWL1-15 | 2026-08-31 12:23:56 | 50.15640 | 8.65367 | 14° | 26km/h | 27604m | 5.4m/s | -49.4°C | 0.7% | 18hPa | 2.7V | 03:24:10 | 01:51:27 | 00:00:00 | |
| DL4BBY-15 | 2026-08-31 12:23:54 | 50.15627 | 8.65363 | 8° | 26km/h | 27594m | 4.6m/s | -48.8°C | 0% | 0hPa | 2.7V | 00:00:00 | 00:00:00 | 00:00:00 | |
| DL1XH1-15 | 2026-08-31 12:23:53 | 50.15587 | 8.65381 | 345° | 37km/h | 27560m | 5.6m/s | -49.6°C | 3.6% | 18.2hPa | 2.7V | 03:24:12 | 01:51:19 | 00:00:00 | |
| DL1XH-west | 2026-08-31 12:23:49 | 50.15578 | 8.65384 | 347° | 38km/h | 27555m | 4.8m/s | -49.7°C | 0.7% | 18.2hPa | 2.6V | 03:25:01 | 01:51:18 | 00:00:00 | |
| HSKMA3-T | 2026-08-31 12:23:49 | 50.15596 | 8.65377 | 340° | 33km/h | 27566m | 6.3m/s | -49.5°C | 0.6% | 18.2hPa | 2.7V | 03:25:01 | 01:51:20 | 00:00:00 | |
| DL1XH-15 | 2026-08-31 12:23:49 | 50.15578 | 8.65384 | 347° | 38km/h | 27555m | 4.8m/s | -49.7°C | 3.6% | 18.2hPa | 2.6V | 03:24:13 | 01:51:18 | 00:00:00 | |
| DL1NUX | 2026-08-31 12:23:48 | 50.15546 | 8.65399 | 337° | 26km/h | 27534m | 4.8m/s | -49.5°C | 3.7% | 18.2hPa | 2.7V | 03:24:17 | 01:51:14 | 00:00:00 | |
| AA1-15 | 2026-08-31 12:23:48 | 50.15569 | 8.65388 | 347° | 37km/h | 27551m | 4.6m/s | -49.7°C | 0.7% | 18.2hPa | 2.6V | 03:25:01 | 01:51:17 | 00:00:00 | |
| DF8AY | 2026-08-31 12:23:45 | 50.15530 | 8.65407 | 353° | 22km/h | 27518m | 5.8m/s | -49.5°C | 0.7% | 18.3hPa | 2.6V | 03:26:43 | 01:51:11 | 00:00:00 | |
| BIOWL1-15 | 2026-08-31 12:23:45 | 50.15561 | 8.65391 | 345° | 35km/h | 27545m | 6m/s | -49.7°C | 0.7% | 18.2hPa | 2.7V | 03:25:01 | 01:51:16 | 00:00:00 | |
| HSKMA3-T | 2026-08-31 12:23:39 | 50.15524 | 8.65407 | 357° | 24km/h | 27513m | 5.1m/s | -49.5°C | 0.7% | 18.3hPa | 2.7V | 03:25:01 | 01:51:10 | 00:00:00 | |
| DL1XH-15 | 2026-08-31 12:23:38 | 50.15511 | 8.65410 | 344° | 26km/h | 27503m | 4.9m/s | -49.6°C | 3.7% | 18.3hPa | 2.7V | 03:24:23 | 01:51:08 | 00:00:00 | |
| DL1XH-west | 2026-08-31 12:23:37 | 50.15511 | 8.65410 | 345° | 26km/h | 27503m | 4.9m/s | -49.6°C | 0.7% | 18.3hPa | 2.7V | 03:25:01 | 01:51:08 | 00:00:00 | |
| AA1-15 | 2026-08-31 12:23:36 | 50.15505 | 8.65414 | 334° | 27km/h | 27497m | 6.7m/s | -49.6°C | 0.8% | 18.3hPa | 2.6V | 03:25:01 | 01:51:07 | 00:00:00 | |
| DF8AY | 2026-08-31 12:23:35 | 50.15499 | 8.65420 | 323° | 29km/h | 27491m | 6.1m/s | -49.6°C | 0.7% | 18.3hPa | 2.6V | 03:26:43 | 01:51:06 | 00:00:00 | |
| BIOWL1-15 | 2026-08-31 12:23:34 | 50.15493 | 8.65427 | 318° | 29km/h | 27485m | 4.9m/s | -49.7°C | 0.7% | 18.4hPa | 2.6V | 03:25:01 | 01:51:05 | 00:00:00 | |
| DD1CC8 | 2026-08-31 12:23:34 | 50.15488 | 8.65434 | 318° | 27km/h | 27480m | 4.7m/s | -49.7°C | 1.1% | 18.4hPa | 2.6V | 00:00:00 | 00:00:00 | 00:00:00 | |
| DL1XH1-15 | 2026-08-31 12:23:33 | 50.15464 | 8.65454 | 334° | 18km/h | 27452m | 6.4m/s | -49.8°C | 3.6% | 18.4hPa | 2.6V | 03:24:32 | 01:50:59 | 00:00:00 | |
| GOEST3-10 | 2026-08-31 12:23:33 | 50.15488 | 8.65434 | 319° | 22km/h | 27481m | 4.7m/s | -49.7°C | 3.7% | 18.3hPa | 2.7V | 00:00:00 | 01:51:04 | 00:00:00 | |
| DM0DOS-11 | 2026-08-31 12:23:31 | 50.15473 | 8.65449 | 339° | 20km/h | 27463m | 5.2m/s | -49.9°C | 3.7% | 18.4hPa | 2.6V | 03:24:30 | 01:51:01 | 00:00:00 | |
| HSKMA3-T | 2026-08-31 12:23:29 | 50.15469 | 8.65452 | 341° | 18km/h | 27458m | 5.3m/s | -49.9°C | 0.7% | 18.4hPa | 2.6V | 03:25:01 | 01:51:00 | 00:00:00 | |
| DL1XH-15 | 2026-08-31 12:23:28 | 50.15460 | 8.65458 | 330° | 18km/h | 27446m | 5.9m/s | -49.8°C | 3.6% | 18.5hPa | 2.7V | 03:24:33 | 01:50:58 | 00:00:00 | |
| DL1XH-west | 2026-08-31 12:23:27 | 50.15460 | 8.65458 | 330° | 20km/h | 27446m | 5.9m/s | -49.8°C | 0.7% | 18.5hPa | 2.7V | 03:25:01 | 01:50:58 | 00:00:00 | |
| AA1-15 | 2026-08-31 12:23:26 | 50.15452 | 8.65465 | 334° | 18km/h | 27436m | 5.1m/s | -49.9°C | 0.7% | 18.5hPa | 2.7V | 03:25:01 | 01:50:56 | 00:00:00 | |
| BIOWL1-15 | 2026-08-31 12:23:25 | 50.15443 | 8.65470 | 343° | 18km/h | 27424m | 5.5m/s | -49.7°C | 0.7% | 18.5hPa | 2.6V | 03:25:01 | 01:50:54 | 00:00:00 | |
| DF8AY | 2026-08-31 12:23:24 | 50.15447 | 8.65468 | 340° | 18km/h | 27430m | 6.4m/s | -49.8°C | 0.7% | 18.5hPa | 2.6V | 03:26:43 | 01:50:55 | 00:00:00 | |
| DL4BBY-15 | 2026-08-31 12:23:24 | 50.15447 | 8.65468 | 340° | 13km/h | 27430m | 6.4m/s | -49.1°C | 0% | 0hPa | 2.7V | 00:00:00 | 00:00:00 | 00:00:00 | |
| GOEST3-10 | 2026-08-31 12:23:23 | 50.15443 | 8.65470 | 344° | 18km/h | 27424m | 5.5m/s | -49.7°C | 3.7% | 18.5hPa | 2.7V | 00:00:00 | 01:50:54 | 00:00:00 | |
| DM0DOS-11 | 2026-08-31 12:23:21 | 50.15432 | 8.65481 | 312° | 20km/h | 27408m | 6.8m/s | -49.8°C | 3.7% | 18.6hPa | 2.7V | 03:24:40 | 01:50:51 | 00:00:00 | |
| HSKMA3-T | 2026-08-31 12:23:18 | 50.15426 | 8.65495 | 296° | 22km/h | 27396m | 5.1m/s | -49.9°C | 0.8% | 18.6hPa | 2.6V | 03:25:01 | 01:50:49 | 00:00:00 | |
| DL1XH-15 | 2026-08-31 12:23:18 | 50.15423 | 8.65502 | 297° | 18km/h | 27391m | 5.2m/s | -49.9°C | 3.8% | 18.6hPa | 2.6V | 03:24:43 | 01:50:48 | 00:00:00 | |
| DF8AY | 2026-08-31 12:23:14 | 50.15417 | 8.65513 | 348° | 9km/h | 27374m | 4.9m/s | -49.7°C | 0.7% | 18.7hPa | 2.7V | 03:26:43 | 01:50:45 | 00:00:00 | |
| DL1XH1-15 | 2026-08-31 12:23:14 | 50.15399 | 8.65526 | 332° | 18km/h | 27341m | 5.9m/s | -49.6°C | 3.7% | 18.8hPa | 2.7V | 03:24:52 | 01:50:39 | 00:00:00 | |
| BIOWL1-15 | 2026-08-31 12:23:12 | 50.15406 | 8.65519 | 324° | 15km/h | 27352m | 5.4m/s | -49.6°C | 0.7% | 18.7hPa | 2.6V | 03:25:01 | 01:50:41 | 00:00:00 | |
| HSKMA3-T | 2026-08-31 12:23:08 | 50.15399 | 8.65526 | 332° | 18km/h | 27341m | 5.9m/s | -49.6°C | 0.7% | 18.8hPa | 2.7V | 03:25:01 | 01:50:39 | 00:00:00 | |
| DL1XH-west | 2026-08-31 12:23:06 | 50.15391 | 8.65531 | 340° | 16km/h | 27330m | 5.1m/s | -49.6°C | 0.7% | 18.8hPa | 2.6V | 03:25:01 | 01:50:37 | 00:00:00 | |
| DM0DOS-11 | 2026-08-31 12:23:05 | 50.15380 | 8.65551 | 302° | 4km/h | 27297m | 6.4m/s | -49.7°C | 3.7% | 18.9hPa | 2.7V | 03:25:00 | 01:50:31 | 00:00:00 | |
| AA1-15 | 2026-08-31 12:23:03 | 50.15382 | 8.65541 | 296° | 13km/h | 27313m | 6m/s | -49.6°C | 0.7% | 18.9hPa | 2.7V | 03:25:01 | 01:50:34 | 00:00:00 | |
| HEMX73-6 | 2026-08-31 12:23:03 | 50.15382 | 8.65541 | 297° | 9km/h | 27313m | 6.0m/s | -49.6°C | 3.7% | 18.8hPa | 2.6V | 00:00:00 | 01:50:34 | 00:00:00 | |
| DL1XH1-15 | 2026-08-31 12:23:02 | 50.15379 | 8.65551 | 23° | 5km/h | 27285m | 4.9m/s | -49.8°C | 3.7% | 18.9hPa | 2.6V | 03:25:02 | 01:50:29 | 00:00:00 | |
| SONCRA | 2026-08-31 12:23:02 | 50.15381 | 8.65549 | 282° | 7km/h | 27303m | 5.2m/s | -49.7°C | 1.0% | 18.9hPa | 2.6V | 00:00:00 | 00:00:00 | 00:00:00 | |
| EDDB2-11 | 2026-08-31 12:23:00 | 50.15380 | 8.65552 | 16° | 2km/h | 27291m | 5.7m/s | -49.7°C | 1.1% | 18.9hPa | 2.6V | 00:00:00 | 00:00:00 | 00:00:00 | |
| DL1XH-15 | 2026-08-31 12:22:58 | 50.15377 | 8.65551 | 5° | 7km/h | 27280m | 5m/s | -49.6°C | 3.7% | 19hPa | 2.6V | 03:25:03 | 01:50:28 | 00:00:00 | |
| HSKMA3-T | 2026-08-31 12:22:58 | 50.15379 | 8.65551 | 24° | 5km/h | 27285m | 4.9m/s | -49.8°C | 0.8% | 18.9hPa | 2.6V | 03:25:52 | 01:50:29 | 00:00:00 | |
| DL1XH-west | 2026-08-31 12:22:55 | 50.15373 | 8.65553 | 326° | 13km/h | 27268m | 5.7m/s | -49.6°C | 0.7% | 19hPa | 2.7V | 03:25:52 | 01:50:26 | 00:00:00 | |
| DM0DOS-11 | 2026-08-31 12:22:55 | 50.15354 | 8.65567 | 336° | 16km/h | 27241m | 4.8m/s | -49.7°C | 3.7% | 19.1hPa | 2.7V | 03:25:10 | 01:50:21 | 00:00:00 | |
| AA1-15 | 2026-08-31 12:22:52 | 50.15363 | 8.65562 | 337° | 18km/h | 27252m | 6.4m/s | -49.7°C | 0.7% | 19.1hPa | 2.7V | 03:25:52 | 01:50:23 | 00:00:00 | |
| BIOWL9-15 | 2026-08-31 12:22:51 | 50.15354 | 8.65567 | 336° | 15km/h | 27242m | 4.8m/s | -49.7°C | 1.1% | 19.1hPa | 2.6V | 00:00:00 | 00:00:00 | 00:00:00 | |
| DL1XH1-15 | 2026-08-31 12:22:50 | 50.15349 | 8.65574 | 301° | 11km/h | 27230m | 6.7m/s | -49.7°C | 3.7% | 19.1hPa | 2.6V | 03:25:12 | 01:50:19 | 00:00:00 | |
| BIOWL1-15 | 2026-08-31 12:22:50 | 50.15354 | 8.65567 | 337° | 16km/h | 27241m | 4.8m/s | -49.7°C | 0.7% | 19.1hPa | 2.7V | 03:25:52 | 01:50:21 | 00:00:00 | |
| HSKMA3-T | 2026-08-31 12:22:48 | 50.15349 | 8.65574 | 301° | 13km/h | 27230m | 6.7m/s | -49.7°C | 0.7% | 19.1hPa | 2.6V | 03:25:52 | 01:50:19 | 00:00:00 | |
| DF7PN | 2026-08-31 12:22:47 | 50.15348 | 8.65578 | 276° | 11km/h | 27224m | 6.3m/s | -49.7°C | 1.1% | 19.1hPa | 2.7V | 00:00:00 | 00:00:00 | 00:00:00 | |
| DL1XH-west | 2026-08-31 12:22:45 | 50.15349 | 8.65590 | 278° | 5km/h | 27208m | 6m/s | -49.7°C | 0.7% | 19.2hPa | 2.7V | 03:25:52 | 01:50:15 | 00:00:00 | |
| DM0DOS-11 | 2026-08-31 12:22:45 | 50.15342 | 8.65589 | 4° | 11km/h | 27185m | 6m/s | -49.9°C | 3.7% | 19.2hPa | 2.7V | 03:25:20 | 01:50:11 | 00:00:00 | |
| AA1-15 | 2026-08-31 12:22:42 | 50.15338 | 8.65590 | 343° | 13km/h | 27178m | 6.3m/s | -49.9°C | 0.8% | 19.2hPa | 2.7V | 03:25:52 | 01:50:10 | 00:00:00 | |
| BIOWL1-15 | 2026-08-31 12:22:41 | 50.15332 | 8.65596 | 324° | 18km/h | 27167m | 5.1m/s | -49.7°C | 0.7% | 19.3hPa | 2.6V | 03:25:52 | 01:50:08 | 00:00:00 | |
| DF8AY | 2026-08-31 12:22:40 | 50.15310 | 8.65642 | 101° | 2km/h | 27106m | 5.4m/s | -49.6°C | 0.7% | 19.5hPa | 2.7V | 03:26:43 | 01:49:57 | 00:00:00 | |
| GOEST3-10 | 2026-08-31 12:22:40 | 50.15341 | 8.65589 | 5° | 16km/h | 27185m | 6.0m/s | -49.8°C | 3.7% | 19.2hPa | 2.6V | 00:00:00 | 01:50:11 | 00:00:00 | |
| DL1XH-15 | 2026-08-31 12:22:39 | 50.15332 | 8.65596 | 324° | 18km/h | 27167m | 5.1m/s | -49.7°C | 3.7% | 19.3hPa | 2.6V | 03:25:23 | 01:50:08 | 00:00:00 | |
| HSKMA3-T | 2026-08-31 12:22:38 | 50.15335 | 8.65592 | 328° | 16km/h | 27173m | 5.4m/s | -49.8°C | 0.7% | 19.3hPa | 2.7V | 03:25:52 | 01:50:09 | 00:00:00 | |
| DL1XH-west | 2026-08-31 12:22:34 | 50.15309 | 8.65625 | 293° | 16km/h | 27135m | 6.4m/s | -49.7°C | 0.8% | 19.4hPa | 2.6V | 03:25:52 | 01:50:02 | 00:00:00 | |
| AA1-15 | 2026-08-31 12:22:30 | 50.15308 | 8.65631 | 275° | 15km/h | 27128m | 5.7m/s | -49.7°C | 0.7% | 19.4hPa | 2.6V | 03:25:52 | 01:50:01 | 00:00:00 | |
| BIOWL1-15 | 2026-08-31 12:22:30 | 50.15309 | 8.65640 | 246° | 9km/h | 27118m | 6.1m/s | -49.7°C | 0.7% | 19.4hPa | 2.7V | 03:25:52 | 01:49:59 | 00:00:00 | |
| DF8AY | 2026-08-31 12:22:29 | 50.15296 | 8.65694 | 242° | 15km/h | 27045m | 6.2m/s | -49.7°C | 0.8% | 19.6hPa | 2.7V | 03:26:43 | 01:49:46 | 00:00:00 | |
| DL1XH-15 | 2026-08-31 12:22:28 | 50.15310 | 8.65642 | 219° | 4km/h | 27112m | 6.3m/s | -49.6°C | 3.7% | 19.4hPa | 2.7V | 03:25:33 | 01:49:58 | 00:00:00 | |
| HSKMA3-T | 2026-08-31 12:22:27 | 50.15309 | 8.65642 | 219° | 4km/h | 27112m | 6.4m/s | -49.6°C | 0.7% | 19.4hPa | 2.7V | 03:25:52 | 01:49:58 | 00:00:00 | |
| SP3BTT-10 | 2026-08-31 12:22:27 | 50.15309 | 8.65642 | 220° | 11km/h | 27112m | 6.3m/s | 0°C | 0% | 0hPa | 2.6V | 00:00:00 | 00:00:00 | 00:00:00 | |
| DL1NUX | 2026-08-31 12:22:26 | 50.15308 | 8.65644 | 306° | 9km/h | 27090m | 6.4m/s | -49.8°C | 3.7% | 19.5hPa | 2.6V | 03:25:37 | 01:49:54 | 00:00:00 | |
| DL1XH-west | 2026-08-31 12:22:23 | 50.15308 | 8.65643 | 307° | 9km/h | 27091m | 6.4m/s | -49.8°C | 0.7% | 19.5hPa | 2.6V | 03:25:52 | 01:49:54 | 00:00:00 | |
| AA1-15 | 2026-08-31 12:22:20 | 50.15296 | 8.65676 | 293° | 18km/h | 27061m | 4.6m/s | -49.8°C | 0.7% | 19.6hPa | 2.6V | 03:25:52 | 01:49:49 | 00:00:00 | |
| GOEST3-10 | 2026-08-31 12:22:20 | 50.15301 | 8.65662 | 299° | 16km/h | 27072m | 6.1m/s | -49.6°C | 3.7% | 19.5hPa | 2.6V | 00:00:00 | 01:49:51 | 00:00:00 | |
| DL1XH-15 | 2026-08-31 12:22:19 | 50.15295 | 8.65683 | 279° | 16km/h | 27056m | 4.5m/s | -49.8°C | 3.8% | 19.6hPa | 2.6V | 03:25:43 | 01:49:48 | 00:00:00 | |
| BIOWL1-15 | 2026-08-31 12:22:18 | 50.15305 | 8.65698 | 127° | 11km/h | 27021m | 6m/s | -49.8°C | 0.7% | 19.8hPa | 2.6V | 03:25:52 | 01:49:42 | 00:00:00 | |
| HSKMA3-T | 2026-08-31 12:22:17 | 50.15295 | 8.65689 | 263° | 15km/h | 27051m | 6.3m/s | -49.7°C | 0.8% | 19.6hPa | 2.7V | 03:25:52 | 01:49:47 | 00:00:00 | |
| DF7PN | 2026-08-31 12:22:16 | 50.15296 | 8.65694 | 241° | 15km/h | 27045m | 6.2m/s | -49.7°C | 1.1% | 19.6hPa | 2.7V | 00:00:00 | 00:00:00 | 00:00:00 | |
| DC4HF-4 | 2026-08-31 12:22:15 | 50.15296 | 8.65694 | 241° | 15km/h | 27045m | 6.2m/s | -49.7°C | 1.1% | 19.6hPa | 2.7V | 00:00:00 | 00:00:00 | 00:00:00 | |
| DL3AQ-11 | 2026-08-31 12:22:14 | 50.15301 | 8.65700 | 191° | 9km/h | 27034m | 4.9m/s | -49.8°C | 1.1% | 19.7hPa | 2.7V | 00:00:00 | 00:00:00 | 00:00:00 | |
| DM0DOS-11 | 2026-08-31 12:22:13 | 50.15306 | 8.65695 | 107° | 9km/h | 27016m | 4.4m/s | -49.8°C | 3.7% | 19.7hPa | 2.7V | 03:25:50 | 01:49:41 | 00:00:00 | |
| DL1XH-west | 2026-08-31 12:22:13 | 50.15301 | 8.65700 | 192° | 11km/h | 27034m | 4.9m/s | -49.8°C | 0.8% | 19.7hPa | 2.6V | 03:25:52 | 01:49:44 | 00:00:00 | |
| DL1XH1-15 | 2026-08-31 12:22:10 | 50.15307 | 8.65691 | 256° | 2km/h | 27007m | 5.6m/s | -49.8°C | 3.7% | 19.8hPa | 2.7V | 03:25:52 | 01:49:39 | 00:00:00 | |
| AA1-15 | 2026-08-31 12:22:09 | 50.15307 | 8.65692 | 101° | 4km/h | 27012m | 4.2m/s | -49.8°C | 0.7% | 19.8hPa | 2.7V | 03:25:52 | 01:49:40 | 00:00:00 | |
| HSKMA3-T | 2026-08-31 12:22:07 | 50.15309 | 8.65707 | 257° | 22km/h | 26989m | 5.2m/s | -49.8°C | 0.7% | 19.8hPa | 2.6V | 03:26:43 | 01:49:36 | 00:00:00 | |
| BIOWL1-15 | 2026-08-31 12:22:06 | 50.15308 | 8.65699 | 259° | 18km/h | 26995m | 5.9m/s | -49.7°C | 0.7% | 19.8hPa | 2.6V | 03:26:43 | 01:49:37 | 00:00:00 | |
| DF8AY | 2026-08-31 12:22:05 | 50.15318 | 8.65741 | 186° | 11km/h | 26953m | 6.3m/s | -49.5°C | 0.8% | 19.9hPa | 2.7V | 03:26:43 | 01:49:29 | 00:00:00 | |
| DB0ND-19 | 2026-08-31 12:22:04 | 50.15312 | 8.65724 | 257° | 20km/h | 26979m | 5.2m/s | -49.7°C | 1.1% | 19.9hPa | 2.6V | 00:00:00 | 00:00:00 | 00:00:00 | |
| DK5PH-5 | 2026-08-31 12:22:03 | 50.15312 | 8.65724 | 258° | 15km/h | 26980m | 5.2m/s | -49.6°C | 3.7% | 19.8hPa | 2.6V | 00:00:00 | 01:49:34 | 00:00:00 | |
| DL1XH-west | 2026-08-31 12:22:03 | 50.15312 | 8.65724 | 258° | 22km/h | 26979m | 5.2m/s | -49.7°C | 0.7% | 19.9hPa | 2.7V | 03:26:43 | 01:49:34 | 00:00:00 | |
| DM0DOS-11 | 2026-08-31 12:22:02 | 50.15314 | 8.65739 | 227° | 7km/h | 26963m | 4.8m/s | -49.5°C | 3.7% | 19.9hPa | 2.6V | 03:26:00 | 01:49:31 | 00:00:00 | |
| DL9SK-14 | 2026-08-31 12:22:01 | 50.15315 | 8.65739 | 227° | 5km/h | 26964m | 4.8m/s | -49.5°C | 1.1% | 19.9hPa | 2.7V | 00:00:00 | 00:00:00 | 00:00:00 | |
| DL1XH1-15 | 2026-08-31 12:22:00 | 50.15318 | 8.65741 | 186° | 11km/h | 26953m | 6.3m/s | -49.5°C | 3.8% | 19.9hPa | 2.7V | 03:26:02 | 01:49:29 | 00:00:00 | |
| AA1-15 | 2026-08-31 12:21:59 | 50.15316 | 8.65741 | 196° | 7km/h | 26958m | 5.1m/s | -49.5°C | 0.7% | 19.9hPa | 2.7V | 03:26:43 | 01:49:30 | 00:00:00 | |
| BIOWL1-15 | 2026-08-31 12:21:56 | 50.15325 | 8.65743 | 188° | 15km/h | 26941m | 5m/s | -49.5°C | 0.7% | 20hPa | 2.6V | 03:26:43 | 01:49:27 | 00:00:00 | |
| DL1XH-west | 2026-08-31 12:21:52 | 50.15335 | 8.65747 | 240° | 5km/h | 26919m | 4.8m/s | -49.7°C | 0.7% | 20hPa | 2.6V | 03:26:43 | 01:49:23 | 00:00:00 | |
| DL1XH1-15 | 2026-08-31 12:21:49 | 50.15341 | 8.65764 | 229° | 18km/h | 26898m | 4.7m/s | -49.6°C | 3.6% | 20.1hPa | 2.6V | 03:26:12 | 01:49:19 | 00:00:00 | |
| AA1-15 | 2026-08-31 12:21:49 | 50.15341 | 8.65764 | 229° | 18km/h | 26898m | 4.7m/s | -49.6°C | 0.7% | 20.1hPa | 2.6V | 03:26:43 | 01:49:19 | 00:00:00 | |
| DF8AY | 2026-08-31 12:21:47 | 50.15344 | 8.65769 | 218° | 16km/h | 26893m | 4.5m/s | -49.7°C | 0.6% | 20.1hPa | 2.7V | 03:26:43 | 01:49:18 | 00:00:00 | |
| HSKMA3-T | 2026-08-31 12:21:46 | 50.15348 | 8.65772 | 200° | 15km/h | 26888m | 5.7m/s | -49.8°C | 0.7% | 20.2hPa | 2.7V | 03:26:43 | 01:49:17 | 00:00:00 | |
| BIOWL1-15 | 2026-08-31 12:21:46 | 50.15354 | 8.65771 | 147° | 15km/h | 26876m | 5.8m/s | -49.8°C | 0.7% | 20.2hPa | 2.6V | 03:26:43 | 01:49:15 | 00:00:00 | |
| DL3AQ-11 | 2026-08-31 12:21:45 | 50.15354 | 8.65771 | 147° | 15km/h | 26876m | 5.8m/s | -49.8°C | 1.1% | 20.2hPa | 2.6V | 00:00:00 | 00:00:00 | 00:00:00 | |
| GOEST3-10 | 2026-08-31 12:21:44 | 50.15354 | 8.65771 | 148° | 18km/h | 26876m | 5.8m/s | -49.7°C | 3.7% | 20.1hPa | 2.6V | 03:26:00 | 00:00:00 | 00:00:00 | |
| DL1XH1-15 | 2026-08-31 12:21:43 | 50.15379 | 8.65746 | 155° | 15km/h | 26843m | 5.8m/s | -50°C | 3.8% | 20.3hPa | 2.6V | 03:26:22 | 01:49:09 | 00:00:00 | |
| DM0DOS-11 | 2026-08-31 12:21:42 | 50.15370 | 8.65752 | 152° | 22km/h | 26853m | 5.1m/s | -49.9°C | 3.8% | 20.2hPa | 2.6V | 03:26:20 | 01:49:11 | 00:00:00 | |
| DL1XH-west | 2026-08-31 12:21:42 | 50.15361 | 8.65761 | 139° | 20km/h | 26865m | 6m/s | -50°C | 0.8% | 20.2hPa | 2.7V | 03:26:43 | 01:49:13 | 00:00:00 | |
| AA1-15 | 2026-08-31 12:21:39 | 50.15378 | 8.65746 | 156° | 15km/h | 26843m | 5.8m/s | -50°C | 0.8% | 20.3hPa | 2.6V | 03:26:43 | 01:49:09 | 00:00:00 | |
| DF8AY | 2026-08-31 12:21:36 | 50.15398 | 8.65744 | 156° | 11km/h | 26800m | 6.3m/s | -49.9°C | 0.7% | 20.4hPa | 2.7V | 03:26:43 | 01:49:01 | 00:00:00 | |
| HSKMA3-T | 2026-08-31 12:21:35 | 50.15385 | 8.65741 | 179° | 7km/h | 26826m | 4.6m/s | -49.9°C | 0.8% | 20.3hPa | 2.7V | 03:26:43 | 01:49:06 | 00:00:00 | |
| DL1NUX | 2026-08-31 12:21:34 | 50.15389 | 8.65743 | 201° | 11km/h | 26815m | 5.9m/s | -49.9°C | 3.7% | 20.4hPa | 2.6V | 03:26:27 | 01:49:04 | 00:00:00 | |
| BIOWL1-15 | 2026-08-31 12:21:34 | 50.15387 | 8.65742 | 195° | 7km/h | 26821m | 6.4m/s | -49.9°C | 0.7% | 20.4hPa | 2.6V | 03:26:43 | 01:49:05 | 00:00:00 | |
| DB0NH | 2026-08-31 12:21:33 | 50.15389 | 8.65743 | 202° | 11km/h | 26815m | 5.9m/s | -49.9°C | 3.7% | 20.3hPa | 2.6V | 00:00:00 | 01:49:04 | 00:00:00 | |
| DM0DOS-11 | 2026-08-31 12:21:32 | 50.15398 | 8.65744 | 155° | 11km/h | 26800m | 6.3m/s | -49.9°C | 3.7% | 20.4hPa | 2.7V | 03:26:30 | 01:49:01 | 00:00:00 | |
| DL1XH-west | 2026-08-31 12:21:32 | 50.15392 | 8.65744 | 194° | 13km/h | 26810m | 4.5m/s | -49.9°C | 0.7% | 20.4hPa | 2.6V | 03:26:43 | 01:49:03 | 00:00:00 | |
| DB0UT-7 | 2026-08-31 12:21:31 | 50.15395 | 8.65745 | 177° | 11km/h | 26805m | 4.4m/s | -49.8°C | 3.7% | 20.4hPa | 2.7V | 03:26:00 | 01:49:02 | 00:00:00 | |
| DL9SK-14 | 2026-08-31 12:21:30 | 50.15400 | 8.65741 | 136° | 13km/h | 26793m | 6.2m/s | -49.9°C | 1.1% | 20.4hPa | 2.7V | 00:00:00 | 00:00:00 | 00:00:00 | |
| GOEST3-10 | 2026-08-31 12:21:29 | 50.15400 | 8.65741 | 137° | 16km/h | 26794m | 6.1m/s | -49.8°C | 3.7% | 20.4hPa | 2.7V | 00:00:00 | 01:49:00 | 00:00:00 | |
| DL1NUX | 2026-08-31 12:21:28 | 50.15420 | 8.65717 | 142° | 15km/h | 26761m | 5.8m/s | -49.8°C | 3.9% | 20.5hPa | 2.7V | 03:26:37 | 01:48:54 | 00:00:00 | |
| AA1-15 | 2026-08-31 12:21:28 | 50.15403 | 8.65737 | 132° | 16km/h | 26788m | 5.1m/s | -49.9°C | 0.8% | 20.5hPa | 2.6V | 03:26:43 | 01:48:59 | 00:00:00 | |
| BIOWL1-15 | 2026-08-31 12:21:24 | 50.15417 | 8.65720 | 150° | 16km/h | 26766m | 4.8m/s | -49.9°C | 0.8% | 20.5hPa | 2.7V | 03:26:43 | 01:48:55 | 00:00:00 | |
| DF8AY | 2026-08-31 12:21:24 | 50.15423 | 8.65713 | 129° | 11km/h | 26755m | 6.1m/s | -49.7°C | 0.8% | 20.6hPa | 2.6V | 03:26:43 | 01:48:53 | 00:00:00 | |
| DL4BBY-15 | 2026-08-31 12:21:24 | 50.15417 | 8.65720 | 150° | 11km/h | 26767m | 4.8m/s | -49.2°C | 0% | 0hPa | 2.7V | 00:00:00 | 00:00:00 | 00:00:00 | |
| DL1XH1-15 | 2026-08-31 12:21:23 | 50.15427 | 8.65706 | 177° | 7km/h | 26732m | 6m/s | -49.7°C | 3.9% | 20.6hPa | 2.7V | 03:26:42 | 01:48:49 | 00:00:00 | |
| DL1XH-west | 2026-08-31 12:21:21 | 50.15424 | 8.65710 | 117° | 7km/h | 26749m | 5.2m/s | -49.7°C | 0.8% | 20.6hPa | 2.6V | 03:26:43 | 01:48:52 | 00:00:00 | |
| AA1-15 | 2026-08-31 12:21:18 | 50.15431 | 8.65705 | 156° | 11km/h | 26722m | 4.7m/s | -49.8°C | 0.8% | 20.7hPa | 2.6V | 03:27:34 | 01:48:47 | 00:00:00 | |
| BIOWL9-15 | 2026-08-31 12:21:18 | 50.15429 | 8.65706 | 171° | 9km/h | 26727m | 4.7m/s | -49.7°C | 1.1% | 20.6hPa | 2.6V | 00:00:00 | 00:00:00 | 00:00:00 | |
| DO1YAY-16 | 2026-08-31 12:21:17 | 50.15431 | 8.65705 | 155° | 11km/h | 26722m | 4.7m/s | -49.8°C | 1.1% | 20.7hPa | 2.6V | 00:00:00 | 00:00:00 | 00:00:00 | |
| DM0DOS-11 | 2026-08-31 12:21:15 | 50.15450 | 8.65678 | 154° | 9km/h | 26683m | 5.2m/s | -49.5°C | 3.7% | 20.8hPa | 2.6V | 03:26:51 | 01:48:40 | 00:00:00 | |
| HSKMA3-T | 2026-08-31 12:21:14 | 50.15436 | 8.65698 | 126° | 15km/h | 26710m | 6m/s | -49.7°C | 0.7% | 20.7hPa | 2.6V | 03:27:34 | 01:48:45 | 00:00:00 | |
| DL1NUX | 2026-08-31 12:21:14 | 50.15439 | 8.65693 | 124° | 16km/h | 26705m | 4.9m/s | -49.6°C | 3.6% | 20.7hPa | 2.7V | 03:26:47 | 01:48:44 | 00:00:00 | |
| BIOWL1-15 | 2026-08-31 12:21:13 | 50.15439 | 8.65693 | 125° | 16km/h | 26705m | 4.9m/s | -49.6°C | 0.6% | 20.7hPa | 2.7V | 03:27:34 | 01:48:44 | 00:00:00 | |
| DF8AY | 2026-08-31 12:21:12 | 50.15441 | 8.65688 | 131° | 18km/h | 26700m | 5.4m/s | -49.5°C | 0.7% | 20.7hPa | 2.7V | 03:28:25 | 01:48:43 | 00:00:00 | |
| DL1XH-west | 2026-08-31 12:21:11 | 50.15444 | 8.65683 | 141° | 16km/h | 26694m | 6.2m/s | -49.5°C | 0.7% | 20.8hPa | 2.7V | 03:27:34 | 01:48:42 | 00:00:00 | |
| DL1XH1-15 | 2026-08-31 12:21:10 | 50.15452 | 8.65676 | 136° | 5km/h | 26677m | 6.4m/s | -49.5°C | 3.7% | 20.8hPa | 2.6V | 03:26:52 | 01:48:39 | 00:00:00 | |
| DL1NUX | 2026-08-31 12:21:08 | 50.15450 | 8.65671 | 120° | 2km/h | 26648m | 5.5m/s | -49.2°C | 3.7% | 20.9hPa | 2.6V | 03:26:57 | 01:48:34 | 00:00:00 | |
| AA1-15 | 2026-08-31 12:21:06 | 50.15450 | 8.65673 | 28° | 4km/h | 26660m | 5.1m/s | -49.3°C | 0.8% | 20.9hPa | 2.7V | 03:27:34 | 01:48:36 | 00:00:00 | |
| DL3AQ-11 | 2026-08-31 12:21:05 | 50.15450 | 8.65672 | 31° | 2km/h | 26654m | 6.4m/s | -49.2°C | 1.1% | 20.9hPa | 2.7V | 00:00:00 | 00:00:00 | 00:00:00 | |
| DM0DOS-11 | 2026-08-31 12:21:04 | 50.15453 | 8.65657 | 102° | 16km/h | 26626m | 5.3m/s | -49.3°C | 3.7% | 21hPa | 2.7V | 03:27:01 | 01:48:30 | 00:00:00 | |
| HSKMA3-T | 2026-08-31 12:21:04 | 50.15450 | 8.65672 | 32° | 2km/h | 26654m | 6.4m/s | -49.2°C | 0.7% | 20.9hPa | 2.6V | 03:27:34 | 01:48:35 | 00:00:00 | |
| BIOWL1-15 | 2026-08-31 12:21:03 | 50.15450 | 8.65670 | 120° | 5km/h | 26643m | 4.7m/s | -49.2°C | 0.7% | 20.9hPa | 2.6V | 03:27:34 | 01:48:33 | 00:00:00 | |
| DL1XH-west | 2026-08-31 12:21:01 | 50.15451 | 8.65667 | 112° | 9km/h | 26638m | 5.7m/s | -49.2°C | 0.7% | 20.9hPa | 2.7V | 03:27:34 | 01:48:32 | 00:00:00 | |
| DB0UT-7 | 2026-08-31 12:21:01 | 50.15451 | 8.65667 | 112° | 11km/h | 26638m | 5.6m/s | -49.2°C | 3.7% | 20.9hPa | 2.6V | 00:00:00 | 00:00:00 | 00:00:00 | |
| DL1XH1-15 | 2026-08-31 12:20:59 | 50.15454 | 8.65650 | 107° | 18km/h | 26621m | 4.9m/s | -49.2°C | 3.7% | 21hPa | 2.6V | 03:27:02 | 01:48:29 | 00:00:00 | |
| DL1XH-15 | 2026-08-31 12:20:58 | 50.15456 | 8.65644 | 117° | 16km/h | 26615m | 5.7m/s | -49.2°C | 3.7% | 21hPa | 2.6V | 03:27:03 | 01:48:28 | 00:00:00 | |
| AA1-15 | 2026-08-31 12:20:54 | 50.15461 | 8.65633 | 122° | 5km/h | 26600m | 4.5m/s | -49°C | 0.7% | 21.1hPa | 2.7V | 03:27:34 | 01:48:25 | 00:00:00 | |
| DM0DOS-11 | 2026-08-31 12:20:54 | 50.15450 | 8.65629 | 357° | 13km/h | 26572m | 5.1m/s | -49.1°C | 3.7% | 21.1hPa | 2.7V | 03:27:11 | 01:48:20 | 00:00:00 | |
| BIOWL1-15 | 2026-08-31 12:20:52 | 50.15459 | 8.65631 | 18° | 9km/h | 26588m | 6.4m/s | -49°C | 0.7% | 21.1hPa | 2.6V | 03:27:34 | 01:48:23 | 00:00:00 | |
| DF8AY | 2026-08-31 12:20:51 | 50.15457 | 8.65630 | 11° | 13km/h | 26582m | 5.3m/s | -49°C | 0.6% | 21.1hPa | 2.6V | 03:28:25 | 01:48:22 | 00:00:00 | |
| DL1XH-west | 2026-08-31 12:20:50 | 50.15453 | 8.65629 | 4° | 15km/h | 26577m | 4.7m/s | -49°C | 0.7% | 21.1hPa | 2.6V | 03:27:34 | 01:48:21 | 00:00:00 | |
| DL8DAS-14 | 2026-08-31 12:20:50 | 50.15450 | 8.65629 | 357° | 11km/h | 26572m | 5.1m/s | -49.1°C | 1.1% | 21.1hPa | 2.7V | 00:00:00 | 00:00:00 | 00:00:00 | |
| DL1NUX | 2026-08-31 12:20:48 | 50.15447 | 8.65626 | 100° | 11km/h | 26538m | 6.2m/s | -49.1°C | 3.7% | 21.2hPa | 2.7V | 03:27:17 | 01:48:14 | 00:00:00 | |
| BIOWL9-15 | 2026-08-31 12:20:46 | 50.15445 | 8.65631 | 229° | 0km/h | 26556m | 5.1m/s | -49.0°C | 1.1% | 21.2hPa | 2.6V | 00:00:00 | 00:00:00 | 00:00:00 | |
| DO1YAY-16 | 2026-08-31 12:20:45 | 50.15446 | 8.65631 | 144° | 2km/h | 26551m | 5.4m/s | -49.0°C | 1.1% | 21.2hPa | 2.6V | 00:00:00 | 00:00:00 | 00:00:00 | |
| AA1-15 | 2026-08-31 12:20:44 | 50.15448 | 8.65612 | 97° | 9km/h | 26524m | 5.3m/s | -49°C | 0.7% | 21.3hPa | 2.6V | 03:27:34 | 01:48:11 | 00:00:00 | |
| HSKMA3-T | 2026-08-31 12:20:43 | 50.15447 | 8.65616 | 90° | 13km/h | 26528m | 4.2m/s | -49.2°C | 0.7% | 21.3hPa | 2.7V | 03:27:34 | 01:48:12 | 00:00:00 | |
| DM0DOS-11 | 2026-08-31 12:20:42 | 50.15448 | 8.65610 | 119° | 4km/h | 26518m | 6.2m/s | -49°C | 3.7% | 21.3hPa | 2.6V | 03:27:21 | 01:48:10 | 00:00:00 | |
| DL1XH1-15 | 2026-08-31 12:20:42 | 50.15448 | 8.65610 | 240° | 4km/h | 26512m | 5.7m/s | -49°C | 3.6% | 21.3hPa | 2.6V | 03:27:22 | 01:48:09 | 00:00:00 | |
| BIOWL1-15 | 2026-08-31 12:20:42 | 50.15440 | 8.65624 | 328° | 16km/h | 26483m | 5.1m/s | -48.8°C | 0.7% | 21.4hPa | 2.6V | 03:27:34 | 01:48:04 | 00:00:00 | |
| DF8AY | 2026-08-31 12:20:40 | 50.15448 | 8.65610 | 120° | 4km/h | 26518m | 6.2m/s | -49°C | 0.7% | 21.3hPa | 2.6V | 03:28:25 | 01:48:10 | 00:00:00 | |
| DL1XH-west | 2026-08-31 12:20:40 | 50.15448 | 8.65610 | 241° | 4km/h | 26512m | 5.7m/s | -49°C | 0.6% | 21.3hPa | 2.6V | 03:27:34 | 01:48:09 | 00:00:00 | |
| DJ8HS-15 | 2026-08-31 12:20:39 | 50.15448 | 8.65610 | 120° | 11km/h | 26518m | 6.2m/s | -48.9°C | 3.7% | 21.3hPa | 2.6V | 00:00:00 | 01:48:10 | 00:00:00 | |
| DL3AQ-11 | 2026-08-31 12:20:38 | 50.15449 | 8.65611 | 280° | 5km/h | 26507m | 5.3m/s | -49.0°C | 1.1% | 21.4hPa | 2.6V | 00:00:00 | 00:00:00 | 00:00:00 | |
| HEMX73-11 | 2026-08-31 12:20:37 | 50.15448 | 8.65611 | 281° | 7km/h | 26507m | 5.3m/s | -49.0°C | 1.1% | 21.4hPa | 2.6V | 03:27:00 | 00:00:00 | 00:00:00 | |
| DK5PH-5 | 2026-08-31 12:20:33 | 50.15440 | 8.65624 | 329° | 11km/h | 26483m | 5.1m/s | -48.8°C | 3.6% | 21.4hPa | 2.6V | 03:27:00 | 01:48:04 | 00:00:00 | |
| HSKMA3-T | 2026-08-31 12:20:33 | 50.15437 | 8.65627 | 324° | 16km/h | 26477m | 6.4m/s | -48.8°C | 0.6% | 21.4hPa | 2.6V | 03:27:34 | 01:48:03 | 00:00:00 | |
| DL1XH1-15 | 2026-08-31 12:20:32 | 50.15429 | 8.65635 | 29° | 5km/h | 26455m | 6.9m/s | -48.8°C | 3.7% | 21.5hPa | 2.6V | 03:27:32 | 01:47:59 | 00:00:00 | |
| DM0DOS-11 | 2026-08-31 12:20:32 | 50.15430 | 8.65636 | 341° | 5km/h | 26461m | 5.1m/s | -48.8°C | 3.6% | 21.5hPa | 2.7V | 03:27:31 | 01:48:00 | 00:00:00 | |
| AA1-15 | 2026-08-31 12:20:31 | 50.15434 | 8.65631 | 317° | 15km/h | 26471m | 6m/s | -48.8°C | 0.6% | 21.5hPa | 2.7V | 03:27:34 | 01:48:02 | 00:00:00 | |
| DF8AY | 2026-08-31 12:20:29 | 50.15430 | 8.65636 | 342° | 5km/h | 26461m | 5.1m/s | -48.8°C | 0.7% | 21.5hPa | 2.7V | 03:28:25 | 01:48:00 | 00:00:00 | |
| DL1XH-west | 2026-08-31 12:20:28 | 50.15428 | 8.65634 | 60° | 7km/h | 26448m | 5.8m/s | -48.7°C | 0.7% | 21.6hPa | 2.6V | 03:27:34 | 01:47:58 | 00:00:00 | |
| BIOWL1-15 | 2026-08-31 12:20:26 | 50.15427 | 8.65631 | 77° | 7km/h | 26443m | 4.4m/s | -48.7°C | 0.7% | 21.6hPa | 2.6V | 03:27:34 | 01:47:57 | 00:00:00 | |
| GOEST3-10 | 2026-08-31 12:20:26 | 50.15427 | 8.65631 | 78° | 7km/h | 26443m | 4.3m/s | -48.6°C | 3.7% | 21.5hPa | 2.6V | 00:00:00 | 01:47:57 | 00:00:00 | |
| DL3AQ-11 | 2026-08-31 12:20:25 | 50.15427 | 8.65628 | 207° | 2km/h | 26433m | 6.2m/s | -48.6°C | 1.0% | 21.6hPa | 2.7V | 00:00:00 | 00:00:00 | 00:00:00 | |
| DL4BBY-15 | 2026-08-31 12:20:24 | 50.15427 | 8.65628 | 208° | 11km/h | 26433m | 6.2m/s | -47.9°C | 0% | 0hPa | 2.7V | 00:00:00 | 00:00:00 | 00:00:00 | |
| CB1BUN | 2026-08-31 12:20:23 | 50.15427 | 8.65628 | 209° | 2km/h | 26434m | 6.2m/s | -48.6°C | 1.0% | 21.6hPa | 2.7V | 03:28:00 | 00:00:00 | 00:00:00 | |
| DM0DOS-11 | 2026-08-31 12:20:22 | 50.15425 | 8.65655 | 305° | 16km/h | 26406m | 5.3m/s | -48.7°C | 3.5% | 21.7hPa | 2.7V | 03:27:41 | 01:47:50 | 00:00:00 | |
| HSKMA3-T | 2026-08-31 12:20:22 | 50.15428 | 8.65634 | 266° | 15km/h | 26421m | 5.6m/s | -48.6°C | 0.6% | 21.6hPa | 2.6V | 03:28:25 | 01:47:53 | 00:00:00 | |
| AA1-15 | 2026-08-31 12:20:21 | 50.15428 | 8.65641 | 277° | 18km/h | 26416m | 4.8m/s | -48.7°C | 0.6% | 21.7hPa | 2.6V | 03:28:25 | 01:47:52 | 00:00:00 | |
| DF8AY | 2026-08-31 12:20:18 | 50.15422 | 8.65659 | 330° | 13km/h | 26400m | 5.9m/s | -48.7°C | 0.6% | 21.7hPa | 2.7V | 03:28:25 | 01:47:49 | 00:00:00 | |
| DL1XH-15 | 2026-08-31 12:20:18 | 50.15419 | 8.65660 | 1° | 11km/h | 26394m | 5.5m/s | -48.6°C | 3.5% | 21.7hPa | 2.7V | 03:27:43 | 01:47:48 | 00:00:00 | |
| DL1XH-west | 2026-08-31 12:20:17 | 50.15419 | 8.65660 | 1° | 11km/h | 26394m | 5.5m/s | -48.6°C | 0.6% | 21.8hPa | 2.7V | 03:28:25 | 01:47:48 | 00:00:00 | |
| BIOWL1-15 | 2026-08-31 12:20:15 | 50.15404 | 8.65684 | 334° | 9km/h | 26316m | 6.1m/s | -48.6°C | 0.6% | 22hPa | 2.6V | 03:28:25 | 01:47:34 | 00:00:00 | |
| DO1YAY-16 | 2026-08-31 12:20:15 | 50.15415 | 8.65655 | 81° | 4km/h | 26378m | 6.1m/s | -48.4°C | 1.0% | 21.8hPa | 2.6V | 00:00:00 | 00:00:00 | 00:00:00 | |
| DL1XH1-15 | 2026-08-31 12:20:13 | 50.15412 | 8.65667 | 310° | 13km/h | 26344m | 5.3m/s | -48.5°C | 3.6% | 21.9hPa | 2.6V | 03:27:52 | 01:47:39 | 00:00:00 | |
| DM0DOS-11 | 2026-08-31 12:20:12 | 50.15414 | 8.65663 | 306° | 13km/h | 26350m | 6.2m/s | -48.5°C | 3.5% | 21.9hPa | 2.6V | 03:27:51 | 01:47:40 | 00:00:00 | |
| HSKMA3-T | 2026-08-31 12:20:12 | 50.15415 | 8.65654 | 239° | 4km/h | 26367m | 5.2m/s | -48.4°C | 0.6% | 21.8hPa | 2.7V | 03:28:25 | 01:47:43 | 00:00:00 | |
| AA1-15 | 2026-08-31 12:20:10 | 50.15412 | 8.65667 | 311° | 13km/h | 26344m | 5.3m/s | -48.5°C | 0.6% | 21.9hPa | 2.6V | 03:28:25 | 01:47:39 | 00:00:00 | |
| DD8BA-10 | 2026-08-31 12:20:10 | 50.15415 | 8.65659 | 292° | 11km/h | 26356m | 6.0m/s | -48.4°C | 3.5% | 21.8hPa | 2.7V | 00:00:00 | 00:00:00 | 00:00:00 | |
| DL1XH-15 | 2026-08-31 12:20:08 | 50.15410 | 8.65671 | 307° | 13km/h | 26339m | 5.6m/s | -48.6°C | 3.6% | 21.9hPa | 2.7V | 03:27:53 | 01:47:38 | 00:00:00 | |
| DL1NUX | 2026-08-31 12:20:08 | 50.15404 | 8.65684 | 334° | 9km/h | 26316m | 6.1m/s | -48.6°C | 3.6% | 22hPa | 2.6V | 03:27:57 | 01:47:34 | 00:00:00 | |
| DL1XH-west | 2026-08-31 12:20:07 | 50.15408 | 8.65675 | 300° | 13km/h | 26333m | 6.6m/s | -48.6°C | 0.6% | 21.9hPa | 2.7V | 03:28:25 | 01:47:37 | 00:00:00 | |
| DF8AY | 2026-08-31 12:20:05 | 50.15407 | 8.65679 | 296° | 11km/h | 26327m | 5.6m/s | -48.6°C | 0.6% | 21.9hPa | 2.7V | 03:28:25 | 01:47:36 | 00:00:00 | |
| DM0DOS-11 | 2026-08-31 12:20:02 | 50.15393 | 8.65690 | 314° | 11km/h | 26293m | 6.8m/s | -48.6°C | 3.5% | 22.1hPa | 2.7V | 03:28:01 | 01:47:30 | 00:00:00 | |
| HSKMA3-T | 2026-08-31 12:20:01 | 50.15399 | 8.65686 | 349° | 11km/h | 26304m | 5m/s | -48.7°C | 0.6% | 22hPa | 2.7V | 03:28:25 | 01:47:32 | 00:00:00 | |
| AA1-15 | 2026-08-31 12:20:01 | 50.15394 | 8.65690 | 315° | 11km/h | 26293m | 6.8m/s | -48.6°C | 0.6% | 22.1hPa | 2.7V | 03:28:25 | 01:47:30 | 00:00:00 | |
| BIOWL1-15 | 2026-08-31 12:20:00 | 50.15392 | 8.65694 | 292° | 13km/h | 26287m | 6.3m/s | -48.6°C | 0.6% | 22.1hPa | 2.6V | 03:28:25 | 01:47:29 | 00:00:00 | |
| DB0ND-19 | 2026-08-31 12:20:00 | 50.15394 | 8.65690 | 314° | 9km/h | 26294m | 6.8m/s | -48.6°C | 1.0% | 22.1hPa | 2.6V | 00:00:00 | 00:00:00 | 00:00:00 | |
| DL1XH1-15 | 2026-08-31 12:19:59 | 50.15392 | 8.65694 | 292° | 13km/h | 26287m | 6.2m/s | -48.6°C | 3.5% | 22.1hPa | 2.6V | 03:28:02 | 01:47:29 | 00:00:00 | |
| DJ8HS-15 | 2026-08-31 12:19:59 | 50.15393 | 8.65690 | 315° | 9km/h | 26294m | 6.8m/s | -48.5°C | 3.5% | 22.0hPa | 2.7V | 00:00:00 | 01:47:30 | 00:00:00 | |
| DL1NUX | 2026-08-31 12:19:57 | 50.15388 | 8.65716 | 274° | 7km/h | 26259m | 5m/s | -48.6°C | 3.5% | 22.2hPa | 2.7V | 03:28:07 | 01:47:24 | 00:00:00 | |
| DL1XH-west | 2026-08-31 12:19:55 | 50.15389 | 8.65709 | 290° | 13km/h | 26269m | 6.2m/s | -48.6°C | 0.5% | 22.1hPa | 2.7V | 03:28:25 | 01:47:26 | 00:00:00 | |
| DL4BBY-15 | 2026-08-31 12:19:54 | 50.15388 | 8.65713 | 290° | 9km/h | 26264m | 4.9m/s | -47.9°C | 0% | 0hPa | 2.7V | 00:00:00 | 00:00:00 | 00:00:00 | |
| DL1XH1-15 | 2026-08-31 12:19:53 | 50.15394 | 8.65724 | 179° | 2km/h | 26230m | 6.6m/s | -48.6°C | 3.6% | 22.3hPa | 2.7V | 03:28:12 | 01:47:19 | 00:00:00 | |
| HSKMA3-T | 2026-08-31 12:19:50 | 50.15391 | 8.65723 | 203° | 9km/h | 26241m | 5.2m/s | -48.8°C | 0.7% | 22.2hPa | 2.6V | 03:28:25 | 01:47:21 | 00:00:00 | |
| DJ2DS-15 | 2026-08-31 12:19:49 | 50.15393 | 8.65724 | 196° | 5km/h | 26236m | 5.0m/s | -48.7°C | 1.1% | 22.3hPa | 2.7V | 00:00:00 | 00:00:00 | 00:00:00 | |
| DL1XH-15 | 2026-08-31 12:19:48 | 50.15394 | 8.65724 | 19° | 4km/h | 26223m | 6m/s | -48.6°C | 3.6% | 22.3hPa | 2.7V | 03:28:13 | 01:47:18 | 00:00:00 | |
| BIOWL1-15 | 2026-08-31 12:19:48 | 50.15394 | 8.65724 | 19° | 4km/h | 26223m | 6m/s | -48.6°C | 0.7% | 22.3hPa | 2.7V | 03:28:25 | 01:47:18 | 00:00:00 | |
| DL1XH-west | 2026-08-31 12:19:45 | 50.15391 | 8.65724 | 337° | 7km/h | 26214m | 4.5m/s | -48.7°C | 0.7% | 22.3hPa | 2.6V | 03:28:25 | 01:47:16 | 00:00:00 | |
| DF8AY | 2026-08-31 12:19:44 | 50.15388 | 8.65735 | 262° | 15km/h | 26196m | 5.4m/s | -48.9°C | 0.7% | 22.4hPa | 2.7V | 03:28:25 | 01:47:13 | 00:00:00 | |
| BIOWL9-15 | 2026-08-31 12:19:44 | 50.15389 | 8.65726 | 309° | 9km/h | 26209m | 6.1m/s | -48.8°C | 1.1% | 22.4hPa | 2.7V | 00:00:00 | 00:00:00 | 00:00:00 | |
| DO1YAY-16 | 2026-08-31 12:19:43 | 50.15388 | 8.65730 | 281° | 11km/h | 26202m | 6.4m/s | -48.8°C | 1.1% | 22.4hPa | 2.7V | 00:00:00 | 00:00:00 | 00:00:00 | |
| GOEST3-10 | 2026-08-31 12:19:41 | 50.15389 | 8.65740 | 254° | 9km/h | 26191m | 4.9m/s | -48.8°C | 3.7% | 22.4hPa | 2.7V | 03:28:00 | 00:00:00 | 00:00:00 | |
| DL1XH1-15 | 2026-08-31 12:19:40 | 50.15391 | 8.65753 | 260° | 7km/h | 26174m | 6m/s | -48.7°C | 3.6% | 22.5hPa | 2.6V | 03:28:22 | 01:47:09 | 00:00:00 | |
| HSKMA3-T | 2026-08-31 12:19:39 | 50.15391 | 8.65750 | 255° | 11km/h | 26180m | 6.4m/s | -48.7°C | 0.7% | 22.5hPa | 2.6V | 03:28:25 | 01:47:10 | 00:00:00 | |
| BIOWL1-15 | 2026-08-31 12:19:36 | 50.15403 | 8.65772 | 214° | 16km/h | 26135m | 5.1m/s | -48.3°C | 0.5% | 22.6hPa | 2.7V | 03:29:16 | 01:47:02 | 00:00:00 | |
| DL1XH-west | 2026-08-31 12:19:35 | 50.15394 | 8.65761 | 223° | 11km/h | 26152m | 6.3m/s | -48.4°C | 0.6% | 22.6hPa | 2.6V | 03:29:16 | 01:47:05 | 00:00:00 | |
| DF8AY | 2026-08-31 12:19:34 | 50.15406 | 8.65775 | 211° | 13km/h | 26129m | 6.2m/s | -48.3°C | 0.5% | 22.6hPa | 2.7V | 03:29:16 | 01:47:01 | 00:00:00 | |
| DM0DOS-11 | 2026-08-31 12:19:33 | 50.15409 | 8.65777 | 207° | 9km/h | 26123m | 6.2m/s | -48.2°C | 3.4% | 22.7hPa | 2.7V | 03:28:31 | 01:47:00 | 00:00:00 | |
| AA1-15 | 2026-08-31 12:19:29 | 50.15409 | 8.65778 | 208° | 9km/h | 26123m | 6.2m/s | -48.2°C | 0.6% | 22.7hPa | 2.7V | 03:29:16 | 01:47:00 | 00:00:00 | |
| DL1XH-15 | 2026-08-31 12:19:28 | 50.15411 | 8.65780 | 210° | 4km/h | 26112m | 5.1m/s | -48.2°C | 3.5% | 22.7hPa | 2.6V | 03:28:33 | 01:46:58 | 00:00:00 | |
| HSKMA3-T | 2026-08-31 12:19:28 | 50.15410 | 8.65779 | 206° | 5km/h | 26117m | 5.2m/s | -48.2°C | 0.6% | 22.7hPa | 2.6V | 03:29:16 | 01:46:59 | 00:00:00 | |
| BIOWL1-15 | 2026-08-31 12:19:26 | 50.15412 | 8.65781 | 217° | 5km/h | 26106m | 6.1m/s | -48.2°C | 0.6% | 22.7hPa | 2.6V | 03:29:16 | 01:46:57 | 00:00:00 | |
| DL1XH-west | 2026-08-31 12:19:24 | 50.15415 | 8.65785 | 223° | 9km/h | 26094m | 5.5m/s | -48.2°C | 0.6% | 22.8hPa | 2.7V | 03:29:16 | 01:46:55 | 00:00:00 | |
| DL1XH1-15 | 2026-08-31 12:19:23 | 50.15423 | 8.65797 | 219° | 11km/h | 26060m | 6.8m/s | -48.3°C | 3.5% | 22.9hPa | 2.7V | 03:28:42 | 01:46:49 | 00:00:00 | |
| DF8AY | 2026-08-31 12:19:23 | 50.15419 | 8.65790 | 226° | 7km/h | 26083m | 6.5m/s | -48.2°C | 0.6% | 22.8hPa | 2.6V | 03:29:16 | 01:46:53 | 00:00:00 | |
| DM0DOS-11 | 2026-08-31 12:19:22 | 50.15422 | 8.65794 | 221° | 7km/h | 26066m | 5.2m/s | -48.3°C | 3.5% | 22.9hPa | 2.7V | 03:28:41 | 01:46:50 | 00:00:00 | |
| HSKMA3-T | 2026-08-31 12:19:18 | 50.15423 | 8.65797 | 219° | 11km/h | 26060m | 6.8m/s | -48.3°C | 0.6% | 22.9hPa | 2.7V | 03:29:16 | 01:46:49 | 00:00:00 | |
| DL1NUX | 2026-08-31 12:19:18 | 50.15432 | 8.65808 | 346° | 2km/h | 26032m | 5.7m/s | -48.3°C | 3.4% | 23hPa | 2.7V | 03:28:47 | 01:46:44 | 00:00:00 | |
| BIOWL1-15 | 2026-08-31 12:19:16 | 50.15428 | 8.65803 | 218° | 13km/h | 26049m | 4.7m/s | -48.3°C | 0.5% | 22.9hPa | 2.6V | 03:29:16 | 01:46:47 | 00:00:00 | |
| DL1XH-west | 2026-08-31 12:19:14 | 50.15432 | 8.65808 | 347° | 2km/h | 26032m | 5.7m/s | -48.3°C | 0.5% | 23hPa | 2.7V | 03:29:16 | 01:46:44 | 00:00:00 | |
| BIOWL9-15 | 2026-08-31 12:19:13 | 50.15432 | 8.65808 | 346° | 2km/h | 26032m | 5.7m/s | -48.3°C | 1.0% | 23.0hPa | 2.6V | 00:00:00 | 00:00:00 | 00:00:00 | |
| DM0DOS-11 | 2026-08-31 12:19:12 | 50.15426 | 8.65812 | 305° | 9km/h | 26009m | 5.5m/s | -48.2°C | 3.5% | 23.1hPa | 2.6V | 03:28:51 | 01:46:40 | 00:00:00 | |
| AA1-15 | 2026-08-31 12:19:09 | 50.15425 | 8.65816 | 294° | 11km/h | 26004m | 4.7m/s | -48.2°C | 0.6% | 23.1hPa | 2.6V | 03:29:16 | 01:46:39 | 00:00:00 | |
| DL1NUX | 2026-08-31 12:19:08 | 50.15419 | 8.65823 | 38° | 4km/h | 25978m | 4.4m/s | -48.2°C | 3.5% | 23.1hPa | 2.6V | 03:28:57 | 01:46:34 | 00:00:00 | |
| BIOWL1-15 | 2026-08-31 12:19:07 | 50.15421 | 8.65824 | 336° | 5km/h | 25989m | 6.1m/s | -48.2°C | 0.6% | 23.1hPa | 2.7V | 03:29:16 | 01:46:36 | 00:00:00 | |
| HSKMA3-T | 2026-08-31 12:19:07 | 50.15424 | 8.65819 | 296° | 9km/h | 26000m | 4.5m/s | -48.2°C | 0.5% | 23.1hPa | 2.7V | 03:29:16 | 01:46:38 | 00:00:00 | |
| DF8AY | 2026-08-31 12:19:07 | 50.15420 | 8.65823 | 210° | 5km/h | 25968m | 6.4m/s | -48.3°C | 0.6% | 23.2hPa | 2.7V | 03:29:16 | 01:46:32 | 00:00:00 | |
| DL1XH-west | 2026-08-31 12:19:02 | 50.15419 | 8.65823 | 160° | 2km/h | 25974m | 4.8m/s | -48.3°C | 0.6% | 23.2hPa | 2.6V | 03:29:16 | 01:46:33 | 00:00:00 | |
| DM0DOS-11 | 2026-08-31 12:19:01 | 50.15423 | 8.65827 | 223° | 9km/h | 25956m | 4.7m/s | -48.4°C | 3.6% | 23.2hPa | 2.7V | 03:29:01 | 01:46:30 | 00:00:00 | |
| GOEST3-10 | 2026-08-31 12:19:01 | 50.15420 | 8.65823 | 210° | 5km/h | 25968m | 6.3m/s | -48.3°C | 3.6% | 23.1hPa | 2.7V | 03:28:00 | 00:00:00 | 00:00:00 | |
| DD8BA-10 | 2026-08-31 12:19:00 | 50.15421 | 8.65825 | 219° | 7km/h | 25962m | 5.8m/s | -48.3°C | 3.6% | 23.2hPa | 2.7V | 03:29:00 | 00:00:00 | 00:00:00 | |
| DJ8HS-15 | 2026-08-31 12:18:59 | 50.15423 | 8.65827 | 224° | 7km/h | 25957m | 4.7m/s | -48.3°C | 3.6% | 23.2hPa | 2.7V | 00:00:00 | 01:46:30 | 00:00:00 | |
| DL1NUX | 2026-08-31 12:18:58 | 50.15418 | 8.65831 | 355° | 11km/h | 25924m | 6m/s | -48.5°C | 3.5% | 23.4hPa | 2.7V | 03:29:07 | 01:46:24 | 00:00:00 | |
| HSKMA3-T | 2026-08-31 12:18:57 | 50.15425 | 8.65831 | 255° | 4km/h | 25946m | 6.2m/s | -48.5°C | 0.6% | 23.3hPa | 2.6V | 03:29:16 | 01:46:28 | 00:00:00 | |
| BIOWL1-15 | 2026-08-31 12:18:54 | 50.15418 | 8.65831 | 355° | 11km/h | 25924m | 6m/s | -48.5°C | 0.6% | 23.4hPa | 2.7V | 03:29:16 | 01:46:24 | 00:00:00 | |
| DL3AQ-11 | 2026-08-31 12:18:54 | 50.15418 | 8.65831 | 355° | 9km/h | 25924m | 6.0m/s | -48.5°C | 1.0% | 23.4hPa | 2.7V | 00:00:00 | 00:00:00 | 00:00:00 | |
| SONCRA | 2026-08-31 12:18:53 | 50.15418 | 8.65831 | 355° | 9km/h | 25924m | 6.0m/s | -48.5°C | 1.0% | 23.4hPa | 2.7V | 00:00:00 | 00:00:00 | 00:00:00 | |
| DL1XH1-15 | 2026-08-31 12:18:52 | 50.15408 | 8.65827 | 67° | 11km/h | 25897m | 5.7m/s | -48.3°C | 3.5% | 23.4hPa | 2.7V | 03:29:12 | 01:46:19 | 00:00:00 | |
| DL1XH-west | 2026-08-31 12:18:52 | 50.15415 | 8.65832 | 348° | 11km/h | 25919m | 5.2m/s | -48.5°C | 0.6% | 23.4hPa | 2.6V | 03:29:16 | 01:46:23 | 00:00:00 | |
| DM0DOS-11 | 2026-08-31 12:18:51 | 50.15409 | 8.65830 | 46° | 9km/h | 25903m | 6.3m/s | -48.4°C | 3.5% | 23.4hPa | 2.7V | 03:29:11 | 01:46:20 | 00:00:00 | |
| GOEST3-10 | 2026-08-31 12:18:51 | 50.15413 | 8.65832 | 357° | 9km/h | 25914m | 4.4m/s | -48.5°C | 3.4% | 23.3hPa | 2.7V | 00:00:00 | 00:00:00 | 00:00:00 | |
| DD8BA-10 | 2026-08-31 12:18:50 | 50.15411 | 8.65832 | 20° | 7km/h | 25910m | 4.8m/s | -48.5°C | 3.5% | 23.3hPa | 2.7V | 00:00:00 | 00:00:00 | 00:00:00 | |
| DL1XH-15 | 2026-08-31 12:18:48 | 50.15407 | 8.65823 | 86° | 9km/h | 25892m | 5m/s | -48.3°C | 3.5% | 23.4hPa | 2.7V | 03:29:13 | 01:46:18 | 00:00:00 | |
| NBG1-10 | 2026-08-31 12:18:48 | 50.15408 | 8.65827 | 68° | 9km/h | 25898m | 5.6m/s | -48.3°C | 3.5% | 23.4hPa | 2.7V | 03:29:00 | 01:46:19 | 00:00:00 | |
| DL1NUX | 2026-08-31 12:18:47 | 50.15411 | 8.65819 | 196° | 5km/h | 25870m | 4.8m/s | -48.3°C | 3.6% | 23.6hPa | 2.7V | 03:29:17 | 01:46:14 | 00:00:00 | |
| AA1-15 | 2026-08-31 12:18:46 | 50.15407 | 8.65820 | 112° | 7km/h | 25887m | 5.7m/s | -48.3°C | 0.6% | 23.5hPa | 2.6V | 03:29:16 | 01:46:17 | 00:00:00 | |
| DL8DAS-14 | 2026-08-31 12:18:46 | 50.15408 | 8.65818 | 153° | 5km/h | 25881m | 6.3m/s | -48.3°C | 1.1% | 23.5hPa | 2.7V | 00:00:00 | 00:00:00 | 00:00:00 | |
| BIOWL1-15 | 2026-08-31 12:18:45 | 50.15411 | 8.65819 | 197° | 5km/h | 25870m | 4.8m/s | -48.3°C | 0.6% | 23.6hPa | 2.7V | 03:30:07 | 01:46:14 | 00:00:00 | |
| DL1XH1-15 | 2026-08-31 12:18:43 | 50.15409 | 8.65814 | 17° | 9km/h | 25841m | 6.5m/s | -48.4°C | 3.4% | 23.6hPa | 2.6V | 03:29:22 | 01:46:09 | 00:00:00 | |
| DL1XH-15 | 2026-08-31 12:18:42 | 50.15407 | 8.65814 | 13° | 9km/h | 25835m | 5.2m/s | -48.4°C | 3.4% | 23.7hPa | 2.7V | 03:29:23 | 01:46:08 | 00:00:00 | |
| DL1XH-west | 2026-08-31 12:18:42 | 50.15412 | 8.65819 | 179° | 4km/h | 25865m | 6m/s | -48.3°C | 0.6% | 23.6hPa | 2.7V | 03:30:07 | 01:46:13 | 00:00:00 | |
| DF8AY | 2026-08-31 12:18:38 | 50.15407 | 8.65814 | 14° | 9km/h | 25836m | 5.2m/s | -48.4°C | 0.5% | 23.7hPa | 2.7V | 03:30:58 | 01:46:08 | 00:00:00 | |
| DL1NUX | 2026-08-31 12:18:38 | 50.15400 | 8.65801 | 81° | 15km/h | 25814m | 5.6m/s | -48.5°C | 3.5% | 23.8hPa | 2.6V | 03:29:27 | 01:46:04 | 00:00:00 | |
| HSKMA3-T | 2026-08-31 12:18:35 | 50.15403 | 8.65810 | 48° | 11km/h | 25826m | 5.3m/s | -48.5°C | 0.5% | 23.7hPa | 2.7V | 03:30:07 | 01:46:06 | 00:00:00 | |
| HEMX73-11 | 2026-08-31 12:18:35 | 50.15403 | 8.65810 | 49° | 11km/h | 25826m | 5.3m/s | -48.5°C | 1.0% | 23.7hPa | 2.6V | 03:30:00 | 00:00:00 | 00:00:00 | |
| CB1BUN | 2026-08-31 12:18:34 | 50.15403 | 8.65810 | 49° | 11km/h | 25826m | 5.3m/s | -48.5°C | 1.0% | 23.7hPa | 2.6V | 03:30:00 | 00:00:00 | 00:00:00 | |
| DL1XH1-15 | 2026-08-31 12:18:33 | 50.15403 | 8.65788 | 185° | 0km/h | 25786m | 4.5m/s | -48.4°C | 3.6% | 23.9hPa | 2.6V | 03:29:32 | 01:45:59 | 00:00:00 | |
| DL1XH-west | 2026-08-31 12:18:31 | 50.15401 | 8.65792 | 110° | 9km/h | 25803m | 6.3m/s | -48.4°C | 0.6% | 23.8hPa | 2.7V | 03:30:07 | 01:46:02 | 00:00:00 | |
| DL1XH-15 | 2026-08-31 12:18:30 | 50.15403 | 8.65788 | 32° | 4km/h | 25781m | 6.2m/s | -48.5°C | 3.5% | 23.9hPa | 2.6V | 03:29:33 | 01:45:58 | 00:00:00 | |
| DF8AY | 2026-08-31 12:18:27 | 50.15402 | 8.65787 | 28° | 9km/h | 25775m | 5.6m/s | -48.5°C | 0.6% | 23.9hPa | 2.6V | 03:30:58 | 01:45:57 | 00:00:00 | |
| HSKMA3-T | 2026-08-31 12:18:25 | 50.15399 | 8.65785 | 22° | 13km/h | 25770m | 4.7m/s | -48.6°C | 0.6% | 23.9hPa | 2.7V | 03:30:07 | 01:45:56 | 00:00:00 | |
| AA1-15 | 2026-08-31 12:18:25 | 50.15396 | 8.65783 | 14° | 15km/h | 25765m | 5.4m/s | -48.6°C | 0.6% | 23.9hPa | 2.7V | 03:30:07 | 01:45:55 | 00:00:00 | |
| DL4BBY-15 | 2026-08-31 12:18:24 | 50.15396 | 8.65783 | 15° | 9km/h | 25766m | 5.4m/s | -47.9°C | 0% | 0hPa | 2.7V | 00:00:00 | 00:00:00 | 00:00:00 | |
| DM0DOS-11 | 2026-08-31 12:18:23 | 50.15379 | 8.65773 | 47° | 16km/h | 25736m | 5.5m/s | -48.6°C | 3.5% | 24hPa | 2.7V | 03:29:41 | 01:45:50 | 00:00:00 | |
| DL1XH-west | 2026-08-31 12:18:20 | 50.15382 | 8.65777 | 33° | 16km/h | 25742m | 6.4m/s | -48.6°C | 0.5% | 24hPa | 2.6V | 03:30:07 | 01:45:51 | 00:00:00 | |
| DD8BA-10 | 2026-08-31 12:18:20 | 50.15382 | 8.65777 | 34° | 9km/h | 25743m | 6.4m/s | -48.6°C | 3.5% | 24.0hPa | 2.7V | 03:29:00 | 00:00:00 | 00:00:00 | |
| DJ8HS-15 | 2026-08-31 12:18:19 | 50.15379 | 8.65773 | 48° | 7km/h | 25737m | 5.4m/s | -48.6°C | 3.5% | 24.0hPa | 2.7V | 03:29:00 | 01:45:50 | 00:00:00 | |
| DL1NUX | 2026-08-31 12:18:18 | 50.15373 | 8.65760 | 298° | 4km/h | 25706m | 4.7m/s | -48.6°C | 3.6% | 24.1hPa | 2.7V | 03:29:47 | 01:45:44 | 00:00:00 | |
| DL1XH-15 | 2026-08-31 12:18:18 | 50.15375 | 8.65764 | 68° | 11km/h | 25728m | 4.4m/s | -48.6°C | 3.5% | 24.1hPa | 2.7V | 03:29:43 | 01:45:48 | 00:00:00 | |
| DF8AY | 2026-08-31 12:18:16 | 50.15374 | 8.65760 | 74° | 7km/h | 25722m | 6.2m/s | -48.7°C | 0.6% | 24.1hPa | 2.6V | 03:30:58 | 01:45:47 | 00:00:00 | |
| AA1-15 | 2026-08-31 12:18:14 | 50.15374 | 8.65759 | 270° | 2km/h | 25710m | 5.1m/s | -48.7°C | 0.7% | 24.1hPa | 2.6V | 03:30:07 | 01:45:45 | 00:00:00 | |
| CB1BUN | 2026-08-31 12:18:13 | 50.15373 | 8.65759 | 271° | 2km/h | 25711m | 5.1m/s | -48.7°C | 1.1% | 24.1hPa | 2.6V | 03:30:00 | 00:00:00 | 00:00:00 | |
| DM0DOS-11 | 2026-08-31 12:18:12 | 50.15364 | 8.65761 | 15° | 15km/h | 25685m | 4.2m/s | -48.7°C | 3.6% | 24.2hPa | 2.6V | 03:29:51 | 01:45:40 | 00:00:00 | |
| BIOWL1-15 | 2026-08-31 12:18:11 | 50.15364 | 8.65761 | 15° | 15km/h | 25685m | 4.2m/s | -48.7°C | 0.7% | 24.2hPa | 2.6V | 03:30:07 | 01:45:40 | 00:00:00 | |
| DL1XH-west | 2026-08-31 12:18:10 | 50.15361 | 8.65759 | 19° | 13km/h | 25680m | 4.8m/s | -48.6°C | 0.6% | 24.2hPa | 2.6V | 03:30:07 | 01:45:39 | 00:00:00 | |
| DF8AY | 2026-08-31 12:18:05 | 50.15353 | 8.65751 | 45° | 9km/h | 25642m | 4.4m/s | -48.6°C | 0.6% | 24.4hPa | 2.7V | 03:30:58 | 01:45:32 | 00:00:00 | |
| AA1-15 | 2026-08-31 12:18:03 | 50.15355 | 8.65756 | 56° | 5km/h | 25652m | 6.2m/s | -48.7°C | 0.7% | 24.3hPa | 2.6V | 03:30:07 | 01:45:34 | 00:00:00 | |
| DL1XH1-15 | 2026-08-31 12:18:03 | 50.15348 | 8.65748 | 341° | 7km/h | 25625m | 5.4m/s | -48.6°C | 3.6% | 24.4hPa | 2.6V | 03:30:02 | 01:45:29 | 00:00:00 | |
| BIOWL1-15 | 2026-08-31 12:18:01 | 50.15344 | 8.65751 | 345° | 9km/h | 25615m | 5.1m/s | -48.6°C | 0.7% | 24.5hPa | 2.6V | 03:30:07 | 01:45:27 | 00:00:00 | |
| DM0DOS-11 | 2026-08-31 12:18:01 | 50.15350 | 8.65748 | 13° | 5km/h | 25631m | 6.4m/s | -48.6°C | 3.6% | 24.4hPa | 2.7V | 03:30:01 | 01:45:30 | 00:00:00 | |
| DL1XH-west | 2026-08-31 12:17:58 | 50.15346 | 8.65749 | 336° | 7km/h | 25620m | 4.7m/s | -48.6°C | 0.7% | 24.5hPa | 2.6V | 03:30:07 | 01:45:28 | 00:00:00 | |
| SO1NDE-10 | 2026-08-31 12:17:57 | 50.15346 | 8.65749 | 336° | 11km/h | 25620m | 4.7m/s | -48.5°C | 3.6% | 24.4hPa | 2.7V | 00:00:00 | 01:45:28 | 00:00:00 | |
| GOEST3-10 | 2026-08-31 12:17:55 | 50.15342 | 8.65751 | 357° | 9km/h | 25610m | 6.1m/s | -48.6°C | 3.6% | 24.5hPa | 2.7V | 00:00:00 | 01:45:26 | 00:00:00 | |
| DL4BBY-15 | 2026-08-31 12:17:54 | 50.15338 | 8.65751 | 7° | 11km/h | 25604m | 4.8m/s | -47.9°C | 0% | 0hPa | 2.7V | 00:00:00 | 00:00:00 | 00:00:00 | |
| DL1XH1-15 | 2026-08-31 12:17:53 | 50.15329 | 8.65754 | 331° | 2km/h | 25574m | 4.6m/s | -48.7°C | 3.6% | 24.6hPa | 2.7V | 03:30:12 | 01:45:19 | 00:00:00 | |
| HSKMA3-T | 2026-08-31 12:17:53 | 50.15336 | 8.65751 | 8° | 11km/h | 25599m | 4.1m/s | -48.6°C | 0.7% | 24.5hPa | 2.7V | 03:30:07 | 01:45:24 | 00:00:00 | |
| AA1-15 | 2026-08-31 12:17:52 | 50.15333 | 8.65750 | 1° | 9km/h | 25595m | 5.3m/s | -48.6°C | 0.7% | 24.6hPa | 2.6V | 03:30:58 | 01:45:23 | 00:00:00 | |
| DD1CC8 | 2026-08-31 12:17:52 | 50.15333 | 8.65750 | 1° | 7km/h | 25595m | 5.3m/s | -48.6°C | 1.1% | 24.6hPa | 2.7V | 00:00:00 | 00:00:00 | 00:00:00 | |
| DM0DOS-11 | 2026-08-31 12:17:51 | 50.15330 | 8.65753 | 285° | 4km/h | 25578m | 4.3m/s | -48.7°C | 3.6% | 24.6hPa | 2.7V | 03:30:11 | 01:45:20 | 00:00:00 | |
| BIOWL1-15 | 2026-08-31 12:17:50 | 50.15329 | 8.65754 | 331° | 2km/h | 25574m | 4.6m/s | -48.7°C | 0.6% | 24.6hPa | 2.7V | 03:30:58 | 01:45:19 | 00:00:00 | |
| DF8AY | 2026-08-31 12:17:49 | 50.15330 | 8.65753 | 286° | 4km/h | 25578m | 4.3m/s | -48.7°C | 0.7% | 24.6hPa | 2.7V | 03:30:58 | 01:45:20 | 00:00:00 | |
| DL1XH-west | 2026-08-31 12:17:48 | 50.15328 | 8.65754 | 32° | 5km/h | 25568m | 5.7m/s | -48.7°C | 0.6% | 24.6hPa | 2.7V | 03:30:58 | 01:45:18 | 00:00:00 | |
| DL3AQ-11 | 2026-08-31 12:17:45 | 50.15320 | 8.65744 | 35° | 18km/h | 25552m | 4.4m/s | -48.5°C | 1.1% | 24.7hPa | 2.6V | 00:00:00 | 00:00:00 | 00:00:00 | |
| DL8DAS-14 | 2026-08-31 12:17:44 | 50.15316 | 8.65740 | 29° | 16km/h | 25548m | 5.2m/s | -48.5°C | 1.0% | 24.7hPa | 2.6V | 00:00:00 | 00:00:00 | 00:00:00 | |
| DL1XH1-15 | 2026-08-31 12:17:43 | 50.15303 | 8.65734 | 23° | 7km/h | 25520m | 6.1m/s | -48.5°C | 3.6% | 24.9hPa | 2.6V | 03:30:22 | 01:45:09 | 00:00:00 | |
| HSKMA3-T | 2026-08-31 12:17:42 | 50.15313 | 8.65738 | 22° | 15km/h | 25542m | 5.8m/s | -48.5°C | 0.5% | 24.8hPa | 2.7V | 03:30:58 | 01:45:13 | 00:00:00 | |
| AA1-15 | 2026-08-31 12:17:41 | 50.15310 | 8.65736 | 13° | 11km/h | 25536m | 5.3m/s | -48.4°C | 0.6% | 24.8hPa | 2.7V | 03:30:58 | 01:45:12 | 00:00:00 | |
| DM0DOS-11 | 2026-08-31 12:17:41 | 50.15305 | 8.65735 | 8° | 7km/h | 25526m | 5.5m/s | -48.5°C | 3.5% | 24.8hPa | 2.6V | 03:30:21 | 01:45:10 | 00:00:00 | |
| DF8AY | 2026-08-31 12:17:39 | 50.15303 | 8.65734 | 24° | 7km/h | 25520m | 6.1m/s | -48.5°C | 0.6% | 24.9hPa | 2.6V | 03:30:58 | 01:45:09 | 00:00:00 | |
| DL1NUX | 2026-08-31 12:17:38 | 50.15297 | 8.65730 | 344° | 5km/h | 25493m | 5.1m/s | -48.5°C | 3.5% | 24.9hPa | 2.6V | 03:30:27 | 01:45:04 | 00:00:00 | |
| BIOWL1-15 | 2026-08-31 12:17:37 | 50.15302 | 8.65733 | 37° | 7km/h | 25514m | 5.2m/s | -48.4°C | 0.6% | 24.9hPa | 2.7V | 03:30:58 | 01:45:08 | 00:00:00 | |
| HSKMA3-T | 2026-08-31 12:17:32 | 50.15295 | 8.65730 | 360° | 9km/h | 25488m | 4.6m/s | -48.5°C | 0.6% | 25hPa | 2.6V | 03:30:58 | 01:45:03 | 00:00:00 | |
| DM0DOS-11 | 2026-08-31 12:17:31 | 50.15284 | 8.65724 | 27° | 24km/h | 25472m | 4.8m/s | -48.5°C | 3.5% | 25hPa | 2.7V | 03:30:31 | 01:45:00 | 00:00:00 | |
| AA1-15 | 2026-08-31 12:17:31 | 50.15279 | 8.65720 | 28° | 24km/h | 25467m | 4.5m/s | -48.4°C | 0.5% | 25hPa | 2.6V | 03:30:58 | 01:44:59 | 00:00:00 | |
| DL1XH-15 | 2026-08-31 12:17:30 | 50.15274 | 8.65716 | 26° | 22km/h | 25462m | 5.4m/s | -48.4°C | 3.4% | 25.1hPa | 2.6V | 03:30:33 | 01:44:58 | 00:00:00 | |
| DL1NUX | 2026-08-31 12:17:29 | 50.15259 | 8.65710 | 5° | 11km/h | 25441m | 5m/s | -48.6°C | 3.4% | 25.2hPa | 2.7V | 03:30:37 | 01:44:54 | 00:00:00 | |
| DL1XH-west | 2026-08-31 12:17:27 | 50.15269 | 8.65713 | 21° | 18km/h | 25456m | 5.6m/s | -48.5°C | 0.6% | 25.1hPa | 2.6V | 03:30:58 | 01:44:57 | 00:00:00 | |
| BIOWL1-15 | 2026-08-31 12:17:27 | 50.15238 | 8.65706 | 350° | 15km/h | 25409m | 5.5m/s | -48.7°C | 0.6% | 25.3hPa | 2.7V | 03:30:58 | 01:44:48 | 00:00:00 | |
| DF8AY | 2026-08-31 12:17:25 | 50.15245 | 8.65706 | 5° | 15km/h | 25421m | 4.6m/s | -48.7°C | 0.6% | 25.2hPa | 2.7V | 03:30:58 | 01:44:50 | 00:00:00 | |
| DJ2DS-15 | 2026-08-31 12:17:25 | 50.15262 | 8.65710 | 4° | 11km/h | 25446m | 4.6m/s | -48.5°C | 1.0% | 25.1hPa | 2.7V | 00:00:00 | 00:00:00 | 00:00:00 | |
| DL4BBY-15 | 2026-08-31 12:17:24 | 50.15262 | 8.65710 | 5° | 15km/h | 25447m | 4.5m/s | -47.8°C | 0% | 0hPa | 2.7V | 00:00:00 | 00:00:00 | 00:00:00 | |
| DL1XH1-15 | 2026-08-31 12:17:23 | 50.15242 | 8.65706 | 356° | 15km/h | 25415m | 6.2m/s | -48.7°C | 3.5% | 25.3hPa | 2.7V | 03:30:42 | 01:44:49 | 00:00:00 | |
| HSKMA3-T | 2026-08-31 12:17:22 | 50.15256 | 8.65709 | 11° | 13km/h | 25436m | 5.9m/s | -48.7°C | 0.6% | 25.2hPa | 2.6V | 03:30:58 | 01:44:53 | 00:00:00 | |
| DM0DOS-11 | 2026-08-31 12:17:21 | 50.15245 | 8.65706 | 5° | 15km/h | 25421m | 4.6m/s | -48.7°C | 3.5% | 25.2hPa | 2.7V | 03:30:41 | 01:44:50 | 00:00:00 | |
| AA1-15 | 2026-08-31 12:17:20 | 50.15249 | 8.65707 | 12° | 15km/h | 25425m | 4.7m/s | -48.7°C | 0.6% | 25.2hPa | 2.6V | 03:30:58 | 01:44:51 | 00:00:00 | |
| DL1XH-west | 2026-08-31 12:17:16 | 50.15234 | 8.65707 | 355° | 15km/h | 25404m | 4.6m/s | -48.8°C | 0.6% | 25.3hPa | 2.6V | 03:30:58 | 01:44:47 | 00:00:00 | |
| DL1NUX | 2026-08-31 12:17:14 | 50.15221 | 8.65702 | 30° | 24km/h | 25388m | 5.2m/s | -48.9°C | 3.5% | 25.4hPa | 2.7V | 03:30:47 | 01:44:44 | 00:00:00 | |
| DF8AY | 2026-08-31 12:17:13 | 50.15221 | 8.65702 | 31° | 24km/h | 25388m | 5.2m/s | -48.9°C | 0.6% | 25.4hPa | 2.7V | 03:30:58 | 01:44:44 | 00:00:00 | |
| DL1XH1-15 | 2026-08-31 12:17:13 | 50.15203 | 8.65680 | 40° | 9km/h | 25363m | 4.9m/s | -49°C | 3.6% | 25.4hPa | 2.6V | 03:30:52 | 01:44:39 | 00:00:00 | |
| HSKMA3-T | 2026-08-31 12:17:11 | 50.15212 | 8.65691 | 41° | 22km/h | 25379m | 4.9m/s | -49.1°C | 0.7% | 25.4hPa | 2.7V | 03:30:58 | 01:44:42 | 00:00:00 | |
| AA1-15 | 2026-08-31 12:17:09 | 50.15205 | 8.65682 | 44° | 11km/h | 25368m | 5.3m/s | -49°C | 0.7% | 25.4hPa | 2.6V | 03:30:58 | 01:44:40 | 00:00:00 | |
| DL1XH-west | 2026-08-31 12:17:06 | 50.15198 | 8.65672 | 45° | 13km/h | 25347m | 5.5m/s | -49.2°C | 0.6% | 25.5hPa | 2.7V | 03:30:58 | 01:44:36 | 00:00:00 | |
| DL3AQ-11 | 2026-08-31 12:17:05 | 50.15195 | 8.65668 | 49° | 15km/h | 25342m | 5.1m/s | -49.3°C | 1.1% | 25.6hPa | 2.6V | 00:00:00 | 00:00:00 | 00:00:00 | |
| DL1XH1-15 | 2026-08-31 12:17:03 | 50.15182 | 8.65639 | 37° | 16km/h | 25305m | 6.2m/s | -49.3°C | 3.7% | 25.7hPa | 2.6V | 03:31:03 | 01:44:28 | 00:00:00 | |
| DF8AY | 2026-08-31 12:17:03 | 50.15191 | 8.65658 | 58° | 15km/h | 25331m | 5.9m/s | -49.2°C | 0.7% | 25.6hPa | 2.6V | 03:30:58 | 01:44:33 | 00:00:00 | |
| HSKMA3-T | 2026-08-31 12:17:00 | 50.15188 | 8.65649 | 64° | 9km/h | 25320m | 4.8m/s | -49.1°C | 0.7% | 25.6hPa | 2.7V | 03:31:49 | 01:44:31 | 00:00:00 | |
| DL1XH-15 | 2026-08-31 12:17:00 | 50.15182 | 8.65639 | 37° | 16km/h | 25305m | 6.2m/s | -49.3°C | 3.7% | 25.7hPa | 2.6V | 03:31:03 | 01:44:28 | 00:00:00 | |
| AA1-15 | 2026-08-31 12:16:59 | 50.15182 | 8.65639 | 38° | 16km/h | 25305m | 6.2m/s | -49.3°C | 0.7% | 25.7hPa | 2.6V | 03:31:49 | 01:44:28 | 00:00:00 | |
| DL1NUX | 2026-08-31 12:16:58 | 50.15169 | 8.65628 | 18° | 11km/h | 25283m | 5.5m/s | -49.3°C | 3.6% | 25.8hPa | 2.7V | 03:31:07 | 01:44:24 | 00:00:00 | |
| DL1XH-west | 2026-08-31 12:16:55 | 50.15175 | 8.65632 | 26° | 16km/h | 25295m | 4.6m/s | -49.2°C | 0.6% | 25.7hPa | 2.7V | 03:31:49 | 01:44:26 | 00:00:00 | |
| BIOWL1-15 | 2026-08-31 12:16:54 | 50.15172 | 8.65630 | 22° | 15km/h | 25289m | 6.3m/s | -49.3°C | 0.7% | 25.7hPa | 2.7V | 03:31:49 | 01:44:25 | 00:00:00 | |
| DF8AY | 2026-08-31 12:16:52 | 50.15166 | 8.65627 | 17° | 11km/h | 25278m | 4.4m/s | -49.3°C | 0.7% | 25.8hPa | 2.6V | 03:31:49 | 01:44:23 | 00:00:00 | |
| HSKMA3-T | 2026-08-31 12:16:49 | 50.15156 | 8.65621 | 22° | 16km/h | 25262m | 4.8m/s | -49.2°C | 0.6% | 25.9hPa | 2.7V | 03:31:49 | 01:44:20 | 00:00:00 | |
| AA1-15 | 2026-08-31 12:16:49 | 50.15152 | 8.65619 | 22° | 15km/h | 25258m | 4.4m/s | -49.3°C | 0.6% | 25.9hPa | 2.7V | 03:31:49 | 01:44:19 | 00:00:00 | |
| DL1XH1-15 | 2026-08-31 12:16:48 | 50.15149 | 8.65617 | 21° | 13km/h | 25252m | 6.2m/s | -49.4°C | 3.6% | 25.9hPa | 2.7V | 03:31:13 | 01:44:18 | 00:00:00 | |
| DL1XH-west | 2026-08-31 12:16:45 | 50.15141 | 8.65615 | 358° | 11km/h | 25236m | 4.9m/s | -49.2°C | 0.7% | 26hPa | 2.6V | 03:31:49 | 01:44:15 | 00:00:00 | |
| HSKMA3-T | 2026-08-31 12:16:39 | 50.15119 | 8.65618 | 347° | 18km/h | 25210m | 5.8m/s | -49.5°C | 0.7% | 26.1hPa | 2.6V | 03:31:49 | 01:44:10 | 00:00:00 | |
| AA1-15 | 2026-08-31 12:16:37 | 50.15112 | 8.65622 | 342° | 15km/h | 25199m | 4.6m/s | -49.5°C | 0.7% | 26.1hPa | 2.7V | 03:31:49 | 01:44:08 | 00:00:00 | |
| BIOWL1-15 | 2026-08-31 12:16:36 | 50.15099 | 8.65624 | 2° | 20km/h | 25184m | 5.7m/s | -49.4°C | 0.7% | 26.1hPa | 2.6V | 03:31:49 | 01:44:05 | 00:00:00 | |
| DL1NUX | 2026-08-31 12:16:34 | 50.15094 | 8.65624 | 4° | 22km/h | 25178m | 4.8m/s | -49.4°C | 3.6% | 26.2hPa | 2.6V | 03:31:27 | 01:44:04 | 00:00:00 | |
| DL1XH-west | 2026-08-31 12:16:33 | 50.15094 | 8.65624 | 4° | 22km/h | 25178m | 4.8m/s | -49.4°C | 0.7% | 26.2hPa | 2.6V | 03:31:49 | 01:44:04 | 00:00:00 | |
| GOEST3-10 | 2026-08-31 12:16:32 | 50.15089 | 8.65623 | 3° | 18km/h | 25174m | 5.0m/s | -49.5°C | 3.6% | 26.2hPa | 2.6V | 03:31:00 | 00:00:00 | 00:00:00 | |
| HEMX73-11 | 2026-08-31 12:16:31 | 50.15088 | 8.65623 | 3° | 20km/h | 25174m | 5.0m/s | -49.5°C | 1.1% | 26.2hPa | 2.7V | 03:31:00 | 00:00:00 | 00:00:00 | |
| DM0DOS-11 | 2026-08-31 12:16:30 | 50.15076 | 8.65627 | 334° | 18km/h | 25158m | 4.2m/s | -49.6°C | 3.6% | 26.2hPa | 2.7V | 03:31:31 | 01:44:00 | 00:00:00 | |
| HSKMA3-T | 2026-08-31 12:16:29 | 50.15072 | 8.65631 | 334° | 20km/h | 25153m | 5.6m/s | -49.7°C | 0.7% | 26.3hPa | 2.6V | 03:31:49 | 01:43:59 | 00:00:00 | |
| DL1NUX | 2026-08-31 12:16:28 | 50.15046 | 8.65653 | 319° | 22km/h | 25126m | 6m/s | -49.5°C | 3.7% | 26.4hPa | 2.7V | 03:31:37 | 01:43:54 | 00:00:00 | |
| AA1-15 | 2026-08-31 12:16:27 | 50.15067 | 8.65634 | 335° | 24km/h | 25148m | 5.8m/s | -49.6°C | 0.7% | 26.3hPa | 2.6V | 03:31:49 | 01:43:58 | 00:00:00 | |
| DF8AY | 2026-08-31 12:16:27 | 50.15061 | 8.65638 | 335° | 26km/h | 25142m | 5m/s | -49.5°C | 0.7% | 26.3hPa | 2.6V | 03:31:49 | 01:43:57 | 00:00:00 | |
| BIOWL1-15 | 2026-08-31 12:16:24 | 50.15050 | 8.65648 | 326° | 24km/h | 25132m | 5.4m/s | -49.5°C | 0.6% | 26.4hPa | 2.7V | 03:31:49 | 01:43:55 | 00:00:00 | |
| DL1XH-west | 2026-08-31 12:16:22 | 50.15042 | 8.65658 | 313° | 18km/h | 25121m | 4.8m/s | -49.5°C | 0.7% | 26.4hPa | 2.6V | 03:31:49 | 01:43:53 | 00:00:00 | |
| DB0UT-7 | 2026-08-31 12:16:21 | 50.15039 | 8.65663 | 317° | 22km/h | 25117m | 4.0m/s | -49.5°C | 3.6% | 26.4hPa | 2.6V | 00:00:00 | 01:43:52 | 00:00:00 | |
| DD8BA-10 | 2026-08-31 12:16:20 | 50.15036 | 8.65667 | 330° | 22km/h | 25112m | 5.6m/s | -49.5°C | 3.6% | 26.4hPa | 2.7V | 03:31:00 | 00:00:00 | 00:00:00 | |
| DL1XH1-15 | 2026-08-31 12:16:18 | 50.15024 | 8.65671 | 350° | 18km/h | 25096m | 4.2m/s | -49.7°C | 3.6% | 26.5hPa | 2.7V | 03:31:43 | 01:43:48 | 00:00:00 | |
| HSKMA3-T | 2026-08-31 12:16:17 | 50.15024 | 8.65671 | 351° | 20km/h | 25097m | 4.2m/s | -49.7°C | 0.6% | 26.5hPa | 2.7V | 03:31:49 | 01:43:48 | 00:00:00 | |
| DF8AY | 2026-08-31 12:16:15 | 50.15005 | 8.65689 | 313° | 27km/h | 25076m | 4.4m/s | -49.7°C | 0.6% | 26.6hPa | 2.7V | 03:31:49 | 01:43:44 | 00:00:00 | |
| BIOWL1-15 | 2026-08-31 12:16:14 | 50.14996 | 8.65704 | 320° | 27km/h | 25066m | 5.8m/s | -49.9°C | 0.6% | 26.6hPa | 2.7V | 03:31:49 | 01:43:42 | 00:00:00 | |
| DL3AQ-11 | 2026-08-31 12:16:14 | 50.15005 | 8.65689 | 312° | 26km/h | 25076m | 4.4m/s | -49.7°C | 1.1% | 26.6hPa | 2.6V | 00:00:00 | 00:00:00 | 00:00:00 | |
| DJ2DS-15 | 2026-08-31 12:16:13 | 50.15001 | 8.65697 | 314° | 26km/h | 25072m | 4.9m/s | -49.8°C | 1.0% | 26.6hPa | 2.6V | 00:00:00 | 00:00:00 | 00:00:00 | |
| DM0DOS-11 | 2026-08-31 12:16:12 | 50.14985 | 8.65716 | 328° | 26km/h | 25056m | 4.3m/s | -50.1°C | 3.6% | 26.7hPa | 2.6V | 03:31:51 | 01:43:40 | 00:00:00 | |
| DL1XH-west | 2026-08-31 12:16:12 | 50.15001 | 8.65697 | 315° | 27km/h | 25072m | 4.9m/s | -49.8°C | 0.6% | 26.6hPa | 2.7V | 03:31:49 | 01:43:43 | 00:00:00 | |
| HSKMA3-T | 2026-08-31 12:16:06 | 50.14971 | 8.65733 | 313° | 20km/h | 25040m | 5.4m/s | -50.1°C | 0.7% | 26.8hPa | 2.7V | 03:32:40 | 01:43:37 | 00:00:00 | |
| DF8AY | 2026-08-31 12:16:04 | 50.14964 | 8.65743 | 320° | 18km/h | 25030m | 5.1m/s | -50.2°C | 0.8% | 26.8hPa | 2.6V | 03:32:40 | 01:43:35 | 00:00:00 | |
| BIOWL1-15 | 2026-08-31 12:16:03 | 50.14961 | 8.65748 | 327° | 20km/h | 25024m | 6.1m/s | -50.2°C | 0.8% | 26.8hPa | 2.6V | 03:32:40 | 01:43:34 | 00:00:00 | |
| DL1XH-west | 2026-08-31 12:16:02 | 50.14952 | 8.65756 | 324° | 22km/h | 25014m | 4.2m/s | -50.4°C | 0.8% | 26.9hPa | 2.7V | 03:32:40 | 01:43:32 | 00:00:00 | |
| DF3TZ-5 | 2026-08-31 12:16:01 | 50.14948 | 8.65762 | 313° | 20km/h | 25009m | 5.5m/s | -50.5°C | 1.2% | 26.9hPa | 2.7V | 00:00:00 | 00:00:00 | 00:00:00 | |
| DM0DOS-11 | 2026-08-31 12:16:00 | 50.14944 | 8.65769 | 300° | 22km/h | 25003m | 6m/s | -50.6°C | 3.8% | 26.9hPa | 2.7V | 03:32:01 | 01:43:30 | 00:00:00 | |
| HSKMA3-T | 2026-08-31 12:15:56 | 50.14937 | 8.65796 | 292° | 26km/h | 24988m | 5.1m/s | -50.7°C | 0.8% | 27hPa | 2.6V | 03:32:40 | 01:43:27 | 00:00:00 | |
| DK5PH-5 | 2026-08-31 12:15:56 | 50.14937 | 8.65796 | 292° | 18km/h | 24988m | 5.1m/s | -50.7°C | 3.8% | 26.9hPa | 2.7V | 03:32:00 | 01:43:27 | 00:00:00 | |
| DM0DOS-11 | 2026-08-31 12:15:55 | 50.14915 | 8.65849 | 295° | 16km/h | 24952m | 4.3m/s | -50.9°C | 3.9% | 27.1hPa | 2.7V | 03:32:11 | 01:43:20 | 00:00:00 | |
| BIOWL1-15 | 2026-08-31 12:15:55 | 50.14914 | 8.65854 | 302° | 13km/h | 24947m | 5.8m/s | -50.9°C | 0.8% | 27.1hPa | 2.7V | 03:32:40 | 01:43:19 | 00:00:00 | |
| DF8AY | 2026-08-31 12:15:53 | 50.14927 | 8.65821 | 311° | 26km/h | 24972m | 4.7m/s | -50.9°C | 0.9% | 27hPa | 2.7V | 03:32:40 | 01:43:24 | 00:00:00 | |
| AA1-15 | 2026-08-31 12:15:53 | 50.14923 | 8.65829 | 308° | 24km/h | 24967m | 5.4m/s | -50.9°C | 0.8% | 27.1hPa | 2.6V | 03:32:40 | 01:43:23 | 00:00:00 | |
| DL1XH-west | 2026-08-31 12:15:50 | 50.14917 | 8.65843 | 296° | 18km/h | 24956m | 4.8m/s | -50.9°C | 0.8% | 27.1hPa | 2.6V | 03:32:40 | 01:43:21 | 00:00:00 | |
| DD8BA-10 | 2026-08-31 12:15:50 | 50.14917 | 8.65843 | 297° | 13km/h | 24956m | 4.8m/s | -50.8°C | 3.9% | 27.0hPa | 2.7V | 00:00:00 | 00:00:00 | 00:00:00 | |
| DL1XH-15 | 2026-08-31 12:15:49 | 50.14912 | 8.65858 | 311° | 9km/h | 24941m | 6.2m/s | -50.9°C | 3.9% | 27.2hPa | 2.7V | 03:32:13 | 01:43:18 | 00:00:00 | |
| HSKMA3-T | 2026-08-31 12:15:46 | 50.14911 | 8.65860 | 315° | 7km/h | 24935m | 4.9m/s | -51°C | 0.8% | 27.2hPa | 2.6V | 03:32:40 | 01:43:17 | 00:00:00 | |
| DL3AQ-11 | 2026-08-31 12:15:45 | 50.14909 | 8.65865 | 281° | 9km/h | 24925m | 6.1m/s | -51.1°C | 1.2% | 27.2hPa | 2.6V | 00:00:00 | 00:00:00 | 00:00:00 | |
| DM0DOS-11 | 2026-08-31 12:15:44 | 50.14901 | 8.65898 | 308° | 22km/h | 24898m | 5.1m/s | -51°C | 3.9% | 27.3hPa | 2.6V | 03:32:21 | 01:43:10 | 00:00:00 | |
| AA1-15 | 2026-08-31 12:15:43 | 50.14908 | 8.65877 | 282° | 18km/h | 24914m | 4.5m/s | -51.1°C | 0.9% | 27.3hPa | 2.7V | 03:32:40 | 01:43:13 | 00:00:00 | |
| DL1XH-west | 2026-08-31 12:15:41 | 50.14904 | 8.65891 | 301° | 22km/h | 24904m | 6m/s | -51°C | 0.9% | 27.3hPa | 2.6V | 03:32:40 | 01:43:11 | 00:00:00 | |
| DF8AY | 2026-08-31 12:15:40 | 50.14888 | 8.65957 | 279° | 13km/h | 24858m | 5.4m/s | -50.8°C | 0.8% | 27.6hPa | 2.7V | 03:32:40 | 01:43:02 | 00:00:00 | |
| DD8BA-10 | 2026-08-31 12:15:40 | 50.14904 | 8.65891 | 302° | 18km/h | 24904m | 5.9m/s | -51.0°C | 4.0% | 27.3hPa | 2.7V | 03:32:00 | 00:00:00 | 00:00:00 | |
| DL1XH-15 | 2026-08-31 12:15:39 | 50.14894 | 8.65913 | 304° | 24km/h | 24889m | 4.7m/s | -51°C | 3.9% | 27.4hPa | 2.7V | 03:32:23 | 01:43:08 | 00:00:00 | |
| BIOWL1-15 | 2026-08-31 12:15:37 | 50.14894 | 8.65913 | 304° | 24km/h | 24889m | 4.7m/s | -51°C | 0.8% | 27.4hPa | 2.7V | 03:32:40 | 01:43:08 | 00:00:00 | |
| HSKMA3-T | 2026-08-31 12:15:35 | 50.14889 | 8.65929 | 283° | 22km/h | 24878m | 5.1m/s | -50.9°C | 0.8% | 27.4hPa | 2.7V | 03:32:40 | 01:43:06 | 00:00:00 | |
| AA1-15 | 2026-08-31 12:15:32 | 50.14887 | 8.65962 | 281° | 11km/h | 24853m | 4.7m/s | -50.9°C | 0.7% | 27.6hPa | 2.7V | 03:32:40 | 01:43:01 | 00:00:00 | |
| DL1XH-west | 2026-08-31 12:15:30 | 50.14887 | 8.65966 | 277° | 13km/h | 24848m | 5.3m/s | -50.9°C | 0.8% | 27.5hPa | 2.7V | 03:32:40 | 01:43:00 | 00:00:00 | |
| DF8AY | 2026-08-31 12:15:30 | 50.14876 | 8.66007 | 276° | 11km/h | 24799m | 5m/s | -50.9°C | 0.8% | 27.8hPa | 2.6V | 03:32:40 | 01:42:51 | 00:00:00 | |
| BIOWL1-15 | 2026-08-31 12:15:29 | 50.14875 | 8.66018 | 319° | 4km/h | 24773m | 5.1m/s | -51°C | 0.8% | 27.9hPa | 2.6V | 03:33:31 | 01:42:46 | 00:00:00 | |
| DL1XH-15 | 2026-08-31 12:15:28 | 50.14886 | 8.65978 | 275° | 15km/h | 24836m | 4.9m/s | -50.8°C | 3.9% | 27.6hPa | 2.6V | 03:32:33 | 01:42:58 | 00:00:00 | |
| DK7TD | 2026-08-31 12:15:28 | 50.14886 | 8.65972 | 274° | 15km/h | 24842m | 6.2m/s | -50.9°C | 0.8% | 27.6hPa | 2.6V | 03:37:46 | 01:42:59 | 00:00:00 | |
| HSKMA3-T | 2026-08-31 12:15:25 | 50.14884 | 8.65989 | 296° | 13km/h | 24826m | 6.3m/s | -50.9°C | 0.9% | 27.7hPa | 2.7V | 03:32:40 | 01:42:56 | 00:00:00 | |
| DL1XH-west | 2026-08-31 12:15:20 | 50.14876 | 8.66016 | 291° | 4km/h | 24784m | 5.9m/s | -50.9°C | 0.8% | 27.8hPa | 2.7V | 03:33:31 | 01:42:48 | 00:00:00 | |
| DF8AY | 2026-08-31 12:15:19 | 50.14876 | 8.66017 | 325° | 2km/h | 24778m | 5.3m/s | -51°C | 0.8% | 27.8hPa | 2.6V | 03:34:22 | 01:42:47 | 00:00:00 | |
| HSKMA3-T | 2026-08-31 12:15:17 | 50.14875 | 8.66019 | 288° | 5km/h | 24767m | 6m/s | -51.1°C | 0.8% | 27.9hPa | 2.6V | 03:33:31 | 01:42:45 | 00:00:00 | |
| DM0DOS-11 | 2026-08-31 12:15:16 | 50.14871 | 8.66043 | 299° | 15km/h | 24741m | 6.1m/s | -51.1°C | 4% | 28hPa | 2.6V | 03:32:51 | 01:42:40 | 00:00:00 | |
| BIOWL1-15 | 2026-08-31 12:15:11 | 50.14853 | 8.66084 | 325° | 11km/h | 24704m | 6.2m/s | -51°C | 0.8% | 28.2hPa | 2.6V | 03:33:31 | 01:42:33 | 00:00:00 | |
| DL1XH-west | 2026-08-31 12:15:09 | 50.14871 | 8.66043 | 299° | 15km/h | 24741m | 6.1m/s | -51.1°C | 0.9% | 28hPa | 2.6V | 03:33:31 | 01:42:40 | 00:00:00 | |
| DF8AY | 2026-08-31 12:15:06 | 50.14861 | 8.66068 | 299° | 22km/h | 24719m | 5.1m/s | -51.1°C | 0.9% | 28.1hPa | 2.7V | 03:34:22 | 01:42:36 | 00:00:00 | |
| DL3AQ-11 | 2026-08-31 12:15:05 | 50.14858 | 8.66075 | 302° | 18km/h | 24714m | 4.4m/s | -51.1°C | 1.2% | 28.2hPa | 2.7V | 00:00:00 | 00:00:00 | 00:00:00 | |
| DM0DOS-11 | 2026-08-31 12:15:04 | 50.14847 | 8.66089 | 321° | 9km/h | 24688m | 5.2m/s | -51.2°C | 3.9% | 28.2hPa | 2.7V | 03:33:01 | 01:42:30 | 00:00:00 | |
| AA1-15 | 2026-08-31 12:15:04 | 50.14858 | 8.66075 | 303° | 18km/h | 24714m | 4.4m/s | -51.1°C | 0.9% | 28.2hPa | 2.6V | 03:33:31 | 01:42:35 | 00:00:00 | |
| HSKMA3-T | 2026-08-31 12:15:03 | 50.14856 | 8.66081 | 310° | 15km/h | 24710m | 5.5m/s | -51.1°C | 0.9% | 28.2hPa | 2.6V | 03:33:31 | 01:42:34 | 00:00:00 | |
| BIOWL1-15 | 2026-08-31 12:15:02 | 50.14849 | 8.66087 | 342° | 9km/h | 24693m | 4.5m/s | -51.1°C | 0.9% | 28.2hPa | 2.7V | 03:33:31 | 01:42:31 | 00:00:00 | |
| DL1XH-west | 2026-08-31 12:14:59 | 50.14847 | 8.66089 | 321° | 9km/h | 24688m | 5.2m/s | -51.2°C | 0.9% | 28.2hPa | 2.7V | 03:33:31 | 01:42:30 | 00:00:00 | |
| DJ8HS-15 | 2026-08-31 12:14:59 | 50.14847 | 8.66089 | 322° | 9km/h | 24688m | 5.1m/s | -51.2°C | 3.9% | 28.2hPa | 2.6V | 00:00:00 | 01:42:30 | 00:00:00 | |
| DL1XH-15 | 2026-08-31 12:14:58 | 50.14842 | 8.66103 | 290° | 18km/h | 24672m | 4.1m/s | -51.1°C | 3.9% | 28.3hPa | 2.6V | 03:33:04 | 01:42:27 | 00:00:00 | |
| DF8AY | 2026-08-31 12:14:55 | 50.14830 | 8.66127 | 293° | 9km/h | 24626m | 4.7m/s | -51°C | 0.9% | 28.5hPa | 2.7V | 03:34:22 | 01:42:18 | 00:00:00 | |
| DM0DOS-11 | 2026-08-31 12:14:54 | 50.14831 | 8.66122 | 302° | 4km/h | 24636m | 5.5m/s | -51°C | 4% | 28.5hPa | 2.7V | 03:33:11 | 01:42:20 | 00:00:00 | |
| AA1-15 | 2026-08-31 12:14:54 | 50.14834 | 8.66120 | 342° | 7km/h | 24652m | 5.1m/s | -51°C | 0.9% | 28.4hPa | 2.6V | 03:33:31 | 01:42:23 | 00:00:00 | |
| HSKMA3-T | 2026-08-31 12:14:53 | 50.14833 | 8.66121 | 355° | 5km/h | 24647m | 4.7m/s | -51.1°C | 0.9% | 28.4hPa | 2.6V | 03:33:31 | 01:42:22 | 00:00:00 | |
| DB0NH | 2026-08-31 12:14:53 | 50.14836 | 8.66119 | 320° | 9km/h | 24657m | 5.8m/s | -51.0°C | 4.0% | 28.3hPa | 2.6V | 00:00:00 | 01:42:24 | 00:00:00 | |
| DL1XH-15 | 2026-08-31 12:14:52 | 50.14828 | 8.66130 | 311° | 9km/h | 24621m | 4.8m/s | -51°C | 3.9% | 28.6hPa | 2.6V | 03:33:14 | 01:42:17 | 00:00:00 | |
| BIOWL1-15 | 2026-08-31 12:14:50 | 50.14832 | 8.66121 | 345° | 4km/h | 24642m | 5.1m/s | -51°C | 0.9% | 28.4hPa | 2.6V | 03:33:31 | 01:42:21 | 00:00:00 | |
| DL1XH-west | 2026-08-31 12:14:48 | 50.14830 | 8.66124 | 286° | 7km/h | 24631m | 5.2m/s | -51°C | 0.9% | 28.5hPa | 2.7V | 03:33:31 | 01:42:19 | 00:00:00 | |
| DD1CC8 | 2026-08-31 12:14:46 | 50.14827 | 8.66132 | 333° | 9km/h | 24616m | 6.0m/s | -51.0°C | 1.2% | 28.6hPa | 2.6V | 00:00:00 | 00:00:00 | 00:00:00 | |
| DF8AY | 2026-08-31 12:14:43 | 50.14817 | 8.66133 | 349° | 5km/h | 24584m | 5.5m/s | -50.8°C | 0.8% | 28.7hPa | 2.6V | 03:34:22 | 01:42:10 | 00:00:00 | |
| HSKMA3-T | 2026-08-31 12:14:42 | 50.14820 | 8.66133 | 5° | 5km/h | 24600m | 6m/s | -50.9°C | 0.9% | 28.6hPa | 2.7V | 03:33:31 | 01:42:13 | 00:00:00 | |
| GOEST3-10 | 2026-08-31 12:14:42 | 50.14820 | 8.66133 | 6° | 4km/h | 24601m | 5.9m/s | -50.9°C | 3.9% | 28.6hPa | 2.7V | 00:00:00 | 01:42:13 | 00:00:00 | |
| DL1XH1-15 | 2026-08-31 12:14:41 | 50.14814 | 8.66134 | 354° | 9km/h | 24572m | 5.5m/s | -50.9°C | 3.9% | 28.8hPa | 2.7V | 03:33:23 | 01:42:08 | 00:00:00 | |
| BIOWL1-15 | 2026-08-31 12:14:39 | 50.14808 | 8.66136 | 330° | 11km/h | 24561m | 6.4m/s | -50.8°C | 0.8% | 28.8hPa | 2.7V | 03:33:31 | 01:42:06 | 00:00:00 | |
| DL1XH-west | 2026-08-31 12:14:38 | 50.14813 | 8.66134 | 355° | 9km/h | 24572m | 5.5m/s | -50.9°C | 0.8% | 28.8hPa | 2.7V | 03:33:31 | 01:42:08 | 00:00:00 | |
| DL1CLM-18 | 2026-08-31 12:14:36 | 50.14814 | 8.66134 | 356° | 9km/h | 24573m | 5.5m/s | -50.9°C | 0% | 0hPa | 2.7V | 00:00:00 | 00:00:00 | 00:00:00 | |
| DM0DOS-11 | 2026-08-31 12:14:34 | 50.14789 | 8.66143 | 20° | 16km/h | 24529m | 4.7m/s | -50.8°C | 3.8% | 28.9hPa | 2.7V | 03:33:31 | 01:42:00 | 00:00:00 | |
| AA1-15 | 2026-08-31 12:14:32 | 50.14801 | 8.66144 | 340° | 13km/h | 24546m | 4.9m/s | -50.8°C | 0.8% | 28.9hPa | 2.6V | 03:33:31 | 01:42:03 | 00:00:00 | |
| DL1XH-15 | 2026-08-31 12:14:31 | 50.14779 | 8.66137 | 15° | 9km/h | 24513m | 4.9m/s | -50.8°C | 3.8% | 29hPa | 2.6V | 03:33:34 | 01:41:57 | 00:00:00 | |
| DK7TD | 2026-08-31 12:14:27 | 50.14782 | 8.66138 | 19° | 13km/h | 24518m | 6.2m/s | -50.8°C | 0.8% | 29hPa | 2.6V | 03:37:46 | 01:41:58 | 00:00:00 | |
| BIOWL1-15 | 2026-08-31 12:14:25 | 50.14775 | 8.66135 | 13° | 9km/h | 24503m | 5.9m/s | -50.9°C | 0.8% | 29.1hPa | 2.7V | 03:34:22 | 01:41:55 | 00:00:00 | |
| DL3AQ-11 | 2026-08-31 12:14:25 | 50.14775 | 8.66135 | 13° | 9km/h | 24503m | 5.9m/s | -50.9°C | 1.2% | 29.1hPa | 2.7V | 00:00:00 | 00:00:00 | 00:00:00 | |
| DM0DOS-11 | 2026-08-31 12:14:24 | 50.14760 | 8.66132 | 354° | 11km/h | 24475m | 5.2m/s | -50.8°C | 3.9% | 29.2hPa | 2.7V | 03:33:41 | 01:41:50 | 00:00:00 | |
| HSKMA3-T | 2026-08-31 12:14:22 | 50.14766 | 8.66132 | 7° | 13km/h | 24486m | 5.2m/s | -50.9°C | 0.8% | 29.2hPa | 2.6V | 03:34:22 | 01:41:52 | 00:00:00 | |
| AA1-15 | 2026-08-31 12:14:21 | 50.14763 | 8.66132 | 360° | 11km/h | 24480m | 6.3m/s | -50.9°C | 0.8% | 29.2hPa | 2.6V | 03:34:22 | 01:41:51 | 00:00:00 | |
| DL1XH-west | 2026-08-31 12:14:17 | 50.14754 | 8.66131 | 14° | 15km/h | 24464m | 5.7m/s | -50.9°C | 0.9% | 29.2hPa | 2.7V | 03:34:22 | 01:41:48 | 00:00:00 | |
| BIOWL1-15 | 2026-08-31 12:14:14 | 50.14730 | 8.66119 | 3° | 18km/h | 24437m | 6m/s | -51°C | 0.8% | 29.4hPa | 2.7V | 03:34:22 | 01:41:43 | 00:00:00 | |
| DL3AQ-11 | 2026-08-31 12:14:14 | 50.14735 | 8.66120 | 13° | 20km/h | 24443m | 6.0m/s | -51.0°C | 1.1% | 29.3hPa | 2.6V | 00:00:00 | 00:00:00 | 00:00:00 | |
| DB0NH | 2026-08-31 12:14:13 | 50.14735 | 8.66120 | 14° | 18km/h | 24443m | 5.9m/s | -51.0°C | 3.8% | 29.3hPa | 2.6V | 00:00:00 | 01:41:44 | 00:00:00 | |
| DM0DOS-11 | 2026-08-31 12:14:12 | 50.14717 | 8.66119 | 4° | 16km/h | 24421m | 6.2m/s | -51°C | 3.9% | 29.4hPa | 2.6V | 03:33:51 | 01:41:40 | 00:00:00 | |
| HSKMA3-T | 2026-08-31 12:14:10 | 50.14721 | 8.66119 | 358° | 16km/h | 24426m | 4.8m/s | -51.1°C | 0.9% | 29.4hPa | 2.6V | 03:34:22 | 01:41:41 | 00:00:00 | |
| AA1-15 | 2026-08-31 12:14:10 | 50.14717 | 8.66119 | 4° | 16km/h | 24421m | 6.2m/s | -51°C | 0.9% | 29.4hPa | 2.6V | 03:34:22 | 01:41:40 | 00:00:00 | |
| DL1XH1-15 | 2026-08-31 12:14:08 | 50.14709 | 8.66117 | 15° | 16km/h | 24411m | 3.9m/s | -51°C | 4% | 29.5hPa | 2.7V | 03:33:53 | 01:41:38 | 00:00:00 | |
| DL1XH-west | 2026-08-31 12:14:07 | 50.14705 | 8.66115 | 11° | 15km/h | 24406m | 4.9m/s | -51.2°C | 0.9% | 29.5hPa | 2.7V | 03:34:22 | 01:41:37 | 00:00:00 | |
| BIOWL1-15 | 2026-08-31 12:14:02 | 50.14691 | 8.66116 | 4° | 15km/h | 24384m | 5.4m/s | -51.2°C | 0.9% | 29.6hPa | 2.6V | 03:34:22 | 01:41:33 | 00:00:00 | |
| DO1YAY-16 | 2026-08-31 12:14:02 | 50.14687 | 8.66115 | 13° | 16km/h | 24379m | 6.3m/s | -51.2°C | 1.2% | 29.6hPa | 2.7V | 00:00:00 | 00:00:00 | 00:00:00 | |
| DM0DOS-11 | 2026-08-31 12:14:01 | 50.14677 | 8.66111 | 11° | 20km/h | 24368m | 4.6m/s | -51.3°C | 4% | 29.7hPa | 2.7V | 03:34:01 | 01:41:30 | 00:00:00 | |
| HSKMA3-T | 2026-08-31 12:14:00 | 50.14682 | 8.66113 | 17° | 18km/h | 24373m | 4.8m/s | -51.2°C | 0.8% | 29.6hPa | 2.7V | 03:34:22 | 01:41:31 | 00:00:00 | |
| DF7PN | 2026-08-31 12:13:59 | 50.14672 | 8.66110 | 2° | 20km/h | 24363m | 6.2m/s | -51.3°C | 1.2% | 29.7hPa | 2.6V | 00:00:00 | 00:00:00 | 00:00:00 | |
| DL1XH1-15 | 2026-08-31 12:13:58 | 50.14667 | 8.66111 | 349° | 22km/h | 24357m | 6.2m/s | -51.2°C | 4% | 29.7hPa | 2.6V | 03:34:03 | 01:41:28 | 00:00:00 | |
| AA1-15 | 2026-08-31 12:13:58 | 50.14672 | 8.66110 | 2° | 20km/h | 24363m | 6.2m/s | -51.3°C | 0.9% | 29.7hPa | 2.6V | 03:34:22 | 01:41:29 | 00:00:00 | |
| DL1XH-west | 2026-08-31 12:13:56 | 50.14656 | 8.66115 | 344° | 26km/h | 24345m | 5.7m/s | -51.2°C | 0.9% | 29.8hPa | 2.7V | 03:34:22 | 01:41:26 | 00:00:00 | |
| DK5PH-5 | 2026-08-31 12:13:56 | 50.14662 | 8.66113 | 344° | 20km/h | 24351m | 5.4m/s | -51.1°C | 3.9% | 29.7hPa | 2.7V | 03:34:00 | 01:41:27 | 00:00:00 | |
| DM0DOS-11 | 2026-08-31 12:13:54 | 50.14619 | 8.66134 | 332° | 16km/h | 24307m | 5m/s | -51.1°C | 3.9% | 30hPa | 2.7V | 03:34:12 | 01:41:19 | 00:00:00 | |
| DF8AY | 2026-08-31 12:13:51 | 50.14632 | 8.66124 | 342° | 20km/h | 24325m | 5.4m/s | -51°C | 0.9% | 29.9hPa | 2.6V | 03:34:22 | 01:41:22 | 00:00:00 | |
| HSKMA3-T | 2026-08-31 12:13:50 | 50.14619 | 8.66134 | 333° | 16km/h | 24307m | 5m/s | -51.1°C | 0.8% | 30hPa | 2.7V | 03:34:22 | 01:41:19 | 00:00:00 | |
| AA1-15 | 2026-08-31 12:13:47 | 50.14615 | 8.66136 | 342° | 18km/h | 24302m | 6m/s | -51°C | 0.9% | 30hPa | 2.7V | 03:34:22 | 01:41:18 | 00:00:00 | |
| DL1XH-west | 2026-08-31 12:13:46 | 50.14611 | 8.66138 | 352° | 20km/h | 24296m | 5.7m/s | -50.9°C | 0.9% | 30hPa | 2.6V | 03:34:22 | 01:41:17 | 00:00:00 | |
| DL1XH-15 | 2026-08-31 12:13:44 | 50.14595 | 8.66140 | 349° | 20km/h | 24280m | 6.2m/s | -50.9°C | 3.9% | 30.1hPa | 2.7V | 03:34:17 | 01:41:14 | 00:00:00 | |
| DD1CC8 | 2026-08-31 12:13:44 | 50.14595 | 8.66140 | 349° | 18km/h | 24280m | 6.2m/s | -50.9°C | 1.2% | 30.1hPa | 2.6V | 00:00:00 | 00:00:00 | 00:00:00 | |
| DM0DOS-11 | 2026-08-31 12:13:43 | 50.14575 | 8.66147 | 352° | 22km/h | 24258m | 5.7m/s | -50.9°C | 3.8% | 30.2hPa | 2.6V | 03:34:21 | 01:41:10 | 00:00:00 | |
| BIOWL1-15 | 2026-08-31 12:13:40 | 50.14581 | 8.66146 | 349° | 20km/h | 24264m | 6m/s | -50.9°C | 0.8% | 30.2hPa | 2.6V | 03:34:22 | 01:41:11 | 00:00:00 | |
| HSKMA3-T | 2026-08-31 12:13:40 | 50.14570 | 8.66148 | 351° | 20km/h | 24253m | 4.7m/s | -50.9°C | 0.8% | 30.2hPa | 2.6V | 03:34:22 | 01:41:09 | 00:00:00 | |
| DL1XH1-15 | 2026-08-31 12:13:38 | 50.14565 | 8.66150 | 343° | 18km/h | 24248m | 5.5m/s | -51°C | 3.8% | 30.2hPa | 2.7V | 03:34:23 | 01:41:08 | 00:00:00 | |
| AA1-15 | 2026-08-31 12:13:37 | 50.14565 | 8.66150 | 343° | 18km/h | 24248m | 5.5m/s | -51°C | 0.8% | 30.2hPa | 2.7V | 03:35:13 | 01:41:08 | 00:00:00 | |
| DL1XH-west | 2026-08-31 12:13:35 | 50.14557 | 8.66156 | 322° | 16km/h | 24237m | 5.4m/s | -51.2°C | 0.9% | 30.3hPa | 2.7V | 03:35:13 | 01:41:06 | 00:00:00 | |
| DL1XH-15 | 2026-08-31 12:13:34 | 50.14551 | 8.66164 | 327° | 16km/h | 24226m | 6.1m/s | -51.2°C | 4% | 30.3hPa | 2.6V | 03:34:27 | 01:41:04 | 00:00:00 | |
| DD8BA-10 | 2026-08-31 12:13:34 | 50.14554 | 8.66160 | 321° | 16km/h | 24232m | 4.8m/s | -51.2°C | 4.0% | 30.3hPa | 2.6V | 03:34:00 | 00:00:00 | 00:00:00 | |
| DL3AQ-11 | 2026-08-31 12:13:33 | 50.14551 | 8.66164 | 327° | 16km/h | 24226m | 6.1m/s | -51.2°C | 1.2% | 30.3hPa | 2.6V | 00:00:00 | 00:00:00 | 00:00:00 | |
| DL1XH1-15 | 2026-08-31 12:13:32 | 50.14529 | 8.66179 | 342° | 13km/h | 24195m | 4.2m/s | -51.4°C | 4.1% | 30.5hPa | 2.6V | 03:34:33 | 01:40:58 | 00:00:00 | |
| DK7TD | 2026-08-31 12:13:32 | 50.14547 | 8.66167 | 335° | 18km/h | 24220m | 5.3m/s | -51.2°C | 0.9% | 30.4hPa | 2.6V | 03:37:46 | 01:41:03 | 00:00:00 | |
| HSKMA3-T | 2026-08-31 12:13:28 | 50.14529 | 8.66179 | 342° | 13km/h | 24195m | 4.2m/s | -51.4°C | 1% | 30.5hPa | 2.6V | 03:35:13 | 01:40:58 | 00:00:00 | |
| AA1-15 | 2026-08-31 12:13:26 | 50.14526 | 8.66180 | 352° | 15km/h | 24190m | 6m/s | -51.4°C | 0.9% | 30.5hPa | 2.6V | 03:35:13 | 01:40:57 | 00:00:00 | |
| DL1XH-west | 2026-08-31 12:13:25 | 50.14522 | 8.66181 | 2° | 16km/h | 24184m | 5.7m/s | -51.4°C | 0.9% | 30.5hPa | 2.7V | 03:35:13 | 01:40:56 | 00:00:00 | |
| DL1XH-15 | 2026-08-31 12:13:24 | 50.14514 | 8.66180 | 6° | 13km/h | 24174m | 4.7m/s | -51.4°C | 4% | 30.6hPa | 2.7V | 03:34:37 | 01:40:54 | 00:00:00 | |
| DK7TD | 2026-08-31 12:13:21 | 50.14510 | 8.66180 | 334° | 5km/h | 24162m | 5.9m/s | -51.1°C | 0.9% | 30.6hPa | 2.6V | 03:37:46 | 01:40:52 | 00:00:00 | |
| DL1XH1-15 | 2026-08-31 12:13:21 | 50.14505 | 8.66187 | 326° | 9km/h | 24140m | 4.7m/s | -51°C | 3.9% | 30.7hPa | 2.7V | 03:34:43 | 01:40:48 | 00:00:00 | |
| BIOWL1-15 | 2026-08-31 12:13:19 | 50.14508 | 8.66183 | 308° | 5km/h | 24151m | 5.6m/s | -51°C | 0.8% | 30.7hPa | 2.7V | 03:35:13 | 01:40:50 | 00:00:00 | |
| HSKMA3-T | 2026-08-31 12:13:18 | 50.14505 | 8.66187 | 327° | 9km/h | 24140m | 4.7m/s | -51°C | 0.8% | 30.7hPa | 2.7V | 03:35:13 | 01:40:48 | 00:00:00 | |
| AA1-15 | 2026-08-31 12:13:16 | 50.14501 | 8.66191 | 319° | 9km/h | 24131m | 5.8m/s | -51°C | 0.9% | 30.8hPa | 2.6V | 03:35:13 | 01:40:46 | 00:00:00 | |
| DL1XH-west | 2026-08-31 12:13:15 | 50.14500 | 8.66194 | 314° | 7km/h | 24125m | 5.5m/s | -51°C | 0.9% | 30.8hPa | 2.6V | 03:35:13 | 01:40:45 | 00:00:00 | |
| DL1XH-15 | 2026-08-31 12:13:14 | 50.14498 | 8.66195 | 326° | 5km/h | 24120m | 4.7m/s | -51°C | 3.9% | 30.8hPa | 2.7V | 03:34:47 | 01:40:44 | 00:00:00 | |
| DF8AY | 2026-08-31 12:13:13 | 50.14498 | 8.66195 | 326° | 5km/h | 24120m | 4.7m/s | -51°C | 0.9% | 30.8hPa | 2.7V | 03:35:13 | 01:40:44 | 00:00:00 | |
| DL9SK-14 | 2026-08-31 12:13:13 | 50.14497 | 8.66196 | 355° | 5km/h | 24115m | 5.2m/s | -51.1°C | 1.2% | 30.9hPa | 2.6V | 00:00:00 | 00:00:00 | 00:00:00 | |
| DM0DOS-11 | 2026-08-31 12:13:12 | 50.14491 | 8.66193 | 29° | 9km/h | 24099m | 4.6m/s | -50.9°C | 4% | 30.9hPa | 2.6V | 03:34:51 | 01:40:40 | 00:00:00 | |
| BIOWL1-15 | 2026-08-31 12:13:10 | 50.14488 | 8.66190 | 58° | 0km/h | 24083m | 5.1m/s | -51°C | 0.9% | 31hPa | 2.7V | 03:35:13 | 01:40:37 | 00:00:00 | |
| DK7TD | 2026-08-31 12:13:10 | 50.14493 | 8.66195 | 26° | 9km/h | 24104m | 4.7m/s | -50.9°C | 0.9% | 30.9hPa | 2.6V | 03:37:46 | 01:40:41 | 00:00:00 | |
| DL1XH1-15 | 2026-08-31 12:13:09 | 50.14488 | 8.66191 | 41° | 2km/h | 24088m | 5.6m/s | -50.9°C | 3.9% | 31hPa | 2.7V | 03:34:53 | 01:40:38 | 00:00:00 | |
| HSKMA3-T | 2026-08-31 12:13:07 | 50.14488 | 8.66191 | 42° | 2km/h | 24088m | 5.6m/s | -50.9°C | 0.8% | 31hPa | 2.7V | 03:35:13 | 01:40:38 | 00:00:00 | |
| GOEST3-10 | 2026-08-31 12:13:06 | 50.14488 | 8.66190 | 59° | 4km/h | 24083m | 5.0m/s | 0°C | 0% | 0hPa | 2.6V | 00:00:00 | 00:00:00 | 00:00:00 | |
| HEMX73-11 | 2026-08-31 12:13:05 | 50.14488 | 8.66190 | 0° | 0km/h | 24083m | 5.1m/s | -51.0°C | 1.2% | 31.0hPa | 2.6V | 03:35:00 | 00:00:00 | 00:00:00 | |
| DL1XH-15 | 2026-08-31 12:13:04 | 50.14486 | 8.66189 | 12° | 5km/h | 24067m | 4.7m/s | -51°C | 3.8% | 31.1hPa | 2.6V | 03:34:57 | 01:40:34 | 00:00:00 | |
| AA1-15 | 2026-08-31 12:13:04 | 50.14487 | 8.66190 | 21° | 4km/h | 24072m | 6m/s | -51°C | 0.8% | 31.1hPa | 2.6V | 03:35:13 | 01:40:35 | 00:00:00 | |
| DF8AY | 2026-08-31 12:13:03 | 50.14486 | 8.66189 | 12° | 5km/h | 24067m | 4.7m/s | -51°C | 0.8% | 31.1hPa | 2.6V | 03:35:13 | 01:40:34 | 00:00:00 | |
| DM0DOS-11 | 2026-08-31 12:13:02 | 50.14484 | 8.66191 | 251° | 2km/h | 24047m | 4.6m/s | -51.1°C | 3.8% | 31.2hPa | 2.7V | 03:35:01 | 01:40:30 | 00:00:00 | |
| DO1YAY-16 | 2026-08-31 12:13:00 | 50.14484 | 8.66191 | 251° | 0km/h | 24047m | 4.6m/s | -51.1°C | 1.2% | 31.2hPa | 2.7V | 00:00:00 | 00:00:00 | 00:00:00 | |
| DJ8HS-15 | 2026-08-31 12:12:59 | 50.14484 | 8.66191 | 252° | 7km/h | 24047m | 4.5m/s | -51.0°C | 3.8% | 31.1hPa | 2.7V | 03:35:00 | 01:40:30 | 00:00:00 | |
| DK5PH-5 | 2026-08-31 12:12:57 | 50.14482 | 8.66188 | 57° | 9km/h | 24031m | 4.6m/s | -51.1°C | 3.8% | 31.2hPa | 2.7V | 00:00:00 | 01:40:27 | 00:00:00 | |
| GOEST3-10 | 2026-08-31 12:12:56 | 50.14482 | 8.66188 | 57° | 7km/h | 24031m | 4.6m/s | 0°C | 0% | 0hPa | 2.7V | 03:35:00 | 00:00:00 | 00:00:00 | |
| BIOWL1-15 | 2026-08-31 12:12:56 | 50.14482 | 8.66188 | 56° | 7km/h | 24031m | 4.7m/s | -51.2°C | 0.8% | 31.3hPa | 2.6V | 03:35:13 | 01:40:27 | 00:00:00 | |
| DL1XH-15 | 2026-08-31 12:12:54 | 50.14481 | 8.66179 | 102° | 7km/h | 24016m | 5.7m/s | -51.3°C | 3.9% | 31.3hPa | 2.7V | 03:35:07 | 01:40:24 | 00:00:00 | |
| DL1XH-west | 2026-08-31 12:12:53 | 50.14481 | 8.66179 | 103° | 7km/h | 24016m | 5.7m/s | -51.3°C | 0.9% | 31.3hPa | 2.7V | 03:35:13 | 01:40:24 | 00:00:00 | |
| DM0DOS-11 | 2026-08-31 12:12:52 | 50.14482 | 8.66170 | 63° | 7km/h | 23995m | 5m/s | -51.2°C | 4% | 31.5hPa | 2.7V | 03:35:11 | 01:40:20 | 00:00:00 | |
| DD8BA-10 | 2026-08-31 12:12:52 | 50.14481 | 8.66177 | 118° | 5km/h | 24011m | 4.8m/s | -51.2°C | 4.0% | 31.3hPa | 2.6V | 03:35:00 | 00:00:00 | 00:00:00 | |
| DF8AY | 2026-08-31 12:12:52 | 50.14479 | 8.66165 | 43° | 7km/h | 23986m | 4.2m/s | -51.3°C | 0.9% | 31.5hPa | 2.6V | 03:35:13 | 01:40:18 | 00:00:00 | |
| DL1XH1-15 | 2026-08-31 12:12:51 | 50.14479 | 8.66165 | 43° | 7km/h | 23986m | 4.2m/s | -51.3°C | 4% | 31.5hPa | 2.6V | 03:35:13 | 01:40:18 | 00:00:00 | |
| BUE01 | 2026-08-31 12:12:49 | 50.14482 | 8.66170 | 63° | 7km/h | 23995m | 5.0m/s | -51.2°C | 1.2% | 31.5hPa | 2.6V | 00:00:00 | 00:00:00 | 00:00:00 | |
| DL1XH-15 | 2026-08-31 12:12:48 | 50.14477 | 8.66157 | 73° | 7km/h | 23961m | 5.8m/s | -51.2°C | 3.9% | 31.6hPa | 2.6V | 03:35:18 | 01:40:13 | 00:00:00 | |
| BIOWL1-15 | 2026-08-31 12:12:46 | 50.14477 | 8.66162 | 60° | 2km/h | 23976m | 5.6m/s | -51.3°C | 0.9% | 31.5hPa | 2.7V | 03:36:04 | 01:40:16 | 00:00:00 | |
| HEMX73-11 | 2026-08-31 12:12:46 | 50.14478 | 8.66163 | 47° | 5km/h | 23981m | 5.3m/s | -51.3°C | 1.2% | 31.5hPa | 2.7V | 03:36:00 | 00:00:00 | 00:00:00 | |
| DF2AP-13 | 2026-08-31 12:12:45 | 50.14477 | 8.66162 | 60° | 11km/h | 23976m | 5.5m/s | -51.3°C | 4.0% | 31.5hPa | 2.7V | 00:00:00 | 01:40:16 | 00:00:00 | |
| DL1ZP-14 | 2026-08-31 12:12:44 | 50.14477 | 8.66161 | 93° | 2km/h | 23971m | 4.8m/s | -51.3°C | 1.2% | 31.6hPa | 2.7V | 00:00:00 | 00:00:00 | 00:00:00 | |
| DM0DOS-11 | 2026-08-31 12:12:42 | 50.14473 | 8.66145 | 48° | 13km/h | 23947m | 4.8m/s | -51.4°C | 3.8% | 31.7hPa | 2.6V | 03:35:21 | 01:40:10 | 00:00:00 | |
| AA1-15 | 2026-08-31 12:12:42 | 50.14477 | 8.66157 | 73° | 9km/h | 23961m | 5.8m/s | -51.3°C | 0.9% | 31.6hPa | 2.6V | 03:36:04 | 01:40:13 | 00:00:00 | |
| DL9SK-14 | 2026-08-31 12:12:42 | 50.14476 | 8.66153 | 64° | 11km/h | 23955m | 5.0m/s | -51.2°C | 1.2% | 31.6hPa | 2.7V | 00:00:00 | 00:00:00 | 00:00:00 | |
| DL1XH1-15 | 2026-08-31 12:12:41 | 50.14468 | 8.66140 | 16° | 9km/h | 23936m | 4.8m/s | -51.5°C | 3.9% | 31.7hPa | 2.7V | 03:35:23 | 01:40:08 | 00:00:00 | |
| HSKMA3-T | 2026-08-31 12:12:36 | 50.14466 | 8.66139 | 8° | 11km/h | 23931m | 4.7m/s | -51.5°C | 0.9% | 31.8hPa | 2.7V | 03:36:04 | 01:40:07 | 00:00:00 | |
| BIOWL1-15 | 2026-08-31 12:12:35 | 50.14462 | 8.66138 | 9° | 15km/h | 23926m | 5.5m/s | -51.5°C | 0.9% | 31.8hPa | 2.6V | 03:36:04 | 01:40:06 | 00:00:00 | |
| DL8DAS-14 | 2026-08-31 12:12:33 | 50.14455 | 8.66136 | 14° | 16km/h | 23916m | 4.6m/s | -51.6°C | 1.2% | 31.8hPa | 2.7V | 00:00:00 | 00:00:00 | 00:00:00 | |
| DD8BA-10 | 2026-08-31 12:12:32 | 50.14451 | 8.66134 | 15° | 15km/h | 23911m | 4.5m/s | -51.6°C | 4.0% | 31.8hPa | 2.7V | 00:00:00 | 00:00:00 | 00:00:00 | |
| DL1XH1-15 | 2026-08-31 12:12:31 | 50.14439 | 8.66128 | 38° | 11km/h | 23886m | 6m/s | -51.7°C | 4.1% | 32hPa | 2.7V | 03:35:33 | 01:39:58 | 00:00:00 | |
| DL1XH-west | 2026-08-31 12:12:31 | 50.14447 | 8.66133 | 12° | 13km/h | 23905m | 5.8m/s | -51.6°C | 0.9% | 31.9hPa | 2.6V | 03:36:04 | 01:40:02 | 00:00:00 | |
| DF8AY | 2026-08-31 12:12:28 | 50.14439 | 8.66128 | 39° | 11km/h | 23886m | 6m/s | -51.7°C | 1% | 32hPa | 2.7V | 03:39:28 | 01:39:58 | 00:00:00 | |
| HSKMA3-T | 2026-08-31 12:12:27 | 50.14437 | 8.66125 | 38° | 13km/h | 23880m | 5m/s | -51.8°C | 1% | 32hPa | 2.7V | 03:36:04 | 01:39:57 | 00:00:00 | |
| DL1XH-15 | 2026-08-31 12:12:27 | 50.14425 | 8.66120 | 341° | 13km/h | 23861m | 5.3m/s | -51.8°C | 4% | 32.1hPa | 2.7V | 03:35:38 | 01:39:53 | 00:00:00 | |
| BIOWL1-15 | 2026-08-31 12:12:25 | 50.14434 | 8.66122 | 29° | 15km/h | 23876m | 3.8m/s | -51.8°C | 0.9% | 32hPa | 2.6V | 03:36:04 | 01:39:56 | 00:00:00 | |
| DL4BBY-15 | 2026-08-31 12:12:24 | 50.14431 | 8.66120 | 18° | 13km/h | 23872m | 4.6m/s | -51.1°C | 0% | 0hPa | 2.6V | 00:00:00 | 00:00:00 | 00:00:00 | |
| DM0DOS-11 | 2026-08-31 12:12:21 | 50.14415 | 8.66126 | 342° | 15km/h | 23845m | 4.7m/s | -51.8°C | 3.9% | 32.2hPa | 2.6V | 03:35:41 | 01:39:50 | 00:00:00 | |
| DL1XH-west | 2026-08-31 12:12:21 | 50.14422 | 8.66122 | 335° | 13km/h | 23856m | 4.6m/s | -51.8°C | 0.9% | 32.1hPa | 2.7V | 03:36:04 | 01:39:52 | 00:00:00 | |
| AA1-15 | 2026-08-31 12:12:20 | 50.14418 | 8.66124 | 339° | 15km/h | 23851m | 5.8m/s | -51.8°C | 0.9% | 32.1hPa | 2.7V | 03:36:04 | 01:39:51 | 00:00:00 | |
| DD8BA-10 | 2026-08-31 12:12:20 | 50.14418 | 8.66124 | 340° | 13km/h | 23851m | 5.7m/s | -51.7°C | 3.9% | 32.1hPa | 2.7V | 00:00:00 | 00:00:00 | 00:00:00 | |
| DL1XH1-15 | 2026-08-31 12:12:18 | 50.14408 | 8.66130 | 330° | 15km/h | 23836m | 5.2m/s | -51.8°C | 3.9% | 32.2hPa | 2.6V | 03:35:43 | 01:39:48 | 00:00:00 | |
| DK7TD | 2026-08-31 12:12:17 | 50.14408 | 8.66130 | 331° | 15km/h | 23836m | 5.2m/s | -51.8°C | 0.9% | 32.2hPa | 2.6V | 03:37:46 | 01:39:48 | 00:00:00 | |
| DF8AY | 2026-08-31 12:12:16 | 50.14402 | 8.66137 | 321° | 16km/h | 23826m | 4.6m/s | -51.7°C | 0.9% | 32.3hPa | 2.7V | 03:39:28 | 01:39:46 | 00:00:00 | |
| HSKMA3-T | 2026-08-31 12:12:16 | 50.14405 | 8.66133 | 323° | 16km/h | 23831m | 5.8m/s | -51.7°C | 0.9% | 32.3hPa | 2.7V | 03:36:04 | 01:39:47 | 00:00:00 | |
| BIOWL1-15 | 2026-08-31 12:12:15 | 50.14399 | 8.66141 | 328° | 15km/h | 23821m | 4.5m/s | -51.7°C | 0.9% | 32.3hPa | 2.7V | 03:36:04 | 01:39:45 | 00:00:00 | |
| DL1XH-west | 2026-08-31 12:12:10 | 50.14387 | 8.66142 | 9° | 9km/h | 23800m | 5.3m/s | -51.8°C | 0.9% | 32.4hPa | 2.7V | 03:36:04 | 01:39:41 | 00:00:00 | |
| AA1-15 | 2026-08-31 12:12:09 | 50.14385 | 8.66142 | 348° | 9km/h | 23795m | 5.5m/s | -51.9°C | 0.9% | 32.4hPa | 2.7V | 03:36:04 | 01:39:40 | 00:00:00 | |
| HSKMA3-T | 2026-08-31 12:12:06 | 50.14376 | 8.66150 | 340° | 13km/h | 23775m | 5.6m/s | -52.2°C | 1% | 32.5hPa | 2.6V | 03:36:04 | 01:39:36 | 00:00:00 | |
| DF8AY | 2026-08-31 12:12:04 | 50.14351 | 8.66165 | 348° | 16km/h | 23745m | 5.6m/s | -52.4°C | 1% | 32.7hPa | 2.6V | 03:39:28 | 01:39:30 | 00:00:00 | |
| BIOWL1-15 | 2026-08-31 12:12:03 | 50.14369 | 8.66154 | 339° | 18km/h | 23765m | 4.9m/s | -52.3°C | 0.9% | 32.5hPa | 2.7V | 03:36:04 | 01:39:34 | 00:00:00 | |
| DC4HF-4 | 2026-08-31 12:12:03 | 50.14364 | 8.66156 | 334° | 18km/h | 23759m | 6.0m/s | -52.3°C | 1.2% | 32.6hPa | 2.7V | 00:00:00 | 00:00:00 | 00:00:00 | |
| DL8DAS-14 | 2026-08-31 12:12:02 | 50.14364 | 8.66156 | 334° | 18km/h | 23759m | 6.0m/s | -52.3°C | 1.2% | 32.6hPa | 2.7V | 00:00:00 | 00:00:00 | 00:00:00 | |
| DL1XH1-15 | 2026-08-31 12:12:01 | 50.14345 | 8.66165 | 16° | 11km/h | 23734m | 4.7m/s | -52.4°C | 4.2% | 32.7hPa | 2.7V | 03:36:03 | 01:39:28 | 00:00:00 | |
| DM0DOS-11 | 2026-08-31 12:12:00 | 50.14351 | 8.66165 | 347° | 16km/h | 23745m | 5.6m/s | -52.4°C | 4.1% | 32.6hPa | 2.6V | 03:36:01 | 01:39:30 | 00:00:00 | |
| DL1XH-west | 2026-08-31 12:12:00 | 50.14356 | 8.66163 | 337° | 18km/h | 23750m | 3.5m/s | -52.5°C | 1% | 32.7hPa | 2.6V | 03:36:04 | 01:39:31 | 00:00:00 | |
| AA1-15 | 2026-08-31 12:11:58 | 50.14348 | 8.66166 | 5° | 13km/h | 23740m | 5.6m/s | -52.4°C | 1% | 32.7hPa | 2.7V | 03:36:04 | 01:39:29 | 00:00:00 | |
| HSKMA3-T | 2026-08-31 12:11:54 | 50.14339 | 8.66163 | 332° | 5km/h | 23719m | 4.8m/s | -52.5°C | 1.1% | 32.8hPa | 2.6V | 03:36:55 | 01:39:25 | 00:00:00 | |
| DF8AY | 2026-08-31 12:11:52 | 50.14336 | 8.66166 | 336° | 5km/h | 23709m | 5.3m/s | -52.6°C | 1% | 32.8hPa | 2.7V | 03:39:28 | 01:39:23 | 00:00:00 | |
| DF3TZ-5 | 2026-08-31 12:11:52 | 50.14325 | 8.66168 | 343° | 16km/h | 23691m | 5.1m/s | -52.8°C | 1.3% | 33.0hPa | 2.6V | 00:00:00 | 00:00:00 | 00:00:00 | |
| DM0DOS-11 | 2026-08-31 12:11:50 | 50.14329 | 8.66167 | 352° | 13km/h | 23695m | 4.3m/s | -52.7°C | 4.1% | 32.9hPa | 2.6V | 03:36:11 | 01:39:20 | 00:00:00 | |
| DL1XH-west | 2026-08-31 12:11:49 | 50.14329 | 8.66167 | 353° | 13km/h | 23695m | 4.3m/s | -52.7°C | 1% | 32.9hPa | 2.6V | 03:36:55 | 01:39:20 | 00:00:00 | |
| DL1XH1-15 | 2026-08-31 12:11:49 | 50.14321 | 8.66171 | 336° | 20km/h | 23685m | 5.7m/s | -52.8°C | 4.2% | 33hPa | 2.6V | 03:36:13 | 01:39:18 | 00:00:00 | |
| AA1-15 | 2026-08-31 12:11:47 | 50.14321 | 8.66171 | 336° | 20km/h | 23685m | 5.7m/s | -52.8°C | 1% | 33hPa | 2.6V | 03:36:55 | 01:39:18 | 00:00:00 | |
| DD8BA-10 | 2026-08-31 12:11:47 | 50.14321 | 8.66171 | 337° | 18km/h | 23685m | 5.7m/s | -52.8°C | 4.2% | 32.9hPa | 2.6V | 00:00:00 | 00:00:00 | 00:00:00 | |
| DM0DOS-11 | 2026-08-31 12:11:45 | 50.14280 | 8.66183 | 6° | 7km/h | 23640m | 4.3m/s | -52.9°C | 4.3% | 33.2hPa | 2.7V | 03:36:22 | 01:39:09 | 00:00:00 | |
| HSKMA3-T | 2026-08-31 12:11:43 | 50.14298 | 8.66184 | 354° | 24km/h | 23664m | 4.8m/s | -52.6°C | 1.1% | 33.1hPa | 2.6V | 03:36:55 | 01:39:14 | 00:00:00 | |
| DF8AY | 2026-08-31 12:11:41 | 50.14288 | 8.66184 | 5° | 15km/h | 23656m | 4.4m/s | -52.8°C | 1.1% | 33.1hPa | 2.6V | 03:39:28 | 01:39:12 | 00:00:00 | |
| BIOWL1-15 | 2026-08-31 12:11:39 | 50.14280 | 8.66183 | 6° | 7km/h | 23640m | 4.3m/s | -52.9°C | 1.1% | 33.2hPa | 2.7V | 03:36:55 | 01:39:09 | 00:00:00 | |
| DL1XH-west | 2026-08-31 12:11:39 | 50.14282 | 8.66183 | 359° | 7km/h | 23645m | 5m/s | -52.9°C | 1.1% | 33.2hPa | 2.7V | 03:36:55 | 01:39:10 | 00:00:00 | |
| DK7TD | 2026-08-31 12:11:37 | 50.14278 | 8.66183 | 15° | 9km/h | 23635m | 5.7m/s | -52.9°C | 1.1% | 33.2hPa | 2.6V | 03:37:46 | 01:39:08 | 00:00:00 | |
| AA1-15 | 2026-08-31 12:11:37 | 50.14276 | 8.66182 | 15° | 11km/h | 23630m | 5m/s | -52.9°C | 1% | 33.3hPa | 2.6V | 03:36:55 | 01:39:07 | 00:00:00 | |
| HSKMA3-T | 2026-08-31 12:11:33 | 50.14266 | 8.66183 | 332° | 16km/h | 23614m | 6.2m/s | -52.8°C | 1% | 33.3hPa | 2.7V | 03:36:55 | 01:39:04 | 00:00:00 | |
| DM0DOS-11 | 2026-08-31 12:11:33 | 50.14251 | 8.66200 | 334° | 18km/h | 23594m | 5.5m/s | -52.6°C | 4.2% | 33.5hPa | 2.6V | 03:36:31 | 01:39:00 | 00:00:00 | |
| BIOWL1-15 | 2026-08-31 12:11:31 | 50.14236 | 8.66208 | 337° | 4km/h | 23565m | 4.4m/s | -52.8°C | 1.1% | 33.6hPa | 2.6V | 03:36:55 | 01:38:54 | 00:00:00 | |
| DF8AY | 2026-08-31 12:11:31 | 50.14251 | 8.66200 | 335° | 18km/h | 23594m | 5.5m/s | -52.6°C | 1.1% | 33.5hPa | 2.6V | 03:39:28 | 01:39:00 | 00:00:00 | |
| DL1XH1-15 | 2026-08-31 12:11:29 | 50.14243 | 8.66203 | 350° | 13km/h | 23585m | 4m/s | -52.7°C | 4.3% | 33.5hPa | 2.7V | 03:36:33 | 01:38:58 | 00:00:00 | |
| DL1XH-west | 2026-08-31 12:11:28 | 50.14247 | 8.66202 | 345° | 15km/h | 23589m | 4.1m/s | -52.6°C | 1.1% | 33.5hPa | 2.7V | 03:36:55 | 01:38:59 | 00:00:00 | |
| AA1-15 | 2026-08-31 12:11:26 | 50.14241 | 8.66204 | 346° | 11km/h | 23581m | 5.1m/s | -52.7°C | 1.1% | 33.5hPa | 2.7V | 03:36:55 | 01:38:57 | 00:00:00 | |
| HSKMA3-T | 2026-08-31 12:11:22 | 50.14235 | 8.66208 | 9° | 4km/h | 23560m | 5.8m/s | -52.8°C | 1.1% | 33.6hPa | 2.7V | 03:36:55 | 01:38:53 | 00:00:00 | |
| DL1XH1-15 | 2026-08-31 12:11:22 | 50.14231 | 8.66210 | 267° | 11km/h | 23535m | 5.2m/s | -52.7°C | 4.2% | 33.8hPa | 2.6V | 03:36:43 | 01:38:48 | 00:00:00 | |
| HEMX73-6 | 2026-08-31 12:11:22 | 50.14235 | 8.66208 | 9° | 5km/h | 23560m | 5.7m/s | -52.8°C | 4.3% | 33.6hPa | 2.7V | 00:00:00 | 01:38:53 | 00:00:00 | |
| DL1XH-15 | 2026-08-31 12:11:21 | 50.14231 | 8.66215 | 269° | 13km/h | 23530m | 4.2m/s | -52.8°C | 4.2% | 33.8hPa | 2.7V | 03:36:44 | 01:38:47 | 00:00:00 | |
| DF8AY | 2026-08-31 12:11:19 | 50.14231 | 8.66207 | 281° | 5km/h | 23541m | 6.1m/s | -52.7°C | 1% | 33.7hPa | 2.6V | 03:39:28 | 01:38:49 | 00:00:00 | |
| DL1XH-west | 2026-08-31 12:11:17 | 50.14231 | 8.66210 | 268° | 11km/h | 23535m | 5.2m/s | -52.7°C | 1% | 33.8hPa | 2.6V | 03:36:55 | 01:38:48 | 00:00:00 | |
| BIOWL1-15 | 2026-08-31 12:11:17 | 50.14225 | 8.66237 | 291° | 7km/h | 23499m | 5.3m/s | -52.6°C | 1% | 34hPa | 2.7V | 03:36:55 | 01:38:41 | 00:00:00 | |
| AA1-15 | 2026-08-31 12:11:16 | 50.14231 | 8.66220 | 279° | 13km/h | 23525m | 5.4m/s | -52.8°C | 1% | 33.8hPa | 2.7V | 03:36:55 | 01:38:46 | 00:00:00 | |
| HSKMA3-T | 2026-08-31 12:11:11 | 50.14226 | 8.66234 | 302° | 9km/h | 23505m | 5.9m/s | -52.6°C | 1% | 33.9hPa | 2.6V | 03:36:55 | 01:38:42 | 00:00:00 | |
| DL1XH-15 | 2026-08-31 12:11:11 | 50.14222 | 8.66238 | 50° | 5km/h | 23478m | 4.4m/s | -52.6°C | 4.2% | 34.1hPa | 2.6V | 03:36:54 | 01:38:37 | 00:00:00 | |
| DM0DOS-11 | 2026-08-31 12:11:11 | 50.14224 | 8.66239 | 293° | 4km/h | 23494m | 4.4m/s | -52.6°C | 4.2% | 34hPa | 2.7V | 03:36:51 | 01:38:40 | 00:00:00 | |
| DL1XH-west | 2026-08-31 12:11:07 | 50.14223 | 8.66239 | 39° | 4km/h | 23484m | 6.1m/s | -52.6°C | 1.1% | 34hPa | 2.6V | 03:36:55 | 01:38:38 | 00:00:00 | |
| BIOWL1-15 | 2026-08-31 12:11:06 | 50.14222 | 8.66238 | 51° | 5km/h | 23478m | 4.4m/s | -52.6°C | 1% | 34.1hPa | 2.6V | 03:36:55 | 01:38:37 | 00:00:00 | |
| AA1-15 | 2026-08-31 12:11:04 | 50.14221 | 8.66236 | 248° | 0km/h | 23469m | 5.8m/s | -52.7°C | 1.2% | 34.1hPa | 2.7V | 03:37:46 | 01:38:35 | 00:00:00 | |
| HSKMA3-T | 2026-08-31 12:11:00 | 50.14222 | 8.66246 | 292° | 7km/h | 23450m | 5.6m/s | -52.7°C | 1.1% | 34.2hPa | 2.6V | 03:37:46 | 01:38:31 | 00:00:00 | |
| DM0DOS-11 | 2026-08-31 12:11:00 | 50.14221 | 8.66248 | 320° | 7km/h | 23445m | 5m/s | -52.6°C | 4.3% | 34.2hPa | 2.6V | 03:37:01 | 01:38:30 | 00:00:00 | |
| DL1XH-west | 2026-08-31 12:10:56 | 50.14217 | 8.66251 | 332° | 4km/h | 23431m | 5.4m/s | -52.6°C | 1% | 34.3hPa | 2.7V | 03:37:46 | 01:38:27 | 00:00:00 | |
| DF8AY | 2026-08-31 12:10:54 | 50.14215 | 8.66255 | 334° | 4km/h | 23410m | 6m/s | -52.4°C | 1% | 34.4hPa | 2.7V | 03:39:28 | 01:38:23 | 00:00:00 | |
| AA1-15 | 2026-08-31 12:10:54 | 50.14216 | 8.66254 | 281° | 2km/h | 23416m | 4.6m/s | -52.4°C | 1% | 34.4hPa | 2.6V | 03:37:46 | 01:38:24 | 00:00:00 | |
| DL3AQ-11 | 2026-08-31 12:10:54 | 50.14216 | 8.66254 | 281° | 2km/h | 23416m | 4.6m/s | -52.4°C | 1.3% | 34.4hPa | 2.6V | 00:00:00 | 00:00:00 | 00:00:00 | |
| DF7PN | 2026-08-31 12:10:52 | 50.14215 | 8.66255 | 334° | 2km/h | 23410m | 6.0m/s | -52.4°C | 1.3% | 34.4hPa | 2.6V | 00:00:00 | 00:00:00 | 00:00:00 | |
| DC4HF-4 | 2026-08-31 12:10:51 | 50.14213 | 8.66255 | 12° | 4km/h | 23400m | 4.6m/s | -52.4°C | 1.3% | 34.5hPa | 2.6V | 00:00:00 | 00:00:00 | 00:00:00 | |
| DM0DOS-11 | 2026-08-31 12:10:50 | 50.14212 | 8.66255 | 13° | 4km/h | 23395m | 5.4m/s | -52.4°C | 4% | 34.5hPa | 2.6V | 03:37:11 | 01:38:20 | 00:00:00 | |
| HSKMA3-T | 2026-08-31 12:10:49 | 50.14212 | 8.66255 | 14° | 4km/h | 23395m | 5.4m/s | -52.4°C | 0.9% | 34.5hPa | 2.6V | 03:37:46 | 01:38:20 | 00:00:00 | |
| DL1XH-west | 2026-08-31 12:10:46 | 50.14211 | 8.66254 | 346° | 4km/h | 23379m | 4.6m/s | -52.4°C | 1% | 34.6hPa | 2.7V | 03:37:46 | 01:38:17 | 00:00:00 | |
| AA1-15 | 2026-08-31 12:10:43 | 50.14204 | 8.66256 | 348° | 5km/h | 23360m | 4.8m/s | -52.5°C | 1.1% | 34.7hPa | 2.6V | 03:37:46 | 01:38:13 | 00:00:00 | |
| HEMX73-11 | 2026-08-31 12:10:43 | 50.14208 | 8.66255 | 355° | 7km/h | 23369m | 4.8m/s | -52.4°C | 1.3% | 34.6hPa | 2.6V | 03:37:00 | 00:00:00 | 00:00:00 | |
| DL1XH1-15 | 2026-08-31 12:10:42 | 50.14203 | 8.66257 | 24° | 5km/h | 23337m | 5.8m/s | -52.6°C | 4.1% | 34.8hPa | 2.6V | 03:37:23 | 01:38:08 | 00:00:00 | |
| BIOWL1-15 | 2026-08-31 12:10:41 | 50.14204 | 8.66256 | 315° | 2km/h | 23354m | 5.5m/s | -52.5°C | 1.1% | 34.7hPa | 2.6V | 03:37:46 | 01:38:12 | 00:00:00 | |
| DL1XH-15 | 2026-08-31 12:10:41 | 50.14201 | 8.66256 | 24° | 11km/h | 23331m | 5.8m/s | -52.7°C | 4.2% | 34.9hPa | 2.6V | 03:37:24 | 01:38:07 | 00:00:00 | |
| HSKMA3-T | 2026-08-31 12:10:39 | 50.14204 | 8.66258 | 35° | 2km/h | 23342m | 3.8m/s | -52.6°C | 1% | 34.8hPa | 2.7V | 03:37:46 | 01:38:09 | 00:00:00 | |
| DF8AY | 2026-08-31 12:10:37 | 50.14182 | 8.66233 | 34° | 9km/h | 23296m | 5.7m/s | -52.5°C | 1% | 35hPa | 2.6V | 03:39:28 | 01:38:00 | 00:00:00 | |
| DL1XH-west | 2026-08-31 12:10:35 | 50.14198 | 8.66254 | 26° | 16km/h | 23326m | 4.9m/s | -52.7°C | 1% | 34.9hPa | 2.6V | 03:37:46 | 01:38:06 | 00:00:00 | |
| AA1-15 | 2026-08-31 12:10:33 | 50.14187 | 8.66242 | 44° | 15km/h | 23310m | 5.4m/s | -52.5°C | 1% | 35hPa | 2.7V | 03:37:46 | 01:38:03 | 00:00:00 | |
| DF8AY | 2026-08-31 12:10:31 | 50.14176 | 8.66230 | 28° | 5km/h | 23281m | 4.7m/s | -52.7°C | 1.1% | 35.1hPa | 2.7V | 03:39:28 | 01:37:57 | 00:00:00 | |
| BIOWL1-15 | 2026-08-31 12:10:31 | 50.14185 | 8.66239 | 49° | 11km/h | 23305m | 4.3m/s | -52.5°C | 1.1% | 35hPa | 2.6V | 03:37:46 | 01:38:02 | 00:00:00 | |
| DK7TD | 2026-08-31 12:10:30 | 50.14183 | 8.66236 | 45° | 9km/h | 23301m | 4.9m/s | -52.5°C | 1% | 35hPa | 2.6V | 03:37:46 | 01:38:01 | 00:00:00 | |
| HSKMA3-T | 2026-08-31 12:10:27 | 50.14178 | 8.66231 | 18° | 7km/h | 23285m | 4.4m/s | -52.7°C | 1.1% | 35.1hPa | 2.7V | 03:37:46 | 01:37:58 | 00:00:00 | |
| DL1XH-west | 2026-08-31 12:10:24 | 50.14174 | 8.66226 | 70° | 7km/h | 23270m | 4.6m/s | -52.6°C | 1% | 35.2hPa | 2.6V | 03:37:46 | 01:37:55 | 00:00:00 | |
| AA1-15 | 2026-08-31 12:10:22 | 50.14165 | 8.66218 | 9° | 16km/h | 23250m | 4.9m/s | -52.9°C | 1% | 35.3hPa | 2.7V | 03:37:46 | 01:37:51 | 00:00:00 | |
| HEMX73-11 | 2026-08-31 12:10:22 | 50.14173 | 8.66223 | 57° | 7km/h | 23266m | 4.1m/s | -52.7°C | 1.3% | 35.2hPa | 2.6V | 03:37:00 | 00:00:00 | 00:00:00 | |
| DL1XH1-15 | 2026-08-31 12:10:21 | 50.14154 | 8.66218 | 339° | 13km/h | 23235m | 4.6m/s | -52.9°C | 4.2% | 35.4hPa | 2.6V | 03:37:43 | 01:37:48 | 00:00:00 | |
| BIOWL1-15 | 2026-08-31 12:10:20 | 50.14161 | 8.66217 | 3° | 16km/h | 23245m | 5m/s | -52.8°C | 1.1% | 35.3hPa | 2.6V | 03:37:46 | 01:37:50 | 00:00:00 | |
| DK7TD | 2026-08-31 12:10:18 | 50.14157 | 8.66217 | 356° | 15km/h | 23239m | 5.4m/s | -52.8°C | 1% | 35.4hPa | 2.6V | 03:37:46 | 01:37:49 | 00:00:00 | |
| HSKMA3-T | 2026-08-31 12:10:16 | 50.14151 | 8.66221 | 319° | 13km/h | 23230m | 4.4m/s | -52.9°C | 1% | 35.4hPa | 2.7V | 03:37:46 | 01:37:47 | 00:00:00 | |
| DL1XH-west | 2026-08-31 12:10:14 | 50.14146 | 8.66230 | 300° | 18km/h | 23219m | 5.5m/s | -52.9°C | 1.1% | 35.5hPa | 2.7V | 03:37:46 | 01:37:45 | 00:00:00 | |
| DF8AY | 2026-08-31 12:10:12 | 50.14143 | 8.66241 | 294° | 13km/h | 23210m | 4.1m/s | -53°C | 1.1% | 35.5hPa | 2.6V | 03:39:28 | 01:37:43 | 00:00:00 | |
| AA1-15 | 2026-08-31 12:10:11 | 50.14142 | 8.66245 | 292° | 7km/h | 23205m | 6m/s | -53°C | 1.1% | 35.6hPa | 2.6V | 03:38:37 | 01:37:42 | 00:00:00 | |
| DL1XH1-15 | 2026-08-31 12:10:11 | 50.14137 | 8.66243 | 11° | 11km/h | 23184m | 5.4m/s | -53°C | 4.3% | 35.7hPa | 2.6V | 03:37:53 | 01:37:38 | 00:00:00 | |
| BIOWL1-15 | 2026-08-31 12:10:10 | 50.14141 | 8.66246 | 43° | 4km/h | 23194m | 4.7m/s | -53°C | 1.1% | 35.6hPa | 2.7V | 03:38:37 | 01:37:40 | 00:00:00 | |
| DM0DOS-11 | 2026-08-31 12:10:09 | 50.14141 | 8.66246 | 42° | 4km/h | 23194m | 4.7m/s | -53°C | 4.3% | 35.6hPa | 2.7V | 03:37:51 | 01:37:40 | 00:00:00 | |
| DK7TD | 2026-08-31 12:10:08 | 50.14139 | 8.66245 | 30° | 7km/h | 23189m | 5.3m/s | -53.1°C | 1.1% | 35.6hPa | 2.7V | 03:42:01 | 01:37:39 | 00:00:00 | |
| HSKMA3-T | 2026-08-31 12:10:06 | 50.14134 | 8.66243 | 358° | 15km/h | 23179m | 4.4m/s | -53°C | 1.1% | 35.7hPa | 2.6V | 03:38:37 | 01:37:37 | 00:00:00 | |
| DL1XH-west | 2026-08-31 12:10:04 | 50.14127 | 8.66246 | 334° | 15km/h | 23169m | 5.9m/s | -53.2°C | 1% | 35.7hPa | 2.7V | 03:38:37 | 01:37:35 | 00:00:00 | |
| DO9LL-15 | 2026-08-31 12:10:03 | 50.14124 | 8.66249 | 318° | 16km/h | 23164m | 5.3m/s | -53.0°C | 4.2% | 35.7hPa | 2.7V | 00:00:00 | 01:37:34 | 00:00:00 | |
| DL1XH-15 | 2026-08-31 12:10:02 | 50.14116 | 8.66265 | 306° | 20km/h | 23148m | 5.4m/s | -53.1°C | 4.2% | 35.9hPa | 2.6V | 03:38:00 | 01:37:31 | 00:00:00 | |
| AA1-15 | 2026-08-31 12:10:01 | 50.14113 | 8.66271 | 306° | 18km/h | 23143m | 4.4m/s | -53.1°C | 1% | 35.9hPa | 2.6V | 03:38:37 | 01:37:30 | 00:00:00 | |
| DB0UT-7 | 2026-08-31 12:10:01 | 50.14119 | 8.66258 | 306° | 13km/h | 23154m | 5.6m/s | -53.1°C | 4.2% | 35.8hPa | 2.6V | 00:00:00 | 00:00:00 | 00:00:00 | |
| BIOWL1-15 | 2026-08-31 12:10:01 | 50.14109 | 8.66279 | 303° | 9km/h | 23132m | 6m/s | -53.2°C | 1.1% | 35.9hPa | 2.7V | 03:38:37 | 01:37:28 | 00:00:00 | |
| DL1XH1-15 | 2026-08-31 12:10:00 | 50.14109 | 8.66279 | 302° | 9km/h | 23132m | 6m/s | -53.2°C | 4.3% | 35.9hPa | 2.7V | 03:38:03 | 01:37:28 | 00:00:00 | |
| DK7TD | 2026-08-31 12:09:58 | 50.14111 | 8.66276 | 305° | 15km/h | 23138m | 5m/s | -53.2°C | 1% | 35.9hPa | 2.7V | 03:42:01 | 01:37:29 | 00:00:00 | |
| HSKMA3-T | 2026-08-31 12:09:55 | 50.14107 | 8.66282 | 348° | 4km/h | 23122m | 4.5m/s | -53.2°C | 1.1% | 36hPa | 2.6V | 03:38:37 | 01:37:26 | 00:00:00 | |
| DL1XH-west | 2026-08-31 12:09:53 | 50.14103 | 8.66283 | 348° | 11km/h | 23112m | 5.4m/s | -53.3°C | 1.1% | 36.1hPa | 2.6V | 03:38:37 | 01:37:24 | 00:00:00 | |
| AA1-15 | 2026-08-31 12:09:49 | 50.14091 | 8.66297 | 307° | 18km/h | 23091m | 4.3m/s | -53.4°C | 1.1% | 36.2hPa | 2.6V | 03:38:37 | 01:37:20 | 00:00:00 | |
| BIOWL1-15 | 2026-08-31 12:09:49 | 50.14081 | 8.66317 | 309° | 22km/h | 23076m | 5.1m/s | -53.4°C | 1.1% | 36.3hPa | 2.7V | 03:38:37 | 01:37:17 | 00:00:00 | |
| DK7TD | 2026-08-31 12:09:47 | 50.14084 | 8.66310 | 307° | 22km/h | 23082m | 5.8m/s | -53.4°C | 1.1% | 36.3hPa | 2.6V | 03:42:01 | 01:37:18 | 00:00:00 | |
| HSKMA3-T | 2026-08-31 12:09:44 | 50.14075 | 8.66329 | 303° | 15km/h | 23066m | 6.2m/s | -53.5°C | 1.1% | 36.4hPa | 2.7V | 03:38:37 | 01:37:15 | 00:00:00 | |
| DL1XH-west | 2026-08-31 12:09:43 | 50.14074 | 8.66333 | 293° | 11km/h | 23060m | 5.8m/s | -53.4°C | 1.1% | 36.4hPa | 2.6V | 03:38:37 | 01:37:14 | 00:00:00 | |
| BUE01 | 2026-08-31 12:09:43 | 50.14073 | 8.66336 | 288° | 5km/h | 23055m | 4.4m/s | -53.4°C | 1.3% | 36.4hPa | 2.6V | 00:00:00 | 00:00:00 | 00:00:00 | |
| DL1XH1-15 | 2026-08-31 12:09:42 | 50.14064 | 8.66346 | 311° | 9km/h | 23024m | 5.5m/s | -53.5°C | 4.4% | 36.6hPa | 2.6V | 03:38:24 | 01:37:07 | 00:00:00 | |
| AA1-15 | 2026-08-31 12:09:39 | 50.14064 | 8.66346 | 312° | 9km/h | 23024m | 5.5m/s | -53.5°C | 1.2% | 36.6hPa | 2.6V | 03:38:37 | 01:37:07 | 00:00:00 | |
| DF8AY | 2026-08-31 12:09:36 | 50.14063 | 8.66349 | 306° | 11km/h | 23019m | 4.9m/s | -53.6°C | 1.2% | 36.6hPa | 2.6V | 03:39:28 | 01:37:06 | 00:00:00 | |
| HSKMA3-T | 2026-08-31 12:09:34 | 50.14061 | 8.66352 | 311° | 13km/h | 23014m | 5.1m/s | -53.5°C | 1.2% | 36.6hPa | 2.7V | 03:38:37 | 01:37:05 | 00:00:00 | |
| DL1XH-west | 2026-08-31 12:09:33 | 50.14058 | 8.66357 | 317° | 16km/h | 23008m | 6.4m/s | -53.5°C | 1.2% | 36.7hPa | 2.7V | 03:38:37 | 01:37:04 | 00:00:00 | |
| DK7TD | 2026-08-31 12:09:32 | 50.14055 | 8.66361 | 321° | 20km/h | 23002m | 5.2m/s | -53.5°C | 1.2% | 36.7hPa | 2.7V | 03:42:01 | 01:37:03 | 00:00:00 | |
| AA1-15 | 2026-08-31 12:09:28 | 50.14041 | 8.66388 | 299° | 18km/h | 22978m | 5.1m/s | -53.5°C | 1.2% | 36.8hPa | 2.7V | 03:38:37 | 01:36:58 | 00:00:00 | |
| BIOWL1-15 | 2026-08-31 12:09:24 | 50.14030 | 8.66425 | 306° | 9km/h | 22940m | 6.2m/s | -53.4°C | 1.1% | 37hPa | 2.7V | 03:39:28 | 01:36:51 | 00:00:00 | |
| DF8AY | 2026-08-31 12:09:24 | 50.14034 | 8.66406 | 293° | 16km/h | 22962m | 4.8m/s | -53.4°C | 1.2% | 36.9hPa | 2.6V | 03:39:28 | 01:36:55 | 00:00:00 | |
| DL1XH-west | 2026-08-31 12:09:23 | 50.14033 | 8.66412 | 285° | 15km/h | 22957m | 6.2m/s | -53.4°C | 1.1% | 37hPa | 2.6V | 03:38:37 | 01:36:54 | 00:00:00 | |
| DO1YAY-16 | 2026-08-31 12:09:22 | 50.14032 | 8.66417 | 278° | 11km/h | 22951m | 5.3m/s | -53.3°C | 1.3% | 37.0hPa | 2.6V | 00:00:00 | 00:00:00 | 00:00:00 | |
| DM0DOS-11 | 2026-08-31 12:09:21 | 50.14029 | 8.66427 | 325° | 11km/h | 22935m | 5.2m/s | -53.2°C | 4.4% | 37.1hPa | 2.6V | 03:38:41 | 01:36:50 | 00:00:00 | |
| AA1-15 | 2026-08-31 12:09:18 | 50.14022 | 8.66433 | 320° | 7km/h | 22920m | 6m/s | -53.1°C | 1% | 37.2hPa | 2.7V | 03:39:28 | 01:36:47 | 00:00:00 | |
| DF8AY | 2026-08-31 12:09:16 | 50.14020 | 8.66438 | 308° | 9km/h | 22910m | 4.8m/s | -53.1°C | 1.1% | 37.2hPa | 2.7V | 03:39:28 | 01:36:45 | 00:00:00 | |
| HSKMA3-T | 2026-08-31 12:09:13 | 50.14018 | 8.66440 | 313° | 9km/h | 22905m | 6.2m/s | -53.2°C | 1.1% | 37.3hPa | 2.6V | 03:39:28 | 01:36:44 | 00:00:00 | |
| BIOWL1-15 | 2026-08-31 12:09:13 | 50.14014 | 8.66446 | 314° | 9km/h | 22894m | 5m/s | -53.1°C | 1.2% | 37.3hPa | 2.6V | 03:39:28 | 01:36:42 | 00:00:00 | |
| DK7TD | 2026-08-31 12:09:12 | 50.14016 | 8.66443 | 316° | 11km/h | 22899m | 5.3m/s | -53.2°C | 1.1% | 37.3hPa | 2.6V | 03:42:01 | 01:36:43 | 00:00:00 | |
| DM0DOS-11 | 2026-08-31 12:09:10 | 50.14013 | 8.66451 | 285° | 4km/h | 22882m | 5.6m/s | -53.1°C | 4.4% | 37.4hPa | 2.7V | 03:38:51 | 01:36:40 | 00:00:00 | |
| AA1-15 | 2026-08-31 12:09:07 | 50.14009 | 8.66450 | 23° | 11km/h | 22861m | 5.3m/s | -53.1°C | 1% | 37.5hPa | 2.6V | 03:39:28 | 01:36:36 | 00:00:00 | |
| DL1XH-15 | 2026-08-31 12:09:06 | 50.14009 | 8.66450 | 22° | 11km/h | 22861m | 5.3m/s | -53.1°C | 4.2% | 37.5hPa | 2.6V | 03:38:55 | 01:36:36 | 00:00:00 | |
| DF8AY | 2026-08-31 12:09:04 | 50.13998 | 8.66442 | 359° | 7km/h | 22828m | 5.8m/s | -53°C | 1.1% | 37.7hPa | 2.6V | 03:39:28 | 01:36:30 | 00:00:00 | |
| DK7TD | 2026-08-31 12:09:02 | 50.14002 | 8.66444 | 40° | 7km/h | 22844m | 5.8m/s | -53.1°C | 1.1% | 37.6hPa | 2.7V | 03:42:01 | 01:36:33 | 00:00:00 | |
| DC4HF-4 | 2026-08-31 12:09:02 | 50.14002 | 8.66444 | 39° | 5km/h | 22844m | 5.8m/s | -53.1°C | 1.3% | 37.6hPa | 2.7V | 00:00:00 | 00:00:00 | 00:00:00 | |
| DL1XH1-15 | 2026-08-31 12:09:01 | 50.13995 | 8.66443 | 5° | 0km/h | 22812m | 5.9m/s | -53.1°C | 4.3% | 37.8hPa | 2.7V | 03:39:04 | 01:36:27 | 00:00:00 | |
| DL1XH-west | 2026-08-31 12:09:01 | 50.14001 | 8.66443 | 34° | 5km/h | 22839m | 5.1m/s | -53.1°C | 1.1% | 37.6hPa | 2.6V | 03:39:28 | 01:36:32 | 00:00:00 | |
| DM0DOS-11 | 2026-08-31 12:09:00 | 50.13998 | 8.66442 | 358° | 7km/h | 22828m | 5.8m/s | -53°C | 4.3% | 37.7hPa | 2.6V | 03:39:01 | 01:36:30 | 00:00:00 | |
| BIOWL1-15 | 2026-08-31 12:09:00 | 50.14000 | 8.66442 | 13° | 5km/h | 22833m | 5.6m/s | -53.1°C | 1.1% | 37.7hPa | 2.6V | 03:39:28 | 01:36:31 | 00:00:00 | |
| AA1-15 | 2026-08-31 12:08:57 | 50.13995 | 8.66442 | 345° | 4km/h | 22818m | 5m/s | -53°C | 1.1% | 37.7hPa | 2.7V | 03:39:28 | 01:36:28 | 00:00:00 | |
| BIOWL1-15 | 2026-08-31 12:08:51 | 50.13984 | 8.66416 | 58° | 22km/h | 22774m | 6.3m/s | -53.2°C | 1.1% | 38hPa | 2.6V | 03:39:28 | 01:36:20 | 00:00:00 | |
| DL1XH-west | 2026-08-31 12:08:51 | 50.13990 | 8.66429 | 51° | 18km/h | 22785m | 4.7m/s | -53.2°C | 1.1% | 37.9hPa | 2.7V | 03:39:28 | 01:36:22 | 00:00:00 | |
| DF8AY | 2026-08-31 12:08:49 | 50.13978 | 8.66402 | 52° | 20km/h | 22764m | 4.7m/s | -53.4°C | 1.1% | 38.1hPa | 2.6V | 03:39:28 | 01:36:18 | 00:00:00 | |
| DL1XH1-15 | 2026-08-31 12:08:48 | 50.13975 | 8.66397 | 40° | 18km/h | 22758m | 6.3m/s | -53.4°C | 4.3% | 38.1hPa | 2.7V | 03:39:14 | 01:36:17 | 00:00:00 | |
| AA1-15 | 2026-08-31 12:08:47 | 50.13975 | 8.66397 | 40° | 18km/h | 22758m | 6.3m/s | -53.4°C | 1.1% | 38.1hPa | 2.7V | 03:39:28 | 01:36:17 | 00:00:00 | |
| DK7TD | 2026-08-31 12:08:45 | 50.13971 | 8.66393 | 27° | 16km/h | 22752m | 5.8m/s | -53.4°C | 1.1% | 38.1hPa | 2.7V | 03:42:01 | 01:36:16 | 00:00:00 | |
| DF2AP-13 | 2026-08-31 12:08:45 | 50.13971 | 8.66393 | 27° | 15km/h | 22752m | 5.7m/s | -53.3°C | 4.3% | 38.1hPa | 2.6V | 00:00:00 | 01:36:16 | 00:00:00 | |
| DL1XH-15 | 2026-08-31 12:08:42 | 50.13961 | 8.66389 | 34° | 5km/h | 22730m | 5m/s | -53.2°C | 4.3% | 38.3hPa | 2.6V | 03:39:19 | 01:36:12 | 00:00:00 | |
| BIOWL1-15 | 2026-08-31 12:08:41 | 50.13954 | 8.66370 | 72° | 18km/h | 22705m | 5.2m/s | -53.2°C | 1.1% | 38.4hPa | 2.6V | 03:39:28 | 01:36:07 | 00:00:00 | |
| DM0DOS-11 | 2026-08-31 12:08:40 | 50.13959 | 8.66385 | 55° | 9km/h | 22719m | 6.2m/s | -53.1°C | 4.3% | 38.3hPa | 2.7V | 03:39:21 | 01:36:10 | 00:00:00 | |
| DL1XH-west | 2026-08-31 12:08:40 | 50.13960 | 8.66387 | 54° | 5km/h | 22725m | 4.9m/s | -53.1°C | 1.1% | 38.3hPa | 2.7V | 03:39:28 | 01:36:11 | 00:00:00 | |
| DJ8HS-15 | 2026-08-31 12:08:39 | 50.13959 | 8.66384 | 56° | 15km/h | 22720m | 6.1m/s | -53.1°C | 4.3% | 38.3hPa | 2.7V | 00:00:00 | 01:36:10 | 00:00:00 | |
| DL1XH1-15 | 2026-08-31 12:08:38 | 50.13954 | 8.66370 | 72° | 18km/h | 22705m | 5.2m/s | -53.2°C | 4.3% | 38.4hPa | 2.6V | 03:39:24 | 01:36:07 | 00:00:00 | |
| AA1-15 | 2026-08-31 12:08:35 | 50.13953 | 8.66363 | 81° | 18km/h | 22699m | 6m/s | -53.2°C | 1.1% | 38.5hPa | 2.6V | 03:39:28 | 01:36:06 | 00:00:00 | |
| DF8AY | 2026-08-31 12:08:34 | 50.13952 | 8.66356 | 86° | 16km/h | 22693m | 5.1m/s | -53.2°C | 1.1% | 38.5hPa | 2.7V | 03:39:28 | 01:36:05 | 00:00:00 | |
| DL9PN | 2026-08-31 12:08:33 | 50.13951 | 8.66345 | 65° | 11km/h | 22684m | 5.2m/s | -53.2°C | 1.3% | 38.5hPa | 2.7V | 00:00:00 | 00:00:00 | 00:00:00 | |
| SONCRA | 2026-08-31 12:08:32 | 50.13949 | 8.66341 | 38° | 11km/h | 22678m | 6.4m/s | -53.2°C | 1.3% | 38.6hPa | 2.7V | 00:00:00 | 00:00:00 | 00:00:00 | |
| DL1XH1-15 | 2026-08-31 12:08:31 | 50.13935 | 8.66337 | 46° | 7km/h | 22652m | 5.5m/s | -53.2°C | 4.3% | 38.7hPa | 2.7V | 03:39:34 | 01:35:57 | 00:00:00 | |
| DL1XH-west | 2026-08-31 12:08:30 | 50.13947 | 8.66339 | 12° | 13km/h | 22672m | 4.9m/s | -53.1°C | 1.1% | 38.6hPa | 2.6V | 03:40:19 | 01:36:01 | 00:00:00 | |
| BIOWL1-15 | 2026-08-31 12:08:28 | 50.13940 | 8.66339 | 359° | 13km/h | 22663m | 5.2m/s | -53.2°C | 1.2% | 38.7hPa | 2.7V | 03:40:19 | 01:35:59 | 00:00:00 | |
| AA1-15 | 2026-08-31 12:08:25 | 50.13934 | 8.66334 | 69° | 13km/h | 22647m | 4.8m/s | -53.2°C | 1.1% | 38.8hPa | 2.6V | 03:40:19 | 01:35:56 | 00:00:00 | |
| DF8AY | 2026-08-31 12:08:23 | 50.13931 | 8.66321 | 66° | 22km/h | 22637m | 5.5m/s | -53.2°C | 1.1% | 38.8hPa | 2.6V | 03:40:19 | 01:35:54 | 00:00:00 | |
| DO9LL-15 | 2026-08-31 12:08:22 | 50.13928 | 8.66313 | 60° | 20km/h | 22632m | 5.2m/s | -53.1°C | 4.3% | 38.8hPa | 2.7V | 03:39:00 | 01:35:53 | 00:00:00 | |
| DL8DAS-15 | 2026-08-31 12:08:21 | 50.13928 | 8.66313 | 60° | 24km/h | 22632m | 5.2m/s | -53.1°C | 1.4% | 38.9hPa | 2.6V | 00:00:00 | 00:00:00 | 00:00:00 | |
| DM0DOS-11 | 2026-08-31 12:08:20 | 50.13918 | 8.66290 | 54° | 22km/h | 22617m | 5.3m/s | -53.3°C | 4.3% | 39hPa | 2.6V | 03:39:41 | 01:35:50 | 00:00:00 | |
| DL1XH-west | 2026-08-31 12:08:20 | 50.13921 | 8.66298 | 52° | 24km/h | 22622m | 4.5m/s | -53.2°C | 1.1% | 38.9hPa | 2.7V | 03:40:19 | 01:35:51 | 00:00:00 | |
| HSKMA3-T | 2026-08-31 12:08:20 | 50.13918 | 8.66290 | 55° | 22km/h | 22617m | 5.3m/s | -53.3°C | 1.1% | 39hPa | 2.6V | 03:40:19 | 01:35:50 | 00:00:00 | |
| BIOWL1-15 | 2026-08-31 12:08:17 | 50.13913 | 8.66277 | 61° | 16km/h | 22606m | 5.2m/s | -53.3°C | 1.1% | 39hPa | 2.6V | 03:40:19 | 01:35:48 | 00:00:00 | |
| DL1XH-15 | 2026-08-31 12:08:16 | 50.13910 | 8.66272 | 56° | 16km/h | 22601m | 4.7m/s | -53.3°C | 4.3% | 39hPa | 2.7V | 03:39:44 | 01:35:47 | 00:00:00 | |
| AA1-15 | 2026-08-31 12:08:14 | 50.13904 | 8.66262 | 37° | 20km/h | 22591m | 6.1m/s | -53.4°C | 1.1% | 39.1hPa | 2.7V | 03:40:19 | 01:35:45 | 00:00:00 | |
| DF8AY | 2026-08-31 12:08:13 | 50.13900 | 8.66257 | 31° | 22km/h | 22585m | 5m/s | -53.3°C | 1.1% | 39.1hPa | 2.6V | 03:40:19 | 01:35:44 | 00:00:00 | |
| DL1XH-west | 2026-08-31 12:08:09 | 50.13883 | 8.66238 | 49° | 18km/h | 22564m | 4.7m/s | -53.4°C | 1.1% | 39.3hPa | 2.7V | 03:40:19 | 01:35:40 | 00:00:00 | |
| HSKMA3-T | 2026-08-31 12:08:09 | 50.13880 | 8.66233 | 52° | 20km/h | 22559m | 5.4m/s | -53.4°C | 1.1% | 39.3hPa | 2.7V | 03:40:19 | 01:35:39 | 00:00:00 | |
| DL1XH1-15 | 2026-08-31 12:08:08 | 50.13873 | 8.66219 | 53° | 24km/h | 22548m | 5m/s | -53.4°C | 4.4% | 39.4hPa | 2.6V | 03:39:54 | 01:35:37 | 00:00:00 | |
| BIOWL1-15 | 2026-08-31 12:08:06 | 50.13870 | 8.66212 | 55° | 22km/h | 22543m | 4.8m/s | -53.4°C | 1.1% | 39.4hPa | 2.6V | 03:40:19 | 01:35:36 | 00:00:00 | |
| DK7TD | 2026-08-31 12:08:06 | 50.13873 | 8.66219 | 53° | 24km/h | 22548m | 5m/s | -53.4°C | 1.2% | 39.4hPa | 2.6V | 03:42:01 | 01:35:37 | 00:00:00 | |
| DL1ZP-14 | 2026-08-31 12:08:05 | 50.13867 | 8.66205 | 58° | 20km/h | 22537m | 6.1m/s | -53.5°C | 1.4% | 39.5hPa | 2.7V | 00:00:00 | 00:00:00 | 00:00:00 | |
| DM0DOS-11 | 2026-08-31 12:08:04 | 50.13848 | 8.66175 | 31° | 20km/h | 22506m | 4.7m/s | -53.4°C | 4.4% | 39.6hPa | 2.7V | 03:40:02 | 01:35:29 | 00:00:00 | |
| AA1-15 | 2026-08-31 12:08:03 | 50.13856 | 8.66184 | 37° | 18km/h | 22516m | 5.9m/s | -53.3°C | 1.1% | 39.6hPa | 2.6V | 03:40:19 | 01:35:31 | 00:00:00 | |
| DF8AY | 2026-08-31 12:08:02 | 50.13862 | 8.66193 | 53° | 16km/h | 22527m | 4.6m/s | -53.4°C | 1.1% | 39.5hPa | 2.7V | 03:40:19 | 01:35:33 | 00:00:00 | |
| DD1CC8 | 2026-08-31 12:08:02 | 50.13862 | 8.66193 | 52° | 15km/h | 22527m | 4.6m/s | -53.4°C | 1.4% | 39.5hPa | 2.7V | 00:00:00 | 00:00:00 | 00:00:00 | |
| SONCRA | 2026-08-31 12:08:01 | 50.13856 | 8.66184 | 36° | 16km/h | 22516m | 5.9m/s | -53.3°C | 1.4% | 39.6hPa | 2.7V | 00:00:00 | 00:00:00 | 00:00:00 | |
| DJ8HS-15 | 2026-08-31 12:07:59 | 50.13852 | 8.66179 | 33° | 16km/h | 22511m | 5.1m/s | -53.3°C | 4.4% | 39.6hPa | 2.7V | 00:00:00 | 01:35:30 | 00:00:00 | |
| DL1XH1-15 | 2026-08-31 12:07:58 | 50.13840 | 8.66168 | 30° | 15km/h | 22495m | 5.8m/s | -53.3°C | 4.4% | 39.7hPa | 2.7V | 03:40:04 | 01:35:27 | 00:00:00 | |
| HSKMA3-T | 2026-08-31 12:07:58 | 50.13848 | 8.66175 | 31° | 20km/h | 22506m | 4.7m/s | -53.4°C | 1.1% | 39.6hPa | 2.7V | 03:40:19 | 01:35:29 | 00:00:00 | |
| BIOWL1-15 | 2026-08-31 12:07:55 | 50.13834 | 8.66162 | 32° | 15km/h | 22485m | 4m/s | -53.4°C | 1.1% | 39.8hPa | 2.6V | 03:40:19 | 01:35:25 | 00:00:00 | |
| DD8BA-10 | 2026-08-31 12:07:55 | 50.13837 | 8.66165 | 30° | 15km/h | 22490m | 4.1m/s | 0°C | 0% | 0hPa | 2.6V | 00:00:00 | 00:00:00 | 00:00:00 | |
| DL4BBY-15 | 2026-08-31 12:07:54 | 50.13834 | 8.66162 | 32° | 18km/h | 22486m | 3.9m/s | -52.7°C | 0% | 0hPa | 2.6V | 00:00:00 | 00:00:00 | 00:00:00 | |
| DM0DOS-11 | 2026-08-31 12:07:53 | 50.13815 | 8.66142 | 35° | 16km/h | 22460m | 5.1m/s | -53.4°C | 4.3% | 39.9hPa | 2.6V | 03:40:11 | 01:35:20 | 00:00:00 | |
| DB0NH | 2026-08-31 12:07:53 | 50.13830 | 8.66159 | 34° | 20km/h | 22481m | 5.6m/s | -53.3°C | 4.3% | 39.8hPa | 2.6V | 03:40:00 | 01:35:24 | 00:00:00 | |
| DO9LL-15 | 2026-08-31 12:07:52 | 50.13827 | 8.66155 | 35° | 20km/h | 22475m | 5.7m/s | -53.3°C | 4.2% | 39.8hPa | 2.7V | 00:00:00 | 01:35:23 | 00:00:00 | |
| DL1XH1-15 | 2026-08-31 12:07:51 | 50.13807 | 8.66136 | 9° | 9km/h | 22444m | 4.6m/s | -53.4°C | 4.3% | 40hPa | 2.7V | 03:40:14 | 01:35:17 | 00:00:00 | |
| DF8AY | 2026-08-31 12:07:50 | 50.13819 | 8.66146 | 34° | 20km/h | 22465m | 4.1m/s | -53.4°C | 1.1% | 39.9hPa | 2.7V | 03:40:19 | 01:35:21 | 00:00:00 | |
| DK7TD | 2026-08-31 12:07:49 | 50.13815 | 8.66142 | 35° | 16km/h | 22460m | 5.1m/s | -53.4°C | 1.1% | 39.9hPa | 2.6V | 03:42:01 | 01:35:20 | 00:00:00 | |
| DL1XH-west | 2026-08-31 12:07:48 | 50.13812 | 8.66139 | 34° | 13km/h | 22455m | 5.7m/s | -53.4°C | 1.1% | 40hPa | 2.6V | 03:40:19 | 01:35:19 | 00:00:00 | |
| HSKMA3-T | 2026-08-31 12:07:48 | 50.13809 | 8.66137 | 26° | 9km/h | 22449m | 5.5m/s | -53.4°C | 1.1% | 40hPa | 2.6V | 03:40:19 | 01:35:18 | 00:00:00 | |
| BIOWL1-15 | 2026-08-31 12:07:47 | 50.13805 | 8.66135 | 2° | 11km/h | 22440m | 4.3m/s | -53.4°C | 1.1% | 40.1hPa | 2.7V | 03:40:19 | 01:35:16 | 00:00:00 | |
| DF7PN | 2026-08-31 12:07:46 | 50.13807 | 8.66136 | 9° | 7km/h | 22445m | 4.6m/s | -53.4°C | 1.3% | 40.0hPa | 2.7V | 00:00:00 | 00:00:00 | 00:00:00 | |
| DF8AY | 2026-08-31 12:07:40 | 50.13774 | 8.66139 | 345° | 24km/h | 22406m | 4.7m/s | -53.4°C | 1.2% | 40.2hPa | 2.7V | 03:41:10 | 01:35:10 | 00:00:00 | |
| DJ8HS-15 | 2026-08-31 12:07:39 | 50.13774 | 8.66139 | 346° | 20km/h | 22407m | 4.7m/s | -53.3°C | 4.4% | 40.2hPa | 2.7V | 03:40:00 | 01:35:10 | 00:00:00 | |
| DL1XH1-15 | 2026-08-31 12:07:38 | 50.13757 | 8.66144 | 352° | 20km/h | 22391m | 5m/s | -53.4°C | 4.3% | 40.4hPa | 2.6V | 03:40:24 | 01:35:07 | 00:00:00 | |
| DK7TD | 2026-08-31 12:07:38 | 50.13768 | 8.66142 | 348° | 24km/h | 22402m | 4.6m/s | -53.4°C | 1.1% | 40.3hPa | 2.7V | 03:42:01 | 01:35:09 | 00:00:00 | |
| DL1XH-west | 2026-08-31 12:07:37 | 50.13762 | 8.66143 | 352° | 22km/h | 22397m | 5.8m/s | -53.4°C | 1.2% | 40.3hPa | 2.6V | 03:41:10 | 01:35:08 | 00:00:00 | |
| BIOWL1-15 | 2026-08-31 12:07:35 | 50.13752 | 8.66146 | 346° | 18km/h | 22386m | 4.8m/s | -53.5°C | 1.1% | 40.4hPa | 2.6V | 03:41:10 | 01:35:06 | 00:00:00 | |
| DL1ZP-14 | 2026-08-31 12:07:34 | 50.13745 | 8.66151 | 317° | 15km/h | 22375m | 5.5m/s | -53.4°C | 1.3% | 40.5hPa | 2.7V | 00:00:00 | 00:00:00 | 00:00:00 | |
| DM0DOS-11 | 2026-08-31 12:07:30 | 50.13731 | 8.66172 | 326° | 24km/h | 22355m | 5.1m/s | -53.6°C | 4.5% | 40.6hPa | 2.6V | 03:40:31 | 01:35:00 | 00:00:00 | |
| DF8AY | 2026-08-31 12:07:29 | 50.13726 | 8.66177 | 328° | 26km/h | 22350m | 4.5m/s | -53.5°C | 1.2% | 0hPa | 2.7V | 03:41:10 | 01:34:59 | 00:00:00 | |
| AA1-15 | 2026-08-31 12:07:28 | 50.13721 | 8.66182 | 325° | 26km/h | 22345m | 5.1m/s | -53.5°C | 1.2% | 40.6hPa | 2.7V | 03:41:10 | 01:34:58 | 00:00:00 | |
| HSKMA3-T | 2026-08-31 12:07:26 | 50.13716 | 8.66188 | 321° | 24km/h | 22340m | 5.7m/s | -53.5°C | 1.3% | 40.7hPa | 2.7V | 03:41:10 | 01:34:57 | 00:00:00 | |
| BIOWL1-15 | 2026-08-31 12:07:24 | 50.13707 | 8.66199 | 323° | 22km/h | 22331m | 4.4m/s | -53.5°C | 1.2% | 40.7hPa | 2.6V | 03:41:10 | 01:34:55 | 00:00:00 | |
| DF8AY | 2026-08-31 12:07:18 | 50.13680 | 8.66220 | 317° | 18km/h | 22299m | 5.5m/s | -53.5°C | 1.1% | 0hPa | 2.6V | 03:41:10 | 01:34:49 | 00:00:00 | |
| AA1-15 | 2026-08-31 12:07:17 | 50.13675 | 8.66229 | 311° | 13km/h | 22289m | 6.3m/s | -53.6°C | 1.1% | 41hPa | 2.7V | 03:41:10 | 01:34:47 | 00:00:00 | |
| DL1XH1-15 | 2026-08-31 12:07:17 | 50.13675 | 8.66229 | 311° | 13km/h | 22289m | 6.2m/s | -53.6°C | 4.3% | 41hPa | 2.7V | 03:40:44 | 01:34:47 | 00:00:00 | |
| HSKMA3-T | 2026-08-31 12:07:16 | 50.13673 | 8.66232 | 315° | 11km/h | 22283m | 5.6m/s | -53.6°C | 1.1% | 41.1hPa | 2.7V | 03:41:10 | 01:34:46 | 00:00:00 | |
| BIOWL1-15 | 2026-08-31 12:07:14 | 50.13666 | 8.66247 | 301° | 13km/h | 22262m | 4.1m/s | -53.4°C | 1.2% | 41.2hPa | 2.6V | 03:41:10 | 01:34:42 | 00:00:00 | |
| CB1BUN | 2026-08-31 12:07:13 | 50.13671 | 8.66235 | 310° | 9km/h | 22278m | 4.4m/s | -53.6°C | 1.3% | 41.1hPa | 2.6V | 03:41:00 | 00:00:00 | 00:00:00 | |
| DL1XH1-15 | 2026-08-31 12:07:11 | 50.13647 | 8.66262 | 331° | 15km/h | 22234m | 5.5m/s | -53.4°C | 4.4% | 41.4hPa | 2.6V | 03:40:55 | 01:34:36 | 00:00:00 | |
| DF8AY | 2026-08-31 12:07:07 | 50.13655 | 8.66258 | 349° | 15km/h | 22243m | 4m/s | -53.5°C | 1.2% | 0hPa | 2.6V | 03:41:10 | 01:34:38 | 00:00:00 | |
| AA1-15 | 2026-08-31 12:07:06 | 50.13648 | 8.66262 | 332° | 16km/h | 22234m | 5.5m/s | -53.4°C | 1.2% | 41.4hPa | 2.6V | 03:41:10 | 01:34:36 | 00:00:00 | |
| DK7TD | 2026-08-31 12:07:06 | 50.13651 | 8.66259 | 345° | 16km/h | 22239m | 4.6m/s | -53.4°C | 1.2% | 41.3hPa | 2.6V | 03:42:01 | 01:34:37 | 00:00:00 | |
| HSKMA3-T | 2026-08-31 12:07:06 | 50.13642 | 8.66270 | 309° | 16km/h | 22223m | 5.4m/s | -53.3°C | 1.1% | 41.5hPa | 2.7V | 03:41:10 | 01:34:34 | 00:00:00 | |
| DL1XH-west | 2026-08-31 12:07:05 | 50.13644 | 8.66265 | 317° | 16km/h | 22228m | 5.6m/s | -53.4°C | 1.2% | 41.4hPa | 2.7V | 03:41:10 | 01:34:35 | 00:00:00 | |
| BIOWL1-15 | 2026-08-31 12:07:03 | 50.13633 | 8.66283 | 328° | 13km/h | 22207m | 5m/s | -53.5°C | 1.1% | 41.6hPa | 2.6V | 03:41:10 | 01:34:31 | 00:00:00 | |
| DF8AY | 2026-08-31 12:06:56 | 50.13625 | 8.66296 | 292° | 7km/h | 22181m | 5.6m/s | -53.3°C | 1.2% | 0hPa | 2.6V | 03:41:10 | 01:34:26 | 00:00:00 | |
| HSKMA3-T | 2026-08-31 12:06:54 | 50.13623 | 8.66302 | 296° | 9km/h | 22170m | 4.2m/s | -53.1°C | 1.1% | 41.8hPa | 2.6V | 03:41:10 | 01:34:24 | 00:00:00 | |
| DL1XH-west | 2026-08-31 12:06:54 | 50.13624 | 8.66298 | 301° | 9km/h | 22175m | 5.7m/s | -53.1°C | 1.1% | 41.8hPa | 2.6V | 03:41:10 | 01:34:25 | 00:00:00 | |
| DL3AQ-11 | 2026-08-31 12:06:54 | 50.13623 | 8.66302 | 296° | 9km/h | 22170m | 4.2m/s | -53.1°C | 1.4% | 41.8hPa | 2.7V | 00:00:00 | 00:00:00 | 00:00:00 | |
| DB0NH | 2026-08-31 12:06:53 | 50.13623 | 8.66301 | 297° | 11km/h | 22170m | 4.2m/s | -53.1°C | 4.3% | 41.7hPa | 2.7V | 00:00:00 | 01:34:24 | 00:00:00 | |
| DO9LL-15 | 2026-08-31 12:06:52 | 50.13622 | 8.66306 | 287° | 11km/h | 22166m | 4.4m/s | -53.1°C | 4.3% | 41.8hPa | 2.7V | 00:00:00 | 01:34:23 | 00:00:00 | |
| DL1XH-15 | 2026-08-31 12:06:51 | 50.13619 | 8.66337 | 305° | 11km/h | 22134m | 4.8m/s | -53.1°C | 4.4% | 42hPa | 2.7V | 03:41:14 | 01:34:17 | 00:00:00 | |
| BIOWL1-15 | 2026-08-31 12:06:49 | 50.13616 | 8.66354 | 273° | 9km/h | 22109m | 4.9m/s | -52.9°C | 1.1% | 42.2hPa | 2.6V | 03:42:01 | 01:34:12 | 00:00:00 | |
| DK7TD | 2026-08-31 12:06:45 | 50.13617 | 8.66340 | 304° | 9km/h | 22129m | 5.1m/s | -53.1°C | 1.1% | 42hPa | 2.7V | 03:42:01 | 01:34:16 | 00:00:00 | |
| DF8AY | 2026-08-31 12:06:44 | 50.13616 | 8.66347 | 273° | 9km/h | 22118m | 5m/s | -52.9°C | 1.1% | 0hPa | 2.6V | 03:42:01 | 01:34:14 | 00:00:00 | |
| DL1XH-west | 2026-08-31 12:06:44 | 50.13616 | 8.66344 | 291° | 9km/h | 22124m | 5.7m/s | -52.9°C | 1.1% | 42.1hPa | 2.7V | 03:42:01 | 01:34:15 | 00:00:00 | |
| HSKMA3-T | 2026-08-31 12:06:44 | 50.13616 | 8.66350 | 268° | 9km/h | 22114m | 4.3m/s | -52.9°C | 1.1% | 42.1hPa | 2.6V | 03:42:01 | 01:34:13 | 00:00:00 | |
| DF7PN | 2026-08-31 12:06:44 | 50.13616 | 8.66347 | 272° | 7km/h | 22118m | 5.0m/s | -52.9°C | 1.4% | 42.1hPa | 2.7V | 00:00:00 | 00:00:00 | 00:00:00 | |
| DM0DOS-11 | 2026-08-31 12:06:40 | 50.13615 | 8.66362 | 286° | 13km/h | 22098m | 4.9m/s | -52.8°C | 4.2% | 42.2hPa | 2.7V | 03:41:21 | 01:34:10 | 00:00:00 | |
| DL1XH1-15 | 2026-08-31 12:06:40 | 50.13614 | 8.66378 | 260° | 16km/h | 22082m | 5.4m/s | -52.9°C | 4.2% | 42.3hPa | 2.6V | 03:41:24 | 01:34:07 | 00:00:00 | |
| DJ8HS-15 | 2026-08-31 12:06:39 | 50.13615 | 8.66362 | 287° | 9km/h | 22098m | 4.9m/s | -52.7°C | 4.2% | 42.2hPa | 2.7V | 00:00:00 | 01:34:10 | 00:00:00 | |
| DL1NUX | 2026-08-31 12:06:38 | 50.13616 | 8.66395 | 269° | 11km/h | 22068m | 5.6m/s | -53°C | 4.3% | 42.4hPa | 2.7V | 03:41:27 | 01:34:04 | 00:00:00 | |
| DL1XH-west | 2026-08-31 12:06:34 | 50.13616 | 8.66390 | 259° | 15km/h | 22073m | 4.5m/s | -52.9°C | 1.1% | 0hPa | 2.7V | 03:42:01 | 01:34:05 | 00:00:00 | |
| BIOWL1-15 | 2026-08-31 12:06:30 | 50.13614 | 8.66406 | 283° | 7km/h | 22053m | 5.1m/s | -52.9°C | 1.2% | 42.5hPa | 2.6V | 03:42:01 | 01:34:01 | 00:00:00 | |
| DM0DOS-11 | 2026-08-31 12:06:30 | 50.13614 | 8.66408 | 263° | 5km/h | 22047m | 5.6m/s | -52.9°C | 4.4% | 42.6hPa | 2.6V | 03:41:31 | 01:34:00 | 00:00:00 | |
| DL1XH1-15 | 2026-08-31 12:06:30 | 50.13615 | 8.66414 | 288° | 4km/h | 22033m | 6m/s | -52.9°C | 4.4% | 42.7hPa | 2.7V | 03:41:34 | 01:33:57 | 00:00:00 | |
| DF8AY | 2026-08-31 12:06:29 | 50.13614 | 8.66408 | 263° | 5km/h | 22047m | 5.6m/s | -52.9°C | 1.2% | 0hPa | 2.6V | 03:42:01 | 01:34:00 | 00:00:00 | |
| DD1CC8 | 2026-08-31 12:06:29 | 50.13614 | 8.66408 | 263° | 5km/h | 22047m | 5.6m/s | -52.9°C | 1.4% | 42.6hPa | 2.7V | 00:00:00 | 00:00:00 | 00:00:00 | |
| SONCRA | 2026-08-31 12:06:28 | 50.13615 | 8.66412 | 256° | 4km/h | 22038m | 4.3m/s | -52.8°C | 1.4% | 42.6hPa | 2.7V | 00:00:00 | 00:00:00 | 00:00:00 | |
| DK5PH-5 | 2026-08-31 12:06:26 | 50.13615 | 8.66414 | 289° | 7km/h | 22033m | 6.0m/s | -52.8°C | 4.4% | 42.6hPa | 2.7V | 00:00:00 | 01:33:57 | 00:00:00 | |
| DL3AQ-11 | 2026-08-31 12:06:25 | 50.13613 | 8.66417 | 312° | 7km/h | 22022m | 4.3m/s | -52.8°C | 1.4% | 42.7hPa | 2.7V | 00:00:00 | 00:00:00 | 00:00:00 | |
| DL4BBY-15 | 2026-08-31 12:06:24 | 50.13613 | 8.66417 | 313° | 7km/h | 22022m | 4.3m/s | -52.2°C | 0% | 0hPa | 2.7V | 00:00:00 | 00:00:00 | 00:00:00 | |
| DL1NUX | 2026-08-31 12:06:23 | 50.13610 | 8.66430 | 275° | 11km/h | 22002m | 4.2m/s | -52.6°C | 4.2% | 42.9hPa | 2.7V | 03:41:40 | 01:33:51 | 00:00:00 | |
| DL1XH-west | 2026-08-31 12:06:23 | 50.13612 | 8.66420 | 301° | 7km/h | 22018m | 4.7m/s | -52.7°C | 1.1% | 0hPa | 2.6V | 03:42:01 | 01:33:54 | 00:00:00 | |
| DB0NH | 2026-08-31 12:06:23 | 50.13612 | 8.66420 | 301° | 7km/h | 22018m | 4.6m/s | -52.7°C | 4.3% | 42.7hPa | 2.6V | 00:00:00 | 01:33:54 | 00:00:00 | |
| DO9LL-15 | 2026-08-31 12:06:22 | 50.13611 | 8.66423 | 285° | 7km/h | 22012m | 6.0m/s | -52.6°C | 4.3% | 42.8hPa | 2.6V | 03:41:00 | 01:33:53 | 00:00:00 | |
| DM0DOS-11 | 2026-08-31 12:06:20 | 50.13610 | 8.66434 | 284° | 11km/h | 21997m | 5.6m/s | -52.6°C | 4.2% | 42.9hPa | 2.6V | 03:41:41 | 01:33:50 | 00:00:00 | |
| DL1XH1-15 | 2026-08-31 12:06:20 | 50.13607 | 8.66444 | 285° | 5km/h | 21982m | 4.9m/s | -52.4°C | 4.2% | 43hPa | 2.7V | 03:41:44 | 01:33:47 | 00:00:00 | |
| BIOWL1-15 | 2026-08-31 12:06:20 | 50.13611 | 8.66430 | 276° | 11km/h | 22002m | 4.2m/s | -52.7°C | 1.1% | 42.9hPa | 2.7V | 03:42:01 | 01:33:51 | 00:00:00 | |
| HSKMA3-T | 2026-08-31 12:06:20 | 50.13610 | 8.66434 | 285° | 11km/h | 21997m | 5.6m/s | -52.7°C | 1.1% | 42.9hPa | 2.6V | 03:42:01 | 01:33:50 | 00:00:00 | |
| DF8AY | 2026-08-31 12:06:18 | 50.13607 | 8.66444 | 286° | 5km/h | 21982m | 4.9m/s | -52.4°C | 1% | 0hPa | 2.7V | 03:42:01 | 01:33:47 | 00:00:00 | |
| BIOWL9-15 | 2026-08-31 12:06:17 | 50.13607 | 8.66444 | 285° | 5km/h | 21982m | 4.9m/s | -52.4°C | 1.3% | 43.0hPa | 2.7V | 00:00:00 | 00:00:00 | 00:00:00 | |
| DO1YAY-16 | 2026-08-31 12:06:16 | 50.13607 | 8.66444 | 285° | 5km/h | 21982m | 4.9m/s | -52.4°C | 1.3% | 43.0hPa | 2.7V | 00:00:00 | 00:00:00 | 00:00:00 | |
| DF2AP-13 | 2026-08-31 12:06:15 | 50.13607 | 8.66446 | 246° | 7km/h | 21977m | 6.1m/s | -52.4°C | 4.3% | 43.0hPa | 2.7V | 00:00:00 | 01:33:46 | 00:00:00 | |
| DL3AQ-11 | 2026-08-31 12:06:14 | 50.13610 | 8.66448 | 187° | 5km/h | 21967m | 4.4m/s | -52.3°C | 1.3% | 43.1hPa | 2.7V | 00:00:00 | 00:00:00 | 00:00:00 | |
| DL1NUX | 2026-08-31 12:06:13 | 50.13614 | 8.66452 | 230° | 5km/h | 21940m | 5.9m/s | -52.5°C | 4.3% | 43.3hPa | 2.7V | 03:41:52 | 01:33:39 | 00:00:00 | |
| DL1XH-west | 2026-08-31 12:06:12 | 50.13611 | 8.66449 | 185° | 5km/h | 21961m | 5.6m/s | -52.3°C | 1.1% | 0hPa | 2.6V | 03:42:01 | 01:33:43 | 00:00:00 | |
| BIOWL1-15 | 2026-08-31 12:06:10 | 50.13613 | 8.66449 | 226° | 2km/h | 21951m | 4.5m/s | -52.4°C | 1% | 43.2hPa | 2.7V | 03:42:01 | 01:33:41 | 00:00:00 | |
| HSKMA3-T | 2026-08-31 12:06:09 | 50.13613 | 8.66450 | 233° | 4km/h | 21946m | 5.1m/s | -52.4°C | 1% | 43.3hPa | 2.7V | 03:42:01 | 01:33:40 | 00:00:00 | |
| DF8AY | 2026-08-31 12:06:07 | 50.13615 | 8.66454 | 236° | 7km/h | 21935m | 4.8m/s | -52.5°C | 1% | 0hPa | 2.6V | 03:42:01 | 01:33:38 | 00:00:00 | |
| AA1-15 | 2026-08-31 12:06:02 | 50.13617 | 8.66471 | 252° | 7km/h | 21910m | 5.7m/s | -52.5°C | 1.1% | 43.5hPa | 2.7V | 03:42:01 | 01:33:33 | 00:00:00 | |
| DC4HF-4 | 2026-08-31 12:06:02 | 50.13617 | 8.66471 | 252° | 7km/h | 21910m | 5.7m/s | -52.5°C | 1.3% | 43.5hPa | 2.6V | 00:00:00 | 00:00:00 | 00:00:00 | |
| DL1XH-15 | 2026-08-31 12:06:00 | 50.13622 | 8.66476 | 195° | 7km/h | 21896m | 5.2m/s | -52.3°C | 4.1% | 43.6hPa | 2.6V | 03:42:01 | 01:33:30 | 00:00:00 | |
| DK7TD | 2026-08-31 12:05:59 | 50.13622 | 8.66476 | 196° | 7km/h | 21896m | 5.2m/s | -52.3°C | 1% | 43.6hPa | 2.6V | 03:42:01 | 01:33:30 | 00:00:00 | |
| HSKMA3-T | 2026-08-31 12:05:58 | 50.13623 | 8.66477 | 183° | 7km/h | 21890m | 5.3m/s | -52.3°C | 1% | 43.6hPa | 2.7V | 03:42:52 | 01:33:29 | 00:00:00 | |
| DF8AY | 2026-08-31 12:05:56 | 50.13632 | 8.66470 | 142° | 15km/h | 21870m | 5.3m/s | -52.3°C | 0% | 0hPa | 2.6V | 03:42:52 | 01:33:25 | 00:00:00 | |
| DK5PH-5 | 2026-08-31 12:05:56 | 50.13627 | 8.66475 | 154° | 9km/h | 21881m | 4.7m/s | -52.3°C | 4.1% | 43.6hPa | 2.7V | 03:42:00 | 01:33:27 | 00:00:00 | |
| DL4BBY-15 | 2026-08-31 12:05:55 | 50.13632 | 8.66470 | 143° | 9km/h | 21870m | 5.2m/s | -51.6°C | 0% | 0hPa | 2.6V | 00:00:00 | 00:00:00 | 00:00:00 | |
| DB0NH | 2026-08-31 12:05:53 | 50.13635 | 8.66466 | 136° | 9km/h | 21865m | 4.3m/s | -52.2°C | 4.1% | 43.7hPa | 2.6V | 03:42:00 | 01:33:24 | 00:00:00 | |
| DL1XH-15 | 2026-08-31 12:05:52 | 50.13638 | 8.66457 | 105° | 2km/h | 21846m | 5m/s | -52.4°C | 4.1% | 43.9hPa | 2.6V | 03:42:11 | 01:33:20 | 00:00:00 | |
| AA1-15 | 2026-08-31 12:05:52 | 50.13637 | 8.66463 | 126° | 11km/h | 21860m | 5.4m/s | -52.2°C | 1% | 43.8hPa | 2.7V | 03:42:52 | 01:33:23 | 00:00:00 | |
| DL1XH-west | 2026-08-31 12:05:51 | 50.13638 | 8.66460 | 108° | 7km/h | 21855m | 5.1m/s | 0°C | 0% | 0hPa | 2.7V | 18:12:15 | 01:33:22 | 00:00:00 | |
| BIOWL1-15 | 2026-08-31 12:05:51 | 50.13638 | 8.66457 | 105° | 2km/h | 21846m | 5m/s | -52.4°C | 1% | 43.9hPa | 2.6V | 03:42:52 | 01:33:20 | 00:00:00 | |
| DK7TD | 2026-08-31 12:05:48 | 50.13639 | 8.66456 | 156° | 2km/h | 21841m | 5.2m/s | -52.3°C | 1% | 44hPa | 2.6V | 03:43:43 | 01:33:19 | 00:00:00 | |
| HSKMA3-T | 2026-08-31 12:05:48 | 50.13639 | 8.66456 | 164° | 4km/h | 21836m | 4.3m/s | -52.3°C | 1% | 44hPa | 2.6V | 03:42:52 | 01:33:18 | 00:00:00 | |
| DF8AY | 2026-08-31 12:05:45 | 50.13640 | 8.66455 | 109° | 4km/h | 21827m | 5.6m/s | -52.4°C | 0% | 0hPa | 2.7V | 03:42:52 | 01:33:16 | 00:00:00 | |
| DL3AQ-11 | 2026-08-31 12:05:45 | 50.13641 | 8.66453 | 101° | 5km/h | 21822m | 4.6m/s | -52.4°C | 1.3% | 44.1hPa | 2.7V | 00:00:00 | 00:00:00 | 00:00:00 | |
| DL1XH-15 | 2026-08-31 12:05:42 | 50.13648 | 8.66434 | 112° | 15km/h | 21797m | 5.3m/s | -52.3°C | 4% | 44.3hPa | 2.7V | 03:42:21 | 01:33:10 | 00:00:00 | |
| AA1-15 | 2026-08-31 12:05:42 | 50.13644 | 8.66443 | 128° | 15km/h | 21807m | 4.8m/s | -52.3°C | 1% | 44.2hPa | 2.6V | 03:42:52 | 01:33:12 | 00:00:00 | |
| DF7PN | 2026-08-31 12:05:42 | 50.13644 | 8.66443 | 128° | 13km/h | 21807m | 4.8m/s | -52.3°C | 1.3% | 44.2hPa | 2.6V | 00:00:00 | 00:00:00 | 00:00:00 | |
| DL1XH1-15 | 2026-08-31 12:05:41 | 50.13649 | 8.66419 | 95° | 11km/h | 21784m | 4.2m/s | -52.4°C | 4.1% | 44.4hPa | 2.6V | 03:42:24 | 01:33:07 | 00:00:00 | |
| BIOWL1-15 | 2026-08-31 12:05:39 | 50.13648 | 8.66434 | 112° | 15km/h | 21797m | 5.3m/s | -52.3°C | 0.9% | 44.3hPa | 2.7V | 03:42:52 | 01:33:10 | 00:00:00 | |
| HSKMA3-T | 2026-08-31 12:05:37 | 50.13649 | 8.66424 | 93° | 13km/h | 21788m | 4.2m/s | -52.4°C | 0.9% | 44.3hPa | 2.6V | 03:42:52 | 01:33:08 | 00:00:00 | |
| DF8AY | 2026-08-31 12:05:32 | 50.13652 | 8.66403 | 96° | 13km/h | 21764m | 5.7m/s | -52.8°C | 0% | 0hPa | 2.7V | 03:42:52 | 01:33:03 | 00:00:00 | |
| DL1XH-15 | 2026-08-31 12:05:32 | 50.13652 | 8.66388 | 102° | 11km/h | 21751m | 4.9m/s | -52.9°C | 4.3% | 44.6hPa | 2.6V | 03:42:31 | 01:33:00 | 00:00:00 | |
| AA1-15 | 2026-08-31 12:05:31 | 50.13652 | 8.66398 | 91° | 13km/h | 21759m | 4.4m/s | -52.8°C | 1.1% | 44.5hPa | 2.6V | 03:42:52 | 01:33:02 | 00:00:00 | |
| DL1NUX | 2026-08-31 12:05:28 | 50.13659 | 8.66372 | 123° | 4km/h | 21722m | 4m/s | -52.9°C | 4.2% | 44.8hPa | 2.6V | 03:42:37 | 01:32:54 | 00:00:00 | |
| DK7TD | 2026-08-31 12:05:28 | 50.13654 | 8.66384 | 121° | 11km/h | 21746m | 5.4m/s | -52.9°C | 1.2% | 44.6hPa | 2.7V | 03:43:43 | 01:32:59 | 00:00:00 | |
| HSKMA3-T | 2026-08-31 12:05:27 | 50.13657 | 8.66378 | 135° | 9km/h | 21737m | 4m/s | -52.9°C | 1.1% | 44.7hPa | 2.7V | 03:42:52 | 01:32:57 | 00:00:00 | |
| DF8AY | 2026-08-31 12:05:22 | 50.13660 | 8.66370 | 156° | 4km/h | 21718m | 5.6m/s | -52.9°C | 0% | 0hPa | 2.7V | 03:42:52 | 01:32:53 | 00:00:00 | |
| DL1XH1-15 | 2026-08-31 12:05:21 | 50.13665 | 8.66361 | 90° | 9km/h | 21689m | 4.3m/s | -52.9°C | 4.3% | 45hPa | 2.7V | 03:42:44 | 01:32:47 | 00:00:00 | |
| AA1-15 | 2026-08-31 12:05:20 | 50.13663 | 8.66370 | 170° | 5km/h | 21708m | 4.2m/s | -52.9°C | 1.1% | 44.9hPa | 2.7V | 03:42:52 | 01:32:51 | 00:00:00 | |
| BIOWL1-15 | 2026-08-31 12:05:18 | 50.13665 | 8.66367 | 107° | 7km/h | 21699m | 5.4m/s | -52.9°C | 1.1% | 45hPa | 2.6V | 03:42:52 | 01:32:49 | 00:00:00 | |
| DK7TD | 2026-08-31 12:05:17 | 50.13665 | 8.66364 | 94° | 7km/h | 21694m | 4.6m/s | -52.9°C | 1.1% | 45hPa | 2.6V | 03:43:43 | 01:32:48 | 00:00:00 | |
| HSKMA3-T | 2026-08-31 12:05:16 | 50.13665 | 8.66358 | 93° | 7km/h | 21684m | 5.4m/s | -52.9°C | 1.1% | 45hPa | 2.7V | 03:42:52 | 01:32:46 | 00:00:00 | |
| DF8AY | 2026-08-31 12:05:12 | 50.13664 | 8.66345 | 67° | 11km/h | 21666m | 5.4m/s | 0°C | 0% | 0hPa | 2.6V | 03:42:52 | 01:32:42 | 00:00:00 | |
| DL1XH-15 | 2026-08-31 12:05:12 | 50.13659 | 8.66331 | 73° | 5km/h | 21647m | 4.7m/s | -53°C | 4.4% | 45.3hPa | 2.6V | 03:42:53 | 01:32:38 | 00:00:00 | |
| DL1XH1-15 | 2026-08-31 12:05:11 | 50.13659 | 8.66329 | 85° | 5km/h | 21642m | 4m/s | -53°C | 4.4% | 45.3hPa | 2.6V | 03:42:54 | 01:32:37 | 00:00:00 | |
| AA1-15 | 2026-08-31 12:05:09 | 50.13661 | 8.66337 | 60° | 11km/h | 21657m | 4.1m/s | -52.9°C | 1.2% | 45.2hPa | 2.7V | 03:42:52 | 01:32:40 | 00:00:00 | |
| BIOWL1-15 | 2026-08-31 12:05:07 | 50.13659 | 8.66319 | 102° | 11km/h | 21628m | 4.3m/s | -53°C | 1.2% | 45.5hPa | 2.7V | 03:43:43 | 01:32:34 | 00:00:00 | |
| DK7TD | 2026-08-31 12:05:05 | 50.13659 | 8.66326 | 88° | 7km/h | 21637m | 5.6m/s | -53°C | 1.2% | 45.4hPa | 2.6V | 03:43:43 | 01:32:36 | 00:00:00 | |
| HSKMA3-T | 2026-08-31 12:05:05 | 50.13659 | 8.66323 | 91° | 9km/h | 21632m | 4.7m/s | -53°C | 1.2% | 45.4hPa | 2.7V | 03:43:43 | 01:32:35 | 00:00:00 | |
| BUE01 | 2026-08-31 12:05:03 | 50.13659 | 8.66319 | 102° | 9km/h | 21628m | 4.3m/s | -53.0°C | 1.4% | 45.5hPa | 2.7V | 00:00:00 | 00:00:00 | 00:00:00 | |
| DL8DAS-15 | 2026-08-31 12:05:02 | 50.13659 | 8.66319 | 103° | 11km/h | 21628m | 4.3m/s | -53.0°C | 1.4% | 45.5hPa | 2.7V | 00:00:00 | 00:00:00 | 00:00:00 | |
| DL1XH1-15 | 2026-08-31 12:05:01 | 50.13667 | 8.66297 | 94° | 7km/h | 21593m | 4.2m/s | -52.9°C | 4.2% | 45.7hPa | 2.7V | 03:43:04 | 01:32:27 | 00:00:00 | |
| DF8AY | 2026-08-31 12:05:00 | 50.13663 | 8.66309 | 134° | 9km/h | 21612m | 4.1m/s | 0°C | 0% | 0hPa | 2.6V | 03:43:43 | 01:32:31 | 00:00:00 | |
| CB1BUN | 2026-08-31 12:05:00 | 50.13662 | 8.66312 | 133° | 9km/h | 21618m | 5.4m/s | -52.9°C | 1.4% | 45.5hPa | 2.6V | 03:43:00 | 00:00:00 | 00:00:00 | |
| DJ8HS-15 | 2026-08-31 12:04:59 | 50.13665 | 8.66306 | 125° | 11km/h | 21608m | 5.1m/s | -52.9°C | 4.3% | 45.5hPa | 2.6V | 03:43:00 | 01:32:30 | 00:00:00 | |
| DL1NUX | 2026-08-31 12:04:58 | 50.13667 | 8.66291 | 93° | 5km/h | 21580m | 3.3m/s | -52.9°C | 4.2% | 45.8hPa | 2.6V | 03:43:07 | 01:32:24 | 00:00:00 | |
| AA1-15 | 2026-08-31 12:04:58 | 50.13666 | 8.66303 | 109° | 9km/h | 21603m | 5.4m/s | -53°C | 1.1% | 45.6hPa | 2.7V | 03:43:43 | 01:32:29 | 00:00:00 | |
| BIOWL1-15 | 2026-08-31 12:04:55 | 50.13667 | 8.66295 | 107° | 4km/h | 21588m | 5.6m/s | -52.9°C | 1.1% | 45.7hPa | 2.6V | 03:43:43 | 01:32:26 | 00:00:00 | |
| HSKMA3-T | 2026-08-31 12:04:55 | 50.13667 | 8.66293 | 106° | 4km/h | 21584m | 4m/s | -52.9°C | 1% | 45.8hPa | 2.6V | 03:43:43 | 01:32:25 | 00:00:00 | |
| DF8AY | 2026-08-31 12:04:48 | 50.13664 | 8.66269 | 81° | 13km/h | 21557m | 5.4m/s | 0°C | 0% | 0hPa | 2.6V | 03:43:43 | 01:32:19 | 00:00:00 | |
| AA1-15 | 2026-08-31 12:04:47 | 50.13664 | 8.66264 | 91° | 11km/h | 21552m | 4.8m/s | -52.8°C | 1.1% | 46hPa | 2.6V | 03:43:43 | 01:32:18 | 00:00:00 | |
| DJ2DS-15 | 2026-08-31 12:04:47 | 50.13664 | 8.66264 | 90° | 11km/h | 21552m | 4.8m/s | -52.8°C | 1.4% | 46.0hPa | 2.7V | 00:00:00 | 00:00:00 | 00:00:00 | |
| BIOWL1-15 | 2026-08-31 12:04:45 | 50.13662 | 8.66227 | 62° | 11km/h | 21519m | 5.3m/s | -53°C | 1.1% | 46.2hPa | 2.7V | 03:43:43 | 01:32:11 | 00:00:00 | |
| HSKMA3-T | 2026-08-31 12:04:44 | 50.13664 | 8.66250 | 92° | 15km/h | 21538m | 5.6m/s | -52.8°C | 1.1% | 46.1hPa | 2.7V | 03:43:43 | 01:32:15 | 00:00:00 | |
| DK7TD | 2026-08-31 12:04:42 | 50.13664 | 8.66237 | 81° | 16km/h | 21529m | 3.6m/s | -52.9°C | 1% | 46.1hPa | 2.6V | 03:43:43 | 01:32:13 | 00:00:00 | |
| DL1NUX | 2026-08-31 12:04:40 | 50.13660 | 8.66223 | 44° | 11km/h | 21514m | 4.4m/s | -52.9°C | 4.2% | 46.3hPa | 2.7V | 03:43:21 | 01:32:10 | 00:00:00 | |
| DF8AY | 2026-08-31 12:04:38 | 50.13642 | 8.66198 | 55° | 13km/h | 21481m | 3.8m/s | 0°C | 0% | 0hPa | 2.7V | 03:43:43 | 01:32:03 | 00:00:00 | |
| AA1-15 | 2026-08-31 12:04:37 | 50.13656 | 8.66218 | 35° | 15km/h | 21505m | 5.4m/s | -52.9°C | 1.1% | 46.3hPa | 2.6V | 03:43:43 | 01:32:08 | 00:00:00 | |
| BIOWL1-15 | 2026-08-31 12:04:34 | 50.13646 | 8.66205 | 44° | 15km/h | 21491m | 5.3m/s | -53.1°C | 1.1% | 46.4hPa | 2.7V | 03:43:43 | 01:32:05 | 00:00:00 | |
| HSKMA3-T | 2026-08-31 12:04:33 | 50.13643 | 8.66201 | 49° | 13km/h | 21485m | 5.1m/s | -53.1°C | 1.1% | 46.5hPa | 2.7V | 03:43:43 | 01:32:04 | 00:00:00 | |
| DM0DOS-11 | 2026-08-31 12:04:33 | 50.13636 | 8.66182 | 67° | 18km/h | 21466m | 4.3m/s | -53.2°C | 4.4% | 46.6hPa | 2.6V | 03:43:31 | 01:32:00 | 00:00:00 | |
| DK7TD | 2026-08-31 12:04:31 | 50.13640 | 8.66193 | 59° | 15km/h | 21477m | 4.6m/s | -53.3°C | 1.1% | 46.5hPa | 2.6V | 03:43:43 | 01:32:02 | 00:00:00 | |
| AA1-15 | 2026-08-31 12:04:27 | 50.13633 | 8.66168 | 73° | 18km/h | 21456m | 5.1m/s | -53.2°C | 1.1% | 46.7hPa | 2.7V | 03:43:43 | 01:31:58 | 00:00:00 | |
| BIOWL1-15 | 2026-08-31 12:04:23 | 50.13616 | 8.66134 | 36° | 27km/h | 21434m | 4.1m/s | -53.3°C | 1.1% | 46.8hPa | 2.7V | 03:43:43 | 01:31:53 | 00:00:00 | |
| DM0DOS-11 | 2026-08-31 12:04:23 | 50.13601 | 8.66120 | 25° | 18km/h | 21419m | 5.1m/s | -53.5°C | 4.5% | 47hPa | 2.6V | 03:43:41 | 01:31:50 | 00:00:00 | |
| DK7TD | 2026-08-31 12:04:21 | 50.13611 | 8.66129 | 33° | 26km/h | 21429m | 4.7m/s | -53.3°C | 1.2% | 46.9hPa | 2.7V | 03:43:43 | 01:31:52 | 00:00:00 | |
| DL1XH1-15 | 2026-08-31 12:04:21 | 50.13589 | 8.66112 | 23° | 20km/h | 21405m | 6m/s | -53.5°C | 4.5% | 47hPa | 2.7V | 03:43:44 | 01:31:47 | 00:00:00 | |
| DL1NUX | 2026-08-31 12:04:20 | 50.13597 | 8.66117 | 22° | 16km/h | 21414m | 4.4m/s | -53.5°C | 4.5% | 47hPa | 2.6V | 03:43:42 | 01:31:49 | 00:00:00 | |
| AA1-15 | 2026-08-31 12:04:17 | 50.13589 | 8.66112 | 23° | 20km/h | 21405m | 6m/s | -53.5°C | 1.2% | 47hPa | 2.7V | 03:44:34 | 01:31:47 | 00:00:00 | |
| BIOWL1-15 | 2026-08-31 12:04:15 | 50.13575 | 8.66100 | 32° | 20km/h | 21390m | 5.7m/s | -53.3°C | 1.2% | 47.2hPa | 2.6V | 03:44:34 | 01:31:44 | 00:00:00 | |
| DO9LL-15 | 2026-08-31 12:04:14 | 50.13579 | 8.66104 | 31° | 11km/h | 21395m | 4.2m/s | -53.3°C | 4.6% | 47.1hPa | 2.7V | 03:43:00 | 01:31:45 | 00:00:00 | |
| DM0DOS-11 | 2026-08-31 12:04:13 | 50.13560 | 8.66081 | 44° | 20km/h | 21370m | 5.2m/s | -53°C | 4.4% | 47.3hPa | 2.7V | 03:43:51 | 01:31:40 | 00:00:00 | |
| HEMX73-11 | 2026-08-31 12:04:12 | 50.13571 | 8.66096 | 37° | 18km/h | 21385m | 5.0m/s | -53.3°C | 1.4% | 47.2hPa | 2.6V | 03:44:00 | 00:00:00 | 00:00:00 | |
| HSKMA3-T | 2026-08-31 12:04:12 | 50.13567 | 8.66091 | 40° | 18km/h | 21380m | 4.7m/s | -53.2°C | 1.2% | 47.3hPa | 2.6V | 03:44:34 | 01:31:42 | 00:00:00 | |
| DL1XH1-15 | 2026-08-31 12:04:10 | 50.13551 | 8.66068 | 39° | 11km/h | 21354m | 5.6m/s | -53°C | 4.4% | 47.4hPa | 2.6V | 03:43:54 | 01:31:37 | 00:00:00 | |
| DL1NUX | 2026-08-31 12:04:10 | 50.13556 | 8.66076 | 45° | 18km/h | 21365m | 4.5m/s | -53.1°C | 4.4% | 47.4hPa | 2.7V | 03:43:52 | 01:31:39 | 00:00:00 | |
| DK7TD | 2026-08-31 12:04:10 | 50.13563 | 8.66087 | 44° | 20km/h | 21375m | 5.5m/s | -53.1°C | 1.2% | 47.3hPa | 2.7V | 03:44:34 | 01:31:41 | 00:00:00 | |
| DF8AY | 2026-08-31 12:04:09 | 50.13560 | 8.66081 | 45° | 20km/h | 21370m | 5.2m/s | 0°C | 0% | 0hPa | 2.7V | 03:44:34 | 01:31:40 | 00:00:00 | |
| AA1-15 | 2026-08-31 12:04:06 | 50.13551 | 8.66068 | 40° | 11km/h | 21354m | 5.6m/s | -53°C | 1.2% | 47.4hPa | 2.6V | 03:44:34 | 01:31:37 | 00:00:00 | |
| DL1XH-15 | 2026-08-31 12:04:02 | 50.13538 | 8.66053 | 25° | 9km/h | 21319m | 4.9m/s | -52.5°C | 4.2% | 47.7hPa | 2.6V | 03:44:01 | 01:31:30 | 00:00:00 | |
| BIOWL1-15 | 2026-08-31 12:04:02 | 50.13544 | 8.66059 | 39° | 11km/h | 21334m | 4.4m/s | -52.8°C | 1.1% | 47.6hPa | 2.7V | 03:44:34 | 01:31:33 | 00:00:00 | |
| BUE01 | 2026-08-31 12:04:01 | 50.13540 | 8.66055 | 26° | 7km/h | 21324m | 6.0m/s | -52.6°C | 1.4% | 47.6hPa | 2.7V | 00:00:00 | 00:00:00 | 00:00:00 | |
| DL1XH1-15 | 2026-08-31 12:04:00 | 50.13530 | 8.66046 | 37° | 15km/h | 21303m | 4.2m/s | -52.4°C | 4.2% | 47.8hPa | 2.7V | 03:44:04 | 01:31:27 | 00:00:00 | |
| DL1NUX | 2026-08-31 12:04:00 | 50.13536 | 8.66051 | 29° | 11km/h | 21314m | 4.8m/s | -52.4°C | 4.2% | 47.7hPa | 2.7V | 03:44:02 | 01:31:29 | 00:00:00 | |
| DK7TD | 2026-08-31 12:04:00 | 50.13540 | 8.66055 | 27° | 9km/h | 21324m | 6m/s | -52.6°C | 1.1% | 47.6hPa | 2.6V | 03:44:34 | 01:31:31 | 00:00:00 | |
| DF8AY | 2026-08-31 12:03:58 | 50.13536 | 8.66051 | 29° | 11km/h | 21314m | 4.8m/s | 0°C | 0% | 0hPa | 2.7V | 03:44:34 | 01:31:29 | 00:00:00 | |
| AA1-15 | 2026-08-31 12:03:56 | 50.13530 | 8.66046 | 38° | 15km/h | 21303m | 4.3m/s | -52.4°C | 1% | 47.8hPa | 2.7V | 03:44:34 | 01:31:27 | 00:00:00 | |
| DB0ND-19 | 2026-08-31 12:03:55 | 50.13525 | 8.66039 | 31° | 11km/h | 21295m | 5.6m/s | -52.5°C | 1.4% | 47.9hPa | 2.6V | 00:00:00 | 00:00:00 | 00:00:00 | |
| DD1CC8 | 2026-08-31 12:03:54 | 50.13522 | 8.66037 | 24° | 7km/h | 21289m | 5.2m/s | -52.5°C | 1.3% | 47.9hPa | 2.6V | 00:00:00 | 00:00:00 | 00:00:00 | |
| DM0DOS-11 | 2026-08-31 12:03:53 | 50.13517 | 8.66029 | 59° | 9km/h | 21270m | 4.4m/s | -52.3°C | 4.3% | 48hPa | 2.6V | 03:44:11 | 01:31:20 | 00:00:00 | |
| BIOWL1-15 | 2026-08-31 12:03:52 | 50.13521 | 8.66036 | 29° | 7km/h | 21284m | 4.4m/s | -52.5°C | 1.1% | 48hPa | 2.7V | 03:44:34 | 01:31:23 | 00:00:00 | |
| HEMX73-11 | 2026-08-31 12:03:51 | 50.13520 | 8.66036 | 30° | 7km/h | 21285m | 4.4m/s | -52.5°C | 1.4% | 48.0hPa | 2.7V | 03:44:00 | 00:00:00 | 00:00:00 | |
| DL1XH1-15 | 2026-08-31 12:03:50 | 50.13513 | 8.66024 | 16° | 7km/h | 21255m | 4.9m/s | -52.4°C | 4.2% | 48.2hPa | 2.7V | 03:44:14 | 01:31:17 | 00:00:00 | |
| DL1XH-15 | 2026-08-31 12:03:49 | 50.13515 | 8.66027 | 50° | 7km/h | 21266m | 4.4m/s | -52.3°C | 4.2% | 48.1hPa | 2.6V | 03:44:12 | 01:31:19 | 00:00:00 | |
| DK7TD | 2026-08-31 12:03:49 | 50.13517 | 8.66029 | 60° | 9km/h | 21270m | 4.4m/s | -52.3°C | 1.1% | 48.1hPa | 2.6V | 03:44:34 | 01:31:20 | 00:00:00 | |
| DF8AY | 2026-08-31 12:03:47 | 50.13497 | 8.66010 | 107° | 4km/h | 21211m | 5.5m/s | 0°C | 0% | 0hPa | 2.6V | 03:44:34 | 01:31:08 | 00:00:00 | |
| AA1-15 | 2026-08-31 12:03:45 | 50.13511 | 8.66023 | 13° | 9km/h | 21251m | 4m/s | -52.4°C | 1% | 48.2hPa | 2.7V | 03:44:34 | 01:31:16 | 00:00:00 | |
| BIOWL1-15 | 2026-08-31 12:03:42 | 50.13497 | 8.66011 | 25° | 4km/h | 21221m | 4.2m/s | -52.2°C | 1.1% | 48.5hPa | 2.7V | 03:44:34 | 01:31:10 | 00:00:00 | |
| DF8AY | 2026-08-31 12:03:41 | 50.13497 | 8.66009 | 143° | 4km/h | 21206m | 4.7m/s | 0°C | 0% | 0hPa | 2.6V | 03:44:34 | 01:31:07 | 00:00:00 | |
| DL1XH1-15 | 2026-08-31 12:03:40 | 50.13497 | 8.66009 | 143° | 4km/h | 21206m | 4.7m/s | -52.1°C | 4.2% | 48.5hPa | 2.6V | 03:44:24 | 01:31:07 | 00:00:00 | |
| HSKMA3-T | 2026-08-31 12:03:38 | 50.13497 | 8.66010 | 59° | 2km/h | 21217m | 5m/s | -52.2°C | 1.1% | 48.5hPa | 2.7V | 03:44:34 | 01:31:09 | 00:00:00 | |
| AA1-15 | 2026-08-31 12:03:35 | 50.13498 | 8.66008 | 176° | 4km/h | 21202m | 5.2m/s | -52.2°C | 1% | 48.6hPa | 2.6V | 03:44:34 | 01:31:06 | 00:00:00 | |
| NBG1-10 | 2026-08-31 12:03:33 | 50.13500 | 8.66009 | 207° | 5km/h | 21192m | 4.0m/s | -52.0°C | 4.2% | 48.6hPa | 2.7V | 00:00:00 | 01:31:04 | 00:00:00 | |
| DL1XH1-15 | 2026-08-31 12:03:30 | 50.13500 | 8.65999 | 322° | 2km/h | 21158m | 4.6m/s | -51.9°C | 4% | 48.9hPa | 2.7V | 03:44:34 | 01:30:57 | 00:00:00 | |
| BIOWL1-15 | 2026-08-31 12:03:29 | 50.13501 | 8.66003 | 80° | 9km/h | 21172m | 4m/s | -52°C | 0.9% | 48.8hPa | 2.6V | 03:44:34 | 01:31:00 | 00:00:00 | |
| HSKMA3-T | 2026-08-31 12:03:28 | 50.13501 | 8.66001 | 70° | 7km/h | 21168m | 5m/s | -52°C | 0.9% | 48.8hPa | 2.7V | 03:44:34 | 01:30:59 | 00:00:00 | |
| AA1-15 | 2026-08-31 12:03:25 | 50.13499 | 8.66000 | 291° | 4km/h | 21153m | 4.3m/s | -51.9°C | 1% | 48.9hPa | 2.6V | 03:45:25 | 01:30:56 | 00:00:00 | |
| DF8AY | 2026-08-31 12:03:24 | 50.13499 | 8.66000 | 278° | 2km/h | 21149m | 5.2m/s | 0°C | 0% | 0hPa | 2.6V | 18:12:15 | 01:30:55 | 00:00:00 | |
| DL1XH-west | 2026-08-31 12:03:24 | 50.13499 | 8.66001 | 285° | 0km/h | 21143m | 5m/s | -51.9°C | 1% | 49hPa | 2.6V | 03:45:25 | 01:30:54 | 00:00:00 | |
| DD1CC8 | 2026-08-31 12:03:23 | 50.13499 | 8.66001 | 193° | 0km/h | 21138m | 4.8m/s | -51.9°C | 1.3% | 49.1hPa | 2.6V | 00:00:00 | 00:00:00 | 00:00:00 | |
| SONCRA | 2026-08-31 12:03:21 | 50.13499 | 8.66001 | 263° | 0km/h | 21134m | 5.3m/s | -51.9°C | 1.3% | 49.1hPa | 2.6V | 00:00:00 | 00:00:00 | 00:00:00 | |
| DL1NUX | 2026-08-31 12:03:20 | 50.13499 | 8.66004 | 227° | 0km/h | 21119m | 4m/s | -51.8°C | 4% | 49.2hPa | 2.6V | 03:44:42 | 01:30:49 | 00:00:00 | |
| HSKMA3-T | 2026-08-31 12:03:18 | 50.13500 | 8.66004 | 228° | 2km/h | 21119m | 4.1m/s | -51.8°C | 0.9% | 49.2hPa | 2.6V | 03:45:25 | 01:30:49 | 00:00:00 | |
| AA1-15 | 2026-08-31 12:03:14 | 50.13501 | 8.65996 | 116° | 7km/h | 21099m | 5.3m/s | -52°C | 1% | 49.3hPa | 2.7V | 03:45:25 | 01:30:45 | 00:00:00 | |
| DL1XH-west | 2026-08-31 12:03:13 | 50.13502 | 8.65994 | 144° | 5km/h | 21094m | 5.1m/s | -52°C | 0.9% | 49.4hPa | 2.6V | 03:45:25 | 01:30:44 | 00:00:00 | |
| DK7TD | 2026-08-31 12:03:12 | 50.13503 | 8.65993 | 166° | 4km/h | 21089m | 3.8m/s | -52°C | 0.9% | 49.4hPa | 2.6V | 03:46:16 | 01:30:43 | 00:00:00 | |
| DM0DOS-11 | 2026-08-31 12:03:12 | 50.13504 | 8.65993 | 320° | 2km/h | 21075m | 4.5m/s | -52.2°C | 4% | 49.5hPa | 2.7V | 03:44:51 | 01:30:40 | 00:00:00 | |
| HSKMA3-T | 2026-08-31 12:03:07 | 50.13503 | 8.65996 | 300° | 7km/h | 21065m | 5.6m/s | -52.3°C | 1% | 49.6hPa | 2.6V | 03:45:25 | 01:30:38 | 00:00:00 | |
| AA1-15 | 2026-08-31 12:03:04 | 50.13499 | 8.66002 | 1° | 7km/h | 21051m | 5.5m/s | -52.5°C | 1.1% | 49.7hPa | 2.7V | 03:45:25 | 01:30:35 | 00:00:00 | |
| DL1XH-west | 2026-08-31 12:03:02 | 50.13496 | 8.65997 | 62° | 13km/h | 21041m | 4.6m/s | -52.6°C | 1.1% | 49.8hPa | 2.7V | 03:45:25 | 01:30:33 | 00:00:00 | |
| DK7TD | 2026-08-31 12:03:01 | 50.13494 | 8.65992 | 71° | 15km/h | 21036m | 5.2m/s | -52.6°C | 1.1% | 49.9hPa | 2.6V | 03:46:16 | 01:30:32 | 00:00:00 | |
| DF8AY | 2026-08-31 12:03:00 | 50.13493 | 8.65987 | 76° | 13km/h | 21031m | 5.2m/s | 0°C | 0% | 0hPa | 2.6V | 18:12:15 | 01:30:31 | 00:00:00 | |
| DL1XH1-15 | 2026-08-31 12:03:00 | 50.13489 | 8.65967 | 58° | 13km/h | 21012m | 4.6m/s | -52.6°C | 4.1% | 50hPa | 2.7V | 03:45:04 | 01:30:27 | 00:00:00 | |
| DL1NUX | 2026-08-31 12:03:00 | 50.13492 | 8.65977 | 70° | 13km/h | 21022m | 4.1m/s | -52.8°C | 4.1% | 50hPa | 2.7V | 03:45:02 | 01:30:29 | 00:00:00 | |
| DM0DOS-11 | 2026-08-31 12:03:00 | 50.13493 | 8.65982 | 76° | 13km/h | 21026m | 4m/s | -52.7°C | 4.1% | 49.9hPa | 2.6V | 03:45:01 | 01:30:30 | 00:00:00 | |
| BIOWL1-15 | 2026-08-31 12:02:58 | 50.13487 | 8.65963 | 53° | 11km/h | 21007m | 4.4m/s | -52.6°C | 1% | 50.1hPa | 2.6V | 03:45:25 | 01:30:26 | 00:00:00 | |
| HSKMA3-T | 2026-08-31 12:02:57 | 50.13490 | 8.65972 | 66° | 15km/h | 21017m | 5.7m/s | -52.7°C | 1% | 50hPa | 2.7V | 03:45:25 | 01:30:28 | 00:00:00 | |
| AA1-15 | 2026-08-31 12:02:53 | 50.13484 | 8.65959 | 33° | 4km/h | 20997m | 4.9m/s | -52.7°C | 1.1% | 50.1hPa | 2.6V | 03:45:25 | 01:30:24 | 00:00:00 | |
| DL1XH-15 | 2026-08-31 12:02:52 | 50.13479 | 8.65953 | 44° | 11km/h | 20977m | 4m/s | -52.6°C | 4.2% | 50.3hPa | 2.6V | 03:45:11 | 01:30:20 | 00:00:00 | |
| DL1XH-west | 2026-08-31 12:02:51 | 50.13482 | 8.65957 | 32° | 5km/h | 20987m | 5.6m/s | -52.8°C | 1.1% | 50.2hPa | 2.7V | 03:45:25 | 01:30:22 | 00:00:00 | |
| DL1NUX | 2026-08-31 12:02:50 | 50.13474 | 8.65940 | 56° | 7km/h | 20959m | 3.9m/s | -53°C | 4.2% | 50.4hPa | 2.7V | 03:45:15 | 01:30:16 | 00:00:00 | |
| DK7TD | 2026-08-31 12:02:49 | 50.13479 | 8.65953 | 45° | 11km/h | 20977m | 4m/s | -52.6°C | 1.1% | 50.3hPa | 2.6V | 03:46:16 | 01:30:20 | 00:00:00 | |
| HSKMA3-T | 2026-08-31 12:02:47 | 50.13476 | 8.65946 | 62° | 9km/h | 20968m | 5.5m/s | -52.8°C | 1% | 50.4hPa | 2.6V | 03:45:25 | 01:30:18 | 00:00:00 | |
| BIOWL1-15 | 2026-08-31 12:02:46 | 50.13475 | 8.65943 | 67° | 7km/h | 20963m | 4.8m/s | -52.9°C | 1% | 50.4hPa | 2.7V | 03:45:25 | 01:30:17 | 00:00:00 | |
| AA1-15 | 2026-08-31 12:02:43 | 50.13468 | 8.65933 | 28° | 13km/h | 20944m | 4.3m/s | -53°C | 1% | 50.6hPa | 2.6V | 03:45:25 | 01:30:13 | 00:00:00 | |
| DM0DOS-11 | 2026-08-31 12:02:42 | 50.13461 | 8.65927 | 50° | 5km/h | 20930m | 4.4m/s | -53.1°C | 4.2% | 50.7hPa | 2.7V | 03:45:21 | 01:30:10 | 00:00:00 | |
| DL1XH-west | 2026-08-31 12:02:41 | 50.13463 | 8.65929 | 33° | 9km/h | 20935m | 5.6m/s | -53.1°C | 1% | 50.6hPa | 2.7V | 03:45:25 | 01:30:11 | 00:00:00 | |
| DK7TD | 2026-08-31 12:02:37 | 50.13460 | 8.65922 | 71° | 9km/h | 20921m | 5.6m/s | -53.3°C | 1.2% | 50.7hPa | 2.6V | 03:46:16 | 01:30:08 | 00:00:00 | |
| HSKMA3-T | 2026-08-31 12:02:36 | 50.13459 | 8.65918 | 74° | 11km/h | 20916m | 4.8m/s | -53.3°C | 1.2% | 50.8hPa | 2.6V | 03:45:25 | 01:30:07 | 00:00:00 | |
| BIOWL1-15 | 2026-08-31 12:02:35 | 50.13459 | 8.65905 | 111° | 11km/h | 20901m | 5.3m/s | -53.3°C | 1.1% | 50.9hPa | 2.7V | 03:46:16 | 01:30:04 | 00:00:00 | |
| DF7PN | 2026-08-31 12:02:35 | 50.13458 | 8.65914 | 84° | 11km/h | 20911m | 4.3m/s | -53.3°C | 1.4% | 50.8hPa | 2.6V | 00:00:00 | 00:00:00 | 00:00:00 | |
| CB1BUN | 2026-08-31 12:02:34 | 50.13458 | 8.65914 | 86° | 11km/h | 20911m | 4.3m/s | -53.3°C | 1.4% | 50.8hPa | 2.6V | 03:45:00 | 00:00:00 | 00:00:00 | |
| DM0DOS-11 | 2026-08-31 12:02:32 | 50.13459 | 8.65888 | 60° | 13km/h | 20882m | 4.5m/s | -53.4°C | 4.3% | 51.1hPa | 2.6V | 03:45:31 | 01:30:00 | 00:00:00 | |
| AA1-15 | 2026-08-31 12:02:31 | 50.13461 | 8.65897 | 94° | 11km/h | 20892m | 4.8m/s | -53.3°C | 1.1% | 51hPa | 2.6V | 03:46:16 | 01:30:02 | 00:00:00 | |
| DO3MHA-11 | 2026-08-31 12:02:31 | 50.13461 | 8.65897 | 95° | 11km/h | 20892m | 4.7m/s | -53.3°C | 4.3% | 50.9hPa | 2.7V | 00:00:00 | 01:30:02 | 00:00:00 | |
| DL1XH1-15 | 2026-08-31 12:02:30 | 50.13454 | 8.65877 | 50° | 9km/h | 20868m | 4.6m/s | -53.4°C | 4.5% | 51.2hPa | 2.7V | 03:45:34 | 01:29:57 | 00:00:00 | |
| DL1XH-west | 2026-08-31 12:02:29 | 50.13458 | 8.65884 | 53° | 13km/h | 20877m | 4.3m/s | -53.4°C | 1.2% | 51.1hPa | 2.7V | 03:46:16 | 01:29:59 | 00:00:00 | |
| HSKMA3-T | 2026-08-31 12:02:26 | 50.13454 | 8.65877 | 51° | 9km/h | 20868m | 4.6m/s | -53.4°C | 1.2% | 51.2hPa | 2.7V | 03:46:16 | 01:29:57 | 00:00:00 | |
| BIOWL1-15 | 2026-08-31 12:02:23 | 50.13446 | 8.65863 | 72° | 11km/h | 20846m | 3.7m/s | -53.2°C | 1.1% | 51.3hPa | 2.7V | 03:46:16 | 01:29:52 | 00:00:00 | |
| AA1-15 | 2026-08-31 12:02:21 | 50.13445 | 8.65858 | 89° | 13km/h | 20841m | 5.6m/s | -53.3°C | 1.1% | 51.4hPa | 2.7V | 03:46:16 | 01:29:51 | 00:00:00 | |
| DL9SK-14 | 2026-08-31 12:02:20 | 50.13445 | 8.65858 | 88° | 11km/h | 20841m | 5.6m/s | -53.3°C | 1.4% | 51.4hPa | 2.7V | 00:00:00 | 00:00:00 | 00:00:00 | |
| DL1NUX | 2026-08-31 12:02:19 | 50.13442 | 8.65815 | 66° | 22km/h | 20813m | 4.3m/s | -53.1°C | 4.4% | 51.6hPa | 2.7V | 03:45:46 | 01:29:45 | 00:00:00 | |
| DL1XH-west | 2026-08-31 12:02:19 | 50.13446 | 8.65853 | 99° | 15km/h | 20836m | 4.8m/s | -53.3°C | 1.1% | 51.4hPa | 2.6V | 03:46:16 | 01:29:50 | 00:00:00 | |
| DK7TD | 2026-08-31 12:02:17 | 50.13446 | 8.65839 | 88° | 20km/h | 20827m | 5.4m/s | -53.3°C | 1.1% | 51.5hPa | 2.6V | 03:46:16 | 01:29:48 | 00:00:00 | |
| HSKMA3-T | 2026-08-31 12:02:15 | 50.13444 | 8.65823 | 69° | 22km/h | 20817m | 4.1m/s | -53.1°C | 1.2% | 51.6hPa | 2.7V | 03:46:16 | 01:29:46 | 00:00:00 | |
| BIOWL1-15 | 2026-08-31 12:02:12 | 50.13435 | 8.65789 | 61° | 15km/h | 20795m | 4.2m/s | -53.1°C | 1.1% | 51.8hPa | 2.7V | 03:46:16 | 01:29:41 | 00:00:00 | |
| AA1-15 | 2026-08-31 12:02:09 | 50.13433 | 8.65784 | 54° | 16km/h | 20790m | 5.7m/s | -53.2°C | 1.1% | 51.8hPa | 2.7V | 03:46:16 | 01:29:40 | 00:00:00 | |
| DL1XH-west | 2026-08-31 12:02:08 | 50.13431 | 8.65779 | 50° | 16km/h | 20785m | 4.8m/s | -53.1°C | 1.2% | 51.8hPa | 2.7V | 03:46:16 | 01:29:39 | 00:00:00 | |
| DL1NUX | 2026-08-31 12:02:08 | 50.13425 | 8.65760 | 88° | 15km/h | 20765m | 4.2m/s | -52.9°C | 4.3% | 52hPa | 2.7V | 03:45:56 | 01:29:35 | 00:00:00 | |
| DK7TD | 2026-08-31 12:02:07 | 50.13428 | 8.65775 | 53° | 15km/h | 20780m | 4.8m/s | -53°C | 1.1% | 51.8hPa | 2.6V | 03:46:16 | 01:29:38 | 00:00:00 | |
| HSKMA3-T | 2026-08-31 12:02:04 | 50.13425 | 8.65760 | 89° | 15km/h | 20765m | 4.2m/s | -52.9°C | 1.1% | 52hPa | 2.7V | 03:46:16 | 01:29:35 | 00:00:00 | |
| BIOWL1-15 | 2026-08-31 12:02:03 | 50.13423 | 8.65740 | 65° | 18km/h | 20751m | 4.3m/s | -53°C | 1.1% | 52.1hPa | 2.6V | 03:46:16 | 01:29:32 | 00:00:00 | |
| DF3TZ-5 | 2026-08-31 12:02:02 | 50.13424 | 8.65747 | 76° | 16km/h | 20756m | 5.3m/s | 0°C | -1.0% | 52.1hPa | 2.7V | 00:00:00 | 00:00:00 | 00:00:00 | |
| DL1XH1-15 | 2026-08-31 12:02:00 | 50.13412 | 8.65722 | 33° | 9km/h | 20728m | 4.3m/s | -52.8°C | 4.2% | 52.3hPa | 2.7V | 03:46:04 | 01:29:27 | 00:00:00 | |
| AA1-15 | 2026-08-31 12:01:58 | 50.13414 | 8.65724 | 34° | 9km/h | 20732m | 4.4m/s | -52.8°C | 1% | 52.2hPa | 2.7V | 03:46:16 | 01:29:28 | 00:00:00 | |
| DK7TD | 2026-08-31 12:01:57 | 50.13413 | 8.65722 | 33° | 9km/h | 20728m | 4.3m/s | -52.8°C | 1% | 52.3hPa | 2.7V | 03:46:16 | 01:29:27 | 00:00:00 | |
| BIOWL1-15 | 2026-08-31 12:01:55 | 50.13406 | 8.65706 | 98° | 11km/h | 20703m | 5.2m/s | -52.7°C | 1% | 52.5hPa | 2.7V | 03:46:16 | 01:29:22 | 00:00:00 | |
| HSKMA3-T | 2026-08-31 12:01:54 | 50.13409 | 8.65717 | 44° | 11km/h | 20718m | 4.7m/s | -52.8°C | 1% | 52.4hPa | 2.6V | 03:46:16 | 01:29:25 | 00:00:00 | |
| DL1ZP-14 | 2026-08-31 12:01:52 | 50.13406 | 8.65706 | 98° | 9km/h | 20703m | 5.2m/s | -52.7°C | 1.3% | 52.5hPa | 2.7V | 00:00:00 | 00:00:00 | 00:00:00 | |
| DL1XH1-15 | 2026-08-31 12:01:50 | 50.13407 | 8.65680 | 73° | 13km/h | 20679m | 4.1m/s | -53.3°C | 4.4% | 52.7hPa | 2.7V | 03:46:14 | 01:29:17 | 00:00:00 | |
| AA1-15 | 2026-08-31 12:01:48 | 50.13407 | 8.65680 | 74° | 13km/h | 20679m | 4.1m/s | -53.3°C | 1.1% | 52.7hPa | 2.7V | 03:46:16 | 01:29:17 | 00:00:00 | |
| DL1XH-west | 2026-08-31 12:01:47 | 50.13406 | 8.65676 | 69° | 11km/h | 20675m | 5.6m/s | -53.2°C | 1.1% | 52.8hPa | 2.7V | 03:46:16 | 01:29:16 | 00:00:00 | |
| DL1NUX | 2026-08-31 12:01:46 | 50.13405 | 8.65673 | 61° | 5km/h | 20669m | 5.5m/s | -53.1°C | 4.4% | 52.7hPa | 2.7V | 03:46:16 | 01:29:15 | 00:00:00 | |
| DK7TD | 2026-08-31 12:01:45 | 50.13405 | 8.65673 | 61° | 5km/h | 20669m | 5.5m/s | -53.2°C | 1.2% | 52.8hPa | 2.7V | 03:46:16 | 01:29:15 | 00:00:00 | |
| HSKMA3-T | 2026-08-31 12:01:43 | 50.13404 | 8.65671 | 32° | 5km/h | 20664m | 4.9m/s | -53.2°C | 1.2% | 52.8hPa | 2.6V | 03:47:07 | 01:29:14 | 00:00:00 | |
| BIOWL1-15 | 2026-08-31 12:01:41 | 50.13398 | 8.65668 | 14° | 5km/h | 20644m | 5.1m/s | -53.1°C | 1.2% | 53hPa | 2.7V | 03:47:07 | 01:29:10 | 00:00:00 | |
| DO9LL-15 | 2026-08-31 12:01:41 | 50.13401 | 8.65670 | 16° | 11km/h | 20654m | 5.3m/s | -53.1°C | 4.4% | 52.8hPa | 2.7V | 00:00:00 | 01:29:12 | 00:00:00 | |
| DJ8HS-15 | 2026-08-31 12:01:39 | 50.13398 | 8.65668 | 14° | 9km/h | 20644m | 5.0m/s | -53.1°C | 4.4% | 52.9hPa | 2.7V | 00:00:00 | 01:29:10 | 00:00:00 | |
| BIOWL9-15 | 2026-08-31 12:01:37 | 50.13396 | 8.65667 | 32° | 4km/h | 20634m | 3.9m/s | -53.2°C | 1.4% | 53.0hPa | 2.7V | 00:00:00 | 00:00:00 | 00:00:00 | |
| DL1NUX | 2026-08-31 12:01:36 | 50.13392 | 8.65660 | 52° | 13km/h | 20619m | 4.7m/s | -53.1°C | 4.3% | 53.2hPa | 2.7V | 03:46:26 | 01:29:05 | 00:00:00 | |
| DK7TD | 2026-08-31 12:01:34 | 50.13392 | 8.65660 | 53° | 13km/h | 20619m | 4.7m/s | -53.1°C | 1.2% | 53.2hPa | 2.7V | 03:47:07 | 01:29:05 | 00:00:00 | |
| HSKMA3-T | 2026-08-31 12:01:32 | 50.13388 | 8.65652 | 54° | 11km/h | 20610m | 5.4m/s | -53°C | 1.1% | 53.3hPa | 2.7V | 03:47:07 | 01:29:03 | 00:00:00 | |
| DM0DOS-11 | 2026-08-31 12:01:30 | 50.13385 | 8.65645 | 68° | 7km/h | 20595m | 4.4m/s | -53°C | 4.3% | 53.4hPa | 2.6V | 03:46:31 | 01:29:00 | 00:00:00 | |
| BIOWL1-15 | 2026-08-31 12:01:30 | 50.13386 | 8.65647 | 68° | 5km/h | 20600m | 4.1m/s | -53°C | 1.1% | 53.4hPa | 2.6V | 03:47:07 | 01:29:01 | 00:00:00 | |
| DH7VM-15 | 2026-08-31 12:01:28 | 50.13385 | 8.65645 | 69° | 7km/h | 20596m | 4.4m/s | -53.0°C | 1.4% | 53.4hPa | 2.6V | 00:00:00 | 00:00:00 | 00:00:00 | |
| DL1NUX | 2026-08-31 12:01:26 | 50.13381 | 8.65626 | 85° | 9km/h | 20570m | 5.8m/s | -52.8°C | 4.2% | 53.6hPa | 2.6V | 03:46:36 | 01:28:55 | 00:00:00 | |
| BUE01 | 2026-08-31 12:01:26 | 50.13381 | 8.65630 | 75° | 9km/h | 20576m | 4.7m/s | -52.9°C | 1.4% | 53.6hPa | 2.6V | 00:00:00 | 00:00:00 | 00:00:00 | |
| DM0DOS-11 | 2026-08-31 12:01:24 | 50.13379 | 8.65604 | 77° | 16km/h | 20545m | 4.2m/s | -52.7°C | 4.2% | 53.8hPa | 2.6V | 03:46:41 | 01:28:50 | 00:00:00 | |
| DL1XH-west | 2026-08-31 12:01:24 | 50.13381 | 8.65626 | 85° | 9km/h | 20570m | 5.8m/s | -52.8°C | 1% | 53.6hPa | 2.6V | 03:47:07 | 01:28:55 | 00:00:00 | |
| DK7TD | 2026-08-31 12:01:23 | 50.13381 | 8.65623 | 95° | 9km/h | 20565m | 4.7m/s | -52.7°C | 1.1% | 53.7hPa | 2.6V | 03:47:07 | 01:28:54 | 00:00:00 | |
| HSKMA3-T | 2026-08-31 12:01:21 | 50.13381 | 8.65615 | 80° | 13km/h | 20555m | 5.8m/s | -52.8°C | 1.1% | 53.7hPa | 2.7V | 03:47:07 | 01:28:52 | 00:00:00 | |
| BIOWL1-15 | 2026-08-31 12:01:20 | 50.13380 | 8.65610 | 75° | 15km/h | 20550m | 4.8m/s | -52.7°C | 1.1% | 53.8hPa | 2.7V | 03:47:07 | 01:28:51 | 00:00:00 | |
| NBG1-10 | 2026-08-31 12:01:20 | 50.13380 | 8.65610 | 76° | 22km/h | 20550m | 4.7m/s | -52.7°C | 4.2% | 53.7hPa | 2.7V | 00:00:00 | 01:28:51 | 00:00:00 | |
| DJ8HS-15 | 2026-08-31 12:01:19 | 50.13379 | 8.65604 | 78° | 16km/h | 20546m | 4.1m/s | -52.6°C | 4.2% | 53.7hPa | 2.7V | 00:00:00 | 01:28:50 | 00:00:00 | |
| DL3AQ-11 | 2026-08-31 12:01:18 | 50.13379 | 8.65592 | 96° | 15km/h | 20536m | 5.8m/s | -52.8°C | 1.4% | 53.9hPa | 2.7V | 00:00:00 | 00:00:00 | 00:00:00 | |
| SONCRA | 2026-08-31 12:01:17 | 50.13379 | 8.65592 | 96° | 15km/h | 20536m | 5.8m/s | -52.8°C | 1.4% | 53.9hPa | 2.7V | 00:00:00 | 00:00:00 | 00:00:00 | |
| DL1NUX | 2026-08-31 12:01:16 | 50.13380 | 8.65575 | 89° | 15km/h | 20519m | 6m/s | -52.9°C | 4.2% | 54hPa | 2.7V | 03:46:46 | 01:28:45 | 00:00:00 | |
| DL1XH-west | 2026-08-31 12:01:13 | 50.13380 | 8.65569 | 83° | 15km/h | 20514m | 4.7m/s | -53°C | 1.1% | 54.1hPa | 2.6V | 03:47:07 | 01:28:44 | 00:00:00 | |
| DK7TD | 2026-08-31 12:01:12 | 50.13379 | 8.65563 | 85° | 15km/h | 20510m | 4.7m/s | -53°C | 1.1% | 54.1hPa | 2.6V | 03:47:07 | 01:28:43 | 00:00:00 | |
| BIOWL1-15 | 2026-08-31 12:01:12 | 50.13380 | 8.65550 | 99° | 18km/h | 20498m | 5.7m/s | -53.1°C | 1.1% | 54.2hPa | 2.7V | 03:47:07 | 01:28:41 | 00:00:00 | |
| HSKMA3-T | 2026-08-31 12:01:11 | 50.13379 | 8.65557 | 91° | 16km/h | 20504m | 5.9m/s | -53°C | 1.1% | 54.1hPa | 2.6V | 03:47:07 | 01:28:42 | 00:00:00 | |
| DM0DOS-11 | 2026-08-31 12:01:10 | 50.13380 | 8.65543 | 100° | 20km/h | 20494m | 4.2m/s | -53.1°C | 4.2% | 54.2hPa | 2.7V | 03:46:51 | 01:28:40 | 00:00:00 | |
| DO9LL-15 | 2026-08-31 12:01:10 | 50.13380 | 8.65550 | 100° | 24km/h | 20499m | 5.6m/s | -53.0°C | 4.2% | 54.1hPa | 2.6V | 00:00:00 | 01:28:41 | 00:00:00 | |
| DL1XH1-15 | 2026-08-31 12:01:09 | 50.13380 | 8.65519 | 79° | 20km/h | 20478m | 5.2m/s | -53.1°C | 4.3% | 54.4hPa | 2.6V | 03:46:54 | 01:28:37 | 00:00:00 | |
| DL1NUX | 2026-08-31 12:01:06 | 50.13379 | 8.65504 | 81° | 18km/h | 20468m | 5.8m/s | -53.2°C | 4.3% | 54.4hPa | 2.7V | 03:46:56 | 01:28:35 | 00:00:00 | |
| SO1NDE-10 | 2026-08-31 12:01:06 | 50.13380 | 8.65519 | 80° | 24km/h | 20479m | 5.2m/s | -53.1°C | 4.3% | 54.3hPa | 2.6V | 00:00:00 | 01:28:37 | 00:00:00 | |
| DL3AQ-11 | 2026-08-31 12:01:05 | 50.13379 | 8.65504 | 81° | 16km/h | 20468m | 5.8m/s | -53.2°C | 1.4% | 54.5hPa | 2.6V | 00:00:00 | 00:00:00 | 00:00:00 | |
| DL1XH-15 | 2026-08-31 12:01:04 | 50.13377 | 8.65485 | 77° | 16km/h | 20454m | 4.5m/s | -53.1°C | 4.3% | 54.5hPa | 2.6V | 03:46:59 | 01:28:32 | 00:00:00 | |
| DL1XH-west | 2026-08-31 12:01:03 | 50.13378 | 8.65497 | 87° | 16km/h | 20462m | 5.2m/s | -53.1°C | 1.1% | 54.5hPa | 2.7V | 03:47:07 | 01:28:34 | 00:00:00 | |
| BIOWL1-15 | 2026-08-31 12:01:01 | 50.13364 | 8.65412 | 70° | 35km/h | 20411m | 5.3m/s | -53.1°C | 1.2% | 54.9hPa | 2.6V | 03:47:07 | 01:28:24 | 00:00:00 | |
| DK7TD | 2026-08-31 12:01:01 | 50.13377 | 8.65485 | 78° | 16km/h | 20454m | 4.5m/s | -53.1°C | 1.1% | 54.5hPa | 2.6V | 03:47:07 | 01:28:32 | 00:00:00 | |
| HSKMA3-T | 2026-08-31 12:01:00 | 50.13376 | 8.65479 | 69° | 16km/h | 20449m | 5.8m/s | -53.1°C | 1.1% | 54.6hPa | 2.6V | 03:47:07 | 01:28:31 | 00:00:00 | |
| DF3TZ-5 | 2026-08-31 12:01:00 | 50.13361 | 8.65399 | 68° | 35km/h | 20406m | 4.3m/s | 0°C | -1.0% | 55.0hPa | 2.7V | 00:00:00 | 00:00:00 | 00:00:00 | |
| DJ8HS-15 | 2026-08-31 12:00:59 | 50.13374 | 8.65472 | 67° | 26km/h | 20444m | 5.1m/s | -53.1°C | 4.4% | 54.6hPa | 2.7V | 03:47:00 | 01:28:30 | 00:00:00 | |
| DL1XH-15 | 2026-08-31 12:00:56 | 50.13358 | 8.65386 | 70° | 35km/h | 20401m | 5.6m/s | -53.1°C | 4.3% | 55hPa | 2.7V | 03:47:09 | 01:28:22 | 00:00:00 | |
| AA1-15 | 2026-08-31 12:00:53 | 50.13361 | 8.65399 | 69° | 35km/h | 20406m | 4.3m/s | -53.1°C | 1.1% | 55hPa | 2.7V | 03:48:49 | 01:28:23 | 00:00:00 | |
| HSKMA3-T | 2026-08-31 12:00:50 | 50.13355 | 8.65374 | 72° | 31km/h | 20396m | 5.6m/s | -53.1°C | 1.1% | 55.1hPa | 2.7V | 03:47:58 | 01:28:21 | 00:00:00 | |
| DL1ZP-14 | 2026-08-31 12:00:50 | 50.13353 | 8.65364 | 69° | 26km/h | 20391m | 4.6m/s | -53.1°C | 1.4% | 55.1hPa | 2.6V | 00:00:00 | 00:00:00 | 00:00:00 | |
| DL1NUX | 2026-08-31 12:00:49 | 50.13340 | 8.65327 | 67° | 16km/h | 20364m | 6m/s | -52.8°C | 4.3% | 55.3hPa | 2.7V | 03:47:16 | 01:28:15 | 00:00:00 | |
| DL9SK-14 | 2026-08-31 12:00:48 | 50.13348 | 8.65347 | 58° | 22km/h | 20380m | 5.8m/s | -53.0°C | 1.4% | 55.2hPa | 2.6V | 00:00:00 | 00:00:00 | 00:00:00 | |
| DD1CC8 | 2026-08-31 12:00:47 | 50.13348 | 8.65347 | 58° | 22km/h | 20380m | 5.8m/s | -53.0°C | 1.4% | 55.2hPa | 2.6V | 00:00:00 | 00:00:00 | 00:00:00 | |
| WPPR-10 | 2026-08-31 12:00:46 | 50.13342 | 8.65333 | 60° | 16km/h | 20370m | 5.5m/s | -52.9°C | 1.4% | 55.3hPa | 2.6V | 00:00:00 | 00:00:00 | 00:00:00 | |
| DF2AP-13 | 2026-08-31 12:00:45 | 50.13342 | 8.65333 | 61° | 18km/h | 20370m | 5.4m/s | -52.8°C | 4.3% | 55.2hPa | 2.6V | 00:00:00 | 01:28:16 | 00:00:00 | |
| DL1XH-15 | 2026-08-31 12:00:44 | 50.13335 | 8.65304 | 69° | 26km/h | 20349m | 5.9m/s | -52.9°C | 4.3% | 55.5hPa | 2.6V | 03:47:19 | 01:28:12 | 00:00:00 | |
| DK7TD | 2026-08-31 12:00:44 | 50.13340 | 8.65327 | 68° | 16km/h | 20364m | 6m/s | -52.8°C | 1.1% | 55.3hPa | 2.7V | 03:48:49 | 01:28:15 | 00:00:00 | |
| DM0DOS-11 | 2026-08-31 12:00:43 | 50.13330 | 8.65283 | 70° | 31km/h | 20339m | 4.2m/s | -53°C | 4.3% | 55.5hPa | 2.7V | 03:47:21 | 01:28:10 | 00:00:00 | |
| BIOWL1-15 | 2026-08-31 12:00:43 | 50.13337 | 8.65313 | 72° | 22km/h | 20354m | 4.7m/s | -52.9°C | 1.1% | 55.4hPa | 2.6V | 03:47:58 | 01:28:13 | 00:00:00 | |
| AA1-15 | 2026-08-31 12:00:42 | 50.13335 | 8.65304 | 70° | 26km/h | 20349m | 5.9m/s | -52.9°C | 1.1% | 55.5hPa | 2.6V | 03:48:49 | 01:28:12 | 00:00:00 | |
| HSKMA3-T | 2026-08-31 12:00:39 | 50.13330 | 8.65283 | 70° | 31km/h | 20339m | 4.2m/s | -53°C | 1.1% | 55.5hPa | 2.7V | 03:47:58 | 01:28:10 | 00:00:00 | |
| DL1XH1-15 | 2026-08-31 12:00:39 | 50.13324 | 8.65249 | 80° | 26km/h | 20324m | 4.3m/s | -52.7°C | 4.4% | 55.7hPa | 2.6V | 03:47:24 | 01:28:07 | 00:00:00 | |
| DL1NUX | 2026-08-31 12:00:39 | 50.13321 | 8.65232 | 66° | 20km/h | 20315m | 5.2m/s | -52.7°C | 4.4% | 55.7hPa | 2.7V | 03:47:26 | 01:28:05 | 00:00:00 | |
| DJ8HS-15 | 2026-08-31 12:00:39 | 50.13330 | 8.65283 | 71° | 20km/h | 20339m | 4.1m/s | -52.9°C | 4.3% | 55.5hPa | 2.7V | 00:00:00 | 01:28:10 | 00:00:00 | |
| DL3AQ-11 | 2026-08-31 12:00:38 | 50.13326 | 8.65259 | 78° | 29km/h | 20329m | 5.4m/s | -52.8°C | 1.4% | 55.6hPa | 2.6V | 00:00:00 | 00:00:00 | 00:00:00 | |
| DL1XH-15 | 2026-08-31 12:00:36 | 50.13313 | 8.65217 | 33° | 15km/h | 20300m | 4.6m/s | -52.6°C | 4.3% | 55.9hPa | 2.6V | 03:47:29 | 01:28:02 | 00:00:00 | |
| DK7TD | 2026-08-31 12:00:34 | 50.13321 | 8.65232 | 67° | 20km/h | 20315m | 5.2m/s | -52.7°C | 1.1% | 55.8hPa | 2.7V | 03:48:49 | 01:28:05 | 00:00:00 | |
| DM0DOS-11 | 2026-08-31 12:00:33 | 50.13308 | 8.65211 | 50° | 11km/h | 20288m | 5.3m/s | -52.5°C | 4.2% | 56hPa | 2.6V | 03:47:31 | 01:28:00 | 00:00:00 | |
| DL1XH-west | 2026-08-31 12:00:32 | 50.13316 | 8.65221 | 39° | 16km/h | 20305m | 5.1m/s | -52.6°C | 1.1% | 55.9hPa | 2.7V | 03:47:58 | 01:28:03 | 00:00:00 | |
| BIOWL1-15 | 2026-08-31 12:00:31 | 50.13313 | 8.65217 | 34° | 15km/h | 20300m | 4.6m/s | -52.6°C | 1.1% | 55.9hPa | 2.6V | 03:47:58 | 01:28:02 | 00:00:00 | |
| HSKMA3-T | 2026-08-31 12:00:28 | 50.13307 | 8.65208 | 64° | 11km/h | 20284m | 4.1m/s | -52.4°C | 1% | 56hPa | 2.7V | 03:47:58 | 01:27:59 | 00:00:00 | |
| DK5PH-5 | 2026-08-31 12:00:26 | 50.13303 | 8.65197 | 65° | 13km/h | 20274m | 5.8m/s | -52.4°C | 4.2% | 56.0hPa | 2.7V | 00:00:00 | 01:27:57 | 00:00:00 | |
| DL1XH-15 | 2026-08-31 12:00:25 | 50.13295 | 8.65161 | 71° | 16km/h | 20248m | 4.5m/s | -52.1°C | 4.3% | 56.3hPa | 2.7V | 03:47:39 | 01:27:52 | 00:00:00 | |
| DK7TD | 2026-08-31 12:00:23 | 50.13298 | 8.65175 | 74° | 20km/h | 20258m | 5.8m/s | -52.2°C | 1.1% | 56.2hPa | 2.6V | 03:48:49 | 01:27:54 | 00:00:00 | |
| DM0DOS-11 | 2026-08-31 12:00:22 | 50.13291 | 8.65149 | 54° | 15km/h | 20238m | 5.2m/s | -52.1°C | 4.2% | 56.4hPa | 2.6V | 03:47:41 | 01:27:50 | 00:00:00 | |
| DL1XH-west | 2026-08-31 12:00:22 | 50.13296 | 8.65167 | 75° | 18km/h | 20253m | 4.8m/s | -52.1°C | 1.1% | 56.3hPa | 2.7V | 03:47:58 | 01:27:53 | 00:00:00 | |
| BIOWL1-15 | 2026-08-31 12:00:20 | 50.13293 | 8.65155 | 63° | 16km/h | 20244m | 5.3m/s | -52.1°C | 1.1% | 56.4hPa | 2.7V | 03:47:58 | 01:27:51 | 00:00:00 | |
| HSKMA3-T | 2026-08-31 12:00:18 | 50.13289 | 8.65145 | 49° | 15km/h | 20234m | 4.2m/s | -52.1°C | 1% | 56.5hPa | 2.6V | 03:47:58 | 01:27:49 | 00:00:00 | |
| DL8DAS-15 | 2026-08-31 12:00:17 | 50.13287 | 8.65141 | 54° | 11km/h | 20230m | 4.6m/s | -52.1°C | 1.4% | 56.5hPa | 2.7V | 00:00:00 | 00:00:00 | 00:00:00 | |
| DB0NH | 2026-08-31 12:00:15 | 50.13285 | 8.65134 | 79° | 13km/h | 20219m | 4.9m/s | -52.1°C | 4.2% | 56.5hPa | 2.7V | 00:00:00 | 01:27:46 | 00:00:00 | |
| DM0DOS-11 | 2026-08-31 12:00:14 | 50.13280 | 8.65112 | 78° | 7km/h | 20183m | 4.6m/s | -51.7°C | 4.1% | 56.9hPa | 2.7V | 03:47:52 | 01:27:39 | 00:00:00 | |
| DL1XH-west | 2026-08-31 12:00:11 | 50.13282 | 8.65121 | 61° | 11km/h | 20199m | 4.1m/s | -51.9°C | 1% | 56.8hPa | 2.6V | 03:47:58 | 01:27:42 | 00:00:00 | |
| BIOWL1-15 | 2026-08-31 12:00:09 | 50.13280 | 8.65114 | 79° | 7km/h | 20188m | 5.8m/s | -51.8°C | 1% | 56.9hPa | 2.7V | 03:47:58 | 01:27:40 | 00:00:00 | |
| DL1NUX | 2026-08-31 12:00:09 | 50.13273 | 8.65102 | 26° | 11km/h | 20163m | 4.5m/s | -51.5°C | 4.1% | 57.1hPa | 2.7V | 03:47:56 | 01:27:35 | 00:00:00 | |
| HSKMA3-T | 2026-08-31 12:00:07 | 50.13279 | 8.65109 | 61° | 7km/h | 20179m | 4.8m/s | -51.7°C | 1% | 57hPa | 2.6V | 03:47:58 | 01:27:38 | 00:00:00 | |
| DK7TD | 2026-08-31 12:00:03 | 50.13271 | 8.65100 | 28° | 9km/h | 20158m | 5.8m/s | -51.6°C | 1% | 57.1hPa | 2.7V | 03:48:49 | 01:27:34 | 00:00:00 | |
| DM0DOS-11 | 2026-08-31 12:00:03 | 50.13260 | 8.65089 | 33° | 15km/h | 20132m | 4.6m/s | -51.4°C | 4% | 57.4hPa | 2.7V | 03:48:02 | 01:27:29 | 00:00:00 | |
| DL1XH-west | 2026-08-31 12:00:01 | 50.13267 | 8.65097 | 33° | 9km/h | 20148m | 4.5m/s | -51.5°C | 1% | 57.2hPa | 2.6V | 03:48:49 | 01:27:32 | 00:00:00 | |
| BIOWL1-15 | 2026-08-31 12:00:00 | 50.13260 | 8.65089 | 34° | 15km/h | 20133m | 4.6m/s | -51.4°C | 0.9% | 57.4hPa | 2.7V | 03:48:49 | 01:27:29 | 00:00:00 | |
| AA1-15 | 2026-08-31 11:59:59 | 50.13263 | 8.65092 | 32° | 13km/h | 20138m | 6m/s | -51.4°C | 1% | 57.3hPa | 2.6V | 03:48:49 | 01:27:30 | 00:00:00 | |
| DJ2DS-15 | 2026-08-31 11:59:59 | 50.13260 | 8.65089 | 33° | 13km/h | 20133m | 4.6m/s | -51.4°C | 1.3% | 57.4hPa | 2.7V | 00:00:00 | 00:00:00 | 00:00:00 | |
| DL1XH1-15 | 2026-08-31 11:59:58 | 50.13255 | 8.65083 | 52° | 9km/h | 20123m | 5.8m/s | -51.4°C | 4% | 57.5hPa | 2.7V | 03:48:04 | 01:27:27 | 00:00:00 | |
| HSKMA3-T | 2026-08-31 11:59:56 | 50.13255 | 8.65083 | 52° | 9km/h | 20123m | 5.8m/s | -51.4°C | 0.9% | 57.5hPa | 2.7V | 03:48:49 | 01:27:27 | 00:00:00 | |
| S3001 | 2026-08-31 11:59:55 | 50.13254 | 8.65077 | 99° | 7km/h | 20113m | 3.8m/s | 0°C | -1.0% | -1.0hPa | 2.6V | 00:00:00 | 00:00:00 | 00:00:00 | |
| DL4BBY-15 | 2026-08-31 11:59:54 | 50.13254 | 8.65077 | 100° | 9km/h | 20113m | 3.7m/s | -50.8°C | 0% | 0hPa | 2.6V | 00:00:00 | 00:00:00 | 00:00:00 | |
| DM0DOS-11 | 2026-08-31 11:59:52 | 50.13251 | 8.65065 | 7° | 4km/h | 20084m | 4.9m/s | -51.5°C | 4% | 57.8hPa | 2.6V | 03:48:12 | 01:27:19 | 00:00:00 | |
| DL1XH-west | 2026-08-31 11:59:51 | 50.13254 | 8.65068 | 65° | 7km/h | 20099m | 4.9m/s | -51.6°C | 1% | 57.7hPa | 2.7V | 03:48:49 | 01:27:22 | 00:00:00 | |
| DK7TD | 2026-08-31 11:59:50 | 50.13253 | 8.65066 | 43° | 5km/h | 20094m | 4.1m/s | -51.6°C | 1% | 57.7hPa | 2.7V | 03:48:49 | 01:27:21 | 00:00:00 | |
| DL1NUX | 2026-08-31 11:59:49 | 50.13243 | 8.65060 | 30° | 15km/h | 20065m | 5.1m/s | -51.4°C | 3.9% | 58hPa | 2.7V | 03:48:16 | 01:27:15 | 00:00:00 | |
| AA1-15 | 2026-08-31 11:59:49 | 50.13251 | 8.65065 | 8° | 4km/h | 20084m | 4.9m/s | -51.5°C | 0.9% | 57.8hPa | 2.6V | 03:48:49 | 01:27:19 | 00:00:00 | |
| DL1XH1-15 | 2026-08-31 11:59:48 | 50.13248 | 8.65064 | 19° | 7km/h | 20075m | 4.2m/s | -51.5°C | 3.9% | 57.9hPa | 2.7V | 03:48:14 | 01:27:17 | 00:00:00 | |
| BIOWL1-15 | 2026-08-31 11:59:47 | 50.13250 | 8.65064 | 6° | 5km/h | 20080m | 4.3m/s | -51.5°C | 0.9% | 57.8hPa | 2.6V | 03:48:49 | 01:27:18 | 00:00:00 | |
| DB0ND-19 | 2026-08-31 11:59:47 | 50.13248 | 8.65064 | 19° | 7km/h | 20076m | 4.2m/s | -51.5°C | 1.3% | 57.9hPa | 2.6V | 00:00:00 | 00:00:00 | 00:00:00 | |
| DL1XH-15 | 2026-08-31 11:59:46 | 50.13234 | 8.65051 | 36° | 9km/h | 20051m | 5.7m/s | -51.3°C | 3.9% | 58.1hPa | 2.6V | 03:48:19 | 01:27:12 | 00:00:00 | |
| HSKMA3-T | 2026-08-31 11:59:46 | 50.13248 | 8.65064 | 19° | 7km/h | 20076m | 4.2m/s | -51.5°C | 0.9% | 57.9hPa | 2.7V | 03:48:49 | 01:27:17 | 00:00:00 | |
| DL3AQ-11 | 2026-08-31 11:59:45 | 50.13243 | 8.65060 | 30° | 15km/h | 20065m | 5.1m/s | -51.4°C | 1.3% | 58.0hPa | 2.7V | 00:00:00 | 00:00:00 | 00:00:00 | |
| SONCRA | 2026-08-31 11:59:44 | 50.13239 | 8.65056 | 33° | 15km/h | 20060m | 4.0m/s | -51.3°C | 1.3% | 58.0hPa | 2.7V | 00:00:00 | 00:00:00 | 00:00:00 | |
| DM0DOS-11 | 2026-08-31 11:59:42 | 50.13232 | 8.65048 | 127° | 2km/h | 20036m | 5.3m/s | -51.4°C | 3.9% | 58.2hPa | 2.7V | 03:48:22 | 01:27:09 | 00:00:00 | |
| DL1XH-west | 2026-08-31 11:59:40 | 50.13233 | 8.65049 | 44° | 4km/h | 20046m | 5.1m/s | -51.3°C | 0.8% | 58.1hPa | 2.7V | 03:48:49 | 01:27:11 | 00:00:00 | |
| DK7TD | 2026-08-31 11:59:39 | 50.13232 | 8.65048 | 71° | 2km/h | 20041m | 4.4m/s | -51.3°C | 0.9% | 58.2hPa | 2.7V | 03:48:49 | 01:27:10 | 00:00:00 | |
| DL1NUX | 2026-08-31 11:59:39 | 50.13230 | 8.65047 | 337° | 5km/h | 20017m | 5.4m/s | -51.6°C | 4% | 58.4hPa | 2.7V | 03:48:26 | 01:27:05 | 00:00:00 | |
| AA1-15 | 2026-08-31 11:59:38 | 50.13232 | 8.65047 | 34° | 2km/h | 20026m | 4.6m/s | -51.4°C | 0.9% | 58.3hPa | 2.6V | 03:48:49 | 01:27:07 | 00:00:00 | |
| DL1XH1-15 | 2026-08-31 11:59:38 | 50.13232 | 8.65047 | 33° | 2km/h | 20026m | 4.6m/s | -51.4°C | 4% | 58.3hPa | 2.6V | 03:48:24 | 01:27:07 | 00:00:00 | |
| BIOWL1-15 | 2026-08-31 11:59:37 | 50.13230 | 8.65047 | 338° | 5km/h | 20017m | 5.4m/s | -51.6°C | 0.9% | 58.4hPa | 2.7V | 03:48:49 | 01:27:05 | 00:00:00 | |
| HSKMA3-T | 2026-08-31 11:59:35 | 50.13231 | 8.65046 | 5° | 4km/h | 20021m | 4.1m/s | -51.5°C | 0.9% | 58.4hPa | 2.6V | 03:48:49 | 01:27:06 | 00:00:00 | |
| DL3AQ-11 | 2026-08-31 11:59:34 | 50.13229 | 8.65048 | 327° | 5km/h | 20011m | 5.4m/s | -51.6°C | 1.3% | 58.5hPa | 2.7V | 00:00:00 | 00:00:00 | 00:00:00 | |
| BIOWL9-15 | 2026-08-31 11:59:33 | 50.13229 | 8.65048 | 327° | 5km/h | 20011m | 5.4m/s | -51.6°C | 1.3% | 58.5hPa | 2.7V | 00:00:00 | 00:00:00 | 00:00:00 | |
| DM0DOS-11 | 2026-08-31 11:59:32 | 50.13216 | 8.65043 | 36° | 18km/h | 19986m | 4.2m/s | -51.8°C | 3.9% | 58.7hPa | 2.7V | 03:48:32 | 01:26:59 | 00:00:00 | |
| DL1XH1-15 | 2026-08-31 11:59:28 | 50.13208 | 8.65035 | 26° | 18km/h | 19975m | 5.6m/s | -52.1°C | 4% | 58.8hPa | 2.7V | 03:48:34 | 01:26:57 | 00:00:00 | |
| DK7TD | 2026-08-31 11:59:28 | 50.13216 | 8.65043 | 37° | 18km/h | 19986m | 4.2m/s | -51.8°C | 0.9% | 58.7hPa | 2.7V | 03:48:49 | 01:26:59 | 00:00:00 | |
| DL1NUX | 2026-08-31 11:59:28 | 50.13200 | 8.65029 | 27° | 18km/h | 19965m | 5.5m/s | -52.1°C | 4.1% | 58.8hPa | 2.6V | 03:48:36 | 01:26:55 | 00:00:00 | |
| AA1-15 | 2026-08-31 11:59:28 | 50.13212 | 8.65039 | 33° | 18km/h | 19981m | 5.7m/s | -52°C | 0.8% | 58.7hPa | 2.7V | 03:48:49 | 01:26:58 | 00:00:00 | |
| HSKMA3-T | 2026-08-31 11:59:24 | 50.13200 | 8.65029 | 27° | 18km/h | 19965m | 5.5m/s | -52.2°C | 1% | 58.8hPa | 2.6V | 03:48:49 | 01:26:55 | 00:00:00 | |
| DL4BBY-15 | 2026-08-31 11:59:24 | 50.13200 | 8.65029 | 28° | 16km/h | 19965m | 5.5m/s | -51.5°C | 0% | 0hPa | 2.7V | 00:00:00 | 00:00:00 | 00:00:00 | |
| BUE01 | 2026-08-31 11:59:21 | 50.13188 | 8.65019 | 20° | 16km/h | 19949m | 5.4m/s | -52.1°C | 1.4% | 59.0hPa | 2.7V | 00:00:00 | 00:00:00 | 00:00:00 | |
| DB0NH | 2026-08-31 11:59:20 | 50.13184 | 8.65018 | 11° | 16km/h | 19944m | 5.5m/s | -52.0°C | 4.3% | 59.0hPa | 2.7V | 03:48:00 | 01:26:51 | 00:00:00 | |
| DJ8HS-15 | 2026-08-31 11:59:19 | 50.13180 | 8.65016 | 9° | 16km/h | 19939m | 4.1m/s | -52.0°C | 4.3% | 59.1hPa | 2.7V | 00:00:00 | 01:26:50 | 00:00:00 | |
| DL1XH1-15 | 2026-08-31 11:59:18 | 50.13166 | 8.65011 | 21° | 20km/h | 19925m | 4.4m/s | -52.1°C | 4.1% | 59.2hPa | 2.7V | 03:48:44 | 01:26:47 | 00:00:00 | |
| DL1NUX | 2026-08-31 11:59:18 | 50.13157 | 8.65006 | 11° | 20km/h | 19915m | 5.6m/s | -52.1°C | 4.1% | 59.3hPa | 2.7V | 03:48:46 | 01:26:45 | 00:00:00 | |
| DK7TD | 2026-08-31 11:59:17 | 50.13171 | 8.65013 | 20° | 18km/h | 19930m | 5.4m/s | -52°C | 1% | 59.2hPa | 2.6V | 03:48:49 | 01:26:48 | 00:00:00 | |
| AA1-15 | 2026-08-31 11:59:16 | 50.13166 | 8.65011 | 22° | 20km/h | 19925m | 4.4m/s | -52.1°C | 0.9% | 59.2hPa | 2.7V | 03:48:49 | 01:26:47 | 00:00:00 | |
| HSKMA3-T | 2026-08-31 11:59:14 | 50.13157 | 8.65006 | 11° | 20km/h | 19915m | 5.6m/s | -52.2°C | 1% | 59.3hPa | 2.7V | 03:48:49 | 01:26:45 | 00:00:00 | |
| BIOWL1-15 | 2026-08-31 11:59:14 | 50.13146 | 8.65003 | 11° | 20km/h | 19906m | 4.5m/s | -52.2°C | 0.9% | 59.4hPa | 2.6V | 03:48:49 | 01:26:43 | 00:00:00 | |
| SONCRA | 2026-08-31 11:59:13 | 50.13146 | 8.65003 | 11° | 18km/h | 19906m | 4.5m/s | -52.2°C | 1.3% | 59.4hPa | 2.6V | 00:00:00 | 00:00:00 | 00:00:00 | |
| CB1BUN | 2026-08-31 11:59:09 | 50.13134 | 8.64997 | 19° | 15km/h | 19890m | 5.3m/s | -52.0°C | 1.3% | 59.6hPa | 2.6V | 03:49:00 | 00:00:00 | 00:00:00 | |
| DL1XH1-15 | 2026-08-31 11:59:08 | 50.13125 | 8.64994 | 15° | 13km/h | 19876m | 3.9m/s | -51.9°C | 4.1% | 59.6hPa | 2.6V | 03:48:54 | 01:26:37 | 00:00:00 | |
| DL1NUX | 2026-08-31 11:59:08 | 50.13118 | 8.64990 | 31° | 16km/h | 19867m | 4.8m/s | -51.8°C | 4% | 59.8hPa | 2.7V | 03:48:56 | 01:26:35 | 00:00:00 | |
| DL1XH-west | 2026-08-31 11:59:07 | 50.13128 | 8.64995 | 9° | 11km/h | 19880m | 3.7m/s | -51.9°C | 0.9% | 59.7hPa | 2.6V | 03:49:40 | 01:26:38 | 00:00:00 | |
| AA1-15 | 2026-08-31 11:59:05 | 50.13118 | 8.64990 | 32° | 16km/h | 19867m | 4.9m/s | -51.8°C | 0.9% | 59.8hPa | 2.7V | 03:49:40 | 01:26:35 | 00:00:00 | |
| BIOWL1-15 | 2026-08-31 11:59:03 | 50.13115 | 8.64986 | 29° | 16km/h | 19862m | 4.4m/s | -51.8°C | 0.9% | 59.8hPa | 2.7V | 03:49:40 | 01:26:34 | 00:00:00 | |
| BIOWL9-15 | 2026-08-31 11:59:02 | 50.13107 | 8.64981 | 12° | 16km/h | 19852m | 4.8m/s | -51.8°C | 1.3% | 59.9hPa | 2.7V | 00:00:00 | 00:00:00 | 00:00:00 | |
| HEMX73-11 | 2026-08-31 11:59:01 | 50.13106 | 8.64981 | 13° | 18km/h | 19852m | 4.8m/s | -51.8°C | 1.3% | 59.9hPa | 2.7V | 03:49:00 | 00:00:00 | 00:00:00 | |
| DJ8HS-15 | 2026-08-31 11:58:59 | 50.13098 | 8.64979 | 9° | 15km/h | 19844m | 3.7m/s | -51.8°C | 4.0% | 59.9hPa | 2.7V | 00:00:00 | 01:26:30 | 00:00:00 | |
| DL1XH1-15 | 2026-08-31 11:58:58 | 50.13087 | 8.64972 | 37° | 15km/h | 19830m | 4.3m/s | -52°C | 4.1% | 60.1hPa | 2.7V | 03:49:04 | 01:26:27 | 00:00:00 | |
| DO9LL-15 | 2026-08-31 11:58:58 | 50.13094 | 8.64978 | 19° | 44km/h | 19840m | 5.0m/s | -51.9°C | 4.0% | 60.0hPa | 2.7V | 00:00:00 | 01:26:29 | 00:00:00 | |
| DL1NUX | 2026-08-31 11:58:57 | 50.13081 | 8.64966 | 30° | 15km/h | 19820m | 5.4m/s | -52.1°C | 4.1% | 60.2hPa | 2.6V | 03:49:06 | 01:26:25 | 00:00:00 | |
| DK7TD | 2026-08-31 11:58:57 | 50.13091 | 8.64976 | 31° | 15km/h | 19834m | 5.1m/s | -52°C | 1% | 60hPa | 2.7V | 03:49:40 | 01:26:28 | 00:00:00 | |
| DL1XH-west | 2026-08-31 11:58:56 | 50.13088 | 8.64972 | 37° | 15km/h | 19830m | 4.3m/s | -52°C | 1% | 60.1hPa | 2.7V | 03:49:40 | 01:26:27 | 00:00:00 | |
| BIOWL1-15 | 2026-08-31 11:58:55 | 50.13078 | 8.64963 | 30° | 13km/h | 19815m | 4.6m/s | -52.2°C | 1% | 60.2hPa | 2.6V | 03:49:40 | 01:26:24 | 00:00:00 | |
| AA1-15 | 2026-08-31 11:58:55 | 50.13081 | 8.64966 | 31° | 15km/h | 19820m | 5.4m/s | -52.1°C | 0.9% | 0hPa | 2.6V | 03:49:40 | 01:26:25 | 00:00:00 | |
| HSKMA3-T | 2026-08-31 11:58:52 | 50.13076 | 8.64960 | 36° | 13km/h | 19810m | 5.6m/s | -52.3°C | 1% | 60.3hPa | 2.7V | 03:49:40 | 01:26:23 | 00:00:00 | |
| DM0DOS-11 | 2026-08-31 11:58:51 | 50.13064 | 8.64950 | 16° | 13km/h | 19791m | 4.8m/s | -52.3°C | 4.1% | 60.5hPa | 2.6V | 03:49:12 | 01:26:19 | 00:00:00 | |
| DC4HF-4 | 2026-08-31 11:58:50 | 50.13067 | 8.64951 | 23° | 13km/h | 19796m | 5.2m/s | -52.3°C | 1.3% | 60.4hPa | 2.7V | 00:00:00 | 00:00:00 | 00:00:00 | |
| DL1NUX | 2026-08-31 11:58:49 | 50.13053 | 8.64938 | 54° | 15km/h | 19772m | 4.3m/s | -52.4°C | 4.1% | 60.6hPa | 2.7V | 03:49:16 | 01:26:15 | 00:00:00 | |
| DK7TD | 2026-08-31 11:58:46 | 50.13058 | 8.64946 | 30° | 13km/h | 19782m | 5.1m/s | -52.5°C | 1% | 60.6hPa | 2.7V | 03:49:40 | 01:26:17 | 00:00:00 | |
| DL1ZP-14 | 2026-08-31 11:58:46 | 50.13055 | 8.64943 | 45° | 13km/h | 19777m | 5.2m/s | -52.4°C | 1.3% | 60.6hPa | 2.7V | 00:00:00 | 00:00:00 | 00:00:00 | |
| BIOWL1-15 | 2026-08-31 11:58:45 | 50.13051 | 8.64934 | 56° | 15km/h | 19767m | 5m/s | -52.4°C | 1% | 60.7hPa | 2.6V | 03:49:40 | 01:26:14 | 00:00:00 | |
| HSKMA3-T | 2026-08-31 11:58:42 | 50.13049 | 8.64929 | 55° | 13km/h | 19762m | 4.8m/s | -52.4°C | 1% | 60.7hPa | 2.6V | 03:49:40 | 01:26:13 | 00:00:00 | |
| SONCRA | 2026-08-31 11:58:42 | 50.13047 | 8.64925 | 61° | 11km/h | 19758m | 3.9m/s | -52.3°C | 1.3% | 60.8hPa | 2.7V | 00:00:00 | 00:00:00 | 00:00:00 | |
| DD8BA-10 | 2026-08-31 11:58:41 | 50.13047 | 8.64925 | 62° | 15km/h | 19758m | 3.9m/s | 0°C | 0% | 0hPa | 2.7V | 00:00:00 | 00:00:00 | 00:00:00 | |
| HEMX73-11 | 2026-08-31 11:58:40 | 50.13045 | 8.64920 | 72° | 13km/h | 19754m | 5.0m/s | -52.3°C | 1.3% | 60.8hPa | 2.7V | 03:49:00 | 00:00:00 | 00:00:00 | |
| DL1NUX | 2026-08-31 11:58:39 | 50.13037 | 8.64894 | 45° | 13km/h | 19727m | 4.1m/s | -52.3°C | 4.1% | 61hPa | 2.7V | 03:49:26 | 01:26:05 | 00:00:00 | |
| DK7TD | 2026-08-31 11:58:36 | 50.13041 | 8.64901 | 51° | 11km/h | 19735m | 5.1m/s | -52.3°C | 1% | 61hPa | 2.6V | 03:49:40 | 01:26:07 | 00:00:00 | |
| DL1XH-west | 2026-08-31 11:58:35 | 50.13037 | 8.64894 | 45° | 13km/h | 19727m | 4.1m/s | -52.3°C | 1% | 61.1hPa | 2.7V | 03:49:40 | 01:26:05 | 00:00:00 | |
| AA1-15 | 2026-08-31 11:58:33 | 50.13032 | 8.64884 | 64° | 16km/h | 19717m | 4.6m/s | -52.3°C | 1% | 0hPa | 2.7V | 03:49:40 | 01:26:03 | 00:00:00 | |
| HSKMA3-T | 2026-08-31 11:58:31 | 50.13031 | 8.64878 | 71° | 18km/h | 19713m | 3.9m/s | -52.4°C | 1% | 61.2hPa | 2.6V | 03:49:40 | 01:26:02 | 00:00:00 | |
| DH7VM-15 | 2026-08-31 11:58:31 | 50.13030 | 8.64878 | 72° | 18km/h | 19713m | 3.9m/s | -52.4°C | 1.3% | 61.2hPa | 2.6V | 00:00:00 | 00:00:00 | 00:00:00 | |
| DO1YAY-16 | 2026-08-31 11:58:30 | 50.13029 | 8.64871 | 75° | 15km/h | 19708m | 5.2m/s | -52.3°C | 1.4% | 61.2hPa | 2.6V | 00:00:00 | 00:00:00 | 00:00:00 | |
| DL1NUX | 2026-08-31 11:58:28 | 50.13034 | 8.64829 | 107° | 18km/h | 19681m | 4.5m/s | -52.4°C | 4.1% | 61.5hPa | 2.6V | 03:49:36 | 01:25:55 | 00:00:00 | |
| DK7TD | 2026-08-31 11:58:25 | 50.13033 | 8.64836 | 110° | 22km/h | 19686m | 4.1m/s | -52.4°C | 1% | 61.5hPa | 2.6V | 03:49:40 | 01:25:56 | 00:00:00 | |
| DL1XH-west | 2026-08-31 11:58:23 | 50.13035 | 8.64822 | 101° | 15km/h | 19676m | 5.1m/s | -52.5°C | 0.9% | 61.6hPa | 2.6V | 03:49:40 | 01:25:54 | 00:00:00 | |
| AA1-15 | 2026-08-31 11:58:22 | 50.13036 | 8.64817 | 85° | 13km/h | 19672m | 3.9m/s | 0°C | 0% | 0hPa | 2.7V | 03:49:40 | 01:25:53 | 00:00:00 | |
| BIOWL1-15 | 2026-08-31 11:58:21 | 50.13035 | 8.64812 | 69° | 15km/h | 19668m | 3.9m/s | -52.5°C | 1% | 61.6hPa | 2.7V | 03:49:40 | 01:25:52 | 00:00:00 | |
| DK7TD | 2026-08-31 11:58:14 | 50.13019 | 8.64758 | 78° | 27km/h | 19636m | 5.2m/s | -52.6°C | 1.1% | 61.9hPa | 2.7V | 03:50:31 | 01:25:45 | 00:00:00 | |
| BIOWL1-15 | 2026-08-31 11:58:14 | 50.13018 | 8.64710 | 96° | 27km/h | 19618m | 4.9m/s | -52.4°C | 1% | 62.1hPa | 2.7V | 03:50:31 | 01:25:41 | 00:00:00 | |
| DL1XH-west | 2026-08-31 11:58:13 | 50.13017 | 8.64747 | 84° | 31km/h | 19631m | 5m/s | -52.5°C | 1% | 62hPa | 2.6V | 03:50:31 | 01:25:44 | 00:00:00 | |
| HSKMA3-T | 2026-08-31 11:58:11 | 50.13017 | 8.64722 | 93° | 31km/h | 19623m | 4.3m/s | -52.5°C | 1.1% | 62.1hPa | 2.6V | 03:50:31 | 01:25:42 | 00:00:00 | |
| SONCRA | 2026-08-31 11:58:11 | 50.13018 | 8.64710 | 95° | 26km/h | 19618m | 4.9m/s | -52.4°C | 1.4% | 62.1hPa | 2.6V | 00:00:00 | 00:00:00 | 00:00:00 | |
| DM0DOS-11 | 2026-08-31 11:58:09 | 50.13018 | 8.64675 | 80° | 22km/h | 19600m | 4.6m/s | -52.2°C | 4.2% | 62.3hPa | 2.6V | 03:49:54 | 01:25:37 | 00:00:00 | |
| DK7TD | 2026-08-31 11:58:03 | 50.13015 | 8.64651 | 82° | 18km/h | 19586m | 4.8m/s | -52.2°C | 1% | 62.4hPa | 2.7V | 03:50:31 | 01:25:34 | 00:00:00 | |
| HSKMA3-T | 2026-08-31 11:58:01 | 50.13014 | 8.64636 | 82° | 22km/h | 19577m | 5.4m/s | -52.1°C | 1% | 62.5hPa | 2.6V | 03:50:31 | 01:25:32 | 00:00:00 | |
| AA1-15 | 2026-08-31 11:58:01 | 50.13013 | 8.64627 | 82° | 24km/h | 19572m | 5m/s | 0°C | 0% | 0hPa | 2.6V | 18:12:15 | 01:25:31 | 00:00:00 | |
| BIOWL1-15 | 2026-08-31 11:57:59 | 50.13012 | 8.64618 | 86° | 24km/h | 19567m | 3.8m/s | -52°C | 1% | 62.6hPa | 2.6V | 03:50:31 | 01:25:30 | 00:00:00 | |
| DL3AQ-11 | 2026-08-31 11:57:58 | 50.13012 | 8.64600 | 93° | 20km/h | 19558m | 4.2m/s | -52.0°C | 1.4% | 62.7hPa | 2.6V | 00:00:00 | 00:00:00 | 00:00:00 | |
| NBG1-10 | 2026-08-31 11:57:57 | 50.13012 | 8.64600 | 94° | 24km/h | 19558m | 4.2m/s | -51.9°C | 4.1% | 62.6hPa | 2.6V | 00:00:00 | 01:25:28 | 00:00:00 | |
| DM0DOS-11 | 2026-08-31 11:57:57 | 50.13013 | 8.64592 | 92° | 20km/h | 19554m | 3.7m/s | -51.9°C | 4.1% | 62.8hPa | 2.7V | 03:50:04 | 01:25:27 | 00:00:00 | |
| DL1NUX | 2026-08-31 11:57:56 | 50.13012 | 8.64575 | 82° | 22km/h | 19544m | 5.2m/s | -51.9°C | 4.1% | 62.8hPa | 2.6V | 03:50:06 | 01:25:25 | 00:00:00 | |
| DL1XH-west | 2026-08-31 11:57:53 | 50.13011 | 8.64567 | 77° | 22km/h | 19540m | 4.4m/s | -51.8°C | 1% | 62.9hPa | 2.6V | 03:50:31 | 01:25:24 | 00:00:00 | |
| AA1-15 | 2026-08-31 11:57:50 | 50.13008 | 8.64544 | 85° | 18km/h | 19526m | 4.4m/s | 0°C | 0% | 0hPa | 2.7V | 18:12:15 | 01:25:21 | 00:00:00 | |
| DK7TD | 2026-08-31 11:57:49 | 50.13008 | 8.64537 | 88° | 18km/h | 19522m | 3.3m/s | -51.7°C | 1% | 63hPa | 2.6V | 03:50:31 | 01:25:20 | 00:00:00 | |
| BIOWL1-15 | 2026-08-31 11:57:48 | 50.13007 | 8.64522 | 80° | 22km/h | 19513m | 4.9m/s | -51.7°C | 0.9% | 63.1hPa | 2.6V | 03:50:31 | 01:25:18 | 00:00:00 | |
| BUE01 | 2026-08-31 11:57:48 | 50.13008 | 8.64530 | 82° | 18km/h | 19518m | 4.4m/s | -51.8°C | -1.0% | -1.0hPa | 2.7V | 00:00:00 | 00:00:00 | 00:00:00 | |
| DL1NUX | 2026-08-31 11:57:47 | 50.13004 | 8.64493 | 86° | 24km/h | 19499m | 5.6m/s | -51.7°C | 4.1% | 63.2hPa | 2.7V | 03:50:16 | 01:25:15 | 00:00:00 | |
| DL1XH-west | 2026-08-31 11:57:42 | 50.13004 | 8.64473 | 88° | 26km/h | 19490m | 4.5m/s | -51.7°C | 0.9% | 63.4hPa | 2.6V | 03:50:31 | 01:25:13 | 00:00:00 | |
| DB0ND-19 | 2026-08-31 11:57:42 | 50.13004 | 8.64473 | 88° | 26km/h | 19490m | 4.5m/s | -51.7°C | 1.3% | 63.4hPa | 2.6V | 00:00:00 | 00:00:00 | 00:00:00 | |
| DM0DOS-11 | 2026-08-31 11:57:41 | 50.13000 | 8.64410 | 84° | 27km/h | 19462m | 4m/s | -51.7°C | 4.1% | 63.6hPa | 2.6V | 03:50:24 | 01:25:07 | 00:00:00 | |
| HSKMA3-T | 2026-08-31 11:57:40 | 50.13002 | 8.64452 | 83° | 27km/h | 19479m | 4.2m/s | -51.7°C | 0.9% | 63.4hPa | 2.7V | 03:50:31 | 01:25:11 | 00:00:00 | |
| BIOWL1-15 | 2026-08-31 11:57:38 | 50.13001 | 8.64431 | 86° | 26km/h | 19471m | 4.8m/s | -51.7°C | 0.9% | 63.5hPa | 2.7V | 03:50:31 | 01:25:09 | 00:00:00 | |
| DL1XH-west | 2026-08-31 11:57:32 | 50.12994 | 8.64354 | 84° | 26km/h | 19439m | 4.8m/s | -51.7°C | 0.9% | 63.9hPa | 2.6V | 03:50:31 | 01:25:02 | 00:00:00 | |
| HSKMA3-T | 2026-08-31 11:57:31 | 50.12994 | 8.64344 | 86° | 24km/h | 19435m | 4.3m/s | -51.7°C | 0.9% | 63.9hPa | 2.6V | 03:50:31 | 01:25:01 | 00:00:00 | |
| DM0DOS-11 | 2026-08-31 11:57:29 | 50.12988 | 8.64306 | 70° | 26km/h | 19416m | 4.1m/s | -51.6°C | 4.1% | 64.1hPa | 2.7V | 03:50:34 | 01:24:57 | 00:00:00 | |
| BIOWL9-15 | 2026-08-31 11:57:29 | 50.12992 | 8.64325 | 77° | 24km/h | 19425m | 4.9m/s | -51.6°C | 1.3% | 64.0hPa | 2.6V | 00:00:00 | 00:00:00 | 00:00:00 | |
| DL1XH1-15 | 2026-08-31 11:57:28 | 50.12986 | 8.64297 | 70° | 24km/h | 19412m | 5.5m/s | -51.6°C | 4.1% | 64.1hPa | 2.6V | 03:50:35 | 01:24:56 | 00:00:00 | |
| BIOWL1-15 | 2026-08-31 11:57:27 | 50.12988 | 8.64306 | 71° | 26km/h | 19417m | 4.1m/s | -51.6°C | 0.9% | 64.1hPa | 2.7V | 03:51:22 | 01:24:57 | 00:00:00 | |
| DK7TD | 2026-08-31 11:57:27 | 50.12990 | 8.64315 | 72° | 26km/h | 19421m | 3.9m/s | -51.7°C | 0.9% | 64hPa | 2.7V | 03:52:13 | 01:24:58 | 00:00:00 | |
| DL1XH-west | 2026-08-31 11:57:20 | 50.12974 | 8.64255 | 62° | 26km/h | 19388m | 3.8m/s | -51.4°C | 1% | 64.4hPa | 2.7V | 03:51:22 | 01:24:51 | 00:00:00 | |
| HSKMA3-T | 2026-08-31 11:57:19 | 50.12971 | 8.64246 | 64° | 24km/h | 19384m | 4.7m/s | -51.3°C | 0.9% | 64.4hPa | 2.6V | 03:51:22 | 01:24:50 | 00:00:00 | |
| DL1NUX | 2026-08-31 11:57:19 | 50.12961 | 8.64209 | 67° | 18km/h | 19360m | 3.7m/s | -51.1°C | 4% | 64.6hPa | 2.7V | 03:50:46 | 01:24:45 | 00:00:00 | |
| DJ8HS-15 | 2026-08-31 11:57:19 | 50.12971 | 8.64246 | 65° | 20km/h | 19384m | 4.7m/s | -51.3°C | 4.0% | 64.3hPa | 2.7V | 00:00:00 | 01:24:50 | 00:00:00 | |
| DM0DOS-11 | 2026-08-31 11:57:17 | 50.12965 | 8.64223 | 66° | 20km/h | 19369m | 5.2m/s | -51.2°C | 4% | 64.6hPa | 2.7V | 03:50:44 | 01:24:47 | 00:00:00 | |
| BIOWL1-15 | 2026-08-31 11:57:17 | 50.12966 | 8.64230 | 68° | 20km/h | 19374m | 4.4m/s | -51.2°C | 0.9% | 64.5hPa | 2.6V | 03:51:22 | 01:24:48 | 00:00:00 | |
| DL1XH1-15 | 2026-08-31 11:57:15 | 50.12962 | 8.64216 | 65° | 18km/h | 19364m | 4.6m/s | -51.1°C | 4% | 64.6hPa | 2.7V | 03:50:45 | 01:24:46 | 00:00:00 | |
| DF2AP-13 | 2026-08-31 11:57:15 | 50.12962 | 8.64216 | 66° | 22km/h | 19365m | 4.6m/s | -51.1°C | 4.0% | 64.5hPa | 2.7V | 03:50:00 | 01:24:46 | 00:00:00 | |
| HEMX73-6 | 2026-08-31 11:57:14 | 50.12960 | 8.64209 | 68° | 35km/h | 19360m | 3.6m/s | -51.0°C | 4.0% | 64.6hPa | 2.7V | 00:00:00 | 01:24:45 | 00:00:00 | |
| DL1ZP-14 | 2026-08-31 11:57:12 | 50.12958 | 8.64198 | 82° | 11km/h | 19351m | 5.2m/s | -51.1°C | 1.3% | 64.7hPa | 2.6V | 00:00:00 | 00:00:00 | 00:00:00 | |
| DM0DOS-11 | 2026-08-31 11:57:11 | 50.12951 | 8.64152 | 69° | 29km/h | 19324m | 4.6m/s | -51°C | 3.9% | 65hPa | 2.6V | 03:50:54 | 01:24:37 | 00:00:00 | |
| DL1XH-west | 2026-08-31 11:57:10 | 50.12957 | 8.64181 | 77° | 20km/h | 19338m | 5.4m/s | -51°C | 0.9% | 64.9hPa | 2.7V | 03:51:22 | 01:24:40 | 00:00:00 | |
| DL1XH1-15 | 2026-08-31 11:57:10 | 50.12948 | 8.64142 | 69° | 27km/h | 19319m | 4.6m/s | -51.1°C | 3.9% | 65hPa | 2.6V | 03:50:55 | 01:24:36 | 00:00:00 | |
| DL1NUX | 2026-08-31 11:57:10 | 50.12946 | 8.64132 | 66° | 22km/h | 19315m | 3.6m/s | -51°C | 3.8% | 65.1hPa | 2.7V | 03:50:56 | 01:24:35 | 00:00:00 | |
| HSKMA3-T | 2026-08-31 11:57:08 | 50.12955 | 8.64172 | 72° | 26km/h | 19333m | 4.9m/s | -51.1°C | 0.9% | 64.9hPa | 2.7V | 03:51:22 | 01:24:39 | 00:00:00 | |
| BIOWL1-15 | 2026-08-31 11:57:06 | 50.12946 | 8.64133 | 67° | 22km/h | 19315m | 3.6m/s | -51°C | 0.8% | 65.1hPa | 2.7V | 03:51:22 | 01:24:35 | 00:00:00 | |
| DL1XH-west | 2026-08-31 11:57:00 | 50.12932 | 8.64102 | 90° | 13km/h | 19290m | 5.5m/s | -50.8°C | 0.8% | 65.3hPa | 2.7V | 03:51:22 | 01:24:29 | 00:00:00 | |
| DL1NUX | 2026-08-31 11:57:00 | 50.12940 | 8.64069 | 105° | 29km/h | 19270m | 4.9m/s | -51°C | 3.9% | 65.5hPa | 2.6V | 03:51:06 | 01:24:25 | 00:00:00 | |
| DM0DOS-11 | 2026-08-31 11:56:59 | 50.12935 | 8.64088 | 115° | 24km/h | 19280m | 4.6m/s | -50.9°C | 3.9% | 65.5hPa | 2.7V | 03:51:04 | 01:24:27 | 00:00:00 | |
| DL1XH1-15 | 2026-08-31 11:56:59 | 50.12938 | 8.64079 | 113° | 27km/h | 19275m | 5m/s | -51°C | 3.9% | 65.5hPa | 2.6V | 03:51:05 | 01:24:26 | 00:00:00 | |
| HSKMA3-T | 2026-08-31 11:56:57 | 50.12933 | 8.64096 | 111° | 18km/h | 19285m | 5.1m/s | -50.9°C | 0.8% | 65.4hPa | 2.7V | 03:51:22 | 01:24:28 | 00:00:00 | |
| DL1XH-15 | 2026-08-31 11:56:56 | 50.12942 | 8.64047 | 85° | 26km/h | 19261m | 4.5m/s | -51°C | 3.8% | 65.6hPa | 2.7V | 03:51:08 | 01:24:23 | 00:00:00 | |
| BIOWL1-15 | 2026-08-31 11:56:53 | 50.12937 | 8.64014 | 76° | 22km/h | 19243m | 4.3m/s | -51.1°C | 0.8% | 65.8hPa | 2.6V | 03:51:22 | 01:24:19 | 00:00:00 | |
| DB0NH | 2026-08-31 11:56:50 | 50.12940 | 8.64029 | 73° | 31km/h | 19252m | 4.4m/s | -50.9°C | 3.8% | 65.7hPa | 2.7V | 00:00:00 | 01:24:21 | 00:00:00 | |
| DL1XH1-15 | 2026-08-31 11:56:48 | 50.12934 | 8.63986 | 85° | 27km/h | 19229m | 4.6m/s | -51.5°C | 4% | 65.9hPa | 2.7V | 03:51:15 | 01:24:16 | 00:00:00 | |
| DL1XH-west | 2026-08-31 11:56:48 | 50.12934 | 8.63986 | 85° | 27km/h | 19229m | 4.6m/s | -51.5°C | 0.9% | 65.9hPa | 2.7V | 03:51:22 | 01:24:16 | 00:00:00 | |
| DM0DOS-11 | 2026-08-31 11:56:47 | 50.12934 | 8.63996 | 82° | 26km/h | 19233m | 4.9m/s | -51.3°C | 4% | 65.9hPa | 2.7V | 03:51:14 | 01:24:17 | 00:00:00 | |
| HSKMA3-T | 2026-08-31 11:56:47 | 50.12935 | 8.64005 | 79° | 24km/h | 19238m | 4.8m/s | -51.1°C | 0.8% | 65.9hPa | 2.6V | 03:51:22 | 01:24:18 | 00:00:00 | |
| DF2AP-13 | 2026-08-31 11:56:45 | 50.12934 | 8.63986 | 86° | 33km/h | 19229m | 4.6m/s | -51.5°C | 4.0% | 65.9hPa | 2.6V | 00:00:00 | 01:24:16 | 00:00:00 | |
| DL1XH-15 | 2026-08-31 11:56:44 | 50.12934 | 8.63956 | 102° | 22km/h | 19215m | 5.2m/s | 0°C | 0% | 0hPa | 2.6V | 03:51:18 | 01:24:13 | 00:00:00 | |
| DK7TD | 2026-08-31 11:56:43 | 50.12934 | 8.63965 | 96° | 24km/h | 19220m | 4.7m/s | -51.5°C | 1% | 66hPa | 2.6V | 03:52:13 | 01:24:14 | 00:00:00 | |
| DM0DOS-11 | 2026-08-31 11:56:41 | 50.12942 | 8.63886 | 94° | 42km/h | 19187m | 4.4m/s | -51.4°C | 4% | 66.4hPa | 2.6V | 03:51:24 | 01:24:07 | 00:00:00 | |
| DB0ND-19 | 2026-08-31 11:56:40 | 50.12937 | 8.63939 | 105° | 24km/h | 19207m | 3.6m/s | -51.5°C | 1.3% | 66.2hPa | 2.7V | 00:00:00 | 00:00:00 | 00:00:00 | |
| DL1NUX | 2026-08-31 11:56:39 | 50.12944 | 8.63854 | 98° | 40km/h | 19178m | 5.4m/s | -51.4°C | 4% | 66.5hPa | 2.7V | 03:51:26 | 01:24:05 | 00:00:00 | |
| HSKMA3-T | 2026-08-31 11:56:36 | 50.12942 | 8.63886 | 95° | 42km/h | 19187m | 4.4m/s | -51.4°C | 0.9% | 66.4hPa | 2.6V | 03:52:13 | 01:24:07 | 00:00:00 | |
| DL1XH-15 | 2026-08-31 11:56:36 | 50.12947 | 8.63824 | 97° | 38km/h | 19169m | 4.5m/s | 0°C | 0% | 0hPa | 2.7V | 00:00:00 | 01:24:03 | 00:00:00 | |
| DL1XH-west | 2026-08-31 11:56:36 | 50.12944 | 8.63854 | 98° | 40km/h | 19178m | 5.4m/s | -51.4°C | 0.9% | 66.5hPa | 2.7V | 03:52:13 | 01:24:05 | 00:00:00 | |
| DK7TD | 2026-08-31 11:56:33 | 50.12946 | 8.63838 | 99° | 38km/h | 19173m | 3.9m/s | -51.6°C | 1% | 66.5hPa | 2.7V | 03:52:13 | 01:24:04 | 00:00:00 | |
| BIOWL1-15 | 2026-08-31 11:56:33 | 50.12949 | 8.63782 | 89° | 31km/h | 19154m | 5.1m/s | -51.5°C | 0.9% | 66.7hPa | 2.6V | 03:52:13 | 01:24:00 | 00:00:00 | |
| BIOWL7-15 | 2026-08-31 11:56:31 | 50.12948 | 8.63809 | 95° | 37km/h | 19164m | 5.6m/s | -51.6°C | 1.3% | 66.6hPa | 2.7V | 00:00:00 | 00:00:00 | 00:00:00 | |
| DM0DOS-11 | 2026-08-31 11:56:29 | 50.12947 | 8.63747 | 81° | 29km/h | 19139m | 5m/s | -51.4°C | 4% | 66.9hPa | 2.7V | 03:51:34 | 01:23:57 | 00:00:00 | |
| DL1XH1-15 | 2026-08-31 11:56:28 | 50.12946 | 8.63735 | 78° | 33km/h | 19134m | 5.4m/s | -51.5°C | 4% | 66.9hPa | 2.6V | 03:51:35 | 01:23:56 | 00:00:00 | |
| HSKMA3-T | 2026-08-31 11:56:25 | 50.12946 | 8.63735 | 78° | 33km/h | 19134m | 5.4m/s | -51.5°C | 0.9% | 66.9hPa | 2.6V | 03:52:13 | 01:23:56 | 00:00:00 | |
| DL1XH-west | 2026-08-31 11:56:25 | 50.12944 | 8.63722 | 78° | 35km/h | 19129m | 3.7m/s | -51.4°C | 0.9% | 67hPa | 2.6V | 03:52:13 | 01:23:55 | 00:00:00 | |
| DL1XH-15 | 2026-08-31 11:56:24 | 50.12942 | 8.63694 | 85° | 37km/h | 19121m | 6.2m/s | 0°C | 0% | 0hPa | 2.7V | 00:00:00 | 01:23:53 | 00:00:00 | |
| DK7TD | 2026-08-31 11:56:23 | 50.12943 | 8.63708 | 81° | 37km/h | 19126m | 3.9m/s | -51.5°C | 0.9% | 67hPa | 2.6V | 03:52:13 | 01:23:54 | 00:00:00 | |
| BIOWL1-15 | 2026-08-31 11:56:20 | 50.12942 | 8.63665 | 92° | 38km/h | 19110m | 4m/s | -51.4°C | 0.9% | 67.2hPa | 2.7V | 03:52:13 | 01:23:51 | 00:00:00 | |
| DB0NH | 2026-08-31 11:56:20 | 50.12942 | 8.63665 | 92° | 38km/h | 19111m | 3.9m/s | -51.4°C | 4.0% | 67.1hPa | 2.7V | 00:00:00 | 01:23:51 | 00:00:00 | |
| DL1NUX | 2026-08-31 11:56:19 | 50.12935 | 8.63581 | 70° | 31km/h | 19082m | 4.2m/s | -51.2°C | 4% | 67.5hPa | 2.7V | 03:51:46 | 01:23:45 | 00:00:00 | |
| DJ8HS-15 | 2026-08-31 11:56:19 | 50.12942 | 8.63649 | 90° | 37km/h | 19106m | 5.2m/s | -51.4°C | 4.0% | 67.2hPa | 2.7V | 00:00:00 | 01:23:50 | 00:00:00 | |
| DL1XH1-15 | 2026-08-31 11:56:18 | 50.12938 | 8.63592 | 76° | 31km/h | 19087m | 4.9m/s | -51.2°C | 3.9% | 67.4hPa | 2.7V | 03:51:45 | 01:23:46 | 00:00:00 | |
| DM0DOS-11 | 2026-08-31 11:56:17 | 50.12939 | 8.63605 | 80° | 35km/h | 19092m | 5.6m/s | -51.3°C | 4% | 67.4hPa | 2.7V | 03:51:44 | 01:23:47 | 00:00:00 | |
| HSKMA3-T | 2026-08-31 11:56:15 | 50.12938 | 8.63592 | 76° | 31km/h | 19087m | 4.9m/s | -51.2°C | 0.9% | 67.4hPa | 2.7V | 03:52:13 | 01:23:46 | 00:00:00 | |
| DL1XH-west | 2026-08-31 11:56:14 | 50.12932 | 8.63569 | 66° | 33km/h | 19077m | 5.5m/s | -51.1°C | 0.9% | 67.5hPa | 2.6V | 03:52:13 | 01:23:44 | 00:00:00 | |
| DK7TD | 2026-08-31 11:56:12 | 50.12929 | 8.63557 | 63° | 35km/h | 19072m | 5m/s | -51.1°C | 0.9% | 67.6hPa | 2.6V | 03:52:13 | 01:23:43 | 00:00:00 | |
| DL1ZP-14 | 2026-08-31 11:56:10 | 50.12921 | 8.63532 | 66° | 35km/h | 19063m | 4.2m/s | -51.1°C | 1.3% | 67.7hPa | 2.7V | 00:00:00 | 00:00:00 | 00:00:00 | |
| DL1NUX | 2026-08-31 11:56:09 | 50.12908 | 8.63449 | 77° | 40km/h | 19034m | 3.9m/s | -51.1°C | 3.9% | 68hPa | 2.7V | 03:51:56 | 01:23:35 | 00:00:00 | |
| BIOWL1-15 | 2026-08-31 11:56:09 | 50.12918 | 8.63519 | 72° | 35km/h | 19059m | 5.3m/s | -51.1°C | 0.8% | 67.7hPa | 2.7V | 03:52:13 | 01:23:40 | 00:00:00 | |
| DL1XH1-15 | 2026-08-31 11:56:08 | 50.12910 | 8.63465 | 77° | 38km/h | 19039m | 4.5m/s | -51.1°C | 3.8% | 67.9hPa | 2.6V | 03:51:55 | 01:23:36 | 00:00:00 | |
| HSKMA3-T | 2026-08-31 11:56:05 | 50.12910 | 8.63465 | 78° | 40km/h | 19039m | 4.5m/s | -51.1°C | 0.8% | 67.9hPa | 2.6V | 03:52:13 | 01:23:36 | 00:00:00 | |
| DK7TD | 2026-08-31 11:56:02 | 50.12904 | 8.63420 | 76° | 37km/h | 19025m | 4.7m/s | -51.1°C | 0.8% | 68hPa | 2.7V | 03:52:13 | 01:23:33 | 00:00:00 | |
| DL1XH-15 | 2026-08-31 11:56:00 | 50.12883 | 8.63349 | 62° | 40km/h | 19002m | 4.8m/s | 0°C | 0% | 0hPa | 2.7V | 00:00:00 | 01:23:28 | 00:00:00 | |
| DL8DAS-14 | 2026-08-31 11:56:00 | 50.12898 | 8.63392 | 66° | 38km/h | 19016m | 5.2m/s | -51.1°C | 1.3% | 68.2hPa | 2.6V | 00:00:00 | 00:00:00 | 00:00:00 | |
| DL1NUX | 2026-08-31 11:55:59 | 50.12872 | 8.63307 | 70° | 40km/h | 18988m | 4.7m/s | -51.2°C | 3.8% | 68.4hPa | 2.6V | 03:52:06 | 01:23:25 | 00:00:00 | |
| BIOWL1-15 | 2026-08-31 11:55:58 | 50.12888 | 8.63364 | 61° | 42km/h | 19007m | 4.1m/s | -51.1°C | 0.8% | 68.3hPa | 2.7V | 03:52:13 | 01:23:29 | 00:00:00 | |
| HSKMA3-T | 2026-08-31 11:55:54 | 50.12871 | 8.63307 | 70° | 40km/h | 18988m | 4.7m/s | -51.2°C | 0.8% | 68.4hPa | 2.6V | 03:52:13 | 01:23:25 | 00:00:00 | |
| DK7TD | 2026-08-31 11:55:51 | 50.12861 | 8.63260 | 73° | 42km/h | 18973m | 4.4m/s | -51.4°C | 0.8% | 68.6hPa | 2.7V | 03:52:13 | 01:23:22 | 00:00:00 | |
| DC4HF-4 | 2026-08-31 11:55:50 | 50.12855 | 8.63229 | 74° | 40km/h | 18963m | 4.1m/s | -51.8°C | 1.4% | 68.8hPa | 2.7V | 00:00:00 | 00:00:00 | 00:00:00 | |
| DL1NUX | 2026-08-31 11:55:49 | 50.12830 | 8.63145 | 56° | 51km/h | 18940m | 5.7m/s | -51.8°C | 4% | 69hPa | 2.7V | 03:52:16 | 01:23:15 | 00:00:00 | |
| BIOWL1-15 | 2026-08-31 11:55:47 | 50.12843 | 8.63179 | 64° | 49km/h | 18950m | 5.1m/s | -52°C | 0.9% | 68.9hPa | 2.7V | 03:53:04 | 01:23:17 | 00:00:00 | |
| DM0DOS-11 | 2026-08-31 11:55:47 | 50.12843 | 8.63179 | 63° | 49km/h | 18950m | 5.1m/s | -52°C | 4.1% | 68.9hPa | 2.7V | 03:52:14 | 01:23:17 | 00:00:00 | |
| DJ2DS-15 | 2026-08-31 11:55:46 | 50.12843 | 8.63179 | 63° | 47km/h | 18950m | 5.1m/s | -52.0°C | 1.4% | 68.9hPa | 2.7V | 00:00:00 | 00:00:00 | 00:00:00 | |
| HSKMA3-T | 2026-08-31 11:55:44 | 50.12830 | 8.63145 | 57° | 51km/h | 18940m | 5.7m/s | -51.8°C | 0.9% | 69hPa | 2.7V | 03:53:04 | 01:23:15 | 00:00:00 | |
| CB1BUN | 2026-08-31 11:55:42 | 50.12823 | 8.63129 | 55° | 51km/h | 18935m | 4.3m/s | -51.9°C | 1.3% | 69.0hPa | 2.7V | 03:53:00 | 00:00:00 | 00:00:00 | |
| DL1XH-15 | 2026-08-31 11:55:41 | 50.12791 | 8.63064 | 54° | 49km/h | 18916m | 4.6m/s | 0°C | 0% | 0hPa | 2.7V | 00:00:00 | 01:23:10 | 00:00:00 | |
| DK7TD | 2026-08-31 11:55:41 | 50.12807 | 8.63096 | 51° | 53km/h | 18926m | 5.4m/s | -51.9°C | 0.9% | 69.1hPa | 2.6V | 03:53:04 | 01:23:12 | 00:00:00 | |
| DL1XH-west | 2026-08-31 11:55:41 | 50.12799 | 8.63080 | 52° | 53km/h | 18921m | 4.1m/s | -51.8°C | 0.9% | 69.2hPa | 2.7V | 03:53:04 | 01:23:11 | 00:00:00 | |
| DM0DOS-11 | 2026-08-31 11:55:39 | 50.12775 | 8.63019 | 66° | 44km/h | 18903m | 4.3m/s | -51.9°C | 4.1% | 69.4hPa | 2.6V | 03:52:24 | 01:23:07 | 00:00:00 | |
| DJ8HS-15 | 2026-08-31 11:55:39 | 50.12791 | 8.63064 | 55° | 46km/h | 18917m | 4.5m/s | -51.8°C | 3.9% | 69.2hPa | 2.7V | 03:52:00 | 01:23:10 | 00:00:00 | |
| DL1XH1-15 | 2026-08-31 11:55:38 | 50.12770 | 8.63003 | 67° | 46km/h | 18898m | 5.3m/s | -51.9°C | 4.1% | 69.4hPa | 2.6V | 03:52:25 | 01:23:06 | 00:00:00 | |
| BIOWL1-15 | 2026-08-31 11:55:38 | 50.12775 | 8.63019 | 66° | 44km/h | 18903m | 4.3m/s | -52°C | 1% | 69.4hPa | 2.6V | 03:53:04 | 01:23:07 | 00:00:00 | |
| HSKMA3-T | 2026-08-31 11:55:33 | 50.12761 | 8.62970 | 65° | 47km/h | 18889m | 3.3m/s | -52°C | 1% | 69.5hPa | 2.7V | 03:53:04 | 01:23:04 | 00:00:00 | |
| DL8DAS-15 | 2026-08-31 11:55:32 | 50.12756 | 8.62953 | 64° | 47km/h | 18885m | 5.1m/s | -52.0°C | 1.4% | 69.6hPa | 2.6V | 00:00:00 | 00:00:00 | 00:00:00 | |
| DL1XH-15 | 2026-08-31 11:55:30 | 50.12738 | 8.62909 | 53° | 44km/h | 18871m | 3.9m/s | 0°C | 0% | 0hPa | 2.6V | 00:00:00 | 01:23:00 | 00:00:00 | |
| DK7TD | 2026-08-31 11:55:30 | 50.12744 | 8.62923 | 56° | 44km/h | 18875m | 4.8m/s | -51.9°C | 0.9% | 69.7hPa | 2.6V | 03:53:04 | 01:23:01 | 00:00:00 | |
| DL8DAS-14 | 2026-08-31 11:55:29 | 50.12738 | 8.62909 | 53° | 42km/h | 18871m | 3.9m/s | -52.0°C | 1.4% | 69.7hPa | 2.6V | 00:00:00 | 00:00:00 | 00:00:00 | |
| DL1XH1-15 | 2026-08-31 11:55:28 | 50.12711 | 8.62848 | 61° | 46km/h | 18853m | 5m/s | -52°C | 4% | 69.9hPa | 2.6V | 03:52:35 | 01:22:56 | 00:00:00 | |
| DL1NUX | 2026-08-31 11:55:26 | 50.12706 | 8.62832 | 65° | 44km/h | 18849m | 5.1m/s | -52°C | 4% | 70hPa | 2.6V | 03:52:36 | 01:22:55 | 00:00:00 | |
| BIOWL1-15 | 2026-08-31 11:55:26 | 50.12669 | 8.62718 | 51° | 38km/h | 18813m | 3.8m/s | -52.2°C | 1% | 70.3hPa | 2.7V | 03:53:04 | 01:22:47 | 00:00:00 | |
| DL1XH-15 | 2026-08-31 11:55:25 | 50.12685 | 8.62756 | 61° | 40km/h | 18826m | 3.8m/s | 0°C | 0% | 0hPa | 2.6V | 00:00:00 | 01:22:50 | 00:00:00 | |
| HSKMA3-T | 2026-08-31 11:55:23 | 50.12701 | 8.62817 | 68° | 42km/h | 18844m | 4.3m/s | -52°C | 0.9% | 70hPa | 2.6V | 03:53:04 | 01:22:54 | 00:00:00 | |
| DK7TD | 2026-08-31 11:55:20 | 50.12684 | 8.62756 | 62° | 40km/h | 18826m | 3.8m/s | -52°C | 1% | 70.2hPa | 2.6V | 03:53:04 | 01:22:50 | 00:00:00 | |
| DB0NH | 2026-08-31 11:55:19 | 50.12684 | 8.62756 | 62° | 38km/h | 18827m | 3.8m/s | -52.0°C | 4.1% | 70.1hPa | 2.6V | 03:52:00 | 01:22:50 | 00:00:00 | |
| DL1XH1-15 | 2026-08-31 11:55:18 | 50.12662 | 8.62706 | 49° | 42km/h | 18809m | 5.3m/s | -52.3°C | 4.2% | 70.4hPa | 2.7V | 03:52:45 | 01:22:46 | 00:00:00 | |
| DL3AQ-11 | 2026-08-31 11:55:18 | 50.12674 | 8.62730 | 55° | 37km/h | 18817m | 4.4m/s | -52.1°C | 1.4% | 70.3hPa | 2.6V | 00:00:00 | 00:00:00 | 00:00:00 | |
| HEMX73-11 | 2026-08-31 11:55:15 | 50.12662 | 8.62706 | 50° | 42km/h | 18809m | 5.3m/s | -52.3°C | 1.4% | 70.4hPa | 2.6V | 03:53:00 | 00:00:00 | 00:00:00 | |
| DC4HF-4 | 2026-08-31 11:55:13 | 50.12647 | 8.62680 | 48° | 44km/h | 18800m | 3.7m/s | -52.2°C | 1.4% | 70.5hPa | 2.6V | 00:00:00 | 00:00:00 | 00:00:00 | |
| NBG1-10 | 2026-08-31 11:55:12 | 50.12640 | 8.62667 | 49° | 37km/h | 18795m | 5.1m/s | -52.3°C | 4.1% | 70.5hPa | 2.6V | 03:52:00 | 01:22:43 | 00:00:00 | |
| DL1XH-15 | 2026-08-31 11:55:11 | 50.12622 | 8.62629 | 60° | 38km/h | 18782m | 4.3m/s | 0°C | 0% | 0hPa | 2.7V | 00:00:00 | 01:22:40 | 00:00:00 | |
| HSKMA3-T | 2026-08-31 11:55:11 | 50.12633 | 8.62654 | 51° | 42km/h | 18790m | 4.7m/s | -52.4°C | 1% | 70.6hPa | 2.6V | 03:53:04 | 01:22:42 | 00:00:00 | |
| DK7TD | 2026-08-31 11:55:08 | 50.12618 | 8.62615 | 66° | 38km/h | 18777m | 5.3m/s | -52.4°C | 1% | 70.7hPa | 2.7V | 03:53:04 | 01:22:39 | 00:00:00 | |
| DL1XH1-15 | 2026-08-31 11:55:07 | 50.12607 | 8.62573 | 70° | 37km/h | 18764m | 3.6m/s | -52.4°C | 4.1% | 70.9hPa | 2.6V | 03:52:55 | 01:22:36 | 00:00:00 | |
| DM0DOS-11 | 2026-08-31 11:55:07 | 50.12610 | 8.62587 | 70° | 38km/h | 18768m | 3.2m/s | -52.3°C | 4.1% | 70.8hPa | 2.6V | 03:52:54 | 01:22:37 | 00:00:00 | |
| BIOWL1-15 | 2026-08-31 11:55:01 | 50.12593 | 8.62525 | 59° | 33km/h | 18747m | 5m/s | -52.4°C | 0.9% | 71.1hPa | 2.6V | 03:53:04 | 01:22:32 | 00:00:00 | |
| HSKMA3-T | 2026-08-31 11:54:59 | 50.12583 | 8.62502 | 55° | 38km/h | 18737m | 4.2m/s | -52.4°C | 1% | 71.2hPa | 2.6V | 03:53:04 | 01:22:30 | 00:00:00 | |
| DM0DOS-11 | 2026-08-31 11:54:59 | 50.12564 | 8.62468 | 45° | 38km/h | 18723m | 4.2m/s | -52.7°C | 4.1% | 71.4hPa | 2.7V | 03:53:04 | 01:22:27 | 00:00:00 | |
| DL1XH1-15 | 2026-08-31 11:54:59 | 50.12557 | 8.62457 | 47° | 40km/h | 18719m | 4m/s | -52.8°C | 4.2% | 71.4hPa | 2.6V | 03:53:05 | 01:22:26 | 00:00:00 | |
| DK7TD | 2026-08-31 11:54:58 | 50.12577 | 8.62490 | 51° | 38km/h | 18733m | 4.9m/s | -52.5°C | 1% | 71.2hPa | 2.7V | 03:53:04 | 01:22:29 | 00:00:00 | |
| DL1XH-west | 2026-08-31 11:54:57 | 50.12571 | 8.62479 | 47° | 38km/h | 18728m | 5.4m/s | -52.6°C | 1% | 71.3hPa | 2.7V | 03:53:04 | 01:22:28 | 00:00:00 | |
| DL1NUX | 2026-08-31 11:54:54 | 50.12550 | 8.62445 | 50° | 40km/h | 18714m | 5.5m/s | -52.9°C | 4.2% | 71.4hPa | 2.6V | 03:53:06 | 01:22:25 | 00:00:00 | |
| BIOWL1-15 | 2026-08-31 11:54:52 | 50.12525 | 8.62386 | 56° | 31km/h | 18691m | 3.7m/s | -52.9°C | 1.1% | 71.7hPa | 2.6V | 03:53:55 | 01:22:20 | 00:00:00 | |
| DB0NH | 2026-08-31 11:54:49 | 50.12525 | 8.62386 | 56° | 38km/h | 18692m | 3.7m/s | -52.9°C | 4.4% | 71.6hPa | 2.7V | 00:00:00 | 01:22:20 | 00:00:00 | |
| DL1NUX | 2026-08-31 11:54:49 | 50.12498 | 8.62334 | 43° | 37km/h | 18670m | 5.3m/s | -52.7°C | 4.3% | 71.9hPa | 2.7V | 03:53:16 | 01:22:15 | 00:00:00 | |
| DL1XH1-15 | 2026-08-31 11:54:48 | 50.12505 | 8.62344 | 48° | 37km/h | 18674m | 3.8m/s | -52.7°C | 4.3% | 71.9hPa | 2.7V | 03:53:15 | 01:22:16 | 00:00:00 | |
| DM0DOS-11 | 2026-08-31 11:54:48 | 50.12511 | 8.62355 | 52° | 35km/h | 18678m | 4.1m/s | -52.8°C | 4.4% | 71.8hPa | 2.7V | 03:53:14 | 01:22:17 | 00:00:00 | |
| HSKMA3-T | 2026-08-31 11:54:47 | 50.12516 | 8.62366 | 55° | 33km/h | 18683m | 5m/s | -52.8°C | 1.2% | 71.8hPa | 2.6V | 03:53:55 | 01:22:18 | 00:00:00 | |
| DL1XH-west | 2026-08-31 11:54:47 | 50.12511 | 8.62355 | 52° | 35km/h | 18678m | 4.1m/s | -52.8°C | 1.1% | 71.8hPa | 2.7V | 03:53:55 | 01:22:17 | 00:00:00 | |
| DF2AP-13 | 2026-08-31 11:54:45 | 50.12505 | 8.62344 | 49° | 40km/h | 18674m | 3.8m/s | -52.7°C | 4.3% | 71.8hPa | 2.7V | 00:00:00 | 01:22:16 | 00:00:00 | |
| CB1BUN | 2026-08-31 11:54:40 | 50.12475 | 8.62303 | 43° | 44km/h | 18657m | 5.3m/s | -52.6°C | 1.4% | 72.0hPa | 2.7V | 03:53:00 | 00:00:00 | 00:00:00 | |
| DL1NUX | 2026-08-31 11:54:39 | 50.12421 | 8.62214 | 49° | 44km/h | 18624m | 4m/s | -52.6°C | 4.2% | 72.4hPa | 2.7V | 03:53:26 | 01:22:05 | 00:00:00 | |
| DJ8HS-15 | 2026-08-31 11:54:39 | 50.12460 | 8.62278 | 47° | 40km/h | 18647m | 3.9m/s | -52.6°C | 4.2% | 72.1hPa | 2.7V | 00:00:00 | 01:22:10 | 00:00:00 | |
| DL1XH1-15 | 2026-08-31 11:54:38 | 50.12428 | 8.62227 | 48° | 44km/h | 18629m | 5.4m/s | -52.6°C | 4.1% | 72.4hPa | 2.6V | 03:53:25 | 01:22:06 | 00:00:00 | |
| DM0DOS-11 | 2026-08-31 11:54:37 | 50.12436 | 8.62240 | 46° | 44km/h | 18634m | 4.2m/s | -52.5°C | 4.1% | 72.3hPa | 2.6V | 03:53:24 | 01:22:07 | 00:00:00 | |
| DK7TD | 2026-08-31 11:54:37 | 50.12443 | 8.62253 | 45° | 46km/h | 18638m | 4.1m/s | -52.6°C | 1.1% | 72.3hPa | 2.6V | 03:53:55 | 01:22:08 | 00:00:00 | |
| HSKMA3-T | 2026-08-31 11:54:36 | 50.12436 | 8.62240 | 46° | 44km/h | 18634m | 4.2m/s | -52.6°C | 1% | 72.3hPa | 2.6V | 03:53:55 | 01:22:07 | 00:00:00 | |
| DL1XH-west | 2026-08-31 11:54:35 | 50.12428 | 8.62227 | 49° | 44km/h | 18629m | 5.4m/s | -52.6°C | 1% | 72.4hPa | 2.6V | 03:53:55 | 01:22:06 | 00:00:00 | |
| DL9SK-14 | 2026-08-31 11:54:35 | 50.12421 | 8.62214 | 49° | 42km/h | 18624m | 4.0m/s | -52.6°C | 1.4% | 72.4hPa | 2.6V | 00:00:00 | 00:00:00 | 00:00:00 | |
| HEMX73-11 | 2026-08-31 11:54:34 | 50.12421 | 8.62214 | 50° | 44km/h | 18624m | 4.0m/s | -52.6°C | 1.4% | 72.4hPa | 2.6V | 03:53:00 | 00:00:00 | 00:00:00 | |
| WPPR-10 | 2026-08-31 11:54:33 | 50.12414 | 8.62202 | 47° | 40km/h | 18620m | 4.2m/s | 0°C | -1.0% | -1.0hPa | 2.6V | 00:00:00 | 00:00:00 | 00:00:00 | |
| DL1NUX | 2026-08-31 11:54:29 | 50.12352 | 8.62112 | 46° | 38km/h | 18578m | 4.1m/s | -52.6°C | 4.1% | 72.9hPa | 2.6V | 03:53:36 | 01:21:55 | 00:00:00 | |
| DL1XH1-15 | 2026-08-31 11:54:28 | 50.12359 | 8.62123 | 46° | 38km/h | 18583m | 5.3m/s | -52.6°C | 4.1% | 72.9hPa | 2.6V | 03:53:35 | 01:21:56 | 00:00:00 | |
| DM0DOS-11 | 2026-08-31 11:54:27 | 50.12365 | 8.62134 | 47° | 37km/h | 18588m | 4.2m/s | -52.6°C | 4% | 72.8hPa | 2.7V | 03:53:34 | 01:21:57 | 00:00:00 | |
| HSKMA3-T | 2026-08-31 11:54:26 | 50.12365 | 8.62134 | 48° | 37km/h | 18588m | 4.2m/s | -52.6°C | 1% | 72.8hPa | 2.7V | 03:53:55 | 01:21:57 | 00:00:00 | |
| DL1XH-west | 2026-08-31 11:54:25 | 50.12359 | 8.62123 | 46° | 38km/h | 18583m | 5.3m/s | -52.7°C | 1% | 72.9hPa | 2.6V | 03:53:55 | 01:21:56 | 00:00:00 | |
| DL4BBY-15 | 2026-08-31 11:54:24 | 50.12352 | 8.62112 | 47° | 40km/h | 18579m | 4.1m/s | -51.9°C | 0% | 0hPa | 2.7V | 00:00:00 | 00:00:00 | 00:00:00 | |
| CB1BUN | 2026-08-31 11:54:20 | 50.12333 | 8.62075 | 56° | 40km/h | 18566m | 4.4m/s | -52.6°C | 1.4% | 73.1hPa | 2.7V | 03:53:00 | 00:00:00 | 00:00:00 | |
| DL1NUX | 2026-08-31 11:54:19 | 50.12285 | 8.61997 | 41° | 42km/h | 18535m | 4m/s | -53.4°C | 4.4% | 73.4hPa | 2.7V | 03:53:46 | 01:21:45 | 00:00:00 | |
| DB0NH | 2026-08-31 11:54:19 | 50.12321 | 8.62050 | 50° | 38km/h | 18557m | 5.3m/s | -52.9°C | 4.3% | 73.2hPa | 2.7V | 00:00:00 | 01:21:50 | 00:00:00 | |
| DL1XH1-15 | 2026-08-31 11:54:18 | 50.12293 | 8.62008 | 43° | 40km/h | 18539m | 4.8m/s | -53.4°C | 4.4% | 73.4hPa | 2.7V | 03:53:45 | 01:21:46 | 00:00:00 | |
| DM0DOS-11 | 2026-08-31 11:54:17 | 50.12300 | 8.62018 | 42° | 38km/h | 18544m | 4.9m/s | -53.4°C | 4.4% | 73.3hPa | 2.7V | 03:53:44 | 01:21:47 | 00:00:00 | |
| DK7TD | 2026-08-31 11:54:16 | 50.12300 | 8.62018 | 43° | 38km/h | 18544m | 4.9m/s | -53.4°C | 1.2% | 73.3hPa | 2.7V | 03:53:55 | 01:21:47 | 00:00:00 | |
| HSKMA3-T | 2026-08-31 11:54:15 | 50.12293 | 8.62008 | 43° | 40km/h | 18539m | 4.9m/s | -53.4°C | 1.2% | 73.4hPa | 2.7V | 03:53:55 | 01:21:46 | 00:00:00 | |
| DL1XH-west | 2026-08-31 11:54:15 | 50.12285 | 8.61997 | 42° | 42km/h | 18535m | 4m/s | -53.4°C | 1.1% | 73.5hPa | 2.7V | 03:53:55 | 01:21:45 | 00:00:00 | |
| DF2AP-13 | 2026-08-31 11:54:15 | 50.12293 | 8.62008 | 44° | 38km/h | 18539m | 4.8m/s | -53.3°C | 4.4% | 73.3hPa | 2.7V | 00:00:00 | 01:21:46 | 00:00:00 | |
| DL3AQ-11 | 2026-08-31 11:54:14 | 50.12277 | 8.61986 | 39° | 40km/h | 18530m | 4.6m/s | -53.4°C | 1.5% | 73.5hPa | 2.6V | 00:00:00 | 00:00:00 | 00:00:00 | |
| HEMX73-11 | 2026-08-31 11:54:13 | 50.12277 | 8.61986 | 41° | 42km/h | 18531m | 4.6m/s | -53.4°C | 1.5% | 73.5hPa | 2.6V | 03:53:00 | 00:00:00 | 00:00:00 | |
| DM0DOS-11 | 2026-08-31 11:54:12 | 50.12227 | 8.61908 | 52° | 38km/h | 18497m | 4.9m/s | -53.3°C | 4.3% | 73.9hPa | 2.6V | 03:53:54 | 01:21:37 | 00:00:00 | |
| DH7VM-15 | 2026-08-31 11:54:12 | 50.12269 | 8.61976 | 39° | 42km/h | 18526m | 5.2m/s | -53.4°C | 1.5% | 73.6hPa | 2.7V | 00:00:00 | 00:00:00 | 00:00:00 | |
| DL1NUX | 2026-08-31 11:54:09 | 50.12215 | 8.61883 | 55° | 40km/h | 18489m | 5.2m/s | -53.1°C | 4.3% | 74hPa | 2.7V | 03:53:56 | 01:21:35 | 00:00:00 | |
| DL1XH1-15 | 2026-08-31 11:54:06 | 50.12222 | 8.61895 | 53° | 38km/h | 18493m | 3.8m/s | -53.2°C | 4.4% | 73.9hPa | 2.6V | 03:53:55 | 01:21:36 | 00:00:00 | |
| BIOWL1-15 | 2026-08-31 11:54:06 | 50.12227 | 8.61908 | 53° | 38km/h | 18498m | 4.9m/s | -53.3°C | 1.1% | 73.9hPa | 2.6V | 03:53:55 | 01:21:37 | 00:00:00 | |
| DK7TD | 2026-08-31 11:54:05 | 50.12221 | 8.61895 | 54° | 38km/h | 18493m | 3.8m/s | -53.2°C | 1.1% | 73.9hPa | 2.6V | 03:53:55 | 01:21:36 | 00:00:00 | |
| DL1XH-west | 2026-08-31 11:54:03 | 50.12210 | 8.61869 | 56° | 42km/h | 18484m | 4.5m/s | -53.1°C | 1.1% | 74hPa | 2.7V | 03:54:46 | 01:21:34 | 00:00:00 | |
| SONCRA | 2026-08-31 11:54:02 | 50.12204 | 8.61856 | 53° | 40km/h | 18480m | 3.7m/s | -53.0°C | 1.5% | 74.1hPa | 2.7V | 00:00:00 | 00:00:00 | 00:00:00 | |
| DM0DOS-11 | 2026-08-31 11:54:01 | 50.12160 | 8.61796 | 41° | 37km/h | 18453m | 4.9m/s | -53°C | 4.3% | 74.4hPa | 2.7V | 03:54:04 | 01:21:27 | 00:00:00 | |
| DL1NUX | 2026-08-31 11:53:59 | 50.12148 | 8.61776 | 48° | 35km/h | 18445m | 3.8m/s | -53.1°C | 4.2% | 74.5hPa | 2.6V | 03:54:06 | 01:21:25 | 00:00:00 | |
| DJ8HS-15 | 2026-08-31 11:53:59 | 50.12183 | 8.61823 | 37° | 38km/h | 18466m | 3.9m/s | -52.9°C | 4.3% | 74.2hPa | 2.6V | 00:00:00 | 01:21:30 | 00:00:00 | |
| DL1XH1-15 | 2026-08-31 11:53:58 | 50.12154 | 8.61786 | 45° | 37km/h | 18449m | 4m/s | -53°C | 4.2% | 74.4hPa | 2.6V | 03:54:05 | 01:21:26 | 00:00:00 | |
| BIOWL1-15 | 2026-08-31 11:53:56 | 50.12160 | 8.61796 | 42° | 37km/h | 18453m | 4.9m/s | -53°C | 1.1% | 74.4hPa | 2.7V | 03:54:46 | 01:21:27 | 00:00:00 | |
| DK7TD | 2026-08-31 11:53:55 | 50.12154 | 8.61786 | 46° | 37km/h | 18449m | 4m/s | -53°C | 1.1% | 74.4hPa | 2.6V | 03:54:46 | 01:21:26 | 00:00:00 | |
| HSKMA3-T | 2026-08-31 11:53:54 | 50.12147 | 8.61776 | 48° | 35km/h | 18445m | 3.8m/s | -53.1°C | 1.1% | 74.5hPa | 2.6V | 03:54:46 | 01:21:25 | 00:00:00 | |
| DL1XH-west | 2026-08-31 11:53:53 | 50.12136 | 8.61756 | 46° | 33km/h | 18435m | 5m/s | -53°C | 1.1% | 74.6hPa | 2.7V | 03:54:46 | 01:21:23 | 00:00:00 | |
| BIOWL9-15 | 2026-08-31 11:53:52 | 50.12130 | 8.61747 | 45° | 33km/h | 18430m | 4.5m/s | -53.0°C | 1.4% | 74.7hPa | 2.7V | 00:00:00 | 00:00:00 | 00:00:00 | |
| DM0DOS-11 | 2026-08-31 11:53:51 | 50.12094 | 8.61697 | 33° | 40km/h | 18406m | 4.8m/s | -53.1°C | 4.4% | 74.9hPa | 2.7V | 03:54:14 | 01:21:17 | 00:00:00 | |
| DO1YAY-16 | 2026-08-31 11:53:51 | 50.12124 | 8.61737 | 46° | 35km/h | 18425m | 5.2m/s | -53.1°C | 1.5% | 74.7hPa | 2.7V | 00:00:00 | 00:00:00 | 00:00:00 | |
| DL1NUX | 2026-08-31 11:53:49 | 50.12076 | 8.61679 | 33° | 42km/h | 18398m | 5m/s | -53.1°C | 4.3% | 75hPa | 2.7V | 03:54:16 | 01:21:15 | 00:00:00 | |
| DB0NH | 2026-08-31 11:53:49 | 50.12117 | 8.61727 | 45° | 38km/h | 18421m | 4.7m/s | -53.0°C | 4.4% | 74.7hPa | 2.6V | 00:00:00 | 01:21:20 | 00:00:00 | |
| DL1XH1-15 | 2026-08-31 11:53:48 | 50.12085 | 8.61688 | 32° | 42km/h | 18402m | 3.4m/s | -53.1°C | 4.4% | 75hPa | 2.7V | 03:54:15 | 01:21:16 | 00:00:00 | |
| BIOWL1-15 | 2026-08-31 11:53:47 | 50.12085 | 8.61688 | 32° | 42km/h | 18402m | 3.4m/s | -53.1°C | 1.2% | 75hPa | 2.7V | 03:54:46 | 01:21:16 | 00:00:00 | |
| HSKMA3-T | 2026-08-31 11:53:44 | 50.12076 | 8.61679 | 34° | 42km/h | 18398m | 5m/s | -53.1°C | 1.1% | 75hPa | 2.7V | 03:54:46 | 01:21:15 | 00:00:00 | |
| DL1XH-west | 2026-08-31 11:53:43 | 50.12059 | 8.61660 | 38° | 40km/h | 18389m | 3.7m/s | -53°C | 1.1% | 75.1hPa | 2.6V | 03:54:46 | 01:21:13 | 00:00:00 | |
| CB1BUN | 2026-08-31 11:53:40 | 50.12044 | 8.61643 | 36° | 35km/h | 18379m | 5.0m/s | -53.1°C | 1.5% | 75.2hPa | 2.7V | 03:54:00 | 00:00:00 | 00:00:00 | |
| DL1NUX | 2026-08-31 11:53:39 | 50.12002 | 8.61600 | 23° | 35km/h | 18351m | 4.8m/s | -53.1°C | 4.4% | 75.5hPa | 2.7V | 03:54:26 | 01:21:05 | 00:00:00 | |
| BIOWL1-15 | 2026-08-31 11:53:35 | 50.11947 | 8.61562 | 23° | 40km/h | 18325m | 5.5m/s | -53°C | 1.1% | 75.9hPa | 2.7V | 03:54:46 | 01:20:59 | 00:00:00 | |
| DK7TD | 2026-08-31 11:53:33 | 50.11994 | 8.61594 | 22° | 37km/h | 18347m | 3.8m/s | -53.2°C | 1.1% | 75.6hPa | 2.7V | 03:54:46 | 01:21:04 | 00:00:00 | |
| DL1XH-west | 2026-08-31 11:53:32 | 50.11985 | 8.61589 | 23° | 38km/h | 18343m | 4.6m/s | -53.2°C | 1.2% | 75.6hPa | 2.7V | 03:54:46 | 01:21:03 | 00:00:00 | |
| KANTATE | 2026-08-31 11:53:32 | 50.11984 | 8.61589 | 24° | 38km/h | 18343m | 4.6m/s | -53.2°C | 1.5% | 75.6hPa | 2.6V | 00:00:00 | 00:00:00 | 00:00:00 | |
| SONCRA | 2026-08-31 11:53:31 | 50.11975 | 8.61582 | 24° | 40km/h | 18338m | 5.2m/s | -53.2°C | 1.5% | 75.7hPa | 2.6V | 00:00:00 | 00:00:00 | 00:00:00 | |
| DL1XH1-15 | 2026-08-31 11:53:27 | 50.11920 | 8.61546 | 20° | 37km/h | 18311m | 4.6m/s | -53°C | 4.5% | 76hPa | 2.6V | 03:54:35 | 01:20:56 | 00:00:00 | |
| HSKMA3-T | 2026-08-31 11:53:22 | 50.11894 | 8.61529 | 21° | 35km/h | 18297m | 4.9m/s | -52.8°C | 1.1% | 76.2hPa | 2.7V | 03:54:46 | 01:20:53 | 00:00:00 | |
| DL1XH-west | 2026-08-31 11:53:21 | 50.11886 | 8.61525 | 18° | 33km/h | 18292m | 5.2m/s | -52.7°C | 1.1% | 76.3hPa | 2.7V | 03:54:46 | 01:20:52 | 00:00:00 | |
| DK7TD | 2026-08-31 11:53:20 | 50.11878 | 8.61521 | 17° | 33km/h | 18287m | 3.6m/s | -52.7°C | 1% | 76.3hPa | 2.7V | 03:54:46 | 01:20:51 | 00:00:00 | |
| DL8DAS-15 | 2026-08-31 11:53:20 | 50.11878 | 8.61521 | 18° | 33km/h | 18287m | 3.6m/s | -52.7°C | 1.5% | 76.3hPa | 2.7V | 03:54:00 | 00:00:00 | 00:00:00 | |
| DL1NUX | 2026-08-31 11:53:19 | 50.11833 | 8.61491 | 22° | 33km/h | 18259m | 4.1m/s | -52.5°C | 4.2% | 76.7hPa | 2.7V | 03:54:46 | 01:20:45 | 00:00:00 | |
| BIOWL1-15 | 2026-08-31 11:53:19 | 50.11863 | 8.61512 | 25° | 31km/h | 18278m | 5.6m/s | -52.7°C | 1% | 76.5hPa | 2.6V | 03:54:46 | 01:20:49 | 00:00:00 | |
| DL1XH1-15 | 2026-08-31 11:53:17 | 50.11841 | 8.61496 | 23° | 33km/h | 18264m | 5.3m/s | -52.6°C | 4.2% | 76.6hPa | 2.7V | 03:54:45 | 01:20:46 | 00:00:00 | |
| DL1XH-west | 2026-08-31 11:53:11 | 50.11812 | 8.61473 | 35° | 31km/h | 18245m | 4.3m/s | -52.5°C | 1.2% | 76.8hPa | 2.6V | 03:55:37 | 01:20:42 | 00:00:00 | |
| DL1NUX | 2026-08-31 11:53:09 | 50.11763 | 8.61424 | 34° | 33km/h | 18212m | 4.6m/s | -52.5°C | 4.1% | 77.2hPa | 2.7V | 03:54:56 | 01:20:35 | 00:00:00 | |
| DK7TD | 2026-08-31 11:53:09 | 50.11798 | 8.61459 | 31° | 31km/h | 18236m | 5.6m/s | -52.4°C | 1.2% | 76.9hPa | 2.7V | 03:57:19 | 01:20:40 | 00:00:00 | |
| BIOWL1-15 | 2026-08-31 11:53:08 | 50.11791 | 8.61453 | 30° | 33km/h | 18231m | 4m/s | -52.4°C | 1.2% | 77hPa | 2.7V | 03:55:37 | 01:20:39 | 00:00:00 | |
| DM0DOS-11 | 2026-08-31 11:53:06 | 50.11777 | 8.61439 | 34° | 35km/h | 18222m | 5.7m/s | -52.4°C | 4.2% | 77.1hPa | 2.6V | 03:54:54 | 01:20:37 | 00:00:00 | |
| SO1NDE-10 | 2026-08-31 11:53:06 | 50.11777 | 8.61439 | 35° | 29km/h | 18222m | 5.6m/s | -52.3°C | 4.2% | 77.1hPa | 2.6V | 00:00:00 | 01:20:37 | 00:00:00 | |
| DL3AQ-11 | 2026-08-31 11:53:05 | 50.11763 | 8.61424 | 34° | 31km/h | 18212m | 4.6m/s | -52.5°C | 1.4% | 77.2hPa | 2.7V | 00:00:00 | 00:00:00 | 00:00:00 | |
| DB0ND-19 | 2026-08-31 11:53:03 | 50.11756 | 8.61417 | 30° | 31km/h | 18208m | 5.6m/s | -52.5°C | 1.4% | 77.3hPa | 2.7V | 00:00:00 | 00:00:00 | 00:00:00 | |
| DD1CC8 | 2026-08-31 11:53:02 | 50.11744 | 8.61406 | 28° | 26km/h | 18198m | 4.5m/s | -52.4°C | 1.4% | 77.4hPa | 2.7V | 00:00:00 | 00:00:00 | 00:00:00 | |
| DM0DOS-11 | 2026-08-31 11:53:01 | 50.11717 | 8.61376 | 31° | 27km/h | 18175m | 4.8m/s | -52.3°C | 4.3% | 77.7hPa | 2.7V | 03:55:04 | 01:20:27 | 00:00:00 | |
| DL1XH-west | 2026-08-31 11:53:01 | 50.11744 | 8.61406 | 29° | 26km/h | 18198m | 4.5m/s | -52.4°C | 1% | 77.4hPa | 2.6V | 03:55:37 | 01:20:32 | 00:00:00 | |
| DK7TD | 2026-08-31 11:52:58 | 50.11728 | 8.61389 | 40° | 26km/h | 18184m | 3.7m/s | -52.4°C | 1.1% | 77.6hPa | 2.7V | 03:57:19 | 01:20:29 | 00:00:00 | |
| DL3AQ-11 | 2026-08-31 11:52:54 | 50.11699 | 8.61359 | 35° | 27km/h | 18162m | 5.3m/s | -52.2°C | 1.4% | 77.9hPa | 2.7V | 00:00:00 | 00:00:00 | 00:00:00 | |
| DM0DOS-11 | 2026-08-31 11:52:51 | 50.11662 | 8.61313 | 42° | 27km/h | 18130m | 5.1m/s | -52.1°C | 4% | 78.2hPa | 2.7V | 03:55:14 | 01:20:17 | 00:00:00 | |
| DL1XH-west | 2026-08-31 11:52:50 | 50.11683 | 8.61339 | 38° | 26km/h | 18148m | 4.7m/s | -52.2°C | 1% | 78hPa | 2.7V | 03:55:37 | 01:20:21 | 00:00:00 | |
| DL1NUX | 2026-08-31 11:52:49 | 50.11651 | 8.61298 | 39° | 31km/h | 18120m | 5.2m/s | -52.1°C | 4% | 78.4hPa | 2.7V | 03:55:16 | 01:20:15 | 00:00:00 | |
| DO1YAY-16 | 2026-08-31 11:52:49 | 50.11673 | 8.61327 | 35° | 26km/h | 18139m | 4.0m/s | -52.2°C | 1.4% | 78.1hPa | 2.6V | 00:00:00 | 00:00:00 | 00:00:00 | |
| BIOWL1-15 | 2026-08-31 11:52:47 | 50.11645 | 8.61291 | 36° | 31km/h | 18115m | 4.8m/s | -52.2°C | 1% | 78.4hPa | 2.6V | 03:55:37 | 01:20:14 | 00:00:00 | |
| DK7TD | 2026-08-31 11:52:47 | 50.11667 | 8.61320 | 39° | 27km/h | 18135m | 4.8m/s | -52.2°C | 1% | 78.2hPa | 2.6V | 03:57:19 | 01:20:18 | 00:00:00 | |
| DJ2DS-15 | 2026-08-31 11:52:46 | 50.11662 | 8.61313 | 42° | 27km/h | 18130m | 5.1m/s | -52.2°C | 1.4% | 78.2hPa | 2.7V | 00:00:00 | 00:00:00 | 00:00:00 | |
| DF7PN | 2026-08-31 11:52:45 | 50.11657 | 8.61306 | 43° | 27km/h | 18125m | 4.0m/s | -52.1°C | 1.4% | 78.3hPa | 2.7V | 00:00:00 | 00:00:00 | 00:00:00 | |
| DL1XH-west | 2026-08-31 11:52:40 | 50.11626 | 8.61268 | 42° | 33km/h | 18101m | 5.1m/s | -52.1°C | 1% | 78.6hPa | 2.7V | 03:55:37 | 01:20:11 | 00:00:00 | |
| HSKMA3-T | 2026-08-31 11:52:40 | 50.11620 | 8.61259 | 43° | 33km/h | 18097m | 3.9m/s | -52.1°C | 1% | 78.6hPa | 2.7V | 03:55:37 | 01:20:10 | 00:00:00 | |
| DJ8HS-15 | 2026-08-31 11:52:39 | 50.11620 | 8.61259 | 44° | 31km/h | 18097m | 3.8m/s | -52.1°C | 4.1% | 78.6hPa | 2.7V | 00:00:00 | 01:20:10 | 00:00:00 | |
| DM0DOS-11 | 2026-08-31 11:52:38 | 50.11601 | 8.61234 | 39° | 33km/h | 18082m | 4.3m/s | -52.4°C | 4.1% | 78.8hPa | 2.6V | 03:55:24 | 01:20:07 | 00:00:00 | |
| DL1XH1-15 | 2026-08-31 11:52:37 | 50.11595 | 8.61225 | 42° | 33km/h | 18078m | 4.6m/s | -52.5°C | 4.1% | 78.9hPa | 2.6V | 03:55:25 | 01:20:06 | 00:00:00 | |
| BIOWL1-15 | 2026-08-31 11:52:36 | 50.11601 | 8.61234 | 39° | 33km/h | 18083m | 4.3m/s | -52.4°C | 1% | 78.8hPa | 2.6V | 03:55:37 | 01:20:07 | 00:00:00 | |
| SO1NDE-10 | 2026-08-31 11:52:36 | 50.11601 | 8.61234 | 40° | 27km/h | 18083m | 4.2m/s | -52.3°C | 4.1% | 78.8hPa | 2.7V | 00:00:00 | 01:20:07 | 00:00:00 | |
| DB0ND-19 | 2026-08-31 11:52:32 | 50.11579 | 8.61197 | 50° | 29km/h | 18065m | 3.8m/s | -52.9°C | 1.5% | 79.0hPa | 2.7V | 00:00:00 | 00:00:00 | 00:00:00 | |
| DM0DOS-11 | 2026-08-31 11:52:31 | 50.11542 | 8.61153 | 30° | 33km/h | 18036m | 4.4m/s | -53.2°C | 4.3% | 79.4hPa | 2.7V | 03:55:34 | 01:19:57 | 00:00:00 | |
| DL1XH-west | 2026-08-31 11:52:30 | 50.11568 | 8.61180 | 40° | 29km/h | 18055m | 4.9m/s | -53°C | 1.1% | 79.1hPa | 2.6V | 03:55:37 | 01:20:01 | 00:00:00 | |
| DL1NUX | 2026-08-31 11:52:30 | 50.11528 | 8.61141 | 26° | 27km/h | 18026m | 4.6m/s | -53°C | 4.3% | 79.5hPa | 2.6V | 03:55:36 | 01:19:55 | 00:00:00 | |
| SONCRA | 2026-08-31 11:52:29 | 50.11556 | 8.61166 | 33° | 31km/h | 18046m | 5.6m/s | -53.1°C | 1.5% | 79.2hPa | 2.6V | 00:00:00 | 00:00:00 | 00:00:00 | |
| DL1XH1-15 | 2026-08-31 11:52:28 | 50.11535 | 8.61147 | 27° | 31km/h | 18031m | 5.6m/s | -53.1°C | 4.4% | 79.4hPa | 2.6V | 03:55:35 | 01:19:56 | 00:00:00 | |
| HSKMA3-T | 2026-08-31 11:52:28 | 50.11556 | 8.61166 | 34° | 33km/h | 18046m | 5.6m/s | -53.1°C | 1.1% | 79.2hPa | 2.7V | 03:55:37 | 01:19:59 | 00:00:00 | |
| DK7TD | 2026-08-31 11:52:26 | 50.11542 | 8.61153 | 31° | 33km/h | 18036m | 4.4m/s | -53.2°C | 1.1% | 79.4hPa | 2.7V | 03:57:19 | 01:19:57 | 00:00:00 | |
| BIOWL1-15 | 2026-08-31 11:52:25 | 50.11535 | 8.61147 | 27° | 31km/h | 18031m | 5.6m/s | -53.1°C | 1.1% | 79.5hPa | 2.6V | 03:55:37 | 01:19:56 | 00:00:00 | |
| DL1XH-west | 2026-08-31 11:52:19 | 50.11502 | 8.61113 | 36° | 22km/h | 18002m | 5.3m/s | -53°C | 1.1% | 79.8hPa | 2.7V | 03:56:28 | 01:19:50 | 00:00:00 | |
| DL1NUX | 2026-08-31 11:52:19 | 50.11483 | 8.61083 | 47° | 22km/h | 17980m | 4.6m/s | -52.9°C | 4.3% | 80.1hPa | 2.7V | 03:55:46 | 01:19:45 | 00:00:00 | |
| DB0NH | 2026-08-31 11:52:19 | 50.11501 | 8.61113 | 36° | 26km/h | 18003m | 5.2m/s | -53.0°C | 4.3% | 79.7hPa | 2.7V | 00:00:00 | 01:19:50 | 00:00:00 | |
| DL1XH1-15 | 2026-08-31 11:52:18 | 50.11486 | 8.61090 | 50° | 22km/h | 17984m | 4.1m/s | -52.9°C | 4.3% | 80hPa | 2.7V | 03:55:45 | 01:19:46 | 00:00:00 | |
| DM0DOS-11 | 2026-08-31 11:52:18 | 50.11490 | 8.61096 | 50° | 22km/h | 17989m | 4.8m/s | -52.9°C | 4.3% | 79.9hPa | 2.6V | 03:55:44 | 01:19:47 | 00:00:00 | |
| HSKMA3-T | 2026-08-31 11:52:18 | 50.11497 | 8.61108 | 38° | 20km/h | 17998m | 3.9m/s | -52.9°C | 1.1% | 79.8hPa | 2.7V | 03:56:28 | 01:19:49 | 00:00:00 | |
| BIOWL1-15 | 2026-08-31 11:52:14 | 50.11483 | 8.61083 | 48° | 22km/h | 17980m | 4.6m/s | -52.9°C | 1.2% | 80.1hPa | 2.7V | 03:56:28 | 01:19:45 | 00:00:00 | |
| DL3AQ-11 | 2026-08-31 11:52:14 | 50.11478 | 8.61077 | 41° | 22km/h | 17975m | 4.9m/s | -52.8°C | 1.5% | 80.1hPa | 2.7V | 00:00:00 | 00:00:00 | 00:00:00 | |
| DC4HF-4 | 2026-08-31 11:52:13 | 50.11478 | 8.61077 | 41° | 22km/h | 17975m | 4.9m/s | -52.8°C | 1.5% | 80.1hPa | 2.7V | 00:00:00 | 00:00:00 | 00:00:00 | |
| NBG1-10 | 2026-08-31 11:52:11 | 50.11469 | 8.61065 | 37° | 29km/h | 17967m | 3.7m/s | -52.7°C | 4.3% | 80.2hPa | 2.7V | 00:00:00 | 01:19:42 | 00:00:00 | |
| HEMX73-11 | 2026-08-31 11:52:10 | 50.11464 | 8.61059 | 41° | 26km/h | 17962m | 5.0m/s | -52.7°C | 1.5% | 80.3hPa | 2.6V | 03:56:00 | 00:00:00 | 00:00:00 | |
| DL1NUX | 2026-08-31 11:52:09 | 50.11430 | 8.61021 | 33° | 27km/h | 17936m | 4.4m/s | -52.6°C | 4.1% | 80.6hPa | 2.6V | 03:55:56 | 01:19:35 | 00:00:00 | |
| DL1XH-west | 2026-08-31 11:52:08 | 50.11454 | 8.61045 | 41° | 27km/h | 17954m | 3.4m/s | -52.7°C | 1.1% | 80.4hPa | 2.6V | 03:56:28 | 01:19:39 | 00:00:00 | |
| DM0DOS-11 | 2026-08-31 11:52:08 | 50.11443 | 8.61032 | 31° | 27km/h | 17945m | 4.9m/s | -52.6°C | 4.2% | 80.5hPa | 2.7V | 03:55:54 | 01:19:37 | 00:00:00 | |
| DL1XH1-15 | 2026-08-31 11:52:08 | 50.11436 | 8.61027 | 29° | 27km/h | 17940m | 4.2m/s | -52.6°C | 4.2% | 80.6hPa | 2.7V | 03:55:55 | 01:19:36 | 00:00:00 | |
| HSKMA3-T | 2026-08-31 11:52:07 | 50.11448 | 8.61038 | 37° | 27km/h | 17950m | 4.9m/s | -52.7°C | 1.1% | 80.4hPa | 2.7V | 03:56:28 | 01:19:38 | 00:00:00 | |
| BIOWL1-15 | 2026-08-31 11:52:04 | 50.11425 | 8.61015 | 38° | 27km/h | 17931m | 5.2m/s | -52.7°C | 1.1% | 80.7hPa | 2.6V | 03:56:28 | 01:19:34 | 00:00:00 | |
| DB0ND-19 | 2026-08-31 11:52:01 | 50.11415 | 8.61001 | 41° | 26km/h | 17922m | 4.5m/s | -52.8°C | 1.5% | 80.8hPa | 2.7V | 00:00:00 | 00:00:00 | 00:00:00 | |
| DD1CC8 | 2026-08-31 11:52:00 | 50.11405 | 8.60989 | 38° | 22km/h | 17912m | 4.6m/s | -52.7°C | 1.5% | 80.9hPa | 2.7V | 00:00:00 | 00:00:00 | 00:00:00 | |
| DL1NUX | 2026-08-31 11:51:59 | 50.11384 | 8.60957 | 38° | 26km/h | 17890m | 4.9m/s | -52.8°C | 4.4% | 81.2hPa | 2.7V | 03:56:06 | 01:19:25 | 00:00:00 | |
| DL1XH-west | 2026-08-31 11:51:58 | 50.11401 | 8.60983 | 42° | 22km/h | 17908m | 4.8m/s | -52.8°C | 1.1% | 81hPa | 2.6V | 03:56:28 | 01:19:29 | 00:00:00 | |
| DL3AQ-11 | 2026-08-31 11:51:58 | 50.11397 | 8.60977 | 47° | 22km/h | 17903m | 5.1m/s | -52.8°C | 1.5% | 81.0hPa | 2.7V | 00:00:00 | 00:00:00 | 00:00:00 | |
| DL1XH1-15 | 2026-08-31 11:51:57 | 50.11388 | 8.60963 | 43° | 24km/h | 17894m | 4.6m/s | -52.8°C | 4.5% | 81.2hPa | 2.7V | 03:56:05 | 01:19:26 | 00:00:00 | |
| HSKMA3-T | 2026-08-31 11:51:56 | 50.11393 | 8.60970 | 47° | 24km/h | 17898m | 3.7m/s | -52.9°C | 1.2% | 81.1hPa | 2.6V | 03:56:28 | 01:19:27 | 00:00:00 | |
| BIOWL1-15 | 2026-08-31 11:51:53 | 50.11346 | 8.60906 | 39° | 37km/h | 17863m | 5.3m/s | -52.8°C | 1.1% | 81.5hPa | 2.7V | 03:56:28 | 01:19:19 | 00:00:00 | |
| DL8DAS-14 | 2026-08-31 11:51:52 | 50.11366 | 8.60934 | 42° | 33km/h | 17876m | 4.9m/s | -52.9°C | 1.5% | 81.4hPa | 2.6V | 00:00:00 | 00:00:00 | 00:00:00 | |
| DL1NUX | 2026-08-31 11:51:49 | 50.11318 | 8.60870 | 46° | 31km/h | 17844m | 4.9m/s | -52.5°C | 4.2% | 81.8hPa | 2.6V | 03:56:16 | 01:19:15 | 00:00:00 | |
| HEMX73-11 | 2026-08-31 11:51:49 | 50.11353 | 8.60915 | 43° | 37km/h | 17868m | 3.9m/s | -52.8°C | 1.5% | 81.5hPa | 2.6V | 03:56:00 | 00:00:00 | 00:00:00 | |
| DM0DOS-11 | 2026-08-31 11:51:48 | 50.11331 | 8.60888 | 38° | 35km/h | 17854m | 4m/s | -52.6°C | 4.2% | 81.7hPa | 2.6V | 03:56:14 | 01:19:17 | 00:00:00 | |
| DL1XH1-15 | 2026-08-31 11:51:47 | 50.11324 | 8.60879 | 42° | 35km/h | 17849m | 5.8m/s | -52.5°C | 4.1% | 81.7hPa | 2.6V | 03:56:15 | 01:19:16 | 00:00:00 | |
| DL1XH-west | 2026-08-31 11:51:47 | 50.11338 | 8.60897 | 37° | 37km/h | 17859m | 4.3m/s | -52.7°C | 1% | 81.6hPa | 2.7V | 03:56:28 | 01:19:18 | 00:00:00 | |
| HSKMA3-T | 2026-08-31 11:51:46 | 50.11331 | 8.60888 | 38° | 35km/h | 17854m | 4m/s | -52.6°C | 1% | 81.7hPa | 2.6V | 03:56:28 | 01:19:17 | 00:00:00 | |
| DK7TD | 2026-08-31 11:51:45 | 50.11324 | 8.60879 | 42° | 35km/h | 17849m | 5.8m/s | -52.5°C | 1% | 81.7hPa | 2.6V | 03:57:19 | 01:19:16 | 00:00:00 | |
| DF2AP-13 | 2026-08-31 11:51:45 | 50.11324 | 8.60879 | 43° | 27km/h | 17850m | 5.8m/s | -52.5°C | 4.1% | 81.7hPa | 2.7V | 00:00:00 | 01:19:16 | 00:00:00 | |
| DF7PN | 2026-08-31 11:51:43 | 50.11299 | 8.60841 | 38° | 24km/h | 17825m | 3.7m/s | -52.4°C | 1.5% | 82.0hPa | 2.7V | 00:00:00 | 00:00:00 | 00:00:00 | |
| DM0DOS-11 | 2026-08-31 11:51:41 | 50.11279 | 8.60813 | 40° | 31km/h | 17807m | 5m/s | -52.3°C | 4.3% | 82.2hPa | 2.7V | 03:56:24 | 01:19:07 | 00:00:00 | |
| BIOWL1-15 | 2026-08-31 11:51:41 | 50.11303 | 8.60847 | 40° | 24km/h | 17829m | 4.9m/s | -52.4°C | 1.1% | 82hPa | 2.7V | 03:56:28 | 01:19:12 | 00:00:00 | |
| DH7VM-15 | 2026-08-31 11:51:40 | 50.11303 | 8.60847 | 41° | 24km/h | 17829m | 4.9m/s | -52.4°C | 1.5% | 82.0hPa | 2.6V | 00:00:00 | 00:00:00 | 00:00:00 | |
| DL1NUX | 2026-08-31 11:51:39 | 50.11266 | 8.60798 | 35° | 35km/h | 17798m | 3.8m/s | -52.1°C | 4.2% | 82.3hPa | 2.6V | 03:56:26 | 01:19:05 | 00:00:00 | |
| HSKMA3-T | 2026-08-31 11:51:36 | 50.11279 | 8.60813 | 40° | 31km/h | 17807m | 5m/s | -52.3°C | 1.1% | 82.2hPa | 2.7V | 03:56:28 | 01:19:07 | 00:00:00 | |
| SO1NDE-10 | 2026-08-31 11:51:36 | 50.11279 | 8.60813 | 41° | 26km/h | 17807m | 4.9m/s | -52.2°C | 4.3% | 82.2hPa | 2.7V | 03:56:00 | 01:19:07 | 00:00:00 | |
| CB1BUN | 2026-08-31 11:51:35 | 50.11279 | 8.60813 | 41° | 31km/h | 17807m | 5.0m/s | -52.3°C | 1.5% | 82.2hPa | 2.7V | 03:56:00 | 00:00:00 | 00:00:00 | |
| DL3AQ-11 | 2026-08-31 11:51:34 | 50.11259 | 8.60789 | 38° | 35km/h | 17794m | 4.2m/s | -52.2°C | 1.4% | 82.4hPa | 2.7V | 00:00:00 | 00:00:00 | 00:00:00 | |
| DB0ND-19 | 2026-08-31 11:51:30 | 50.11236 | 8.60755 | 43° | 26km/h | 17777m | 5.2m/s | -52.3°C | 1.5% | 82.7hPa | 2.7V | 00:00:00 | 00:00:00 | 00:00:00 | |
| DL1XH1-15 | 2026-08-31 11:51:29 | 50.11218 | 8.60733 | 41° | 20km/h | 17758m | 4.7m/s | -52.1°C | 4.3% | 82.9hPa | 2.7V | 03:56:35 | 01:18:56 | 00:00:00 | |
| HSKMA3-T | 2026-08-31 11:51:26 | 50.11222 | 8.60738 | 38° | 20km/h | 17762m | 4.6m/s | -52.1°C | 1.1% | 82.8hPa | 2.6V | 03:58:10 | 01:18:57 | 00:00:00 | |
| BIOWL1-15 | 2026-08-31 11:51:20 | 50.11193 | 8.60705 | 32° | 31km/h | 17735m | 3.8m/s | -52°C | 1% | 83.2hPa | 2.6V | 03:57:19 | 01:18:51 | 00:00:00 | |
| DL1XH1-15 | 2026-08-31 11:51:19 | 50.11163 | 8.60669 | 30° | 26km/h | 17713m | 4.9m/s | -51.9°C | 4.1% | 83.4hPa | 2.6V | 03:56:45 | 01:18:46 | 00:00:00 | |
| HSKMA3-T | 2026-08-31 11:51:15 | 50.11162 | 8.60669 | 30° | 26km/h | 17713m | 4.9m/s | -51.9°C | 1% | 83.4hPa | 2.6V | 03:58:10 | 01:18:46 | 00:00:00 | |
| CB1BUN | 2026-08-31 11:51:15 | 50.11162 | 8.60669 | 31° | 26km/h | 17713m | 4.9m/s | -51.9°C | 1.4% | 83.4hPa | 2.6V | 03:57:00 | 00:00:00 | 00:00:00 | |
| KANTATE | 2026-08-31 11:51:14 | 50.11162 | 8.60669 | 31° | 26km/h | 17713m | 4.9m/s | -51.9°C | 1.4% | 83.4hPa | 2.6V | 00:00:00 | 00:00:00 | 00:00:00 | |
| DF7PN | 2026-08-31 11:51:12 | 50.11144 | 8.60658 | 23° | 15km/h | 17695m | 4.9m/s | -51.7°C | 1.4% | 83.7hPa | 2.6V | 00:00:00 | 00:00:00 | 00:00:00 | |
| DL1NUX | 2026-08-31 11:51:09 | 50.11110 | 8.60631 | 35° | 26km/h | 17665m | 4.4m/s | -51.4°C | 4.1% | 84hPa | 2.6V | 03:56:56 | 01:18:35 | 00:00:00 | |
| DL1XH1-15 | 2026-08-31 11:51:09 | 50.11116 | 8.60637 | 29° | 27km/h | 17670m | 4.9m/s | -51.4°C | 4.1% | 84hPa | 2.7V | 03:56:55 | 01:18:36 | 00:00:00 | |
| DK7TD | 2026-08-31 11:51:09 | 50.11137 | 8.60652 | 28° | 18km/h | 17687m | 3.6m/s | -51.6°C | 1% | 83.8hPa | 2.7V | 03:57:19 | 01:18:40 | 00:00:00 | |
| DL1XH-west | 2026-08-31 11:51:05 | 50.11116 | 8.60637 | 30° | 27km/h | 17670m | 4.9m/s | -51.4°C | 1% | 84hPa | 2.7V | 03:57:19 | 01:18:36 | 00:00:00 | |
| HSKMA3-T | 2026-08-31 11:51:05 | 50.11110 | 8.60631 | 36° | 26km/h | 17665m | 4.4m/s | -51.4°C | 1% | 84.1hPa | 2.6V | 03:58:10 | 01:18:35 | 00:00:00 | |
| DM0DOS-11 | 2026-08-31 11:51:04 | 50.11105 | 8.60625 | 37° | 26km/h | 17661m | 4.2m/s | -51.4°C | 4.2% | 84.1hPa | 2.6V | 03:56:57 | 01:18:34 | 00:00:00 | |
| HEMX73-6 | 2026-08-31 11:51:04 | 50.11110 | 8.60631 | 36° | 16km/h | 17666m | 4.4m/s | -51.4°C | 4.1% | 84.0hPa | 2.6V | 00:00:00 | 01:18:35 | 00:00:00 | |
| DC4HF-4 | 2026-08-31 11:51:01 | 50.11095 | 8.60614 | 31° | 22km/h | 17653m | 4.6m/s | -51.2°C | 1.4% | 84.2hPa | 2.6V | 00:00:00 | 00:00:00 | 00:00:00 | |
| DL1NUX | 2026-08-31 11:50:59 | 50.11062 | 8.60579 | 30° | 22km/h | 17621m | 5.2m/s | -51.1°C | 4% | 84.7hPa | 2.6V | 03:57:06 | 01:18:25 | 00:00:00 | |
| BIOWL1-15 | 2026-08-31 11:50:59 | 50.11085 | 8.60605 | 31° | 22km/h | 17644m | 3.8m/s | -51.3°C | 1% | 84.3hPa | 2.6V | 03:57:19 | 01:18:30 | 00:00:00 | |
| DL1XH1-15 | 2026-08-31 11:50:59 | 50.11067 | 8.60584 | 36° | 22km/h | 17626m | 4.7m/s | -51.1°C | 4% | 84.6hPa | 2.6V | 03:57:05 | 01:18:26 | 00:00:00 | |
| DB0ND-19 | 2026-08-31 11:50:59 | 50.11080 | 8.60600 | 34° | 22km/h | 17640m | 4.6m/s | -51.2°C | 1.4% | 84.4hPa | 2.6V | 00:00:00 | 00:00:00 | 00:00:00 | |
| DM0DOS-11 | 2026-08-31 11:50:58 | 50.11057 | 8.60575 | 23° | 22km/h | 17617m | 3.6m/s | -51°C | 4% | 84.7hPa | 2.6V | 03:57:07 | 01:18:24 | 00:00:00 | |
| DK7TD | 2026-08-31 11:50:57 | 50.11076 | 8.60595 | 39° | 22km/h | 17635m | 5m/s | -51.1°C | 1% | 84.4hPa | 2.7V | 03:57:19 | 01:18:28 | 00:00:00 | |
| DL1XH-west | 2026-08-31 11:50:55 | 50.11067 | 8.60584 | 37° | 22km/h | 17626m | 4.7m/s | -51.1°C | 0.9% | 84.6hPa | 2.6V | 03:57:19 | 01:18:26 | 00:00:00 | |
| HSKMA3-T | 2026-08-31 11:50:54 | 50.11062 | 8.60579 | 30° | 22km/h | 17621m | 5.2m/s | -51.1°C | 0.9% | 84.7hPa | 2.6V | 03:58:10 | 01:18:25 | 00:00:00 | |
| DL3AQ-11 | 2026-08-31 11:50:54 | 50.11057 | 8.60575 | 23° | 22km/h | 17617m | 3.6m/s | -51.0°C | 1.4% | 84.7hPa | 2.7V | 00:00:00 | 00:00:00 | 00:00:00 | |
| DL8DAS-14 | 2026-08-31 11:50:50 | 50.11039 | 8.60561 | 24° | 16km/h | 17599m | 4.7m/s | -50.8°C | 1.4% | 84.9hPa | 2.7V | 00:00:00 | 00:00:00 | 00:00:00 | |
| DL1NUX | 2026-08-31 11:50:49 | 50.11018 | 8.60544 | 43° | 20km/h | 17575m | 4.3m/s | -50.6°C | 4% | 85.2hPa | 2.7V | 03:57:16 | 01:18:15 | 00:00:00 | |
| DB0NH | 2026-08-31 11:50:49 | 50.11039 | 8.60561 | 25° | 18km/h | 17599m | 4.6m/s | -50.8°C | 4.0% | 84.9hPa | 2.6V | 00:00:00 | 01:18:20 | 00:00:00 | |
| DL1XH1-15 | 2026-08-31 11:50:48 | 50.11022 | 8.60549 | 35° | 20km/h | 17580m | 5.7m/s | -50.6°C | 3.9% | 85.1hPa | 2.7V | 03:57:15 | 01:18:16 | 00:00:00 | |
| DK7TD | 2026-08-31 11:50:46 | 50.11026 | 8.60553 | 27° | 18km/h | 17585m | 4.1m/s | -50.8°C | 0.9% | 85.1hPa | 2.7V | 03:57:19 | 01:18:17 | 00:00:00 | |
| BIOWL9-15 | 2026-08-31 11:50:45 | 50.11022 | 8.60549 | 35° | 20km/h | 17580m | 5.7m/s | -50.7°C | 1.4% | 85.2hPa | 2.7V | 00:00:00 | 00:00:00 | 00:00:00 | |
| DL1XH-west | 2026-08-31 11:50:44 | 50.11018 | 8.60544 | 44° | 20km/h | 17575m | 4.4m/s | -50.6°C | 0.9% | 85.2hPa | 2.7V | 03:57:19 | 01:18:15 | 00:00:00 | |
| DM0DOS-11 | 2026-08-31 11:50:44 | 50.11014 | 8.60538 | 45° | 20km/h | 17571m | 3.8m/s | -50.6°C | 3.9% | 85.3hPa | 2.6V | 03:57:17 | 01:18:14 | 00:00:00 | |
| HSKMA3-T | 2026-08-31 11:50:43 | 50.11014 | 8.60538 | 46° | 20km/h | 17571m | 3.8m/s | -50.6°C | 0.9% | 85.3hPa | 2.6V | 03:58:10 | 01:18:14 | 00:00:00 | |
| DB0UT-7 | 2026-08-31 11:50:43 | 50.11014 | 8.60538 | 46° | 16km/h | 17571m | 3.7m/s | -50.6°C | 3.9% | 85.2hPa | 2.6V | 00:00:00 | 00:00:00 | 00:00:00 | |
| DL1NUX | 2026-08-31 11:50:39 | 50.10985 | 8.60509 | 17° | 18km/h | 17528m | 3.4m/s | -50.2°C | 3.9% | 85.9hPa | 2.7V | 03:57:26 | 01:18:05 | 00:00:00 | |
| DJ8HS-15 | 2026-08-31 11:50:39 | 50.11002 | 8.60522 | 39° | 18km/h | 17552m | 5.3m/s | -50.4°C | 3.9% | 85.5hPa | 2.7V | 00:00:00 | 01:18:10 | 00:00:00 | |
| DM0DOS-11 | 2026-08-31 11:50:38 | 50.10981 | 8.60506 | 23° | 20km/h | 17524m | 4.5m/s | -50.3°C | 4% | 85.9hPa | 2.7V | 03:57:27 | 01:18:04 | 00:00:00 | |
| BIOWL1-15 | 2026-08-31 11:50:36 | 50.10994 | 8.60513 | 25° | 16km/h | 17537m | 5.3m/s | -50.4°C | 0.9% | 85.8hPa | 2.6V | 03:58:10 | 01:18:07 | 00:00:00 | |
| DL1XH-west | 2026-08-31 11:50:34 | 50.10981 | 8.60506 | 24° | 20km/h | 17524m | 4.5m/s | -50.3°C | 0.9% | 85.9hPa | 2.7V | 03:58:10 | 01:18:04 | 00:00:00 | |
| HSKMA3-T | 2026-08-31 11:50:32 | 50.10976 | 8.60502 | 33° | 22km/h | 17519m | 5.2m/s | -50.1°C | 0.8% | 86hPa | 2.7V | 03:58:10 | 01:18:03 | 00:00:00 | |
| NBG1-10 | 2026-08-31 11:50:32 | 50.10976 | 8.60502 | 33° | 16km/h | 17520m | 5.1m/s | -50.1°C | 3.9% | 85.9hPa | 2.7V | 00:00:00 | 01:18:03 | 00:00:00 | |
| DL1ZP-14 | 2026-08-31 11:50:28 | 50.10961 | 8.60483 | 33° | 15km/h | 17503m | 4.9m/s | -50.0°C | 1.4% | 86.2hPa | 2.7V | 00:00:00 | 00:00:00 | 00:00:00 | |
| DL1XH1-15 | 2026-08-31 11:50:27 | 50.10952 | 8.60473 | 44° | 16km/h | 17490m | 4.8m/s | -49.9°C | 3.9% | 86.4hPa | 2.6V | 03:57:35 | 01:17:56 | 00:00:00 | |
| BIOWL1-15 | 2026-08-31 11:50:25 | 50.10913 | 8.60431 | 41° | 13km/h | 17446m | 5.4m/s | -49.5°C | 0.8% | 87hPa | 2.7V | 03:58:10 | 01:17:46 | 00:00:00 | |
| DM0DOS-11 | 2026-08-31 11:50:25 | 50.10946 | 8.60463 | 42° | 22km/h | 17481m | 3.6m/s | -49.8°C | 3.8% | 86.5hPa | 2.6V | 03:57:37 | 01:17:54 | 00:00:00 | |
| HSKMA3-T | 2026-08-31 11:50:22 | 50.10941 | 8.60458 | 37° | 24km/h | 17477m | 3.9m/s | -49.7°C | 0.8% | 86.5hPa | 2.7V | 03:58:10 | 01:17:53 | 00:00:00 | |
| DK7TD | 2026-08-31 11:50:20 | 50.10931 | 8.60449 | 24° | 22km/h | 17468m | 4m/s | -49.8°C | 0.8% | 86.7hPa | 2.7V | 03:59:01 | 01:17:51 | 00:00:00 | |
| DL1NUX | 2026-08-31 11:50:20 | 50.10910 | 8.60428 | 36° | 13km/h | 17441m | 4.7m/s | -49.4°C | 3.8% | 87hPa | 2.7V | 03:57:46 | 01:17:45 | 00:00:00 | |
| DB0NH | 2026-08-31 11:50:19 | 50.10926 | 8.60445 | 25° | 15km/h | 17464m | 3.9m/s | -49.7°C | 3.8% | 86.7hPa | 2.7V | 00:00:00 | 01:17:50 | 00:00:00 | |
| DL1XH1-15 | 2026-08-31 11:50:18 | 50.10913 | 8.60431 | 40° | 13km/h | 17446m | 5.4m/s | -49.5°C | 3.8% | 87hPa | 2.7V | 03:57:45 | 01:17:46 | 00:00:00 | |
| DL1XH-west | 2026-08-31 11:50:12 | 50.10906 | 8.60421 | 52° | 13km/h | 17433m | 4.4m/s | -49.4°C | 0.8% | 87.2hPa | 2.6V | 03:58:10 | 01:17:43 | 00:00:00 | |
| BIOWL1-15 | 2026-08-31 11:50:11 | 50.10892 | 8.60393 | 43° | 11km/h | 17401m | 5.6m/s | -49.2°C | 0.7% | 87.5hPa | 2.6V | 03:58:10 | 01:17:36 | 00:00:00 | |
| HSKMA3-T | 2026-08-31 11:50:10 | 50.10901 | 8.60407 | 61° | 15km/h | 17418m | 4.9m/s | -49.2°C | 0.7% | 87.3hPa | 2.7V | 03:58:10 | 01:17:40 | 00:00:00 | |
| DL1NUX | 2026-08-31 11:50:10 | 50.10889 | 8.60389 | 48° | 11km/h | 17395m | 5.1m/s | -49.2°C | 3.6% | 87.6hPa | 2.7V | 03:57:56 | 01:17:35 | 00:00:00 | |
| KANTATE | 2026-08-31 11:50:09 | 50.10901 | 8.60407 | 62° | 15km/h | 17418m | 4.9m/s | -49.2°C | 1.3% | 87.3hPa | 2.6V | 00:00:00 | 00:00:00 | 00:00:00 | |
| DL1XH1-15 | 2026-08-31 11:50:08 | 50.10892 | 8.60393 | 42° | 11km/h | 17401m | 5.6m/s | -49.2°C | 3.7% | 87.5hPa | 2.6V | 03:57:55 | 01:17:36 | 00:00:00 | |
| DM0DOS-11 | 2026-08-31 11:50:07 | 50.10885 | 8.60383 | 38° | 13km/h | 17385m | 5.7m/s | -49.2°C | 3.6% | 87.7hPa | 2.7V | 03:57:58 | 01:17:33 | 00:00:00 | |
| DL1XH-west | 2026-08-31 11:50:02 | 50.10885 | 8.60383 | 39° | 13km/h | 17385m | 5.7m/s | -49.2°C | 0.7% | 87.7hPa | 2.7V | 03:58:10 | 01:17:33 | 00:00:00 | |
| HSKMA3-T | 2026-08-31 11:49:58 | 50.10871 | 8.60363 | 56° | 22km/h | 17366m | 5.4m/s | -48.9°C | 0.7% | 88hPa | 2.7V | 03:58:10 | 01:17:29 | 00:00:00 | |
| DM0DOS-11 | 2026-08-31 11:49:57 | 50.10860 | 8.60327 | 78° | 9km/h | 17339m | 6m/s | -48.8°C | 3.6% | 88.4hPa | 2.7V | 03:58:08 | 01:17:23 | 00:00:00 | |
| BIOWL1-15 | 2026-08-31 11:49:56 | 50.10862 | 8.60335 | 63° | 15km/h | 17348m | 3.8m/s | -48.9°C | 0.7% | 88.2hPa | 2.6V | 03:58:10 | 01:17:25 | 00:00:00 | |
| DL1XH-west | 2026-08-31 11:49:51 | 50.10860 | 8.60324 | 88° | 9km/h | 17333m | 5.3m/s | -48.8°C | 0.7% | 88.5hPa | 2.7V | 03:58:10 | 01:17:22 | 00:00:00 | |
| CB1BUN | 2026-08-31 11:49:51 | 50.10860 | 8.60323 | 89° | 9km/h | 17333m | 5.3m/s | -48.8°C | 1.3% | 88.4hPa | 2.6V | 03:58:00 | 00:00:00 | 00:00:00 | |
| DL1XH1-15 | 2026-08-31 11:49:49 | 50.10844 | 8.60305 | 32° | 26km/h | 17304m | 4.4m/s | -48.8°C | 3.5% | 88.9hPa | 2.6V | 03:58:15 | 01:17:16 | 00:00:00 | |
| HSKMA3-T | 2026-08-31 11:49:49 | 50.10857 | 8.60314 | 30° | 11km/h | 17319m | 6.2m/s | 0°C | 0% | 88.6hPa | 2.6V | 03:59:01 | 01:17:19 | 00:00:00 | |
| DL8DAS-14 | 2026-08-31 11:49:48 | 50.10854 | 8.60312 | 18° | 16km/h | 17314m | 5.4m/s | -48.8°C | 1.2% | 88.7hPa | 2.7V | 00:00:00 | 00:00:00 | 00:00:00 | |
| DM0DOS-11 | 2026-08-31 11:49:47 | 50.10831 | 8.60277 | 73° | 33km/h | 17288m | 4.5m/s | -48.6°C | 3.5% | 89hPa | 2.7V | 03:58:18 | 01:17:13 | 00:00:00 | |
| BIOWL1-15 | 2026-08-31 11:49:43 | 50.10834 | 8.60289 | 60° | 31km/h | 17293m | 5.4m/s | -48.7°C | 0.6% | 89hPa | 2.7V | 03:59:01 | 01:17:14 | 00:00:00 | |
| DL1XH-west | 2026-08-31 11:49:40 | 50.10829 | 8.60252 | 87° | 31km/h | 17279m | 5.1m/s | -48.7°C | 0.6% | 89.2hPa | 2.6V | 03:59:01 | 01:17:11 | 00:00:00 | |
| DK7TD | 2026-08-31 11:49:39 | 50.10828 | 8.60241 | 88° | 26km/h | 17274m | 5.4m/s | -48.7°C | 0.6% | 89.2hPa | 2.7V | 03:59:01 | 01:17:10 | 00:00:00 | |
| DJ8HS-15 | 2026-08-31 11:49:39 | 50.10828 | 8.60241 | 89° | 26km/h | 17274m | 5.3m/s | -48.7°C | 3.4% | 89.2hPa | 2.7V | 00:00:00 | 01:17:10 | 00:00:00 | |
| DL1XH1-15 | 2026-08-31 11:49:38 | 50.10823 | 8.60215 | 58° | 16km/h | 17255m | 4.7m/s | -49°C | 3.5% | 89.5hPa | 2.7V | 03:58:25 | 01:17:06 | 00:00:00 | |
| DL1NUX | 2026-08-31 11:49:38 | 50.10821 | 8.60209 | 62° | 18km/h | 17250m | 4.8m/s | -49.1°C | 3.6% | 89.5hPa | 2.7V | 03:58:26 | 01:17:05 | 00:00:00 | |
| HSKMA3-T | 2026-08-31 11:49:38 | 50.10828 | 8.60232 | 83° | 20km/h | 17269m | 5.2m/s | 0°C | 0% | 0hPa | 2.7V | 03:59:01 | 01:17:09 | 00:00:00 | |
| BIOWL1-15 | 2026-08-31 11:49:32 | 50.10817 | 8.60193 | 74° | 26km/h | 17241m | 4.3m/s | -49.3°C | 0.7% | 89.7hPa | 2.6V | 03:59:01 | 01:17:03 | 00:00:00 | |
| DL1XH-west | 2026-08-31 11:49:30 | 50.10813 | 8.60161 | 80° | 27km/h | 17227m | 5.8m/s | -49.5°C | 0.8% | 89.9hPa | 2.7V | 03:59:01 | 01:17:00 | 00:00:00 | |
| DL1XH1-15 | 2026-08-31 11:49:28 | 50.10806 | 8.60117 | 70° | 33km/h | 17208m | 4.8m/s | -49.6°C | 3.7% | 90.2hPa | 2.7V | 03:58:35 | 01:16:56 | 00:00:00 | |
| HSKMA3-T | 2026-08-31 11:49:28 | 50.10812 | 8.60151 | 78° | 27km/h | 17222m | 4.5m/s | 0°C | 0% | 0hPa | 2.6V | 03:59:01 | 01:16:59 | 00:00:00 | |
| DL1NUX | 2026-08-31 11:49:26 | 50.10802 | 8.60105 | 70° | 33km/h | 17204m | 4m/s | -49.6°C | 3.7% | 90.2hPa | 2.7V | 03:58:36 | 01:16:55 | 00:00:00 | |
| BIOWL1-15 | 2026-08-31 11:49:22 | 50.10798 | 8.60082 | 77° | 29km/h | 17195m | 5m/s | -49.6°C | 0.7% | 90.3hPa | 2.6V | 03:59:01 | 01:16:53 | 00:00:00 | |
| DL1NUX | 2026-08-31 11:49:19 | 50.10790 | 8.59974 | 74° | 38km/h | 17162m | 4m/s | -49.5°C | 3.7% | 90.8hPa | 2.6V | 03:58:46 | 01:16:45 | 00:00:00 | |
| DB0NH | 2026-08-31 11:49:19 | 50.10796 | 8.60047 | 89° | 44km/h | 17183m | 5.0m/s | -49.5°C | 3.7% | 90.4hPa | 2.7V | 03:58:00 | 01:16:50 | 00:00:00 | |
| DL1XH1-15 | 2026-08-31 11:49:18 | 50.10792 | 8.59988 | 78° | 37km/h | 17166m | 4.7m/s | -49.5°C | 3.7% | 90.8hPa | 2.6V | 03:58:45 | 01:16:46 | 00:00:00 | |
| DL1XH-west | 2026-08-31 11:49:18 | 50.10795 | 8.60033 | 87° | 37km/h | 17179m | 4m/s | -49.5°C | 0.7% | 90.6hPa | 2.7V | 03:59:01 | 01:16:49 | 00:00:00 | |
| DK7TD | 2026-08-31 11:49:17 | 50.10795 | 8.60018 | 85° | 38km/h | 17175m | 3.5m/s | -49.5°C | 0.8% | 90.6hPa | 2.7V | 03:59:01 | 01:16:48 | 00:00:00 | |
| HSKMA3-T | 2026-08-31 11:49:16 | 50.10794 | 8.60003 | 83° | 38km/h | 17171m | 4.7m/s | 0°C | 0% | 0hPa | 2.6V | 03:59:01 | 01:16:47 | 00:00:00 | |
| DC4HF-4 | 2026-08-31 11:49:13 | 50.10784 | 8.59944 | 71° | 40km/h | 17154m | 5.2m/s | -49.5°C | 1.3% | 90.9hPa | 2.7V | 00:00:00 | 00:00:00 | 00:00:00 | |
| BIOWL9-15 | 2026-08-31 11:49:12 | 50.10781 | 8.59928 | 71° | 42km/h | 17149m | 4.7m/s | -49.5°C | 1.3% | 91.0hPa | 2.7V | 00:00:00 | 00:00:00 | 00:00:00 | |
| DF2AP-13 | 2026-08-31 11:49:11 | 50.10781 | 8.59928 | 72° | 53km/h | 17149m | 4.6m/s | -49.5°C | 3.7% | 91.0hPa | 2.7V | 03:58:00 | 01:16:42 | 00:00:00 | |
| DL1XH1-15 | 2026-08-31 11:49:10 | 50.10759 | 8.59839 | 70° | 40km/h | 17122m | 5.5m/s | -49.4°C | 3.6% | 91.4hPa | 2.7V | 03:58:55 | 01:16:36 | 00:00:00 | |
| DL1NUX | 2026-08-31 11:49:08 | 50.10756 | 8.59823 | 71° | 44km/h | 17117m | 4.4m/s | -49.4°C | 3.6% | 91.5hPa | 2.6V | 03:58:56 | 01:16:35 | 00:00:00 | |
| DM0DOS-11 | 2026-08-31 11:49:07 | 50.10749 | 8.59790 | 72° | 46km/h | 17108m | 5.2m/s | -49.5°C | 3.6% | 91.6hPa | 2.6V | 03:58:58 | 01:16:33 | 00:00:00 | |
| DL1XH-west | 2026-08-31 11:49:07 | 50.10766 | 8.59868 | 68° | 38km/h | 17130m | 4.1m/s | -49.5°C | 0.7% | 91.3hPa | 2.7V | 03:59:01 | 01:16:38 | 00:00:00 | |
| HSKMA3-T | 2026-08-31 11:49:06 | 50.10759 | 8.59839 | 71° | 40km/h | 17122m | 5.5m/s | 0°C | 0% | 0hPa | 2.7V | 03:59:01 | 01:16:36 | 00:00:00 | |
| DK7TD | 2026-08-31 11:49:04 | 50.10756 | 8.59823 | 72° | 44km/h | 17117m | 4.4m/s | -49.4°C | 0.7% | 91.5hPa | 2.6V | 03:59:01 | 01:16:35 | 00:00:00 | |
| HEMX73-6 | 2026-08-31 11:49:02 | 50.10749 | 8.59790 | 73° | 60km/h | 17108m | 5.2m/s | -49.4°C | 3.6% | 91.5hPa | 2.6V | 03:58:00 | 01:16:33 | 00:00:00 | |
| DL8DAS-15 | 2026-08-31 11:49:01 | 50.10749 | 8.59790 | 74° | 46km/h | 17108m | 5.2m/s | -49.5°C | 1.3% | 91.6hPa | 2.7V | 03:59:00 | 00:00:00 | 00:00:00 | |
| DB0UT-7 | 2026-08-31 11:49:00 | 50.10741 | 8.59754 | 73° | 57km/h | 17099m | 4.1m/s | -49.5°C | 3.7% | 91.6hPa | 2.7V | 00:00:00 | 00:00:00 | 00:00:00 | |
| DJ8HS-15 | 2026-08-31 11:48:59 | 50.10737 | 8.59734 | 73° | 53km/h | 17094m | 5.5m/s | -49.6°C | 3.6% | 91.7hPa | 2.7V | 03:59:00 | 01:16:30 | 00:00:00 | |
| DL1XH1-15 | 2026-08-31 11:48:58 | 50.10721 | 8.59655 | 70° | 47km/h | 17076m | 4.8m/s | -49.9°C | 3.6% | 92hPa | 2.7V | 03:59:05 | 01:16:26 | 00:00:00 | |
| BIOWL1-15 | 2026-08-31 11:48:58 | 50.10733 | 8.59714 | 73° | 57km/h | 17089m | 4.9m/s | -49.7°C | 0.7% | 91.8hPa | 2.6V | 03:59:52 | 01:16:29 | 00:00:00 | |
| DL1NUX | 2026-08-31 11:48:57 | 50.10717 | 8.59638 | 69° | 44km/h | 17072m | 3.4m/s | -49.9°C | 3.7% | 92.1hPa | 2.7V | 03:59:06 | 01:16:25 | 00:00:00 | |
| DL1XH-west | 2026-08-31 11:48:57 | 50.10729 | 8.59693 | 72° | 55km/h | 17085m | 3.6m/s | -49.7°C | 0.7% | 91.9hPa | 2.6V | 03:59:52 | 01:16:28 | 00:00:00 | |
| DK7TD | 2026-08-31 11:48:54 | 50.10717 | 8.59638 | 69° | 44km/h | 17072m | 3.4m/s | -49.9°C | 0.7% | 92.1hPa | 2.7V | 04:00:43 | 01:16:25 | 00:00:00 | |
| DL9SK-14 | 2026-08-31 11:48:53 | 50.10709 | 8.59605 | 69° | 46km/h | 17063m | 5.1m/s | -50.0°C | 1.3% | 92.2hPa | 2.6V | 00:00:00 | 00:00:00 | 00:00:00 | |
| DL8DAS-15 | 2026-08-31 11:48:52 | 50.10709 | 8.59605 | 71° | 46km/h | 17063m | 5.1m/s | -50.0°C | 1.3% | 92.2hPa | 2.6V | 00:00:00 | 00:00:00 | 00:00:00 | |
| DH7VM-15 | 2026-08-31 11:48:51 | 50.10705 | 8.59587 | 72° | 49km/h | 17058m | 5.2m/s | -50.0°C | 1.3% | 92.2hPa | 2.6V | 00:00:00 | 00:00:00 | 00:00:00 | |
| DB0NH | 2026-08-31 11:48:49 | 50.10696 | 8.59549 | 71° | 62km/h | 17049m | 4.9m/s | -50.0°C | 3.6% | 92.4hPa | 2.6V | 00:00:00 | 01:16:20 | 00:00:00 | |
| DL1XH1-15 | 2026-08-31 11:48:48 | 50.10679 | 8.59469 | 70° | 55km/h | 17030m | 4.2m/s | -50.1°C | 3.7% | 92.6hPa | 2.6V | 03:59:15 | 01:16:16 | 00:00:00 | |
| BIOWL1-15 | 2026-08-31 11:48:47 | 50.10679 | 8.59469 | 71° | 55km/h | 17030m | 4.2m/s | -50.1°C | 0.8% | 92.6hPa | 2.6V | 03:59:52 | 01:16:16 | 00:00:00 | |
| DM0DOS-11 | 2026-08-31 11:48:47 | 50.10662 | 8.59404 | 65° | 62km/h | 17016m | 3.8m/s | -50.2°C | 3.7% | 92.8hPa | 2.7V | 03:59:18 | 01:16:13 | 00:00:00 | |
| DL1XH-west | 2026-08-31 11:48:47 | 50.10683 | 8.59489 | 72° | 53km/h | 17034m | 4.3m/s | -50.1°C | 0.8% | 92.6hPa | 2.6V | 03:59:52 | 01:16:17 | 00:00:00 | |
| DL1NUX | 2026-08-31 11:48:46 | 50.10674 | 8.59448 | 69° | 58km/h | 17026m | 5.2m/s | -50.1°C | 3.7% | 92.7hPa | 2.6V | 03:59:16 | 01:16:15 | 00:00:00 | |
| DL8DAS-14 | 2026-08-31 11:48:46 | 50.10679 | 8.59469 | 70° | 55km/h | 17030m | 4.2m/s | -50.1°C | 1.3% | 92.6hPa | 2.7V | 00:00:00 | 00:00:00 | 00:00:00 | |
| DK7TD | 2026-08-31 11:48:43 | 50.10669 | 8.59426 | 68° | 60km/h | 17021m | 4.3m/s | -50.1°C | 0.8% | 92.8hPa | 2.7V | 04:00:43 | 01:16:14 | 00:00:00 | |
| BIOWL9-15 | 2026-08-31 11:48:41 | 50.10649 | 8.59362 | 60° | 58km/h | 17008m | 4.8m/s | -50.4°C | 1.3% | 93.0hPa | 2.6V | 00:00:00 | 00:00:00 | 00:00:00 | |
| DF2AP-13 | 2026-08-31 11:48:40 | 50.10649 | 8.59362 | 61° | 66km/h | 17008m | 4.7m/s | -50.4°C | 3.8% | 92.9hPa | 2.6V | 00:00:00 | 01:16:11 | 00:00:00 | |
| DJ8HS-15 | 2026-08-31 11:48:39 | 50.10641 | 8.59342 | 60° | 66km/h | 17004m | 3.5m/s | -50.4°C | 3.8% | 93.0hPa | 2.6V | 00:00:00 | 01:16:10 | 00:00:00 | |
| DL1XH1-15 | 2026-08-31 11:48:38 | 50.10613 | 8.59259 | 64° | 64km/h | 16986m | 4m/s | -50.8°C | 3.9% | 93.3hPa | 2.7V | 03:59:25 | 01:16:06 | 00:00:00 | |
| DL3AQ-11 | 2026-08-31 11:48:38 | 50.10634 | 8.59323 | 60° | 57km/h | 17000m | 3.3m/s | -50.6°C | 1.4% | 93.1hPa | 2.6V | 00:00:00 | 00:00:00 | 00:00:00 | |
| DM0DOS-11 | 2026-08-31 11:48:37 | 50.10591 | 8.59191 | 60° | 64km/h | 16972m | 4.7m/s | -50.8°C | 3.9% | 93.5hPa | 2.6V | 03:59:28 | 01:16:03 | 00:00:00 | |
| BIOWL1-15 | 2026-08-31 11:48:37 | 50.10627 | 8.59302 | 62° | 60km/h | 16996m | 5.2m/s | -50.7°C | 0.9% | 93.1hPa | 2.7V | 03:59:52 | 01:16:08 | 00:00:00 | |
| DL1XH-west | 2026-08-31 11:48:36 | 50.10620 | 8.59281 | 64° | 62km/h | 16990m | 4.9m/s | -50.7°C | 0.9% | 93.2hPa | 2.7V | 03:59:52 | 01:16:07 | 00:00:00 | |
| DL1NUX | 2026-08-31 11:48:36 | 50.10606 | 8.59236 | 63° | 64km/h | 16982m | 4.6m/s | -50.8°C | 3.9% | 93.4hPa | 2.6V | 03:59:26 | 01:16:05 | 00:00:00 | |
| SO1NDE-10 | 2026-08-31 11:48:36 | 50.10620 | 8.59281 | 64° | 66km/h | 16991m | 4.8m/s | -50.7°C | 3.9% | 93.2hPa | 2.7V | 00:00:00 | 01:16:07 | 00:00:00 | |
| DJ2DS-15 | 2026-08-31 11:48:34 | 50.10598 | 8.59213 | 62° | 64km/h | 16977m | 5.6m/s | -50.8°C | 1.4% | 93.4hPa | 2.7V | 00:00:00 | 00:00:00 | 00:00:00 | |
| BIOWL7-15 | 2026-08-31 11:48:32 | 50.10591 | 8.59191 | 61° | 64km/h | 16972m | 4.7m/s | -50.8°C | 1.4% | 93.5hPa | 2.7V | 00:00:00 | 00:00:00 | 00:00:00 | |
| DB0UT-7 | 2026-08-31 11:48:30 | 50.10575 | 8.59148 | 61° | 66km/h | 16962m | 5.5m/s | -50.8°C | 3.9% | 93.5hPa | 2.7V | 03:59:00 | 01:16:01 | 00:00:00 | |
| DL1XH1-15 | 2026-08-31 11:48:28 | 50.10531 | 8.59041 | 55° | 69km/h | 16939m | 4.4m/s | -50.9°C | 3.9% | 93.9hPa | 2.7V | 03:59:35 | 01:15:56 | 00:00:00 | |
| DM0DOS-11 | 2026-08-31 11:48:27 | 50.10491 | 8.58945 | 55° | 77km/h | 16921m | 5.5m/s | -50.9°C | 3.8% | 94.2hPa | 2.7V | 03:59:39 | 01:15:52 | 00:00:00 | |
| DL1NUX | 2026-08-31 11:48:26 | 50.10521 | 8.59018 | 57° | 71km/h | 16934m | 5.5m/s | -51°C | 3.9% | 94hPa | 2.6V | 03:59:36 | 01:15:55 | 00:00:00 | |
| DL1XH-west | 2026-08-31 11:48:26 | 50.10541 | 8.59063 | 55° | 68km/h | 16944m | 4.6m/s | -50.9°C | 0.9% | 93.9hPa | 2.7V | 03:59:52 | 01:15:57 | 00:00:00 | |
| DK7TD | 2026-08-31 11:48:25 | 50.10531 | 8.59041 | 56° | 69km/h | 16939m | 4.4m/s | -50.9°C | 0.9% | 94hPa | 2.7V | 04:00:43 | 01:15:56 | 00:00:00 | |
| DL3AQ-11 | 2026-08-31 11:48:25 | 50.10521 | 8.59018 | 57° | 69km/h | 16934m | 5.5m/s | -51.0°C | 1.4% | 94.0hPa | 2.6V | 00:00:00 | 00:00:00 | 00:00:00 | |
| DB0ND-19 | 2026-08-31 11:48:24 | 50.10512 | 8.58994 | 57° | 71km/h | 16930m | 4.0m/s | -50.9°C | 1.4% | 94.1hPa | 2.6V | 00:00:00 | 00:00:00 | 00:00:00 | |
| DL9SK-14 | 2026-08-31 11:48:22 | 50.10491 | 8.58945 | 55° | 75km/h | 16921m | 5.5m/s | -50.9°C | 1.4% | 94.2hPa | 2.6V | 00:00:00 | 00:00:00 | 00:00:00 | |
| SONCRA | 2026-08-31 11:48:21 | 50.10479 | 8.58921 | 53° | 77km/h | 16915m | 4.8m/s | -51.0°C | 1.4% | 94.3hPa | 2.6V | 00:00:00 | 00:00:00 | 00:00:00 | |
| DB0NH | 2026-08-31 11:48:19 | 50.10468 | 8.58897 | 53° | 66km/h | 16911m | 4.0m/s | -50.9°C | 3.9% | 94.3hPa | 2.6V | 00:00:00 | 01:15:50 | 00:00:00 | |
| DL1XH1-15 | 2026-08-31 11:48:18 | 50.10427 | 8.58808 | 54° | 62km/h | 16893m | 4.2m/s | -50.9°C | 3.8% | 94.6hPa | 2.6V | 03:59:45 | 01:15:46 | 00:00:00 | |
| DL1NUX | 2026-08-31 11:48:16 | 50.10418 | 8.58789 | 53° | 60km/h | 16887m | 5.5m/s | -50.9°C | 3.9% | 94.7hPa | 2.7V | 03:59:46 | 01:15:45 | 00:00:00 | |
| DL1XH-west | 2026-08-31 11:48:15 | 50.10427 | 8.58808 | 55° | 62km/h | 16893m | 4.2m/s | -50.9°C | 0.8% | 94.6hPa | 2.6V | 03:59:52 | 01:15:46 | 00:00:00 | |
| BIOWL1-15 | 2026-08-31 11:48:14 | 50.10418 | 8.58789 | 54° | 60km/h | 16888m | 5.5m/s | -50.9°C | 0.9% | 94.7hPa | 2.7V | 03:59:52 | 01:15:45 | 00:00:00 | |
| DL3AQ-11 | 2026-08-31 11:48:14 | 50.10409 | 8.58770 | 52° | 58km/h | 16883m | 4.8m/s | -50.9°C | 1.4% | 94.8hPa | 2.6V | 00:00:00 | 00:00:00 | 00:00:00 | |
| DO1YAY-16 | 2026-08-31 11:48:10 | 50.10373 | 8.58694 | 53° | 64km/h | 16864m | 4.8m/s | -51.0°C | 1.4% | 95.0hPa | 2.6V | 00:00:00 | 00:00:00 | 00:00:00 | |
| DF2AP-13 | 2026-08-31 11:48:09 | 50.10373 | 8.58694 | 54° | 69km/h | 16864m | 4.7m/s | -51.0°C | 3.9% | 95.0hPa | 2.6V | 00:00:00 | 01:15:40 | 00:00:00 | |
| DL1XH1-15 | 2026-08-31 11:48:08 | 50.10330 | 8.58607 | 54° | 69km/h | 16846m | 5.1m/s | -51.2°C | 3.8% | 95.3hPa | 2.6V | 03:59:55 | 01:15:36 | 00:00:00 | |
| DJTTGO | 2026-08-31 11:48:08 | 50.10362 | 8.58673 | 53° | 69km/h | 16859m | 5.2m/s | -51.1°C | 0% | 0hPa | 2.7V | 03:59:00 | 00:00:00 | 00:00:00 | |
| DM0DOS-11 | 2026-08-31 11:48:06 | 50.10292 | 8.58527 | 50° | 60km/h | 16829m | 4.5m/s | -51.4°C | 3.9% | 95.5hPa | 2.7V | 03:59:59 | 01:15:32 | 00:00:00 | |
| DK7TD | 2026-08-31 11:48:06 | 50.10340 | 8.58629 | 53° | 71km/h | 16851m | 3.7m/s | -51.2°C | 0.9% | 95.2hPa | 2.7V | 04:00:43 | 01:15:37 | 00:00:00 | |
| DL1NUX | 2026-08-31 11:48:06 | 50.10320 | 8.58586 | 55° | 66km/h | 16841m | 4.8m/s | -51.3°C | 3.9% | 95.4hPa | 2.6V | 03:59:56 | 01:15:35 | 00:00:00 | |
| DL1XH-west | 2026-08-31 11:48:04 | 50.10320 | 8.58586 | 55° | 66km/h | 16841m | 4.8m/s | -51.3°C | 0.9% | 95.4hPa | 2.6V | 04:00:43 | 01:15:35 | 00:00:00 | |
| BIOWL1-15 | 2026-08-31 11:48:03 | 50.10261 | 8.58469 | 52° | 68km/h | 16816m | 4.9m/s | -51.6°C | 0.9% | 95.7hPa | 2.6V | 04:00:43 | 01:15:29 | 00:00:00 | |
| DK7TD | 2026-08-31 11:47:56 | 50.10240 | 8.58426 | 51° | 71km/h | 16807m | 3.9m/s | -51.7°C | 0.9% | 95.9hPa | 2.7V | 04:00:43 | 01:15:27 | 00:00:00 | |
| DL1NUX | 2026-08-31 11:47:56 | 50.10217 | 8.58383 | 49° | 71km/h | 16798m | 5m/s | -51.9°C | 4.1% | 96hPa | 2.7V | 04:00:06 | 01:15:25 | 00:00:00 | |
| DK5PH-5 | 2026-08-31 11:47:56 | 50.10240 | 8.58426 | 52° | 69km/h | 16808m | 3.9m/s | -51.6°C | 4.0% | 95.8hPa | 2.7V | 00:00:00 | 01:15:27 | 00:00:00 | |
| DM0DOS-11 | 2026-08-31 11:47:55 | 50.10183 | 8.58319 | 52° | 69km/h | 16783m | 4.6m/s | -52.1°C | 4.2% | 96.2hPa | 2.6V | 04:00:09 | 01:15:22 | 00:00:00 | |
| DL1XH-west | 2026-08-31 11:47:53 | 50.10205 | 8.58362 | 49° | 71km/h | 16793m | 4.4m/s | -51.9°C | 1% | 96.1hPa | 2.6V | 04:00:43 | 01:15:24 | 00:00:00 | |
| DB0ND-19 | 2026-08-31 11:47:53 | 50.10194 | 8.58340 | 50° | 69km/h | 16788m | 5.7m/s | -52.0°C | 1.5% | 96.2hPa | 2.6V | 00:00:00 | 00:00:00 | 00:00:00 | |
| DL9SK-14 | 2026-08-31 11:47:51 | 50.10172 | 8.58298 | 51° | 68km/h | 16778m | 4.0m/s | -52.1°C | 1.5% | 96.3hPa | 2.6V | 00:00:00 | 00:00:00 | 00:00:00 | |
| DL1XH1-15 | 2026-08-31 11:47:50 | 50.10114 | 8.58197 | 44° | 73km/h | 16755m | 3.5m/s | -52.1°C | 4.2% | 96.7hPa | 2.6V | 04:00:15 | 01:15:16 | 00:00:00 | |
| DL9PN | 2026-08-31 11:47:50 | 50.10150 | 8.58256 | 47° | 68km/h | 16769m | 4.6m/s | -52.2°C | 1.5% | 96.5hPa | 2.7V | 00:00:00 | 00:00:00 | 00:00:00 | |
| DB0NH | 2026-08-31 11:47:49 | 50.10161 | 8.58277 | 51° | 68km/h | 16774m | 5.6m/s | -52.1°C | 4.2% | 96.3hPa | 2.7V | 04:00:00 | 01:15:20 | 00:00:00 | |
| DL8DAS-15 | 2026-08-31 11:47:48 | 50.10150 | 8.58256 | 49° | 68km/h | 16769m | 4.6m/s | -52.2°C | 1.5% | 96.5hPa | 2.7V | 00:00:00 | 00:00:00 | 00:00:00 | |
| DL1NUX | 2026-08-31 11:47:46 | 50.10100 | 8.58177 | 41° | 75km/h | 16751m | 5.5m/s | -52°C | 4.2% | 96.7hPa | 2.7V | 04:00:16 | 01:15:15 | 00:00:00 | |
| DL3AQ-11 | 2026-08-31 11:47:45 | 50.10113 | 8.58197 | 44° | 71km/h | 16755m | 3.5m/s | -52.1°C | 1.5% | 96.7hPa | 2.6V | 00:00:00 | 00:00:00 | 00:00:00 | |
| DM0DOS-11 | 2026-08-31 11:47:44 | 50.10056 | 8.58120 | 40° | 77km/h | 16736m | 5.1m/s | -51.9°C | 4.2% | 97hPa | 2.6V | 04:00:19 | 01:15:12 | 00:00:00 | |
| DL1XH-west | 2026-08-31 11:47:43 | 50.10086 | 8.58158 | 39° | 75km/h | 16745m | 5.1m/s | -52°C | 1% | 96.8hPa | 2.7V | 04:00:43 | 01:15:14 | 00:00:00 | |
| BIOWL1-15 | 2026-08-31 11:47:42 | 50.10042 | 8.58100 | 43° | 75km/h | 16731m | 4.2m/s | -51.9°C | 1% | 97hPa | 2.6V | 04:00:43 | 01:15:11 | 00:00:00 | |
| DK7TD | 2026-08-31 11:47:42 | 50.10071 | 8.58139 | 39° | 77km/h | 16741m | 4.3m/s | -52°C | 1.1% | 96.9hPa | 2.7V | 04:00:43 | 01:15:13 | 00:00:00 | |
| DL1XH1-15 | 2026-08-31 11:47:39 | 50.09982 | 8.58009 | 42° | 62km/h | 16710m | 3.3m/s | -51.8°C | 4.2% | 97.3hPa | 2.6V | 04:00:25 | 01:15:06 | 00:00:00 | |
| DL1NUX | 2026-08-31 11:47:36 | 50.09970 | 8.57993 | 42° | 64km/h | 16706m | 5.3m/s | -51.9°C | 4.2% | 97.4hPa | 2.6V | 04:00:26 | 01:15:05 | 00:00:00 | |
| DL1XH-west | 2026-08-31 11:47:33 | 50.09958 | 8.57976 | 43° | 66km/h | 16701m | 4.8m/s | -51.8°C | 1% | 97.5hPa | 2.7V | 04:00:43 | 01:15:04 | 00:00:00 | |
| DM0DOS-11 | 2026-08-31 11:47:33 | 50.09933 | 8.57941 | 38° | 68km/h | 16693m | 4.4m/s | -51.8°C | 4.1% | 97.6hPa | 2.6V | 04:00:29 | 01:15:02 | 00:00:00 | |
| BIOWL1-15 | 2026-08-31 11:47:32 | 50.09946 | 8.57958 | 41° | 68km/h | 16697m | 4m/s | -51.8°C | 1% | 97.5hPa | 2.7V | 04:00:43 | 01:15:03 | 00:00:00 | |
| DK7TD | 2026-08-31 11:47:32 | 50.09933 | 8.57941 | 38° | 68km/h | 16693m | 4.4m/s | -51.8°C | 1% | 97.6hPa | 2.6V | 04:00:43 | 01:15:02 | 00:00:00 | |
| DL1NUX | 2026-08-31 11:47:26 | 50.09837 | 8.57835 | 35° | 64km/h | 16659m | 5.4m/s | -51.5°C | 4.2% | 98.1hPa | 2.7V | 04:00:36 | 01:14:55 | 00:00:00 | |
| DM0DOS-11 | 2026-08-31 11:47:25 | 50.09796 | 8.57789 | 36° | 69km/h | 16646m | 5.5m/s | -51.4°C | 4.1% | 98.3hPa | 2.7V | 04:00:39 | 01:14:52 | 00:00:00 | |
| DL1XH-west | 2026-08-31 11:47:23 | 50.09824 | 8.57820 | 35° | 66km/h | 16654m | 4.2m/s | -51.4°C | 1% | 98.2hPa | 2.6V | 04:00:43 | 01:14:54 | 00:00:00 | |
| DK7TD | 2026-08-31 11:47:21 | 50.09796 | 8.57789 | 36° | 69km/h | 16646m | 5.5m/s | -51.4°C | 1% | 98.3hPa | 2.7V | 04:00:43 | 01:14:52 | 00:00:00 | |
| DL9SK-14 | 2026-08-31 11:47:20 | 50.09766 | 8.57757 | 34° | 71km/h | 16636m | 4.7m/s | -51.4°C | 1.5% | 98.4hPa | 2.6V | 00:00:00 | 00:00:00 | 00:00:00 | |
| DB0NH | 2026-08-31 11:47:19 | 50.09766 | 8.57757 | 35° | 69km/h | 16636m | 4.6m/s | -51.3°C | 4.1% | 98.4hPa | 2.6V | 00:00:00 | 01:14:50 | 00:00:00 | |
| DL3AQ-11 | 2026-08-31 11:47:18 | 50.09736 | 8.57726 | 31° | 69km/h | 16627m | 4.1m/s | -51.3°C | 1.4% | 98.6hPa | 2.6V | 00:00:00 | 00:00:00 | 00:00:00 | |
| DB0UT-7 | 2026-08-31 11:47:17 | 50.09736 | 8.57726 | 32° | 69km/h | 16627m | 4.0m/s | -51.3°C | 4.0% | 98.6hPa | 2.6V | 00:00:00 | 00:00:00 | 00:00:00 | |
| DM0DOS-11 | 2026-08-31 11:47:14 | 50.09650 | 8.57639 | 35° | 62km/h | 16598m | 3.2m/s | -51.1°C | 4% | 99hPa | 2.6V | 04:00:49 | 01:14:42 | 00:00:00 | |
| DL1XH-west | 2026-08-31 11:47:13 | 50.09677 | 8.57667 | 34° | 68km/h | 16607m | 5.1m/s | -51.3°C | 0.9% | 98.9hPa | 2.7V | 04:01:34 | 01:14:44 | 00:00:00 | |
| BIOWL1-15 | 2026-08-31 11:47:10 | 50.09637 | 8.57624 | 37° | 64km/h | 16595m | 3.8m/s | -51.1°C | 0.9% | 99.1hPa | 2.6V | 04:01:34 | 01:14:41 | 00:00:00 | |
| DL1XH1-15 | 2026-08-31 11:47:08 | 50.09569 | 8.57541 | 33° | 71km/h | 16573m | 4.7m/s | -51.1°C | 4.1% | 99.4hPa | 2.6V | 04:00:55 | 01:14:36 | 00:00:00 | |
| DO1YAY-16 | 2026-08-31 11:47:08 | 50.09598 | 8.57574 | 38° | 69km/h | 16581m | 3.3m/s | -51.0°C | 1.5% | 99.3hPa | 2.6V | 00:00:00 | 00:00:00 | 00:00:00 | |
| SO1NDE-10 | 2026-08-31 11:47:06 | 50.09584 | 8.57557 | 37° | 69km/h | 16578m | 4.6m/s | -51.0°C | 4.0% | 99.3hPa | 2.6V | 00:00:00 | 01:14:37 | 00:00:00 | |
| DL3AQ-11 | 2026-08-31 11:47:04 | 50.09554 | 8.57526 | 31° | 69km/h | 16568m | 4.4m/s | -51.0°C | 1.5% | 99.5hPa | 2.7V | 00:00:00 | 00:00:00 | 00:00:00 | |
| DM0DOS-11 | 2026-08-31 11:47:03 | 50.09509 | 8.57483 | 32° | 69km/h | 16554m | 4.8m/s | -51°C | 4% | 99.7hPa | 2.7V | 04:00:59 | 01:14:32 | 00:00:00 | |
| DL1XH-west | 2026-08-31 11:47:02 | 50.09524 | 8.57498 | 31° | 69km/h | 16559m | 5.3m/s | -51°C | 1% | 99.6hPa | 2.7V | 04:01:34 | 01:14:33 | 00:00:00 | |
| BIOWL1-15 | 2026-08-31 11:47:00 | 50.09494 | 8.57469 | 33° | 69km/h | 16550m | 4.1m/s | -51.1°C | 1% | 99.8hPa | 2.6V | 04:01:34 | 01:14:31 | 00:00:00 | |
| DK7TD | 2026-08-31 11:46:59 | 50.09480 | 8.57454 | 32° | 69km/h | 16545m | 4.8m/s | -51.1°C | 0.9% | 99.8hPa | 2.6V | 04:01:34 | 01:14:30 | 00:00:00 | |
| DL1XH1-15 | 2026-08-31 11:46:58 | 50.09418 | 8.57397 | 32° | 71km/h | 16527m | 4.8m/s | -51°C | 4.1% | 100.1hPa | 2.7V | 04:01:05 | 01:14:26 | 00:00:00 | |
| DK5PH-5 | 2026-08-31 11:46:56 | 50.09433 | 8.57412 | 32° | 68km/h | 16532m | 4.5m/s | -51.0°C | 4.0% | 100.0hPa | 2.7V | 00:00:00 | 01:14:27 | 00:00:00 | |
| DM0DOS-11 | 2026-08-31 11:46:55 | 50.09357 | 8.57337 | 30° | 69km/h | 16510m | 3.7m/s | -50.9°C | 3.9% | 100.4hPa | 2.7V | 04:01:09 | 01:14:22 | 00:00:00 | |
| DL1XH-west | 2026-08-31 11:46:52 | 50.09372 | 8.57352 | 31° | 71km/h | 16514m | 4.4m/s | -50.9°C | 1% | 100.3hPa | 2.6V | 04:01:34 | 01:14:23 | 00:00:00 | |
| BIOWL1-15 | 2026-08-31 11:46:49 | 50.09313 | 8.57293 | 36° | 68km/h | 16497m | 4.1m/s | -50.8°C | 0.9% | 100.6hPa | 2.6V | 04:01:34 | 01:14:19 | 00:00:00 | |
| DK7TD | 2026-08-31 11:46:49 | 50.09327 | 8.57308 | 34° | 69km/h | 16501m | 5.2m/s | -50.9°C | 1% | 100.5hPa | 2.7V | 04:01:34 | 01:14:20 | 00:00:00 | |
| DL9SK-14 | 2026-08-31 11:46:49 | 50.09313 | 8.57293 | 35° | 68km/h | 16497m | 4.1m/s | -50.8°C | 1.4% | 100.6hPa | 2.7V | 00:00:00 | 00:00:00 | 00:00:00 | |
| DC4HF-4 | 2026-08-31 11:46:48 | 50.09313 | 8.57293 | 35° | 68km/h | 16497m | 4.1m/s | -50.8°C | 1.4% | 100.6hPa | 2.7V | 00:00:00 | 00:00:00 | 00:00:00 | |
| DL1XH1-15 | 2026-08-31 11:46:47 | 50.09272 | 8.57249 | 32° | 64km/h | 16483m | 4.5m/s | -50.6°C | 3.9% | 100.8hPa | 2.7V | 04:01:15 | 01:14:16 | 00:00:00 | |
| DL1NUX | 2026-08-31 11:46:47 | 50.09259 | 8.57235 | 32° | 64km/h | 16479m | 4.2m/s | -50.6°C | 3.9% | 100.8hPa | 2.6V | 04:01:16 | 01:14:15 | 00:00:00 | |
| DL8DAS-15 | 2026-08-31 11:46:46 | 50.09286 | 8.57262 | 35° | 66km/h | 16488m | 5.0m/s | -50.7°C | 1.5% | 100.7hPa | 2.7V | 00:00:00 | 00:00:00 | 00:00:00 | |
| DM0DOS-11 | 2026-08-31 11:46:45 | 50.09219 | 8.57191 | 37° | 68km/h | 16466m | 3.4m/s | -50.4°C | 3.8% | 101.1hPa | 2.7V | 04:01:19 | 01:14:12 | 00:00:00 | |
| DL1XH-west | 2026-08-31 11:46:41 | 50.09219 | 8.57191 | 38° | 68km/h | 16466m | 3.4m/s | -50.4°C | 0.9% | 101.1hPa | 2.7V | 04:01:34 | 01:14:12 | 00:00:00 | |
| BIOWL1-15 | 2026-08-31 11:46:39 | 50.09191 | 8.57159 | 36° | 68km/h | 16457m | 4.8m/s | -50.4°C | 0.9% | 101.2hPa | 2.6V | 04:01:34 | 01:14:10 | 00:00:00 | |
| DK7TD | 2026-08-31 11:46:38 | 50.09178 | 8.57143 | 37° | 68km/h | 16453m | 3.6m/s | -50.5°C | 0.8% | 101.3hPa | 2.7V | 04:01:34 | 01:14:09 | 00:00:00 | |
| DL3AQ-11 | 2026-08-31 11:46:37 | 50.09164 | 8.57127 | 38° | 66km/h | 16449m | 4.5m/s | -50.4°C | 1.4% | 101.3hPa | 2.7V | 00:00:00 | 00:00:00 | 00:00:00 | |
| DL1NUX | 2026-08-31 11:46:36 | 50.09126 | 8.57076 | 39° | 66km/h | 16436m | 4.3m/s | -50.3°C | 3.8% | 101.6hPa | 2.7V | 04:01:26 | 01:14:05 | 00:00:00 | |
| DL1XH1-15 | 2026-08-31 11:46:35 | 50.09138 | 8.57093 | 41° | 66km/h | 16440m | 3.6m/s | -50.4°C | 3.7% | 101.5hPa | 2.6V | 04:01:25 | 01:14:06 | 00:00:00 | |
| DM0DOS-11 | 2026-08-31 11:46:34 | 50.09087 | 8.57031 | 35° | 64km/h | 16423m | 4.2m/s | -50.3°C | 3.7% | 101.7hPa | 2.6V | 04:01:29 | 01:14:02 | 00:00:00 | |
| DL1XH-west | 2026-08-31 11:46:31 | 50.09087 | 8.57031 | 36° | 64km/h | 16423m | 4.2m/s | -50.3°C | 0.8% | 101.7hPa | 2.6V | 04:01:34 | 01:14:02 | 00:00:00 | |
| DK7TD | 2026-08-31 11:46:28 | 50.09049 | 8.56985 | 39° | 64km/h | 16410m | 3.2m/s | -50.3°C | 0.9% | 102hPa | 2.7V | 04:01:34 | 01:13:59 | 00:00:00 | |
| DL1NUX | 2026-08-31 11:46:27 | 50.08999 | 8.56924 | 39° | 66km/h | 16393m | 5m/s | -50.6°C | 3.8% | 102.2hPa | 2.6V | 04:01:36 | 01:13:55 | 00:00:00 | |
| DL3AQ-11 | 2026-08-31 11:46:25 | 50.09012 | 8.56940 | 38° | 62km/h | 16397m | 3.7m/s | -50.5°C | 1.4% | 102.1hPa | 2.7V | 00:00:00 | 00:00:00 | 00:00:00 | |
| DL4BBY-15 | 2026-08-31 11:46:24 | 50.08999 | 8.56924 | 40° | 60km/h | 16392m | 5.0m/s | -49.9°C | 0% | 0hPa | 2.7V | 00:00:00 | 00:00:00 | 00:00:00 | |
| DM0DOS-11 | 2026-08-31 11:46:23 | 50.08961 | 8.56873 | 40° | 66km/h | 16381m | 4m/s | -51.4°C | 4% | 102.4hPa | 2.7V | 04:01:39 | 01:13:52 | 00:00:00 | |
| DL1XH-west | 2026-08-31 11:46:21 | 50.08961 | 8.56873 | 41° | 66km/h | 16381m | 4.1m/s | -51.4°C | 1% | 102.4hPa | 2.7V | 04:02:25 | 01:13:52 | 00:00:00 | |
| BIOWL1-15 | 2026-08-31 11:46:18 | 50.08924 | 8.56827 | 36° | 60km/h | 16369m | 3.3m/s | -51.5°C | 1% | 102.6hPa | 2.6V | 04:02:25 | 01:13:49 | 00:00:00 | |
| DL9SK-14 | 2026-08-31 11:46:18 | 50.08911 | 8.56813 | 36° | 60km/h | 16365m | 4.4m/s | -51.5°C | 1.5% | 102.6hPa | 2.7V | 00:00:00 | 00:00:00 | 00:00:00 | |
| DL1NUX | 2026-08-31 11:46:16 | 50.08876 | 8.56769 | 40° | 58km/h | 16351m | 5.2m/s | -51.7°C | 4.1% | 102.9hPa | 2.7V | 04:01:46 | 01:13:45 | 00:00:00 | |
| DL1XH-west | 2026-08-31 11:46:10 | 50.08832 | 8.56703 | 47° | 62km/h | 16334m | 4.2m/s | -51.8°C | 1.1% | 103.1hPa | 2.7V | 04:02:25 | 01:13:41 | 00:00:00 | |
| NBG1-10 | 2026-08-31 11:46:10 | 50.08832 | 8.56703 | 48° | 55km/h | 16334m | 4.2m/s | -51.7°C | 4.1% | 103.1hPa | 2.7V | 00:00:00 | 01:13:41 | 00:00:00 | |
| DF2AP-13 | 2026-08-31 11:46:09 | 50.08821 | 8.56685 | 48° | 55km/h | 16331m | 2.5m/s | -51.8°C | 4.1% | 103.1hPa | 2.7V | 00:00:00 | 01:13:40 | 00:00:00 | |
| DL1XH1-15 | 2026-08-31 11:46:08 | 50.08781 | 8.56618 | 49° | 57km/h | 16315m | 4m/s | -51.9°C | 4.2% | 103.4hPa | 2.7V | 04:01:55 | 01:13:36 | 00:00:00 | |
| DK7TD | 2026-08-31 11:46:08 | 50.08810 | 8.56668 | 47° | 60km/h | 16327m | 4.5m/s | -51.9°C | 1.2% | 103.3hPa | 2.7V | 04:02:25 | 01:13:39 | 00:00:00 | |
| BIOWL1-15 | 2026-08-31 11:46:07 | 50.08800 | 8.56651 | 47° | 58km/h | 16323m | 4.2m/s | -51.9°C | 1.1% | 103.3hPa | 2.6V | 04:02:25 | 01:13:38 | 00:00:00 | |
| DL1NUX | 2026-08-31 11:46:06 | 50.08772 | 8.56601 | 50° | 57km/h | 16310m | 5.1m/s | -51.9°C | 4.2% | 103.5hPa | 2.7V | 04:01:56 | 01:13:35 | 00:00:00 | |
| SO1NDE-10 | 2026-08-31 11:46:06 | 50.08790 | 8.56634 | 48° | 55km/h | 16319m | 3.7m/s | -51.8°C | 4.2% | 103.3hPa | 2.7V | 00:00:00 | 01:13:37 | 00:00:00 | |
| DM0DOS-11 | 2026-08-31 11:46:05 | 50.08743 | 8.56546 | 49° | 58km/h | 16298m | 4.5m/s | -52°C | 4.1% | 103.7hPa | 2.7V | 04:01:59 | 01:13:32 | 00:00:00 | |
| DL1XH-west | 2026-08-31 11:46:00 | 50.08734 | 8.56530 | 47° | 57km/h | 16293m | 4.6m/s | -52°C | 1.1% | 103.8hPa | 2.7V | 04:02:25 | 01:13:31 | 00:00:00 | |
| DF3TZ-5 | 2026-08-31 11:46:00 | 50.08624 | 8.56265 | 62° | 51km/h | 16225m | 4.7m/s | -52.3°C | -1.0% | -1.0hPa | 2.7V | 00:00:00 | 00:00:00 | 00:00:00 | |
| DJ8HS-15 | 2026-08-31 11:45:59 | 50.08724 | 8.56514 | 45° | 55km/h | 16289m | 3.7m/s | -52.1°C | 4.2% | 103.8hPa | 2.7V | 00:00:00 | 01:13:30 | 00:00:00 | |
| DL1XH1-15 | 2026-08-31 11:45:58 | 50.08686 | 8.56449 | 55° | 57km/h | 16273m | 4m/s | -52.2°C | 4.1% | 104.1hPa | 2.7V | 04:02:05 | 01:13:26 | 00:00:00 | |
| BIOWL1-15 | 2026-08-31 11:45:58 | 50.08695 | 8.56467 | 51° | 57km/h | 16277m | 3.7m/s | -52.1°C | 1.2% | 104.1hPa | 2.7V | 04:02:25 | 01:13:27 | 00:00:00 | |
| DK7TD | 2026-08-31 11:45:57 | 50.08704 | 8.56483 | 46° | 57km/h | 16281m | 4.9m/s | -52.1°C | 1.1% | 104hPa | 2.7V | 04:02:25 | 01:13:28 | 00:00:00 | |
| DK5PH-5 | 2026-08-31 11:45:56 | 50.08695 | 8.56467 | 51° | 57km/h | 16277m | 3.7m/s | -52.1°C | 4.2% | 104.0hPa | 2.7V | 00:00:00 | 01:13:27 | 00:00:00 | |
| DL1NUX | 2026-08-31 11:45:56 | 50.08678 | 8.56430 | 59° | 55km/h | 16268m | 5m/s | -52.1°C | 4.1% | 104.2hPa | 2.6V | 04:02:06 | 01:13:25 | 00:00:00 | |
| DM0DOS-11 | 2026-08-31 11:45:54 | 50.08661 | 8.56377 | 66° | 49km/h | 16253m | 4.8m/s | -52°C | 4.1% | 104.4hPa | 2.7V | 04:02:09 | 01:13:22 | 00:00:00 | |
| DL1XH-west | 2026-08-31 11:45:49 | 50.08644 | 8.56320 | 62° | 57km/h | 16239m | 4m/s | -52°C | 1.1% | 104.7hPa | 2.6V | 04:02:25 | 01:13:19 | 00:00:00 | |
| DB0ND-19 | 2026-08-31 11:45:49 | 50.08644 | 8.56320 | 61° | 55km/h | 16239m | 4.0m/s | -52.0°C | 1.6% | 104.7hPa | 2.7V | 00:00:00 | 00:00:00 | 00:00:00 | |
| DL1XH1-15 | 2026-08-31 11:45:48 | 50.08624 | 8.56264 | 62° | 51km/h | 16225m | 4.7m/s | -52.3°C | 4.2% | 104.9hPa | 2.7V | 04:02:15 | 01:13:16 | 00:00:00 | |
| BIOWL1-15 | 2026-08-31 11:45:47 | 50.08624 | 8.56265 | 63° | 51km/h | 16225m | 4.7m/s | -52.3°C | 1.2% | 104.9hPa | 2.7V | 04:02:25 | 01:13:16 | 00:00:00 | |
| DL9SK-14 | 2026-08-31 11:45:47 | 50.08631 | 8.56283 | 61° | 53km/h | 16230m | 5.4m/s | -52.2°C | 1.6% | 104.8hPa | 2.7V | 00:00:00 | 00:00:00 | 00:00:00 | |
| DL1NUX | 2026-08-31 11:45:46 | 50.08619 | 8.56247 | 63° | 51km/h | 16221m | 3.9m/s | -52.3°C | 4.1% | 105hPa | 2.7V | 04:02:16 | 01:13:15 | 00:00:00 | |
| SONCRA | 2026-08-31 11:45:45 | 50.08624 | 8.56265 | 62° | 51km/h | 16225m | 4.7m/s | -52.3°C | 1.6% | 104.9hPa | 2.7V | 00:00:00 | 00:00:00 | 00:00:00 | |
| DK7TD | 2026-08-31 11:45:44 | 50.08619 | 8.56247 | 63° | 51km/h | 16221m | 3.9m/s | -52.3°C | 1.2% | 105hPa | 2.7V | 04:02:25 | 01:13:15 | 00:00:00 | |
| CB1BUN | 2026-08-31 11:45:41 | 50.08607 | 8.56209 | 65° | 55km/h | 16212m | 4.1m/s | -52.4°C | 1.6% | 105.1hPa | 2.6V | 04:02:00 | 00:00:00 | 00:00:00 | |
| DF2AP-13 | 2026-08-31 11:45:39 | 50.08590 | 8.56147 | 72° | 62km/h | 16199m | 4.1m/s | -52.7°C | 4.3% | 105.2hPa | 2.6V | 00:00:00 | 01:13:10 | 00:00:00 | |
| DL1XH1-15 | 2026-08-31 11:45:38 | 50.08570 | 8.56064 | 65° | 60km/h | 16184m | 3.5m/s | -53°C | 4.3% | 105.5hPa | 2.6V | 04:02:25 | 01:13:06 | 00:00:00 | |
| DL1XH-west | 2026-08-31 11:45:37 | 50.08581 | 8.56106 | 70° | 57km/h | 16192m | 3.3m/s | -52.9°C | 1.2% | 105.4hPa | 2.7V | 04:02:25 | 01:13:08 | 00:00:00 | |
| NBG1-10 | 2026-08-31 11:45:36 | 50.08576 | 8.56085 | 68° | 62km/h | 16188m | 4.4m/s | -53.0°C | 4.4% | 105.4hPa | 2.7V | 04:02:00 | 01:13:07 | 00:00:00 | |
| DM0DOS-11 | 2026-08-31 11:45:35 | 50.08547 | 8.55977 | 69° | 58km/h | 16169m | 3.4m/s | -53.2°C | 4.3% | 105.8hPa | 2.7V | 04:02:29 | 01:13:02 | 00:00:00 | |
| BIOWL1-15 | 2026-08-31 11:45:35 | 50.08570 | 8.56064 | 66° | 60km/h | 16184m | 3.5m/s | -53°C | 1.3% | 105.6hPa | 2.6V | 04:02:25 | 01:13:06 | 00:00:00 | |
| DK7TD | 2026-08-31 11:45:33 | 50.08558 | 8.56020 | 68° | 60km/h | 16177m | 4.7m/s | -53.2°C | 1.3% | 105.7hPa | 2.7V | 04:03:16 | 01:13:04 | 00:00:00 | |
| DL8DAS-15 | 2026-08-31 11:45:31 | 50.08552 | 8.55999 | 70° | 60km/h | 16173m | 3.6m/s | -53.2°C | 1.7% | 105.8hPa | 2.6V | 00:00:00 | 00:00:00 | 00:00:00 | |
| DL1XH1-15 | 2026-08-31 11:45:30 | 50.08510 | 8.55844 | 66° | 68km/h | 16144m | 3.1m/s | -53.4°C | 4.5% | 106.2hPa | 2.6V | 04:02:35 | 01:12:56 | 00:00:00 | |
| DL1XH-west | 2026-08-31 11:45:27 | 50.08517 | 8.55868 | 67° | 66km/h | 16147m | 4m/s | -53.3°C | 1.4% | 106.2hPa | 2.6V | 04:03:16 | 01:12:57 | 00:00:00 | |
| DL1NUX | 2026-08-31 11:45:26 | 50.08503 | 8.55820 | 64° | 68km/h | 16140m | 4.5m/s | -53.4°C | 4.5% | 106.3hPa | 2.7V | 04:02:36 | 01:12:55 | 00:00:00 | |
| DK5PH-5 | 2026-08-31 11:45:26 | 50.08517 | 8.55868 | 68° | 62km/h | 16148m | 4.0m/s | -53.3°C | 4.4% | 106.1hPa | 2.6V | 00:00:00 | 01:12:57 | 00:00:00 | |
| DM0DOS-11 | 2026-08-31 11:45:25 | 50.08479 | 8.55748 | 62° | 69km/h | 16128m | 4.6m/s | -53.7°C | 4.6% | 106.5hPa | 2.6V | 04:02:39 | 01:12:52 | 00:00:00 | |
| BIOWL1-15 | 2026-08-31 11:45:25 | 50.08463 | 8.55700 | 62° | 66km/h | 16121m | 2.7m/s | -53.6°C | 1.5% | 106.6hPa | 2.7V | 04:03:16 | 01:12:50 | 00:00:00 | |
| DK7TD | 2026-08-31 11:45:23 | 50.08495 | 8.55796 | 63° | 68km/h | 16136m | 4m/s | -53.4°C | 1.4% | 106.4hPa | 2.7V | 04:03:16 | 01:12:54 | 00:00:00 | |
| DL8DAS-15 | 2026-08-31 11:45:21 | 50.08487 | 8.55772 | 63° | 69km/h | 16132m | 3.4m/s | -53.6°C | 1.8% | 106.4hPa | 2.6V | 00:00:00 | 00:00:00 | 00:00:00 | |
| DJ8HS-15 | 2026-08-31 11:45:20 | 50.08463 | 8.55700 | 62° | 60km/h | 16121m | 2.6m/s | -53.6°C | 4.6% | 106.6hPa | 2.6V | 00:00:00 | 01:12:50 | 00:00:00 | |
| DL1XH1-15 | 2026-08-31 11:45:19 | 50.08431 | 8.55618 | 58° | 58km/h | 16105m | 4.7m/s | -53.6°C | 4.4% | 106.8hPa | 2.6V | 04:02:45 | 01:12:46 | 00:00:00 | |
| HEMX73-11 | 2026-08-31 11:45:19 | 50.08463 | 8.55700 | 63° | 66km/h | 16121m | 2.7m/s | -53.6°C | 1.8% | 106.6hPa | 2.7V | 04:03:00 | 00:00:00 | 00:00:00 | |
| BIOWL7-15 | 2026-08-31 11:45:18 | 50.08447 | 8.55657 | 59° | 62km/h | 16114m | 4.4m/s | -53.7°C | 1.7% | 106.7hPa | 2.7V | 00:00:00 | 00:00:00 | 00:00:00 | |
| DL1NUX | 2026-08-31 11:45:17 | 50.08424 | 8.55598 | 59° | 57km/h | 16101m | 3.7m/s | -53.6°C | 4.4% | 106.9hPa | 2.7V | 04:02:46 | 01:12:45 | 00:00:00 | |
| DL1XH-west | 2026-08-31 11:45:15 | 50.08431 | 8.55618 | 58° | 58km/h | 16105m | 4.7m/s | -53.7°C | 1.4% | 106.8hPa | 2.6V | 04:03:16 | 01:12:46 | 00:00:00 | |
| BIOWL1-15 | 2026-08-31 11:45:14 | 50.08424 | 8.55598 | 60° | 57km/h | 16101m | 3.7m/s | -53.7°C | 1.4% | 106.9hPa | 2.7V | 04:03:16 | 01:12:45 | 00:00:00 | |
| DK7TD | 2026-08-31 11:45:12 | 50.08409 | 8.55559 | 59° | 57km/h | 16094m | 3.4m/s | -53.8°C | 1.4% | 107hPa | 2.7V | 04:03:16 | 01:12:43 | 00:00:00 | |
| DM0DOS-11 | 2026-08-31 11:45:12 | 50.08401 | 8.55540 | 56° | 57km/h | 16090m | 4.4m/s | -53.7°C | 4.4% | 107.1hPa | 2.6V | 04:02:49 | 01:12:42 | 00:00:00 | |
| DF2AP-13 | 2026-08-31 11:45:09 | 50.08385 | 8.55502 | 58° | 58km/h | 16083m | 3.4m/s | -53.8°C | 4.4% | 107.2hPa | 2.6V | 04:02:00 | 01:12:40 | 00:00:00 | |
| DL1XH1-15 | 2026-08-31 11:45:08 | 50.08356 | 8.55420 | 60° | 60km/h | 16067m | 4.5m/s | -54.1°C | 4.6% | 107.5hPa | 2.6V | 04:02:55 | 01:12:36 | 00:00:00 | |
| DL8DAS-14 | 2026-08-31 11:45:08 | 50.08378 | 8.55482 | 59° | 58km/h | 16079m | 4.9m/s | -53.8°C | 1.7% | 107.3hPa | 2.6V | 00:00:00 | 00:00:00 | 00:00:00 | |
| DL1NUX | 2026-08-31 11:45:06 | 50.08348 | 8.55400 | 60° | 58km/h | 16063m | 3.2m/s | -54.1°C | 4.6% | 107.6hPa | 2.6V | 04:02:56 | 01:12:35 | 00:00:00 | |
| SO1NDE-10 | 2026-08-31 11:45:06 | 50.08363 | 8.55441 | 62° | 58km/h | 16071m | 3.4m/s | -53.9°C | 4.6% | 107.4hPa | 2.7V | 00:00:00 | 01:12:37 | 00:00:00 | |
| DM0DOS-11 | 2026-08-31 11:45:05 | 50.08329 | 8.55339 | 65° | 58km/h | 16052m | 3.3m/s | -54.4°C | 4.7% | 107.8hPa | 2.7V | 04:02:59 | 01:12:32 | 00:00:00 | |
| BIOWL1-15 | 2026-08-31 11:45:04 | 50.08349 | 8.55400 | 60° | 58km/h | 16063m | 3.2m/s | -54.1°C | 1.5% | 107.6hPa | 2.6V | 04:03:16 | 01:12:35 | 00:00:00 | |
| DK7TD | 2026-08-31 11:45:02 | 50.08335 | 8.55360 | 65° | 58km/h | 16056m | 4.4m/s | -54.4°C | 1.6% | 107.7hPa | 2.7V | 04:03:16 | 01:12:33 | 00:00:00 | |
| DC4HF-4 | 2026-08-31 11:45:00 | 50.08322 | 8.55318 | 64° | 60km/h | 16049m | 3.0m/s | -54.4°C | 1.8% | 107.8hPa | 2.6V | 00:00:00 | 00:00:00 | 00:00:00 | |
| DJ8HS-15 | 2026-08-31 11:44:59 | 50.08315 | 8.55296 | 63° | 58km/h | 16046m | 4.2m/s | -54.5°C | 4.7% | 107.8hPa | 2.6V | 04:03:00 | 01:12:30 | 00:00:00 | |
| DL1XH1-15 | 2026-08-31 11:44:58 | 50.08285 | 8.55220 | 58° | 53km/h | 16030m | 3.7m/s | -54.5°C | 4.7% | 108.2hPa | 2.6V | 04:03:05 | 01:12:26 | 00:00:00 | |
| DL1NUX | 2026-08-31 11:44:57 | 50.08278 | 8.55202 | 61° | 51km/h | 16027m | 3.6m/s | -54.6°C | 4.7% | 108.2hPa | 2.6V | 04:03:06 | 01:12:25 | 00:00:00 | |
| DL1XH-west | 2026-08-31 11:44:54 | 50.08278 | 8.55202 | 61° | 51km/h | 16027m | 3.6m/s | -54.6°C | 1.5% | 108.2hPa | 2.6V | 04:03:16 | 01:12:25 | 00:00:00 | |
| DL3AQ-11 | 2026-08-31 11:44:54 | 50.08272 | 8.55183 | 64° | 53km/h | 16023m | 3.3m/s | -54.6°C | 1.8% | 108.3hPa | 2.7V | 00:00:00 | 00:00:00 | 00:00:00 | |
| DM0DOS-11 | 2026-08-31 11:44:53 | 50.08260 | 8.55143 | 67° | 60km/h | 16016m | 4.4m/s | -54.6°C | 4.7% | 108.4hPa | 2.7V | 04:03:09 | 01:12:22 | 00:00:00 | |
| BIOWL1-15 | 2026-08-31 11:44:53 | 50.08272 | 8.55183 | 65° | 53km/h | 16023m | 3.3m/s | -54.6°C | 1.6% | 108.3hPa | 2.7V | 04:03:16 | 01:12:24 | 00:00:00 | |
| DK7TD | 2026-08-31 11:44:51 | 50.08260 | 8.55143 | 67° | 60km/h | 16016m | 4.4m/s | -54.6°C | 1.6% | 108.4hPa | 2.7V | 04:03:16 | 01:12:22 | 00:00:00 | |
| DB0NH | 2026-08-31 11:44:49 | 50.08249 | 8.55098 | 70° | 62km/h | 16008m | 4.3m/s | -54.8°C | 4.8% | 108.4hPa | 2.6V | 00:00:00 | 01:12:20 | 00:00:00 | |
| DL1NUX | 2026-08-31 11:44:47 | 50.08218 | 8.54989 | 62° | 62km/h | 15989m | 2.7m/s | -55°C | 5% | 108.8hPa | 2.6V | 04:03:16 | 01:12:15 | 00:00:00 | |
| DL1ZP-14 | 2026-08-31 11:44:46 | 50.08232 | 8.55032 | 65° | 60km/h | 15997m | 3.9m/s | -55.0°C | 1.9% | 108.7hPa | 2.7V | 00:00:00 | 00:00:00 | 00:00:00 | |
| DL9SK-14 | 2026-08-31 11:44:45 | 50.08218 | 8.54989 | 62° | 62km/h | 15989m | 2.7m/s | -55.1°C | 1.9% | 108.9hPa | 2.7V | 00:00:00 | 00:00:00 | 00:00:00 | |
| DM0DOS-11 | 2026-08-31 11:44:43 | 50.08199 | 8.54923 | 71° | 58km/h | 15978m | 4.4m/s | -55°C | 5% | 109.1hPa | 2.7V | 04:03:19 | 01:12:12 | 00:00:00 | |
| DL1XH-west | 2026-08-31 11:44:43 | 50.08211 | 8.54967 | 64° | 62km/h | 15986m | 3.5m/s | -55°C | 1.7% | 108.9hPa | 2.6V | 04:04:07 | 01:12:14 | 00:00:00 | |
| BIOWL1-15 | 2026-08-31 11:44:42 | 50.08182 | 8.54837 | 71° | 57km/h | 15962m | 4m/s | -55°C | 1.7% | 109.3hPa | 2.6V | 04:04:07 | 01:12:08 | 00:00:00 | |
| DK7TD | 2026-08-31 11:44:41 | 50.08199 | 8.54923 | 71° | 58km/h | 15978m | 4.4m/s | -55°C | 1.7% | 109.1hPa | 2.7V | 04:04:07 | 01:12:12 | 00:00:00 | |
| DJ8HS-15 | 2026-08-31 11:44:39 | 50.08191 | 8.54880 | 74° | 64km/h | 15971m | 3.4m/s | -54.9°C | 5.1% | 109.1hPa | 2.7V | 00:00:00 | 01:12:10 | 00:00:00 | |
| DL3AQ-11 | 2026-08-31 11:44:38 | 50.08182 | 8.54837 | 70° | 57km/h | 15962m | 4.0m/s | -55.0°C | 2.0% | 109.3hPa | 2.7V | 00:00:00 | 00:00:00 | 00:00:00 | |
| DL1NUX | 2026-08-31 11:44:37 | 50.08168 | 8.54771 | 73° | 62km/h | 15950m | 3.9m/s | -54.9°C | 4.9% | 109.5hPa | 2.7V | 04:03:26 | 01:12:05 | 00:00:00 | |
| DH7VM-15 | 2026-08-31 11:44:36 | 50.08177 | 8.54816 | 71° | 58km/h | 15958m | 3.5m/s | -54.9°C | 1.9% | 109.4hPa | 2.6V | 00:00:00 | 00:00:00 | 00:00:00 | |
| DM0DOS-11 | 2026-08-31 11:44:33 | 50.08152 | 8.54699 | 69° | 66km/h | 15939m | 4.4m/s | -54.9°C | 4.9% | 109.7hPa | 2.6V | 04:03:29 | 01:12:02 | 00:00:00 | |
| DL1XH-west | 2026-08-31 11:44:32 | 50.08158 | 8.54723 | 71° | 66km/h | 15943m | 4.4m/s | -54.9°C | 1.6% | 109.6hPa | 2.6V | 04:04:07 | 01:12:03 | 00:00:00 | |
| DK7TD | 2026-08-31 11:44:30 | 50.08146 | 8.54674 | 69° | 68km/h | 15935m | 3.1m/s | -54.9°C | 1.6% | 109.8hPa | 2.7V | 04:04:07 | 01:12:01 | 00:00:00 | |
| DL1XH1-15 | 2026-08-31 11:44:30 | 50.08121 | 8.54549 | 73° | 64km/h | 15916m | 4.6m/s | -54.7°C | 4.8% | 110.1hPa | 2.7V | 04:03:35 | 01:11:56 | 00:00:00 | |
| BIOWL1-15 | 2026-08-31 11:44:28 | 50.08135 | 8.54624 | 73° | 68km/h | 15927m | 4.2m/s | -54.7°C | 1.6% | 109.9hPa | 2.6V | 04:04:07 | 01:11:59 | 00:00:00 | |
| DL1XH-west | 2026-08-31 11:44:22 | 50.08107 | 8.54477 | 74° | 64km/h | 15905m | 3.9m/s | -54.6°C | 1.6% | 110.3hPa | 2.6V | 04:04:07 | 01:11:53 | 00:00:00 | |
| DK7TD | 2026-08-31 11:44:20 | 50.08099 | 8.54428 | 78° | 68km/h | 15896m | 3.7m/s | -54.5°C | 1.7% | 110.4hPa | 2.7V | 04:04:07 | 01:11:51 | 00:00:00 | |
| BIOWL1-15 | 2026-08-31 11:44:17 | 50.08066 | 8.54221 | 73° | 73km/h | 15865m | 4.5m/s | -54.7°C | 1.6% | 111hPa | 2.7V | 04:04:07 | 01:11:43 | 00:00:00 | |
| HEMX73-11 | 2026-08-31 11:44:17 | 50.08089 | 8.54352 | 78° | 64km/h | 15885m | 4.0m/s | -54.5°C | 1.9% | 110.6hPa | 2.7V | 04:04:00 | 00:00:00 | 00:00:00 | |
| DL1NUX | 2026-08-31 11:44:16 | 50.08076 | 8.54276 | 75° | 69km/h | 15873m | 4.5m/s | -54.5°C | 4.8% | 110.8hPa | 2.7V | 04:03:46 | 01:11:45 | 00:00:00 | |
| DM0DOS-11 | 2026-08-31 11:44:15 | 50.08061 | 8.54194 | 71° | 71km/h | 15861m | 4.5m/s | -54.7°C | 4.8% | 111hPa | 2.6V | 04:03:49 | 01:11:42 | 00:00:00 | |
| DL1XH-west | 2026-08-31 11:44:11 | 50.08061 | 8.54194 | 72° | 71km/h | 15861m | 4.5m/s | -54.7°C | 1.6% | 111hPa | 2.6V | 04:04:07 | 01:11:42 | 00:00:00 | |
| DK7TD | 2026-08-31 11:44:09 | 50.08050 | 8.54141 | 73° | 73km/h | 15853m | 4.6m/s | -54.7°C | 1.6% | 111.2hPa | 2.7V | 04:04:07 | 01:11:40 | 00:00:00 | |
| BIOWL1-15 | 2026-08-31 11:44:06 | 50.08035 | 8.54059 | 76° | 69km/h | 15839m | 5.2m/s | -54.6°C | 1.7% | 111.4hPa | 2.6V | 04:04:07 | 01:11:37 | 00:00:00 | |
| SO1NDE-10 | 2026-08-31 11:44:06 | 50.08035 | 8.54059 | 76° | 73km/h | 15839m | 5.1m/s | -54.6°C | 4.9% | 111.4hPa | 2.6V | 04:03:00 | 01:11:37 | 00:00:00 | |
| DM0DOS-11 | 2026-08-31 11:44:05 | 50.08016 | 8.53924 | 77° | 75km/h | 15820m | 3.6m/s | -54.5°C | 4.8% | 111.8hPa | 2.6V | 04:03:59 | 01:11:32 | 00:00:00 | |
| DL1XH-west | 2026-08-31 11:44:00 | 50.08012 | 8.53895 | 75° | 75km/h | 15816m | 4.5m/s | -54.5°C | 1.6% | 111.8hPa | 2.6V | 04:04:07 | 01:11:31 | 00:00:00 | |
| BIOWL1-15 | 2026-08-31 11:44:00 | 50.07946 | 8.53593 | 73° | 75km/h | 15769m | 3.2m/s | -54.5°C | 1.5% | 112.7hPa | 2.6V | 04:04:58 | 01:11:20 | 00:00:00 | |
| DK7TD | 2026-08-31 11:43:58 | 50.08000 | 8.53840 | 70° | 73km/h | 15807m | 3.9m/s | -54.6°C | 1.6% | 112hPa | 2.7V | 04:04:07 | 01:11:29 | 00:00:00 | |
| DL3AQ-11 | 2026-08-31 11:43:58 | 50.07994 | 8.53813 | 69° | 73km/h | 15803m | 4.3m/s | -54.6°C | 1.9% | 112.0hPa | 2.6V | 00:00:00 | 00:00:00 | 00:00:00 | |
| DF7PN | 2026-08-31 11:43:57 | 50.07987 | 8.53786 | 70° | 73km/h | 15798m | 4.7m/s | -54.5°C | 1.9% | 112.2hPa | 2.6V | 00:00:00 | 00:00:00 | 00:00:00 | |
| DL1NUX | 2026-08-31 11:43:56 | 50.07975 | 8.53731 | 71° | 73km/h | 15790m | 3.9m/s | -54.5°C | 4.8% | 112.3hPa | 2.6V | 04:04:06 | 01:11:25 | 00:00:00 | |
| DK5PH-5 | 2026-08-31 11:43:56 | 50.07987 | 8.53786 | 71° | 75km/h | 15798m | 4.7m/s | -54.5°C | 4.9% | 112.1hPa | 2.7V | 04:04:00 | 01:11:27 | 00:00:00 | |
| DM0DOS-11 | 2026-08-31 11:43:55 | 50.07957 | 8.53650 | 72° | 73km/h | 15777m | 4.6m/s | -54.5°C | 4.8% | 112.5hPa | 2.7V | 04:04:09 | 01:11:22 | 00:00:00 | |
| DL1XH-west | 2026-08-31 11:43:50 | 50.07952 | 8.53622 | 73° | 75km/h | 15773m | 4m/s | -54.4°C | 1.6% | 112.6hPa | 2.6V | 04:04:58 | 01:11:21 | 00:00:00 | |
| DC4HF-4 | 2026-08-31 11:43:49 | 50.07941 | 8.53565 | 72° | 75km/h | 15765m | 4.8m/s | -54.5°C | 1.9% | 112.7hPa | 2.6V | 00:00:00 | 00:00:00 | 00:00:00 | |
| DL1XH1-15 | 2026-08-31 11:43:48 | 50.07924 | 8.53481 | 73° | 75km/h | 15753m | 5m/s | -54.4°C | 4.7% | 112.9hPa | 2.6V | 04:04:15 | 01:11:16 | 00:00:00 | |
| DK7TD | 2026-08-31 11:43:47 | 50.07935 | 8.53537 | 72° | 75km/h | 15761m | 4m/s | -54.5°C | 1.6% | 112.8hPa | 2.7V | 04:04:58 | 01:11:18 | 00:00:00 | |
| DL1XH-west | 2026-08-31 11:43:40 | 50.07895 | 8.53340 | 72° | 75km/h | 15731m | 5.1m/s | -54.4°C | 1.5% | 113.3hPa | 2.6V | 04:04:58 | 01:11:11 | 00:00:00 | |
| DL4BBY-15 | 2026-08-31 11:43:39 | 50.07889 | 8.53312 | 72° | 75km/h | 15726m | 4.1m/s | -53.7°C | 0% | 0hPa | 2.6V | 00:00:00 | 00:00:00 | 00:00:00 | |
| DL1XH1-15 | 2026-08-31 11:43:38 | 50.07863 | 8.53205 | 68° | 71km/h | 15710m | 4.1m/s | -54.5°C | 5% | 113.7hPa | 2.6V | 04:04:25 | 01:11:06 | 00:00:00 | |
| DK7TD | 2026-08-31 11:43:37 | 50.07877 | 8.53257 | 69° | 73km/h | 15719m | 4.9m/s | -54.5°C | 1.6% | 113.6hPa | 2.7V | 04:04:58 | 01:11:08 | 00:00:00 | |
| DL1NUX | 2026-08-31 11:43:36 | 50.07857 | 8.53179 | 69° | 71km/h | 15705m | 4.6m/s | -54.5°C | 5% | 113.8hPa | 2.6V | 04:04:26 | 01:11:05 | 00:00:00 | |
| DF2AP-13 | 2026-08-31 11:43:36 | 50.07870 | 8.53231 | 68° | 77km/h | 15714m | 4.1m/s | -54.5°C | 4.9% | 113.6hPa | 2.7V | 00:00:00 | 01:11:07 | 00:00:00 | |
| DM0DOS-11 | 2026-08-31 11:43:35 | 50.07839 | 8.53098 | 70° | 75km/h | 15694m | 4.9m/s | -54.5°C | 5% | 114hPa | 2.7V | 04:04:29 | 01:11:02 | 00:00:00 | |
| DL8DAS-14 | 2026-08-31 11:43:35 | 50.07857 | 8.53179 | 69° | 69km/h | 15705m | 4.6m/s | -54.5°C | 1.9% | 113.8hPa | 2.7V | 00:00:00 | 00:00:00 | 00:00:00 | |
| DL3AQ-11 | 2026-08-31 11:43:33 | 50.07851 | 8.53152 | 71° | 71km/h | 15701m | 3.2m/s | -54.5°C | 1.9% | 113.9hPa | 2.7V | 00:00:00 | 00:00:00 | 00:00:00 | |
| BIOWL9-15 | 2026-08-31 11:43:31 | 50.07833 | 8.53070 | 70° | 75km/h | 15690m | 4.5m/s | -54.5°C | 1.9% | 114.1hPa | 2.7V | 00:00:00 | 00:00:00 | 00:00:00 | |
| DO1YAY-16 | 2026-08-31 11:43:30 | 50.07826 | 8.53041 | 70° | 77km/h | 15685m | 4.7m/s | -54.5°C | 1.9% | 114.2hPa | 2.7V | 00:00:00 | 00:00:00 | 00:00:00 | |
| DL1XH1-15 | 2026-08-31 11:43:29 | 50.07800 | 8.52925 | 70° | 80km/h | 15666m | 4.9m/s | -54.5°C | 4.8% | 114.5hPa | 2.7V | 04:04:35 | 01:10:56 | 00:00:00 | |
| DL1XH-west | 2026-08-31 11:43:29 | 50.07826 | 8.53041 | 71° | 77km/h | 15685m | 4.7m/s | -54.5°C | 1.6% | 114.2hPa | 2.6V | 04:04:58 | 01:11:00 | 00:00:00 | |
| DL1NUX | 2026-08-31 11:43:26 | 50.07794 | 8.52895 | 70° | 78km/h | 15661m | 4.2m/s | -54.4°C | 4.8% | 114.6hPa | 2.6V | 04:04:36 | 01:10:55 | 00:00:00 | |
| DK7TD | 2026-08-31 11:43:26 | 50.07807 | 8.52954 | 71° | 80km/h | 15670m | 4.9m/s | -54.5°C | 1.6% | 114.4hPa | 2.7V | 04:04:58 | 01:10:57 | 00:00:00 | |
| BIOWL1-15 | 2026-08-31 11:43:19 | 50.07732 | 8.52618 | 69° | 78km/h | 15616m | 5.1m/s | -53.9°C | 1.6% | 115.4hPa | 2.7V | 04:04:58 | 01:10:45 | 00:00:00 | |
| DL1XH1-15 | 2026-08-31 11:43:18 | 50.07738 | 8.52647 | 70° | 77km/h | 15621m | 4.2m/s | -54°C | 4.9% | 115.3hPa | 2.7V | 04:04:45 | 01:10:46 | 00:00:00 | |
| DL1XH-west | 2026-08-31 11:43:18 | 50.07757 | 8.52730 | 70° | 73km/h | 15634m | 4.3m/s | -54.2°C | 1.5% | 115.1hPa | 2.6V | 04:04:58 | 01:10:49 | 00:00:00 | |
| DL3AQ-11 | 2026-08-31 11:43:18 | 50.07750 | 8.52703 | 71° | 73km/h | 15629m | 5.0m/s | -54.1°C | 1.9% | 115.2hPa | 2.7V | 00:00:00 | 00:00:00 | 00:00:00 | |
| CB1BUN | 2026-08-31 11:43:17 | 50.07750 | 8.52703 | 72° | 73km/h | 15629m | 5.0m/s | -54.1°C | 1.9% | 115.2hPa | 2.7V | 04:04:00 | 00:00:00 | 00:00:00 | |
| DL1NUX | 2026-08-31 11:43:16 | 50.07732 | 8.52618 | 69° | 78km/h | 15616m | 5.1m/s | -53.9°C | 4.8% | 115.4hPa | 2.7V | 04:04:46 | 01:10:45 | 00:00:00 | |
| DK7TD | 2026-08-31 11:43:15 | 50.07739 | 8.52647 | 71° | 77km/h | 15621m | 4.2m/s | -54°C | 1.6% | 115.3hPa | 2.7V | 04:04:58 | 01:10:46 | 00:00:00 | |
| HEMX73-11 | 2026-08-31 11:43:14 | 50.07738 | 8.52647 | 72° | 77km/h | 15621m | 4.2m/s | -54.0°C | 1.9% | 115.3hPa | 2.7V | 04:04:00 | 00:00:00 | 00:00:00 | |
| DB0ND-19 | 2026-08-31 11:43:13 | 50.07725 | 8.52589 | 68° | 80km/h | 15612m | 4.0m/s | -53.9°C | 1.8% | 115.5hPa | 2.7V | 00:00:00 | 00:00:00 | 00:00:00 | |
| DM0DOS-11 | 2026-08-31 11:43:11 | 50.07703 | 8.52502 | 70° | 77km/h | 15598m | 4.2m/s | -53.8°C | 4.7% | 115.8hPa | 2.7V | 04:04:50 | 01:10:41 | 00:00:00 | |
| SONCRA | 2026-08-31 11:43:10 | 50.07696 | 8.52474 | 69° | 73km/h | 15594m | 4.2m/s | -53.9°C | 1.8% | 115.8hPa | 2.7V | 00:00:00 | 00:00:00 | 00:00:00 | |
| DL4BBY-15 | 2026-08-31 11:43:09 | 50.07696 | 8.52474 | 70° | 73km/h | 15594m | 4.1m/s | -53.2°C | 0% | 0hPa | 2.7V | 00:00:00 | 00:00:00 | 00:00:00 | |
| DL1XH1-15 | 2026-08-31 11:43:08 | 50.07669 | 8.52367 | 69° | 73km/h | 15575m | 5m/s | -53.6°C | 4.7% | 116.1hPa | 2.7V | 04:04:55 | 01:10:36 | 00:00:00 | |
| DL1XH-west | 2026-08-31 11:43:08 | 50.07690 | 8.52447 | 68° | 75km/h | 15589m | 5.3m/s | -53.9°C | 1.5% | 115.9hPa | 2.6V | 04:04:58 | 01:10:39 | 00:00:00 | |
| BIOWL1-15 | 2026-08-31 11:43:08 | 50.07675 | 8.52394 | 68° | 73km/h | 15580m | 4m/s | -53.7°C | 1.4% | 116hPa | 2.7V | 04:04:58 | 01:10:37 | 00:00:00 | |
| DL8DAS-15 | 2026-08-31 11:43:08 | 50.07690 | 8.52447 | 69° | 75km/h | 15589m | 5.3m/s | -53.9°C | 1.8% | 115.9hPa | 2.7V | 04:04:00 | 00:00:00 | 00:00:00 | |
| DL1NUX | 2026-08-31 11:43:06 | 50.07662 | 8.52341 | 70° | 73km/h | 15571m | 4.3m/s | -53.6°C | 4.7% | 116.2hPa | 2.7V | 04:04:56 | 01:10:35 | 00:00:00 | |
| SO1NDE-10 | 2026-08-31 11:43:06 | 50.07675 | 8.52394 | 68° | 73km/h | 15580m | 3.9m/s | -53.6°C | 4.6% | 116.0hPa | 2.7V | 00:00:00 | 01:10:37 | 00:00:00 | |
| DM0DOS-11 | 2026-08-31 11:43:05 | 50.07636 | 8.52230 | 70° | 78km/h | 15553m | 4.4m/s | -53.6°C | 4.7% | 116.5hPa | 2.7V | 04:05:00 | 01:10:31 | 00:00:00 | |
| DK7TD | 2026-08-31 11:43:04 | 50.07662 | 8.52341 | 71° | 73km/h | 15571m | 4.3m/s | -53.6°C | 1.5% | 116.2hPa | 2.7V | 04:04:58 | 01:10:35 | 00:00:00 | |
| DJTTGO | 2026-08-31 11:43:00 | 50.07643 | 8.52258 | 70° | 77km/h | 15557m | 4.1m/s | -53.6°C | 0% | 0hPa | 2.6V | 00:00:00 | 00:00:00 | 00:00:00 | |
| DJ8HS-15 | 2026-08-31 11:42:59 | 50.07630 | 8.52201 | 72° | 73km/h | 15548m | 5.1m/s | -53.4°C | 4.7% | 116.6hPa | 2.6V | 00:00:00 | 01:10:30 | 00:00:00 | |
| DL1XH1-15 | 2026-08-31 11:42:57 | 50.07603 | 8.52087 | 67° | 73km/h | 15530m | 3.3m/s | -53.2°C | 4.6% | 117hPa | 2.6V | 04:05:05 | 01:10:26 | 00:00:00 | |
| DL1XH-west | 2026-08-31 11:42:57 | 50.07617 | 8.52143 | 71° | 77km/h | 15539m | 4.8m/s | -53.3°C | 1.4% | 116.8hPa | 2.6V | 04:05:49 | 01:10:28 | 00:00:00 | |
| DL1NUX | 2026-08-31 11:42:56 | 50.07597 | 8.52061 | 68° | 71km/h | 15527m | 4.3m/s | -53.2°C | 4.6% | 117hPa | 2.7V | 04:05:06 | 01:10:25 | 00:00:00 | |
| DK7TD | 2026-08-31 11:42:54 | 50.07597 | 8.52061 | 68° | 71km/h | 15527m | 4.3m/s | -53.2°C | 1.4% | 117hPa | 2.7V | 04:05:49 | 01:10:25 | 00:00:00 | |
| HEMX73-11 | 2026-08-31 11:42:54 | 50.07597 | 8.52060 | 69° | 71km/h | 15527m | 4.3m/s | -53.2°C | 1.8% | 117.0hPa | 2.6V | 04:05:00 | 00:00:00 | 00:00:00 | |
| DM0DOS-11 | 2026-08-31 11:42:53 | 50.07572 | 8.51958 | 68° | 71km/h | 15509m | 5.2m/s | -53.2°C | 4.5% | 117.3hPa | 2.6V | 04:05:10 | 01:10:21 | 00:00:00 | |
| DL1XH-west | 2026-08-31 11:42:47 | 50.07553 | 8.51879 | 72° | 71km/h | 15495m | 4.8m/s | -53°C | 1.4% | 117.6hPa | 2.7V | 04:05:49 | 01:10:18 | 00:00:00 | |
| Es werden nur die letzten 3500 von 4983 Frames angezeigt. GPX/KML und Diagramme bleiben verfügbar. | |||||||||||||||